<?xml version="1.0" encoding="UTF-8" standalone="no" ?>
<gpx xmlns="http://www.topografix.com/GPX/1/1" xmlns:xsi="http://www.w3.org/2001/XMLSchema-instance" xsi:schemaLocation="http://www.topografix.com/GPX/1/1 http://www.topografix.com/GPX/1/1/gpx.xsd" version="1.1" creator="VisuGPX - https://www.visugpx.com">
  <metadata>
    <name>Gorges st Pierre </name>
    <desc><![CDATA[Magnifique grandioses pour gorges st Pierre aux cabanes de Congerman prendre à gauche et suivre le sentier, gorges de St Pierre chapelle St Pierre ]]></desc>
  </metadata>
  <trk>
    <name><![CDATA[Beauvezer-Lignin]]></name>
    <extensions>
      <line xmlns="http://www.topografix.com/GPX/gpx_style/0/2">
        <color>0000FF</color>
        <width>4</width>
      </line>
    </extensions>
    <trkseg>
      <trkpt lat="44.14451" lon="6.59458">
        <ele>1160.4</ele>
        <time>2022-09-17T22:49:53Z</time>
      </trkpt>
      <trkpt lat="44.14446" lon="6.5946">
        <ele>1160.1</ele>
        <time>2022-09-17T22:49:54Z</time>
      </trkpt>
      <trkpt lat="44.14441" lon="6.59463">
        <ele>1159.8</ele>
        <time>2022-09-17T22:49:55Z</time>
      </trkpt>
      <trkpt lat="44.14437" lon="6.59466">
        <ele>1159.5</ele>
        <time>2022-09-17T22:49:56Z</time>
      </trkpt>
      <trkpt lat="44.14432" lon="6.59467">
        <ele>1159.3</ele>
        <time>2022-09-17T22:49:57Z</time>
      </trkpt>
      <trkpt lat="44.14428" lon="6.59466">
        <ele>1158.9</ele>
        <time>2022-09-17T22:49:58Z</time>
      </trkpt>
      <trkpt lat="44.14421" lon="6.59461">
        <ele>1158.7</ele>
        <time>2022-09-17T22:50:00Z</time>
      </trkpt>
      <trkpt lat="44.14418" lon="6.59458">
        <ele>1158.6</ele>
        <time>2022-09-17T22:50:01Z</time>
      </trkpt>
      <trkpt lat="44.14414" lon="6.59454">
        <ele>1158.4</ele>
        <time>2022-09-17T22:50:02Z</time>
      </trkpt>
      <trkpt lat="44.1441" lon="6.5945">
        <ele>1158.3</ele>
        <time>2022-09-17T22:50:03Z</time>
      </trkpt>
      <trkpt lat="44.14406" lon="6.59446">
        <ele>1158.2</ele>
        <time>2022-09-17T22:50:04Z</time>
      </trkpt>
      <trkpt lat="44.14402" lon="6.59442">
        <ele>1158.1</ele>
        <time>2022-09-17T22:50:05Z</time>
      </trkpt>
      <trkpt lat="44.14397" lon="6.59438">
        <ele>1157.9</ele>
        <time>2022-09-17T22:50:06Z</time>
      </trkpt>
      <trkpt lat="44.14394" lon="6.59435">
        <ele>1157.8</ele>
        <time>2022-09-17T22:50:07Z</time>
      </trkpt>
      <trkpt lat="44.1439" lon="6.59431">
        <ele>1157.7</ele>
        <time>2022-09-17T22:50:08Z</time>
      </trkpt>
      <trkpt lat="44.14386" lon="6.59427">
        <ele>1157.6</ele>
        <time>2022-09-17T22:50:09Z</time>
      </trkpt>
      <trkpt lat="44.14381" lon="6.59424">
        <ele>1157.5</ele>
        <time>2022-09-17T22:50:10Z</time>
      </trkpt>
      <trkpt lat="44.14377" lon="6.5942">
        <ele>1157.4</ele>
        <time>2022-09-17T22:50:11Z</time>
      </trkpt>
      <trkpt lat="44.14373" lon="6.59416">
        <ele>1157.3</ele>
        <time>2022-09-17T22:50:12Z</time>
      </trkpt>
      <trkpt lat="44.14369" lon="6.59413">
        <ele>1157.2</ele>
        <time>2022-09-17T22:50:13Z</time>
      </trkpt>
      <trkpt lat="44.14364" lon="6.59409">
        <ele>1157.1</ele>
        <time>2022-09-17T22:50:14Z</time>
      </trkpt>
      <trkpt lat="44.1436" lon="6.59406">
        <ele>1157</ele>
        <time>2022-09-17T22:50:15Z</time>
      </trkpt>
      <trkpt lat="44.14356" lon="6.59402">
        <ele>1156.9</ele>
        <time>2022-09-17T22:50:16Z</time>
      </trkpt>
      <trkpt lat="44.14352" lon="6.59399">
        <ele>1156.8</ele>
        <time>2022-09-17T22:50:17Z</time>
      </trkpt>
      <trkpt lat="44.14348" lon="6.59397">
        <ele>1156.8</ele>
        <time>2022-09-17T22:50:18Z</time>
      </trkpt>
      <trkpt lat="44.14343" lon="6.59395">
        <ele>1156.7</ele>
        <time>2022-09-17T22:50:19Z</time>
      </trkpt>
      <trkpt lat="44.14337" lon="6.59396">
        <ele>1156.6</ele>
        <time>2022-09-17T22:50:20Z</time>
      </trkpt>
      <trkpt lat="44.14331" lon="6.59399">
        <ele>1156.4</ele>
        <time>2022-09-17T22:50:21Z</time>
      </trkpt>
      <trkpt lat="44.14327" lon="6.59402">
        <ele>1156.4</ele>
        <time>2022-09-17T22:50:22Z</time>
      </trkpt>
      <trkpt lat="44.14323" lon="6.59407">
        <ele>1156.4</ele>
        <time>2022-09-17T22:50:23Z</time>
      </trkpt>
      <trkpt lat="44.1432" lon="6.59412">
        <ele>1156.4</ele>
        <time>2022-09-17T22:50:24Z</time>
      </trkpt>
      <trkpt lat="44.14317" lon="6.59418">
        <ele>1156.4</ele>
        <time>2022-09-17T22:50:25Z</time>
      </trkpt>
      <trkpt lat="44.14316" lon="6.59424">
        <ele>1156.4</ele>
        <time>2022-09-17T22:50:26Z</time>
      </trkpt>
      <trkpt lat="44.14315" lon="6.59431">
        <ele>1156.4</ele>
        <time>2022-09-17T22:50:27Z</time>
      </trkpt>
      <trkpt lat="44.14313" lon="6.59437">
        <ele>1156.4</ele>
        <time>2022-09-17T22:50:28Z</time>
      </trkpt>
      <trkpt lat="44.14311" lon="6.59443">
        <ele>1156.4</ele>
        <time>2022-09-17T22:50:29Z</time>
      </trkpt>
      <trkpt lat="44.1431" lon="6.59449">
        <ele>1156.4</ele>
        <time>2022-09-17T22:50:30Z</time>
      </trkpt>
      <trkpt lat="44.14308" lon="6.59455">
        <ele>1156.5</ele>
        <time>2022-09-17T22:50:31Z</time>
      </trkpt>
      <trkpt lat="44.14306" lon="6.59461">
        <ele>1156.5</ele>
        <time>2022-09-17T22:50:32Z</time>
      </trkpt>
      <trkpt lat="44.14305" lon="6.59464">
        <ele>1156.5</ele>
        <time>2022-09-17T22:50:33Z</time>
      </trkpt>
      <trkpt lat="44.14303" lon="6.59469">
        <ele>1156.5</ele>
        <time>2022-09-17T22:50:34Z</time>
      </trkpt>
      <trkpt lat="44.14302" lon="6.59474">
        <ele>1156.6</ele>
        <time>2022-09-17T22:50:35Z</time>
      </trkpt>
      <trkpt lat="44.143" lon="6.59481">
        <ele>1156.6</ele>
        <time>2022-09-17T22:50:36Z</time>
      </trkpt>
      <trkpt lat="44.14299" lon="6.59486">
        <ele>1156.6</ele>
        <time>2022-09-17T22:50:37Z</time>
      </trkpt>
      <trkpt lat="44.14297" lon="6.59491">
        <ele>1156.6</ele>
        <time>2022-09-17T22:50:38Z</time>
      </trkpt>
      <trkpt lat="44.14296" lon="6.59496">
        <ele>1156.6</ele>
        <time>2022-09-17T22:50:39Z</time>
      </trkpt>
      <trkpt lat="44.14295" lon="6.59501">
        <ele>1156.7</ele>
        <time>2022-09-17T22:50:40Z</time>
      </trkpt>
      <trkpt lat="44.14292" lon="6.5951">
        <ele>1156.7</ele>
        <time>2022-09-17T22:50:41Z</time>
      </trkpt>
      <trkpt lat="44.14291" lon="6.5952">
        <ele>1156.7</ele>
        <time>2022-09-17T22:50:43Z</time>
      </trkpt>
      <trkpt lat="44.14289" lon="6.5953">
        <ele>1156.8</ele>
        <time>2022-09-17T22:50:44Z</time>
      </trkpt>
      <trkpt lat="44.14287" lon="6.59537">
        <ele>1156.8</ele>
        <time>2022-09-17T22:50:45Z</time>
      </trkpt>
      <trkpt lat="44.14284" lon="6.59546">
        <ele>1156.8</ele>
        <time>2022-09-17T22:50:47Z</time>
      </trkpt>
      <trkpt lat="44.14282" lon="6.59552">
        <ele>1156.8</ele>
        <time>2022-09-17T22:50:48Z</time>
      </trkpt>
      <trkpt lat="44.1428" lon="6.59558">
        <ele>1156.9</ele>
        <time>2022-09-17T22:50:49Z</time>
      </trkpt>
      <trkpt lat="44.1428" lon="6.59561">
        <ele>1156.9</ele>
        <time>2022-09-17T22:50:50Z</time>
      </trkpt>
      <trkpt lat="44.14278" lon="6.59568">
        <ele>1156.9</ele>
        <time>2022-09-17T22:50:51Z</time>
      </trkpt>
      <trkpt lat="44.14277" lon="6.59575">
        <ele>1157</ele>
        <time>2022-09-17T22:50:52Z</time>
      </trkpt>
      <trkpt lat="44.14275" lon="6.59581">
        <ele>1157</ele>
        <time>2022-09-17T22:50:53Z</time>
      </trkpt>
      <trkpt lat="44.14273" lon="6.59588">
        <ele>1157.1</ele>
        <time>2022-09-17T22:50:54Z</time>
      </trkpt>
      <trkpt lat="44.14272" lon="6.59595">
        <ele>1157.1</ele>
        <time>2022-09-17T22:50:55Z</time>
      </trkpt>
      <trkpt lat="44.14269" lon="6.59603">
        <ele>1157.2</ele>
        <time>2022-09-17T22:50:57Z</time>
      </trkpt>
      <trkpt lat="44.14268" lon="6.59609">
        <ele>1157.3</ele>
        <time>2022-09-17T22:50:58Z</time>
      </trkpt>
      <trkpt lat="44.14266" lon="6.59616">
        <ele>1158.2</ele>
        <time>2022-09-17T22:50:59Z</time>
      </trkpt>
      <trkpt lat="44.14267" lon="6.59623">
        <ele>1158.9</ele>
        <time>2022-09-17T22:51:01Z</time>
      </trkpt>
      <trkpt lat="44.1427" lon="6.59627">
        <ele>1159.4</ele>
        <time>2022-09-17T22:51:02Z</time>
      </trkpt>
      <trkpt lat="44.14275" lon="6.59629">
        <ele>1160.1</ele>
        <time>2022-09-17T22:51:03Z</time>
      </trkpt>
      <trkpt lat="44.14279" lon="6.59632">
        <ele>1160.9</ele>
        <time>2022-09-17T22:51:04Z</time>
      </trkpt>
      <trkpt lat="44.14283" lon="6.59634">
        <ele>1161.5</ele>
        <time>2022-09-17T22:51:05Z</time>
      </trkpt>
      <trkpt lat="44.14286" lon="6.59635">
        <ele>1162.1</ele>
        <time>2022-09-17T22:51:06Z</time>
      </trkpt>
      <trkpt lat="44.1429" lon="6.59638">
        <ele>1162.7</ele>
        <time>2022-09-17T22:51:07Z</time>
      </trkpt>
      <trkpt lat="44.14293" lon="6.5964">
        <ele>1163.3</ele>
        <time>2022-09-17T22:51:09Z</time>
      </trkpt>
      <trkpt lat="44.14298" lon="6.59645">
        <ele>1164.2</ele>
        <time>2022-09-17T22:51:10Z</time>
      </trkpt>
      <trkpt lat="44.14301" lon="6.59648">
        <ele>1164.7</ele>
        <time>2022-09-17T22:51:11Z</time>
      </trkpt>
      <trkpt lat="44.14303" lon="6.59653">
        <ele>1165.5</ele>
        <time>2022-09-17T22:51:13Z</time>
      </trkpt>
      <trkpt lat="44.14306" lon="6.59658">
        <ele>1166.1</ele>
        <time>2022-09-17T22:51:14Z</time>
      </trkpt>
      <trkpt lat="44.14307" lon="6.59662">
        <ele>1166.6</ele>
        <time>2022-09-17T22:51:15Z</time>
      </trkpt>
      <trkpt lat="44.14306" lon="6.5967">
        <ele>1167.4</ele>
        <time>2022-09-17T22:51:17Z</time>
      </trkpt>
      <trkpt lat="44.14305" lon="6.59675">
        <ele>1168.1</ele>
        <time>2022-09-17T22:51:18Z</time>
      </trkpt>
      <trkpt lat="44.14306" lon="6.59681">
        <ele>1168.7</ele>
        <time>2022-09-17T22:51:19Z</time>
      </trkpt>
      <trkpt lat="44.14307" lon="6.59686">
        <ele>1169.4</ele>
        <time>2022-09-17T22:51:20Z</time>
      </trkpt>
      <trkpt lat="44.14308" lon="6.59691">
        <ele>1169.9</ele>
        <time>2022-09-17T22:51:21Z</time>
      </trkpt>
      <trkpt lat="44.14309" lon="6.59697">
        <ele>1170.7</ele>
        <time>2022-09-17T22:51:22Z</time>
      </trkpt>
      <trkpt lat="44.14308" lon="6.59704">
        <ele>1171.5</ele>
        <time>2022-09-17T22:51:23Z</time>
      </trkpt>
      <trkpt lat="44.14307" lon="6.59711">
        <ele>1172.2</ele>
        <time>2022-09-17T22:51:25Z</time>
      </trkpt>
      <trkpt lat="44.14305" lon="6.59717">
        <ele>1173.1</ele>
        <time>2022-09-17T22:51:26Z</time>
      </trkpt>
      <trkpt lat="44.14302" lon="6.59722">
        <ele>1173.9</ele>
        <time>2022-09-17T22:51:27Z</time>
      </trkpt>
      <trkpt lat="44.14299" lon="6.59725">
        <ele>1174.6</ele>
        <time>2022-09-17T22:51:29Z</time>
      </trkpt>
      <trkpt lat="44.14295" lon="6.59729">
        <ele>1175.6</ele>
        <time>2022-09-17T22:51:30Z</time>
      </trkpt>
      <trkpt lat="44.14294" lon="6.59737">
        <ele>1176.8</ele>
        <time>2022-09-17T22:51:32Z</time>
      </trkpt>
      <trkpt lat="44.14293" lon="6.59741">
        <ele>1177.5</ele>
        <time>2022-09-17T22:51:33Z</time>
      </trkpt>
      <trkpt lat="44.14291" lon="6.59744">
        <ele>1178.1</ele>
        <time>2022-09-17T22:51:35Z</time>
      </trkpt>
      <trkpt lat="44.1429" lon="6.59748">
        <ele>1179</ele>
        <time>2022-09-17T22:51:36Z</time>
      </trkpt>
      <trkpt lat="44.14288" lon="6.59755">
        <ele>1180.1</ele>
        <time>2022-09-17T22:51:37Z</time>
      </trkpt>
      <trkpt lat="44.14287" lon="6.59759">
        <ele>1180.8</ele>
        <time>2022-09-17T22:51:39Z</time>
      </trkpt>
      <trkpt lat="44.14284" lon="6.59763">
        <ele>1181.7</ele>
        <time>2022-09-17T22:51:40Z</time>
      </trkpt>
      <trkpt lat="44.14283" lon="6.59764">
        <ele>1182</ele>
        <time>2022-09-17T22:51:41Z</time>
      </trkpt>
      <trkpt lat="44.1428" lon="6.59769">
        <ele>1183</ele>
        <time>2022-09-17T22:51:42Z</time>
      </trkpt>
      <trkpt lat="44.14279" lon="6.59771">
        <ele>1183.4</ele>
        <time>2022-09-17T22:51:43Z</time>
      </trkpt>
      <trkpt lat="44.14277" lon="6.59776">
        <ele>1184.3</ele>
        <time>2022-09-17T22:51:44Z</time>
      </trkpt>
      <trkpt lat="44.14277" lon="6.59777">
        <ele>1184.6</ele>
        <time>2022-09-17T22:51:45Z</time>
      </trkpt>
      <trkpt lat="44.14275" lon="6.59781">
        <ele>1185.5</ele>
        <time>2022-09-17T22:51:46Z</time>
      </trkpt>
      <trkpt lat="44.14274" lon="6.59782">
        <ele>1186.3</ele>
        <time>2022-09-17T22:51:47Z</time>
      </trkpt>
      <trkpt lat="44.14272" lon="6.59785">
        <ele>1186.8</ele>
        <time>2022-09-17T22:51:48Z</time>
      </trkpt>
      <trkpt lat="44.14271" lon="6.59789">
        <ele>1187.5</ele>
        <time>2022-09-17T22:51:50Z</time>
      </trkpt>
      <trkpt lat="44.14271" lon="6.59793">
        <ele>1188.1</ele>
        <time>2022-09-17T22:51:51Z</time>
      </trkpt>
      <trkpt lat="44.14271" lon="6.59795">
        <ele>1188.3</ele>
        <time>2022-09-17T22:51:52Z</time>
      </trkpt>
      <trkpt lat="44.14272" lon="6.598">
        <ele>1189.1</ele>
        <time>2022-09-17T22:51:53Z</time>
      </trkpt>
      <trkpt lat="44.14272" lon="6.59802">
        <ele>1189.5</ele>
        <time>2022-09-17T22:51:54Z</time>
      </trkpt>
      <trkpt lat="44.14273" lon="6.59806">
        <ele>1190.2</ele>
        <time>2022-09-17T22:51:55Z</time>
      </trkpt>
      <trkpt lat="44.14274" lon="6.59808">
        <ele>1190.5</ele>
        <time>2022-09-17T22:51:56Z</time>
      </trkpt>
      <trkpt lat="44.14276" lon="6.59812">
        <ele>1191.3</ele>
        <time>2022-09-17T22:51:57Z</time>
      </trkpt>
      <trkpt lat="44.14277" lon="6.59815">
        <ele>1191.9</ele>
        <time>2022-09-17T22:51:58Z</time>
      </trkpt>
      <trkpt lat="44.14278" lon="6.59819">
        <ele>1192.6</ele>
        <time>2022-09-17T22:52:00Z</time>
      </trkpt>
      <trkpt lat="44.14281" lon="6.59825">
        <ele>1193.8</ele>
        <time>2022-09-17T22:52:01Z</time>
      </trkpt>
      <trkpt lat="44.14282" lon="6.59828">
        <ele>1194.3</ele>
        <time>2022-09-17T22:52:02Z</time>
      </trkpt>
      <trkpt lat="44.14284" lon="6.59831">
        <ele>1195.2</ele>
        <time>2022-09-17T22:52:03Z</time>
      </trkpt>
      <trkpt lat="44.14284" lon="6.59833">
        <ele>1195.4</ele>
        <time>2022-09-17T22:52:04Z</time>
      </trkpt>
      <trkpt lat="44.14286" lon="6.59836">
        <ele>1196.2</ele>
        <time>2022-09-17T22:52:06Z</time>
      </trkpt>
      <trkpt lat="44.14287" lon="6.59837">
        <ele>1196.4</ele>
        <time>2022-09-17T22:52:07Z</time>
      </trkpt>
      <trkpt lat="44.14288" lon="6.59839">
        <ele>1197</ele>
        <time>2022-09-17T22:52:08Z</time>
      </trkpt>
      <trkpt lat="44.14289" lon="6.59842">
        <ele>1197.6</ele>
        <time>2022-09-17T22:52:10Z</time>
      </trkpt>
      <trkpt lat="44.1429" lon="6.59843">
        <ele>1197.9</ele>
        <time>2022-09-17T22:52:11Z</time>
      </trkpt>
      <trkpt lat="44.14291" lon="6.59845">
        <ele>1198.3</ele>
        <time>2022-09-17T22:52:12Z</time>
      </trkpt>
      <trkpt lat="44.14292" lon="6.59847">
        <ele>1198.8</ele>
        <time>2022-09-17T22:52:13Z</time>
      </trkpt>
      <trkpt lat="44.14293" lon="6.59849">
        <ele>1199.2</ele>
        <time>2022-09-17T22:52:14Z</time>
      </trkpt>
      <trkpt lat="44.14295" lon="6.59851">
        <ele>1199.7</ele>
        <time>2022-09-17T22:52:15Z</time>
      </trkpt>
      <trkpt lat="44.14297" lon="6.59854">
        <ele>1200.5</ele>
        <time>2022-09-17T22:52:17Z</time>
      </trkpt>
      <trkpt lat="44.14299" lon="6.59858">
        <ele>1201.6</ele>
        <time>2022-09-17T22:52:18Z</time>
      </trkpt>
      <trkpt lat="44.143" lon="6.5986">
        <ele>1202</ele>
        <time>2022-09-17T22:52:19Z</time>
      </trkpt>
      <trkpt lat="44.14302" lon="6.59864">
        <ele>1202.9</ele>
        <time>2022-09-17T22:52:20Z</time>
      </trkpt>
      <trkpt lat="44.14302" lon="6.59866">
        <ele>1203.1</ele>
        <time>2022-09-17T22:52:21Z</time>
      </trkpt>
      <trkpt lat="44.14303" lon="6.5987">
        <ele>1203.9</ele>
        <time>2022-09-17T22:52:22Z</time>
      </trkpt>
      <trkpt lat="44.14304" lon="6.59871">
        <ele>1204.3</ele>
        <time>2022-09-17T22:52:23Z</time>
      </trkpt>
      <trkpt lat="44.14307" lon="6.59874">
        <ele>1205.1</ele>
        <time>2022-09-17T22:52:24Z</time>
      </trkpt>
      <trkpt lat="44.1431" lon="6.5988">
        <ele>1206.4</ele>
        <time>2022-09-17T22:52:26Z</time>
      </trkpt>
      <trkpt lat="44.14311" lon="6.59882">
        <ele>1206.9</ele>
        <time>2022-09-17T22:52:27Z</time>
      </trkpt>
      <trkpt lat="44.14312" lon="6.59884">
        <ele>1207.3</ele>
        <time>2022-09-17T22:52:28Z</time>
      </trkpt>
      <trkpt lat="44.14314" lon="6.59888">
        <ele>1208.2</ele>
        <time>2022-09-17T22:52:29Z</time>
      </trkpt>
      <trkpt lat="44.14316" lon="6.59892">
        <ele>1209</ele>
        <time>2022-09-17T22:52:31Z</time>
      </trkpt>
      <trkpt lat="44.14318" lon="6.59895">
        <ele>1209.7</ele>
        <time>2022-09-17T22:52:32Z</time>
      </trkpt>
      <trkpt lat="44.1432" lon="6.59899">
        <ele>1210.4</ele>
        <time>2022-09-17T22:52:33Z</time>
      </trkpt>
      <trkpt lat="44.14321" lon="6.59901">
        <ele>1210.9</ele>
        <time>2022-09-17T22:52:34Z</time>
      </trkpt>
      <trkpt lat="44.14322" lon="6.59906">
        <ele>1211.7</ele>
        <time>2022-09-17T22:52:36Z</time>
      </trkpt>
      <trkpt lat="44.14324" lon="6.59911">
        <ele>1212.6</ele>
        <time>2022-09-17T22:52:37Z</time>
      </trkpt>
      <trkpt lat="44.14325" lon="6.59913">
        <ele>1212.9</ele>
        <time>2022-09-17T22:52:38Z</time>
      </trkpt>
      <trkpt lat="44.14326" lon="6.59916">
        <ele>1213.5</ele>
        <time>2022-09-17T22:52:39Z</time>
      </trkpt>
      <trkpt lat="44.14326" lon="6.5992">
        <ele>1214.2</ele>
        <time>2022-09-17T22:52:40Z</time>
      </trkpt>
      <trkpt lat="44.14328" lon="6.59926">
        <ele>1215.1</ele>
        <time>2022-09-17T22:52:42Z</time>
      </trkpt>
      <trkpt lat="44.14329" lon="6.59928">
        <ele>1215.6</ele>
        <time>2022-09-17T22:52:43Z</time>
      </trkpt>
      <trkpt lat="44.1433" lon="6.5993">
        <ele>1216</ele>
        <time>2022-09-17T22:52:44Z</time>
      </trkpt>
      <trkpt lat="44.14331" lon="6.59934">
        <ele>1216.4</ele>
        <time>2022-09-17T22:52:45Z</time>
      </trkpt>
      <trkpt lat="44.14332" lon="6.59939">
        <ele>1217.1</ele>
        <time>2022-09-17T22:52:46Z</time>
      </trkpt>
      <trkpt lat="44.14332" lon="6.59941">
        <ele>1217.4</ele>
        <time>2022-09-17T22:52:47Z</time>
      </trkpt>
      <trkpt lat="44.14332" lon="6.59946">
        <ele>1218</ele>
        <time>2022-09-17T22:52:49Z</time>
      </trkpt>
      <trkpt lat="44.14332" lon="6.5995">
        <ele>1218.6</ele>
        <time>2022-09-17T22:52:50Z</time>
      </trkpt>
      <trkpt lat="44.14333" lon="6.59955">
        <ele>1219.3</ele>
        <time>2022-09-17T22:52:52Z</time>
      </trkpt>
      <trkpt lat="44.14333" lon="6.59957">
        <ele>1219.5</ele>
        <time>2022-09-17T22:52:53Z</time>
      </trkpt>
      <trkpt lat="44.14333" lon="6.59961">
        <ele>1220.1</ele>
        <time>2022-09-17T22:52:54Z</time>
      </trkpt>
      <trkpt lat="44.14333" lon="6.59966">
        <ele>1220.8</ele>
        <time>2022-09-17T22:52:56Z</time>
      </trkpt>
      <trkpt lat="44.14333" lon="6.59968">
        <ele>1221</ele>
        <time>2022-09-17T22:52:57Z</time>
      </trkpt>
      <trkpt lat="44.14333" lon="6.5997">
        <ele>1221.4</ele>
        <time>2022-09-17T22:52:58Z</time>
      </trkpt>
      <trkpt lat="44.14334" lon="6.59972">
        <ele>1221.6</ele>
        <time>2022-09-17T22:52:59Z</time>
      </trkpt>
      <trkpt lat="44.14336" lon="6.59973">
        <ele>1222</ele>
        <time>2022-09-17T22:53:00Z</time>
      </trkpt>
      <trkpt lat="44.14337" lon="6.59973">
        <ele>1222.3</ele>
        <time>2022-09-17T22:53:01Z</time>
      </trkpt>
      <trkpt lat="44.14338" lon="6.59973">
        <ele>1222.5</ele>
        <time>2022-09-17T22:53:02Z</time>
      </trkpt>
      <trkpt lat="44.14338" lon="6.59971">
        <ele>1222.8</ele>
        <time>2022-09-17T22:53:03Z</time>
      </trkpt>
      <trkpt lat="44.14339" lon="6.59968">
        <ele>1223.3</ele>
        <time>2022-09-17T22:53:04Z</time>
      </trkpt>
      <trkpt lat="44.14341" lon="6.59965">
        <ele>1223.9</ele>
        <time>2022-09-17T22:53:05Z</time>
      </trkpt>
      <trkpt lat="44.14341" lon="6.59963">
        <ele>1224.1</ele>
        <time>2022-09-17T22:53:06Z</time>
      </trkpt>
      <trkpt lat="44.14343" lon="6.59962">
        <ele>1225.2</ele>
        <time>2022-09-17T22:53:08Z</time>
      </trkpt>
      <trkpt lat="44.14344" lon="6.59961">
        <ele>1225.6</ele>
        <time>2022-09-17T22:53:09Z</time>
      </trkpt>
      <trkpt lat="44.14346" lon="6.5996">
        <ele>1226.1</ele>
        <time>2022-09-17T22:53:10Z</time>
      </trkpt>
      <trkpt lat="44.14348" lon="6.5996">
        <ele>1226.6</ele>
        <time>2022-09-17T22:53:11Z</time>
      </trkpt>
      <trkpt lat="44.14351" lon="6.5996">
        <ele>1227.6</ele>
        <time>2022-09-17T22:53:12Z</time>
      </trkpt>
      <trkpt lat="44.14353" lon="6.59961">
        <ele>1228.1</ele>
        <time>2022-09-17T22:53:13Z</time>
      </trkpt>
      <trkpt lat="44.14356" lon="6.59961">
        <ele>1229</ele>
        <time>2022-09-17T22:53:15Z</time>
      </trkpt>
      <trkpt lat="44.14357" lon="6.59961">
        <ele>1229.3</ele>
        <time>2022-09-17T22:53:16Z</time>
      </trkpt>
      <trkpt lat="44.14361" lon="6.5996">
        <ele>1230.3</ele>
        <time>2022-09-17T22:53:17Z</time>
      </trkpt>
      <trkpt lat="44.14362" lon="6.59959">
        <ele>1230.6</ele>
        <time>2022-09-17T22:53:18Z</time>
      </trkpt>
      <trkpt lat="44.14365" lon="6.59957">
        <ele>1231.5</ele>
        <time>2022-09-17T22:53:19Z</time>
      </trkpt>
      <trkpt lat="44.14366" lon="6.59956">
        <ele>1231.8</ele>
        <time>2022-09-17T22:53:20Z</time>
      </trkpt>
      <trkpt lat="44.14368" lon="6.59954">
        <ele>1232.7</ele>
        <time>2022-09-17T22:53:22Z</time>
      </trkpt>
      <trkpt lat="44.14369" lon="6.59954">
        <ele>1232.9</ele>
        <time>2022-09-17T22:53:23Z</time>
      </trkpt>
      <trkpt lat="44.14373" lon="6.59954">
        <ele>1234</ele>
        <time>2022-09-17T22:53:24Z</time>
      </trkpt>
      <trkpt lat="44.14375" lon="6.59954">
        <ele>1234.4</ele>
        <time>2022-09-17T22:53:25Z</time>
      </trkpt>
      <trkpt lat="44.1438" lon="6.59954">
        <ele>1235.8</ele>
        <time>2022-09-17T22:53:27Z</time>
      </trkpt>
      <trkpt lat="44.14382" lon="6.59955">
        <ele>1236.4</ele>
        <time>2022-09-17T22:53:28Z</time>
      </trkpt>
      <trkpt lat="44.14384" lon="6.59956">
        <ele>1236.9</ele>
        <time>2022-09-17T22:53:29Z</time>
      </trkpt>
      <trkpt lat="44.14387" lon="6.59958">
        <ele>1237.8</ele>
        <time>2022-09-17T22:53:30Z</time>
      </trkpt>
      <trkpt lat="44.14388" lon="6.59959">
        <ele>1238.1</ele>
        <time>2022-09-17T22:53:31Z</time>
      </trkpt>
      <trkpt lat="44.14391" lon="6.59962">
        <ele>1239.2</ele>
        <time>2022-09-17T22:53:32Z</time>
      </trkpt>
      <trkpt lat="44.14392" lon="6.59964">
        <ele>1239.5</ele>
        <time>2022-09-17T22:53:33Z</time>
      </trkpt>
      <trkpt lat="44.14394" lon="6.5997">
        <ele>1240.6</ele>
        <time>2022-09-17T22:53:35Z</time>
      </trkpt>
      <trkpt lat="44.14395" lon="6.59972">
        <ele>1241</ele>
        <time>2022-09-17T22:53:37Z</time>
      </trkpt>
      <trkpt lat="44.14398" lon="6.59973">
        <ele>1241.7</ele>
        <time>2022-09-17T22:53:38Z</time>
      </trkpt>
      <trkpt lat="44.14399" lon="6.59973">
        <ele>1241.8</ele>
        <time>2022-09-17T22:53:39Z</time>
      </trkpt>
      <trkpt lat="44.14401" lon="6.59974">
        <ele>1242.2</ele>
        <time>2022-09-17T22:53:40Z</time>
      </trkpt>
      <trkpt lat="44.14402" lon="6.59974">
        <ele>1242.5</ele>
        <time>2022-09-17T22:53:41Z</time>
      </trkpt>
      <trkpt lat="44.14405" lon="6.59977">
        <ele>1243.2</ele>
        <time>2022-09-17T22:53:42Z</time>
      </trkpt>
      <trkpt lat="44.14406" lon="6.59978">
        <ele>1243.4</ele>
        <time>2022-09-17T22:53:43Z</time>
      </trkpt>
      <trkpt lat="44.14407" lon="6.5998">
        <ele>1243.8</ele>
        <time>2022-09-17T22:53:44Z</time>
      </trkpt>
      <trkpt lat="44.14408" lon="6.59982">
        <ele>1244.2</ele>
        <time>2022-09-17T22:53:46Z</time>
      </trkpt>
      <trkpt lat="44.14411" lon="6.59985">
        <ele>1244.8</ele>
        <time>2022-09-17T22:53:47Z</time>
      </trkpt>
      <trkpt lat="44.14412" lon="6.59986">
        <ele>1245</ele>
        <time>2022-09-17T22:53:48Z</time>
      </trkpt>
      <trkpt lat="44.14415" lon="6.59988">
        <ele>1245.5</ele>
        <time>2022-09-17T22:53:49Z</time>
      </trkpt>
      <trkpt lat="44.14418" lon="6.5999">
        <ele>1246</ele>
        <time>2022-09-17T22:53:51Z</time>
      </trkpt>
      <trkpt lat="44.14418" lon="6.59991">
        <ele>1246.1</ele>
        <time>2022-09-17T22:53:52Z</time>
      </trkpt>
      <trkpt lat="44.14421" lon="6.59994">
        <ele>1246.6</ele>
        <time>2022-09-17T22:53:53Z</time>
      </trkpt>
      <trkpt lat="44.14423" lon="6.59995">
        <ele>1246.8</ele>
        <time>2022-09-17T22:53:54Z</time>
      </trkpt>
      <trkpt lat="44.14425" lon="6.59997">
        <ele>1247.2</ele>
        <time>2022-09-17T22:53:55Z</time>
      </trkpt>
      <trkpt lat="44.14426" lon="6.59997">
        <ele>1247.3</ele>
        <time>2022-09-17T22:53:56Z</time>
      </trkpt>
      <trkpt lat="44.1443" lon="6.6">
        <ele>1247.8</ele>
        <time>2022-09-17T22:53:57Z</time>
      </trkpt>
      <trkpt lat="44.1443" lon="6.6">
        <ele>1247.9</ele>
        <time>2022-09-17T22:53:58Z</time>
      </trkpt>
      <trkpt lat="44.14433" lon="6.60002">
        <ele>1248.3</ele>
        <time>2022-09-17T22:53:59Z</time>
      </trkpt>
      <trkpt lat="44.14436" lon="6.60006">
        <ele>1248.9</ele>
        <time>2022-09-17T22:54:01Z</time>
      </trkpt>
      <trkpt lat="44.14437" lon="6.60008">
        <ele>1249.2</ele>
        <time>2022-09-17T22:54:02Z</time>
      </trkpt>
      <trkpt lat="44.14439" lon="6.6001">
        <ele>1249.5</ele>
        <time>2022-09-17T22:54:03Z</time>
      </trkpt>
      <trkpt lat="44.14441" lon="6.60012">
        <ele>1250</ele>
        <time>2022-09-17T22:54:05Z</time>
      </trkpt>
      <trkpt lat="44.14443" lon="6.60015">
        <ele>1250.4</ele>
        <time>2022-09-17T22:54:06Z</time>
      </trkpt>
      <trkpt lat="44.14444" lon="6.60016">
        <ele>1250.7</ele>
        <time>2022-09-17T22:54:07Z</time>
      </trkpt>
      <trkpt lat="44.14447" lon="6.60021">
        <ele>1251.4</ele>
        <time>2022-09-17T22:54:09Z</time>
      </trkpt>
      <trkpt lat="44.14448" lon="6.60022">
        <ele>1251.6</ele>
        <time>2022-09-17T22:54:10Z</time>
      </trkpt>
      <trkpt lat="44.14449" lon="6.60023">
        <ele>1251.8</ele>
        <time>2022-09-17T22:54:11Z</time>
      </trkpt>
      <trkpt lat="44.14452" lon="6.60026">
        <ele>1252.4</ele>
        <time>2022-09-17T22:54:12Z</time>
      </trkpt>
      <trkpt lat="44.14453" lon="6.60027">
        <ele>1252.6</ele>
        <time>2022-09-17T22:54:13Z</time>
      </trkpt>
      <trkpt lat="44.14455" lon="6.60031">
        <ele>1253.2</ele>
        <time>2022-09-17T22:54:14Z</time>
      </trkpt>
      <trkpt lat="44.14456" lon="6.60032">
        <ele>1253.3</ele>
        <time>2022-09-17T22:54:15Z</time>
      </trkpt>
      <trkpt lat="44.14458" lon="6.60036">
        <ele>1253.8</ele>
        <time>2022-09-17T22:54:17Z</time>
      </trkpt>
      <trkpt lat="44.14459" lon="6.60037">
        <ele>1254</ele>
        <time>2022-09-17T22:54:18Z</time>
      </trkpt>
      <trkpt lat="44.14461" lon="6.6004">
        <ele>1254.4</ele>
        <time>2022-09-17T22:54:19Z</time>
      </trkpt>
      <trkpt lat="44.14463" lon="6.60043">
        <ele>1254.8</ele>
        <time>2022-09-17T22:54:20Z</time>
      </trkpt>
      <trkpt lat="44.14465" lon="6.60045">
        <ele>1255.2</ele>
        <time>2022-09-17T22:54:21Z</time>
      </trkpt>
      <trkpt lat="44.14467" lon="6.60049">
        <ele>1255.6</ele>
        <time>2022-09-17T22:54:23Z</time>
      </trkpt>
      <trkpt lat="44.14469" lon="6.60053">
        <ele>1256.1</ele>
        <time>2022-09-17T22:54:24Z</time>
      </trkpt>
      <trkpt lat="44.1447" lon="6.60055">
        <ele>1256.3</ele>
        <time>2022-09-17T22:54:25Z</time>
      </trkpt>
      <trkpt lat="44.14472" lon="6.60059">
        <ele>1256.7</ele>
        <time>2022-09-17T22:54:27Z</time>
      </trkpt>
      <trkpt lat="44.14473" lon="6.6006">
        <ele>1256.8</ele>
        <time>2022-09-17T22:54:28Z</time>
      </trkpt>
      <trkpt lat="44.14475" lon="6.60063">
        <ele>1257.2</ele>
        <time>2022-09-17T22:54:29Z</time>
      </trkpt>
      <trkpt lat="44.14476" lon="6.60064">
        <ele>1257.3</ele>
        <time>2022-09-17T22:54:30Z</time>
      </trkpt>
      <trkpt lat="44.14476" lon="6.60064">
        <ele>1257.4</ele>
        <time>2022-09-17T22:54:31Z</time>
      </trkpt>
      <trkpt lat="44.14475" lon="6.60063">
        <ele>1257.6</ele>
        <time>2022-09-17T22:54:33Z</time>
      </trkpt>
      <trkpt lat="44.14475" lon="6.60063">
        <ele>1257.6</ele>
        <time>2022-09-17T22:54:35Z</time>
      </trkpt>
      <trkpt lat="44.14475" lon="6.60063">
        <ele>1257.6</ele>
        <time>2022-09-17T22:54:36Z</time>
      </trkpt>
      <trkpt lat="44.14475" lon="6.60063">
        <ele>1257.6</ele>
        <time>2022-09-17T22:54:37Z</time>
      </trkpt>
      <trkpt lat="44.14474" lon="6.60063">
        <ele>1257.6</ele>
        <time>2022-09-17T22:54:38Z</time>
      </trkpt>
      <trkpt lat="44.14474" lon="6.60063">
        <ele>1257.7</ele>
        <time>2022-09-17T22:54:39Z</time>
      </trkpt>
      <trkpt lat="44.14474" lon="6.60063">
        <ele>1257.7</ele>
        <time>2022-09-17T22:54:40Z</time>
      </trkpt>
      <trkpt lat="44.14474" lon="6.60064">
        <ele>1257.7</ele>
        <time>2022-09-17T22:54:41Z</time>
      </trkpt>
      <trkpt lat="44.14474" lon="6.60063">
        <ele>1257.8</ele>
        <time>2022-09-17T22:54:42Z</time>
      </trkpt>
      <trkpt lat="44.14474" lon="6.60063">
        <ele>1257.8</ele>
        <time>2022-09-17T22:54:43Z</time>
      </trkpt>
      <trkpt lat="44.14474" lon="6.60062">
        <ele>1257.8</ele>
        <time>2022-09-17T22:54:44Z</time>
      </trkpt>
      <trkpt lat="44.14474" lon="6.60062">
        <ele>1257.9</ele>
        <time>2022-09-17T22:54:45Z</time>
      </trkpt>
      <trkpt lat="44.14474" lon="6.60062">
        <ele>1257.9</ele>
        <time>2022-09-17T22:54:46Z</time>
      </trkpt>
      <trkpt lat="44.14474" lon="6.60062">
        <ele>1257.9</ele>
        <time>2022-09-17T22:54:47Z</time>
      </trkpt>
      <trkpt lat="44.14474" lon="6.60062">
        <ele>1257.9</ele>
        <time>2022-09-17T22:54:48Z</time>
      </trkpt>
      <trkpt lat="44.14474" lon="6.60063">
        <ele>1258</ele>
        <time>2022-09-17T22:54:49Z</time>
      </trkpt>
      <trkpt lat="44.14476" lon="6.60065">
        <ele>1258.3</ele>
        <time>2022-09-17T22:54:50Z</time>
      </trkpt>
      <trkpt lat="44.14478" lon="6.60068">
        <ele>1258.6</ele>
        <time>2022-09-17T22:54:52Z</time>
      </trkpt>
      <trkpt lat="44.1448" lon="6.6007">
        <ele>1259</ele>
        <time>2022-09-17T22:54:53Z</time>
      </trkpt>
      <trkpt lat="44.14484" lon="6.60074">
        <ele>1259.7</ele>
        <time>2022-09-17T22:54:54Z</time>
      </trkpt>
      <trkpt lat="44.14486" lon="6.60076">
        <ele>1260.1</ele>
        <time>2022-09-17T22:54:56Z</time>
      </trkpt>
      <trkpt lat="44.1449" lon="6.60079">
        <ele>1260.7</ele>
        <time>2022-09-17T22:54:58Z</time>
      </trkpt>
      <trkpt lat="44.14492" lon="6.60081">
        <ele>1261.2</ele>
        <time>2022-09-17T22:54:59Z</time>
      </trkpt>
      <trkpt lat="44.14493" lon="6.60082">
        <ele>1261.4</ele>
        <time>2022-09-17T22:55:00Z</time>
      </trkpt>
      <trkpt lat="44.14496" lon="6.60085">
        <ele>1262</ele>
        <time>2022-09-17T22:55:01Z</time>
      </trkpt>
      <trkpt lat="44.14499" lon="6.60087">
        <ele>1262.5</ele>
        <time>2022-09-17T22:55:02Z</time>
      </trkpt>
      <trkpt lat="44.14502" lon="6.6009">
        <ele>1263.1</ele>
        <time>2022-09-17T22:55:04Z</time>
      </trkpt>
      <trkpt lat="44.14503" lon="6.60092">
        <ele>1263.4</ele>
        <time>2022-09-17T22:55:05Z</time>
      </trkpt>
      <trkpt lat="44.14504" lon="6.60093">
        <ele>1263.6</ele>
        <time>2022-09-17T22:55:06Z</time>
      </trkpt>
      <trkpt lat="44.14507" lon="6.60095">
        <ele>1264.1</ele>
        <time>2022-09-17T22:55:07Z</time>
      </trkpt>
      <trkpt lat="44.14509" lon="6.60096">
        <ele>1264.3</ele>
        <time>2022-09-17T22:55:08Z</time>
      </trkpt>
      <trkpt lat="44.14512" lon="6.60098">
        <ele>1264.8</ele>
        <time>2022-09-17T22:55:10Z</time>
      </trkpt>
      <trkpt lat="44.14514" lon="6.60099">
        <ele>1265</ele>
        <time>2022-09-17T22:55:11Z</time>
      </trkpt>
      <trkpt lat="44.14515" lon="6.60101">
        <ele>1265.3</ele>
        <time>2022-09-17T22:55:12Z</time>
      </trkpt>
      <trkpt lat="44.14517" lon="6.60101">
        <ele>1265.5</ele>
        <time>2022-09-17T22:55:13Z</time>
      </trkpt>
      <trkpt lat="44.14517" lon="6.60102">
        <ele>1265.6</ele>
        <time>2022-09-17T22:55:14Z</time>
      </trkpt>
      <trkpt lat="44.14518" lon="6.60102">
        <ele>1265.7</ele>
        <time>2022-09-17T22:55:15Z</time>
      </trkpt>
      <trkpt lat="44.1452" lon="6.60103">
        <ele>1266</ele>
        <time>2022-09-17T22:55:16Z</time>
      </trkpt>
      <trkpt lat="44.14522" lon="6.60105">
        <ele>1266.3</ele>
        <time>2022-09-17T22:55:18Z</time>
      </trkpt>
      <trkpt lat="44.14526" lon="6.60108">
        <ele>1266.9</ele>
        <time>2022-09-17T22:55:20Z</time>
      </trkpt>
      <trkpt lat="44.14527" lon="6.6011">
        <ele>1267.1</ele>
        <time>2022-09-17T22:55:21Z</time>
      </trkpt>
      <trkpt lat="44.14528" lon="6.60111">
        <ele>1267.2</ele>
        <time>2022-09-17T22:55:22Z</time>
      </trkpt>
      <trkpt lat="44.14531" lon="6.60113">
        <ele>1267.6</ele>
        <time>2022-09-17T22:55:23Z</time>
      </trkpt>
      <trkpt lat="44.14532" lon="6.60114">
        <ele>1267.7</ele>
        <time>2022-09-17T22:55:24Z</time>
      </trkpt>
      <trkpt lat="44.14535" lon="6.60115">
        <ele>1268</ele>
        <time>2022-09-17T22:55:25Z</time>
      </trkpt>
      <trkpt lat="44.14538" lon="6.60117">
        <ele>1268.4</ele>
        <time>2022-09-17T22:55:26Z</time>
      </trkpt>
      <trkpt lat="44.14539" lon="6.60118">
        <ele>1268.6</ele>
        <time>2022-09-17T22:55:27Z</time>
      </trkpt>
      <trkpt lat="44.14542" lon="6.60121">
        <ele>1269</ele>
        <time>2022-09-17T22:55:29Z</time>
      </trkpt>
      <trkpt lat="44.14543" lon="6.60121">
        <ele>1269.2</ele>
        <time>2022-09-17T22:55:30Z</time>
      </trkpt>
      <trkpt lat="44.14545" lon="6.60122">
        <ele>1269.4</ele>
        <time>2022-09-17T22:55:31Z</time>
      </trkpt>
      <trkpt lat="44.14546" lon="6.60123">
        <ele>1269.6</ele>
        <time>2022-09-17T22:55:32Z</time>
      </trkpt>
      <trkpt lat="44.14549" lon="6.60126">
        <ele>1270</ele>
        <time>2022-09-17T22:55:33Z</time>
      </trkpt>
      <trkpt lat="44.1455" lon="6.60127">
        <ele>1270.3</ele>
        <time>2022-09-17T22:55:34Z</time>
      </trkpt>
      <trkpt lat="44.14553" lon="6.6013">
        <ele>1270.7</ele>
        <time>2022-09-17T22:55:36Z</time>
      </trkpt>
      <trkpt lat="44.14556" lon="6.60133">
        <ele>1271.2</ele>
        <time>2022-09-17T22:55:37Z</time>
      </trkpt>
      <trkpt lat="44.14559" lon="6.60137">
        <ele>1271.9</ele>
        <time>2022-09-17T22:55:39Z</time>
      </trkpt>
      <trkpt lat="44.14561" lon="6.60139">
        <ele>1272.1</ele>
        <time>2022-09-17T22:55:40Z</time>
      </trkpt>
      <trkpt lat="44.14562" lon="6.6014">
        <ele>1272.3</ele>
        <time>2022-09-17T22:55:41Z</time>
      </trkpt>
      <trkpt lat="44.14565" lon="6.60144">
        <ele>1272.9</ele>
        <time>2022-09-17T22:55:42Z</time>
      </trkpt>
      <trkpt lat="44.14567" lon="6.60147">
        <ele>1273.3</ele>
        <time>2022-09-17T22:55:43Z</time>
      </trkpt>
      <trkpt lat="44.14569" lon="6.6015">
        <ele>1273.8</ele>
        <time>2022-09-17T22:55:45Z</time>
      </trkpt>
      <trkpt lat="44.14572" lon="6.60153">
        <ele>1274.3</ele>
        <time>2022-09-17T22:55:46Z</time>
      </trkpt>
      <trkpt lat="44.14573" lon="6.60154">
        <ele>1274.5</ele>
        <time>2022-09-17T22:55:47Z</time>
      </trkpt>
      <trkpt lat="44.14575" lon="6.60157">
        <ele>1274.9</ele>
        <time>2022-09-17T22:55:48Z</time>
      </trkpt>
      <trkpt lat="44.14576" lon="6.60158">
        <ele>1275.1</ele>
        <time>2022-09-17T22:55:49Z</time>
      </trkpt>
      <trkpt lat="44.14577" lon="6.6016">
        <ele>1275.4</ele>
        <time>2022-09-17T22:55:50Z</time>
      </trkpt>
      <trkpt lat="44.1458" lon="6.60165">
        <ele>1276.2</ele>
        <time>2022-09-17T22:55:52Z</time>
      </trkpt>
      <trkpt lat="44.14581" lon="6.60166">
        <ele>1276.4</ele>
        <time>2022-09-17T22:55:53Z</time>
      </trkpt>
      <trkpt lat="44.14581" lon="6.60167">
        <ele>1276.5</ele>
        <time>2022-09-17T22:55:55Z</time>
      </trkpt>
      <trkpt lat="44.14582" lon="6.60167">
        <ele>1276.6</ele>
        <time>2022-09-17T22:55:56Z</time>
      </trkpt>
      <trkpt lat="44.14582" lon="6.60168">
        <ele>1276.7</ele>
        <time>2022-09-17T22:55:57Z</time>
      </trkpt>
      <trkpt lat="44.14583" lon="6.60168">
        <ele>1276.8</ele>
        <time>2022-09-17T22:55:58Z</time>
      </trkpt>
      <trkpt lat="44.14583" lon="6.60169">
        <ele>1276.9</ele>
        <time>2022-09-17T22:55:59Z</time>
      </trkpt>
      <trkpt lat="44.14584" lon="6.60169">
        <ele>1277</ele>
        <time>2022-09-17T22:56:00Z</time>
      </trkpt>
      <trkpt lat="44.14584" lon="6.6017">
        <ele>1277.2</ele>
        <time>2022-09-17T22:56:01Z</time>
      </trkpt>
      <trkpt lat="44.14585" lon="6.6017">
        <ele>1277.3</ele>
        <time>2022-09-17T22:56:02Z</time>
      </trkpt>
      <trkpt lat="44.14585" lon="6.60171">
        <ele>1277.4</ele>
        <time>2022-09-17T22:56:03Z</time>
      </trkpt>
      <trkpt lat="44.14586" lon="6.60171">
        <ele>1277.5</ele>
        <time>2022-09-17T22:56:18Z</time>
      </trkpt>
      <trkpt lat="44.14586" lon="6.60172">
        <ele>1277.6</ele>
        <time>2022-09-17T22:56:20Z</time>
      </trkpt>
      <trkpt lat="44.14587" lon="6.60172">
        <ele>1277.7</ele>
        <time>2022-09-17T22:56:21Z</time>
      </trkpt>
      <trkpt lat="44.14587" lon="6.60173">
        <ele>1277.8</ele>
        <time>2022-09-17T22:56:22Z</time>
      </trkpt>
      <trkpt lat="44.14588" lon="6.60177">
        <ele>1278.4</ele>
        <time>2022-09-17T22:56:23Z</time>
      </trkpt>
      <trkpt lat="44.14589" lon="6.60182">
        <ele>1279.1</ele>
        <time>2022-09-17T22:56:24Z</time>
      </trkpt>
      <trkpt lat="44.14589" lon="6.60184">
        <ele>1279.4</ele>
        <time>2022-09-17T22:56:25Z</time>
      </trkpt>
      <trkpt lat="44.1459" lon="6.6019">
        <ele>1280.2</ele>
        <time>2022-09-17T22:56:27Z</time>
      </trkpt>
      <trkpt lat="44.1459" lon="6.60192">
        <ele>1280.4</ele>
        <time>2022-09-17T22:56:28Z</time>
      </trkpt>
      <trkpt lat="44.1459" lon="6.60195">
        <ele>1280.7</ele>
        <time>2022-09-17T22:56:29Z</time>
      </trkpt>
      <trkpt lat="44.1459" lon="6.602">
        <ele>1281.3</ele>
        <time>2022-09-17T22:56:30Z</time>
      </trkpt>
      <trkpt lat="44.14591" lon="6.60206">
        <ele>1281.9</ele>
        <time>2022-09-17T22:56:31Z</time>
      </trkpt>
      <trkpt lat="44.14592" lon="6.60208">
        <ele>1282.1</ele>
        <time>2022-09-17T22:56:32Z</time>
      </trkpt>
      <trkpt lat="44.14593" lon="6.60213">
        <ele>1282.6</ele>
        <time>2022-09-17T22:56:34Z</time>
      </trkpt>
      <trkpt lat="44.14594" lon="6.60219">
        <ele>1283.2</ele>
        <time>2022-09-17T22:56:35Z</time>
      </trkpt>
      <trkpt lat="44.14595" lon="6.60222">
        <ele>1283.5</ele>
        <time>2022-09-17T22:56:36Z</time>
      </trkpt>
      <trkpt lat="44.14596" lon="6.60227">
        <ele>1283.9</ele>
        <time>2022-09-17T22:56:37Z</time>
      </trkpt>
      <trkpt lat="44.14597" lon="6.60228">
        <ele>1284.1</ele>
        <time>2022-09-17T22:56:38Z</time>
      </trkpt>
      <trkpt lat="44.14599" lon="6.60233">
        <ele>1284.6</ele>
        <time>2022-09-17T22:56:40Z</time>
      </trkpt>
      <trkpt lat="44.14599" lon="6.60234">
        <ele>1284.7</ele>
        <time>2022-09-17T22:56:41Z</time>
      </trkpt>
      <trkpt lat="44.146" lon="6.60238">
        <ele>1285.1</ele>
        <time>2022-09-17T22:56:42Z</time>
      </trkpt>
      <trkpt lat="44.14601" lon="6.60239">
        <ele>1285.3</ele>
        <time>2022-09-17T22:56:43Z</time>
      </trkpt>
      <trkpt lat="44.14602" lon="6.60244">
        <ele>1285.8</ele>
        <time>2022-09-17T22:56:44Z</time>
      </trkpt>
      <trkpt lat="44.14602" lon="6.60245">
        <ele>1285.9</ele>
        <time>2022-09-17T22:56:45Z</time>
      </trkpt>
      <trkpt lat="44.14604" lon="6.6025">
        <ele>1286.5</ele>
        <time>2022-09-17T22:56:46Z</time>
      </trkpt>
      <trkpt lat="44.14604" lon="6.60252">
        <ele>1286.7</ele>
        <time>2022-09-17T22:56:47Z</time>
      </trkpt>
      <trkpt lat="44.14605" lon="6.60256">
        <ele>1287.1</ele>
        <time>2022-09-17T22:56:48Z</time>
      </trkpt>
      <trkpt lat="44.14605" lon="6.60261">
        <ele>1287.7</ele>
        <time>2022-09-17T22:56:49Z</time>
      </trkpt>
      <trkpt lat="44.14605" lon="6.60263">
        <ele>1287.9</ele>
        <time>2022-09-17T22:56:50Z</time>
      </trkpt>
      <trkpt lat="44.14604" lon="6.60267">
        <ele>1288.6</ele>
        <time>2022-09-17T22:56:52Z</time>
      </trkpt>
      <trkpt lat="44.14603" lon="6.60268">
        <ele>1288.8</ele>
        <time>2022-09-17T22:56:53Z</time>
      </trkpt>
      <trkpt lat="44.14602" lon="6.60273">
        <ele>1289.5</ele>
        <time>2022-09-17T22:56:54Z</time>
      </trkpt>
      <trkpt lat="44.14601" lon="6.60274">
        <ele>1289.8</ele>
        <time>2022-09-17T22:56:55Z</time>
      </trkpt>
      <trkpt lat="44.14598" lon="6.60278">
        <ele>1290.5</ele>
        <time>2022-09-17T22:56:56Z</time>
      </trkpt>
      <trkpt lat="44.14594" lon="6.6028">
        <ele>1291.2</ele>
        <time>2022-09-17T22:56:58Z</time>
      </trkpt>
      <trkpt lat="44.14592" lon="6.60282">
        <ele>1291.8</ele>
        <time>2022-09-17T22:56:59Z</time>
      </trkpt>
      <trkpt lat="44.14589" lon="6.60284">
        <ele>1292.4</ele>
        <time>2022-09-17T22:57:00Z</time>
      </trkpt>
      <trkpt lat="44.14585" lon="6.60286">
        <ele>1293</ele>
        <time>2022-09-17T22:57:01Z</time>
      </trkpt>
      <trkpt lat="44.14581" lon="6.60289">
        <ele>1293.7</ele>
        <time>2022-09-17T22:57:03Z</time>
      </trkpt>
      <trkpt lat="44.14579" lon="6.60291">
        <ele>1294</ele>
        <time>2022-09-17T22:57:04Z</time>
      </trkpt>
      <trkpt lat="44.14577" lon="6.60292">
        <ele>1294.3</ele>
        <time>2022-09-17T22:57:05Z</time>
      </trkpt>
      <trkpt lat="44.14575" lon="6.60295">
        <ele>1294.9</ele>
        <time>2022-09-17T22:57:06Z</time>
      </trkpt>
      <trkpt lat="44.1457" lon="6.60297">
        <ele>1295.6</ele>
        <time>2022-09-17T22:57:08Z</time>
      </trkpt>
      <trkpt lat="44.14567" lon="6.60299">
        <ele>1296.2</ele>
        <time>2022-09-17T22:57:09Z</time>
      </trkpt>
      <trkpt lat="44.14565" lon="6.60301">
        <ele>1296.9</ele>
        <time>2022-09-17T22:57:10Z</time>
      </trkpt>
      <trkpt lat="44.14561" lon="6.60303">
        <ele>1297.7</ele>
        <time>2022-09-17T22:57:11Z</time>
      </trkpt>
      <trkpt lat="44.14557" lon="6.60304">
        <ele>1298.3</ele>
        <time>2022-09-17T22:57:13Z</time>
      </trkpt>
      <trkpt lat="44.14556" lon="6.60305">
        <ele>1298.6</ele>
        <time>2022-09-17T22:57:14Z</time>
      </trkpt>
      <trkpt lat="44.14555" lon="6.60306">
        <ele>1298.8</ele>
        <time>2022-09-17T22:57:15Z</time>
      </trkpt>
      <trkpt lat="44.14551" lon="6.60309">
        <ele>1299.5</ele>
        <time>2022-09-17T22:57:16Z</time>
      </trkpt>
      <trkpt lat="44.14549" lon="6.6031">
        <ele>1299.9</ele>
        <time>2022-09-17T22:57:17Z</time>
      </trkpt>
      <trkpt lat="44.14546" lon="6.60312">
        <ele>1300.5</ele>
        <time>2022-09-17T22:57:19Z</time>
      </trkpt>
      <trkpt lat="44.14545" lon="6.60313">
        <ele>1300.6</ele>
        <time>2022-09-17T22:57:20Z</time>
      </trkpt>
      <trkpt lat="44.14541" lon="6.60315">
        <ele>1301.3</ele>
        <time>2022-09-17T22:57:21Z</time>
      </trkpt>
      <trkpt lat="44.1454" lon="6.60316">
        <ele>1301.5</ele>
        <time>2022-09-17T22:57:22Z</time>
      </trkpt>
      <trkpt lat="44.14537" lon="6.60317">
        <ele>1302</ele>
        <time>2022-09-17T22:57:23Z</time>
      </trkpt>
      <trkpt lat="44.14535" lon="6.60318">
        <ele>1302.4</ele>
        <time>2022-09-17T22:57:24Z</time>
      </trkpt>
      <trkpt lat="44.14532" lon="6.60319">
        <ele>1302.9</ele>
        <time>2022-09-17T22:57:26Z</time>
      </trkpt>
      <trkpt lat="44.14529" lon="6.60319">
        <ele>1303.5</ele>
        <time>2022-09-17T22:57:27Z</time>
      </trkpt>
      <trkpt lat="44.14528" lon="6.6032">
        <ele>1303.6</ele>
        <time>2022-09-17T22:57:28Z</time>
      </trkpt>
      <trkpt lat="44.14525" lon="6.60323">
        <ele>1304.2</ele>
        <time>2022-09-17T22:57:29Z</time>
      </trkpt>
      <trkpt lat="44.14524" lon="6.60325">
        <ele>1304.5</ele>
        <time>2022-09-17T22:57:30Z</time>
      </trkpt>
      <trkpt lat="44.14522" lon="6.60327">
        <ele>1305</ele>
        <time>2022-09-17T22:57:31Z</time>
      </trkpt>
      <trkpt lat="44.1452" lon="6.60329">
        <ele>1305.5</ele>
        <time>2022-09-17T22:57:33Z</time>
      </trkpt>
      <trkpt lat="44.14517" lon="6.60331">
        <ele>1306</ele>
        <time>2022-09-17T22:57:34Z</time>
      </trkpt>
      <trkpt lat="44.14513" lon="6.60334">
        <ele>1306.9</ele>
        <time>2022-09-17T22:57:36Z</time>
      </trkpt>
      <trkpt lat="44.14512" lon="6.60335">
        <ele>1307.2</ele>
        <time>2022-09-17T22:57:37Z</time>
      </trkpt>
      <trkpt lat="44.1451" lon="6.60336">
        <ele>1307.6</ele>
        <time>2022-09-17T22:57:38Z</time>
      </trkpt>
      <trkpt lat="44.14507" lon="6.60338">
        <ele>1308.2</ele>
        <time>2022-09-17T22:57:39Z</time>
      </trkpt>
      <trkpt lat="44.14506" lon="6.60339">
        <ele>1308.4</ele>
        <time>2022-09-17T22:57:40Z</time>
      </trkpt>
      <trkpt lat="44.14503" lon="6.60339">
        <ele>1309</ele>
        <time>2022-09-17T22:57:41Z</time>
      </trkpt>
      <trkpt lat="44.14502" lon="6.6034">
        <ele>1309.2</ele>
        <time>2022-09-17T22:57:42Z</time>
      </trkpt>
      <trkpt lat="44.14499" lon="6.60339">
        <ele>1309.8</ele>
        <time>2022-09-17T22:57:43Z</time>
      </trkpt>
      <trkpt lat="44.14498" lon="6.60339">
        <ele>1310</ele>
        <time>2022-09-17T22:57:44Z</time>
      </trkpt>
      <trkpt lat="44.14495" lon="6.60339">
        <ele>1310.6</ele>
        <time>2022-09-17T22:57:45Z</time>
      </trkpt>
      <trkpt lat="44.14493" lon="6.60339">
        <ele>1311</ele>
        <time>2022-09-17T22:57:46Z</time>
      </trkpt>
      <trkpt lat="44.14489" lon="6.60339">
        <ele>1311.7</ele>
        <time>2022-09-17T22:57:48Z</time>
      </trkpt>
      <trkpt lat="44.14487" lon="6.60338">
        <ele>1312.1</ele>
        <time>2022-09-17T22:57:49Z</time>
      </trkpt>
      <trkpt lat="44.14484" lon="6.60338">
        <ele>1312.7</ele>
        <time>2022-09-17T22:57:50Z</time>
      </trkpt>
      <trkpt lat="44.14479" lon="6.60338">
        <ele>1313.4</ele>
        <time>2022-09-17T22:57:51Z</time>
      </trkpt>
      <trkpt lat="44.14475" lon="6.60338">
        <ele>1314</ele>
        <time>2022-09-17T22:57:53Z</time>
      </trkpt>
      <trkpt lat="44.1447" lon="6.60338">
        <ele>1314.6</ele>
        <time>2022-09-17T22:57:54Z</time>
      </trkpt>
      <trkpt lat="44.14467" lon="6.60338">
        <ele>1315</ele>
        <time>2022-09-17T22:57:56Z</time>
      </trkpt>
      <trkpt lat="44.14464" lon="6.60338">
        <ele>1315.3</ele>
        <time>2022-09-17T22:57:57Z</time>
      </trkpt>
      <trkpt lat="44.1446" lon="6.60338">
        <ele>1315.8</ele>
        <time>2022-09-17T22:57:58Z</time>
      </trkpt>
      <trkpt lat="44.14458" lon="6.60338">
        <ele>1316</ele>
        <time>2022-09-17T22:57:59Z</time>
      </trkpt>
      <trkpt lat="44.14455" lon="6.60338">
        <ele>1316.3</ele>
        <time>2022-09-17T22:58:00Z</time>
      </trkpt>
      <trkpt lat="44.14452" lon="6.60337">
        <ele>1316.6</ele>
        <time>2022-09-17T22:58:01Z</time>
      </trkpt>
      <trkpt lat="44.14449" lon="6.60338">
        <ele>1316.9</ele>
        <time>2022-09-17T22:58:03Z</time>
      </trkpt>
      <trkpt lat="44.14445" lon="6.60338">
        <ele>1317.3</ele>
        <time>2022-09-17T22:58:04Z</time>
      </trkpt>
      <trkpt lat="44.14442" lon="6.60338">
        <ele>1317.7</ele>
        <time>2022-09-17T22:58:05Z</time>
      </trkpt>
      <trkpt lat="44.14438" lon="6.60339">
        <ele>1318.2</ele>
        <time>2022-09-17T22:58:07Z</time>
      </trkpt>
      <trkpt lat="44.14434" lon="6.60339">
        <ele>1318.6</ele>
        <time>2022-09-17T22:58:08Z</time>
      </trkpt>
      <trkpt lat="44.14433" lon="6.60339">
        <ele>1318.7</ele>
        <time>2022-09-17T22:58:09Z</time>
      </trkpt>
      <trkpt lat="44.14429" lon="6.6034">
        <ele>1319.2</ele>
        <time>2022-09-17T22:58:10Z</time>
      </trkpt>
      <trkpt lat="44.14424" lon="6.60341">
        <ele>1319.9</ele>
        <time>2022-09-17T22:58:12Z</time>
      </trkpt>
      <trkpt lat="44.14422" lon="6.60341">
        <ele>1320.1</ele>
        <time>2022-09-17T22:58:13Z</time>
      </trkpt>
      <trkpt lat="44.1442" lon="6.60341">
        <ele>1320.3</ele>
        <time>2022-09-17T22:58:14Z</time>
      </trkpt>
      <trkpt lat="44.14417" lon="6.60342">
        <ele>1320.8</ele>
        <time>2022-09-17T22:58:15Z</time>
      </trkpt>
      <trkpt lat="44.14414" lon="6.60342">
        <ele>1321.1</ele>
        <time>2022-09-17T22:58:16Z</time>
      </trkpt>
      <trkpt lat="44.14411" lon="6.60342">
        <ele>1321.5</ele>
        <time>2022-09-17T22:58:17Z</time>
      </trkpt>
      <trkpt lat="44.14408" lon="6.60342">
        <ele>1322</ele>
        <time>2022-09-17T22:58:18Z</time>
      </trkpt>
      <trkpt lat="44.14404" lon="6.60343">
        <ele>1322.5</ele>
        <time>2022-09-17T22:58:20Z</time>
      </trkpt>
      <trkpt lat="44.144" lon="6.60344">
        <ele>1323</ele>
        <time>2022-09-17T22:58:21Z</time>
      </trkpt>
      <trkpt lat="44.14397" lon="6.60346">
        <ele>1323.4</ele>
        <time>2022-09-17T22:58:22Z</time>
      </trkpt>
      <trkpt lat="44.14393" lon="6.60348">
        <ele>1323.9</ele>
        <time>2022-09-17T22:58:23Z</time>
      </trkpt>
      <trkpt lat="44.14391" lon="6.6035">
        <ele>1324.4</ele>
        <time>2022-09-17T22:58:25Z</time>
      </trkpt>
      <trkpt lat="44.14387" lon="6.60352">
        <ele>1324.9</ele>
        <time>2022-09-17T22:58:26Z</time>
      </trkpt>
      <trkpt lat="44.14386" lon="6.60352">
        <ele>1325.1</ele>
        <time>2022-09-17T22:58:27Z</time>
      </trkpt>
      <trkpt lat="44.14383" lon="6.60352">
        <ele>1325.5</ele>
        <time>2022-09-17T22:58:29Z</time>
      </trkpt>
      <trkpt lat="44.14381" lon="6.60352">
        <ele>1326</ele>
        <time>2022-09-17T22:58:30Z</time>
      </trkpt>
      <trkpt lat="44.14377" lon="6.60353">
        <ele>1326.5</ele>
        <time>2022-09-17T22:58:31Z</time>
      </trkpt>
      <trkpt lat="44.14376" lon="6.60353">
        <ele>1326.7</ele>
        <time>2022-09-17T22:58:32Z</time>
      </trkpt>
      <trkpt lat="44.14374" lon="6.60354">
        <ele>1327.2</ele>
        <time>2022-09-17T22:58:33Z</time>
      </trkpt>
      <trkpt lat="44.14373" lon="6.60354">
        <ele>1327.4</ele>
        <time>2022-09-17T22:58:34Z</time>
      </trkpt>
      <trkpt lat="44.14369" lon="6.60355">
        <ele>1328.1</ele>
        <time>2022-09-17T22:58:35Z</time>
      </trkpt>
      <trkpt lat="44.14366" lon="6.60355">
        <ele>1328.6</ele>
        <time>2022-09-17T22:58:36Z</time>
      </trkpt>
      <trkpt lat="44.14363" lon="6.60356">
        <ele>1329</ele>
        <time>2022-09-17T22:58:38Z</time>
      </trkpt>
      <trkpt lat="44.1436" lon="6.60357">
        <ele>1329.6</ele>
        <time>2022-09-17T22:58:39Z</time>
      </trkpt>
      <trkpt lat="44.14357" lon="6.60357">
        <ele>1330</ele>
        <time>2022-09-17T22:58:40Z</time>
      </trkpt>
      <trkpt lat="44.14355" lon="6.60358">
        <ele>1330.3</ele>
        <time>2022-09-17T22:58:42Z</time>
      </trkpt>
      <trkpt lat="44.14352" lon="6.60358">
        <ele>1330.8</ele>
        <time>2022-09-17T22:58:43Z</time>
      </trkpt>
      <trkpt lat="44.14351" lon="6.60358">
        <ele>1331.1</ele>
        <time>2022-09-17T22:58:44Z</time>
      </trkpt>
      <trkpt lat="44.14347" lon="6.60358">
        <ele>1331.6</ele>
        <time>2022-09-17T22:58:45Z</time>
      </trkpt>
      <trkpt lat="44.14343" lon="6.60358">
        <ele>1332.3</ele>
        <time>2022-09-17T22:58:47Z</time>
      </trkpt>
      <trkpt lat="44.14341" lon="6.60357">
        <ele>1332.6</ele>
        <time>2022-09-17T22:58:48Z</time>
      </trkpt>
      <trkpt lat="44.14338" lon="6.60357">
        <ele>1333.1</ele>
        <time>2022-09-17T22:58:50Z</time>
      </trkpt>
      <trkpt lat="44.14336" lon="6.60358">
        <ele>1333.5</ele>
        <time>2022-09-17T22:58:51Z</time>
      </trkpt>
      <trkpt lat="44.14332" lon="6.60357">
        <ele>1334.2</ele>
        <time>2022-09-17T22:58:53Z</time>
      </trkpt>
      <trkpt lat="44.14329" lon="6.60359">
        <ele>1334.8</ele>
        <time>2022-09-17T22:58:54Z</time>
      </trkpt>
      <trkpt lat="44.14327" lon="6.6036">
        <ele>1335.1</ele>
        <time>2022-09-17T22:58:55Z</time>
      </trkpt>
      <trkpt lat="44.14325" lon="6.60361">
        <ele>1335.6</ele>
        <time>2022-09-17T22:58:56Z</time>
      </trkpt>
      <trkpt lat="44.14322" lon="6.60364">
        <ele>1336.4</ele>
        <time>2022-09-17T22:58:58Z</time>
      </trkpt>
      <trkpt lat="44.14321" lon="6.60365">
        <ele>1336.6</ele>
        <time>2022-09-17T22:58:59Z</time>
      </trkpt>
      <trkpt lat="44.14318" lon="6.60368">
        <ele>1337.3</ele>
        <time>2022-09-17T22:59:00Z</time>
      </trkpt>
      <trkpt lat="44.14315" lon="6.60372">
        <ele>1338.1</ele>
        <time>2022-09-17T22:59:02Z</time>
      </trkpt>
      <trkpt lat="44.14313" lon="6.60375">
        <ele>1338.7</ele>
        <time>2022-09-17T22:59:03Z</time>
      </trkpt>
      <trkpt lat="44.14309" lon="6.60379">
        <ele>1339.7</ele>
        <time>2022-09-17T22:59:04Z</time>
      </trkpt>
      <trkpt lat="44.14308" lon="6.6038">
        <ele>1340.2</ele>
        <time>2022-09-17T22:59:05Z</time>
      </trkpt>
      <trkpt lat="44.14306" lon="6.60383">
        <ele>1340.8</ele>
        <time>2022-09-17T22:59:06Z</time>
      </trkpt>
      <trkpt lat="44.14303" lon="6.60385">
        <ele>1341.4</ele>
        <time>2022-09-17T22:59:07Z</time>
      </trkpt>
      <trkpt lat="44.14301" lon="6.60388">
        <ele>1342.2</ele>
        <time>2022-09-17T22:59:09Z</time>
      </trkpt>
      <trkpt lat="44.14299" lon="6.6039">
        <ele>1342.8</ele>
        <time>2022-09-17T22:59:10Z</time>
      </trkpt>
      <trkpt lat="44.14298" lon="6.60391">
        <ele>1343</ele>
        <time>2022-09-17T22:59:11Z</time>
      </trkpt>
      <trkpt lat="44.14295" lon="6.60393">
        <ele>1343.8</ele>
        <time>2022-09-17T22:59:12Z</time>
      </trkpt>
      <trkpt lat="44.14292" lon="6.60396">
        <ele>1344.4</ele>
        <time>2022-09-17T22:59:14Z</time>
      </trkpt>
      <trkpt lat="44.14291" lon="6.60396">
        <ele>1344.6</ele>
        <time>2022-09-17T22:59:15Z</time>
      </trkpt>
      <trkpt lat="44.14289" lon="6.60399">
        <ele>1345.4</ele>
        <time>2022-09-17T22:59:16Z</time>
      </trkpt>
      <trkpt lat="44.14288" lon="6.604">
        <ele>1345.6</ele>
        <time>2022-09-17T22:59:17Z</time>
      </trkpt>
      <trkpt lat="44.14285" lon="6.60403">
        <ele>1346.3</ele>
        <time>2022-09-17T22:59:19Z</time>
      </trkpt>
      <trkpt lat="44.14283" lon="6.60406">
        <ele>1346.8</ele>
        <time>2022-09-17T22:59:20Z</time>
      </trkpt>
      <trkpt lat="44.1428" lon="6.60409">
        <ele>1347.7</ele>
        <time>2022-09-17T22:59:22Z</time>
      </trkpt>
      <trkpt lat="44.14278" lon="6.6041">
        <ele>1348</ele>
        <time>2022-09-17T22:59:23Z</time>
      </trkpt>
      <trkpt lat="44.14278" lon="6.60412">
        <ele>1348.3</ele>
        <time>2022-09-17T22:59:24Z</time>
      </trkpt>
      <trkpt lat="44.14278" lon="6.60415">
        <ele>1348.6</ele>
        <time>2022-09-17T22:59:25Z</time>
      </trkpt>
      <trkpt lat="44.14279" lon="6.60417">
        <ele>1348.4</ele>
        <time>2022-09-17T22:59:26Z</time>
      </trkpt>
      <trkpt lat="44.14279" lon="6.60417">
        <ele>1348.3</ele>
        <time>2022-09-17T22:59:27Z</time>
      </trkpt>
      <trkpt lat="44.1428" lon="6.60417">
        <ele>1348.2</ele>
        <time>2022-09-17T22:59:28Z</time>
      </trkpt>
      <trkpt lat="44.14281" lon="6.60417">
        <ele>1348.1</ele>
        <time>2022-09-17T22:59:29Z</time>
      </trkpt>
      <trkpt lat="44.14281" lon="6.60417">
        <ele>1348.1</ele>
        <time>2022-09-17T22:59:30Z</time>
      </trkpt>
      <trkpt lat="44.14282" lon="6.60417">
        <ele>1348</ele>
        <time>2022-09-17T22:59:31Z</time>
      </trkpt>
      <trkpt lat="44.14282" lon="6.60418">
        <ele>1347.9</ele>
        <time>2022-09-17T22:59:32Z</time>
      </trkpt>
      <trkpt lat="44.14283" lon="6.60418">
        <ele>1347.9</ele>
        <time>2022-09-17T22:59:33Z</time>
      </trkpt>
      <trkpt lat="44.14283" lon="6.60418">
        <ele>1347.8</ele>
        <time>2022-09-17T22:59:34Z</time>
      </trkpt>
      <trkpt lat="44.14284" lon="6.60418">
        <ele>1347.7</ele>
        <time>2022-09-17T22:59:35Z</time>
      </trkpt>
      <trkpt lat="44.14284" lon="6.60418">
        <ele>1347.6</ele>
        <time>2022-09-17T22:59:36Z</time>
      </trkpt>
      <trkpt lat="44.14285" lon="6.60418">
        <ele>1347.6</ele>
        <time>2022-09-17T22:59:37Z</time>
      </trkpt>
      <trkpt lat="44.14286" lon="6.60418">
        <ele>1347.5</ele>
        <time>2022-09-17T23:00:14Z</time>
      </trkpt>
      <trkpt lat="44.14286" lon="6.60418">
        <ele>1347.4</ele>
        <time>2022-09-17T23:00:15Z</time>
      </trkpt>
      <trkpt lat="44.14287" lon="6.60418">
        <ele>1347.3</ele>
        <time>2022-09-17T23:00:16Z</time>
      </trkpt>
      <trkpt lat="44.1429" lon="6.60419">
        <ele>1346.9</ele>
        <time>2022-09-17T23:00:17Z</time>
      </trkpt>
      <trkpt lat="44.14295" lon="6.6042">
        <ele>1346.2</ele>
        <time>2022-09-17T23:00:18Z</time>
      </trkpt>
      <trkpt lat="44.14302" lon="6.60421">
        <ele>1345.4</ele>
        <time>2022-09-17T23:00:19Z</time>
      </trkpt>
      <trkpt lat="44.14307" lon="6.60422">
        <ele>1344.6</ele>
        <time>2022-09-17T23:00:20Z</time>
      </trkpt>
      <trkpt lat="44.14314" lon="6.60423">
        <ele>1343.9</ele>
        <time>2022-09-17T23:00:21Z</time>
      </trkpt>
      <trkpt lat="44.14321" lon="6.60422">
        <ele>1343</ele>
        <time>2022-09-17T23:00:22Z</time>
      </trkpt>
      <trkpt lat="44.14329" lon="6.60422">
        <ele>1342</ele>
        <time>2022-09-17T23:00:23Z</time>
      </trkpt>
      <trkpt lat="44.14337" lon="6.6042">
        <ele>1341</ele>
        <time>2022-09-17T23:00:24Z</time>
      </trkpt>
      <trkpt lat="44.14346" lon="6.60416">
        <ele>1340</ele>
        <time>2022-09-17T23:00:25Z</time>
      </trkpt>
      <trkpt lat="44.14355" lon="6.60412">
        <ele>1339</ele>
        <time>2022-09-17T23:00:26Z</time>
      </trkpt>
      <trkpt lat="44.14364" lon="6.60409">
        <ele>1338.2</ele>
        <time>2022-09-17T23:00:27Z</time>
      </trkpt>
      <trkpt lat="44.14371" lon="6.6041">
        <ele>1337.6</ele>
        <time>2022-09-17T23:00:28Z</time>
      </trkpt>
      <trkpt lat="44.14377" lon="6.60412">
        <ele>1337.1</ele>
        <time>2022-09-17T23:00:29Z</time>
      </trkpt>
      <trkpt lat="44.14382" lon="6.60417">
        <ele>1336.8</ele>
        <time>2022-09-17T23:00:30Z</time>
      </trkpt>
      <trkpt lat="44.14387" lon="6.60424">
        <ele>1336.6</ele>
        <time>2022-09-17T23:00:31Z</time>
      </trkpt>
      <trkpt lat="44.14391" lon="6.60431">
        <ele>1336.6</ele>
        <time>2022-09-17T23:00:32Z</time>
      </trkpt>
      <trkpt lat="44.14396" lon="6.60437">
        <ele>1336.9</ele>
        <time>2022-09-17T23:00:33Z</time>
      </trkpt>
      <trkpt lat="44.144" lon="6.60442">
        <ele>1337.2</ele>
        <time>2022-09-17T23:00:34Z</time>
      </trkpt>
      <trkpt lat="44.14402" lon="6.60445">
        <ele>1337.4</ele>
        <time>2022-09-17T23:00:35Z</time>
      </trkpt>
      <trkpt lat="44.14404" lon="6.60449">
        <ele>1337.7</ele>
        <time>2022-09-17T23:00:36Z</time>
      </trkpt>
      <trkpt lat="44.14406" lon="6.60451">
        <ele>1337.8</ele>
        <time>2022-09-17T23:00:37Z</time>
      </trkpt>
      <trkpt lat="44.14409" lon="6.60455">
        <ele>1338.2</ele>
        <time>2022-09-17T23:00:38Z</time>
      </trkpt>
      <trkpt lat="44.1441" lon="6.60457">
        <ele>1338.3</ele>
        <time>2022-09-17T23:00:39Z</time>
      </trkpt>
      <trkpt lat="44.14412" lon="6.60461">
        <ele>1338.6</ele>
        <time>2022-09-17T23:00:40Z</time>
      </trkpt>
      <trkpt lat="44.14413" lon="6.60464">
        <ele>1338.8</ele>
        <time>2022-09-17T23:00:41Z</time>
      </trkpt>
      <trkpt lat="44.14414" lon="6.60466">
        <ele>1339</ele>
        <time>2022-09-17T23:00:42Z</time>
      </trkpt>
      <trkpt lat="44.14415" lon="6.60469">
        <ele>1339.2</ele>
        <time>2022-09-17T23:00:43Z</time>
      </trkpt>
      <trkpt lat="44.14418" lon="6.60477">
        <ele>1339.8</ele>
        <time>2022-09-17T23:00:45Z</time>
      </trkpt>
      <trkpt lat="44.14421" lon="6.60482">
        <ele>1340.2</ele>
        <time>2022-09-17T23:00:46Z</time>
      </trkpt>
      <trkpt lat="44.14425" lon="6.60488">
        <ele>1340.8</ele>
        <time>2022-09-17T23:00:47Z</time>
      </trkpt>
      <trkpt lat="44.14427" lon="6.60491">
        <ele>1341.1</ele>
        <time>2022-09-17T23:00:49Z</time>
      </trkpt>
      <trkpt lat="44.14429" lon="6.60494">
        <ele>1341.4</ele>
        <time>2022-09-17T23:00:50Z</time>
      </trkpt>
      <trkpt lat="44.14431" lon="6.60497">
        <ele>1341.7</ele>
        <time>2022-09-17T23:00:51Z</time>
      </trkpt>
      <trkpt lat="44.14434" lon="6.605">
        <ele>1342</ele>
        <time>2022-09-17T23:00:52Z</time>
      </trkpt>
      <trkpt lat="44.14438" lon="6.60505">
        <ele>1342.5</ele>
        <time>2022-09-17T23:00:53Z</time>
      </trkpt>
      <trkpt lat="44.14441" lon="6.60508">
        <ele>1342.8</ele>
        <time>2022-09-17T23:00:55Z</time>
      </trkpt>
      <trkpt lat="44.14444" lon="6.6051">
        <ele>1343.1</ele>
        <time>2022-09-17T23:00:56Z</time>
      </trkpt>
      <trkpt lat="44.14446" lon="6.60512">
        <ele>1343.4</ele>
        <time>2022-09-17T23:00:57Z</time>
      </trkpt>
      <trkpt lat="44.14449" lon="6.60513">
        <ele>1343.7</ele>
        <time>2022-09-17T23:00:58Z</time>
      </trkpt>
      <trkpt lat="44.14451" lon="6.60516">
        <ele>1343.9</ele>
        <time>2022-09-17T23:00:59Z</time>
      </trkpt>
      <trkpt lat="44.14455" lon="6.60519">
        <ele>1344.4</ele>
        <time>2022-09-17T23:01:00Z</time>
      </trkpt>
      <trkpt lat="44.14457" lon="6.60521">
        <ele>1344.7</ele>
        <time>2022-09-17T23:01:01Z</time>
      </trkpt>
      <trkpt lat="44.1446" lon="6.60524">
        <ele>1344.9</ele>
        <time>2022-09-17T23:01:03Z</time>
      </trkpt>
      <trkpt lat="44.14464" lon="6.60526">
        <ele>1345.3</ele>
        <time>2022-09-17T23:01:04Z</time>
      </trkpt>
      <trkpt lat="44.14467" lon="6.6053">
        <ele>1345.7</ele>
        <time>2022-09-17T23:01:06Z</time>
      </trkpt>
      <trkpt lat="44.14471" lon="6.60533">
        <ele>1346.1</ele>
        <time>2022-09-17T23:01:07Z</time>
      </trkpt>
      <trkpt lat="44.14473" lon="6.60536">
        <ele>1346.4</ele>
        <time>2022-09-17T23:01:08Z</time>
      </trkpt>
      <trkpt lat="44.14477" lon="6.60539">
        <ele>1346.7</ele>
        <time>2022-09-17T23:01:10Z</time>
      </trkpt>
      <trkpt lat="44.1448" lon="6.60542">
        <ele>1347.1</ele>
        <time>2022-09-17T23:01:12Z</time>
      </trkpt>
      <trkpt lat="44.14485" lon="6.60545">
        <ele>1347.6</ele>
        <time>2022-09-17T23:01:14Z</time>
      </trkpt>
      <trkpt lat="44.14488" lon="6.60547">
        <ele>1347.9</ele>
        <time>2022-09-17T23:01:15Z</time>
      </trkpt>
      <trkpt lat="44.1449" lon="6.60548">
        <ele>1348.2</ele>
        <time>2022-09-17T23:01:16Z</time>
      </trkpt>
      <trkpt lat="44.14493" lon="6.60549">
        <ele>1348.5</ele>
        <time>2022-09-17T23:01:17Z</time>
      </trkpt>
      <trkpt lat="44.14497" lon="6.6055">
        <ele>1348.8</ele>
        <time>2022-09-17T23:01:18Z</time>
      </trkpt>
      <trkpt lat="44.14499" lon="6.6055">
        <ele>1349</ele>
        <time>2022-09-17T23:01:19Z</time>
      </trkpt>
      <trkpt lat="44.14502" lon="6.6055">
        <ele>1349.3</ele>
        <time>2022-09-17T23:01:21Z</time>
      </trkpt>
      <trkpt lat="44.14506" lon="6.6055">
        <ele>1349.6</ele>
        <time>2022-09-17T23:01:22Z</time>
      </trkpt>
      <trkpt lat="44.14509" lon="6.60551">
        <ele>1349.9</ele>
        <time>2022-09-17T23:01:23Z</time>
      </trkpt>
      <trkpt lat="44.14512" lon="6.60551">
        <ele>1350.1</ele>
        <time>2022-09-17T23:01:24Z</time>
      </trkpt>
      <trkpt lat="44.14515" lon="6.60551">
        <ele>1350.4</ele>
        <time>2022-09-17T23:01:25Z</time>
      </trkpt>
      <trkpt lat="44.14521" lon="6.60551">
        <ele>1351</ele>
        <time>2022-09-17T23:01:27Z</time>
      </trkpt>
      <trkpt lat="44.14524" lon="6.60551">
        <ele>1351.4</ele>
        <time>2022-09-17T23:01:29Z</time>
      </trkpt>
      <trkpt lat="44.14528" lon="6.60551">
        <ele>1351.7</ele>
        <time>2022-09-17T23:01:30Z</time>
      </trkpt>
      <trkpt lat="44.14531" lon="6.60551">
        <ele>1352.1</ele>
        <time>2022-09-17T23:01:31Z</time>
      </trkpt>
      <trkpt lat="44.14535" lon="6.6055">
        <ele>1352.4</ele>
        <time>2022-09-17T23:01:32Z</time>
      </trkpt>
      <trkpt lat="44.14537" lon="6.6055">
        <ele>1352.6</ele>
        <time>2022-09-17T23:01:33Z</time>
      </trkpt>
      <trkpt lat="44.1454" lon="6.60549">
        <ele>1353</ele>
        <time>2022-09-17T23:01:35Z</time>
      </trkpt>
      <trkpt lat="44.14544" lon="6.60549">
        <ele>1353.3</ele>
        <time>2022-09-17T23:01:36Z</time>
      </trkpt>
      <trkpt lat="44.14547" lon="6.6055">
        <ele>1353.7</ele>
        <time>2022-09-17T23:01:38Z</time>
      </trkpt>
      <trkpt lat="44.14552" lon="6.6055">
        <ele>1354.1</ele>
        <time>2022-09-17T23:01:39Z</time>
      </trkpt>
      <trkpt lat="44.14554" lon="6.6055">
        <ele>1354.3</ele>
        <time>2022-09-17T23:01:40Z</time>
      </trkpt>
      <trkpt lat="44.14557" lon="6.6055">
        <ele>1354.5</ele>
        <time>2022-09-17T23:01:42Z</time>
      </trkpt>
      <trkpt lat="44.14562" lon="6.6055">
        <ele>1355</ele>
        <time>2022-09-17T23:01:44Z</time>
      </trkpt>
      <trkpt lat="44.14565" lon="6.60549">
        <ele>1355.3</ele>
        <time>2022-09-17T23:01:45Z</time>
      </trkpt>
      <trkpt lat="44.14569" lon="6.60549">
        <ele>1355.6</ele>
        <time>2022-09-17T23:01:46Z</time>
      </trkpt>
      <trkpt lat="44.14572" lon="6.60548">
        <ele>1355.8</ele>
        <time>2022-09-17T23:01:47Z</time>
      </trkpt>
      <trkpt lat="44.14575" lon="6.60548">
        <ele>1356.1</ele>
        <time>2022-09-17T23:01:48Z</time>
      </trkpt>
      <trkpt lat="44.14579" lon="6.60548">
        <ele>1356.4</ele>
        <time>2022-09-17T23:01:50Z</time>
      </trkpt>
      <trkpt lat="44.14582" lon="6.60547">
        <ele>1356.6</ele>
        <time>2022-09-17T23:01:51Z</time>
      </trkpt>
      <trkpt lat="44.14585" lon="6.60547">
        <ele>1356.8</ele>
        <time>2022-09-17T23:01:52Z</time>
      </trkpt>
      <trkpt lat="44.1459" lon="6.60547">
        <ele>1357.2</ele>
        <time>2022-09-17T23:01:54Z</time>
      </trkpt>
      <trkpt lat="44.14592" lon="6.60546">
        <ele>1357.4</ele>
        <time>2022-09-17T23:01:55Z</time>
      </trkpt>
      <trkpt lat="44.14594" lon="6.60546">
        <ele>1357.5</ele>
        <time>2022-09-17T23:01:56Z</time>
      </trkpt>
      <trkpt lat="44.14598" lon="6.60546">
        <ele>1357.9</ele>
        <time>2022-09-17T23:01:57Z</time>
      </trkpt>
      <trkpt lat="44.14599" lon="6.60546">
        <ele>1358</ele>
        <time>2022-09-17T23:01:58Z</time>
      </trkpt>
      <trkpt lat="44.14602" lon="6.60546">
        <ele>1358.3</ele>
        <time>2022-09-17T23:01:59Z</time>
      </trkpt>
      <trkpt lat="44.14605" lon="6.60545">
        <ele>1358.5</ele>
        <time>2022-09-17T23:02:00Z</time>
      </trkpt>
      <trkpt lat="44.14607" lon="6.60545">
        <ele>1358.7</ele>
        <time>2022-09-17T23:02:02Z</time>
      </trkpt>
      <trkpt lat="44.14609" lon="6.60544">
        <ele>1359</ele>
        <time>2022-09-17T23:02:03Z</time>
      </trkpt>
      <trkpt lat="44.14615" lon="6.60543">
        <ele>1359.6</ele>
        <time>2022-09-17T23:02:05Z</time>
      </trkpt>
      <trkpt lat="44.14618" lon="6.60542">
        <ele>1359.9</ele>
        <time>2022-09-17T23:02:06Z</time>
      </trkpt>
      <trkpt lat="44.14621" lon="6.60541">
        <ele>1360.2</ele>
        <time>2022-09-17T23:02:07Z</time>
      </trkpt>
      <trkpt lat="44.14624" lon="6.6054">
        <ele>1360.6</ele>
        <time>2022-09-17T23:02:08Z</time>
      </trkpt>
      <trkpt lat="44.14625" lon="6.60539">
        <ele>1360.7</ele>
        <time>2022-09-17T23:02:09Z</time>
      </trkpt>
      <trkpt lat="44.1463" lon="6.60539">
        <ele>1361.1</ele>
        <time>2022-09-17T23:02:10Z</time>
      </trkpt>
      <trkpt lat="44.14631" lon="6.60539">
        <ele>1361.3</ele>
        <time>2022-09-17T23:02:11Z</time>
      </trkpt>
      <trkpt lat="44.14634" lon="6.60539">
        <ele>1361.7</ele>
        <time>2022-09-17T23:02:12Z</time>
      </trkpt>
      <trkpt lat="44.14638" lon="6.60538">
        <ele>1362.1</ele>
        <time>2022-09-17T23:02:14Z</time>
      </trkpt>
      <trkpt lat="44.14639" lon="6.60538">
        <ele>1362.2</ele>
        <time>2022-09-17T23:02:15Z</time>
      </trkpt>
      <trkpt lat="44.14642" lon="6.60539">
        <ele>1362.5</ele>
        <time>2022-09-17T23:02:16Z</time>
      </trkpt>
      <trkpt lat="44.14646" lon="6.6054">
        <ele>1362.9</ele>
        <time>2022-09-17T23:02:17Z</time>
      </trkpt>
      <trkpt lat="44.14648" lon="6.6054">
        <ele>1363</ele>
        <time>2022-09-17T23:02:18Z</time>
      </trkpt>
      <trkpt lat="44.14651" lon="6.6054">
        <ele>1363.3</ele>
        <time>2022-09-17T23:02:19Z</time>
      </trkpt>
      <trkpt lat="44.14653" lon="6.60541">
        <ele>1363.5</ele>
        <time>2022-09-17T23:02:20Z</time>
      </trkpt>
      <trkpt lat="44.14656" lon="6.60542">
        <ele>1363.8</ele>
        <time>2022-09-17T23:02:22Z</time>
      </trkpt>
      <trkpt lat="44.1466" lon="6.60542">
        <ele>1364.2</ele>
        <time>2022-09-17T23:02:23Z</time>
      </trkpt>
      <trkpt lat="44.14665" lon="6.60543">
        <ele>1364.6</ele>
        <time>2022-09-17T23:02:25Z</time>
      </trkpt>
      <trkpt lat="44.14667" lon="6.60543">
        <ele>1364.7</ele>
        <time>2022-09-17T23:02:26Z</time>
      </trkpt>
      <trkpt lat="44.14669" lon="6.60543">
        <ele>1364.9</ele>
        <time>2022-09-17T23:02:27Z</time>
      </trkpt>
      <trkpt lat="44.14672" lon="6.60543">
        <ele>1365.2</ele>
        <time>2022-09-17T23:02:28Z</time>
      </trkpt>
      <trkpt lat="44.14673" lon="6.60543">
        <ele>1365.3</ele>
        <time>2022-09-17T23:02:29Z</time>
      </trkpt>
      <trkpt lat="44.14677" lon="6.60542">
        <ele>1365.6</ele>
        <time>2022-09-17T23:02:30Z</time>
      </trkpt>
      <trkpt lat="44.14678" lon="6.60542">
        <ele>1365.7</ele>
        <time>2022-09-17T23:02:31Z</time>
      </trkpt>
      <trkpt lat="44.14682" lon="6.6054">
        <ele>1366.1</ele>
        <time>2022-09-17T23:02:32Z</time>
      </trkpt>
      <trkpt lat="44.14683" lon="6.6054">
        <ele>1366.2</ele>
        <time>2022-09-17T23:02:33Z</time>
      </trkpt>
      <trkpt lat="44.14687" lon="6.60539">
        <ele>1366.5</ele>
        <time>2022-09-17T23:02:34Z</time>
      </trkpt>
      <trkpt lat="44.14691" lon="6.60536">
        <ele>1367</ele>
        <time>2022-09-17T23:02:36Z</time>
      </trkpt>
      <trkpt lat="44.14693" lon="6.60535">
        <ele>1367.2</ele>
        <time>2022-09-17T23:02:37Z</time>
      </trkpt>
      <trkpt lat="44.14695" lon="6.60534">
        <ele>1367.4</ele>
        <time>2022-09-17T23:02:38Z</time>
      </trkpt>
      <trkpt lat="44.14698" lon="6.60533">
        <ele>1367.6</ele>
        <time>2022-09-17T23:02:39Z</time>
      </trkpt>
      <trkpt lat="44.14701" lon="6.60531">
        <ele>1368</ele>
        <time>2022-09-17T23:02:41Z</time>
      </trkpt>
      <trkpt lat="44.14705" lon="6.60529">
        <ele>1368.4</ele>
        <time>2022-09-17T23:02:43Z</time>
      </trkpt>
      <trkpt lat="44.14709" lon="6.60528">
        <ele>1368.7</ele>
        <time>2022-09-17T23:02:44Z</time>
      </trkpt>
      <trkpt lat="44.14712" lon="6.60527">
        <ele>1369</ele>
        <time>2022-09-17T23:02:45Z</time>
      </trkpt>
      <trkpt lat="44.14716" lon="6.60527">
        <ele>1369.2</ele>
        <time>2022-09-17T23:02:47Z</time>
      </trkpt>
      <trkpt lat="44.14719" lon="6.60526">
        <ele>1369.5</ele>
        <time>2022-09-17T23:02:48Z</time>
      </trkpt>
      <trkpt lat="44.14722" lon="6.60527">
        <ele>1369.7</ele>
        <time>2022-09-17T23:02:49Z</time>
      </trkpt>
      <trkpt lat="44.14726" lon="6.60528">
        <ele>1370</ele>
        <time>2022-09-17T23:02:50Z</time>
      </trkpt>
      <trkpt lat="44.14727" lon="6.60528">
        <ele>1370.1</ele>
        <time>2022-09-17T23:02:51Z</time>
      </trkpt>
      <trkpt lat="44.1473" lon="6.60529">
        <ele>1370.4</ele>
        <time>2022-09-17T23:02:53Z</time>
      </trkpt>
      <trkpt lat="44.14733" lon="6.6053">
        <ele>1370.6</ele>
        <time>2022-09-17T23:02:54Z</time>
      </trkpt>
      <trkpt lat="44.14735" lon="6.6053">
        <ele>1370.7</ele>
        <time>2022-09-17T23:02:55Z</time>
      </trkpt>
      <trkpt lat="44.14738" lon="6.60533">
        <ele>1371</ele>
        <time>2022-09-17T23:02:56Z</time>
      </trkpt>
      <trkpt lat="44.1474" lon="6.60535">
        <ele>1371.3</ele>
        <time>2022-09-17T23:02:57Z</time>
      </trkpt>
      <trkpt lat="44.14743" lon="6.60537">
        <ele>1371.6</ele>
        <time>2022-09-17T23:02:59Z</time>
      </trkpt>
      <trkpt lat="44.14746" lon="6.60539">
        <ele>1371.9</ele>
        <time>2022-09-17T23:03:00Z</time>
      </trkpt>
      <trkpt lat="44.14749" lon="6.60543">
        <ele>1372.2</ele>
        <time>2022-09-17T23:03:01Z</time>
      </trkpt>
      <trkpt lat="44.1475" lon="6.60544">
        <ele>1372.4</ele>
        <time>2022-09-17T23:03:02Z</time>
      </trkpt>
      <trkpt lat="44.14753" lon="6.60547">
        <ele>1372.7</ele>
        <time>2022-09-17T23:03:03Z</time>
      </trkpt>
      <trkpt lat="44.14756" lon="6.6055">
        <ele>1373</ele>
        <time>2022-09-17T23:03:04Z</time>
      </trkpt>
      <trkpt lat="44.14757" lon="6.6055">
        <ele>1373.2</ele>
        <time>2022-09-17T23:03:05Z</time>
      </trkpt>
      <trkpt lat="44.1476" lon="6.60552">
        <ele>1373.4</ele>
        <time>2022-09-17T23:03:07Z</time>
      </trkpt>
      <trkpt lat="44.14762" lon="6.60553">
        <ele>1373.7</ele>
        <time>2022-09-17T23:03:08Z</time>
      </trkpt>
      <trkpt lat="44.14765" lon="6.60555">
        <ele>1374</ele>
        <time>2022-09-17T23:03:09Z</time>
      </trkpt>
      <trkpt lat="44.14769" lon="6.60559">
        <ele>1374.4</ele>
        <time>2022-09-17T23:03:11Z</time>
      </trkpt>
      <trkpt lat="44.14773" lon="6.60561">
        <ele>1374.9</ele>
        <time>2022-09-17T23:03:13Z</time>
      </trkpt>
      <trkpt lat="44.14774" lon="6.60562">
        <ele>1375</ele>
        <time>2022-09-17T23:03:14Z</time>
      </trkpt>
      <trkpt lat="44.14776" lon="6.60563">
        <ele>1375.2</ele>
        <time>2022-09-17T23:03:15Z</time>
      </trkpt>
      <trkpt lat="44.14778" lon="6.60565">
        <ele>1375.4</ele>
        <time>2022-09-17T23:03:16Z</time>
      </trkpt>
      <trkpt lat="44.14783" lon="6.60568">
        <ele>1375.9</ele>
        <time>2022-09-17T23:03:17Z</time>
      </trkpt>
      <trkpt lat="44.14785" lon="6.6057">
        <ele>1376.2</ele>
        <time>2022-09-17T23:03:18Z</time>
      </trkpt>
      <trkpt lat="44.14787" lon="6.60572">
        <ele>1376.5</ele>
        <time>2022-09-17T23:03:20Z</time>
      </trkpt>
      <trkpt lat="44.1479" lon="6.60575">
        <ele>1376.9</ele>
        <time>2022-09-17T23:03:21Z</time>
      </trkpt>
      <trkpt lat="44.14792" lon="6.60576">
        <ele>1377.1</ele>
        <time>2022-09-17T23:03:22Z</time>
      </trkpt>
      <trkpt lat="44.14794" lon="6.60578">
        <ele>1377.3</ele>
        <time>2022-09-17T23:03:23Z</time>
      </trkpt>
      <trkpt lat="44.14798" lon="6.60581">
        <ele>1377.7</ele>
        <time>2022-09-17T23:03:24Z</time>
      </trkpt>
      <trkpt lat="44.14799" lon="6.60582">
        <ele>1377.8</ele>
        <time>2022-09-17T23:03:25Z</time>
      </trkpt>
      <trkpt lat="44.14802" lon="6.60584">
        <ele>1378.1</ele>
        <time>2022-09-17T23:03:26Z</time>
      </trkpt>
      <trkpt lat="44.14805" lon="6.60586">
        <ele>1378.4</ele>
        <time>2022-09-17T23:03:27Z</time>
      </trkpt>
      <trkpt lat="44.14806" lon="6.60587">
        <ele>1378.5</ele>
        <time>2022-09-17T23:03:28Z</time>
      </trkpt>
      <trkpt lat="44.14809" lon="6.6059">
        <ele>1378.8</ele>
        <time>2022-09-17T23:03:29Z</time>
      </trkpt>
      <trkpt lat="44.1481" lon="6.60591">
        <ele>1378.9</ele>
        <time>2022-09-17T23:03:30Z</time>
      </trkpt>
      <trkpt lat="44.14814" lon="6.60593">
        <ele>1379.3</ele>
        <time>2022-09-17T23:03:31Z</time>
      </trkpt>
      <trkpt lat="44.14815" lon="6.60594">
        <ele>1379.4</ele>
        <time>2022-09-17T23:03:32Z</time>
      </trkpt>
      <trkpt lat="44.14818" lon="6.60596">
        <ele>1379.7</ele>
        <time>2022-09-17T23:03:33Z</time>
      </trkpt>
      <trkpt lat="44.1482" lon="6.60598">
        <ele>1379.9</ele>
        <time>2022-09-17T23:03:35Z</time>
      </trkpt>
      <trkpt lat="44.14823" lon="6.60599">
        <ele>1380.2</ele>
        <time>2022-09-17T23:03:36Z</time>
      </trkpt>
      <trkpt lat="44.14827" lon="6.60601">
        <ele>1380.5</ele>
        <time>2022-09-17T23:03:37Z</time>
      </trkpt>
      <trkpt lat="44.14829" lon="6.60602">
        <ele>1380.8</ele>
        <time>2022-09-17T23:03:38Z</time>
      </trkpt>
      <trkpt lat="44.14832" lon="6.60603">
        <ele>1381.1</ele>
        <time>2022-09-17T23:03:40Z</time>
      </trkpt>
      <trkpt lat="44.14835" lon="6.60604">
        <ele>1381.4</ele>
        <time>2022-09-17T23:03:41Z</time>
      </trkpt>
      <trkpt lat="44.14836" lon="6.60604">
        <ele>1381.5</ele>
        <time>2022-09-17T23:03:42Z</time>
      </trkpt>
      <trkpt lat="44.14839" lon="6.60605">
        <ele>1381.8</ele>
        <time>2022-09-17T23:03:43Z</time>
      </trkpt>
      <trkpt lat="44.14842" lon="6.60606">
        <ele>1382.1</ele>
        <time>2022-09-17T23:03:44Z</time>
      </trkpt>
      <trkpt lat="44.14846" lon="6.60608">
        <ele>1382.5</ele>
        <time>2022-09-17T23:03:45Z</time>
      </trkpt>
      <trkpt lat="44.1485" lon="6.6061">
        <ele>1382.9</ele>
        <time>2022-09-17T23:03:47Z</time>
      </trkpt>
      <trkpt lat="44.14853" lon="6.60612">
        <ele>1383.3</ele>
        <time>2022-09-17T23:03:48Z</time>
      </trkpt>
      <trkpt lat="44.14856" lon="6.60614">
        <ele>1383.6</ele>
        <time>2022-09-17T23:03:49Z</time>
      </trkpt>
      <trkpt lat="44.14859" lon="6.60615">
        <ele>1383.9</ele>
        <time>2022-09-17T23:03:50Z</time>
      </trkpt>
      <trkpt lat="44.14863" lon="6.60617">
        <ele>1384.4</ele>
        <time>2022-09-17T23:03:51Z</time>
      </trkpt>
      <trkpt lat="44.14864" lon="6.60618">
        <ele>1384.6</ele>
        <time>2022-09-17T23:03:52Z</time>
      </trkpt>
      <trkpt lat="44.14868" lon="6.60621">
        <ele>1384.9</ele>
        <time>2022-09-17T23:03:54Z</time>
      </trkpt>
      <trkpt lat="44.1487" lon="6.60622">
        <ele>1385.2</ele>
        <time>2022-09-17T23:03:55Z</time>
      </trkpt>
      <trkpt lat="44.14875" lon="6.60625">
        <ele>1385.7</ele>
        <time>2022-09-17T23:03:56Z</time>
      </trkpt>
      <trkpt lat="44.14878" lon="6.60626">
        <ele>1386</ele>
        <time>2022-09-17T23:03:58Z</time>
      </trkpt>
      <trkpt lat="44.14881" lon="6.60627">
        <ele>1386.3</ele>
        <time>2022-09-17T23:03:59Z</time>
      </trkpt>
      <trkpt lat="44.14885" lon="6.60629">
        <ele>1386.8</ele>
        <time>2022-09-17T23:04:00Z</time>
      </trkpt>
      <trkpt lat="44.14887" lon="6.60629">
        <ele>1387</ele>
        <time>2022-09-17T23:04:01Z</time>
      </trkpt>
      <trkpt lat="44.1489" lon="6.60631">
        <ele>1387.3</ele>
        <time>2022-09-17T23:04:02Z</time>
      </trkpt>
      <trkpt lat="44.14894" lon="6.60634">
        <ele>1387.8</ele>
        <time>2022-09-17T23:04:04Z</time>
      </trkpt>
      <trkpt lat="44.14897" lon="6.60635">
        <ele>1388.1</ele>
        <time>2022-09-17T23:04:06Z</time>
      </trkpt>
      <trkpt lat="44.149" lon="6.60637">
        <ele>1388.5</ele>
        <time>2022-09-17T23:04:07Z</time>
      </trkpt>
      <trkpt lat="44.14901" lon="6.60638">
        <ele>1388.6</ele>
        <time>2022-09-17T23:04:08Z</time>
      </trkpt>
      <trkpt lat="44.14905" lon="6.60639">
        <ele>1389</ele>
        <time>2022-09-17T23:04:09Z</time>
      </trkpt>
      <trkpt lat="44.14906" lon="6.6064">
        <ele>1389.1</ele>
        <time>2022-09-17T23:04:10Z</time>
      </trkpt>
      <trkpt lat="44.1491" lon="6.6064">
        <ele>1389.5</ele>
        <time>2022-09-17T23:04:11Z</time>
      </trkpt>
      <trkpt lat="44.14912" lon="6.6064">
        <ele>1389.7</ele>
        <time>2022-09-17T23:04:12Z</time>
      </trkpt>
      <trkpt lat="44.14915" lon="6.6064">
        <ele>1389.9</ele>
        <time>2022-09-17T23:04:13Z</time>
      </trkpt>
      <trkpt lat="44.14919" lon="6.60639">
        <ele>1390.3</ele>
        <time>2022-09-17T23:04:15Z</time>
      </trkpt>
      <trkpt lat="44.1492" lon="6.60639">
        <ele>1390.4</ele>
        <time>2022-09-17T23:04:16Z</time>
      </trkpt>
      <trkpt lat="44.14924" lon="6.60639">
        <ele>1390.7</ele>
        <time>2022-09-17T23:04:17Z</time>
      </trkpt>
      <trkpt lat="44.14926" lon="6.60639">
        <ele>1390.9</ele>
        <time>2022-09-17T23:04:18Z</time>
      </trkpt>
      <trkpt lat="44.1493" lon="6.60639">
        <ele>1391.3</ele>
        <time>2022-09-17T23:04:19Z</time>
      </trkpt>
      <trkpt lat="44.14932" lon="6.60639">
        <ele>1391.4</ele>
        <time>2022-09-17T23:04:20Z</time>
      </trkpt>
      <trkpt lat="44.14936" lon="6.60639">
        <ele>1391.9</ele>
        <time>2022-09-17T23:04:22Z</time>
      </trkpt>
      <trkpt lat="44.14937" lon="6.60639">
        <ele>1392.1</ele>
        <time>2022-09-17T23:04:23Z</time>
      </trkpt>
      <trkpt lat="44.14939" lon="6.60639">
        <ele>1392.2</ele>
        <time>2022-09-17T23:04:24Z</time>
      </trkpt>
      <trkpt lat="44.14943" lon="6.60639">
        <ele>1392.7</ele>
        <time>2022-09-17T23:04:25Z</time>
      </trkpt>
      <trkpt lat="44.14947" lon="6.60639">
        <ele>1393.1</ele>
        <time>2022-09-17T23:04:27Z</time>
      </trkpt>
      <trkpt lat="44.1495" lon="6.60639">
        <ele>1393.4</ele>
        <time>2022-09-17T23:04:28Z</time>
      </trkpt>
      <trkpt lat="44.14955" lon="6.60641">
        <ele>1393.9</ele>
        <time>2022-09-17T23:04:30Z</time>
      </trkpt>
      <trkpt lat="44.14956" lon="6.60642">
        <ele>1394</ele>
        <time>2022-09-17T23:04:31Z</time>
      </trkpt>
      <trkpt lat="44.14957" lon="6.60643">
        <ele>1394.1</ele>
        <time>2022-09-17T23:04:32Z</time>
      </trkpt>
      <trkpt lat="44.1496" lon="6.60644">
        <ele>1394.3</ele>
        <time>2022-09-17T23:04:33Z</time>
      </trkpt>
      <trkpt lat="44.14962" lon="6.60646">
        <ele>1394.4</ele>
        <time>2022-09-17T23:04:34Z</time>
      </trkpt>
      <trkpt lat="44.14964" lon="6.6065">
        <ele>1394.6</ele>
        <time>2022-09-17T23:04:36Z</time>
      </trkpt>
      <trkpt lat="44.14965" lon="6.60652">
        <ele>1394.6</ele>
        <time>2022-09-17T23:04:37Z</time>
      </trkpt>
      <trkpt lat="44.14967" lon="6.60655">
        <ele>1394.6</ele>
        <time>2022-09-17T23:04:38Z</time>
      </trkpt>
      <trkpt lat="44.14969" lon="6.60656">
        <ele>1394.6</ele>
        <time>2022-09-17T23:04:39Z</time>
      </trkpt>
      <trkpt lat="44.14971" lon="6.60658">
        <ele>1394.6</ele>
        <time>2022-09-17T23:04:40Z</time>
      </trkpt>
      <trkpt lat="44.14973" lon="6.6066">
        <ele>1394.6</ele>
        <time>2022-09-17T23:04:41Z</time>
      </trkpt>
      <trkpt lat="44.14976" lon="6.60663">
        <ele>1394.6</ele>
        <time>2022-09-17T23:04:43Z</time>
      </trkpt>
      <trkpt lat="44.14979" lon="6.60666">
        <ele>1394.6</ele>
        <time>2022-09-17T23:04:44Z</time>
      </trkpt>
      <trkpt lat="44.14983" lon="6.60669">
        <ele>1394.6</ele>
        <time>2022-09-17T23:04:46Z</time>
      </trkpt>
      <trkpt lat="44.14985" lon="6.60672">
        <ele>1394.6</ele>
        <time>2022-09-17T23:04:47Z</time>
      </trkpt>
      <trkpt lat="44.14987" lon="6.60675">
        <ele>1394.6</ele>
        <time>2022-09-17T23:04:48Z</time>
      </trkpt>
      <trkpt lat="44.14989" lon="6.60678">
        <ele>1394.5</ele>
        <time>2022-09-17T23:04:49Z</time>
      </trkpt>
      <trkpt lat="44.14991" lon="6.60681">
        <ele>1394.4</ele>
        <time>2022-09-17T23:04:50Z</time>
      </trkpt>
      <trkpt lat="44.14994" lon="6.60684">
        <ele>1394.4</ele>
        <time>2022-09-17T23:04:51Z</time>
      </trkpt>
      <trkpt lat="44.14996" lon="6.60686">
        <ele>1394.3</ele>
        <time>2022-09-17T23:04:52Z</time>
      </trkpt>
      <trkpt lat="44.14999" lon="6.60689">
        <ele>1394.2</ele>
        <time>2022-09-17T23:04:53Z</time>
      </trkpt>
      <trkpt lat="44.15002" lon="6.60693">
        <ele>1394</ele>
        <time>2022-09-17T23:04:55Z</time>
      </trkpt>
      <trkpt lat="44.15008" lon="6.60697">
        <ele>1393.8</ele>
        <time>2022-09-17T23:04:56Z</time>
      </trkpt>
      <trkpt lat="44.15011" lon="6.60699">
        <ele>1393.7</ele>
        <time>2022-09-17T23:04:58Z</time>
      </trkpt>
      <trkpt lat="44.15011" lon="6.60699">
        <ele>1393.6</ele>
        <time>2022-09-17T23:04:59Z</time>
      </trkpt>
      <trkpt lat="44.15012" lon="6.607">
        <ele>1393.6</ele>
        <time>2022-09-17T23:05:00Z</time>
      </trkpt>
      <trkpt lat="44.15012" lon="6.60701">
        <ele>1393.6</ele>
        <time>2022-09-17T23:05:01Z</time>
      </trkpt>
      <trkpt lat="44.15013" lon="6.60702">
        <ele>1393.5</ele>
        <time>2022-09-17T23:05:02Z</time>
      </trkpt>
      <trkpt lat="44.15015" lon="6.60703">
        <ele>1393.5</ele>
        <time>2022-09-17T23:05:03Z</time>
      </trkpt>
      <trkpt lat="44.15016" lon="6.60705">
        <ele>1393.4</ele>
        <time>2022-09-17T23:05:04Z</time>
      </trkpt>
      <trkpt lat="44.15017" lon="6.60708">
        <ele>1393.3</ele>
        <time>2022-09-17T23:05:05Z</time>
      </trkpt>
      <trkpt lat="44.15018" lon="6.60709">
        <ele>1393.2</ele>
        <time>2022-09-17T23:05:06Z</time>
      </trkpt>
      <trkpt lat="44.1502" lon="6.60712">
        <ele>1393</ele>
        <time>2022-09-17T23:05:07Z</time>
      </trkpt>
      <trkpt lat="44.15024" lon="6.60717">
        <ele>1392.7</ele>
        <time>2022-09-17T23:05:09Z</time>
      </trkpt>
      <trkpt lat="44.15025" lon="6.60719">
        <ele>1392.6</ele>
        <time>2022-09-17T23:05:10Z</time>
      </trkpt>
      <trkpt lat="44.15027" lon="6.60721">
        <ele>1392.4</ele>
        <time>2022-09-17T23:05:11Z</time>
      </trkpt>
      <trkpt lat="44.1503" lon="6.60725">
        <ele>1392.1</ele>
        <time>2022-09-17T23:05:12Z</time>
      </trkpt>
      <trkpt lat="44.15034" lon="6.60729">
        <ele>1391.7</ele>
        <time>2022-09-17T23:05:13Z</time>
      </trkpt>
      <trkpt lat="44.15039" lon="6.60733">
        <ele>1391.4</ele>
        <time>2022-09-17T23:05:14Z</time>
      </trkpt>
      <trkpt lat="44.15044" lon="6.60736">
        <ele>1390.9</ele>
        <time>2022-09-17T23:05:15Z</time>
      </trkpt>
      <trkpt lat="44.15049" lon="6.60739">
        <ele>1390.4</ele>
        <time>2022-09-17T23:05:16Z</time>
      </trkpt>
      <trkpt lat="44.15055" lon="6.60741">
        <ele>1389.9</ele>
        <time>2022-09-17T23:05:17Z</time>
      </trkpt>
      <trkpt lat="44.15061" lon="6.60743">
        <ele>1389.3</ele>
        <time>2022-09-17T23:05:18Z</time>
      </trkpt>
      <trkpt lat="44.15068" lon="6.60745">
        <ele>1388.7</ele>
        <time>2022-09-17T23:05:19Z</time>
      </trkpt>
      <trkpt lat="44.15076" lon="6.60746">
        <ele>1388.1</ele>
        <time>2022-09-17T23:05:20Z</time>
      </trkpt>
      <trkpt lat="44.15083" lon="6.60747">
        <ele>1387.5</ele>
        <time>2022-09-17T23:05:21Z</time>
      </trkpt>
      <trkpt lat="44.1509" lon="6.6075">
        <ele>1386.9</ele>
        <time>2022-09-17T23:05:22Z</time>
      </trkpt>
      <trkpt lat="44.15098" lon="6.60753">
        <ele>1386.2</ele>
        <time>2022-09-17T23:05:23Z</time>
      </trkpt>
      <trkpt lat="44.15106" lon="6.60755">
        <ele>1385.8</ele>
        <time>2022-09-17T23:05:24Z</time>
      </trkpt>
      <trkpt lat="44.15113" lon="6.60757">
        <ele>1385.4</ele>
        <time>2022-09-17T23:05:25Z</time>
      </trkpt>
      <trkpt lat="44.15121" lon="6.60758">
        <ele>1385</ele>
        <time>2022-09-17T23:05:26Z</time>
      </trkpt>
      <trkpt lat="44.15128" lon="6.60759">
        <ele>1384.7</ele>
        <time>2022-09-17T23:05:27Z</time>
      </trkpt>
      <trkpt lat="44.15136" lon="6.60759">
        <ele>1384.3</ele>
        <time>2022-09-17T23:05:28Z</time>
      </trkpt>
      <trkpt lat="44.15143" lon="6.60763">
        <ele>1383.8</ele>
        <time>2022-09-17T23:05:29Z</time>
      </trkpt>
      <trkpt lat="44.15149" lon="6.60771">
        <ele>1383.2</ele>
        <time>2022-09-17T23:05:30Z</time>
      </trkpt>
      <trkpt lat="44.15155" lon="6.60779">
        <ele>1382.6</ele>
        <time>2022-09-17T23:05:31Z</time>
      </trkpt>
      <trkpt lat="44.1516" lon="6.60787">
        <ele>1382.1</ele>
        <time>2022-09-17T23:05:32Z</time>
      </trkpt>
      <trkpt lat="44.15166" lon="6.60795">
        <ele>1381.7</ele>
        <time>2022-09-17T23:05:33Z</time>
      </trkpt>
      <trkpt lat="44.15171" lon="6.60802">
        <ele>1381.2</ele>
        <time>2022-09-17T23:05:34Z</time>
      </trkpt>
      <trkpt lat="44.15177" lon="6.60809">
        <ele>1380.7</ele>
        <time>2022-09-17T23:05:35Z</time>
      </trkpt>
      <trkpt lat="44.15184" lon="6.60816">
        <ele>1380.1</ele>
        <time>2022-09-17T23:05:36Z</time>
      </trkpt>
      <trkpt lat="44.15189" lon="6.60824">
        <ele>1379.5</ele>
        <time>2022-09-17T23:05:37Z</time>
      </trkpt>
      <trkpt lat="44.15195" lon="6.60833">
        <ele>1378.9</ele>
        <time>2022-09-17T23:05:38Z</time>
      </trkpt>
      <trkpt lat="44.15201" lon="6.60842">
        <ele>1378.4</ele>
        <time>2022-09-17T23:05:39Z</time>
      </trkpt>
      <trkpt lat="44.15209" lon="6.6085">
        <ele>1377.8</ele>
        <time>2022-09-17T23:05:40Z</time>
      </trkpt>
      <trkpt lat="44.15216" lon="6.60857">
        <ele>1377.1</ele>
        <time>2022-09-17T23:05:41Z</time>
      </trkpt>
      <trkpt lat="44.15223" lon="6.60864">
        <ele>1376.5</ele>
        <time>2022-09-17T23:05:42Z</time>
      </trkpt>
      <trkpt lat="44.15231" lon="6.60871">
        <ele>1375.7</ele>
        <time>2022-09-17T23:05:43Z</time>
      </trkpt>
      <trkpt lat="44.15239" lon="6.60878">
        <ele>1375</ele>
        <time>2022-09-17T23:05:44Z</time>
      </trkpt>
      <trkpt lat="44.15247" lon="6.60884">
        <ele>1374.4</ele>
        <time>2022-09-17T23:05:45Z</time>
      </trkpt>
      <trkpt lat="44.15255" lon="6.60888">
        <ele>1373.9</ele>
        <time>2022-09-17T23:05:46Z</time>
      </trkpt>
      <trkpt lat="44.15264" lon="6.60893">
        <ele>1373.4</ele>
        <time>2022-09-17T23:05:47Z</time>
      </trkpt>
      <trkpt lat="44.15273" lon="6.60896">
        <ele>1372.8</ele>
        <time>2022-09-17T23:05:48Z</time>
      </trkpt>
      <trkpt lat="44.15282" lon="6.60899">
        <ele>1372.3</ele>
        <time>2022-09-17T23:05:49Z</time>
      </trkpt>
      <trkpt lat="44.15291" lon="6.609">
        <ele>1371.8</ele>
        <time>2022-09-17T23:05:50Z</time>
      </trkpt>
      <trkpt lat="44.153" lon="6.609">
        <ele>1371.2</ele>
        <time>2022-09-17T23:05:51Z</time>
      </trkpt>
      <trkpt lat="44.15309" lon="6.60902">
        <ele>1370.7</ele>
        <time>2022-09-17T23:05:52Z</time>
      </trkpt>
      <trkpt lat="44.15317" lon="6.60906">
        <ele>1370.1</ele>
        <time>2022-09-17T23:05:53Z</time>
      </trkpt>
      <trkpt lat="44.15324" lon="6.60912">
        <ele>1369.5</ele>
        <time>2022-09-17T23:05:54Z</time>
      </trkpt>
      <trkpt lat="44.15331" lon="6.6092">
        <ele>1368.8</ele>
        <time>2022-09-17T23:05:55Z</time>
      </trkpt>
      <trkpt lat="44.15339" lon="6.60924">
        <ele>1368.3</ele>
        <time>2022-09-17T23:05:56Z</time>
      </trkpt>
      <trkpt lat="44.15348" lon="6.60926">
        <ele>1367.8</ele>
        <time>2022-09-17T23:05:57Z</time>
      </trkpt>
      <trkpt lat="44.15356" lon="6.60927">
        <ele>1367.4</ele>
        <time>2022-09-17T23:05:58Z</time>
      </trkpt>
      <trkpt lat="44.15364" lon="6.60929">
        <ele>1367.1</ele>
        <time>2022-09-17T23:05:59Z</time>
      </trkpt>
      <trkpt lat="44.15372" lon="6.60932">
        <ele>1366.7</ele>
        <time>2022-09-17T23:06:00Z</time>
      </trkpt>
      <trkpt lat="44.15379" lon="6.60937">
        <ele>1366.5</ele>
        <time>2022-09-17T23:06:01Z</time>
      </trkpt>
      <trkpt lat="44.15386" lon="6.60943">
        <ele>1366.3</ele>
        <time>2022-09-17T23:06:02Z</time>
      </trkpt>
      <trkpt lat="44.15393" lon="6.60949">
        <ele>1366</ele>
        <time>2022-09-17T23:06:03Z</time>
      </trkpt>
      <trkpt lat="44.15399" lon="6.60956">
        <ele>1365.8</ele>
        <time>2022-09-17T23:06:04Z</time>
      </trkpt>
      <trkpt lat="44.15405" lon="6.60961">
        <ele>1365.6</ele>
        <time>2022-09-17T23:06:05Z</time>
      </trkpt>
      <trkpt lat="44.15411" lon="6.60967">
        <ele>1365.4</ele>
        <time>2022-09-17T23:06:06Z</time>
      </trkpt>
      <trkpt lat="44.15416" lon="6.60974">
        <ele>1365.3</ele>
        <time>2022-09-17T23:06:07Z</time>
      </trkpt>
      <trkpt lat="44.15419" lon="6.60982">
        <ele>1365.2</ele>
        <time>2022-09-17T23:06:08Z</time>
      </trkpt>
      <trkpt lat="44.15422" lon="6.60991">
        <ele>1365.1</ele>
        <time>2022-09-17T23:06:09Z</time>
      </trkpt>
      <trkpt lat="44.15425" lon="6.60999">
        <ele>1365</ele>
        <time>2022-09-17T23:06:10Z</time>
      </trkpt>
      <trkpt lat="44.15428" lon="6.61007">
        <ele>1364.8</ele>
        <time>2022-09-17T23:06:11Z</time>
      </trkpt>
      <trkpt lat="44.15431" lon="6.61015">
        <ele>1364.7</ele>
        <time>2022-09-17T23:06:12Z</time>
      </trkpt>
      <trkpt lat="44.15434" lon="6.61023">
        <ele>1364.6</ele>
        <time>2022-09-17T23:06:13Z</time>
      </trkpt>
      <trkpt lat="44.15436" lon="6.61031">
        <ele>1364.5</ele>
        <time>2022-09-17T23:06:14Z</time>
      </trkpt>
      <trkpt lat="44.15439" lon="6.61039">
        <ele>1364.3</ele>
        <time>2022-09-17T23:06:15Z</time>
      </trkpt>
      <trkpt lat="44.15441" lon="6.61046">
        <ele>1364.1</ele>
        <time>2022-09-17T23:06:16Z</time>
      </trkpt>
      <trkpt lat="44.15444" lon="6.61053">
        <ele>1363.9</ele>
        <time>2022-09-17T23:06:17Z</time>
      </trkpt>
      <trkpt lat="44.15448" lon="6.6106">
        <ele>1363.6</ele>
        <time>2022-09-17T23:06:18Z</time>
      </trkpt>
      <trkpt lat="44.15451" lon="6.61067">
        <ele>1363.2</ele>
        <time>2022-09-17T23:06:19Z</time>
      </trkpt>
      <trkpt lat="44.15455" lon="6.61073">
        <ele>1362.9</ele>
        <time>2022-09-17T23:06:20Z</time>
      </trkpt>
      <trkpt lat="44.15459" lon="6.6108">
        <ele>1362.5</ele>
        <time>2022-09-17T23:06:21Z</time>
      </trkpt>
      <trkpt lat="44.15461" lon="6.61088">
        <ele>1362.1</ele>
        <time>2022-09-17T23:06:22Z</time>
      </trkpt>
      <trkpt lat="44.15461" lon="6.61098">
        <ele>1361.7</ele>
        <time>2022-09-17T23:06:23Z</time>
      </trkpt>
      <trkpt lat="44.15461" lon="6.61108">
        <ele>1361.3</ele>
        <time>2022-09-17T23:06:24Z</time>
      </trkpt>
      <trkpt lat="44.1546" lon="6.61118">
        <ele>1360.8</ele>
        <time>2022-09-17T23:06:25Z</time>
      </trkpt>
      <trkpt lat="44.15459" lon="6.61128">
        <ele>1360.3</ele>
        <time>2022-09-17T23:06:26Z</time>
      </trkpt>
      <trkpt lat="44.15456" lon="6.61137">
        <ele>1359.8</ele>
        <time>2022-09-17T23:06:27Z</time>
      </trkpt>
      <trkpt lat="44.15454" lon="6.61146">
        <ele>1359.4</ele>
        <time>2022-09-17T23:06:28Z</time>
      </trkpt>
      <trkpt lat="44.15451" lon="6.61155">
        <ele>1359.1</ele>
        <time>2022-09-17T23:06:29Z</time>
      </trkpt>
      <trkpt lat="44.15447" lon="6.61165">
        <ele>1358.9</ele>
        <time>2022-09-17T23:06:30Z</time>
      </trkpt>
      <trkpt lat="44.15445" lon="6.61175">
        <ele>1358.6</ele>
        <time>2022-09-17T23:06:31Z</time>
      </trkpt>
      <trkpt lat="44.15444" lon="6.61185">
        <ele>1358.2</ele>
        <time>2022-09-17T23:06:32Z</time>
      </trkpt>
      <trkpt lat="44.15444" lon="6.61195">
        <ele>1357.9</ele>
        <time>2022-09-17T23:06:33Z</time>
      </trkpt>
      <trkpt lat="44.15445" lon="6.61205">
        <ele>1357.6</ele>
        <time>2022-09-17T23:06:34Z</time>
      </trkpt>
      <trkpt lat="44.15446" lon="6.61215">
        <ele>1357.4</ele>
        <time>2022-09-17T23:06:35Z</time>
      </trkpt>
      <trkpt lat="44.15446" lon="6.61225">
        <ele>1357.2</ele>
        <time>2022-09-17T23:06:36Z</time>
      </trkpt>
      <trkpt lat="44.15447" lon="6.61234">
        <ele>1357.1</ele>
        <time>2022-09-17T23:06:37Z</time>
      </trkpt>
      <trkpt lat="44.15446" lon="6.61244">
        <ele>1356.9</ele>
        <time>2022-09-17T23:06:38Z</time>
      </trkpt>
      <trkpt lat="44.15445" lon="6.61252">
        <ele>1356.6</ele>
        <time>2022-09-17T23:06:39Z</time>
      </trkpt>
      <trkpt lat="44.15445" lon="6.61259">
        <ele>1356.4</ele>
        <time>2022-09-17T23:06:40Z</time>
      </trkpt>
      <trkpt lat="44.15446" lon="6.61263">
        <ele>1356.3</ele>
        <time>2022-09-17T23:06:41Z</time>
      </trkpt>
      <trkpt lat="44.15448" lon="6.61262">
        <ele>1356.3</ele>
        <time>2022-09-17T23:06:42Z</time>
      </trkpt>
      <trkpt lat="44.15452" lon="6.61263">
        <ele>1356.2</ele>
        <time>2022-09-17T23:06:43Z</time>
      </trkpt>
      <trkpt lat="44.15456" lon="6.61263">
        <ele>1356.2</ele>
        <time>2022-09-17T23:06:44Z</time>
      </trkpt>
      <trkpt lat="44.1546" lon="6.61261">
        <ele>1356.2</ele>
        <time>2022-09-17T23:06:45Z</time>
      </trkpt>
      <trkpt lat="44.15463" lon="6.6126">
        <ele>1356.3</ele>
        <time>2022-09-17T23:06:46Z</time>
      </trkpt>
      <trkpt lat="44.15467" lon="6.61258">
        <ele>1356.5</ele>
        <time>2022-09-17T23:06:47Z</time>
      </trkpt>
      <trkpt lat="44.1547" lon="6.61256">
        <ele>1356.6</ele>
        <time>2022-09-17T23:06:48Z</time>
      </trkpt>
      <trkpt lat="44.15473" lon="6.61255">
        <ele>1356.8</ele>
        <time>2022-09-17T23:06:49Z</time>
      </trkpt>
      <trkpt lat="44.15477" lon="6.61254">
        <ele>1357</ele>
        <time>2022-09-17T23:06:50Z</time>
      </trkpt>
      <trkpt lat="44.1548" lon="6.61252">
        <ele>1357.2</ele>
        <time>2022-09-17T23:06:51Z</time>
      </trkpt>
      <trkpt lat="44.15484" lon="6.61252">
        <ele>1357.4</ele>
        <time>2022-09-17T23:06:52Z</time>
      </trkpt>
      <trkpt lat="44.15487" lon="6.61251">
        <ele>1357.5</ele>
        <time>2022-09-17T23:06:53Z</time>
      </trkpt>
      <trkpt lat="44.15491" lon="6.61251">
        <ele>1357.6</ele>
        <time>2022-09-17T23:06:54Z</time>
      </trkpt>
      <trkpt lat="44.15495" lon="6.61252">
        <ele>1357.7</ele>
        <time>2022-09-17T23:06:55Z</time>
      </trkpt>
      <trkpt lat="44.15498" lon="6.61253">
        <ele>1357.8</ele>
        <time>2022-09-17T23:06:56Z</time>
      </trkpt>
      <trkpt lat="44.15501" lon="6.61253">
        <ele>1357.9</ele>
        <time>2022-09-17T23:06:57Z</time>
      </trkpt>
      <trkpt lat="44.15506" lon="6.61252">
        <ele>1358</ele>
        <time>2022-09-17T23:06:58Z</time>
      </trkpt>
      <trkpt lat="44.15511" lon="6.61252">
        <ele>1358.1</ele>
        <time>2022-09-17T23:06:59Z</time>
      </trkpt>
      <trkpt lat="44.15515" lon="6.6125">
        <ele>1358.1</ele>
        <time>2022-09-17T23:07:00Z</time>
      </trkpt>
      <trkpt lat="44.15517" lon="6.61249">
        <ele>1358.2</ele>
        <time>2022-09-17T23:07:01Z</time>
      </trkpt>
      <trkpt lat="44.15521" lon="6.61247">
        <ele>1358.2</ele>
        <time>2022-09-17T23:07:02Z</time>
      </trkpt>
      <trkpt lat="44.15525" lon="6.61246">
        <ele>1358.3</ele>
        <time>2022-09-17T23:07:03Z</time>
      </trkpt>
      <trkpt lat="44.15529" lon="6.61244">
        <ele>1358.3</ele>
        <time>2022-09-17T23:07:04Z</time>
      </trkpt>
      <trkpt lat="44.15532" lon="6.61242">
        <ele>1358.4</ele>
        <time>2022-09-17T23:07:05Z</time>
      </trkpt>
      <trkpt lat="44.15534" lon="6.61241">
        <ele>1358.4</ele>
        <time>2022-09-17T23:07:06Z</time>
      </trkpt>
      <trkpt lat="44.15538" lon="6.61238">
        <ele>1358.5</ele>
        <time>2022-09-17T23:07:07Z</time>
      </trkpt>
      <trkpt lat="44.15541" lon="6.61236">
        <ele>1358.6</ele>
        <time>2022-09-17T23:07:08Z</time>
      </trkpt>
      <trkpt lat="44.15544" lon="6.61235">
        <ele>1358.6</ele>
        <time>2022-09-17T23:07:09Z</time>
      </trkpt>
      <trkpt lat="44.15548" lon="6.61234">
        <ele>1358.8</ele>
        <time>2022-09-17T23:07:10Z</time>
      </trkpt>
      <trkpt lat="44.15551" lon="6.61233">
        <ele>1358.8</ele>
        <time>2022-09-17T23:07:11Z</time>
      </trkpt>
      <trkpt lat="44.15555" lon="6.61233">
        <ele>1358.9</ele>
        <time>2022-09-17T23:07:12Z</time>
      </trkpt>
      <trkpt lat="44.15559" lon="6.61233">
        <ele>1358.9</ele>
        <time>2022-09-17T23:07:13Z</time>
      </trkpt>
      <trkpt lat="44.15564" lon="6.61232">
        <ele>1358.9</ele>
        <time>2022-09-17T23:07:14Z</time>
      </trkpt>
      <trkpt lat="44.15566" lon="6.61232">
        <ele>1358.9</ele>
        <time>2022-09-17T23:07:15Z</time>
      </trkpt>
      <trkpt lat="44.15569" lon="6.61231">
        <ele>1358.9</ele>
        <time>2022-09-17T23:07:16Z</time>
      </trkpt>
      <trkpt lat="44.15572" lon="6.61231">
        <ele>1358.8</ele>
        <time>2022-09-17T23:07:17Z</time>
      </trkpt>
      <trkpt lat="44.15577" lon="6.61232">
        <ele>1358.7</ele>
        <time>2022-09-17T23:07:18Z</time>
      </trkpt>
      <trkpt lat="44.15581" lon="6.61233">
        <ele>1358.7</ele>
        <time>2022-09-17T23:07:19Z</time>
      </trkpt>
      <trkpt lat="44.15584" lon="6.61237">
        <ele>1358.5</ele>
        <time>2022-09-17T23:07:20Z</time>
      </trkpt>
      <trkpt lat="44.15586" lon="6.61238">
        <ele>1358.4</ele>
        <time>2022-09-17T23:07:21Z</time>
      </trkpt>
      <trkpt lat="44.15589" lon="6.61242">
        <ele>1358.5</ele>
        <time>2022-09-17T23:07:22Z</time>
      </trkpt>
      <trkpt lat="44.15593" lon="6.61247">
        <ele>1358.7</ele>
        <time>2022-09-17T23:07:23Z</time>
      </trkpt>
      <trkpt lat="44.15595" lon="6.61249">
        <ele>1358.8</ele>
        <time>2022-09-17T23:07:24Z</time>
      </trkpt>
      <trkpt lat="44.156" lon="6.61252">
        <ele>1359</ele>
        <time>2022-09-17T23:07:25Z</time>
      </trkpt>
      <trkpt lat="44.15602" lon="6.61254">
        <ele>1359</ele>
        <time>2022-09-17T23:07:26Z</time>
      </trkpt>
      <trkpt lat="44.15605" lon="6.61255">
        <ele>1359.1</ele>
        <time>2022-09-17T23:07:27Z</time>
      </trkpt>
      <trkpt lat="44.15608" lon="6.61257">
        <ele>1359.3</ele>
        <time>2022-09-17T23:07:28Z</time>
      </trkpt>
      <trkpt lat="44.15612" lon="6.61259">
        <ele>1359.5</ele>
        <time>2022-09-17T23:07:29Z</time>
      </trkpt>
      <trkpt lat="44.15615" lon="6.6126">
        <ele>1359.7</ele>
        <time>2022-09-17T23:07:30Z</time>
      </trkpt>
      <trkpt lat="44.1562" lon="6.61261">
        <ele>1359.9</ele>
        <time>2022-09-17T23:07:31Z</time>
      </trkpt>
      <trkpt lat="44.15623" lon="6.61261">
        <ele>1360.1</ele>
        <time>2022-09-17T23:07:32Z</time>
      </trkpt>
      <trkpt lat="44.15628" lon="6.61261">
        <ele>1360.4</ele>
        <time>2022-09-17T23:07:33Z</time>
      </trkpt>
      <trkpt lat="44.1563" lon="6.61261">
        <ele>1360.5</ele>
        <time>2022-09-17T23:07:34Z</time>
      </trkpt>
      <trkpt lat="44.15633" lon="6.61261">
        <ele>1360.7</ele>
        <time>2022-09-17T23:07:35Z</time>
      </trkpt>
      <trkpt lat="44.15636" lon="6.61261">
        <ele>1361</ele>
        <time>2022-09-17T23:07:36Z</time>
      </trkpt>
      <trkpt lat="44.15641" lon="6.61261">
        <ele>1361.3</ele>
        <time>2022-09-17T23:07:37Z</time>
      </trkpt>
      <trkpt lat="44.15643" lon="6.61261">
        <ele>1361.4</ele>
        <time>2022-09-17T23:07:38Z</time>
      </trkpt>
      <trkpt lat="44.15646" lon="6.61261">
        <ele>1361.6</ele>
        <time>2022-09-17T23:07:39Z</time>
      </trkpt>
      <trkpt lat="44.15651" lon="6.61262">
        <ele>1361.9</ele>
        <time>2022-09-17T23:07:40Z</time>
      </trkpt>
      <trkpt lat="44.15654" lon="6.61262">
        <ele>1362.2</ele>
        <time>2022-09-17T23:07:41Z</time>
      </trkpt>
      <trkpt lat="44.15657" lon="6.61263">
        <ele>1362.4</ele>
        <time>2022-09-17T23:07:42Z</time>
      </trkpt>
      <trkpt lat="44.1566" lon="6.61265">
        <ele>1362.7</ele>
        <time>2022-09-17T23:07:43Z</time>
      </trkpt>
      <trkpt lat="44.15664" lon="6.61268">
        <ele>1363</ele>
        <time>2022-09-17T23:07:44Z</time>
      </trkpt>
      <trkpt lat="44.15667" lon="6.6127">
        <ele>1363.3</ele>
        <time>2022-09-17T23:07:45Z</time>
      </trkpt>
      <trkpt lat="44.15672" lon="6.61274">
        <ele>1363.7</ele>
        <time>2022-09-17T23:07:46Z</time>
      </trkpt>
      <trkpt lat="44.15675" lon="6.61278">
        <ele>1364</ele>
        <time>2022-09-17T23:07:47Z</time>
      </trkpt>
      <trkpt lat="44.15678" lon="6.61281">
        <ele>1364.3</ele>
        <time>2022-09-17T23:07:49Z</time>
      </trkpt>
      <trkpt lat="44.15681" lon="6.61285">
        <ele>1364.6</ele>
        <time>2022-09-17T23:07:50Z</time>
      </trkpt>
      <trkpt lat="44.15683" lon="6.61288">
        <ele>1364.8</ele>
        <time>2022-09-17T23:07:51Z</time>
      </trkpt>
      <trkpt lat="44.15685" lon="6.61293">
        <ele>1365.1</ele>
        <time>2022-09-17T23:07:52Z</time>
      </trkpt>
      <trkpt lat="44.15688" lon="6.61298">
        <ele>1365.4</ele>
        <time>2022-09-17T23:07:53Z</time>
      </trkpt>
      <trkpt lat="44.1569" lon="6.61303">
        <ele>1365.7</ele>
        <time>2022-09-17T23:07:54Z</time>
      </trkpt>
      <trkpt lat="44.15694" lon="6.6131">
        <ele>1366.2</ele>
        <time>2022-09-17T23:07:56Z</time>
      </trkpt>
      <trkpt lat="44.15695" lon="6.61313">
        <ele>1366.4</ele>
        <time>2022-09-17T23:07:57Z</time>
      </trkpt>
      <trkpt lat="44.15697" lon="6.61318">
        <ele>1366.7</ele>
        <time>2022-09-17T23:07:59Z</time>
      </trkpt>
      <trkpt lat="44.15698" lon="6.61322">
        <ele>1366.9</ele>
        <time>2022-09-17T23:08:00Z</time>
      </trkpt>
      <trkpt lat="44.157" lon="6.61326">
        <ele>1367.2</ele>
        <time>2022-09-17T23:08:01Z</time>
      </trkpt>
      <trkpt lat="44.15702" lon="6.61331">
        <ele>1367.5</ele>
        <time>2022-09-17T23:08:02Z</time>
      </trkpt>
      <trkpt lat="44.15702" lon="6.61332">
        <ele>1367.6</ele>
        <time>2022-09-17T23:08:03Z</time>
      </trkpt>
      <trkpt lat="44.15704" lon="6.61336">
        <ele>1367.9</ele>
        <time>2022-09-17T23:08:04Z</time>
      </trkpt>
      <trkpt lat="44.15706" lon="6.61344">
        <ele>1368.4</ele>
        <time>2022-09-17T23:08:05Z</time>
      </trkpt>
      <trkpt lat="44.15708" lon="6.61347">
        <ele>1368.6</ele>
        <time>2022-09-17T23:08:06Z</time>
      </trkpt>
      <trkpt lat="44.1571" lon="6.61351">
        <ele>1368.9</ele>
        <time>2022-09-17T23:08:07Z</time>
      </trkpt>
      <trkpt lat="44.15711" lon="6.61354">
        <ele>1369.1</ele>
        <time>2022-09-17T23:08:09Z</time>
      </trkpt>
      <trkpt lat="44.15713" lon="6.61358">
        <ele>1369.4</ele>
        <time>2022-09-17T23:08:10Z</time>
      </trkpt>
      <trkpt lat="44.15714" lon="6.61362">
        <ele>1369.7</ele>
        <time>2022-09-17T23:08:11Z</time>
      </trkpt>
      <trkpt lat="44.15716" lon="6.61366">
        <ele>1370</ele>
        <time>2022-09-17T23:08:12Z</time>
      </trkpt>
      <trkpt lat="44.15718" lon="6.6137">
        <ele>1370.2</ele>
        <time>2022-09-17T23:08:13Z</time>
      </trkpt>
      <trkpt lat="44.15721" lon="6.61374">
        <ele>1370.6</ele>
        <time>2022-09-17T23:08:14Z</time>
      </trkpt>
      <trkpt lat="44.15721" lon="6.61376">
        <ele>1370.7</ele>
        <time>2022-09-17T23:08:15Z</time>
      </trkpt>
      <trkpt lat="44.15724" lon="6.61379">
        <ele>1371</ele>
        <time>2022-09-17T23:08:16Z</time>
      </trkpt>
      <trkpt lat="44.15725" lon="6.6138">
        <ele>1371.2</ele>
        <time>2022-09-17T23:08:17Z</time>
      </trkpt>
      <trkpt lat="44.15728" lon="6.61385">
        <ele>1371.6</ele>
        <time>2022-09-17T23:08:18Z</time>
      </trkpt>
      <trkpt lat="44.1573" lon="6.61387">
        <ele>1371.7</ele>
        <time>2022-09-17T23:08:19Z</time>
      </trkpt>
      <trkpt lat="44.15732" lon="6.6139">
        <ele>1372</ele>
        <time>2022-09-17T23:08:20Z</time>
      </trkpt>
      <trkpt lat="44.15734" lon="6.61394">
        <ele>1372.3</ele>
        <time>2022-09-17T23:08:21Z</time>
      </trkpt>
      <trkpt lat="44.15737" lon="6.61397">
        <ele>1372.6</ele>
        <time>2022-09-17T23:08:22Z</time>
      </trkpt>
      <trkpt lat="44.15738" lon="6.61399">
        <ele>1372.8</ele>
        <time>2022-09-17T23:08:23Z</time>
      </trkpt>
      <trkpt lat="44.15741" lon="6.61402">
        <ele>1373</ele>
        <time>2022-09-17T23:08:25Z</time>
      </trkpt>
      <trkpt lat="44.15744" lon="6.61406">
        <ele>1373.3</ele>
        <time>2022-09-17T23:08:26Z</time>
      </trkpt>
      <trkpt lat="44.15745" lon="6.61407">
        <ele>1373.4</ele>
        <time>2022-09-17T23:08:27Z</time>
      </trkpt>
      <trkpt lat="44.15747" lon="6.61409">
        <ele>1373.6</ele>
        <time>2022-09-17T23:08:28Z</time>
      </trkpt>
      <trkpt lat="44.1575" lon="6.61412">
        <ele>1373.9</ele>
        <time>2022-09-17T23:08:29Z</time>
      </trkpt>
      <trkpt lat="44.15753" lon="6.61414">
        <ele>1374.2</ele>
        <time>2022-09-17T23:08:30Z</time>
      </trkpt>
      <trkpt lat="44.15755" lon="6.61416">
        <ele>1374.3</ele>
        <time>2022-09-17T23:08:31Z</time>
      </trkpt>
      <trkpt lat="44.15758" lon="6.61418">
        <ele>1374.6</ele>
        <time>2022-09-17T23:08:32Z</time>
      </trkpt>
      <trkpt lat="44.15761" lon="6.61419">
        <ele>1374.9</ele>
        <time>2022-09-17T23:08:33Z</time>
      </trkpt>
      <trkpt lat="44.15764" lon="6.61422">
        <ele>1375.2</ele>
        <time>2022-09-17T23:08:35Z</time>
      </trkpt>
      <trkpt lat="44.15769" lon="6.61424">
        <ele>1375.6</ele>
        <time>2022-09-17T23:08:36Z</time>
      </trkpt>
      <trkpt lat="44.15772" lon="6.61426">
        <ele>1375.9</ele>
        <time>2022-09-17T23:08:38Z</time>
      </trkpt>
      <trkpt lat="44.15775" lon="6.61427">
        <ele>1376.1</ele>
        <time>2022-09-17T23:08:39Z</time>
      </trkpt>
      <trkpt lat="44.15777" lon="6.61428">
        <ele>1376.4</ele>
        <time>2022-09-17T23:08:40Z</time>
      </trkpt>
      <trkpt lat="44.15781" lon="6.6143">
        <ele>1376.7</ele>
        <time>2022-09-17T23:08:41Z</time>
      </trkpt>
      <trkpt lat="44.15784" lon="6.61432">
        <ele>1377</ele>
        <time>2022-09-17T23:08:42Z</time>
      </trkpt>
      <trkpt lat="44.15788" lon="6.61434">
        <ele>1377.4</ele>
        <time>2022-09-17T23:08:44Z</time>
      </trkpt>
      <trkpt lat="44.15791" lon="6.61436">
        <ele>1377.6</ele>
        <time>2022-09-17T23:08:45Z</time>
      </trkpt>
      <trkpt lat="44.15794" lon="6.61437">
        <ele>1377.8</ele>
        <time>2022-09-17T23:08:46Z</time>
      </trkpt>
      <trkpt lat="44.15796" lon="6.61439">
        <ele>1378.1</ele>
        <time>2022-09-17T23:08:47Z</time>
      </trkpt>
      <trkpt lat="44.15799" lon="6.6144">
        <ele>1378.3</ele>
        <time>2022-09-17T23:08:48Z</time>
      </trkpt>
      <trkpt lat="44.15802" lon="6.61441">
        <ele>1378.5</ele>
        <time>2022-09-17T23:08:49Z</time>
      </trkpt>
      <trkpt lat="44.15806" lon="6.61442">
        <ele>1378.8</ele>
        <time>2022-09-17T23:08:50Z</time>
      </trkpt>
      <trkpt lat="44.1581" lon="6.61444">
        <ele>1379.1</ele>
        <time>2022-09-17T23:08:51Z</time>
      </trkpt>
      <trkpt lat="44.15812" lon="6.61445">
        <ele>1379.3</ele>
        <time>2022-09-17T23:08:52Z</time>
      </trkpt>
      <trkpt lat="44.15816" lon="6.61448">
        <ele>1379.6</ele>
        <time>2022-09-17T23:08:54Z</time>
      </trkpt>
      <trkpt lat="44.15819" lon="6.61449">
        <ele>1379.9</ele>
        <time>2022-09-17T23:08:55Z</time>
      </trkpt>
      <trkpt lat="44.15822" lon="6.61451">
        <ele>1380.1</ele>
        <time>2022-09-17T23:08:56Z</time>
      </trkpt>
      <trkpt lat="44.15825" lon="6.61454">
        <ele>1380.4</ele>
        <time>2022-09-17T23:08:57Z</time>
      </trkpt>
      <trkpt lat="44.15828" lon="6.61456">
        <ele>1380.6</ele>
        <time>2022-09-17T23:08:58Z</time>
      </trkpt>
      <trkpt lat="44.15831" lon="6.6146">
        <ele>1381</ele>
        <time>2022-09-17T23:09:00Z</time>
      </trkpt>
      <trkpt lat="44.15834" lon="6.61465">
        <ele>1381.4</ele>
        <time>2022-09-17T23:09:01Z</time>
      </trkpt>
      <trkpt lat="44.15836" lon="6.61468">
        <ele>1381.6</ele>
        <time>2022-09-17T23:09:02Z</time>
      </trkpt>
      <trkpt lat="44.15838" lon="6.6147">
        <ele>1381.8</ele>
        <time>2022-09-17T23:09:03Z</time>
      </trkpt>
      <trkpt lat="44.15841" lon="6.61475">
        <ele>1382.2</ele>
        <time>2022-09-17T23:09:05Z</time>
      </trkpt>
      <trkpt lat="44.15842" lon="6.61478">
        <ele>1382.4</ele>
        <time>2022-09-17T23:09:06Z</time>
      </trkpt>
      <trkpt lat="44.15844" lon="6.61483">
        <ele>1382.7</ele>
        <time>2022-09-17T23:09:07Z</time>
      </trkpt>
      <trkpt lat="44.15845" lon="6.61485">
        <ele>1382.8</ele>
        <time>2022-09-17T23:09:08Z</time>
      </trkpt>
      <trkpt lat="44.15846" lon="6.61489">
        <ele>1383.1</ele>
        <time>2022-09-17T23:09:09Z</time>
      </trkpt>
      <trkpt lat="44.15847" lon="6.61492">
        <ele>1383.3</ele>
        <time>2022-09-17T23:09:10Z</time>
      </trkpt>
      <trkpt lat="44.15849" lon="6.61496">
        <ele>1383.6</ele>
        <time>2022-09-17T23:09:11Z</time>
      </trkpt>
      <trkpt lat="44.15851" lon="6.61502">
        <ele>1383.9</ele>
        <time>2022-09-17T23:09:12Z</time>
      </trkpt>
      <trkpt lat="44.15852" lon="6.61506">
        <ele>1384.2</ele>
        <time>2022-09-17T23:09:13Z</time>
      </trkpt>
      <trkpt lat="44.15854" lon="6.6151">
        <ele>1384.5</ele>
        <time>2022-09-17T23:09:14Z</time>
      </trkpt>
      <trkpt lat="44.15855" lon="6.61515">
        <ele>1384.8</ele>
        <time>2022-09-17T23:09:16Z</time>
      </trkpt>
      <trkpt lat="44.15856" lon="6.61519">
        <ele>1385</ele>
        <time>2022-09-17T23:09:17Z</time>
      </trkpt>
      <trkpt lat="44.15858" lon="6.61524">
        <ele>1385.3</ele>
        <time>2022-09-17T23:09:18Z</time>
      </trkpt>
      <trkpt lat="44.15858" lon="6.61526">
        <ele>1385.5</ele>
        <time>2022-09-17T23:09:19Z</time>
      </trkpt>
      <trkpt lat="44.15858" lon="6.6153">
        <ele>1385.7</ele>
        <time>2022-09-17T23:09:20Z</time>
      </trkpt>
      <trkpt lat="44.15859" lon="6.61534">
        <ele>1386</ele>
        <time>2022-09-17T23:09:21Z</time>
      </trkpt>
      <trkpt lat="44.15859" lon="6.61541">
        <ele>1386.4</ele>
        <time>2022-09-17T23:09:22Z</time>
      </trkpt>
      <trkpt lat="44.15858" lon="6.61546">
        <ele>1386.7</ele>
        <time>2022-09-17T23:09:24Z</time>
      </trkpt>
      <trkpt lat="44.15858" lon="6.6155">
        <ele>1386.9</ele>
        <time>2022-09-17T23:09:25Z</time>
      </trkpt>
      <trkpt lat="44.15859" lon="6.61554">
        <ele>1387.2</ele>
        <time>2022-09-17T23:09:26Z</time>
      </trkpt>
      <trkpt lat="44.1586" lon="6.61559">
        <ele>1387.5</ele>
        <time>2022-09-17T23:09:27Z</time>
      </trkpt>
      <trkpt lat="44.1586" lon="6.6156">
        <ele>1387.6</ele>
        <time>2022-09-17T23:09:28Z</time>
      </trkpt>
      <trkpt lat="44.15862" lon="6.61566">
        <ele>1388</ele>
        <time>2022-09-17T23:09:30Z</time>
      </trkpt>
      <trkpt lat="44.15864" lon="6.61572">
        <ele>1388.5</ele>
        <time>2022-09-17T23:09:31Z</time>
      </trkpt>
      <trkpt lat="44.15867" lon="6.61578">
        <ele>1389</ele>
        <time>2022-09-17T23:09:33Z</time>
      </trkpt>
      <trkpt lat="44.15868" lon="6.6158">
        <ele>1389.2</ele>
        <time>2022-09-17T23:09:34Z</time>
      </trkpt>
      <trkpt lat="44.15869" lon="6.61582">
        <ele>1389.4</ele>
        <time>2022-09-17T23:09:35Z</time>
      </trkpt>
      <trkpt lat="44.15871" lon="6.61587">
        <ele>1389.8</ele>
        <time>2022-09-17T23:09:36Z</time>
      </trkpt>
      <trkpt lat="44.15872" lon="6.61591">
        <ele>1390</ele>
        <time>2022-09-17T23:09:37Z</time>
      </trkpt>
      <trkpt lat="44.15874" lon="6.61596">
        <ele>1390.4</ele>
        <time>2022-09-17T23:09:39Z</time>
      </trkpt>
      <trkpt lat="44.15875" lon="6.61601">
        <ele>1390.8</ele>
        <time>2022-09-17T23:09:40Z</time>
      </trkpt>
      <trkpt lat="44.15876" lon="6.61603">
        <ele>1390.9</ele>
        <time>2022-09-17T23:09:41Z</time>
      </trkpt>
      <trkpt lat="44.15876" lon="6.61607">
        <ele>1391.2</ele>
        <time>2022-09-17T23:09:42Z</time>
      </trkpt>
      <trkpt lat="44.15875" lon="6.61611">
        <ele>1391.5</ele>
        <time>2022-09-17T23:09:43Z</time>
      </trkpt>
      <trkpt lat="44.15875" lon="6.61616">
        <ele>1391.9</ele>
        <time>2022-09-17T23:09:44Z</time>
      </trkpt>
      <trkpt lat="44.15874" lon="6.61622">
        <ele>1392.3</ele>
        <time>2022-09-17T23:09:45Z</time>
      </trkpt>
      <trkpt lat="44.15873" lon="6.61628">
        <ele>1392.8</ele>
        <time>2022-09-17T23:09:47Z</time>
      </trkpt>
      <trkpt lat="44.15872" lon="6.61631">
        <ele>1393</ele>
        <time>2022-09-17T23:09:48Z</time>
      </trkpt>
      <trkpt lat="44.15871" lon="6.61633">
        <ele>1393.2</ele>
        <time>2022-09-17T23:09:49Z</time>
      </trkpt>
      <trkpt lat="44.15868" lon="6.6164">
        <ele>1393.8</ele>
        <time>2022-09-17T23:09:51Z</time>
      </trkpt>
      <trkpt lat="44.15867" lon="6.61644">
        <ele>1394.1</ele>
        <time>2022-09-17T23:09:52Z</time>
      </trkpt>
      <trkpt lat="44.15866" lon="6.61648">
        <ele>1394.4</ele>
        <time>2022-09-17T23:09:53Z</time>
      </trkpt>
      <trkpt lat="44.15864" lon="6.61654">
        <ele>1394.8</ele>
        <time>2022-09-17T23:09:54Z</time>
      </trkpt>
      <trkpt lat="44.15863" lon="6.61659">
        <ele>1395.2</ele>
        <time>2022-09-17T23:09:56Z</time>
      </trkpt>
      <trkpt lat="44.15862" lon="6.61663">
        <ele>1395.9</ele>
        <time>2022-09-17T23:09:57Z</time>
      </trkpt>
      <trkpt lat="44.15862" lon="6.61666">
        <ele>1396.3</ele>
        <time>2022-09-17T23:09:58Z</time>
      </trkpt>
      <trkpt lat="44.15862" lon="6.61673">
        <ele>1396.9</ele>
        <time>2022-09-17T23:09:59Z</time>
      </trkpt>
      <trkpt lat="44.15862" lon="6.61675">
        <ele>1397.2</ele>
        <time>2022-09-17T23:10:00Z</time>
      </trkpt>
      <trkpt lat="44.15863" lon="6.61683">
        <ele>1398</ele>
        <time>2022-09-17T23:10:01Z</time>
      </trkpt>
      <trkpt lat="44.15864" lon="6.61688">
        <ele>1398.5</ele>
        <time>2022-09-17T23:10:03Z</time>
      </trkpt>
      <trkpt lat="44.15865" lon="6.61692">
        <ele>1398.9</ele>
        <time>2022-09-17T23:10:04Z</time>
      </trkpt>
      <trkpt lat="44.15867" lon="6.61697">
        <ele>1399.5</ele>
        <time>2022-09-17T23:10:05Z</time>
      </trkpt>
      <trkpt lat="44.15869" lon="6.61703">
        <ele>1400.1</ele>
        <time>2022-09-17T23:10:06Z</time>
      </trkpt>
      <trkpt lat="44.15871" lon="6.61707">
        <ele>1400.5</ele>
        <time>2022-09-17T23:10:07Z</time>
      </trkpt>
      <trkpt lat="44.15873" lon="6.61711">
        <ele>1401</ele>
        <time>2022-09-17T23:10:08Z</time>
      </trkpt>
      <trkpt lat="44.15875" lon="6.61716">
        <ele>1401.6</ele>
        <time>2022-09-17T23:10:09Z</time>
      </trkpt>
      <trkpt lat="44.15879" lon="6.61721">
        <ele>1402.3</ele>
        <time>2022-09-17T23:10:11Z</time>
      </trkpt>
      <trkpt lat="44.15883" lon="6.61724">
        <ele>1402.8</ele>
        <time>2022-09-17T23:10:12Z</time>
      </trkpt>
      <trkpt lat="44.15885" lon="6.61725">
        <ele>1403.2</ele>
        <time>2022-09-17T23:10:13Z</time>
      </trkpt>
      <trkpt lat="44.1589" lon="6.61728">
        <ele>1403.8</ele>
        <time>2022-09-17T23:10:15Z</time>
      </trkpt>
      <trkpt lat="44.15894" lon="6.6173">
        <ele>1404.2</ele>
        <time>2022-09-17T23:10:16Z</time>
      </trkpt>
      <trkpt lat="44.15896" lon="6.61731">
        <ele>1404.6</ele>
        <time>2022-09-17T23:10:17Z</time>
      </trkpt>
      <trkpt lat="44.159" lon="6.61733">
        <ele>1405</ele>
        <time>2022-09-17T23:10:19Z</time>
      </trkpt>
      <trkpt lat="44.15902" lon="6.61734">
        <ele>1405.4</ele>
        <time>2022-09-17T23:10:20Z</time>
      </trkpt>
      <trkpt lat="44.15905" lon="6.61736">
        <ele>1405.7</ele>
        <time>2022-09-17T23:10:21Z</time>
      </trkpt>
      <trkpt lat="44.15908" lon="6.61738">
        <ele>1406.2</ele>
        <time>2022-09-17T23:10:22Z</time>
      </trkpt>
      <trkpt lat="44.15911" lon="6.6174">
        <ele>1406.5</ele>
        <time>2022-09-17T23:10:23Z</time>
      </trkpt>
      <trkpt lat="44.15914" lon="6.61743">
        <ele>1407.1</ele>
        <time>2022-09-17T23:10:24Z</time>
      </trkpt>
      <trkpt lat="44.15916" lon="6.61745">
        <ele>1407.4</ele>
        <time>2022-09-17T23:10:25Z</time>
      </trkpt>
      <trkpt lat="44.15919" lon="6.61748">
        <ele>1407.8</ele>
        <time>2022-09-17T23:10:27Z</time>
      </trkpt>
      <trkpt lat="44.15922" lon="6.6175">
        <ele>1408.2</ele>
        <time>2022-09-17T23:10:28Z</time>
      </trkpt>
      <trkpt lat="44.15924" lon="6.61751">
        <ele>1408.5</ele>
        <time>2022-09-17T23:10:29Z</time>
      </trkpt>
      <trkpt lat="44.15927" lon="6.61754">
        <ele>1408.8</ele>
        <time>2022-09-17T23:10:30Z</time>
      </trkpt>
      <trkpt lat="44.15931" lon="6.6176">
        <ele>1409.6</ele>
        <time>2022-09-17T23:10:31Z</time>
      </trkpt>
      <trkpt lat="44.15934" lon="6.61763">
        <ele>1409.9</ele>
        <time>2022-09-17T23:10:33Z</time>
      </trkpt>
      <trkpt lat="44.15937" lon="6.61768">
        <ele>1410.5</ele>
        <time>2022-09-17T23:10:35Z</time>
      </trkpt>
      <trkpt lat="44.15939" lon="6.61771">
        <ele>1410.8</ele>
        <time>2022-09-17T23:10:36Z</time>
      </trkpt>
      <trkpt lat="44.15941" lon="6.61773">
        <ele>1411.1</ele>
        <time>2022-09-17T23:10:37Z</time>
      </trkpt>
      <trkpt lat="44.15944" lon="6.61779">
        <ele>1411.7</ele>
        <time>2022-09-17T23:10:39Z</time>
      </trkpt>
      <trkpt lat="44.15947" lon="6.61783">
        <ele>1412.2</ele>
        <time>2022-09-17T23:10:40Z</time>
      </trkpt>
      <trkpt lat="44.15948" lon="6.61784">
        <ele>1412.3</ele>
        <time>2022-09-17T23:10:41Z</time>
      </trkpt>
      <trkpt lat="44.1595" lon="6.6179">
        <ele>1413</ele>
        <time>2022-09-17T23:10:42Z</time>
      </trkpt>
      <trkpt lat="44.15951" lon="6.61793">
        <ele>1413.3</ele>
        <time>2022-09-17T23:10:43Z</time>
      </trkpt>
      <trkpt lat="44.15954" lon="6.61799">
        <ele>1414</ele>
        <time>2022-09-17T23:10:45Z</time>
      </trkpt>
      <trkpt lat="44.15955" lon="6.61803">
        <ele>1414.5</ele>
        <time>2022-09-17T23:10:47Z</time>
      </trkpt>
      <trkpt lat="44.15957" lon="6.61807">
        <ele>1414.9</ele>
        <time>2022-09-17T23:10:48Z</time>
      </trkpt>
      <trkpt lat="44.15959" lon="6.61812">
        <ele>1415.4</ele>
        <time>2022-09-17T23:10:49Z</time>
      </trkpt>
      <trkpt lat="44.15959" lon="6.61814">
        <ele>1415.6</ele>
        <time>2022-09-17T23:10:50Z</time>
      </trkpt>
      <trkpt lat="44.15961" lon="6.61818">
        <ele>1416.1</ele>
        <time>2022-09-17T23:10:51Z</time>
      </trkpt>
      <trkpt lat="44.15963" lon="6.61823">
        <ele>1416.6</ele>
        <time>2022-09-17T23:10:53Z</time>
      </trkpt>
      <trkpt lat="44.15965" lon="6.61827">
        <ele>1417</ele>
        <time>2022-09-17T23:10:54Z</time>
      </trkpt>
      <trkpt lat="44.15966" lon="6.61828">
        <ele>1417.2</ele>
        <time>2022-09-17T23:10:55Z</time>
      </trkpt>
      <trkpt lat="44.15968" lon="6.61833">
        <ele>1417.8</ele>
        <time>2022-09-17T23:10:56Z</time>
      </trkpt>
      <trkpt lat="44.1597" lon="6.61836">
        <ele>1418.2</ele>
        <time>2022-09-17T23:10:57Z</time>
      </trkpt>
      <trkpt lat="44.15974" lon="6.61844">
        <ele>1419</ele>
        <time>2022-09-17T23:10:59Z</time>
      </trkpt>
      <trkpt lat="44.15975" lon="6.61848">
        <ele>1419.5</ele>
        <time>2022-09-17T23:11:01Z</time>
      </trkpt>
      <trkpt lat="44.15976" lon="6.61852">
        <ele>1419.9</ele>
        <time>2022-09-17T23:11:02Z</time>
      </trkpt>
      <trkpt lat="44.15978" lon="6.61856">
        <ele>1420.3</ele>
        <time>2022-09-17T23:11:03Z</time>
      </trkpt>
      <trkpt lat="44.15981" lon="6.61859">
        <ele>1420.8</ele>
        <time>2022-09-17T23:11:04Z</time>
      </trkpt>
      <trkpt lat="44.15983" lon="6.61862">
        <ele>1421.2</ele>
        <time>2022-09-17T23:11:06Z</time>
      </trkpt>
      <trkpt lat="44.15985" lon="6.61865">
        <ele>1421.6</ele>
        <time>2022-09-17T23:11:07Z</time>
      </trkpt>
      <trkpt lat="44.15986" lon="6.61869">
        <ele>1422.1</ele>
        <time>2022-09-17T23:11:08Z</time>
      </trkpt>
      <trkpt lat="44.15989" lon="6.61872">
        <ele>1422.6</ele>
        <time>2022-09-17T23:11:09Z</time>
      </trkpt>
      <trkpt lat="44.15993" lon="6.61876">
        <ele>1423.3</ele>
        <time>2022-09-17T23:11:11Z</time>
      </trkpt>
      <trkpt lat="44.15994" lon="6.61877">
        <ele>1423.6</ele>
        <time>2022-09-17T23:11:12Z</time>
      </trkpt>
      <trkpt lat="44.15995" lon="6.61879">
        <ele>1423.9</ele>
        <time>2022-09-17T23:11:13Z</time>
      </trkpt>
      <trkpt lat="44.15998" lon="6.61883">
        <ele>1424.5</ele>
        <time>2022-09-17T23:11:14Z</time>
      </trkpt>
      <trkpt lat="44.16001" lon="6.61887">
        <ele>1425</ele>
        <time>2022-09-17T23:11:16Z</time>
      </trkpt>
      <trkpt lat="44.16003" lon="6.61891">
        <ele>1425.5</ele>
        <time>2022-09-17T23:11:17Z</time>
      </trkpt>
      <trkpt lat="44.16003" lon="6.61893">
        <ele>1425.6</ele>
        <time>2022-09-17T23:11:18Z</time>
      </trkpt>
      <trkpt lat="44.16005" lon="6.61897">
        <ele>1426.1</ele>
        <time>2022-09-17T23:11:19Z</time>
      </trkpt>
      <trkpt lat="44.16006" lon="6.61898">
        <ele>1426.3</ele>
        <time>2022-09-17T23:11:20Z</time>
      </trkpt>
      <trkpt lat="44.16007" lon="6.61902">
        <ele>1426.7</ele>
        <time>2022-09-17T23:11:21Z</time>
      </trkpt>
      <trkpt lat="44.1601" lon="6.61906">
        <ele>1427.2</ele>
        <time>2022-09-17T23:11:22Z</time>
      </trkpt>
      <trkpt lat="44.16011" lon="6.61908">
        <ele>1427.4</ele>
        <time>2022-09-17T23:11:23Z</time>
      </trkpt>
      <trkpt lat="44.16013" lon="6.61912">
        <ele>1427.9</ele>
        <time>2022-09-17T23:11:24Z</time>
      </trkpt>
      <trkpt lat="44.16014" lon="6.61913">
        <ele>1428</ele>
        <time>2022-09-17T23:11:25Z</time>
      </trkpt>
      <trkpt lat="44.16017" lon="6.61918">
        <ele>1428.7</ele>
        <time>2022-09-17T23:11:26Z</time>
      </trkpt>
      <trkpt lat="44.1602" lon="6.61922">
        <ele>1429.2</ele>
        <time>2022-09-17T23:11:28Z</time>
      </trkpt>
      <trkpt lat="44.16021" lon="6.61923">
        <ele>1429.4</ele>
        <time>2022-09-17T23:11:29Z</time>
      </trkpt>
      <trkpt lat="44.16024" lon="6.61928">
        <ele>1430</ele>
        <time>2022-09-17T23:11:30Z</time>
      </trkpt>
      <trkpt lat="44.16024" lon="6.61929">
        <ele>1430.2</ele>
        <time>2022-09-17T23:11:31Z</time>
      </trkpt>
      <trkpt lat="44.16026" lon="6.61933">
        <ele>1430.5</ele>
        <time>2022-09-17T23:11:32Z</time>
      </trkpt>
      <trkpt lat="44.16029" lon="6.61937">
        <ele>1431</ele>
        <time>2022-09-17T23:11:33Z</time>
      </trkpt>
      <trkpt lat="44.16029" lon="6.61939">
        <ele>1431.2</ele>
        <time>2022-09-17T23:11:34Z</time>
      </trkpt>
      <trkpt lat="44.16032" lon="6.61942">
        <ele>1431.6</ele>
        <time>2022-09-17T23:11:35Z</time>
      </trkpt>
      <trkpt lat="44.16033" lon="6.61943">
        <ele>1431.8</ele>
        <time>2022-09-17T23:11:36Z</time>
      </trkpt>
      <trkpt lat="44.16036" lon="6.61946">
        <ele>1432.2</ele>
        <time>2022-09-17T23:11:37Z</time>
      </trkpt>
      <trkpt lat="44.16037" lon="6.61947">
        <ele>1432.3</ele>
        <time>2022-09-17T23:11:38Z</time>
      </trkpt>
      <trkpt lat="44.1604" lon="6.6195">
        <ele>1432.7</ele>
        <time>2022-09-17T23:11:39Z</time>
      </trkpt>
      <trkpt lat="44.16043" lon="6.61952">
        <ele>1433.1</ele>
        <time>2022-09-17T23:11:40Z</time>
      </trkpt>
      <trkpt lat="44.16045" lon="6.61954">
        <ele>1433.5</ele>
        <time>2022-09-17T23:11:41Z</time>
      </trkpt>
      <trkpt lat="44.16049" lon="6.61957">
        <ele>1433.9</ele>
        <time>2022-09-17T23:11:43Z</time>
      </trkpt>
      <trkpt lat="44.1605" lon="6.61958">
        <ele>1434.1</ele>
        <time>2022-09-17T23:11:44Z</time>
      </trkpt>
      <trkpt lat="44.16053" lon="6.6196">
        <ele>1434.5</ele>
        <time>2022-09-17T23:11:45Z</time>
      </trkpt>
      <trkpt lat="44.16054" lon="6.6196">
        <ele>1434.6</ele>
        <time>2022-09-17T23:11:46Z</time>
      </trkpt>
      <trkpt lat="44.16058" lon="6.61962">
        <ele>1435.1</ele>
        <time>2022-09-17T23:11:47Z</time>
      </trkpt>
      <trkpt lat="44.16062" lon="6.61963">
        <ele>1435.6</ele>
        <time>2022-09-17T23:11:49Z</time>
      </trkpt>
      <trkpt lat="44.16066" lon="6.61965">
        <ele>1436.1</ele>
        <time>2022-09-17T23:11:50Z</time>
      </trkpt>
      <trkpt lat="44.16068" lon="6.61966">
        <ele>1436.4</ele>
        <time>2022-09-17T23:11:51Z</time>
      </trkpt>
      <trkpt lat="44.16071" lon="6.61967">
        <ele>1436.9</ele>
        <time>2022-09-17T23:11:53Z</time>
      </trkpt>
      <trkpt lat="44.16075" lon="6.61968">
        <ele>1437.3</ele>
        <time>2022-09-17T23:11:54Z</time>
      </trkpt>
      <trkpt lat="44.16076" lon="6.61969">
        <ele>1437.4</ele>
        <time>2022-09-17T23:11:55Z</time>
      </trkpt>
      <trkpt lat="44.1608" lon="6.6197">
        <ele>1438</ele>
        <time>2022-09-17T23:11:56Z</time>
      </trkpt>
      <trkpt lat="44.16082" lon="6.61971">
        <ele>1438.3</ele>
        <time>2022-09-17T23:11:57Z</time>
      </trkpt>
      <trkpt lat="44.16086" lon="6.61973">
        <ele>1438.8</ele>
        <time>2022-09-17T23:11:59Z</time>
      </trkpt>
      <trkpt lat="44.16089" lon="6.61976">
        <ele>1439.3</ele>
        <time>2022-09-17T23:12:00Z</time>
      </trkpt>
      <trkpt lat="44.16093" lon="6.6198">
        <ele>1439.9</ele>
        <time>2022-09-17T23:12:02Z</time>
      </trkpt>
      <trkpt lat="44.16095" lon="6.61984">
        <ele>1440.4</ele>
        <time>2022-09-17T23:12:04Z</time>
      </trkpt>
      <trkpt lat="44.16098" lon="6.61987">
        <ele>1441</ele>
        <time>2022-09-17T23:12:05Z</time>
      </trkpt>
      <trkpt lat="44.161" lon="6.61988">
        <ele>1441.2</ele>
        <time>2022-09-17T23:12:06Z</time>
      </trkpt>
      <trkpt lat="44.16103" lon="6.61991">
        <ele>1441.7</ele>
        <time>2022-09-17T23:12:07Z</time>
      </trkpt>
      <trkpt lat="44.16109" lon="6.61996">
        <ele>1442.7</ele>
        <time>2022-09-17T23:12:09Z</time>
      </trkpt>
      <trkpt lat="44.16112" lon="6.61999">
        <ele>1443.1</ele>
        <time>2022-09-17T23:12:11Z</time>
      </trkpt>
      <trkpt lat="44.16114" lon="6.62001">
        <ele>1443.5</ele>
        <time>2022-09-17T23:12:12Z</time>
      </trkpt>
      <trkpt lat="44.16117" lon="6.62003">
        <ele>1443.9</ele>
        <time>2022-09-17T23:12:13Z</time>
      </trkpt>
      <trkpt lat="44.1612" lon="6.62006">
        <ele>1444.3</ele>
        <time>2022-09-17T23:12:14Z</time>
      </trkpt>
      <trkpt lat="44.16122" lon="6.62008">
        <ele>1444.7</ele>
        <time>2022-09-17T23:12:15Z</time>
      </trkpt>
      <trkpt lat="44.16125" lon="6.62011">
        <ele>1445.1</ele>
        <time>2022-09-17T23:12:16Z</time>
      </trkpt>
      <trkpt lat="44.16128" lon="6.62012">
        <ele>1445.4</ele>
        <time>2022-09-17T23:12:17Z</time>
      </trkpt>
      <trkpt lat="44.16131" lon="6.62015">
        <ele>1445.8</ele>
        <time>2022-09-17T23:12:18Z</time>
      </trkpt>
      <trkpt lat="44.16133" lon="6.62016">
        <ele>1446.2</ele>
        <time>2022-09-17T23:12:20Z</time>
      </trkpt>
      <trkpt lat="44.16136" lon="6.62018">
        <ele>1446.5</ele>
        <time>2022-09-17T23:12:21Z</time>
      </trkpt>
      <trkpt lat="44.1614" lon="6.6202">
        <ele>1447</ele>
        <time>2022-09-17T23:12:22Z</time>
      </trkpt>
      <trkpt lat="44.16141" lon="6.62021">
        <ele>1447.2</ele>
        <time>2022-09-17T23:12:23Z</time>
      </trkpt>
      <trkpt lat="44.16144" lon="6.62022">
        <ele>1447.5</ele>
        <time>2022-09-17T23:12:24Z</time>
      </trkpt>
      <trkpt lat="44.16147" lon="6.62023">
        <ele>1447.9</ele>
        <time>2022-09-17T23:12:25Z</time>
      </trkpt>
      <trkpt lat="44.16151" lon="6.62024">
        <ele>1448.3</ele>
        <time>2022-09-17T23:12:26Z</time>
      </trkpt>
      <trkpt lat="44.16152" lon="6.62024">
        <ele>1448.5</ele>
        <time>2022-09-17T23:12:27Z</time>
      </trkpt>
      <trkpt lat="44.16154" lon="6.62025">
        <ele>1448.8</ele>
        <time>2022-09-17T23:12:28Z</time>
      </trkpt>
      <trkpt lat="44.16157" lon="6.62026">
        <ele>1449.1</ele>
        <time>2022-09-17T23:12:30Z</time>
      </trkpt>
      <trkpt lat="44.16158" lon="6.62026">
        <ele>1449.2</ele>
        <time>2022-09-17T23:12:31Z</time>
      </trkpt>
      <trkpt lat="44.1616" lon="6.62026">
        <ele>1449.5</ele>
        <time>2022-09-17T23:12:32Z</time>
      </trkpt>
      <trkpt lat="44.16163" lon="6.62026">
        <ele>1449.8</ele>
        <time>2022-09-17T23:12:34Z</time>
      </trkpt>
      <trkpt lat="44.16166" lon="6.62025">
        <ele>1450.2</ele>
        <time>2022-09-17T23:12:35Z</time>
      </trkpt>
      <trkpt lat="44.16168" lon="6.62025">
        <ele>1450.4</ele>
        <time>2022-09-17T23:12:36Z</time>
      </trkpt>
      <trkpt lat="44.16172" lon="6.62027">
        <ele>1451</ele>
        <time>2022-09-17T23:12:37Z</time>
      </trkpt>
      <trkpt lat="44.16173" lon="6.62028">
        <ele>1451.2</ele>
        <time>2022-09-17T23:12:38Z</time>
      </trkpt>
      <trkpt lat="44.16175" lon="6.62029">
        <ele>1451.5</ele>
        <time>2022-09-17T23:12:39Z</time>
      </trkpt>
      <trkpt lat="44.16178" lon="6.62032">
        <ele>1451.9</ele>
        <time>2022-09-17T23:12:41Z</time>
      </trkpt>
      <trkpt lat="44.16181" lon="6.62036">
        <ele>1452.4</ele>
        <time>2022-09-17T23:12:42Z</time>
      </trkpt>
      <trkpt lat="44.16183" lon="6.6204">
        <ele>1452.9</ele>
        <time>2022-09-17T23:12:43Z</time>
      </trkpt>
      <trkpt lat="44.16185" lon="6.62044">
        <ele>1453.3</ele>
        <time>2022-09-17T23:12:45Z</time>
      </trkpt>
      <trkpt lat="44.16187" lon="6.62051">
        <ele>1454</ele>
        <time>2022-09-17T23:12:46Z</time>
      </trkpt>
      <trkpt lat="44.16187" lon="6.62054">
        <ele>1454.3</ele>
        <time>2022-09-17T23:12:47Z</time>
      </trkpt>
      <trkpt lat="44.16188" lon="6.62059">
        <ele>1454.8</ele>
        <time>2022-09-17T23:12:49Z</time>
      </trkpt>
      <trkpt lat="44.16189" lon="6.62061">
        <ele>1455</ele>
        <time>2022-09-17T23:12:50Z</time>
      </trkpt>
      <trkpt lat="44.1619" lon="6.62066">
        <ele>1455.5</ele>
        <time>2022-09-17T23:12:51Z</time>
      </trkpt>
      <trkpt lat="44.16191" lon="6.62067">
        <ele>1455.6</ele>
        <time>2022-09-17T23:12:52Z</time>
      </trkpt>
      <trkpt lat="44.16192" lon="6.62071">
        <ele>1456</ele>
        <time>2022-09-17T23:12:53Z</time>
      </trkpt>
      <trkpt lat="44.16194" lon="6.62076">
        <ele>1456.5</ele>
        <time>2022-09-17T23:12:54Z</time>
      </trkpt>
      <trkpt lat="44.16196" lon="6.62079">
        <ele>1456.9</ele>
        <time>2022-09-17T23:12:55Z</time>
      </trkpt>
      <trkpt lat="44.16198" lon="6.62084">
        <ele>1457.6</ele>
        <time>2022-09-17T23:12:56Z</time>
      </trkpt>
      <trkpt lat="44.16201" lon="6.62089">
        <ele>1458.2</ele>
        <time>2022-09-17T23:12:58Z</time>
      </trkpt>
      <trkpt lat="44.16203" lon="6.62093">
        <ele>1458.7</ele>
        <time>2022-09-17T23:12:59Z</time>
      </trkpt>
      <trkpt lat="44.16206" lon="6.62097">
        <ele>1459.3</ele>
        <time>2022-09-17T23:13:00Z</time>
      </trkpt>
      <trkpt lat="44.16209" lon="6.62101">
        <ele>1459.8</ele>
        <time>2022-09-17T23:13:01Z</time>
      </trkpt>
      <trkpt lat="44.16211" lon="6.62106">
        <ele>1460.3</ele>
        <time>2022-09-17T23:13:02Z</time>
      </trkpt>
      <trkpt lat="44.16213" lon="6.62109">
        <ele>1460.7</ele>
        <time>2022-09-17T23:13:04Z</time>
      </trkpt>
      <trkpt lat="44.16216" lon="6.62114">
        <ele>1461.4</ele>
        <time>2022-09-17T23:13:05Z</time>
      </trkpt>
      <trkpt lat="44.16219" lon="6.62118">
        <ele>1461.8</ele>
        <time>2022-09-17T23:13:06Z</time>
      </trkpt>
      <trkpt lat="44.16222" lon="6.62123">
        <ele>1462.5</ele>
        <time>2022-09-17T23:13:08Z</time>
      </trkpt>
      <trkpt lat="44.16225" lon="6.62126">
        <ele>1462.9</ele>
        <time>2022-09-17T23:13:09Z</time>
      </trkpt>
      <trkpt lat="44.16227" lon="6.6213">
        <ele>1463.4</ele>
        <time>2022-09-17T23:13:11Z</time>
      </trkpt>
      <trkpt lat="44.16229" lon="6.62133">
        <ele>1463.8</ele>
        <time>2022-09-17T23:13:12Z</time>
      </trkpt>
      <trkpt lat="44.16232" lon="6.62136">
        <ele>1464.3</ele>
        <time>2022-09-17T23:13:13Z</time>
      </trkpt>
      <trkpt lat="44.16234" lon="6.62139">
        <ele>1464.6</ele>
        <time>2022-09-17T23:13:14Z</time>
      </trkpt>
      <trkpt lat="44.16237" lon="6.62142">
        <ele>1465</ele>
        <time>2022-09-17T23:13:15Z</time>
      </trkpt>
      <trkpt lat="44.1624" lon="6.62146">
        <ele>1465.6</ele>
        <time>2022-09-17T23:13:16Z</time>
      </trkpt>
      <trkpt lat="44.16242" lon="6.62148">
        <ele>1466</ele>
        <time>2022-09-17T23:13:17Z</time>
      </trkpt>
      <trkpt lat="44.16245" lon="6.62151">
        <ele>1466.4</ele>
        <time>2022-09-17T23:13:19Z</time>
      </trkpt>
      <trkpt lat="44.16247" lon="6.62153">
        <ele>1466.8</ele>
        <time>2022-09-17T23:13:20Z</time>
      </trkpt>
      <trkpt lat="44.1625" lon="6.62155">
        <ele>1467.2</ele>
        <time>2022-09-17T23:13:21Z</time>
      </trkpt>
      <trkpt lat="44.16255" lon="6.62159">
        <ele>1467.9</ele>
        <time>2022-09-17T23:13:23Z</time>
      </trkpt>
      <trkpt lat="44.16256" lon="6.6216">
        <ele>1468.2</ele>
        <time>2022-09-17T23:13:24Z</time>
      </trkpt>
      <trkpt lat="44.16258" lon="6.62162">
        <ele>1468.4</ele>
        <time>2022-09-17T23:13:25Z</time>
      </trkpt>
      <trkpt lat="44.16262" lon="6.62164">
        <ele>1468.9</ele>
        <time>2022-09-17T23:13:26Z</time>
      </trkpt>
      <trkpt lat="44.16263" lon="6.62165">
        <ele>1469.1</ele>
        <time>2022-09-17T23:13:27Z</time>
      </trkpt>
      <trkpt lat="44.16265" lon="6.62168">
        <ele>1469.5</ele>
        <time>2022-09-17T23:13:29Z</time>
      </trkpt>
      <trkpt lat="44.16268" lon="6.62171">
        <ele>1470</ele>
        <time>2022-09-17T23:13:30Z</time>
      </trkpt>
      <trkpt lat="44.16271" lon="6.62175">
        <ele>1470.4</ele>
        <time>2022-09-17T23:13:31Z</time>
      </trkpt>
      <trkpt lat="44.16274" lon="6.62179">
        <ele>1470.9</ele>
        <time>2022-09-17T23:13:33Z</time>
      </trkpt>
      <trkpt lat="44.16275" lon="6.6218">
        <ele>1471</ele>
        <time>2022-09-17T23:13:34Z</time>
      </trkpt>
      <trkpt lat="44.16278" lon="6.62184">
        <ele>1471.6</ele>
        <time>2022-09-17T23:13:36Z</time>
      </trkpt>
      <trkpt lat="44.16282" lon="6.62189">
        <ele>1472.2</ele>
        <time>2022-09-17T23:13:37Z</time>
      </trkpt>
      <trkpt lat="44.16284" lon="6.62191">
        <ele>1472.5</ele>
        <time>2022-09-17T23:13:38Z</time>
      </trkpt>
      <trkpt lat="44.16287" lon="6.62194">
        <ele>1473.1</ele>
        <time>2022-09-17T23:13:40Z</time>
      </trkpt>
      <trkpt lat="44.16288" lon="6.62195">
        <ele>1473.2</ele>
        <time>2022-09-17T23:13:41Z</time>
      </trkpt>
      <trkpt lat="44.16289" lon="6.62195">
        <ele>1473.4</ele>
        <time>2022-09-17T23:13:42Z</time>
      </trkpt>
      <trkpt lat="44.16293" lon="6.62195">
        <ele>1473.8</ele>
        <time>2022-09-17T23:13:43Z</time>
      </trkpt>
      <trkpt lat="44.16294" lon="6.62195">
        <ele>1474</ele>
        <time>2022-09-17T23:13:44Z</time>
      </trkpt>
      <trkpt lat="44.16298" lon="6.62195">
        <ele>1474.6</ele>
        <time>2022-09-17T23:13:45Z</time>
      </trkpt>
      <trkpt lat="44.163" lon="6.62195">
        <ele>1474.9</ele>
        <time>2022-09-17T23:13:46Z</time>
      </trkpt>
      <trkpt lat="44.16303" lon="6.62194">
        <ele>1475.3</ele>
        <time>2022-09-17T23:13:47Z</time>
      </trkpt>
      <trkpt lat="44.16304" lon="6.62194">
        <ele>1475.5</ele>
        <time>2022-09-17T23:13:48Z</time>
      </trkpt>
      <trkpt lat="44.1631" lon="6.62192">
        <ele>1476.3</ele>
        <time>2022-09-17T23:13:50Z</time>
      </trkpt>
      <trkpt lat="44.16312" lon="6.62193">
        <ele>1476.6</ele>
        <time>2022-09-17T23:13:52Z</time>
      </trkpt>
      <trkpt lat="44.16316" lon="6.62195">
        <ele>1477.1</ele>
        <time>2022-09-17T23:13:53Z</time>
      </trkpt>
      <trkpt lat="44.16317" lon="6.62195">
        <ele>1477.3</ele>
        <time>2022-09-17T23:13:54Z</time>
      </trkpt>
      <trkpt lat="44.16321" lon="6.62197">
        <ele>1477.8</ele>
        <time>2022-09-17T23:13:55Z</time>
      </trkpt>
      <trkpt lat="44.16322" lon="6.62198">
        <ele>1478</ele>
        <time>2022-09-17T23:13:56Z</time>
      </trkpt>
      <trkpt lat="44.16326" lon="6.62201">
        <ele>1478.6</ele>
        <time>2022-09-17T23:13:57Z</time>
      </trkpt>
      <trkpt lat="44.16328" lon="6.62202">
        <ele>1478.8</ele>
        <time>2022-09-17T23:13:58Z</time>
      </trkpt>
      <trkpt lat="44.16329" lon="6.62203">
        <ele>1479.1</ele>
        <time>2022-09-17T23:13:59Z</time>
      </trkpt>
      <trkpt lat="44.16331" lon="6.62207">
        <ele>1479.6</ele>
        <time>2022-09-17T23:14:01Z</time>
      </trkpt>
      <trkpt lat="44.16332" lon="6.62212">
        <ele>1480</ele>
        <time>2022-09-17T23:14:02Z</time>
      </trkpt>
      <trkpt lat="44.16333" lon="6.62218">
        <ele>1480.5</ele>
        <time>2022-09-17T23:14:04Z</time>
      </trkpt>
      <trkpt lat="44.16333" lon="6.6222">
        <ele>1480.7</ele>
        <time>2022-09-17T23:14:05Z</time>
      </trkpt>
      <trkpt lat="44.16333" lon="6.62222">
        <ele>1480.9</ele>
        <time>2022-09-17T23:14:06Z</time>
      </trkpt>
      <trkpt lat="44.16332" lon="6.62228">
        <ele>1481.6</ele>
        <time>2022-09-17T23:14:07Z</time>
      </trkpt>
      <trkpt lat="44.16332" lon="6.62231">
        <ele>1481.8</ele>
        <time>2022-09-17T23:14:08Z</time>
      </trkpt>
      <trkpt lat="44.16332" lon="6.62235">
        <ele>1482.3</ele>
        <time>2022-09-17T23:14:09Z</time>
      </trkpt>
      <trkpt lat="44.16334" lon="6.6224">
        <ele>1482.8</ele>
        <time>2022-09-17T23:14:11Z</time>
      </trkpt>
      <trkpt lat="44.16334" lon="6.62242">
        <ele>1483</ele>
        <time>2022-09-17T23:14:12Z</time>
      </trkpt>
      <trkpt lat="44.16336" lon="6.62245">
        <ele>1483.5</ele>
        <time>2022-09-17T23:14:13Z</time>
      </trkpt>
      <trkpt lat="44.16337" lon="6.62249">
        <ele>1483.9</ele>
        <time>2022-09-17T23:14:14Z</time>
      </trkpt>
      <trkpt lat="44.16338" lon="6.62256">
        <ele>1484.6</ele>
        <time>2022-09-17T23:14:16Z</time>
      </trkpt>
      <trkpt lat="44.16337" lon="6.6226">
        <ele>1485</ele>
        <time>2022-09-17T23:14:18Z</time>
      </trkpt>
      <trkpt lat="44.16337" lon="6.62265">
        <ele>1485.5</ele>
        <time>2022-09-17T23:14:20Z</time>
      </trkpt>
      <trkpt lat="44.16338" lon="6.62271">
        <ele>1486.1</ele>
        <time>2022-09-17T23:14:21Z</time>
      </trkpt>
      <trkpt lat="44.16339" lon="6.62274">
        <ele>1486.4</ele>
        <time>2022-09-17T23:14:22Z</time>
      </trkpt>
      <trkpt lat="44.1634" lon="6.6228">
        <ele>1487</ele>
        <time>2022-09-17T23:14:24Z</time>
      </trkpt>
      <trkpt lat="44.16341" lon="6.62283">
        <ele>1487.3</ele>
        <time>2022-09-17T23:14:25Z</time>
      </trkpt>
      <trkpt lat="44.16341" lon="6.62285">
        <ele>1487.5</ele>
        <time>2022-09-17T23:14:26Z</time>
      </trkpt>
      <trkpt lat="44.16343" lon="6.62289">
        <ele>1488</ele>
        <time>2022-09-17T23:14:27Z</time>
      </trkpt>
      <trkpt lat="44.16345" lon="6.62294">
        <ele>1488.6</ele>
        <time>2022-09-17T23:14:28Z</time>
      </trkpt>
      <trkpt lat="44.16346" lon="6.62296">
        <ele>1488.8</ele>
        <time>2022-09-17T23:14:29Z</time>
      </trkpt>
      <trkpt lat="44.16349" lon="6.62301">
        <ele>1489.3</ele>
        <time>2022-09-17T23:14:31Z</time>
      </trkpt>
      <trkpt lat="44.16352" lon="6.62305">
        <ele>1489.8</ele>
        <time>2022-09-17T23:14:32Z</time>
      </trkpt>
      <trkpt lat="44.16354" lon="6.62308">
        <ele>1490.1</ele>
        <time>2022-09-17T23:14:33Z</time>
      </trkpt>
      <trkpt lat="44.16357" lon="6.62311">
        <ele>1490.6</ele>
        <time>2022-09-17T23:14:35Z</time>
      </trkpt>
      <trkpt lat="44.1636" lon="6.62314">
        <ele>1491</ele>
        <time>2022-09-17T23:14:36Z</time>
      </trkpt>
      <trkpt lat="44.16363" lon="6.62316">
        <ele>1491.3</ele>
        <time>2022-09-17T23:14:37Z</time>
      </trkpt>
      <trkpt lat="44.16366" lon="6.62318">
        <ele>1491.7</ele>
        <time>2022-09-17T23:14:38Z</time>
      </trkpt>
      <trkpt lat="44.16367" lon="6.62319">
        <ele>1491.9</ele>
        <time>2022-09-17T23:14:39Z</time>
      </trkpt>
      <trkpt lat="44.1637" lon="6.62322">
        <ele>1492.3</ele>
        <time>2022-09-17T23:14:40Z</time>
      </trkpt>
      <trkpt lat="44.16371" lon="6.62323">
        <ele>1492.5</ele>
        <time>2022-09-17T23:14:41Z</time>
      </trkpt>
      <trkpt lat="44.16374" lon="6.62327">
        <ele>1492.9</ele>
        <time>2022-09-17T23:14:42Z</time>
      </trkpt>
      <trkpt lat="44.16375" lon="6.62328">
        <ele>1493</ele>
        <time>2022-09-17T23:14:43Z</time>
      </trkpt>
      <trkpt lat="44.16377" lon="6.6233">
        <ele>1493.3</ele>
        <time>2022-09-17T23:14:44Z</time>
      </trkpt>
      <trkpt lat="44.16379" lon="6.62332">
        <ele>1493.6</ele>
        <time>2022-09-17T23:14:45Z</time>
      </trkpt>
      <trkpt lat="44.16382" lon="6.62334">
        <ele>1494</ele>
        <time>2022-09-17T23:14:47Z</time>
      </trkpt>
      <trkpt lat="44.16384" lon="6.62334">
        <ele>1494.3</ele>
        <time>2022-09-17T23:14:48Z</time>
      </trkpt>
      <trkpt lat="44.16387" lon="6.62334">
        <ele>1494.8</ele>
        <time>2022-09-17T23:14:50Z</time>
      </trkpt>
      <trkpt lat="44.16391" lon="6.62334">
        <ele>1495.2</ele>
        <time>2022-09-17T23:14:51Z</time>
      </trkpt>
      <trkpt lat="44.16392" lon="6.62333">
        <ele>1495.3</ele>
        <time>2022-09-17T23:14:52Z</time>
      </trkpt>
      <trkpt lat="44.16396" lon="6.62333">
        <ele>1495.9</ele>
        <time>2022-09-17T23:14:53Z</time>
      </trkpt>
      <trkpt lat="44.16398" lon="6.62333">
        <ele>1496.1</ele>
        <time>2022-09-17T23:14:54Z</time>
      </trkpt>
      <trkpt lat="44.16401" lon="6.62333">
        <ele>1496.4</ele>
        <time>2022-09-17T23:14:55Z</time>
      </trkpt>
      <trkpt lat="44.16405" lon="6.62333">
        <ele>1496.9</ele>
        <time>2022-09-17T23:14:57Z</time>
      </trkpt>
      <trkpt lat="44.16408" lon="6.62333">
        <ele>1497.3</ele>
        <time>2022-09-17T23:14:58Z</time>
      </trkpt>
      <trkpt lat="44.16411" lon="6.62334">
        <ele>1497.8</ele>
        <time>2022-09-17T23:15:00Z</time>
      </trkpt>
      <trkpt lat="44.16415" lon="6.62332">
        <ele>1498.3</ele>
        <time>2022-09-17T23:15:01Z</time>
      </trkpt>
      <trkpt lat="44.16416" lon="6.62332">
        <ele>1498.4</ele>
        <time>2022-09-17T23:15:02Z</time>
      </trkpt>
      <trkpt lat="44.1642" lon="6.6233">
        <ele>1498.8</ele>
        <time>2022-09-17T23:15:03Z</time>
      </trkpt>
      <trkpt lat="44.16421" lon="6.6233">
        <ele>1499</ele>
        <time>2022-09-17T23:15:04Z</time>
      </trkpt>
      <trkpt lat="44.16424" lon="6.62329">
        <ele>1499.4</ele>
        <time>2022-09-17T23:15:05Z</time>
      </trkpt>
      <trkpt lat="44.16428" lon="6.62329">
        <ele>1499.9</ele>
        <time>2022-09-17T23:15:06Z</time>
      </trkpt>
      <trkpt lat="44.16431" lon="6.62329">
        <ele>1500.2</ele>
        <time>2022-09-17T23:15:07Z</time>
      </trkpt>
      <trkpt lat="44.16434" lon="6.62328">
        <ele>1500.6</ele>
        <time>2022-09-17T23:15:09Z</time>
      </trkpt>
      <trkpt lat="44.16437" lon="6.62327">
        <ele>1501</ele>
        <time>2022-09-17T23:15:10Z</time>
      </trkpt>
      <trkpt lat="44.16442" lon="6.62327">
        <ele>1501.7</ele>
        <time>2022-09-17T23:15:11Z</time>
      </trkpt>
      <trkpt lat="44.16446" lon="6.62327">
        <ele>1502.1</ele>
        <time>2022-09-17T23:15:13Z</time>
      </trkpt>
      <trkpt lat="44.1645" lon="6.62329">
        <ele>1502.6</ele>
        <time>2022-09-17T23:15:14Z</time>
      </trkpt>
      <trkpt lat="44.16454" lon="6.62331">
        <ele>1503.2</ele>
        <time>2022-09-17T23:15:15Z</time>
      </trkpt>
      <trkpt lat="44.16455" lon="6.62332">
        <ele>1503.4</ele>
        <time>2022-09-17T23:15:16Z</time>
      </trkpt>
      <trkpt lat="44.16458" lon="6.62334">
        <ele>1503.8</ele>
        <time>2022-09-17T23:15:18Z</time>
      </trkpt>
      <trkpt lat="44.1646" lon="6.62337">
        <ele>1504.1</ele>
        <time>2022-09-17T23:15:19Z</time>
      </trkpt>
      <trkpt lat="44.16464" lon="6.6234">
        <ele>1504.6</ele>
        <time>2022-09-17T23:15:20Z</time>
      </trkpt>
      <trkpt lat="44.16465" lon="6.62342">
        <ele>1504.9</ele>
        <time>2022-09-17T23:15:21Z</time>
      </trkpt>
      <trkpt lat="44.16468" lon="6.62346">
        <ele>1505.4</ele>
        <time>2022-09-17T23:15:22Z</time>
      </trkpt>
      <trkpt lat="44.16471" lon="6.62349">
        <ele>1505.8</ele>
        <time>2022-09-17T23:15:24Z</time>
      </trkpt>
      <trkpt lat="44.16475" lon="6.62354">
        <ele>1506.5</ele>
        <time>2022-09-17T23:15:26Z</time>
      </trkpt>
      <trkpt lat="44.16478" lon="6.62357">
        <ele>1506.9</ele>
        <time>2022-09-17T23:15:27Z</time>
      </trkpt>
      <trkpt lat="44.16479" lon="6.62358">
        <ele>1507.1</ele>
        <time>2022-09-17T23:15:28Z</time>
      </trkpt>
      <trkpt lat="44.16483" lon="6.62362">
        <ele>1507.6</ele>
        <time>2022-09-17T23:15:29Z</time>
      </trkpt>
      <trkpt lat="44.16486" lon="6.62366">
        <ele>1508.1</ele>
        <time>2022-09-17T23:15:31Z</time>
      </trkpt>
      <trkpt lat="44.16491" lon="6.62369">
        <ele>1508.7</ele>
        <time>2022-09-17T23:15:33Z</time>
      </trkpt>
      <trkpt lat="44.16492" lon="6.62369">
        <ele>1508.9</ele>
        <time>2022-09-17T23:15:34Z</time>
      </trkpt>
      <trkpt lat="44.16493" lon="6.6237">
        <ele>1509.1</ele>
        <time>2022-09-17T23:15:35Z</time>
      </trkpt>
      <trkpt lat="44.16497" lon="6.62372">
        <ele>1509.5</ele>
        <time>2022-09-17T23:15:36Z</time>
      </trkpt>
      <trkpt lat="44.165" lon="6.62374">
        <ele>1509.9</ele>
        <time>2022-09-17T23:15:38Z</time>
      </trkpt>
      <trkpt lat="44.16502" lon="6.62377">
        <ele>1510.2</ele>
        <time>2022-09-17T23:15:39Z</time>
      </trkpt>
      <trkpt lat="44.16504" lon="6.62379">
        <ele>1510.5</ele>
        <time>2022-09-17T23:15:41Z</time>
      </trkpt>
      <trkpt lat="44.16508" lon="6.62382">
        <ele>1510.9</ele>
        <time>2022-09-17T23:15:42Z</time>
      </trkpt>
      <trkpt lat="44.16509" lon="6.62383">
        <ele>1511.1</ele>
        <time>2022-09-17T23:15:43Z</time>
      </trkpt>
      <trkpt lat="44.16512" lon="6.62385">
        <ele>1511.3</ele>
        <time>2022-09-17T23:15:44Z</time>
      </trkpt>
      <trkpt lat="44.16514" lon="6.62387">
        <ele>1511.6</ele>
        <time>2022-09-17T23:15:45Z</time>
      </trkpt>
      <trkpt lat="44.16518" lon="6.62391">
        <ele>1511.9</ele>
        <time>2022-09-17T23:15:46Z</time>
      </trkpt>
      <trkpt lat="44.16521" lon="6.62394">
        <ele>1512.3</ele>
        <time>2022-09-17T23:15:48Z</time>
      </trkpt>
      <trkpt lat="44.16523" lon="6.62395">
        <ele>1512.4</ele>
        <time>2022-09-17T23:15:49Z</time>
      </trkpt>
      <trkpt lat="44.16525" lon="6.62398">
        <ele>1512.7</ele>
        <time>2022-09-17T23:15:50Z</time>
      </trkpt>
      <trkpt lat="44.16525" lon="6.62399">
        <ele>1512.8</ele>
        <time>2022-09-17T23:15:51Z</time>
      </trkpt>
      <trkpt lat="44.16528" lon="6.62402">
        <ele>1513.1</ele>
        <time>2022-09-17T23:15:53Z</time>
      </trkpt>
      <trkpt lat="44.1653" lon="6.62405">
        <ele>1513.3</ele>
        <time>2022-09-17T23:15:54Z</time>
      </trkpt>
      <trkpt lat="44.16533" lon="6.62407">
        <ele>1513.6</ele>
        <time>2022-09-17T23:15:55Z</time>
      </trkpt>
      <trkpt lat="44.16537" lon="6.62411">
        <ele>1514</ele>
        <time>2022-09-17T23:15:57Z</time>
      </trkpt>
      <trkpt lat="44.16539" lon="6.62414">
        <ele>1514.4</ele>
        <time>2022-09-17T23:15:58Z</time>
      </trkpt>
      <trkpt lat="44.1654" lon="6.62416">
        <ele>1514.5</ele>
        <time>2022-09-17T23:15:59Z</time>
      </trkpt>
      <trkpt lat="44.16542" lon="6.62419">
        <ele>1514.8</ele>
        <time>2022-09-17T23:16:00Z</time>
      </trkpt>
      <trkpt lat="44.16544" lon="6.62422">
        <ele>1515.1</ele>
        <time>2022-09-17T23:16:01Z</time>
      </trkpt>
      <trkpt lat="44.16544" lon="6.62423">
        <ele>1515.2</ele>
        <time>2022-09-17T23:16:02Z</time>
      </trkpt>
      <trkpt lat="44.16546" lon="6.62426">
        <ele>1515.5</ele>
        <time>2022-09-17T23:16:03Z</time>
      </trkpt>
      <trkpt lat="44.16548" lon="6.6243">
        <ele>1515.8</ele>
        <time>2022-09-17T23:16:04Z</time>
      </trkpt>
      <trkpt lat="44.1655" lon="6.62434">
        <ele>1516.2</ele>
        <time>2022-09-17T23:16:05Z</time>
      </trkpt>
      <trkpt lat="44.16552" lon="6.62437">
        <ele>1516.5</ele>
        <time>2022-09-17T23:16:06Z</time>
      </trkpt>
      <trkpt lat="44.16554" lon="6.62441">
        <ele>1516.8</ele>
        <time>2022-09-17T23:16:07Z</time>
      </trkpt>
      <trkpt lat="44.16556" lon="6.62444">
        <ele>1517.1</ele>
        <time>2022-09-17T23:16:08Z</time>
      </trkpt>
      <trkpt lat="44.16559" lon="6.62447">
        <ele>1517.5</ele>
        <time>2022-09-17T23:16:09Z</time>
      </trkpt>
      <trkpt lat="44.16561" lon="6.62451">
        <ele>1517.8</ele>
        <time>2022-09-17T23:16:10Z</time>
      </trkpt>
      <trkpt lat="44.16564" lon="6.62454">
        <ele>1518.1</ele>
        <time>2022-09-17T23:16:12Z</time>
      </trkpt>
      <trkpt lat="44.16565" lon="6.62458">
        <ele>1518.4</ele>
        <time>2022-09-17T23:16:13Z</time>
      </trkpt>
      <trkpt lat="44.1657" lon="6.62464">
        <ele>1519.1</ele>
        <time>2022-09-17T23:16:14Z</time>
      </trkpt>
      <trkpt lat="44.16574" lon="6.62471">
        <ele>1519.8</ele>
        <time>2022-09-17T23:16:16Z</time>
      </trkpt>
      <trkpt lat="44.16576" lon="6.62474">
        <ele>1520.2</ele>
        <time>2022-09-17T23:16:18Z</time>
      </trkpt>
      <trkpt lat="44.16579" lon="6.62477">
        <ele>1520.6</ele>
        <time>2022-09-17T23:16:19Z</time>
      </trkpt>
      <trkpt lat="44.16583" lon="6.62482">
        <ele>1521.2</ele>
        <time>2022-09-17T23:16:21Z</time>
      </trkpt>
      <trkpt lat="44.16585" lon="6.62484">
        <ele>1521.6</ele>
        <time>2022-09-17T23:16:22Z</time>
      </trkpt>
      <trkpt lat="44.16588" lon="6.62486">
        <ele>1521.9</ele>
        <time>2022-09-17T23:16:23Z</time>
      </trkpt>
      <trkpt lat="44.16591" lon="6.6249">
        <ele>1522.4</ele>
        <time>2022-09-17T23:16:24Z</time>
      </trkpt>
      <trkpt lat="44.16592" lon="6.62491">
        <ele>1522.5</ele>
        <time>2022-09-17T23:16:25Z</time>
      </trkpt>
      <trkpt lat="44.16595" lon="6.62494">
        <ele>1523</ele>
        <time>2022-09-17T23:16:26Z</time>
      </trkpt>
      <trkpt lat="44.16599" lon="6.62501">
        <ele>1523.9</ele>
        <time>2022-09-17T23:16:28Z</time>
      </trkpt>
      <trkpt lat="44.16601" lon="6.62505">
        <ele>1524.3</ele>
        <time>2022-09-17T23:16:30Z</time>
      </trkpt>
      <trkpt lat="44.16604" lon="6.62512">
        <ele>1524.9</ele>
        <time>2022-09-17T23:16:31Z</time>
      </trkpt>
      <trkpt lat="44.16606" lon="6.62516">
        <ele>1525.4</ele>
        <time>2022-09-17T23:16:33Z</time>
      </trkpt>
      <trkpt lat="44.16609" lon="6.6252">
        <ele>1525.7</ele>
        <time>2022-09-17T23:16:34Z</time>
      </trkpt>
      <trkpt lat="44.1661" lon="6.62521">
        <ele>1525.9</ele>
        <time>2022-09-17T23:16:35Z</time>
      </trkpt>
      <trkpt lat="44.16612" lon="6.62523">
        <ele>1526.1</ele>
        <time>2022-09-17T23:16:36Z</time>
      </trkpt>
      <trkpt lat="44.16615" lon="6.62525">
        <ele>1526.4</ele>
        <time>2022-09-17T23:16:37Z</time>
      </trkpt>
      <trkpt lat="44.16617" lon="6.62527">
        <ele>1526.6</ele>
        <time>2022-09-17T23:16:38Z</time>
      </trkpt>
      <trkpt lat="44.1662" lon="6.62529">
        <ele>1526.9</ele>
        <time>2022-09-17T23:16:39Z</time>
      </trkpt>
      <trkpt lat="44.16624" lon="6.62531">
        <ele>1527.2</ele>
        <time>2022-09-17T23:16:41Z</time>
      </trkpt>
      <trkpt lat="44.16628" lon="6.62534">
        <ele>1527.5</ele>
        <time>2022-09-17T23:16:42Z</time>
      </trkpt>
      <trkpt lat="44.16632" lon="6.62536">
        <ele>1527.8</ele>
        <time>2022-09-17T23:16:44Z</time>
      </trkpt>
      <trkpt lat="44.16635" lon="6.62538">
        <ele>1528</ele>
        <time>2022-09-17T23:16:45Z</time>
      </trkpt>
      <trkpt lat="44.16638" lon="6.62541">
        <ele>1528.2</ele>
        <time>2022-09-17T23:16:46Z</time>
      </trkpt>
      <trkpt lat="44.1664" lon="6.62545">
        <ele>1528.4</ele>
        <time>2022-09-17T23:16:47Z</time>
      </trkpt>
      <trkpt lat="44.16641" lon="6.62546">
        <ele>1528.5</ele>
        <time>2022-09-17T23:16:48Z</time>
      </trkpt>
      <trkpt lat="44.16646" lon="6.62548">
        <ele>1528.7</ele>
        <time>2022-09-17T23:16:49Z</time>
      </trkpt>
      <trkpt lat="44.1665" lon="6.62549">
        <ele>1529</ele>
        <time>2022-09-17T23:16:51Z</time>
      </trkpt>
      <trkpt lat="44.16654" lon="6.6255">
        <ele>1529.3</ele>
        <time>2022-09-17T23:16:52Z</time>
      </trkpt>
      <trkpt lat="44.16655" lon="6.6255">
        <ele>1529.3</ele>
        <time>2022-09-17T23:16:53Z</time>
      </trkpt>
      <trkpt lat="44.16658" lon="6.62551">
        <ele>1529.6</ele>
        <time>2022-09-17T23:16:54Z</time>
      </trkpt>
      <trkpt lat="44.16662" lon="6.62552">
        <ele>1529.8</ele>
        <time>2022-09-17T23:16:55Z</time>
      </trkpt>
      <trkpt lat="44.16666" lon="6.62553">
        <ele>1530.1</ele>
        <time>2022-09-17T23:16:57Z</time>
      </trkpt>
      <trkpt lat="44.1667" lon="6.62554">
        <ele>1530.4</ele>
        <time>2022-09-17T23:16:58Z</time>
      </trkpt>
      <trkpt lat="44.16673" lon="6.62555">
        <ele>1530.5</ele>
        <time>2022-09-17T23:16:59Z</time>
      </trkpt>
      <trkpt lat="44.16676" lon="6.62556">
        <ele>1530.8</ele>
        <time>2022-09-17T23:17:00Z</time>
      </trkpt>
      <trkpt lat="44.1668" lon="6.62557">
        <ele>1531</ele>
        <time>2022-09-17T23:17:01Z</time>
      </trkpt>
      <trkpt lat="44.16683" lon="6.62558">
        <ele>1531.2</ele>
        <time>2022-09-17T23:17:03Z</time>
      </trkpt>
      <trkpt lat="44.16687" lon="6.6256">
        <ele>1531.5</ele>
        <time>2022-09-17T23:17:04Z</time>
      </trkpt>
      <trkpt lat="44.16691" lon="6.62563">
        <ele>1531.8</ele>
        <time>2022-09-17T23:17:05Z</time>
      </trkpt>
      <trkpt lat="44.16694" lon="6.62564">
        <ele>1532</ele>
        <time>2022-09-17T23:17:07Z</time>
      </trkpt>
      <trkpt lat="44.16698" lon="6.62566">
        <ele>1532.3</ele>
        <time>2022-09-17T23:17:08Z</time>
      </trkpt>
      <trkpt lat="44.16702" lon="6.62568">
        <ele>1532.6</ele>
        <time>2022-09-17T23:17:09Z</time>
      </trkpt>
      <trkpt lat="44.16705" lon="6.6257">
        <ele>1532.8</ele>
        <time>2022-09-17T23:17:11Z</time>
      </trkpt>
      <trkpt lat="44.16707" lon="6.62572">
        <ele>1533</ele>
        <time>2022-09-17T23:17:12Z</time>
      </trkpt>
      <trkpt lat="44.1671" lon="6.62577">
        <ele>1533.3</ele>
        <time>2022-09-17T23:17:13Z</time>
      </trkpt>
      <trkpt lat="44.16711" lon="6.62578">
        <ele>1533.4</ele>
        <time>2022-09-17T23:17:14Z</time>
      </trkpt>
      <trkpt lat="44.16713" lon="6.62582">
        <ele>1533.7</ele>
        <time>2022-09-17T23:17:15Z</time>
      </trkpt>
      <trkpt lat="44.16717" lon="6.62588">
        <ele>1534.1</ele>
        <time>2022-09-17T23:17:17Z</time>
      </trkpt>
      <trkpt lat="44.16719" lon="6.6259">
        <ele>1534.3</ele>
        <time>2022-09-17T23:17:18Z</time>
      </trkpt>
      <trkpt lat="44.16721" lon="6.62592">
        <ele>1534.5</ele>
        <time>2022-09-17T23:17:19Z</time>
      </trkpt>
      <trkpt lat="44.16723" lon="6.62593">
        <ele>1534.6</ele>
        <time>2022-09-17T23:17:20Z</time>
      </trkpt>
      <trkpt lat="44.16726" lon="6.62594">
        <ele>1534.9</ele>
        <time>2022-09-17T23:17:22Z</time>
      </trkpt>
      <trkpt lat="44.1673" lon="6.62596">
        <ele>1535.2</ele>
        <time>2022-09-17T23:17:23Z</time>
      </trkpt>
      <trkpt lat="44.16732" lon="6.62597">
        <ele>1535.5</ele>
        <time>2022-09-17T23:17:24Z</time>
      </trkpt>
      <trkpt lat="44.16735" lon="6.62599">
        <ele>1535.8</ele>
        <time>2022-09-17T23:17:25Z</time>
      </trkpt>
      <trkpt lat="44.16738" lon="6.62602">
        <ele>1536</ele>
        <time>2022-09-17T23:17:27Z</time>
      </trkpt>
      <trkpt lat="44.16742" lon="6.62606">
        <ele>1536.4</ele>
        <time>2022-09-17T23:17:29Z</time>
      </trkpt>
      <trkpt lat="44.16745" lon="6.62609">
        <ele>1536.7</ele>
        <time>2022-09-17T23:17:30Z</time>
      </trkpt>
      <trkpt lat="44.16747" lon="6.62612">
        <ele>1537</ele>
        <time>2022-09-17T23:17:31Z</time>
      </trkpt>
      <trkpt lat="44.1675" lon="6.62615">
        <ele>1537.2</ele>
        <time>2022-09-17T23:17:32Z</time>
      </trkpt>
      <trkpt lat="44.16754" lon="6.62621">
        <ele>1537.7</ele>
        <time>2022-09-17T23:17:35Z</time>
      </trkpt>
      <trkpt lat="44.16757" lon="6.62625">
        <ele>1538</ele>
        <time>2022-09-17T23:17:36Z</time>
      </trkpt>
      <trkpt lat="44.16758" lon="6.62627">
        <ele>1538.2</ele>
        <time>2022-09-17T23:17:37Z</time>
      </trkpt>
      <trkpt lat="44.16761" lon="6.6263">
        <ele>1538.4</ele>
        <time>2022-09-17T23:17:38Z</time>
      </trkpt>
      <trkpt lat="44.16763" lon="6.62632">
        <ele>1538.7</ele>
        <time>2022-09-17T23:17:39Z</time>
      </trkpt>
      <trkpt lat="44.16766" lon="6.62636">
        <ele>1539</ele>
        <time>2022-09-17T23:17:41Z</time>
      </trkpt>
      <trkpt lat="44.16768" lon="6.62639">
        <ele>1539.2</ele>
        <time>2022-09-17T23:17:42Z</time>
      </trkpt>
      <trkpt lat="44.16771" lon="6.62644">
        <ele>1539.6</ele>
        <time>2022-09-17T23:17:43Z</time>
      </trkpt>
      <trkpt lat="44.16772" lon="6.62646">
        <ele>1539.7</ele>
        <time>2022-09-17T23:17:44Z</time>
      </trkpt>
      <trkpt lat="44.16775" lon="6.6265">
        <ele>1540.1</ele>
        <time>2022-09-17T23:17:45Z</time>
      </trkpt>
      <trkpt lat="44.16777" lon="6.62652">
        <ele>1540.2</ele>
        <time>2022-09-17T23:17:46Z</time>
      </trkpt>
      <trkpt lat="44.1678" lon="6.62655">
        <ele>1540.6</ele>
        <time>2022-09-17T23:17:48Z</time>
      </trkpt>
      <trkpt lat="44.16782" lon="6.62658">
        <ele>1540.8</ele>
        <time>2022-09-17T23:17:49Z</time>
      </trkpt>
      <trkpt lat="44.16784" lon="6.62661">
        <ele>1541</ele>
        <time>2022-09-17T23:17:50Z</time>
      </trkpt>
      <trkpt lat="44.16786" lon="6.62663">
        <ele>1541.2</ele>
        <time>2022-09-17T23:17:51Z</time>
      </trkpt>
      <trkpt lat="44.16789" lon="6.62666">
        <ele>1541.5</ele>
        <time>2022-09-17T23:17:52Z</time>
      </trkpt>
      <trkpt lat="44.1679" lon="6.62667">
        <ele>1541.6</ele>
        <time>2022-09-17T23:17:53Z</time>
      </trkpt>
      <trkpt lat="44.16794" lon="6.62672">
        <ele>1541.9</ele>
        <time>2022-09-17T23:17:54Z</time>
      </trkpt>
      <trkpt lat="44.16796" lon="6.62675">
        <ele>1542.1</ele>
        <time>2022-09-17T23:17:55Z</time>
      </trkpt>
      <trkpt lat="44.16799" lon="6.62679">
        <ele>1542.4</ele>
        <time>2022-09-17T23:17:57Z</time>
      </trkpt>
      <trkpt lat="44.16802" lon="6.62683">
        <ele>1542.7</ele>
        <time>2022-09-17T23:17:59Z</time>
      </trkpt>
      <trkpt lat="44.16806" lon="6.62687">
        <ele>1543</ele>
        <time>2022-09-17T23:18:00Z</time>
      </trkpt>
      <trkpt lat="44.16807" lon="6.62689">
        <ele>1543.1</ele>
        <time>2022-09-17T23:18:01Z</time>
      </trkpt>
      <trkpt lat="44.16809" lon="6.62692">
        <ele>1543.3</ele>
        <time>2022-09-17T23:18:02Z</time>
      </trkpt>
      <trkpt lat="44.16812" lon="6.62697">
        <ele>1543.5</ele>
        <time>2022-09-17T23:18:03Z</time>
      </trkpt>
      <trkpt lat="44.16814" lon="6.62699">
        <ele>1543.6</ele>
        <time>2022-09-17T23:18:04Z</time>
      </trkpt>
      <trkpt lat="44.16816" lon="6.62704">
        <ele>1543.8</ele>
        <time>2022-09-17T23:18:06Z</time>
      </trkpt>
      <trkpt lat="44.1682" lon="6.62708">
        <ele>1544</ele>
        <time>2022-09-17T23:18:07Z</time>
      </trkpt>
      <trkpt lat="44.16824" lon="6.62712">
        <ele>1544.2</ele>
        <time>2022-09-17T23:18:09Z</time>
      </trkpt>
      <trkpt lat="44.16827" lon="6.62715">
        <ele>1544.4</ele>
        <time>2022-09-17T23:18:10Z</time>
      </trkpt>
      <trkpt lat="44.1683" lon="6.62719">
        <ele>1544.5</ele>
        <time>2022-09-17T23:18:11Z</time>
      </trkpt>
      <trkpt lat="44.16832" lon="6.62722">
        <ele>1544.7</ele>
        <time>2022-09-17T23:18:12Z</time>
      </trkpt>
      <trkpt lat="44.16835" lon="6.62726">
        <ele>1544.9</ele>
        <time>2022-09-17T23:18:14Z</time>
      </trkpt>
      <trkpt lat="44.16838" lon="6.62728">
        <ele>1545.1</ele>
        <time>2022-09-17T23:18:15Z</time>
      </trkpt>
      <trkpt lat="44.16842" lon="6.6273">
        <ele>1545.4</ele>
        <time>2022-09-17T23:18:16Z</time>
      </trkpt>
      <trkpt lat="44.16845" lon="6.62732">
        <ele>1545.6</ele>
        <time>2022-09-17T23:18:18Z</time>
      </trkpt>
      <trkpt lat="44.16848" lon="6.62735">
        <ele>1545.8</ele>
        <time>2022-09-17T23:18:19Z</time>
      </trkpt>
      <trkpt lat="44.1685" lon="6.62737">
        <ele>1546</ele>
        <time>2022-09-17T23:18:20Z</time>
      </trkpt>
      <trkpt lat="44.16854" lon="6.62738">
        <ele>1546.3</ele>
        <time>2022-09-17T23:18:21Z</time>
      </trkpt>
      <trkpt lat="44.16855" lon="6.62738">
        <ele>1546.4</ele>
        <time>2022-09-17T23:18:22Z</time>
      </trkpt>
      <trkpt lat="44.16858" lon="6.6274">
        <ele>1546.6</ele>
        <time>2022-09-17T23:18:23Z</time>
      </trkpt>
      <trkpt lat="44.16861" lon="6.62741">
        <ele>1546.8</ele>
        <time>2022-09-17T23:18:24Z</time>
      </trkpt>
      <trkpt lat="44.16864" lon="6.62742">
        <ele>1547</ele>
        <time>2022-09-17T23:18:25Z</time>
      </trkpt>
      <trkpt lat="44.16867" lon="6.62745">
        <ele>1547.3</ele>
        <time>2022-09-17T23:18:27Z</time>
      </trkpt>
      <trkpt lat="44.16869" lon="6.62748">
        <ele>1547.4</ele>
        <time>2022-09-17T23:18:28Z</time>
      </trkpt>
      <trkpt lat="44.16871" lon="6.62751">
        <ele>1547.6</ele>
        <time>2022-09-17T23:18:29Z</time>
      </trkpt>
      <trkpt lat="44.16873" lon="6.62755">
        <ele>1547.8</ele>
        <time>2022-09-17T23:18:30Z</time>
      </trkpt>
      <trkpt lat="44.16874" lon="6.6276">
        <ele>1548</ele>
        <time>2022-09-17T23:18:31Z</time>
      </trkpt>
      <trkpt lat="44.16876" lon="6.62764">
        <ele>1548.3</ele>
        <time>2022-09-17T23:18:33Z</time>
      </trkpt>
      <trkpt lat="44.16879" lon="6.6277">
        <ele>1548.6</ele>
        <time>2022-09-17T23:18:34Z</time>
      </trkpt>
      <trkpt lat="44.16881" lon="6.62773">
        <ele>1548.8</ele>
        <time>2022-09-17T23:18:35Z</time>
      </trkpt>
      <trkpt lat="44.16886" lon="6.62779">
        <ele>1549.1</ele>
        <time>2022-09-17T23:18:38Z</time>
      </trkpt>
      <trkpt lat="44.16889" lon="6.62782">
        <ele>1549.4</ele>
        <time>2022-09-17T23:18:39Z</time>
      </trkpt>
      <trkpt lat="44.1689" lon="6.62783">
        <ele>1549.5</ele>
        <time>2022-09-17T23:18:40Z</time>
      </trkpt>
      <trkpt lat="44.16894" lon="6.62786">
        <ele>1549.8</ele>
        <time>2022-09-17T23:18:41Z</time>
      </trkpt>
      <trkpt lat="44.16896" lon="6.62787">
        <ele>1550</ele>
        <time>2022-09-17T23:18:42Z</time>
      </trkpt>
      <trkpt lat="44.16898" lon="6.6279">
        <ele>1550.3</ele>
        <time>2022-09-17T23:18:44Z</time>
      </trkpt>
      <trkpt lat="44.16901" lon="6.62792">
        <ele>1550.5</ele>
        <time>2022-09-17T23:18:45Z</time>
      </trkpt>
      <trkpt lat="44.16903" lon="6.62794">
        <ele>1550.7</ele>
        <time>2022-09-17T23:18:46Z</time>
      </trkpt>
      <trkpt lat="44.16906" lon="6.62798">
        <ele>1551.1</ele>
        <time>2022-09-17T23:18:47Z</time>
      </trkpt>
      <trkpt lat="44.16907" lon="6.62799">
        <ele>1551.2</ele>
        <time>2022-09-17T23:18:48Z</time>
      </trkpt>
      <trkpt lat="44.1691" lon="6.62801">
        <ele>1551.5</ele>
        <time>2022-09-17T23:18:49Z</time>
      </trkpt>
      <trkpt lat="44.16912" lon="6.62804">
        <ele>1551.7</ele>
        <time>2022-09-17T23:18:50Z</time>
      </trkpt>
      <trkpt lat="44.16915" lon="6.62806">
        <ele>1552</ele>
        <time>2022-09-17T23:18:51Z</time>
      </trkpt>
      <trkpt lat="44.16917" lon="6.62809">
        <ele>1552.3</ele>
        <time>2022-09-17T23:18:52Z</time>
      </trkpt>
      <trkpt lat="44.16919" lon="6.62812">
        <ele>1552.5</ele>
        <time>2022-09-17T23:18:53Z</time>
      </trkpt>
      <trkpt lat="44.16923" lon="6.62815">
        <ele>1552.9</ele>
        <time>2022-09-17T23:18:55Z</time>
      </trkpt>
      <trkpt lat="44.16926" lon="6.62818">
        <ele>1553.1</ele>
        <time>2022-09-17T23:18:56Z</time>
      </trkpt>
      <trkpt lat="44.16926" lon="6.62819">
        <ele>1553.2</ele>
        <time>2022-09-17T23:18:57Z</time>
      </trkpt>
      <trkpt lat="44.16929" lon="6.62821">
        <ele>1553.4</ele>
        <time>2022-09-17T23:18:58Z</time>
      </trkpt>
      <trkpt lat="44.16931" lon="6.62824">
        <ele>1554</ele>
        <time>2022-09-17T23:19:00Z</time>
      </trkpt>
      <trkpt lat="44.16933" lon="6.62827">
        <ele>1554.6</ele>
        <time>2022-09-17T23:19:01Z</time>
      </trkpt>
      <trkpt lat="44.16934" lon="6.62828">
        <ele>1554.8</ele>
        <time>2022-09-17T23:19:02Z</time>
      </trkpt>
      <trkpt lat="44.16936" lon="6.62832">
        <ele>1555.4</ele>
        <time>2022-09-17T23:19:03Z</time>
      </trkpt>
      <trkpt lat="44.16937" lon="6.62834">
        <ele>1555.8</ele>
        <time>2022-09-17T23:19:04Z</time>
      </trkpt>
      <trkpt lat="44.16939" lon="6.62835">
        <ele>1556.1</ele>
        <time>2022-09-17T23:19:06Z</time>
      </trkpt>
      <trkpt lat="44.16939" lon="6.62836">
        <ele>1556.2</ele>
        <time>2022-09-17T23:19:07Z</time>
      </trkpt>
      <trkpt lat="44.1694" lon="6.62837">
        <ele>1556.4</ele>
        <time>2022-09-17T23:19:08Z</time>
      </trkpt>
      <trkpt lat="44.1694" lon="6.62837">
        <ele>1556.5</ele>
        <time>2022-09-17T23:19:09Z</time>
      </trkpt>
      <trkpt lat="44.16941" lon="6.62837">
        <ele>1556.6</ele>
        <time>2022-09-17T23:19:10Z</time>
      </trkpt>
      <trkpt lat="44.16941" lon="6.62839">
        <ele>1556.8</ele>
        <time>2022-09-17T23:19:11Z</time>
      </trkpt>
      <trkpt lat="44.16944" lon="6.62842">
        <ele>1557.5</ele>
        <time>2022-09-17T23:19:13Z</time>
      </trkpt>
      <trkpt lat="44.16947" lon="6.62845">
        <ele>1558.2</ele>
        <time>2022-09-17T23:19:14Z</time>
      </trkpt>
      <trkpt lat="44.1695" lon="6.62849">
        <ele>1558.9</ele>
        <time>2022-09-17T23:19:16Z</time>
      </trkpt>
      <trkpt lat="44.16953" lon="6.62851">
        <ele>1559.4</ele>
        <time>2022-09-17T23:19:17Z</time>
      </trkpt>
      <trkpt lat="44.16957" lon="6.62855">
        <ele>1559.5</ele>
        <time>2022-09-17T23:19:18Z</time>
      </trkpt>
      <trkpt lat="44.1696" lon="6.62857">
        <ele>1559.5</ele>
        <time>2022-09-17T23:19:20Z</time>
      </trkpt>
      <trkpt lat="44.16962" lon="6.62859">
        <ele>1559.5</ele>
        <time>2022-09-17T23:19:21Z</time>
      </trkpt>
      <trkpt lat="44.16964" lon="6.62862">
        <ele>1559.5</ele>
        <time>2022-09-17T23:19:22Z</time>
      </trkpt>
      <trkpt lat="44.16966" lon="6.62864">
        <ele>1559.5</ele>
        <time>2022-09-17T23:19:23Z</time>
      </trkpt>
      <trkpt lat="44.1697" lon="6.62867">
        <ele>1559.6</ele>
        <time>2022-09-17T23:19:24Z</time>
      </trkpt>
      <trkpt lat="44.16972" lon="6.62869">
        <ele>1559.6</ele>
        <time>2022-09-17T23:19:25Z</time>
      </trkpt>
      <trkpt lat="44.16975" lon="6.6287">
        <ele>1559.7</ele>
        <time>2022-09-17T23:19:27Z</time>
      </trkpt>
      <trkpt lat="44.16978" lon="6.62872">
        <ele>1559.7</ele>
        <time>2022-09-17T23:19:28Z</time>
      </trkpt>
      <trkpt lat="44.16979" lon="6.62873">
        <ele>1559.8</ele>
        <time>2022-09-17T23:19:29Z</time>
      </trkpt>
      <trkpt lat="44.16981" lon="6.62875">
        <ele>1559.8</ele>
        <time>2022-09-17T23:19:30Z</time>
      </trkpt>
      <trkpt lat="44.16985" lon="6.62878">
        <ele>1559.9</ele>
        <time>2022-09-17T23:19:31Z</time>
      </trkpt>
      <trkpt lat="44.16988" lon="6.6288">
        <ele>1560</ele>
        <time>2022-09-17T23:19:32Z</time>
      </trkpt>
      <trkpt lat="44.16992" lon="6.62883">
        <ele>1560.1</ele>
        <time>2022-09-17T23:19:34Z</time>
      </trkpt>
      <trkpt lat="44.16995" lon="6.62886">
        <ele>1560.2</ele>
        <time>2022-09-17T23:19:35Z</time>
      </trkpt>
      <trkpt lat="44.16999" lon="6.6289">
        <ele>1560.3</ele>
        <time>2022-09-17T23:19:36Z</time>
      </trkpt>
      <trkpt lat="44.17001" lon="6.62893">
        <ele>1560.4</ele>
        <time>2022-09-17T23:19:37Z</time>
      </trkpt>
      <trkpt lat="44.17004" lon="6.62896">
        <ele>1560.6</ele>
        <time>2022-09-17T23:19:38Z</time>
      </trkpt>
      <trkpt lat="44.17006" lon="6.62899">
        <ele>1560.6</ele>
        <time>2022-09-17T23:19:39Z</time>
      </trkpt>
      <trkpt lat="44.17009" lon="6.62903">
        <ele>1560.8</ele>
        <time>2022-09-17T23:19:40Z</time>
      </trkpt>
      <trkpt lat="44.17011" lon="6.62906">
        <ele>1560.9</ele>
        <time>2022-09-17T23:19:42Z</time>
      </trkpt>
      <trkpt lat="44.17013" lon="6.62908">
        <ele>1561</ele>
        <time>2022-09-17T23:19:43Z</time>
      </trkpt>
      <trkpt lat="44.17017" lon="6.62913">
        <ele>1561.1</ele>
        <time>2022-09-17T23:19:44Z</time>
      </trkpt>
      <trkpt lat="44.17019" lon="6.62916">
        <ele>1561.2</ele>
        <time>2022-09-17T23:19:45Z</time>
      </trkpt>
      <trkpt lat="44.17023" lon="6.6292">
        <ele>1561.4</ele>
        <time>2022-09-17T23:19:47Z</time>
      </trkpt>
      <trkpt lat="44.17026" lon="6.62923">
        <ele>1561.6</ele>
        <time>2022-09-17T23:19:49Z</time>
      </trkpt>
      <trkpt lat="44.17029" lon="6.62926">
        <ele>1561.7</ele>
        <time>2022-09-17T23:19:50Z</time>
      </trkpt>
      <trkpt lat="44.17034" lon="6.6293">
        <ele>1561.9</ele>
        <time>2022-09-17T23:19:51Z</time>
      </trkpt>
      <trkpt lat="44.17036" lon="6.62932">
        <ele>1562</ele>
        <time>2022-09-17T23:19:52Z</time>
      </trkpt>
      <trkpt lat="44.1704" lon="6.62935">
        <ele>1562.2</ele>
        <time>2022-09-17T23:19:54Z</time>
      </trkpt>
      <trkpt lat="44.17042" lon="6.62937">
        <ele>1562.3</ele>
        <time>2022-09-17T23:19:55Z</time>
      </trkpt>
      <trkpt lat="44.17044" lon="6.6294">
        <ele>1562.4</ele>
        <time>2022-09-17T23:19:56Z</time>
      </trkpt>
      <trkpt lat="44.17046" lon="6.62944">
        <ele>1562.6</ele>
        <time>2022-09-17T23:19:57Z</time>
      </trkpt>
      <trkpt lat="44.17049" lon="6.62948">
        <ele>1562.7</ele>
        <time>2022-09-17T23:19:58Z</time>
      </trkpt>
      <trkpt lat="44.17052" lon="6.62952">
        <ele>1562.9</ele>
        <time>2022-09-17T23:20:00Z</time>
      </trkpt>
      <trkpt lat="44.17053" lon="6.62955">
        <ele>1563</ele>
        <time>2022-09-17T23:20:01Z</time>
      </trkpt>
      <trkpt lat="44.17055" lon="6.62959">
        <ele>1563.1</ele>
        <time>2022-09-17T23:20:02Z</time>
      </trkpt>
      <trkpt lat="44.17056" lon="6.62963">
        <ele>1563.2</ele>
        <time>2022-09-17T23:20:03Z</time>
      </trkpt>
      <trkpt lat="44.17058" lon="6.62967">
        <ele>1563.3</ele>
        <time>2022-09-17T23:20:04Z</time>
      </trkpt>
      <trkpt lat="44.17059" lon="6.62971">
        <ele>1563.3</ele>
        <time>2022-09-17T23:20:05Z</time>
      </trkpt>
      <trkpt lat="44.17061" lon="6.62975">
        <ele>1563.4</ele>
        <time>2022-09-17T23:20:06Z</time>
      </trkpt>
      <trkpt lat="44.17062" lon="6.6298">
        <ele>1563.6</ele>
        <time>2022-09-17T23:20:08Z</time>
      </trkpt>
      <trkpt lat="44.17063" lon="6.62985">
        <ele>1564</ele>
        <time>2022-09-17T23:20:09Z</time>
      </trkpt>
      <trkpt lat="44.17064" lon="6.62988">
        <ele>1564.1</ele>
        <time>2022-09-17T23:20:10Z</time>
      </trkpt>
      <trkpt lat="44.17064" lon="6.62992">
        <ele>1564.4</ele>
        <time>2022-09-17T23:20:11Z</time>
      </trkpt>
      <trkpt lat="44.17065" lon="6.62996">
        <ele>1564.6</ele>
        <time>2022-09-17T23:20:12Z</time>
      </trkpt>
      <trkpt lat="44.17066" lon="6.63001">
        <ele>1564.9</ele>
        <time>2022-09-17T23:20:13Z</time>
      </trkpt>
      <trkpt lat="44.17068" lon="6.63006">
        <ele>1565.2</ele>
        <time>2022-09-17T23:20:15Z</time>
      </trkpt>
      <trkpt lat="44.17068" lon="6.63009">
        <ele>1565.4</ele>
        <time>2022-09-17T23:20:16Z</time>
      </trkpt>
      <trkpt lat="44.17069" lon="6.63011">
        <ele>1565.5</ele>
        <time>2022-09-17T23:20:17Z</time>
      </trkpt>
      <trkpt lat="44.17069" lon="6.63017">
        <ele>1565.8</ele>
        <time>2022-09-17T23:20:18Z</time>
      </trkpt>
      <trkpt lat="44.1707" lon="6.63019">
        <ele>1565.9</ele>
        <time>2022-09-17T23:20:19Z</time>
      </trkpt>
      <trkpt lat="44.1707" lon="6.63024">
        <ele>1566.2</ele>
        <time>2022-09-17T23:20:20Z</time>
      </trkpt>
      <trkpt lat="44.17071" lon="6.63029">
        <ele>1566.5</ele>
        <time>2022-09-17T23:20:21Z</time>
      </trkpt>
      <trkpt lat="44.17072" lon="6.63033">
        <ele>1566.7</ele>
        <time>2022-09-17T23:20:23Z</time>
      </trkpt>
      <trkpt lat="44.17073" lon="6.63037">
        <ele>1566.9</ele>
        <time>2022-09-17T23:20:24Z</time>
      </trkpt>
      <trkpt lat="44.17073" lon="6.63041">
        <ele>1567.2</ele>
        <time>2022-09-17T23:20:25Z</time>
      </trkpt>
      <trkpt lat="44.17074" lon="6.63043">
        <ele>1567.2</ele>
        <time>2022-09-17T23:20:26Z</time>
      </trkpt>
      <trkpt lat="44.17074" lon="6.63048">
        <ele>1567.5</ele>
        <time>2022-09-17T23:20:27Z</time>
      </trkpt>
      <trkpt lat="44.17074" lon="6.63055">
        <ele>1567.8</ele>
        <time>2022-09-17T23:20:29Z</time>
      </trkpt>
      <trkpt lat="44.17074" lon="6.6306">
        <ele>1568.1</ele>
        <time>2022-09-17T23:20:30Z</time>
      </trkpt>
      <trkpt lat="44.17074" lon="6.63062">
        <ele>1568.2</ele>
        <time>2022-09-17T23:20:31Z</time>
      </trkpt>
      <trkpt lat="44.17074" lon="6.63066">
        <ele>1568.4</ele>
        <time>2022-09-17T23:20:32Z</time>
      </trkpt>
      <trkpt lat="44.17073" lon="6.63072">
        <ele>1568.7</ele>
        <time>2022-09-17T23:20:33Z</time>
      </trkpt>
      <trkpt lat="44.17073" lon="6.63079">
        <ele>1569</ele>
        <time>2022-09-17T23:20:35Z</time>
      </trkpt>
      <trkpt lat="44.17073" lon="6.63081">
        <ele>1569.1</ele>
        <time>2022-09-17T23:20:36Z</time>
      </trkpt>
      <trkpt lat="44.17073" lon="6.63084">
        <ele>1569.3</ele>
        <time>2022-09-17T23:20:37Z</time>
      </trkpt>
      <trkpt lat="44.17073" lon="6.63088">
        <ele>1569.4</ele>
        <time>2022-09-17T23:20:38Z</time>
      </trkpt>
      <trkpt lat="44.17072" lon="6.63093">
        <ele>1569.7</ele>
        <time>2022-09-17T23:20:39Z</time>
      </trkpt>
      <trkpt lat="44.17071" lon="6.63098">
        <ele>1569.9</ele>
        <time>2022-09-17T23:20:41Z</time>
      </trkpt>
      <trkpt lat="44.1707" lon="6.63101">
        <ele>1570.1</ele>
        <time>2022-09-17T23:20:42Z</time>
      </trkpt>
      <trkpt lat="44.17069" lon="6.63106">
        <ele>1570.3</ele>
        <time>2022-09-17T23:20:43Z</time>
      </trkpt>
      <trkpt lat="44.17068" lon="6.63111">
        <ele>1570.5</ele>
        <time>2022-09-17T23:20:44Z</time>
      </trkpt>
      <trkpt lat="44.17067" lon="6.63116">
        <ele>1570.8</ele>
        <time>2022-09-17T23:20:45Z</time>
      </trkpt>
      <trkpt lat="44.17066" lon="6.63121">
        <ele>1571</ele>
        <time>2022-09-17T23:20:46Z</time>
      </trkpt>
      <trkpt lat="44.17064" lon="6.63126">
        <ele>1571.3</ele>
        <time>2022-09-17T23:20:47Z</time>
      </trkpt>
      <trkpt lat="44.17064" lon="6.63128">
        <ele>1571.4</ele>
        <time>2022-09-17T23:20:48Z</time>
      </trkpt>
      <trkpt lat="44.17063" lon="6.63133">
        <ele>1571.6</ele>
        <time>2022-09-17T23:20:50Z</time>
      </trkpt>
      <trkpt lat="44.17061" lon="6.63139">
        <ele>1572</ele>
        <time>2022-09-17T23:20:51Z</time>
      </trkpt>
      <trkpt lat="44.17059" lon="6.63144">
        <ele>1572.3</ele>
        <time>2022-09-17T23:20:53Z</time>
      </trkpt>
      <trkpt lat="44.17057" lon="6.63148">
        <ele>1572.6</ele>
        <time>2022-09-17T23:20:54Z</time>
      </trkpt>
      <trkpt lat="44.17056" lon="6.63152">
        <ele>1572.8</ele>
        <time>2022-09-17T23:20:55Z</time>
      </trkpt>
      <trkpt lat="44.17056" lon="6.63158">
        <ele>1573.2</ele>
        <time>2022-09-17T23:20:56Z</time>
      </trkpt>
      <trkpt lat="44.17056" lon="6.6316">
        <ele>1573.3</ele>
        <time>2022-09-17T23:20:57Z</time>
      </trkpt>
      <trkpt lat="44.17054" lon="6.63169">
        <ele>1573.8</ele>
        <time>2022-09-17T23:20:59Z</time>
      </trkpt>
      <trkpt lat="44.17052" lon="6.63173">
        <ele>1574.1</ele>
        <time>2022-09-17T23:21:01Z</time>
      </trkpt>
      <trkpt lat="44.17051" lon="6.63177">
        <ele>1574.3</ele>
        <time>2022-09-17T23:21:02Z</time>
      </trkpt>
      <trkpt lat="44.17049" lon="6.63181">
        <ele>1574.5</ele>
        <time>2022-09-17T23:21:03Z</time>
      </trkpt>
      <trkpt lat="44.17047" lon="6.63187">
        <ele>1574.8</ele>
        <time>2022-09-17T23:21:04Z</time>
      </trkpt>
      <trkpt lat="44.17045" lon="6.63193">
        <ele>1575.1</ele>
        <time>2022-09-17T23:21:05Z</time>
      </trkpt>
      <trkpt lat="44.17043" lon="6.63195">
        <ele>1575.2</ele>
        <time>2022-09-17T23:21:06Z</time>
      </trkpt>
      <trkpt lat="44.17042" lon="6.63199">
        <ele>1575.4</ele>
        <time>2022-09-17T23:21:07Z</time>
      </trkpt>
      <trkpt lat="44.1704" lon="6.63203">
        <ele>1575.6</ele>
        <time>2022-09-17T23:21:09Z</time>
      </trkpt>
      <trkpt lat="44.17039" lon="6.63208">
        <ele>1575.9</ele>
        <time>2022-09-17T23:21:10Z</time>
      </trkpt>
      <trkpt lat="44.17037" lon="6.63212">
        <ele>1576.2</ele>
        <time>2022-09-17T23:21:11Z</time>
      </trkpt>
      <trkpt lat="44.17035" lon="6.63216">
        <ele>1576.4</ele>
        <time>2022-09-17T23:21:12Z</time>
      </trkpt>
      <trkpt lat="44.17033" lon="6.63221">
        <ele>1576.7</ele>
        <time>2022-09-17T23:21:13Z</time>
      </trkpt>
      <trkpt lat="44.17032" lon="6.63226">
        <ele>1576.9</ele>
        <time>2022-09-17T23:21:14Z</time>
      </trkpt>
      <trkpt lat="44.17032" lon="6.63228">
        <ele>1577</ele>
        <time>2022-09-17T23:21:15Z</time>
      </trkpt>
      <trkpt lat="44.1703" lon="6.63232">
        <ele>1577.2</ele>
        <time>2022-09-17T23:21:17Z</time>
      </trkpt>
      <trkpt lat="44.17029" lon="6.63235">
        <ele>1577.4</ele>
        <time>2022-09-17T23:21:18Z</time>
      </trkpt>
      <trkpt lat="44.17027" lon="6.63239">
        <ele>1577.6</ele>
        <time>2022-09-17T23:21:19Z</time>
      </trkpt>
      <trkpt lat="44.17026" lon="6.63239">
        <ele>1577.6</ele>
        <time>2022-09-17T23:21:20Z</time>
      </trkpt>
      <trkpt lat="44.17024" lon="6.63242">
        <ele>1577.8</ele>
        <time>2022-09-17T23:21:21Z</time>
      </trkpt>
      <trkpt lat="44.17023" lon="6.63243">
        <ele>1577.8</ele>
        <time>2022-09-17T23:21:22Z</time>
      </trkpt>
      <trkpt lat="44.17021" lon="6.63247">
        <ele>1578</ele>
        <time>2022-09-17T23:21:23Z</time>
      </trkpt>
      <trkpt lat="44.1702" lon="6.63249">
        <ele>1578.1</ele>
        <time>2022-09-17T23:21:24Z</time>
      </trkpt>
      <trkpt lat="44.17018" lon="6.63255">
        <ele>1578.3</ele>
        <time>2022-09-17T23:21:26Z</time>
      </trkpt>
      <trkpt lat="44.17015" lon="6.63258">
        <ele>1578.5</ele>
        <time>2022-09-17T23:21:28Z</time>
      </trkpt>
      <trkpt lat="44.17015" lon="6.63259">
        <ele>1578.5</ele>
        <time>2022-09-17T23:21:29Z</time>
      </trkpt>
      <trkpt lat="44.17012" lon="6.63262">
        <ele>1578.7</ele>
        <time>2022-09-17T23:21:30Z</time>
      </trkpt>
      <trkpt lat="44.17011" lon="6.63263">
        <ele>1578.8</ele>
        <time>2022-09-17T23:21:31Z</time>
      </trkpt>
      <trkpt lat="44.17008" lon="6.63267">
        <ele>1578.9</ele>
        <time>2022-09-17T23:21:32Z</time>
      </trkpt>
      <trkpt lat="44.17007" lon="6.63269">
        <ele>1578.9</ele>
        <time>2022-09-17T23:21:33Z</time>
      </trkpt>
      <trkpt lat="44.17004" lon="6.63273">
        <ele>1579</ele>
        <time>2022-09-17T23:21:34Z</time>
      </trkpt>
      <trkpt lat="44.17003" lon="6.63274">
        <ele>1579.1</ele>
        <time>2022-09-17T23:21:35Z</time>
      </trkpt>
      <trkpt lat="44.17" lon="6.63277">
        <ele>1579.1</ele>
        <time>2022-09-17T23:21:36Z</time>
      </trkpt>
      <trkpt lat="44.16999" lon="6.63278">
        <ele>1579.1</ele>
        <time>2022-09-17T23:21:37Z</time>
      </trkpt>
      <trkpt lat="44.16996" lon="6.63279">
        <ele>1579.1</ele>
        <time>2022-09-17T23:21:38Z</time>
      </trkpt>
      <trkpt lat="44.16993" lon="6.63279">
        <ele>1579.1</ele>
        <time>2022-09-17T23:21:39Z</time>
      </trkpt>
      <trkpt lat="44.1699" lon="6.63279">
        <ele>1579.1</ele>
        <time>2022-09-17T23:21:40Z</time>
      </trkpt>
      <trkpt lat="44.16984" lon="6.6328">
        <ele>1579.1</ele>
        <time>2022-09-17T23:21:41Z</time>
      </trkpt>
      <trkpt lat="44.16981" lon="6.63281">
        <ele>1579.1</ele>
        <time>2022-09-17T23:21:43Z</time>
      </trkpt>
      <trkpt lat="44.16978" lon="6.63282">
        <ele>1579.1</ele>
        <time>2022-09-17T23:21:44Z</time>
      </trkpt>
      <trkpt lat="44.16975" lon="6.63282">
        <ele>1579.1</ele>
        <time>2022-09-17T23:21:45Z</time>
      </trkpt>
      <trkpt lat="44.16971" lon="6.63283">
        <ele>1579.1</ele>
        <time>2022-09-17T23:21:46Z</time>
      </trkpt>
      <trkpt lat="44.16967" lon="6.63285">
        <ele>1579.1</ele>
        <time>2022-09-17T23:21:47Z</time>
      </trkpt>
      <trkpt lat="44.16963" lon="6.63288">
        <ele>1579.1</ele>
        <time>2022-09-17T23:21:49Z</time>
      </trkpt>
      <trkpt lat="44.16959" lon="6.6329">
        <ele>1579.1</ele>
        <time>2022-09-17T23:21:50Z</time>
      </trkpt>
      <trkpt lat="44.16952" lon="6.63294">
        <ele>1579.2</ele>
        <time>2022-09-17T23:21:52Z</time>
      </trkpt>
      <trkpt lat="44.1695" lon="6.63295">
        <ele>1579.2</ele>
        <time>2022-09-17T23:21:53Z</time>
      </trkpt>
      <trkpt lat="44.16947" lon="6.63298">
        <ele>1579.3</ele>
        <time>2022-09-17T23:21:55Z</time>
      </trkpt>
      <trkpt lat="44.16944" lon="6.633">
        <ele>1579.3</ele>
        <time>2022-09-17T23:21:57Z</time>
      </trkpt>
      <trkpt lat="44.16943" lon="6.63301">
        <ele>1579.4</ele>
        <time>2022-09-17T23:21:58Z</time>
      </trkpt>
      <trkpt lat="44.16943" lon="6.63302">
        <ele>1579.4</ele>
        <time>2022-09-17T23:21:59Z</time>
      </trkpt>
      <trkpt lat="44.16943" lon="6.63302">
        <ele>1579.4</ele>
        <time>2022-09-17T23:22:00Z</time>
      </trkpt>
      <trkpt lat="44.16943" lon="6.63302">
        <ele>1579.4</ele>
        <time>2022-09-17T23:22:01Z</time>
      </trkpt>
      <trkpt lat="44.16943" lon="6.63302">
        <ele>1579.4</ele>
        <time>2022-09-17T23:22:02Z</time>
      </trkpt>
      <trkpt lat="44.16943" lon="6.63302">
        <ele>1579.4</ele>
        <time>2022-09-17T23:22:03Z</time>
      </trkpt>
      <trkpt lat="44.16943" lon="6.63303">
        <ele>1579.4</ele>
        <time>2022-09-17T23:22:04Z</time>
      </trkpt>
      <trkpt lat="44.16943" lon="6.63302">
        <ele>1579.4</ele>
        <time>2022-09-17T23:22:05Z</time>
      </trkpt>
      <trkpt lat="44.16943" lon="6.63302">
        <ele>1579.4</ele>
        <time>2022-09-17T23:22:09Z</time>
      </trkpt>
      <trkpt lat="44.16943" lon="6.63302">
        <ele>1579.4</ele>
        <time>2022-09-17T23:22:10Z</time>
      </trkpt>
      <trkpt lat="44.16948" lon="6.63308">
        <ele>1579.6</ele>
        <time>2022-09-17T23:22:57Z</time>
      </trkpt>
      <trkpt lat="44.16949" lon="6.63308">
        <ele>1579.6</ele>
        <time>2022-09-17T23:22:58Z</time>
      </trkpt>
      <trkpt lat="44.16949" lon="6.63307">
        <ele>1579.6</ele>
        <time>2022-09-17T23:22:59Z</time>
      </trkpt>
      <trkpt lat="44.16949" lon="6.63306">
        <ele>1579.6</ele>
        <time>2022-09-17T23:23:00Z</time>
      </trkpt>
      <trkpt lat="44.16949" lon="6.63306">
        <ele>1579.6</ele>
        <time>2022-09-17T23:23:01Z</time>
      </trkpt>
      <trkpt lat="44.16949" lon="6.63305">
        <ele>1579.6</ele>
        <time>2022-09-17T23:23:02Z</time>
      </trkpt>
      <trkpt lat="44.16949" lon="6.63306">
        <ele>1579.7</ele>
        <time>2022-09-17T23:23:03Z</time>
      </trkpt>
      <trkpt lat="44.16949" lon="6.63306">
        <ele>1579.7</ele>
        <time>2022-09-17T23:23:04Z</time>
      </trkpt>
      <trkpt lat="44.16949" lon="6.63305">
        <ele>1579.7</ele>
        <time>2022-09-17T23:23:05Z</time>
      </trkpt>
      <trkpt lat="44.16949" lon="6.63305">
        <ele>1579.7</ele>
        <time>2022-09-17T23:23:06Z</time>
      </trkpt>
      <trkpt lat="44.16948" lon="6.63305">
        <ele>1579.7</ele>
        <time>2022-09-17T23:23:07Z</time>
      </trkpt>
      <trkpt lat="44.16948" lon="6.63305">
        <ele>1579.7</ele>
        <time>2022-09-17T23:23:08Z</time>
      </trkpt>
      <trkpt lat="44.16948" lon="6.63305">
        <ele>1579.7</ele>
        <time>2022-09-17T23:23:09Z</time>
      </trkpt>
      <trkpt lat="44.16947" lon="6.63305">
        <ele>1579.7</ele>
        <time>2022-09-17T23:23:10Z</time>
      </trkpt>
      <trkpt lat="44.16945" lon="6.63306">
        <ele>1579.8</ele>
        <time>2022-09-17T23:24:30Z</time>
      </trkpt>
      <trkpt lat="44.16943" lon="6.63307">
        <ele>1579.8</ele>
        <time>2022-09-17T23:24:31Z</time>
      </trkpt>
      <trkpt lat="44.16941" lon="6.63308">
        <ele>1579.9</ele>
        <time>2022-09-17T23:24:32Z</time>
      </trkpt>
      <trkpt lat="44.1694" lon="6.63309">
        <ele>1579.9</ele>
        <time>2022-09-17T23:24:33Z</time>
      </trkpt>
      <trkpt lat="44.16938" lon="6.6331">
        <ele>1580</ele>
        <time>2022-09-17T23:24:34Z</time>
      </trkpt>
      <trkpt lat="44.16936" lon="6.63312">
        <ele>1580</ele>
        <time>2022-09-17T23:24:35Z</time>
      </trkpt>
      <trkpt lat="44.16935" lon="6.63313">
        <ele>1580.1</ele>
        <time>2022-09-17T23:24:36Z</time>
      </trkpt>
      <trkpt lat="44.16932" lon="6.63316">
        <ele>1580.2</ele>
        <time>2022-09-17T23:24:37Z</time>
      </trkpt>
      <trkpt lat="44.16929" lon="6.63318">
        <ele>1580.3</ele>
        <time>2022-09-17T23:24:38Z</time>
      </trkpt>
      <trkpt lat="44.16927" lon="6.63321">
        <ele>1580.3</ele>
        <time>2022-09-17T23:24:40Z</time>
      </trkpt>
      <trkpt lat="44.16924" lon="6.63324">
        <ele>1580.5</ele>
        <time>2022-09-17T23:24:41Z</time>
      </trkpt>
      <trkpt lat="44.1692" lon="6.63327">
        <ele>1580.6</ele>
        <time>2022-09-17T23:24:43Z</time>
      </trkpt>
      <trkpt lat="44.16917" lon="6.63328">
        <ele>1580.7</ele>
        <time>2022-09-17T23:24:44Z</time>
      </trkpt>
      <trkpt lat="44.16914" lon="6.6333">
        <ele>1580.8</ele>
        <time>2022-09-17T23:24:45Z</time>
      </trkpt>
      <trkpt lat="44.16911" lon="6.63331">
        <ele>1580.9</ele>
        <time>2022-09-17T23:24:46Z</time>
      </trkpt>
      <trkpt lat="44.16908" lon="6.63333">
        <ele>1581</ele>
        <time>2022-09-17T23:24:47Z</time>
      </trkpt>
      <trkpt lat="44.16906" lon="6.63335">
        <ele>1581.1</ele>
        <time>2022-09-17T23:24:48Z</time>
      </trkpt>
      <trkpt lat="44.16903" lon="6.63337">
        <ele>1581.2</ele>
        <time>2022-09-17T23:24:49Z</time>
      </trkpt>
      <trkpt lat="44.169" lon="6.63339">
        <ele>1581.3</ele>
        <time>2022-09-17T23:24:50Z</time>
      </trkpt>
      <trkpt lat="44.16896" lon="6.63342">
        <ele>1581.4</ele>
        <time>2022-09-17T23:24:52Z</time>
      </trkpt>
      <trkpt lat="44.16894" lon="6.63344">
        <ele>1581.5</ele>
        <time>2022-09-17T23:24:53Z</time>
      </trkpt>
      <trkpt lat="44.16892" lon="6.63346">
        <ele>1581.6</ele>
        <time>2022-09-17T23:24:54Z</time>
      </trkpt>
      <trkpt lat="44.16889" lon="6.63349">
        <ele>1581.7</ele>
        <time>2022-09-17T23:24:55Z</time>
      </trkpt>
      <trkpt lat="44.16886" lon="6.63352">
        <ele>1581.8</ele>
        <time>2022-09-17T23:24:56Z</time>
      </trkpt>
      <trkpt lat="44.16885" lon="6.63353">
        <ele>1581.8</ele>
        <time>2022-09-17T23:24:57Z</time>
      </trkpt>
      <trkpt lat="44.16881" lon="6.63358">
        <ele>1582</ele>
        <time>2022-09-17T23:24:59Z</time>
      </trkpt>
      <trkpt lat="44.16878" lon="6.63364">
        <ele>1582.1</ele>
        <time>2022-09-17T23:25:00Z</time>
      </trkpt>
      <trkpt lat="44.16877" lon="6.63366">
        <ele>1582.2</ele>
        <time>2022-09-17T23:25:01Z</time>
      </trkpt>
      <trkpt lat="44.16875" lon="6.63371">
        <ele>1582.3</ele>
        <time>2022-09-17T23:25:02Z</time>
      </trkpt>
      <trkpt lat="44.16875" lon="6.63374">
        <ele>1582.4</ele>
        <time>2022-09-17T23:25:03Z</time>
      </trkpt>
      <trkpt lat="44.16873" lon="6.63378">
        <ele>1582.5</ele>
        <time>2022-09-17T23:25:04Z</time>
      </trkpt>
      <trkpt lat="44.16872" lon="6.63383">
        <ele>1582.6</ele>
        <time>2022-09-17T23:25:06Z</time>
      </trkpt>
      <trkpt lat="44.1687" lon="6.63387">
        <ele>1582.7</ele>
        <time>2022-09-17T23:25:07Z</time>
      </trkpt>
      <trkpt lat="44.16869" lon="6.63391">
        <ele>1582.8</ele>
        <time>2022-09-17T23:25:08Z</time>
      </trkpt>
      <trkpt lat="44.16867" lon="6.63395">
        <ele>1582.9</ele>
        <time>2022-09-17T23:25:09Z</time>
      </trkpt>
      <trkpt lat="44.16865" lon="6.63398">
        <ele>1582.9</ele>
        <time>2022-09-17T23:25:10Z</time>
      </trkpt>
      <trkpt lat="44.16862" lon="6.63401">
        <ele>1583</ele>
        <time>2022-09-17T23:25:11Z</time>
      </trkpt>
      <trkpt lat="44.1686" lon="6.63405">
        <ele>1583.1</ele>
        <time>2022-09-17T23:25:12Z</time>
      </trkpt>
      <trkpt lat="44.16857" lon="6.63409">
        <ele>1583.1</ele>
        <time>2022-09-17T23:25:13Z</time>
      </trkpt>
      <trkpt lat="44.16852" lon="6.63417">
        <ele>1583.2</ele>
        <time>2022-09-17T23:25:15Z</time>
      </trkpt>
      <trkpt lat="44.16849" lon="6.63421">
        <ele>1583.3</ele>
        <time>2022-09-17T23:25:17Z</time>
      </trkpt>
      <trkpt lat="44.16845" lon="6.63426">
        <ele>1583.3</ele>
        <time>2022-09-17T23:25:18Z</time>
      </trkpt>
      <trkpt lat="44.16843" lon="6.63429">
        <ele>1583.4</ele>
        <time>2022-09-17T23:25:19Z</time>
      </trkpt>
      <trkpt lat="44.1684" lon="6.63433">
        <ele>1583.4</ele>
        <time>2022-09-17T23:25:20Z</time>
      </trkpt>
      <trkpt lat="44.16836" lon="6.63439">
        <ele>1583.5</ele>
        <time>2022-09-17T23:25:22Z</time>
      </trkpt>
      <trkpt lat="44.16833" lon="6.63444">
        <ele>1583.6</ele>
        <time>2022-09-17T23:25:23Z</time>
      </trkpt>
      <trkpt lat="44.1683" lon="6.6345">
        <ele>1583.8</ele>
        <time>2022-09-17T23:25:24Z</time>
      </trkpt>
      <trkpt lat="44.16827" lon="6.63453">
        <ele>1583.9</ele>
        <time>2022-09-17T23:25:26Z</time>
      </trkpt>
      <trkpt lat="44.16825" lon="6.63457">
        <ele>1584</ele>
        <time>2022-09-17T23:25:27Z</time>
      </trkpt>
      <trkpt lat="44.16824" lon="6.6346">
        <ele>1584.1</ele>
        <time>2022-09-17T23:25:28Z</time>
      </trkpt>
      <trkpt lat="44.16822" lon="6.63464">
        <ele>1584.2</ele>
        <time>2022-09-17T23:25:29Z</time>
      </trkpt>
      <trkpt lat="44.16819" lon="6.63469">
        <ele>1584.3</ele>
        <time>2022-09-17T23:25:30Z</time>
      </trkpt>
      <trkpt lat="44.16816" lon="6.63474">
        <ele>1584.3</ele>
        <time>2022-09-17T23:25:32Z</time>
      </trkpt>
      <trkpt lat="44.16814" lon="6.63476">
        <ele>1584.4</ele>
        <time>2022-09-17T23:25:33Z</time>
      </trkpt>
      <trkpt lat="44.16811" lon="6.63478">
        <ele>1584.4</ele>
        <time>2022-09-17T23:25:34Z</time>
      </trkpt>
      <trkpt lat="44.16806" lon="6.6348">
        <ele>1584.4</ele>
        <time>2022-09-17T23:25:36Z</time>
      </trkpt>
      <trkpt lat="44.16804" lon="6.63482">
        <ele>1584.4</ele>
        <time>2022-09-17T23:25:37Z</time>
      </trkpt>
      <trkpt lat="44.16801" lon="6.63484">
        <ele>1584.4</ele>
        <time>2022-09-17T23:25:38Z</time>
      </trkpt>
      <trkpt lat="44.16799" lon="6.6349">
        <ele>1584.4</ele>
        <time>2022-09-17T23:25:39Z</time>
      </trkpt>
      <trkpt lat="44.16797" lon="6.63494">
        <ele>1584.5</ele>
        <time>2022-09-17T23:25:40Z</time>
      </trkpt>
      <trkpt lat="44.16795" lon="6.63497">
        <ele>1584.5</ele>
        <time>2022-09-17T23:25:41Z</time>
      </trkpt>
      <trkpt lat="44.16793" lon="6.635">
        <ele>1584.5</ele>
        <time>2022-09-17T23:25:42Z</time>
      </trkpt>
      <trkpt lat="44.16792" lon="6.63504">
        <ele>1584.5</ele>
        <time>2022-09-17T23:25:43Z</time>
      </trkpt>
      <trkpt lat="44.1679" lon="6.6351">
        <ele>1584.6</ele>
        <time>2022-09-17T23:25:44Z</time>
      </trkpt>
      <trkpt lat="44.16789" lon="6.63512">
        <ele>1584.6</ele>
        <time>2022-09-17T23:25:45Z</time>
      </trkpt>
      <trkpt lat="44.16788" lon="6.63517">
        <ele>1584.7</ele>
        <time>2022-09-17T23:25:47Z</time>
      </trkpt>
      <trkpt lat="44.16787" lon="6.63522">
        <ele>1584.7</ele>
        <time>2022-09-17T23:25:48Z</time>
      </trkpt>
      <trkpt lat="44.16786" lon="6.63526">
        <ele>1584.8</ele>
        <time>2022-09-17T23:25:49Z</time>
      </trkpt>
      <trkpt lat="44.16785" lon="6.63533">
        <ele>1584.9</ele>
        <time>2022-09-17T23:25:50Z</time>
      </trkpt>
      <trkpt lat="44.16784" lon="6.63536">
        <ele>1585</ele>
        <time>2022-09-17T23:25:51Z</time>
      </trkpt>
      <trkpt lat="44.16783" lon="6.63541">
        <ele>1585.1</ele>
        <time>2022-09-17T23:25:53Z</time>
      </trkpt>
      <trkpt lat="44.16781" lon="6.63545">
        <ele>1585.3</ele>
        <time>2022-09-17T23:25:54Z</time>
      </trkpt>
      <trkpt lat="44.1678" lon="6.63546">
        <ele>1585.3</ele>
        <time>2022-09-17T23:25:55Z</time>
      </trkpt>
      <trkpt lat="44.16778" lon="6.6355">
        <ele>1585.4</ele>
        <time>2022-09-17T23:25:56Z</time>
      </trkpt>
      <trkpt lat="44.16777" lon="6.63552">
        <ele>1585.5</ele>
        <time>2022-09-17T23:25:57Z</time>
      </trkpt>
      <trkpt lat="44.16775" lon="6.63556">
        <ele>1585.6</ele>
        <time>2022-09-17T23:25:58Z</time>
      </trkpt>
      <trkpt lat="44.16773" lon="6.63561">
        <ele>1585.8</ele>
        <time>2022-09-17T23:25:59Z</time>
      </trkpt>
      <trkpt lat="44.1677" lon="6.63566">
        <ele>1586</ele>
        <time>2022-09-17T23:26:01Z</time>
      </trkpt>
      <trkpt lat="44.16769" lon="6.63568">
        <ele>1586</ele>
        <time>2022-09-17T23:26:02Z</time>
      </trkpt>
      <trkpt lat="44.16767" lon="6.6357">
        <ele>1586.1</ele>
        <time>2022-09-17T23:26:03Z</time>
      </trkpt>
      <trkpt lat="44.16766" lon="6.63573">
        <ele>1586.2</ele>
        <time>2022-09-17T23:26:04Z</time>
      </trkpt>
      <trkpt lat="44.16763" lon="6.63577">
        <ele>1586.3</ele>
        <time>2022-09-17T23:26:05Z</time>
      </trkpt>
      <trkpt lat="44.16761" lon="6.63581">
        <ele>1586.4</ele>
        <time>2022-09-17T23:26:06Z</time>
      </trkpt>
      <trkpt lat="44.16758" lon="6.63586">
        <ele>1586.5</ele>
        <time>2022-09-17T23:26:08Z</time>
      </trkpt>
      <trkpt lat="44.16757" lon="6.63588">
        <ele>1586.6</ele>
        <time>2022-09-17T23:26:09Z</time>
      </trkpt>
      <trkpt lat="44.16756" lon="6.6359">
        <ele>1586.6</ele>
        <time>2022-09-17T23:26:10Z</time>
      </trkpt>
      <trkpt lat="44.16755" lon="6.63593">
        <ele>1586.7</ele>
        <time>2022-09-17T23:26:11Z</time>
      </trkpt>
      <trkpt lat="44.16753" lon="6.63598">
        <ele>1586.8</ele>
        <time>2022-09-17T23:26:12Z</time>
      </trkpt>
      <trkpt lat="44.16752" lon="6.63603">
        <ele>1586.9</ele>
        <time>2022-09-17T23:26:13Z</time>
      </trkpt>
      <trkpt lat="44.16751" lon="6.63607">
        <ele>1587</ele>
        <time>2022-09-17T23:26:15Z</time>
      </trkpt>
      <trkpt lat="44.16749" lon="6.6361">
        <ele>1587.1</ele>
        <time>2022-09-17T23:26:16Z</time>
      </trkpt>
      <trkpt lat="44.16747" lon="6.63614">
        <ele>1587.2</ele>
        <time>2022-09-17T23:26:17Z</time>
      </trkpt>
      <trkpt lat="44.16745" lon="6.63618">
        <ele>1587.2</ele>
        <time>2022-09-17T23:26:18Z</time>
      </trkpt>
      <trkpt lat="44.16743" lon="6.63621">
        <ele>1587.3</ele>
        <time>2022-09-17T23:26:19Z</time>
      </trkpt>
      <trkpt lat="44.16741" lon="6.63626">
        <ele>1587.4</ele>
        <time>2022-09-17T23:26:20Z</time>
      </trkpt>
      <trkpt lat="44.16739" lon="6.63631">
        <ele>1587.5</ele>
        <time>2022-09-17T23:26:22Z</time>
      </trkpt>
      <trkpt lat="44.16737" lon="6.63635">
        <ele>1587.5</ele>
        <time>2022-09-17T23:26:23Z</time>
      </trkpt>
      <trkpt lat="44.16736" lon="6.63641">
        <ele>1587.6</ele>
        <time>2022-09-17T23:26:25Z</time>
      </trkpt>
      <trkpt lat="44.16735" lon="6.63645">
        <ele>1587.7</ele>
        <time>2022-09-17T23:26:26Z</time>
      </trkpt>
      <trkpt lat="44.16734" lon="6.63649">
        <ele>1587.7</ele>
        <time>2022-09-17T23:26:27Z</time>
      </trkpt>
      <trkpt lat="44.16732" lon="6.63655">
        <ele>1587.8</ele>
        <time>2022-09-17T23:26:28Z</time>
      </trkpt>
      <trkpt lat="44.16732" lon="6.6366">
        <ele>1587.9</ele>
        <time>2022-09-17T23:26:30Z</time>
      </trkpt>
      <trkpt lat="44.16731" lon="6.63665">
        <ele>1588</ele>
        <time>2022-09-17T23:26:31Z</time>
      </trkpt>
      <trkpt lat="44.16731" lon="6.6367">
        <ele>1588</ele>
        <time>2022-09-17T23:26:32Z</time>
      </trkpt>
      <trkpt lat="44.1673" lon="6.63674">
        <ele>1588.1</ele>
        <time>2022-09-17T23:26:33Z</time>
      </trkpt>
      <trkpt lat="44.16729" lon="6.63678">
        <ele>1588.1</ele>
        <time>2022-09-17T23:26:34Z</time>
      </trkpt>
      <trkpt lat="44.16729" lon="6.63683">
        <ele>1588.2</ele>
        <time>2022-09-17T23:26:35Z</time>
      </trkpt>
      <trkpt lat="44.16728" lon="6.63689">
        <ele>1588.3</ele>
        <time>2022-09-17T23:26:37Z</time>
      </trkpt>
      <trkpt lat="44.16727" lon="6.63693">
        <ele>1588.3</ele>
        <time>2022-09-17T23:26:38Z</time>
      </trkpt>
      <trkpt lat="44.16727" lon="6.63698">
        <ele>1588.4</ele>
        <time>2022-09-17T23:26:39Z</time>
      </trkpt>
      <trkpt lat="44.16725" lon="6.63702">
        <ele>1588.5</ele>
        <time>2022-09-17T23:26:40Z</time>
      </trkpt>
      <trkpt lat="44.16724" lon="6.63707">
        <ele>1588.6</ele>
        <time>2022-09-17T23:26:41Z</time>
      </trkpt>
      <trkpt lat="44.16723" lon="6.63713">
        <ele>1588.7</ele>
        <time>2022-09-17T23:26:43Z</time>
      </trkpt>
      <trkpt lat="44.16722" lon="6.6372">
        <ele>1588.9</ele>
        <time>2022-09-17T23:26:44Z</time>
      </trkpt>
      <trkpt lat="44.16722" lon="6.63725">
        <ele>1589</ele>
        <time>2022-09-17T23:26:46Z</time>
      </trkpt>
      <trkpt lat="44.16723" lon="6.6373">
        <ele>1589.1</ele>
        <time>2022-09-17T23:26:47Z</time>
      </trkpt>
      <trkpt lat="44.16724" lon="6.63734">
        <ele>1589.2</ele>
        <time>2022-09-17T23:26:48Z</time>
      </trkpt>
      <trkpt lat="44.16725" lon="6.63738">
        <ele>1589.3</ele>
        <time>2022-09-17T23:26:49Z</time>
      </trkpt>
      <trkpt lat="44.16725" lon="6.63743">
        <ele>1589.4</ele>
        <time>2022-09-17T23:26:50Z</time>
      </trkpt>
      <trkpt lat="44.16726" lon="6.63748">
        <ele>1589.6</ele>
        <time>2022-09-17T23:26:52Z</time>
      </trkpt>
      <trkpt lat="44.16725" lon="6.63752">
        <ele>1589.7</ele>
        <time>2022-09-17T23:26:53Z</time>
      </trkpt>
      <trkpt lat="44.16724" lon="6.63756">
        <ele>1589.8</ele>
        <time>2022-09-17T23:26:54Z</time>
      </trkpt>
      <trkpt lat="44.16723" lon="6.63761">
        <ele>1589.9</ele>
        <time>2022-09-17T23:26:55Z</time>
      </trkpt>
      <trkpt lat="44.16722" lon="6.63766">
        <ele>1590</ele>
        <time>2022-09-17T23:26:56Z</time>
      </trkpt>
      <trkpt lat="44.1672" lon="6.63772">
        <ele>1590.2</ele>
        <time>2022-09-17T23:26:57Z</time>
      </trkpt>
      <trkpt lat="44.16718" lon="6.63777">
        <ele>1590.3</ele>
        <time>2022-09-17T23:26:58Z</time>
      </trkpt>
      <trkpt lat="44.16717" lon="6.63782">
        <ele>1590.5</ele>
        <time>2022-09-17T23:27:00Z</time>
      </trkpt>
      <trkpt lat="44.16715" lon="6.6379">
        <ele>1590.7</ele>
        <time>2022-09-17T23:27:01Z</time>
      </trkpt>
      <trkpt lat="44.16714" lon="6.63794">
        <ele>1590.8</ele>
        <time>2022-09-17T23:27:03Z</time>
      </trkpt>
      <trkpt lat="44.16713" lon="6.63798">
        <ele>1590.9</ele>
        <time>2022-09-17T23:27:04Z</time>
      </trkpt>
      <trkpt lat="44.16712" lon="6.63802">
        <ele>1591</ele>
        <time>2022-09-17T23:27:05Z</time>
      </trkpt>
      <trkpt lat="44.16711" lon="6.63806">
        <ele>1591.2</ele>
        <time>2022-09-17T23:27:06Z</time>
      </trkpt>
      <trkpt lat="44.16708" lon="6.63811">
        <ele>1591.3</ele>
        <time>2022-09-17T23:27:07Z</time>
      </trkpt>
      <trkpt lat="44.16707" lon="6.63815">
        <ele>1591.5</ele>
        <time>2022-09-17T23:27:08Z</time>
      </trkpt>
      <trkpt lat="44.16706" lon="6.63822">
        <ele>1591.7</ele>
        <time>2022-09-17T23:27:09Z</time>
      </trkpt>
      <trkpt lat="44.16704" lon="6.63826">
        <ele>1591.9</ele>
        <time>2022-09-17T23:27:11Z</time>
      </trkpt>
      <trkpt lat="44.16702" lon="6.63831">
        <ele>1592</ele>
        <time>2022-09-17T23:27:12Z</time>
      </trkpt>
      <trkpt lat="44.16701" lon="6.63835">
        <ele>1592.2</ele>
        <time>2022-09-17T23:27:13Z</time>
      </trkpt>
      <trkpt lat="44.16699" lon="6.63842">
        <ele>1592.5</ele>
        <time>2022-09-17T23:27:14Z</time>
      </trkpt>
      <trkpt lat="44.16698" lon="6.63847">
        <ele>1592.8</ele>
        <time>2022-09-17T23:27:16Z</time>
      </trkpt>
      <trkpt lat="44.16697" lon="6.63852">
        <ele>1593</ele>
        <time>2022-09-17T23:27:17Z</time>
      </trkpt>
      <trkpt lat="44.16696" lon="6.63856">
        <ele>1593.2</ele>
        <time>2022-09-17T23:27:18Z</time>
      </trkpt>
      <trkpt lat="44.16693" lon="6.63863">
        <ele>1593.7</ele>
        <time>2022-09-17T23:27:19Z</time>
      </trkpt>
      <trkpt lat="44.1669" lon="6.63869">
        <ele>1594.1</ele>
        <time>2022-09-17T23:27:21Z</time>
      </trkpt>
      <trkpt lat="44.16687" lon="6.63873">
        <ele>1594.4</ele>
        <time>2022-09-17T23:27:22Z</time>
      </trkpt>
      <trkpt lat="44.16684" lon="6.63878">
        <ele>1594.8</ele>
        <time>2022-09-17T23:27:23Z</time>
      </trkpt>
      <trkpt lat="44.16681" lon="6.63883">
        <ele>1595.3</ele>
        <time>2022-09-17T23:27:24Z</time>
      </trkpt>
      <trkpt lat="44.16679" lon="6.63887">
        <ele>1595.6</ele>
        <time>2022-09-17T23:27:25Z</time>
      </trkpt>
      <trkpt lat="44.16676" lon="6.63893">
        <ele>1596.1</ele>
        <time>2022-09-17T23:27:27Z</time>
      </trkpt>
      <trkpt lat="44.16674" lon="6.63897">
        <ele>1596.5</ele>
        <time>2022-09-17T23:27:28Z</time>
      </trkpt>
      <trkpt lat="44.16671" lon="6.63902">
        <ele>1597</ele>
        <time>2022-09-17T23:27:29Z</time>
      </trkpt>
      <trkpt lat="44.16667" lon="6.63907">
        <ele>1597.5</ele>
        <time>2022-09-17T23:27:31Z</time>
      </trkpt>
      <trkpt lat="44.16664" lon="6.6391">
        <ele>1597.9</ele>
        <time>2022-09-17T23:27:32Z</time>
      </trkpt>
      <trkpt lat="44.16662" lon="6.63913">
        <ele>1598.2</ele>
        <time>2022-09-17T23:27:33Z</time>
      </trkpt>
      <trkpt lat="44.16658" lon="6.63917">
        <ele>1598.6</ele>
        <time>2022-09-17T23:27:34Z</time>
      </trkpt>
      <trkpt lat="44.16655" lon="6.63919">
        <ele>1598.9</ele>
        <time>2022-09-17T23:27:35Z</time>
      </trkpt>
      <trkpt lat="44.1665" lon="6.63923">
        <ele>1599.4</ele>
        <time>2022-09-17T23:27:37Z</time>
      </trkpt>
      <trkpt lat="44.16642" lon="6.6393">
        <ele>1600.1</ele>
        <time>2022-09-17T23:27:40Z</time>
      </trkpt>
      <trkpt lat="44.16646" lon="6.63931">
        <ele>1600.3</ele>
        <time>2022-09-17T23:27:41Z</time>
      </trkpt>
      <trkpt lat="44.16646" lon="6.63934">
        <ele>1600.5</ele>
        <time>2022-09-17T23:27:42Z</time>
      </trkpt>
      <trkpt lat="44.1664" lon="6.63938">
        <ele>1601.1</ele>
        <time>2022-09-17T23:27:44Z</time>
      </trkpt>
      <trkpt lat="44.16637" lon="6.63942">
        <ele>1601.9</ele>
        <time>2022-09-17T23:27:45Z</time>
      </trkpt>
      <trkpt lat="44.16634" lon="6.63946">
        <ele>1602.3</ele>
        <time>2022-09-17T23:27:46Z</time>
      </trkpt>
      <trkpt lat="44.16633" lon="6.63951">
        <ele>1602.7</ele>
        <time>2022-09-17T23:27:47Z</time>
      </trkpt>
      <trkpt lat="44.16632" lon="6.63955">
        <ele>1603</ele>
        <time>2022-09-17T23:27:48Z</time>
      </trkpt>
      <trkpt lat="44.16632" lon="6.63961">
        <ele>1603.6</ele>
        <time>2022-09-17T23:27:50Z</time>
      </trkpt>
      <trkpt lat="44.16631" lon="6.63967">
        <ele>1604</ele>
        <time>2022-09-17T23:27:51Z</time>
      </trkpt>
      <trkpt lat="44.1663" lon="6.63969">
        <ele>1604.2</ele>
        <time>2022-09-17T23:27:52Z</time>
      </trkpt>
      <trkpt lat="44.1663" lon="6.63975">
        <ele>1604.6</ele>
        <time>2022-09-17T23:27:53Z</time>
      </trkpt>
      <trkpt lat="44.16629" lon="6.63978">
        <ele>1604.9</ele>
        <time>2022-09-17T23:27:54Z</time>
      </trkpt>
      <trkpt lat="44.16628" lon="6.63983">
        <ele>1605.3</ele>
        <time>2022-09-17T23:27:55Z</time>
      </trkpt>
      <trkpt lat="44.16627" lon="6.63989">
        <ele>1605.9</ele>
        <time>2022-09-17T23:27:57Z</time>
      </trkpt>
      <trkpt lat="44.16626" lon="6.63993">
        <ele>1606.3</ele>
        <time>2022-09-17T23:27:58Z</time>
      </trkpt>
      <trkpt lat="44.16624" lon="6.63997">
        <ele>1606.8</ele>
        <time>2022-09-17T23:27:59Z</time>
      </trkpt>
      <trkpt lat="44.16622" lon="6.64001">
        <ele>1607.2</ele>
        <time>2022-09-17T23:28:00Z</time>
      </trkpt>
      <trkpt lat="44.1662" lon="6.64004">
        <ele>1607.6</ele>
        <time>2022-09-17T23:28:02Z</time>
      </trkpt>
      <trkpt lat="44.16618" lon="6.64007">
        <ele>1608</ele>
        <time>2022-09-17T23:28:03Z</time>
      </trkpt>
      <trkpt lat="44.16615" lon="6.64012">
        <ele>1608.6</ele>
        <time>2022-09-17T23:28:04Z</time>
      </trkpt>
      <trkpt lat="44.16612" lon="6.64017">
        <ele>1609.2</ele>
        <time>2022-09-17T23:28:06Z</time>
      </trkpt>
      <trkpt lat="44.16611" lon="6.64018">
        <ele>1609.4</ele>
        <time>2022-09-17T23:28:07Z</time>
      </trkpt>
      <trkpt lat="44.16609" lon="6.64019">
        <ele>1609.7</ele>
        <time>2022-09-17T23:28:08Z</time>
      </trkpt>
      <trkpt lat="44.16606" lon="6.64022">
        <ele>1610.1</ele>
        <time>2022-09-17T23:28:09Z</time>
      </trkpt>
      <trkpt lat="44.16604" lon="6.64024">
        <ele>1610.5</ele>
        <time>2022-09-17T23:28:10Z</time>
      </trkpt>
      <trkpt lat="44.16601" lon="6.64025">
        <ele>1610.9</ele>
        <time>2022-09-17T23:28:11Z</time>
      </trkpt>
      <trkpt lat="44.16598" lon="6.64028">
        <ele>1611.4</ele>
        <time>2022-09-17T23:28:13Z</time>
      </trkpt>
      <trkpt lat="44.16594" lon="6.64029">
        <ele>1611.8</ele>
        <time>2022-09-17T23:28:14Z</time>
      </trkpt>
      <trkpt lat="44.1659" lon="6.64032">
        <ele>1612.4</ele>
        <time>2022-09-17T23:28:16Z</time>
      </trkpt>
      <trkpt lat="44.16585" lon="6.64035">
        <ele>1612.9</ele>
        <time>2022-09-17T23:28:17Z</time>
      </trkpt>
      <trkpt lat="44.16582" lon="6.64035">
        <ele>1613.2</ele>
        <time>2022-09-17T23:28:18Z</time>
      </trkpt>
      <trkpt lat="44.16578" lon="6.64036">
        <ele>1613.6</ele>
        <time>2022-09-17T23:28:20Z</time>
      </trkpt>
      <trkpt lat="44.16575" lon="6.64037">
        <ele>1614</ele>
        <time>2022-09-17T23:28:21Z</time>
      </trkpt>
      <trkpt lat="44.16571" lon="6.64039">
        <ele>1614.4</ele>
        <time>2022-09-17T23:28:22Z</time>
      </trkpt>
      <trkpt lat="44.16568" lon="6.6404">
        <ele>1614.7</ele>
        <time>2022-09-17T23:28:23Z</time>
      </trkpt>
      <trkpt lat="44.16563" lon="6.6404">
        <ele>1615.1</ele>
        <time>2022-09-17T23:28:25Z</time>
      </trkpt>
      <trkpt lat="44.16558" lon="6.64041">
        <ele>1615.5</ele>
        <time>2022-09-17T23:28:26Z</time>
      </trkpt>
      <trkpt lat="44.16555" lon="6.64041">
        <ele>1615.8</ele>
        <time>2022-09-17T23:28:27Z</time>
      </trkpt>
      <trkpt lat="44.16552" lon="6.64042">
        <ele>1616</ele>
        <time>2022-09-17T23:28:28Z</time>
      </trkpt>
      <trkpt lat="44.16546" lon="6.64042">
        <ele>1616.5</ele>
        <time>2022-09-17T23:28:30Z</time>
      </trkpt>
      <trkpt lat="44.16544" lon="6.64043">
        <ele>1616.7</ele>
        <time>2022-09-17T23:28:31Z</time>
      </trkpt>
      <trkpt lat="44.16542" lon="6.64044">
        <ele>1616.8</ele>
        <time>2022-09-17T23:28:32Z</time>
      </trkpt>
      <trkpt lat="44.16539" lon="6.64046">
        <ele>1617.1</ele>
        <time>2022-09-17T23:28:33Z</time>
      </trkpt>
      <trkpt lat="44.16535" lon="6.64049">
        <ele>1617.3</ele>
        <time>2022-09-17T23:28:34Z</time>
      </trkpt>
      <trkpt lat="44.16532" lon="6.64054">
        <ele>1617.6</ele>
        <time>2022-09-17T23:28:36Z</time>
      </trkpt>
      <trkpt lat="44.16528" lon="6.64061">
        <ele>1617.9</ele>
        <time>2022-09-17T23:28:38Z</time>
      </trkpt>
      <trkpt lat="44.16526" lon="6.64065">
        <ele>1618</ele>
        <time>2022-09-17T23:28:39Z</time>
      </trkpt>
      <trkpt lat="44.16525" lon="6.6407">
        <ele>1618.1</ele>
        <time>2022-09-17T23:28:40Z</time>
      </trkpt>
      <trkpt lat="44.16523" lon="6.64074">
        <ele>1618.2</ele>
        <time>2022-09-17T23:28:41Z</time>
      </trkpt>
      <trkpt lat="44.16521" lon="6.64078">
        <ele>1618.4</ele>
        <time>2022-09-17T23:28:42Z</time>
      </trkpt>
      <trkpt lat="44.16519" lon="6.64082">
        <ele>1618.5</ele>
        <time>2022-09-17T23:28:43Z</time>
      </trkpt>
      <trkpt lat="44.16515" lon="6.64087">
        <ele>1618.7</ele>
        <time>2022-09-17T23:28:44Z</time>
      </trkpt>
      <trkpt lat="44.16511" lon="6.64091">
        <ele>1618.9</ele>
        <time>2022-09-17T23:28:45Z</time>
      </trkpt>
      <trkpt lat="44.16507" lon="6.64095">
        <ele>1619.1</ele>
        <time>2022-09-17T23:28:47Z</time>
      </trkpt>
      <trkpt lat="44.16504" lon="6.64097">
        <ele>1619.3</ele>
        <time>2022-09-17T23:28:48Z</time>
      </trkpt>
      <trkpt lat="44.16499" lon="6.64102">
        <ele>1619.6</ele>
        <time>2022-09-17T23:28:49Z</time>
      </trkpt>
      <trkpt lat="44.16495" lon="6.64104">
        <ele>1619.8</ele>
        <time>2022-09-17T23:28:51Z</time>
      </trkpt>
      <trkpt lat="44.16492" lon="6.64106">
        <ele>1619.9</ele>
        <time>2022-09-17T23:28:52Z</time>
      </trkpt>
      <trkpt lat="44.16487" lon="6.64109">
        <ele>1620.2</ele>
        <time>2022-09-17T23:28:53Z</time>
      </trkpt>
      <trkpt lat="44.16484" lon="6.64111">
        <ele>1620.4</ele>
        <time>2022-09-17T23:28:54Z</time>
      </trkpt>
      <trkpt lat="44.16482" lon="6.64115">
        <ele>1620.6</ele>
        <time>2022-09-17T23:28:56Z</time>
      </trkpt>
      <trkpt lat="44.16479" lon="6.64118">
        <ele>1620.7</ele>
        <time>2022-09-17T23:28:57Z</time>
      </trkpt>
      <trkpt lat="44.16477" lon="6.64122">
        <ele>1620.9</ele>
        <time>2022-09-17T23:28:58Z</time>
      </trkpt>
      <trkpt lat="44.16475" lon="6.64126">
        <ele>1621.1</ele>
        <time>2022-09-17T23:28:59Z</time>
      </trkpt>
      <trkpt lat="44.16471" lon="6.64131">
        <ele>1621.3</ele>
        <time>2022-09-17T23:29:00Z</time>
      </trkpt>
      <trkpt lat="44.16468" lon="6.64134">
        <ele>1621.5</ele>
        <time>2022-09-17T23:29:01Z</time>
      </trkpt>
      <trkpt lat="44.16465" lon="6.64139">
        <ele>1621.7</ele>
        <time>2022-09-17T23:29:02Z</time>
      </trkpt>
      <trkpt lat="44.16461" lon="6.64143">
        <ele>1621.9</ele>
        <time>2022-09-17T23:29:04Z</time>
      </trkpt>
      <trkpt lat="44.16457" lon="6.64147">
        <ele>1622.1</ele>
        <time>2022-09-17T23:29:05Z</time>
      </trkpt>
      <trkpt lat="44.16454" lon="6.6415">
        <ele>1622.3</ele>
        <time>2022-09-17T23:29:06Z</time>
      </trkpt>
      <trkpt lat="44.16451" lon="6.64153">
        <ele>1622.4</ele>
        <time>2022-09-17T23:29:07Z</time>
      </trkpt>
      <trkpt lat="44.16449" lon="6.64157">
        <ele>1622.6</ele>
        <time>2022-09-17T23:29:08Z</time>
      </trkpt>
      <trkpt lat="44.16446" lon="6.6416">
        <ele>1622.7</ele>
        <time>2022-09-17T23:29:09Z</time>
      </trkpt>
      <trkpt lat="44.16444" lon="6.64165">
        <ele>1622.8</ele>
        <time>2022-09-17T23:29:10Z</time>
      </trkpt>
      <trkpt lat="44.16441" lon="6.64169">
        <ele>1622.9</ele>
        <time>2022-09-17T23:29:11Z</time>
      </trkpt>
      <trkpt lat="44.16437" lon="6.64174">
        <ele>1623.1</ele>
        <time>2022-09-17T23:29:12Z</time>
      </trkpt>
      <trkpt lat="44.16434" lon="6.6418">
        <ele>1623.2</ele>
        <time>2022-09-17T23:29:13Z</time>
      </trkpt>
      <trkpt lat="44.1643" lon="6.64186">
        <ele>1623.4</ele>
        <time>2022-09-17T23:29:15Z</time>
      </trkpt>
      <trkpt lat="44.16427" lon="6.64192">
        <ele>1623.5</ele>
        <time>2022-09-17T23:29:16Z</time>
      </trkpt>
      <trkpt lat="44.16424" lon="6.64196">
        <ele>1623.7</ele>
        <time>2022-09-17T23:29:17Z</time>
      </trkpt>
      <trkpt lat="44.1642" lon="6.64202">
        <ele>1623.9</ele>
        <time>2022-09-17T23:29:18Z</time>
      </trkpt>
      <trkpt lat="44.16416" lon="6.64209">
        <ele>1624.1</ele>
        <time>2022-09-17T23:29:20Z</time>
      </trkpt>
      <trkpt lat="44.16411" lon="6.64217">
        <ele>1624.3</ele>
        <time>2022-09-17T23:29:21Z</time>
      </trkpt>
      <trkpt lat="44.16409" lon="6.64222">
        <ele>1624.4</ele>
        <time>2022-09-17T23:29:22Z</time>
      </trkpt>
      <trkpt lat="44.16407" lon="6.64228">
        <ele>1624.5</ele>
        <time>2022-09-17T23:29:23Z</time>
      </trkpt>
      <trkpt lat="44.16404" lon="6.64233">
        <ele>1624.7</ele>
        <time>2022-09-17T23:29:24Z</time>
      </trkpt>
      <trkpt lat="44.16402" lon="6.64239">
        <ele>1624.8</ele>
        <time>2022-09-17T23:29:26Z</time>
      </trkpt>
      <trkpt lat="44.164" lon="6.64244">
        <ele>1625</ele>
        <time>2022-09-17T23:29:27Z</time>
      </trkpt>
      <trkpt lat="44.16398" lon="6.64248">
        <ele>1625.1</ele>
        <time>2022-09-17T23:29:28Z</time>
      </trkpt>
      <trkpt lat="44.16396" lon="6.64252">
        <ele>1625.3</ele>
        <time>2022-09-17T23:29:29Z</time>
      </trkpt>
      <trkpt lat="44.16394" lon="6.64256">
        <ele>1625.4</ele>
        <time>2022-09-17T23:29:30Z</time>
      </trkpt>
      <trkpt lat="44.16391" lon="6.64262">
        <ele>1625.6</ele>
        <time>2022-09-17T23:29:31Z</time>
      </trkpt>
      <trkpt lat="44.16388" lon="6.64267">
        <ele>1625.8</ele>
        <time>2022-09-17T23:29:32Z</time>
      </trkpt>
      <trkpt lat="44.16386" lon="6.64273">
        <ele>1626</ele>
        <time>2022-09-17T23:29:34Z</time>
      </trkpt>
      <trkpt lat="44.16384" lon="6.64277">
        <ele>1626.1</ele>
        <time>2022-09-17T23:29:35Z</time>
      </trkpt>
      <trkpt lat="44.16381" lon="6.64283">
        <ele>1626.3</ele>
        <time>2022-09-17T23:29:36Z</time>
      </trkpt>
      <trkpt lat="44.1638" lon="6.64289">
        <ele>1626.5</ele>
        <time>2022-09-17T23:29:37Z</time>
      </trkpt>
      <trkpt lat="44.16379" lon="6.64295">
        <ele>1626.6</ele>
        <time>2022-09-17T23:29:38Z</time>
      </trkpt>
      <trkpt lat="44.16378" lon="6.64301">
        <ele>1626.8</ele>
        <time>2022-09-17T23:29:39Z</time>
      </trkpt>
      <trkpt lat="44.16377" lon="6.64306">
        <ele>1627</ele>
        <time>2022-09-17T23:29:40Z</time>
      </trkpt>
      <trkpt lat="44.16376" lon="6.64312">
        <ele>1627.2</ele>
        <time>2022-09-17T23:29:41Z</time>
      </trkpt>
      <trkpt lat="44.16375" lon="6.64318">
        <ele>1627.4</ele>
        <time>2022-09-17T23:29:42Z</time>
      </trkpt>
      <trkpt lat="44.16374" lon="6.64325">
        <ele>1627.6</ele>
        <time>2022-09-17T23:29:43Z</time>
      </trkpt>
      <trkpt lat="44.16373" lon="6.6433">
        <ele>1627.8</ele>
        <time>2022-09-17T23:29:45Z</time>
      </trkpt>
      <trkpt lat="44.1637" lon="6.6434">
        <ele>1628</ele>
        <time>2022-09-17T23:29:46Z</time>
      </trkpt>
      <trkpt lat="44.16367" lon="6.64348">
        <ele>1628.3</ele>
        <time>2022-09-17T23:29:48Z</time>
      </trkpt>
      <trkpt lat="44.16365" lon="6.64354">
        <ele>1628.4</ele>
        <time>2022-09-17T23:29:49Z</time>
      </trkpt>
      <trkpt lat="44.16361" lon="6.64361">
        <ele>1628.7</ele>
        <time>2022-09-17T23:29:50Z</time>
      </trkpt>
      <trkpt lat="44.16357" lon="6.64372">
        <ele>1629</ele>
        <time>2022-09-17T23:29:52Z</time>
      </trkpt>
      <trkpt lat="44.16355" lon="6.64377">
        <ele>1629.2</ele>
        <time>2022-09-17T23:29:54Z</time>
      </trkpt>
      <trkpt lat="44.16353" lon="6.64382">
        <ele>1629.4</ele>
        <time>2022-09-17T23:29:55Z</time>
      </trkpt>
      <trkpt lat="44.16352" lon="6.64387">
        <ele>1629.5</ele>
        <time>2022-09-17T23:29:56Z</time>
      </trkpt>
      <trkpt lat="44.1635" lon="6.64393">
        <ele>1629.6</ele>
        <time>2022-09-17T23:29:57Z</time>
      </trkpt>
      <trkpt lat="44.16349" lon="6.64399">
        <ele>1629.8</ele>
        <time>2022-09-17T23:29:58Z</time>
      </trkpt>
      <trkpt lat="44.16348" lon="6.64403">
        <ele>1629.9</ele>
        <time>2022-09-17T23:29:59Z</time>
      </trkpt>
      <trkpt lat="44.16348" lon="6.64409">
        <ele>1630</ele>
        <time>2022-09-17T23:30:00Z</time>
      </trkpt>
      <trkpt lat="44.16346" lon="6.64417">
        <ele>1630.2</ele>
        <time>2022-09-17T23:30:01Z</time>
      </trkpt>
      <trkpt lat="44.16344" lon="6.64422">
        <ele>1630.3</ele>
        <time>2022-09-17T23:30:02Z</time>
      </trkpt>
      <trkpt lat="44.16341" lon="6.64427">
        <ele>1630.5</ele>
        <time>2022-09-17T23:30:03Z</time>
      </trkpt>
      <trkpt lat="44.16338" lon="6.64432">
        <ele>1630.6</ele>
        <time>2022-09-17T23:30:04Z</time>
      </trkpt>
      <trkpt lat="44.16336" lon="6.64436">
        <ele>1630.7</ele>
        <time>2022-09-17T23:30:05Z</time>
      </trkpt>
      <trkpt lat="44.16334" lon="6.6444">
        <ele>1630.9</ele>
        <time>2022-09-17T23:30:06Z</time>
      </trkpt>
      <trkpt lat="44.16332" lon="6.64446">
        <ele>1631</ele>
        <time>2022-09-17T23:30:08Z</time>
      </trkpt>
      <trkpt lat="44.16331" lon="6.64451">
        <ele>1631.1</ele>
        <time>2022-09-17T23:30:09Z</time>
      </trkpt>
      <trkpt lat="44.1633" lon="6.64455">
        <ele>1631.3</ele>
        <time>2022-09-17T23:30:10Z</time>
      </trkpt>
      <trkpt lat="44.16328" lon="6.64461">
        <ele>1631.4</ele>
        <time>2022-09-17T23:30:11Z</time>
      </trkpt>
      <trkpt lat="44.16326" lon="6.64466">
        <ele>1631.6</ele>
        <time>2022-09-17T23:30:12Z</time>
      </trkpt>
      <trkpt lat="44.16323" lon="6.64472">
        <ele>1631.7</ele>
        <time>2022-09-17T23:30:14Z</time>
      </trkpt>
      <trkpt lat="44.16322" lon="6.64476">
        <ele>1631.9</ele>
        <time>2022-09-17T23:30:15Z</time>
      </trkpt>
      <trkpt lat="44.1632" lon="6.64481">
        <ele>1632</ele>
        <time>2022-09-17T23:30:16Z</time>
      </trkpt>
      <trkpt lat="44.16319" lon="6.64486">
        <ele>1632.1</ele>
        <time>2022-09-17T23:30:17Z</time>
      </trkpt>
      <trkpt lat="44.16317" lon="6.64491">
        <ele>1632.2</ele>
        <time>2022-09-17T23:30:18Z</time>
      </trkpt>
      <trkpt lat="44.16315" lon="6.64496">
        <ele>1632.3</ele>
        <time>2022-09-17T23:30:19Z</time>
      </trkpt>
      <trkpt lat="44.16311" lon="6.64501">
        <ele>1632.4</ele>
        <time>2022-09-17T23:30:20Z</time>
      </trkpt>
      <trkpt lat="44.16309" lon="6.64506">
        <ele>1632.6</ele>
        <time>2022-09-17T23:30:21Z</time>
      </trkpt>
      <trkpt lat="44.16306" lon="6.64507">
        <ele>1632.7</ele>
        <time>2022-09-17T23:30:22Z</time>
      </trkpt>
      <trkpt lat="44.16304" lon="6.64507">
        <ele>1632.7</ele>
        <time>2022-09-17T23:30:23Z</time>
      </trkpt>
      <trkpt lat="44.16301" lon="6.64511">
        <ele>1632.8</ele>
        <time>2022-09-17T23:30:24Z</time>
      </trkpt>
      <trkpt lat="44.16298" lon="6.64517">
        <ele>1632.9</ele>
        <time>2022-09-17T23:30:25Z</time>
      </trkpt>
      <trkpt lat="44.16294" lon="6.64523">
        <ele>1633.1</ele>
        <time>2022-09-17T23:30:26Z</time>
      </trkpt>
      <trkpt lat="44.16288" lon="6.64533">
        <ele>1633.3</ele>
        <time>2022-09-17T23:30:28Z</time>
      </trkpt>
      <trkpt lat="44.16284" lon="6.64538">
        <ele>1633.4</ele>
        <time>2022-09-17T23:30:29Z</time>
      </trkpt>
      <trkpt lat="44.16281" lon="6.64543">
        <ele>1633.5</ele>
        <time>2022-09-17T23:30:30Z</time>
      </trkpt>
      <trkpt lat="44.16276" lon="6.64549">
        <ele>1633.6</ele>
        <time>2022-09-17T23:30:31Z</time>
      </trkpt>
      <trkpt lat="44.16273" lon="6.64554">
        <ele>1633.6</ele>
        <time>2022-09-17T23:30:32Z</time>
      </trkpt>
      <trkpt lat="44.16268" lon="6.6456">
        <ele>1633.8</ele>
        <time>2022-09-17T23:30:34Z</time>
      </trkpt>
      <trkpt lat="44.16265" lon="6.64564">
        <ele>1633.9</ele>
        <time>2022-09-17T23:30:35Z</time>
      </trkpt>
      <trkpt lat="44.16262" lon="6.64568">
        <ele>1634</ele>
        <time>2022-09-17T23:30:36Z</time>
      </trkpt>
      <trkpt lat="44.16259" lon="6.64572">
        <ele>1634.1</ele>
        <time>2022-09-17T23:30:37Z</time>
      </trkpt>
      <trkpt lat="44.16256" lon="6.64575">
        <ele>1634.2</ele>
        <time>2022-09-17T23:30:38Z</time>
      </trkpt>
      <trkpt lat="44.16252" lon="6.64578">
        <ele>1634.3</ele>
        <time>2022-09-17T23:30:39Z</time>
      </trkpt>
      <trkpt lat="44.16248" lon="6.64582">
        <ele>1634.4</ele>
        <time>2022-09-17T23:30:40Z</time>
      </trkpt>
      <trkpt lat="44.16244" lon="6.64586">
        <ele>1634.5</ele>
        <time>2022-09-17T23:30:41Z</time>
      </trkpt>
      <trkpt lat="44.1624" lon="6.64591">
        <ele>1634.6</ele>
        <time>2022-09-17T23:30:42Z</time>
      </trkpt>
      <trkpt lat="44.16235" lon="6.64596">
        <ele>1634.7</ele>
        <time>2022-09-17T23:30:44Z</time>
      </trkpt>
      <trkpt lat="44.16231" lon="6.64599">
        <ele>1634.7</ele>
        <time>2022-09-17T23:30:45Z</time>
      </trkpt>
      <trkpt lat="44.16228" lon="6.64603">
        <ele>1634.8</ele>
        <time>2022-09-17T23:30:46Z</time>
      </trkpt>
      <trkpt lat="44.16224" lon="6.64606">
        <ele>1634.9</ele>
        <time>2022-09-17T23:30:47Z</time>
      </trkpt>
      <trkpt lat="44.16221" lon="6.6461">
        <ele>1634.9</ele>
        <time>2022-09-17T23:30:48Z</time>
      </trkpt>
      <trkpt lat="44.16218" lon="6.64613">
        <ele>1635</ele>
        <time>2022-09-17T23:30:49Z</time>
      </trkpt>
      <trkpt lat="44.16215" lon="6.64617">
        <ele>1635.1</ele>
        <time>2022-09-17T23:30:50Z</time>
      </trkpt>
      <trkpt lat="44.16213" lon="6.64618">
        <ele>1635.1</ele>
        <time>2022-09-17T23:30:51Z</time>
      </trkpt>
      <trkpt lat="44.16211" lon="6.64625">
        <ele>1635.2</ele>
        <time>2022-09-17T23:30:52Z</time>
      </trkpt>
      <trkpt lat="44.16209" lon="6.64631">
        <ele>1635.3</ele>
        <time>2022-09-17T23:30:53Z</time>
      </trkpt>
      <trkpt lat="44.16206" lon="6.64636">
        <ele>1635.4</ele>
        <time>2022-09-17T23:30:54Z</time>
      </trkpt>
      <trkpt lat="44.16204" lon="6.64641">
        <ele>1635.5</ele>
        <time>2022-09-17T23:30:55Z</time>
      </trkpt>
      <trkpt lat="44.16201" lon="6.64646">
        <ele>1635.6</ele>
        <time>2022-09-17T23:30:56Z</time>
      </trkpt>
      <trkpt lat="44.16199" lon="6.6465">
        <ele>1635.8</ele>
        <time>2022-09-17T23:30:57Z</time>
      </trkpt>
      <trkpt lat="44.16196" lon="6.64657">
        <ele>1636</ele>
        <time>2022-09-17T23:30:58Z</time>
      </trkpt>
      <trkpt lat="44.16192" lon="6.64662">
        <ele>1636.3</ele>
        <time>2022-09-17T23:30:59Z</time>
      </trkpt>
      <trkpt lat="44.1619" lon="6.64668">
        <ele>1636.5</ele>
        <time>2022-09-17T23:31:01Z</time>
      </trkpt>
      <trkpt lat="44.16187" lon="6.64672">
        <ele>1636.7</ele>
        <time>2022-09-17T23:31:02Z</time>
      </trkpt>
      <trkpt lat="44.16184" lon="6.64677">
        <ele>1637</ele>
        <time>2022-09-17T23:31:03Z</time>
      </trkpt>
      <trkpt lat="44.1618" lon="6.64682">
        <ele>1637.2</ele>
        <time>2022-09-17T23:31:04Z</time>
      </trkpt>
      <trkpt lat="44.16177" lon="6.64686">
        <ele>1637.5</ele>
        <time>2022-09-17T23:31:05Z</time>
      </trkpt>
      <trkpt lat="44.16173" lon="6.64691">
        <ele>1637.8</ele>
        <time>2022-09-17T23:31:07Z</time>
      </trkpt>
      <trkpt lat="44.1617" lon="6.64694">
        <ele>1638.1</ele>
        <time>2022-09-17T23:31:08Z</time>
      </trkpt>
      <trkpt lat="44.16167" lon="6.64697">
        <ele>1638.3</ele>
        <time>2022-09-17T23:31:09Z</time>
      </trkpt>
      <trkpt lat="44.16162" lon="6.64702">
        <ele>1638.8</ele>
        <time>2022-09-17T23:31:10Z</time>
      </trkpt>
      <trkpt lat="44.16159" lon="6.64706">
        <ele>1639.2</ele>
        <time>2022-09-17T23:31:11Z</time>
      </trkpt>
      <trkpt lat="44.16157" lon="6.64712">
        <ele>1639.5</ele>
        <time>2022-09-17T23:31:13Z</time>
      </trkpt>
      <trkpt lat="44.16155" lon="6.64716">
        <ele>1639.9</ele>
        <time>2022-09-17T23:31:14Z</time>
      </trkpt>
      <trkpt lat="44.16153" lon="6.64721">
        <ele>1640.2</ele>
        <time>2022-09-17T23:31:15Z</time>
      </trkpt>
      <trkpt lat="44.1615" lon="6.64725">
        <ele>1640.5</ele>
        <time>2022-09-17T23:31:16Z</time>
      </trkpt>
      <trkpt lat="44.16147" lon="6.64729">
        <ele>1640.8</ele>
        <time>2022-09-17T23:31:17Z</time>
      </trkpt>
      <trkpt lat="44.16145" lon="6.64733">
        <ele>1641.2</ele>
        <time>2022-09-17T23:31:18Z</time>
      </trkpt>
      <trkpt lat="44.16141" lon="6.64737">
        <ele>1641.6</ele>
        <time>2022-09-17T23:31:19Z</time>
      </trkpt>
      <trkpt lat="44.16138" lon="6.6474">
        <ele>1642</ele>
        <time>2022-09-17T23:31:20Z</time>
      </trkpt>
      <trkpt lat="44.16134" lon="6.64743">
        <ele>1642.4</ele>
        <time>2022-09-17T23:31:21Z</time>
      </trkpt>
      <trkpt lat="44.16129" lon="6.64745">
        <ele>1642.9</ele>
        <time>2022-09-17T23:31:23Z</time>
      </trkpt>
      <trkpt lat="44.16126" lon="6.64748">
        <ele>1643.3</ele>
        <time>2022-09-17T23:31:24Z</time>
      </trkpt>
      <trkpt lat="44.16124" lon="6.64751">
        <ele>1643.6</ele>
        <time>2022-09-17T23:31:25Z</time>
      </trkpt>
      <trkpt lat="44.16121" lon="6.64754">
        <ele>1644</ele>
        <time>2022-09-17T23:31:26Z</time>
      </trkpt>
      <trkpt lat="44.16118" lon="6.64757">
        <ele>1644.3</ele>
        <time>2022-09-17T23:31:27Z</time>
      </trkpt>
      <trkpt lat="44.16115" lon="6.6476">
        <ele>1644.8</ele>
        <time>2022-09-17T23:31:28Z</time>
      </trkpt>
      <trkpt lat="44.1611" lon="6.64764">
        <ele>1645.4</ele>
        <time>2022-09-17T23:31:29Z</time>
      </trkpt>
      <trkpt lat="44.16107" lon="6.64767">
        <ele>1645.9</ele>
        <time>2022-09-17T23:31:30Z</time>
      </trkpt>
      <trkpt lat="44.16104" lon="6.6477">
        <ele>1646.3</ele>
        <time>2022-09-17T23:31:31Z</time>
      </trkpt>
      <trkpt lat="44.161" lon="6.64774">
        <ele>1646.8</ele>
        <time>2022-09-17T23:31:33Z</time>
      </trkpt>
      <trkpt lat="44.16098" lon="6.64776">
        <ele>1647.2</ele>
        <time>2022-09-17T23:31:34Z</time>
      </trkpt>
      <trkpt lat="44.16095" lon="6.64779">
        <ele>1647.5</ele>
        <time>2022-09-17T23:31:35Z</time>
      </trkpt>
      <trkpt lat="44.1609" lon="6.64784">
        <ele>1648.2</ele>
        <time>2022-09-17T23:31:36Z</time>
      </trkpt>
      <trkpt lat="44.16087" lon="6.64788">
        <ele>1648.7</ele>
        <time>2022-09-17T23:31:37Z</time>
      </trkpt>
      <trkpt lat="44.16084" lon="6.64792">
        <ele>1649.2</ele>
        <time>2022-09-17T23:31:39Z</time>
      </trkpt>
      <trkpt lat="44.16081" lon="6.64796">
        <ele>1649.6</ele>
        <time>2022-09-17T23:31:40Z</time>
      </trkpt>
      <trkpt lat="44.16078" lon="6.64799">
        <ele>1650</ele>
        <time>2022-09-17T23:31:41Z</time>
      </trkpt>
      <trkpt lat="44.16076" lon="6.64801">
        <ele>1650.3</ele>
        <time>2022-09-17T23:31:42Z</time>
      </trkpt>
      <trkpt lat="44.16073" lon="6.64804">
        <ele>1650.6</ele>
        <time>2022-09-17T23:31:43Z</time>
      </trkpt>
      <trkpt lat="44.16071" lon="6.64807">
        <ele>1650.9</ele>
        <time>2022-09-17T23:31:44Z</time>
      </trkpt>
      <trkpt lat="44.16068" lon="6.6481">
        <ele>1651.2</ele>
        <time>2022-09-17T23:31:45Z</time>
      </trkpt>
      <trkpt lat="44.16066" lon="6.64814">
        <ele>1651.4</ele>
        <time>2022-09-17T23:31:46Z</time>
      </trkpt>
      <trkpt lat="44.16063" lon="6.64818">
        <ele>1651.8</ele>
        <time>2022-09-17T23:31:47Z</time>
      </trkpt>
      <trkpt lat="44.1606" lon="6.64824">
        <ele>1652.2</ele>
        <time>2022-09-17T23:31:49Z</time>
      </trkpt>
      <trkpt lat="44.16058" lon="6.64827">
        <ele>1652.5</ele>
        <time>2022-09-17T23:31:50Z</time>
      </trkpt>
      <trkpt lat="44.16056" lon="6.64831">
        <ele>1652.7</ele>
        <time>2022-09-17T23:31:51Z</time>
      </trkpt>
      <trkpt lat="44.16052" lon="6.64837">
        <ele>1653.1</ele>
        <time>2022-09-17T23:31:52Z</time>
      </trkpt>
      <trkpt lat="44.16047" lon="6.64841">
        <ele>1653.2</ele>
        <time>2022-09-17T23:31:54Z</time>
      </trkpt>
      <trkpt lat="44.16044" lon="6.64844">
        <ele>1653.2</ele>
        <time>2022-09-17T23:31:55Z</time>
      </trkpt>
      <trkpt lat="44.1604" lon="6.64849">
        <ele>1653.1</ele>
        <time>2022-09-17T23:31:56Z</time>
      </trkpt>
      <trkpt lat="44.16036" lon="6.64853">
        <ele>1653</ele>
        <time>2022-09-17T23:31:57Z</time>
      </trkpt>
      <trkpt lat="44.16033" lon="6.64856">
        <ele>1653</ele>
        <time>2022-09-17T23:31:59Z</time>
      </trkpt>
      <trkpt lat="44.16028" lon="6.64861">
        <ele>1652.9</ele>
        <time>2022-09-17T23:32:00Z</time>
      </trkpt>
      <trkpt lat="44.16024" lon="6.64866">
        <ele>1652.8</ele>
        <time>2022-09-17T23:32:01Z</time>
      </trkpt>
      <trkpt lat="44.16021" lon="6.6487">
        <ele>1652.7</ele>
        <time>2022-09-17T23:32:03Z</time>
      </trkpt>
      <trkpt lat="44.16015" lon="6.64875">
        <ele>1652.6</ele>
        <time>2022-09-17T23:32:04Z</time>
      </trkpt>
      <trkpt lat="44.16009" lon="6.64881">
        <ele>1652.4</ele>
        <time>2022-09-17T23:32:06Z</time>
      </trkpt>
      <trkpt lat="44.16006" lon="6.64885">
        <ele>1652.3</ele>
        <time>2022-09-17T23:32:08Z</time>
      </trkpt>
      <trkpt lat="44.16004" lon="6.6489">
        <ele>1652.2</ele>
        <time>2022-09-17T23:32:09Z</time>
      </trkpt>
      <trkpt lat="44.16" lon="6.64897">
        <ele>1652.1</ele>
        <time>2022-09-17T23:32:10Z</time>
      </trkpt>
      <trkpt lat="44.15997" lon="6.64901">
        <ele>1652</ele>
        <time>2022-09-17T23:32:12Z</time>
      </trkpt>
      <trkpt lat="44.15995" lon="6.64905">
        <ele>1652</ele>
        <time>2022-09-17T23:32:13Z</time>
      </trkpt>
      <trkpt lat="44.15993" lon="6.6491">
        <ele>1651.9</ele>
        <time>2022-09-17T23:32:14Z</time>
      </trkpt>
      <trkpt lat="44.15991" lon="6.64915">
        <ele>1651.8</ele>
        <time>2022-09-17T23:32:15Z</time>
      </trkpt>
      <trkpt lat="44.15987" lon="6.64923">
        <ele>1651.7</ele>
        <time>2022-09-17T23:32:17Z</time>
      </trkpt>
      <trkpt lat="44.15985" lon="6.64927">
        <ele>1651.6</ele>
        <time>2022-09-17T23:32:18Z</time>
      </trkpt>
      <trkpt lat="44.15983" lon="6.64932">
        <ele>1651.4</ele>
        <time>2022-09-17T23:32:19Z</time>
      </trkpt>
      <trkpt lat="44.15983" lon="6.64937">
        <ele>1651.3</ele>
        <time>2022-09-17T23:32:20Z</time>
      </trkpt>
      <trkpt lat="44.15983" lon="6.64943">
        <ele>1651.2</ele>
        <time>2022-09-17T23:32:21Z</time>
      </trkpt>
      <trkpt lat="44.15983" lon="6.64948">
        <ele>1651.1</ele>
        <time>2022-09-17T23:32:22Z</time>
      </trkpt>
      <trkpt lat="44.15984" lon="6.64954">
        <ele>1651</ele>
        <time>2022-09-17T23:32:23Z</time>
      </trkpt>
      <trkpt lat="44.15984" lon="6.64965">
        <ele>1650.8</ele>
        <time>2022-09-17T23:32:24Z</time>
      </trkpt>
      <trkpt lat="44.15984" lon="6.64973">
        <ele>1650.6</ele>
        <time>2022-09-17T23:32:26Z</time>
      </trkpt>
      <trkpt lat="44.15982" lon="6.64981">
        <ele>1650.4</ele>
        <time>2022-09-17T23:32:27Z</time>
      </trkpt>
      <trkpt lat="44.1598" lon="6.64989">
        <ele>1650.2</ele>
        <time>2022-09-17T23:32:28Z</time>
      </trkpt>
      <trkpt lat="44.15978" lon="6.64995">
        <ele>1650.1</ele>
        <time>2022-09-17T23:32:30Z</time>
      </trkpt>
      <trkpt lat="44.15975" lon="6.64999">
        <ele>1649.9</ele>
        <time>2022-09-17T23:32:31Z</time>
      </trkpt>
      <trkpt lat="44.15972" lon="6.65004">
        <ele>1649.8</ele>
        <time>2022-09-17T23:32:32Z</time>
      </trkpt>
      <trkpt lat="44.15969" lon="6.65007">
        <ele>1649.7</ele>
        <time>2022-09-17T23:32:33Z</time>
      </trkpt>
      <trkpt lat="44.15966" lon="6.65011">
        <ele>1649.6</ele>
        <time>2022-09-17T23:32:34Z</time>
      </trkpt>
      <trkpt lat="44.15963" lon="6.65015">
        <ele>1649.5</ele>
        <time>2022-09-17T23:32:35Z</time>
      </trkpt>
      <trkpt lat="44.1596" lon="6.65019">
        <ele>1649.3</ele>
        <time>2022-09-17T23:32:36Z</time>
      </trkpt>
      <trkpt lat="44.15956" lon="6.65022">
        <ele>1649.2</ele>
        <time>2022-09-17T23:32:37Z</time>
      </trkpt>
      <trkpt lat="44.15952" lon="6.65026">
        <ele>1649</ele>
        <time>2022-09-17T23:32:38Z</time>
      </trkpt>
      <trkpt lat="44.15949" lon="6.6503">
        <ele>1648.9</ele>
        <time>2022-09-17T23:32:39Z</time>
      </trkpt>
      <trkpt lat="44.15945" lon="6.65035">
        <ele>1648.7</ele>
        <time>2022-09-17T23:32:40Z</time>
      </trkpt>
      <trkpt lat="44.15941" lon="6.6504">
        <ele>1648.5</ele>
        <time>2022-09-17T23:32:41Z</time>
      </trkpt>
      <trkpt lat="44.15937" lon="6.65045">
        <ele>1648.4</ele>
        <time>2022-09-17T23:32:43Z</time>
      </trkpt>
      <trkpt lat="44.15934" lon="6.65049">
        <ele>1648.3</ele>
        <time>2022-09-17T23:32:44Z</time>
      </trkpt>
      <trkpt lat="44.15932" lon="6.65053">
        <ele>1648.2</ele>
        <time>2022-09-17T23:32:45Z</time>
      </trkpt>
      <trkpt lat="44.15928" lon="6.6506">
        <ele>1648</ele>
        <time>2022-09-17T23:32:46Z</time>
      </trkpt>
      <trkpt lat="44.15925" lon="6.65067">
        <ele>1647.9</ele>
        <time>2022-09-17T23:32:48Z</time>
      </trkpt>
      <trkpt lat="44.15923" lon="6.65072">
        <ele>1647.8</ele>
        <time>2022-09-17T23:32:49Z</time>
      </trkpt>
      <trkpt lat="44.15921" lon="6.65078">
        <ele>1647.7</ele>
        <time>2022-09-17T23:32:50Z</time>
      </trkpt>
      <trkpt lat="44.15919" lon="6.65083">
        <ele>1647.6</ele>
        <time>2022-09-17T23:32:51Z</time>
      </trkpt>
      <trkpt lat="44.15915" lon="6.65089">
        <ele>1647.4</ele>
        <time>2022-09-17T23:32:52Z</time>
      </trkpt>
      <trkpt lat="44.15912" lon="6.65093">
        <ele>1647.3</ele>
        <time>2022-09-17T23:32:54Z</time>
      </trkpt>
      <trkpt lat="44.15909" lon="6.65098">
        <ele>1647.1</ele>
        <time>2022-09-17T23:32:55Z</time>
      </trkpt>
      <trkpt lat="44.15906" lon="6.65103">
        <ele>1647</ele>
        <time>2022-09-17T23:32:56Z</time>
      </trkpt>
      <trkpt lat="44.15903" lon="6.65108">
        <ele>1646.8</ele>
        <time>2022-09-17T23:32:57Z</time>
      </trkpt>
      <trkpt lat="44.15899" lon="6.65118">
        <ele>1646.6</ele>
        <time>2022-09-17T23:32:58Z</time>
      </trkpt>
      <trkpt lat="44.15894" lon="6.65124">
        <ele>1646.4</ele>
        <time>2022-09-17T23:33:00Z</time>
      </trkpt>
      <trkpt lat="44.15892" lon="6.65129">
        <ele>1646.3</ele>
        <time>2022-09-17T23:33:01Z</time>
      </trkpt>
      <trkpt lat="44.15889" lon="6.65133">
        <ele>1646.2</ele>
        <time>2022-09-17T23:33:02Z</time>
      </trkpt>
      <trkpt lat="44.15886" lon="6.65139">
        <ele>1646</ele>
        <time>2022-09-17T23:33:04Z</time>
      </trkpt>
      <trkpt lat="44.15883" lon="6.65143">
        <ele>1645.9</ele>
        <time>2022-09-17T23:33:05Z</time>
      </trkpt>
      <trkpt lat="44.15878" lon="6.6515">
        <ele>1645.8</ele>
        <time>2022-09-17T23:33:06Z</time>
      </trkpt>
      <trkpt lat="44.15875" lon="6.65155">
        <ele>1645.7</ele>
        <time>2022-09-17T23:33:07Z</time>
      </trkpt>
      <trkpt lat="44.15872" lon="6.65162">
        <ele>1645.5</ele>
        <time>2022-09-17T23:33:08Z</time>
      </trkpt>
      <trkpt lat="44.15871" lon="6.65169">
        <ele>1645.3</ele>
        <time>2022-09-17T23:33:10Z</time>
      </trkpt>
      <trkpt lat="44.1587" lon="6.65176">
        <ele>1645.1</ele>
        <time>2022-09-17T23:33:11Z</time>
      </trkpt>
      <trkpt lat="44.15868" lon="6.65182">
        <ele>1645</ele>
        <time>2022-09-17T23:33:12Z</time>
      </trkpt>
      <trkpt lat="44.15869" lon="6.65186">
        <ele>1644.9</ele>
        <time>2022-09-17T23:33:13Z</time>
      </trkpt>
      <trkpt lat="44.15868" lon="6.65188">
        <ele>1644.8</ele>
        <time>2022-09-17T23:33:14Z</time>
      </trkpt>
      <trkpt lat="44.15864" lon="6.65196">
        <ele>1644.6</ele>
        <time>2022-09-17T23:33:15Z</time>
      </trkpt>
      <trkpt lat="44.15857" lon="6.65206">
        <ele>1644.2</ele>
        <time>2022-09-17T23:33:17Z</time>
      </trkpt>
      <trkpt lat="44.15854" lon="6.65209">
        <ele>1644</ele>
        <time>2022-09-17T23:33:18Z</time>
      </trkpt>
      <trkpt lat="44.1585" lon="6.65212">
        <ele>1643.9</ele>
        <time>2022-09-17T23:33:19Z</time>
      </trkpt>
      <trkpt lat="44.15848" lon="6.65217">
        <ele>1643.7</ele>
        <time>2022-09-17T23:33:20Z</time>
      </trkpt>
      <trkpt lat="44.15845" lon="6.6522">
        <ele>1643.6</ele>
        <time>2022-09-17T23:33:21Z</time>
      </trkpt>
      <trkpt lat="44.15845" lon="6.65225">
        <ele>1643.4</ele>
        <time>2022-09-17T23:33:22Z</time>
      </trkpt>
      <trkpt lat="44.15842" lon="6.65231">
        <ele>1643.2</ele>
        <time>2022-09-17T23:33:23Z</time>
      </trkpt>
      <trkpt lat="44.1584" lon="6.65239">
        <ele>1643</ele>
        <time>2022-09-17T23:33:24Z</time>
      </trkpt>
      <trkpt lat="44.15839" lon="6.65249">
        <ele>1642.7</ele>
        <time>2022-09-17T23:33:26Z</time>
      </trkpt>
      <trkpt lat="44.15838" lon="6.65255">
        <ele>1642.5</ele>
        <time>2022-09-17T23:33:27Z</time>
      </trkpt>
      <trkpt lat="44.15838" lon="6.65262">
        <ele>1642.3</ele>
        <time>2022-09-17T23:33:28Z</time>
      </trkpt>
      <trkpt lat="44.15837" lon="6.65267">
        <ele>1642.2</ele>
        <time>2022-09-17T23:33:29Z</time>
      </trkpt>
      <trkpt lat="44.15837" lon="6.65273">
        <ele>1642</ele>
        <time>2022-09-17T23:33:30Z</time>
      </trkpt>
      <trkpt lat="44.15836" lon="6.65284">
        <ele>1641.7</ele>
        <time>2022-09-17T23:33:31Z</time>
      </trkpt>
      <trkpt lat="44.15836" lon="6.6529">
        <ele>1641.5</ele>
        <time>2022-09-17T23:33:32Z</time>
      </trkpt>
      <trkpt lat="44.15836" lon="6.65297">
        <ele>1641.3</ele>
        <time>2022-09-17T23:33:34Z</time>
      </trkpt>
      <trkpt lat="44.15835" lon="6.65303">
        <ele>1641.2</ele>
        <time>2022-09-17T23:33:35Z</time>
      </trkpt>
      <trkpt lat="44.15834" lon="6.65311">
        <ele>1641</ele>
        <time>2022-09-17T23:33:36Z</time>
      </trkpt>
      <trkpt lat="44.15833" lon="6.65317">
        <ele>1640.9</ele>
        <time>2022-09-17T23:33:37Z</time>
      </trkpt>
      <trkpt lat="44.15832" lon="6.65325">
        <ele>1640.8</ele>
        <time>2022-09-17T23:33:39Z</time>
      </trkpt>
      <trkpt lat="44.15831" lon="6.65331">
        <ele>1640.7</ele>
        <time>2022-09-17T23:33:40Z</time>
      </trkpt>
      <trkpt lat="44.15829" lon="6.65341">
        <ele>1640.7</ele>
        <time>2022-09-17T23:33:41Z</time>
      </trkpt>
      <trkpt lat="44.15828" lon="6.65347">
        <ele>1640.6</ele>
        <time>2022-09-17T23:33:42Z</time>
      </trkpt>
      <trkpt lat="44.15826" lon="6.65353">
        <ele>1640.6</ele>
        <time>2022-09-17T23:33:43Z</time>
      </trkpt>
      <trkpt lat="44.15824" lon="6.65359">
        <ele>1640.6</ele>
        <time>2022-09-17T23:33:45Z</time>
      </trkpt>
      <trkpt lat="44.15821" lon="6.65365">
        <ele>1640.5</ele>
        <time>2022-09-17T23:33:46Z</time>
      </trkpt>
      <trkpt lat="44.15817" lon="6.65372">
        <ele>1640.5</ele>
        <time>2022-09-17T23:33:47Z</time>
      </trkpt>
      <trkpt lat="44.15814" lon="6.65378">
        <ele>1640.4</ele>
        <time>2022-09-17T23:33:49Z</time>
      </trkpt>
      <trkpt lat="44.15811" lon="6.65384">
        <ele>1640.4</ele>
        <time>2022-09-17T23:33:50Z</time>
      </trkpt>
      <trkpt lat="44.1581" lon="6.6539">
        <ele>1640.4</ele>
        <time>2022-09-17T23:33:51Z</time>
      </trkpt>
      <trkpt lat="44.15809" lon="6.65397">
        <ele>1640.3</ele>
        <time>2022-09-17T23:33:52Z</time>
      </trkpt>
      <trkpt lat="44.15807" lon="6.65405">
        <ele>1640.3</ele>
        <time>2022-09-17T23:33:53Z</time>
      </trkpt>
      <trkpt lat="44.15806" lon="6.65412">
        <ele>1640.3</ele>
        <time>2022-09-17T23:33:55Z</time>
      </trkpt>
      <trkpt lat="44.15805" lon="6.65417">
        <ele>1640.2</ele>
        <time>2022-09-17T23:33:56Z</time>
      </trkpt>
      <trkpt lat="44.15803" lon="6.65422">
        <ele>1640.2</ele>
        <time>2022-09-17T23:33:57Z</time>
      </trkpt>
      <trkpt lat="44.15802" lon="6.65427">
        <ele>1640.2</ele>
        <time>2022-09-17T23:33:58Z</time>
      </trkpt>
      <trkpt lat="44.158" lon="6.65432">
        <ele>1640.3</ele>
        <time>2022-09-17T23:33:59Z</time>
      </trkpt>
      <trkpt lat="44.15799" lon="6.65426">
        <ele>1640.3</ele>
        <time>2022-09-17T23:34:01Z</time>
      </trkpt>
      <trkpt lat="44.15795" lon="6.65433">
        <ele>1640.4</ele>
        <time>2022-09-17T23:34:02Z</time>
      </trkpt>
      <trkpt lat="44.15791" lon="6.65442">
        <ele>1640.6</ele>
        <time>2022-09-17T23:34:03Z</time>
      </trkpt>
      <trkpt lat="44.15786" lon="6.65451">
        <ele>1640.8</ele>
        <time>2022-09-17T23:34:04Z</time>
      </trkpt>
      <trkpt lat="44.15783" lon="6.65457">
        <ele>1640.9</ele>
        <time>2022-09-17T23:34:05Z</time>
      </trkpt>
      <trkpt lat="44.1578" lon="6.65463">
        <ele>1641.1</ele>
        <time>2022-09-17T23:34:06Z</time>
      </trkpt>
      <trkpt lat="44.15777" lon="6.65469">
        <ele>1641.3</ele>
        <time>2022-09-17T23:34:08Z</time>
      </trkpt>
      <trkpt lat="44.15775" lon="6.65473">
        <ele>1641.5</ele>
        <time>2022-09-17T23:34:09Z</time>
      </trkpt>
      <trkpt lat="44.15773" lon="6.65479">
        <ele>1641.8</ele>
        <time>2022-09-17T23:34:10Z</time>
      </trkpt>
      <trkpt lat="44.15771" lon="6.65484">
        <ele>1642</ele>
        <time>2022-09-17T23:34:11Z</time>
      </trkpt>
      <trkpt lat="44.15769" lon="6.65491">
        <ele>1642.3</ele>
        <time>2022-09-17T23:34:12Z</time>
      </trkpt>
      <trkpt lat="44.15757" lon="6.65518">
        <ele>1643.5</ele>
        <time>2022-09-17T23:34:19Z</time>
      </trkpt>
      <trkpt lat="44.15752" lon="6.65523">
        <ele>1643.7</ele>
        <time>2022-09-17T23:34:20Z</time>
      </trkpt>
      <trkpt lat="44.15748" lon="6.6553">
        <ele>1643.8</ele>
        <time>2022-09-17T23:34:22Z</time>
      </trkpt>
      <trkpt lat="44.15748" lon="6.65536">
        <ele>1643.9</ele>
        <time>2022-09-17T23:34:23Z</time>
      </trkpt>
      <trkpt lat="44.15747" lon="6.65537">
        <ele>1643.9</ele>
        <time>2022-09-17T23:34:24Z</time>
      </trkpt>
      <trkpt lat="44.15745" lon="6.6554">
        <ele>1643.9</ele>
        <time>2022-09-17T23:34:25Z</time>
      </trkpt>
      <trkpt lat="44.15743" lon="6.65541">
        <ele>1643.9</ele>
        <time>2022-09-17T23:34:27Z</time>
      </trkpt>
      <trkpt lat="44.15742" lon="6.65542">
        <ele>1643.8</ele>
        <time>2022-09-17T23:34:28Z</time>
      </trkpt>
      <trkpt lat="44.1574" lon="6.65542">
        <ele>1643.7</ele>
        <time>2022-09-17T23:34:29Z</time>
      </trkpt>
      <trkpt lat="44.15739" lon="6.65542">
        <ele>1643.7</ele>
        <time>2022-09-17T23:34:31Z</time>
      </trkpt>
      <trkpt lat="44.15739" lon="6.65542">
        <ele>1643.7</ele>
        <time>2022-09-17T23:34:32Z</time>
      </trkpt>
      <trkpt lat="44.15738" lon="6.65542">
        <ele>1643.7</ele>
        <time>2022-09-17T23:34:33Z</time>
      </trkpt>
      <trkpt lat="44.15738" lon="6.65542">
        <ele>1643.7</ele>
        <time>2022-09-17T23:34:34Z</time>
      </trkpt>
      <trkpt lat="44.15738" lon="6.65542">
        <ele>1643.6</ele>
        <time>2022-09-17T23:34:35Z</time>
      </trkpt>
      <trkpt lat="44.15737" lon="6.65542">
        <ele>1643.6</ele>
        <time>2022-09-17T23:34:36Z</time>
      </trkpt>
      <trkpt lat="44.15737" lon="6.65542">
        <ele>1643.6</ele>
        <time>2022-09-17T23:34:37Z</time>
      </trkpt>
      <trkpt lat="44.15736" lon="6.65542">
        <ele>1643.6</ele>
        <time>2022-09-17T23:34:38Z</time>
      </trkpt>
      <trkpt lat="44.15736" lon="6.65542">
        <ele>1643.6</ele>
        <time>2022-09-17T23:34:39Z</time>
      </trkpt>
      <trkpt lat="44.15735" lon="6.65542">
        <ele>1643.6</ele>
        <time>2022-09-17T23:36:16Z</time>
      </trkpt>
      <trkpt lat="44.15735" lon="6.65542">
        <ele>1643.5</ele>
        <time>2022-09-17T23:36:17Z</time>
      </trkpt>
      <trkpt lat="44.15734" lon="6.65543">
        <ele>1643.5</ele>
        <time>2022-09-17T23:36:18Z</time>
      </trkpt>
      <trkpt lat="44.15729" lon="6.65546">
        <ele>1643.4</ele>
        <time>2022-09-17T23:36:19Z</time>
      </trkpt>
      <trkpt lat="44.15726" lon="6.65548">
        <ele>1643.3</ele>
        <time>2022-09-17T23:36:20Z</time>
      </trkpt>
      <trkpt lat="44.15721" lon="6.65552">
        <ele>1643.4</ele>
        <time>2022-09-17T23:36:22Z</time>
      </trkpt>
      <trkpt lat="44.1572" lon="6.65553">
        <ele>1643.4</ele>
        <time>2022-09-17T23:36:23Z</time>
      </trkpt>
      <trkpt lat="44.15718" lon="6.65555">
        <ele>1643.4</ele>
        <time>2022-09-17T23:36:24Z</time>
      </trkpt>
      <trkpt lat="44.15715" lon="6.65558">
        <ele>1643.5</ele>
        <time>2022-09-17T23:36:26Z</time>
      </trkpt>
      <trkpt lat="44.15712" lon="6.6556">
        <ele>1643.6</ele>
        <time>2022-09-17T23:36:27Z</time>
      </trkpt>
      <trkpt lat="44.15711" lon="6.6556">
        <ele>1643.6</ele>
        <time>2022-09-17T23:36:28Z</time>
      </trkpt>
      <trkpt lat="44.15709" lon="6.65563">
        <ele>1643.6</ele>
        <time>2022-09-17T23:36:29Z</time>
      </trkpt>
      <trkpt lat="44.15708" lon="6.65564">
        <ele>1643.6</ele>
        <time>2022-09-17T23:36:30Z</time>
      </trkpt>
      <trkpt lat="44.15707" lon="6.65565">
        <ele>1643.7</ele>
        <time>2022-09-17T23:36:31Z</time>
      </trkpt>
      <trkpt lat="44.15705" lon="6.65566">
        <ele>1643.7</ele>
        <time>2022-09-17T23:36:32Z</time>
      </trkpt>
      <trkpt lat="44.15704" lon="6.6557">
        <ele>1643.7</ele>
        <time>2022-09-17T23:36:33Z</time>
      </trkpt>
      <trkpt lat="44.15704" lon="6.65571">
        <ele>1643.7</ele>
        <time>2022-09-17T23:36:34Z</time>
      </trkpt>
      <trkpt lat="44.15702" lon="6.65576">
        <ele>1643.8</ele>
        <time>2022-09-17T23:36:35Z</time>
      </trkpt>
      <trkpt lat="44.15702" lon="6.65578">
        <ele>1643.8</ele>
        <time>2022-09-17T23:36:36Z</time>
      </trkpt>
      <trkpt lat="44.15701" lon="6.65581">
        <ele>1643.8</ele>
        <time>2022-09-17T23:36:37Z</time>
      </trkpt>
      <trkpt lat="44.157" lon="6.65589">
        <ele>1644</ele>
        <time>2022-09-17T23:36:39Z</time>
      </trkpt>
      <trkpt lat="44.15699" lon="6.65593">
        <ele>1644</ele>
        <time>2022-09-17T23:36:40Z</time>
      </trkpt>
      <trkpt lat="44.15698" lon="6.65601">
        <ele>1644.2</ele>
        <time>2022-09-17T23:36:42Z</time>
      </trkpt>
      <trkpt lat="44.15697" lon="6.65606">
        <ele>1644.3</ele>
        <time>2022-09-17T23:36:43Z</time>
      </trkpt>
      <trkpt lat="44.15696" lon="6.65608">
        <ele>1644.3</ele>
        <time>2022-09-17T23:36:44Z</time>
      </trkpt>
      <trkpt lat="44.15696" lon="6.65612">
        <ele>1644.4</ele>
        <time>2022-09-17T23:36:45Z</time>
      </trkpt>
      <trkpt lat="44.15695" lon="6.65618">
        <ele>1644.5</ele>
        <time>2022-09-17T23:36:46Z</time>
      </trkpt>
      <trkpt lat="44.15694" lon="6.65625">
        <ele>1644.7</ele>
        <time>2022-09-17T23:36:48Z</time>
      </trkpt>
      <trkpt lat="44.15693" lon="6.6563">
        <ele>1644.8</ele>
        <time>2022-09-17T23:36:49Z</time>
      </trkpt>
      <trkpt lat="44.15693" lon="6.65634">
        <ele>1644.9</ele>
        <time>2022-09-17T23:36:50Z</time>
      </trkpt>
      <trkpt lat="44.15692" lon="6.65639">
        <ele>1645.1</ele>
        <time>2022-09-17T23:36:51Z</time>
      </trkpt>
      <trkpt lat="44.15691" lon="6.65645">
        <ele>1645.3</ele>
        <time>2022-09-17T23:36:52Z</time>
      </trkpt>
      <trkpt lat="44.1569" lon="6.65651">
        <ele>1645.5</ele>
        <time>2022-09-17T23:36:53Z</time>
      </trkpt>
      <trkpt lat="44.15688" lon="6.65657">
        <ele>1645.8</ele>
        <time>2022-09-17T23:36:54Z</time>
      </trkpt>
      <trkpt lat="44.15687" lon="6.65661">
        <ele>1645.9</ele>
        <time>2022-09-17T23:36:55Z</time>
      </trkpt>
      <trkpt lat="44.15686" lon="6.65667">
        <ele>1646.2</ele>
        <time>2022-09-17T23:36:57Z</time>
      </trkpt>
      <trkpt lat="44.15684" lon="6.65671">
        <ele>1646.4</ele>
        <time>2022-09-17T23:36:58Z</time>
      </trkpt>
      <trkpt lat="44.15681" lon="6.65678">
        <ele>1646.8</ele>
        <time>2022-09-17T23:37:00Z</time>
      </trkpt>
      <trkpt lat="44.15678" lon="6.65686">
        <ele>1647.1</ele>
        <time>2022-09-17T23:37:02Z</time>
      </trkpt>
      <trkpt lat="44.15676" lon="6.65689">
        <ele>1647.3</ele>
        <time>2022-09-17T23:37:03Z</time>
      </trkpt>
      <trkpt lat="44.15674" lon="6.65692">
        <ele>1647.5</ele>
        <time>2022-09-17T23:37:04Z</time>
      </trkpt>
      <trkpt lat="44.15672" lon="6.65696">
        <ele>1647.7</ele>
        <time>2022-09-17T23:37:05Z</time>
      </trkpt>
      <trkpt lat="44.15671" lon="6.657">
        <ele>1647.9</ele>
        <time>2022-09-17T23:37:06Z</time>
      </trkpt>
      <trkpt lat="44.15669" lon="6.65705">
        <ele>1648.2</ele>
        <time>2022-09-17T23:37:07Z</time>
      </trkpt>
      <trkpt lat="44.15667" lon="6.6571">
        <ele>1648.4</ele>
        <time>2022-09-17T23:37:09Z</time>
      </trkpt>
      <trkpt lat="44.15665" lon="6.65716">
        <ele>1648.7</ele>
        <time>2022-09-17T23:37:10Z</time>
      </trkpt>
      <trkpt lat="44.15663" lon="6.65722">
        <ele>1649</ele>
        <time>2022-09-17T23:37:12Z</time>
      </trkpt>
      <trkpt lat="44.15662" lon="6.65724">
        <ele>1649.1</ele>
        <time>2022-09-17T23:37:13Z</time>
      </trkpt>
      <trkpt lat="44.1566" lon="6.65726">
        <ele>1649.2</ele>
        <time>2022-09-17T23:37:14Z</time>
      </trkpt>
      <trkpt lat="44.15657" lon="6.65732">
        <ele>1649.4</ele>
        <time>2022-09-17T23:37:16Z</time>
      </trkpt>
      <trkpt lat="44.15655" lon="6.65735">
        <ele>1649.5</ele>
        <time>2022-09-17T23:37:17Z</time>
      </trkpt>
      <trkpt lat="44.15653" lon="6.65738">
        <ele>1649.7</ele>
        <time>2022-09-17T23:37:18Z</time>
      </trkpt>
      <trkpt lat="44.15651" lon="6.65741">
        <ele>1649.8</ele>
        <time>2022-09-17T23:37:19Z</time>
      </trkpt>
      <trkpt lat="44.15647" lon="6.65746">
        <ele>1650.1</ele>
        <time>2022-09-17T23:37:21Z</time>
      </trkpt>
      <trkpt lat="44.15645" lon="6.65749">
        <ele>1650.3</ele>
        <time>2022-09-17T23:37:22Z</time>
      </trkpt>
      <trkpt lat="44.15642" lon="6.65752">
        <ele>1650.5</ele>
        <time>2022-09-17T23:37:23Z</time>
      </trkpt>
      <trkpt lat="44.1564" lon="6.65756">
        <ele>1650.7</ele>
        <time>2022-09-17T23:37:24Z</time>
      </trkpt>
      <trkpt lat="44.15638" lon="6.65759">
        <ele>1650.9</ele>
        <time>2022-09-17T23:37:25Z</time>
      </trkpt>
      <trkpt lat="44.15634" lon="6.65765">
        <ele>1651.2</ele>
        <time>2022-09-17T23:37:26Z</time>
      </trkpt>
      <trkpt lat="44.15632" lon="6.65768">
        <ele>1651.4</ele>
        <time>2022-09-17T23:37:28Z</time>
      </trkpt>
      <trkpt lat="44.1563" lon="6.65772">
        <ele>1651.7</ele>
        <time>2022-09-17T23:37:29Z</time>
      </trkpt>
      <trkpt lat="44.15628" lon="6.65775">
        <ele>1652</ele>
        <time>2022-09-17T23:37:30Z</time>
      </trkpt>
      <trkpt lat="44.15626" lon="6.65778">
        <ele>1652.4</ele>
        <time>2022-09-17T23:37:31Z</time>
      </trkpt>
      <trkpt lat="44.15624" lon="6.65782">
        <ele>1652.7</ele>
        <time>2022-09-17T23:37:32Z</time>
      </trkpt>
      <trkpt lat="44.15621" lon="6.65787">
        <ele>1653.2</ele>
        <time>2022-09-17T23:37:33Z</time>
      </trkpt>
      <trkpt lat="44.15618" lon="6.65791">
        <ele>1653.6</ele>
        <time>2022-09-17T23:37:34Z</time>
      </trkpt>
      <trkpt lat="44.15616" lon="6.65795">
        <ele>1653.9</ele>
        <time>2022-09-17T23:37:36Z</time>
      </trkpt>
      <trkpt lat="44.15613" lon="6.658">
        <ele>1654.5</ele>
        <time>2022-09-17T23:37:37Z</time>
      </trkpt>
      <trkpt lat="44.15609" lon="6.65802">
        <ele>1654.9</ele>
        <time>2022-09-17T23:37:39Z</time>
      </trkpt>
      <trkpt lat="44.15605" lon="6.65805">
        <ele>1655.3</ele>
        <time>2022-09-17T23:37:40Z</time>
      </trkpt>
      <trkpt lat="44.15601" lon="6.65808">
        <ele>1655.8</ele>
        <time>2022-09-17T23:37:42Z</time>
      </trkpt>
      <trkpt lat="44.15597" lon="6.6581">
        <ele>1656.2</ele>
        <time>2022-09-17T23:37:43Z</time>
      </trkpt>
      <trkpt lat="44.15594" lon="6.6581">
        <ele>1656.5</ele>
        <time>2022-09-17T23:37:44Z</time>
      </trkpt>
      <trkpt lat="44.15588" lon="6.65809">
        <ele>1657</ele>
        <time>2022-09-17T23:37:45Z</time>
      </trkpt>
      <trkpt lat="44.15584" lon="6.65809">
        <ele>1657.4</ele>
        <time>2022-09-17T23:37:47Z</time>
      </trkpt>
      <trkpt lat="44.15581" lon="6.65808">
        <ele>1657.6</ele>
        <time>2022-09-17T23:37:48Z</time>
      </trkpt>
      <trkpt lat="44.15575" lon="6.65807">
        <ele>1658.1</ele>
        <time>2022-09-17T23:37:49Z</time>
      </trkpt>
      <trkpt lat="44.15571" lon="6.65808">
        <ele>1658.5</ele>
        <time>2022-09-17T23:37:51Z</time>
      </trkpt>
      <trkpt lat="44.15568" lon="6.65808">
        <ele>1658.7</ele>
        <time>2022-09-17T23:37:52Z</time>
      </trkpt>
      <trkpt lat="44.15564" lon="6.65809">
        <ele>1659</ele>
        <time>2022-09-17T23:37:53Z</time>
      </trkpt>
      <trkpt lat="44.1556" lon="6.65809">
        <ele>1659.3</ele>
        <time>2022-09-17T23:37:54Z</time>
      </trkpt>
      <trkpt lat="44.15557" lon="6.65809">
        <ele>1659.6</ele>
        <time>2022-09-17T23:37:55Z</time>
      </trkpt>
      <trkpt lat="44.15553" lon="6.6581">
        <ele>1659.9</ele>
        <time>2022-09-17T23:37:57Z</time>
      </trkpt>
      <trkpt lat="44.1555" lon="6.65811">
        <ele>1660.1</ele>
        <time>2022-09-17T23:37:58Z</time>
      </trkpt>
      <trkpt lat="44.15547" lon="6.65812">
        <ele>1660.4</ele>
        <time>2022-09-17T23:37:59Z</time>
      </trkpt>
      <trkpt lat="44.15544" lon="6.65812">
        <ele>1660.7</ele>
        <time>2022-09-17T23:38:00Z</time>
      </trkpt>
      <trkpt lat="44.1554" lon="6.65814">
        <ele>1661</ele>
        <time>2022-09-17T23:38:01Z</time>
      </trkpt>
      <trkpt lat="44.15537" lon="6.65817">
        <ele>1661.3</ele>
        <time>2022-09-17T23:38:03Z</time>
      </trkpt>
      <trkpt lat="44.15534" lon="6.65819">
        <ele>1661.6</ele>
        <time>2022-09-17T23:38:04Z</time>
      </trkpt>
      <trkpt lat="44.15532" lon="6.65823">
        <ele>1661.8</ele>
        <time>2022-09-17T23:38:05Z</time>
      </trkpt>
      <trkpt lat="44.1553" lon="6.65828">
        <ele>1662.1</ele>
        <time>2022-09-17T23:38:06Z</time>
      </trkpt>
      <trkpt lat="44.15529" lon="6.6583">
        <ele>1662.2</ele>
        <time>2022-09-17T23:38:07Z</time>
      </trkpt>
      <trkpt lat="44.15526" lon="6.65835">
        <ele>1662.6</ele>
        <time>2022-09-17T23:38:09Z</time>
      </trkpt>
      <trkpt lat="44.15522" lon="6.6584">
        <ele>1663</ele>
        <time>2022-09-17T23:38:10Z</time>
      </trkpt>
      <trkpt lat="44.15521" lon="6.65844">
        <ele>1663.3</ele>
        <time>2022-09-17T23:38:11Z</time>
      </trkpt>
      <trkpt lat="44.15518" lon="6.6585">
        <ele>1663.7</ele>
        <time>2022-09-17T23:38:13Z</time>
      </trkpt>
      <trkpt lat="44.15516" lon="6.65854">
        <ele>1664</ele>
        <time>2022-09-17T23:38:14Z</time>
      </trkpt>
      <trkpt lat="44.15515" lon="6.65859">
        <ele>1664.4</ele>
        <time>2022-09-17T23:38:16Z</time>
      </trkpt>
      <trkpt lat="44.15514" lon="6.65863">
        <ele>1664.7</ele>
        <time>2022-09-17T23:38:17Z</time>
      </trkpt>
      <trkpt lat="44.15512" lon="6.65868">
        <ele>1665</ele>
        <time>2022-09-17T23:38:18Z</time>
      </trkpt>
      <trkpt lat="44.15512" lon="6.6587">
        <ele>1665.2</ele>
        <time>2022-09-17T23:38:19Z</time>
      </trkpt>
      <trkpt lat="44.15512" lon="6.65874">
        <ele>1665.5</ele>
        <time>2022-09-17T23:38:20Z</time>
      </trkpt>
      <trkpt lat="44.15511" lon="6.65878">
        <ele>1665.8</ele>
        <time>2022-09-17T23:38:21Z</time>
      </trkpt>
      <trkpt lat="44.1551" lon="6.65883">
        <ele>1666.1</ele>
        <time>2022-09-17T23:38:22Z</time>
      </trkpt>
      <trkpt lat="44.1551" lon="6.65885">
        <ele>1666.3</ele>
        <time>2022-09-17T23:38:23Z</time>
      </trkpt>
      <trkpt lat="44.15509" lon="6.65891">
        <ele>1666.7</ele>
        <time>2022-09-17T23:38:24Z</time>
      </trkpt>
      <trkpt lat="44.15509" lon="6.65894">
        <ele>1666.9</ele>
        <time>2022-09-17T23:38:25Z</time>
      </trkpt>
      <trkpt lat="44.15509" lon="6.65899">
        <ele>1667.3</ele>
        <time>2022-09-17T23:38:26Z</time>
      </trkpt>
      <trkpt lat="44.15508" lon="6.65904">
        <ele>1667.6</ele>
        <time>2022-09-17T23:38:27Z</time>
      </trkpt>
      <trkpt lat="44.15508" lon="6.65909">
        <ele>1668</ele>
        <time>2022-09-17T23:38:29Z</time>
      </trkpt>
      <trkpt lat="44.15508" lon="6.65913">
        <ele>1668.3</ele>
        <time>2022-09-17T23:38:30Z</time>
      </trkpt>
      <trkpt lat="44.15508" lon="6.65917">
        <ele>1668.5</ele>
        <time>2022-09-17T23:38:31Z</time>
      </trkpt>
      <trkpt lat="44.15507" lon="6.65922">
        <ele>1668.9</ele>
        <time>2022-09-17T23:38:32Z</time>
      </trkpt>
      <trkpt lat="44.15508" lon="6.65926">
        <ele>1669.1</ele>
        <time>2022-09-17T23:38:33Z</time>
      </trkpt>
      <trkpt lat="44.15508" lon="6.65933">
        <ele>1669.5</ele>
        <time>2022-09-17T23:38:34Z</time>
      </trkpt>
      <trkpt lat="44.15509" lon="6.65937">
        <ele>1669.7</ele>
        <time>2022-09-17T23:38:36Z</time>
      </trkpt>
      <trkpt lat="44.1551" lon="6.65941">
        <ele>1670</ele>
        <time>2022-09-17T23:38:37Z</time>
      </trkpt>
      <trkpt lat="44.15511" lon="6.65945">
        <ele>1670.2</ele>
        <time>2022-09-17T23:38:38Z</time>
      </trkpt>
      <trkpt lat="44.15512" lon="6.6595">
        <ele>1670.4</ele>
        <time>2022-09-17T23:38:39Z</time>
      </trkpt>
      <trkpt lat="44.15514" lon="6.65956">
        <ele>1670.7</ele>
        <time>2022-09-17T23:38:41Z</time>
      </trkpt>
      <trkpt lat="44.15515" lon="6.6596">
        <ele>1670.9</ele>
        <time>2022-09-17T23:38:42Z</time>
      </trkpt>
      <trkpt lat="44.15516" lon="6.65968">
        <ele>1671.2</ele>
        <time>2022-09-17T23:38:43Z</time>
      </trkpt>
      <trkpt lat="44.15517" lon="6.65972">
        <ele>1671.4</ele>
        <time>2022-09-17T23:38:45Z</time>
      </trkpt>
      <trkpt lat="44.15519" lon="6.65979">
        <ele>1671.6</ele>
        <time>2022-09-17T23:38:46Z</time>
      </trkpt>
      <trkpt lat="44.1552" lon="6.65985">
        <ele>1671.9</ele>
        <time>2022-09-17T23:38:48Z</time>
      </trkpt>
      <trkpt lat="44.15521" lon="6.6599">
        <ele>1672.1</ele>
        <time>2022-09-17T23:38:49Z</time>
      </trkpt>
      <trkpt lat="44.15522" lon="6.65995">
        <ele>1672.3</ele>
        <time>2022-09-17T23:38:50Z</time>
      </trkpt>
      <trkpt lat="44.15522" lon="6.66">
        <ele>1672.5</ele>
        <time>2022-09-17T23:38:51Z</time>
      </trkpt>
      <trkpt lat="44.15523" lon="6.66005">
        <ele>1672.7</ele>
        <time>2022-09-17T23:38:52Z</time>
      </trkpt>
      <trkpt lat="44.15524" lon="6.6601">
        <ele>1673</ele>
        <time>2022-09-17T23:38:53Z</time>
      </trkpt>
      <trkpt lat="44.15525" lon="6.66015">
        <ele>1673.2</ele>
        <time>2022-09-17T23:38:54Z</time>
      </trkpt>
      <trkpt lat="44.15526" lon="6.66021">
        <ele>1673.5</ele>
        <time>2022-09-17T23:38:55Z</time>
      </trkpt>
      <trkpt lat="44.15526" lon="6.66026">
        <ele>1673.7</ele>
        <time>2022-09-17T23:38:56Z</time>
      </trkpt>
      <trkpt lat="44.15527" lon="6.66031">
        <ele>1674</ele>
        <time>2022-09-17T23:38:58Z</time>
      </trkpt>
      <trkpt lat="44.15527" lon="6.66035">
        <ele>1674.2</ele>
        <time>2022-09-17T23:38:59Z</time>
      </trkpt>
      <trkpt lat="44.15527" lon="6.6604">
        <ele>1674.4</ele>
        <time>2022-09-17T23:39:00Z</time>
      </trkpt>
      <trkpt lat="44.15527" lon="6.66045">
        <ele>1674.6</ele>
        <time>2022-09-17T23:39:01Z</time>
      </trkpt>
      <trkpt lat="44.15528" lon="6.66051">
        <ele>1674.9</ele>
        <time>2022-09-17T23:39:02Z</time>
      </trkpt>
      <trkpt lat="44.15529" lon="6.66057">
        <ele>1675.3</ele>
        <time>2022-09-17T23:39:03Z</time>
      </trkpt>
      <trkpt lat="44.15529" lon="6.66062">
        <ele>1675.6</ele>
        <time>2022-09-17T23:39:05Z</time>
      </trkpt>
      <trkpt lat="44.15529" lon="6.66068">
        <ele>1675.8</ele>
        <time>2022-09-17T23:39:06Z</time>
      </trkpt>
      <trkpt lat="44.1553" lon="6.66073">
        <ele>1676.2</ele>
        <time>2022-09-17T23:39:07Z</time>
      </trkpt>
      <trkpt lat="44.1553" lon="6.66078">
        <ele>1676.5</ele>
        <time>2022-09-17T23:39:09Z</time>
      </trkpt>
      <trkpt lat="44.1553" lon="6.66085">
        <ele>1676.9</ele>
        <time>2022-09-17T23:39:10Z</time>
      </trkpt>
      <trkpt lat="44.1553" lon="6.66089">
        <ele>1677.2</ele>
        <time>2022-09-17T23:39:11Z</time>
      </trkpt>
      <trkpt lat="44.15529" lon="6.66094">
        <ele>1677.5</ele>
        <time>2022-09-17T23:39:13Z</time>
      </trkpt>
      <trkpt lat="44.15529" lon="6.66099">
        <ele>1677.8</ele>
        <time>2022-09-17T23:39:14Z</time>
      </trkpt>
      <trkpt lat="44.15529" lon="6.66104">
        <ele>1678.1</ele>
        <time>2022-09-17T23:39:15Z</time>
      </trkpt>
      <trkpt lat="44.15528" lon="6.66113">
        <ele>1678.6</ele>
        <time>2022-09-17T23:39:16Z</time>
      </trkpt>
      <trkpt lat="44.15526" lon="6.66119">
        <ele>1679</ele>
        <time>2022-09-17T23:39:18Z</time>
      </trkpt>
      <trkpt lat="44.15524" lon="6.66127">
        <ele>1679.5</ele>
        <time>2022-09-17T23:39:19Z</time>
      </trkpt>
      <trkpt lat="44.15523" lon="6.66135">
        <ele>1679.9</ele>
        <time>2022-09-17T23:39:21Z</time>
      </trkpt>
      <trkpt lat="44.1552" lon="6.66142">
        <ele>1680.3</ele>
        <time>2022-09-17T23:39:23Z</time>
      </trkpt>
      <trkpt lat="44.15517" lon="6.66148">
        <ele>1680.5</ele>
        <time>2022-09-17T23:39:25Z</time>
      </trkpt>
      <trkpt lat="44.15517" lon="6.6615">
        <ele>1680.6</ele>
        <time>2022-09-17T23:39:26Z</time>
      </trkpt>
      <trkpt lat="44.15515" lon="6.66157">
        <ele>1680.8</ele>
        <time>2022-09-17T23:39:28Z</time>
      </trkpt>
      <trkpt lat="44.15514" lon="6.66161">
        <ele>1681</ele>
        <time>2022-09-17T23:39:29Z</time>
      </trkpt>
      <trkpt lat="44.15513" lon="6.66163">
        <ele>1681</ele>
        <time>2022-09-17T23:39:30Z</time>
      </trkpt>
      <trkpt lat="44.15511" lon="6.66169">
        <ele>1681.1</ele>
        <time>2022-09-17T23:39:31Z</time>
      </trkpt>
      <trkpt lat="44.15509" lon="6.66172">
        <ele>1681.2</ele>
        <time>2022-09-17T23:39:32Z</time>
      </trkpt>
      <trkpt lat="44.15507" lon="6.66178">
        <ele>1681.2</ele>
        <time>2022-09-17T23:39:34Z</time>
      </trkpt>
      <trkpt lat="44.15504" lon="6.66186">
        <ele>1681.2</ele>
        <time>2022-09-17T23:39:37Z</time>
      </trkpt>
      <trkpt lat="44.15502" lon="6.6619">
        <ele>1681.1</ele>
        <time>2022-09-17T23:39:38Z</time>
      </trkpt>
      <trkpt lat="44.155" lon="6.66196">
        <ele>1681.1</ele>
        <time>2022-09-17T23:39:39Z</time>
      </trkpt>
      <trkpt lat="44.15498" lon="6.66202">
        <ele>1680.9</ele>
        <time>2022-09-17T23:39:40Z</time>
      </trkpt>
      <trkpt lat="44.15495" lon="6.66208">
        <ele>1680.8</ele>
        <time>2022-09-17T23:39:41Z</time>
      </trkpt>
      <trkpt lat="44.15489" lon="6.66217">
        <ele>1680.6</ele>
        <time>2022-09-17T23:39:42Z</time>
      </trkpt>
      <trkpt lat="44.15485" lon="6.66223">
        <ele>1680.5</ele>
        <time>2022-09-17T23:39:43Z</time>
      </trkpt>
      <trkpt lat="44.15481" lon="6.66229">
        <ele>1680.4</ele>
        <time>2022-09-17T23:39:44Z</time>
      </trkpt>
      <trkpt lat="44.15477" lon="6.66234">
        <ele>1680.3</ele>
        <time>2022-09-17T23:39:45Z</time>
      </trkpt>
      <trkpt lat="44.15473" lon="6.66239">
        <ele>1680.3</ele>
        <time>2022-09-17T23:39:46Z</time>
      </trkpt>
      <trkpt lat="44.15469" lon="6.66242">
        <ele>1680.3</ele>
        <time>2022-09-17T23:39:47Z</time>
      </trkpt>
      <trkpt lat="44.15464" lon="6.66244">
        <ele>1680.3</ele>
        <time>2022-09-17T23:39:48Z</time>
      </trkpt>
      <trkpt lat="44.15461" lon="6.66244">
        <ele>1680.3</ele>
        <time>2022-09-17T23:39:49Z</time>
      </trkpt>
      <trkpt lat="44.15456" lon="6.66248">
        <ele>1680.4</ele>
        <time>2022-09-17T23:39:50Z</time>
      </trkpt>
      <trkpt lat="44.15453" lon="6.66253">
        <ele>1680.4</ele>
        <time>2022-09-17T23:39:51Z</time>
      </trkpt>
      <trkpt lat="44.1545" lon="6.66257">
        <ele>1680.5</ele>
        <time>2022-09-17T23:39:52Z</time>
      </trkpt>
      <trkpt lat="44.15447" lon="6.66262">
        <ele>1680.6</ele>
        <time>2022-09-17T23:39:53Z</time>
      </trkpt>
      <trkpt lat="44.15445" lon="6.66266">
        <ele>1680.6</ele>
        <time>2022-09-17T23:39:54Z</time>
      </trkpt>
      <trkpt lat="44.15442" lon="6.6627">
        <ele>1680.7</ele>
        <time>2022-09-17T23:39:55Z</time>
      </trkpt>
      <trkpt lat="44.15437" lon="6.66272">
        <ele>1680.9</ele>
        <time>2022-09-17T23:39:56Z</time>
      </trkpt>
      <trkpt lat="44.15432" lon="6.66277">
        <ele>1681</ele>
        <time>2022-09-17T23:39:57Z</time>
      </trkpt>
      <trkpt lat="44.15429" lon="6.66282">
        <ele>1681.2</ele>
        <time>2022-09-17T23:39:58Z</time>
      </trkpt>
      <trkpt lat="44.15425" lon="6.66288">
        <ele>1681.4</ele>
        <time>2022-09-17T23:40:00Z</time>
      </trkpt>
      <trkpt lat="44.15422" lon="6.66292">
        <ele>1681.5</ele>
        <time>2022-09-17T23:40:01Z</time>
      </trkpt>
      <trkpt lat="44.15419" lon="6.66296">
        <ele>1681.7</ele>
        <time>2022-09-17T23:40:02Z</time>
      </trkpt>
      <trkpt lat="44.15415" lon="6.66303">
        <ele>1681.9</ele>
        <time>2022-09-17T23:40:03Z</time>
      </trkpt>
      <trkpt lat="44.15412" lon="6.66308">
        <ele>1682</ele>
        <time>2022-09-17T23:40:04Z</time>
      </trkpt>
      <trkpt lat="44.15409" lon="6.66312">
        <ele>1682.2</ele>
        <time>2022-09-17T23:40:05Z</time>
      </trkpt>
      <trkpt lat="44.15405" lon="6.66317">
        <ele>1682.3</ele>
        <time>2022-09-17T23:40:06Z</time>
      </trkpt>
      <trkpt lat="44.15401" lon="6.66323">
        <ele>1682.5</ele>
        <time>2022-09-17T23:40:08Z</time>
      </trkpt>
      <trkpt lat="44.15398" lon="6.66326">
        <ele>1682.6</ele>
        <time>2022-09-17T23:40:09Z</time>
      </trkpt>
      <trkpt lat="44.15395" lon="6.66331">
        <ele>1682.7</ele>
        <time>2022-09-17T23:40:10Z</time>
      </trkpt>
      <trkpt lat="44.15392" lon="6.66337">
        <ele>1682.9</ele>
        <time>2022-09-17T23:40:11Z</time>
      </trkpt>
      <trkpt lat="44.15388" lon="6.66342">
        <ele>1683.1</ele>
        <time>2022-09-17T23:40:13Z</time>
      </trkpt>
      <trkpt lat="44.15385" lon="6.66347">
        <ele>1683.2</ele>
        <time>2022-09-17T23:40:14Z</time>
      </trkpt>
      <trkpt lat="44.15381" lon="6.66352">
        <ele>1683.4</ele>
        <time>2022-09-17T23:40:15Z</time>
      </trkpt>
      <trkpt lat="44.15377" lon="6.66357">
        <ele>1683.6</ele>
        <time>2022-09-17T23:40:17Z</time>
      </trkpt>
      <trkpt lat="44.1537" lon="6.66363">
        <ele>1683.9</ele>
        <time>2022-09-17T23:40:19Z</time>
      </trkpt>
      <trkpt lat="44.15364" lon="6.66367">
        <ele>1684.1</ele>
        <time>2022-09-17T23:40:20Z</time>
      </trkpt>
      <trkpt lat="44.15358" lon="6.66373">
        <ele>1684.4</ele>
        <time>2022-09-17T23:40:22Z</time>
      </trkpt>
      <trkpt lat="44.15354" lon="6.66378">
        <ele>1684.6</ele>
        <time>2022-09-17T23:40:23Z</time>
      </trkpt>
      <trkpt lat="44.15351" lon="6.66382">
        <ele>1684.8</ele>
        <time>2022-09-17T23:40:24Z</time>
      </trkpt>
      <trkpt lat="44.15347" lon="6.66387">
        <ele>1684.9</ele>
        <time>2022-09-17T23:40:25Z</time>
      </trkpt>
      <trkpt lat="44.15344" lon="6.66392">
        <ele>1685.1</ele>
        <time>2022-09-17T23:40:26Z</time>
      </trkpt>
      <trkpt lat="44.15341" lon="6.66396">
        <ele>1685.3</ele>
        <time>2022-09-17T23:40:27Z</time>
      </trkpt>
      <trkpt lat="44.1534" lon="6.66399">
        <ele>1685.4</ele>
        <time>2022-09-17T23:40:28Z</time>
      </trkpt>
      <trkpt lat="44.15336" lon="6.66404">
        <ele>1685.7</ele>
        <time>2022-09-17T23:40:29Z</time>
      </trkpt>
      <trkpt lat="44.15333" lon="6.66409">
        <ele>1685.9</ele>
        <time>2022-09-17T23:40:30Z</time>
      </trkpt>
      <trkpt lat="44.15323" lon="6.66417">
        <ele>1686.4</ele>
        <time>2022-09-17T23:40:32Z</time>
      </trkpt>
      <trkpt lat="44.1532" lon="6.66419">
        <ele>1686.6</ele>
        <time>2022-09-17T23:40:33Z</time>
      </trkpt>
      <trkpt lat="44.15316" lon="6.66421">
        <ele>1686.8</ele>
        <time>2022-09-17T23:40:34Z</time>
      </trkpt>
      <trkpt lat="44.15314" lon="6.66426">
        <ele>1686.9</ele>
        <time>2022-09-17T23:40:36Z</time>
      </trkpt>
      <trkpt lat="44.15314" lon="6.66431">
        <ele>1687.1</ele>
        <time>2022-09-17T23:40:37Z</time>
      </trkpt>
      <trkpt lat="44.15315" lon="6.66439">
        <ele>1687.1</ele>
        <time>2022-09-17T23:40:39Z</time>
      </trkpt>
      <trkpt lat="44.15316" lon="6.66443">
        <ele>1687</ele>
        <time>2022-09-17T23:40:40Z</time>
      </trkpt>
      <trkpt lat="44.15317" lon="6.66447">
        <ele>1687</ele>
        <time>2022-09-17T23:40:41Z</time>
      </trkpt>
      <trkpt lat="44.15318" lon="6.66453">
        <ele>1687</ele>
        <time>2022-09-17T23:40:42Z</time>
      </trkpt>
      <trkpt lat="44.15318" lon="6.6646">
        <ele>1687.1</ele>
        <time>2022-09-17T23:40:43Z</time>
      </trkpt>
      <trkpt lat="44.15317" lon="6.66466">
        <ele>1687.1</ele>
        <time>2022-09-17T23:40:45Z</time>
      </trkpt>
      <trkpt lat="44.15316" lon="6.66472">
        <ele>1687.2</ele>
        <time>2022-09-17T23:40:46Z</time>
      </trkpt>
      <trkpt lat="44.15315" lon="6.66479">
        <ele>1687.2</ele>
        <time>2022-09-17T23:40:47Z</time>
      </trkpt>
      <trkpt lat="44.15314" lon="6.66486">
        <ele>1687.3</ele>
        <time>2022-09-17T23:40:48Z</time>
      </trkpt>
      <trkpt lat="44.15315" lon="6.66492">
        <ele>1687.4</ele>
        <time>2022-09-17T23:40:49Z</time>
      </trkpt>
      <trkpt lat="44.15316" lon="6.66499">
        <ele>1687.6</ele>
        <time>2022-09-17T23:40:50Z</time>
      </trkpt>
      <trkpt lat="44.15316" lon="6.66505">
        <ele>1687.7</ele>
        <time>2022-09-17T23:40:51Z</time>
      </trkpt>
      <trkpt lat="44.15316" lon="6.66512">
        <ele>1687.8</ele>
        <time>2022-09-17T23:40:53Z</time>
      </trkpt>
      <trkpt lat="44.15318" lon="6.66518">
        <ele>1688</ele>
        <time>2022-09-17T23:40:54Z</time>
      </trkpt>
      <trkpt lat="44.1532" lon="6.66526">
        <ele>1688.3</ele>
        <time>2022-09-17T23:40:55Z</time>
      </trkpt>
      <trkpt lat="44.15321" lon="6.66533">
        <ele>1688.6</ele>
        <time>2022-09-17T23:40:56Z</time>
      </trkpt>
      <trkpt lat="44.15322" lon="6.66539">
        <ele>1689</ele>
        <time>2022-09-17T23:40:58Z</time>
      </trkpt>
      <trkpt lat="44.15321" lon="6.66545">
        <ele>1689.1</ele>
        <time>2022-09-17T23:40:59Z</time>
      </trkpt>
      <trkpt lat="44.1532" lon="6.66552">
        <ele>1689.4</ele>
        <time>2022-09-17T23:41:01Z</time>
      </trkpt>
      <trkpt lat="44.15319" lon="6.66557">
        <ele>1689.7</ele>
        <time>2022-09-17T23:41:02Z</time>
      </trkpt>
      <trkpt lat="44.15318" lon="6.6656">
        <ele>1689.8</ele>
        <time>2022-09-17T23:41:03Z</time>
      </trkpt>
      <trkpt lat="44.15317" lon="6.66565">
        <ele>1690</ele>
        <time>2022-09-17T23:41:04Z</time>
      </trkpt>
      <trkpt lat="44.15315" lon="6.66571">
        <ele>1690.3</ele>
        <time>2022-09-17T23:41:05Z</time>
      </trkpt>
      <trkpt lat="44.15314" lon="6.66577">
        <ele>1690.7</ele>
        <time>2022-09-17T23:41:07Z</time>
      </trkpt>
      <trkpt lat="44.15313" lon="6.66583">
        <ele>1691</ele>
        <time>2022-09-17T23:41:08Z</time>
      </trkpt>
      <trkpt lat="44.15313" lon="6.66589">
        <ele>1691.3</ele>
        <time>2022-09-17T23:41:09Z</time>
      </trkpt>
      <trkpt lat="44.15314" lon="6.66591">
        <ele>1691.5</ele>
        <time>2022-09-17T23:41:10Z</time>
      </trkpt>
      <trkpt lat="44.15314" lon="6.66596">
        <ele>1691.8</ele>
        <time>2022-09-17T23:41:11Z</time>
      </trkpt>
      <trkpt lat="44.15315" lon="6.66601">
        <ele>1692.2</ele>
        <time>2022-09-17T23:41:12Z</time>
      </trkpt>
      <trkpt lat="44.15315" lon="6.66608">
        <ele>1692.6</ele>
        <time>2022-09-17T23:41:13Z</time>
      </trkpt>
      <trkpt lat="44.15314" lon="6.66614">
        <ele>1693.2</ele>
        <time>2022-09-17T23:41:14Z</time>
      </trkpt>
      <trkpt lat="44.15312" lon="6.6662">
        <ele>1693.7</ele>
        <time>2022-09-17T23:41:16Z</time>
      </trkpt>
      <trkpt lat="44.15312" lon="6.66625">
        <ele>1694.1</ele>
        <time>2022-09-17T23:41:17Z</time>
      </trkpt>
      <trkpt lat="44.1531" lon="6.66631">
        <ele>1694.5</ele>
        <time>2022-09-17T23:41:18Z</time>
      </trkpt>
      <trkpt lat="44.15309" lon="6.66637">
        <ele>1695</ele>
        <time>2022-09-17T23:41:19Z</time>
      </trkpt>
      <trkpt lat="44.15308" lon="6.66641">
        <ele>1695.3</ele>
        <time>2022-09-17T23:41:20Z</time>
      </trkpt>
      <trkpt lat="44.15306" lon="6.66646">
        <ele>1695.7</ele>
        <time>2022-09-17T23:41:21Z</time>
      </trkpt>
      <trkpt lat="44.15305" lon="6.66652">
        <ele>1696.1</ele>
        <time>2022-09-17T23:41:23Z</time>
      </trkpt>
      <trkpt lat="44.15304" lon="6.66657">
        <ele>1696.4</ele>
        <time>2022-09-17T23:41:24Z</time>
      </trkpt>
      <trkpt lat="44.15303" lon="6.66662">
        <ele>1696.8</ele>
        <time>2022-09-17T23:41:25Z</time>
      </trkpt>
      <trkpt lat="44.15302" lon="6.66667">
        <ele>1697.1</ele>
        <time>2022-09-17T23:41:26Z</time>
      </trkpt>
      <trkpt lat="44.153" lon="6.66672">
        <ele>1697.4</ele>
        <time>2022-09-17T23:41:27Z</time>
      </trkpt>
      <trkpt lat="44.15299" lon="6.66678">
        <ele>1697.7</ele>
        <time>2022-09-17T23:41:29Z</time>
      </trkpt>
      <trkpt lat="44.15298" lon="6.66682">
        <ele>1697.9</ele>
        <time>2022-09-17T23:41:30Z</time>
      </trkpt>
      <trkpt lat="44.15297" lon="6.66687">
        <ele>1698.1</ele>
        <time>2022-09-17T23:41:31Z</time>
      </trkpt>
      <trkpt lat="44.15296" lon="6.66692">
        <ele>1698.2</ele>
        <time>2022-09-17T23:41:32Z</time>
      </trkpt>
      <trkpt lat="44.15296" lon="6.66697">
        <ele>1698.3</ele>
        <time>2022-09-17T23:41:33Z</time>
      </trkpt>
      <trkpt lat="44.15296" lon="6.66703">
        <ele>1698.5</ele>
        <time>2022-09-17T23:41:35Z</time>
      </trkpt>
      <trkpt lat="44.15297" lon="6.66708">
        <ele>1698.5</ele>
        <time>2022-09-17T23:41:36Z</time>
      </trkpt>
      <trkpt lat="44.15297" lon="6.66713">
        <ele>1698.6</ele>
        <time>2022-09-17T23:41:37Z</time>
      </trkpt>
      <trkpt lat="44.15297" lon="6.66719">
        <ele>1698.7</ele>
        <time>2022-09-17T23:41:38Z</time>
      </trkpt>
      <trkpt lat="44.15296" lon="6.66724">
        <ele>1698.7</ele>
        <time>2022-09-17T23:41:39Z</time>
      </trkpt>
      <trkpt lat="44.15294" lon="6.66728">
        <ele>1698.7</ele>
        <time>2022-09-17T23:41:40Z</time>
      </trkpt>
      <trkpt lat="44.15292" lon="6.66733">
        <ele>1698.8</ele>
        <time>2022-09-17T23:41:41Z</time>
      </trkpt>
      <trkpt lat="44.15288" lon="6.66738">
        <ele>1698.8</ele>
        <time>2022-09-17T23:41:42Z</time>
      </trkpt>
      <trkpt lat="44.15285" lon="6.66743">
        <ele>1698.9</ele>
        <time>2022-09-17T23:41:44Z</time>
      </trkpt>
      <trkpt lat="44.15281" lon="6.66746">
        <ele>1698.9</ele>
        <time>2022-09-17T23:41:45Z</time>
      </trkpt>
      <trkpt lat="44.15277" lon="6.66749">
        <ele>1698.9</ele>
        <time>2022-09-17T23:41:46Z</time>
      </trkpt>
      <trkpt lat="44.15273" lon="6.66753">
        <ele>1699</ele>
        <time>2022-09-17T23:41:47Z</time>
      </trkpt>
      <trkpt lat="44.15269" lon="6.66756">
        <ele>1699</ele>
        <time>2022-09-17T23:41:49Z</time>
      </trkpt>
      <trkpt lat="44.15266" lon="6.66759">
        <ele>1699.1</ele>
        <time>2022-09-17T23:41:50Z</time>
      </trkpt>
      <trkpt lat="44.15263" lon="6.66763">
        <ele>1699.1</ele>
        <time>2022-09-17T23:41:51Z</time>
      </trkpt>
      <trkpt lat="44.15258" lon="6.66769">
        <ele>1699.2</ele>
        <time>2022-09-17T23:41:52Z</time>
      </trkpt>
      <trkpt lat="44.15256" lon="6.66775">
        <ele>1699.3</ele>
        <time>2022-09-17T23:41:53Z</time>
      </trkpt>
      <trkpt lat="44.15254" lon="6.66781">
        <ele>1699.5</ele>
        <time>2022-09-17T23:41:55Z</time>
      </trkpt>
      <trkpt lat="44.15254" lon="6.6679">
        <ele>1699.6</ele>
        <time>2022-09-17T23:41:56Z</time>
      </trkpt>
      <trkpt lat="44.15255" lon="6.66797">
        <ele>1699.8</ele>
        <time>2022-09-17T23:41:58Z</time>
      </trkpt>
      <trkpt lat="44.15255" lon="6.66804">
        <ele>1699.8</ele>
        <time>2022-09-17T23:41:59Z</time>
      </trkpt>
      <trkpt lat="44.15255" lon="6.6681">
        <ele>1699.8</ele>
        <time>2022-09-17T23:42:01Z</time>
      </trkpt>
      <trkpt lat="44.15254" lon="6.66815">
        <ele>1699.8</ele>
        <time>2022-09-17T23:42:02Z</time>
      </trkpt>
      <trkpt lat="44.15252" lon="6.66818">
        <ele>1699.7</ele>
        <time>2022-09-17T23:42:03Z</time>
      </trkpt>
      <trkpt lat="44.15251" lon="6.66824">
        <ele>1699.6</ele>
        <time>2022-09-17T23:42:04Z</time>
      </trkpt>
      <trkpt lat="44.15248" lon="6.66833">
        <ele>1699.3</ele>
        <time>2022-09-17T23:42:06Z</time>
      </trkpt>
      <trkpt lat="44.15245" lon="6.66839">
        <ele>1699</ele>
        <time>2022-09-17T23:42:07Z</time>
      </trkpt>
      <trkpt lat="44.15242" lon="6.66846">
        <ele>1698.7</ele>
        <time>2022-09-17T23:42:08Z</time>
      </trkpt>
      <trkpt lat="44.15238" lon="6.66853">
        <ele>1698.5</ele>
        <time>2022-09-17T23:42:09Z</time>
      </trkpt>
      <trkpt lat="44.15234" lon="6.66859">
        <ele>1698.3</ele>
        <time>2022-09-17T23:42:10Z</time>
      </trkpt>
      <trkpt lat="44.15229" lon="6.66865">
        <ele>1698.2</ele>
        <time>2022-09-17T23:42:11Z</time>
      </trkpt>
      <trkpt lat="44.15224" lon="6.6687">
        <ele>1698.2</ele>
        <time>2022-09-17T23:42:12Z</time>
      </trkpt>
      <trkpt lat="44.15219" lon="6.66874">
        <ele>1698.2</ele>
        <time>2022-09-17T23:42:13Z</time>
      </trkpt>
      <trkpt lat="44.15216" lon="6.66878">
        <ele>1698.2</ele>
        <time>2022-09-17T23:42:14Z</time>
      </trkpt>
      <trkpt lat="44.15212" lon="6.66883">
        <ele>1698.4</ele>
        <time>2022-09-17T23:42:15Z</time>
      </trkpt>
      <trkpt lat="44.1521" lon="6.66887">
        <ele>1698.4</ele>
        <time>2022-09-17T23:42:16Z</time>
      </trkpt>
      <trkpt lat="44.15208" lon="6.6689">
        <ele>1698.5</ele>
        <time>2022-09-17T23:42:17Z</time>
      </trkpt>
      <trkpt lat="44.15205" lon="6.66894">
        <ele>1698.7</ele>
        <time>2022-09-17T23:42:18Z</time>
      </trkpt>
      <trkpt lat="44.15203" lon="6.66899">
        <ele>1698.9</ele>
        <time>2022-09-17T23:42:19Z</time>
      </trkpt>
      <trkpt lat="44.15201" lon="6.66905">
        <ele>1699.1</ele>
        <time>2022-09-17T23:42:20Z</time>
      </trkpt>
      <trkpt lat="44.15199" lon="6.66912">
        <ele>1699.5</ele>
        <time>2022-09-17T23:42:21Z</time>
      </trkpt>
      <trkpt lat="44.15197" lon="6.66917">
        <ele>1699.8</ele>
        <time>2022-09-17T23:42:22Z</time>
      </trkpt>
      <trkpt lat="44.15193" lon="6.66923">
        <ele>1700.2</ele>
        <time>2022-09-17T23:42:24Z</time>
      </trkpt>
      <trkpt lat="44.15191" lon="6.66927">
        <ele>1700.4</ele>
        <time>2022-09-17T23:42:25Z</time>
      </trkpt>
      <trkpt lat="44.15188" lon="6.66933">
        <ele>1700.8</ele>
        <time>2022-09-17T23:42:26Z</time>
      </trkpt>
      <trkpt lat="44.15185" lon="6.66936">
        <ele>1701</ele>
        <time>2022-09-17T23:42:28Z</time>
      </trkpt>
      <trkpt lat="44.15183" lon="6.66939">
        <ele>1701.2</ele>
        <time>2022-09-17T23:42:29Z</time>
      </trkpt>
      <trkpt lat="44.1518" lon="6.66942">
        <ele>1701.4</ele>
        <time>2022-09-17T23:42:30Z</time>
      </trkpt>
      <trkpt lat="44.15177" lon="6.66946">
        <ele>1701.7</ele>
        <time>2022-09-17T23:42:31Z</time>
      </trkpt>
      <trkpt lat="44.15175" lon="6.66952">
        <ele>1701.9</ele>
        <time>2022-09-17T23:42:33Z</time>
      </trkpt>
      <trkpt lat="44.15173" lon="6.66957">
        <ele>1702.2</ele>
        <time>2022-09-17T23:42:34Z</time>
      </trkpt>
      <trkpt lat="44.15171" lon="6.66962">
        <ele>1702.4</ele>
        <time>2022-09-17T23:42:35Z</time>
      </trkpt>
      <trkpt lat="44.1517" lon="6.66965">
        <ele>1702.5</ele>
        <time>2022-09-17T23:42:36Z</time>
      </trkpt>
      <trkpt lat="44.15168" lon="6.66971">
        <ele>1702.7</ele>
        <time>2022-09-17T23:42:38Z</time>
      </trkpt>
      <trkpt lat="44.15167" lon="6.66974">
        <ele>1702.9</ele>
        <time>2022-09-17T23:42:39Z</time>
      </trkpt>
      <trkpt lat="44.15165" lon="6.66977">
        <ele>1703</ele>
        <time>2022-09-17T23:42:40Z</time>
      </trkpt>
      <trkpt lat="44.15163" lon="6.66983">
        <ele>1703.2</ele>
        <time>2022-09-17T23:42:41Z</time>
      </trkpt>
      <trkpt lat="44.1516" lon="6.66988">
        <ele>1703.4</ele>
        <time>2022-09-17T23:42:42Z</time>
      </trkpt>
      <trkpt lat="44.15157" lon="6.66994">
        <ele>1703.6</ele>
        <time>2022-09-17T23:42:44Z</time>
      </trkpt>
      <trkpt lat="44.15154" lon="6.66998">
        <ele>1703.8</ele>
        <time>2022-09-17T23:42:45Z</time>
      </trkpt>
      <trkpt lat="44.15151" lon="6.67002">
        <ele>1704</ele>
        <time>2022-09-17T23:42:46Z</time>
      </trkpt>
      <trkpt lat="44.15147" lon="6.67007">
        <ele>1704.3</ele>
        <time>2022-09-17T23:42:47Z</time>
      </trkpt>
      <trkpt lat="44.15146" lon="6.67011">
        <ele>1704.5</ele>
        <time>2022-09-17T23:42:48Z</time>
      </trkpt>
      <trkpt lat="44.15144" lon="6.67015">
        <ele>1704.7</ele>
        <time>2022-09-17T23:42:50Z</time>
      </trkpt>
      <trkpt lat="44.15142" lon="6.67018">
        <ele>1704.8</ele>
        <time>2022-09-17T23:42:51Z</time>
      </trkpt>
      <trkpt lat="44.1514" lon="6.67023">
        <ele>1705.1</ele>
        <time>2022-09-17T23:42:52Z</time>
      </trkpt>
      <trkpt lat="44.15139" lon="6.67027">
        <ele>1705.4</ele>
        <time>2022-09-17T23:42:53Z</time>
      </trkpt>
      <trkpt lat="44.15138" lon="6.67032">
        <ele>1705.6</ele>
        <time>2022-09-17T23:42:54Z</time>
      </trkpt>
      <trkpt lat="44.15136" lon="6.67037">
        <ele>1706</ele>
        <time>2022-09-17T23:42:55Z</time>
      </trkpt>
      <trkpt lat="44.15135" lon="6.67042">
        <ele>1706.3</ele>
        <time>2022-09-17T23:42:56Z</time>
      </trkpt>
      <trkpt lat="44.15135" lon="6.67048">
        <ele>1706.7</ele>
        <time>2022-09-17T23:42:58Z</time>
      </trkpt>
      <trkpt lat="44.15136" lon="6.67054">
        <ele>1707.1</ele>
        <time>2022-09-17T23:42:59Z</time>
      </trkpt>
      <trkpt lat="44.15137" lon="6.6706">
        <ele>1707.6</ele>
        <time>2022-09-17T23:43:01Z</time>
      </trkpt>
      <trkpt lat="44.15138" lon="6.67066">
        <ele>1708</ele>
        <time>2022-09-17T23:43:02Z</time>
      </trkpt>
      <trkpt lat="44.15139" lon="6.6707">
        <ele>1708.3</ele>
        <time>2022-09-17T23:43:03Z</time>
      </trkpt>
      <trkpt lat="44.15142" lon="6.67075">
        <ele>1708.8</ele>
        <time>2022-09-17T23:43:04Z</time>
      </trkpt>
      <trkpt lat="44.15144" lon="6.67079">
        <ele>1709.1</ele>
        <time>2022-09-17T23:43:05Z</time>
      </trkpt>
      <trkpt lat="44.15145" lon="6.67081">
        <ele>1709.2</ele>
        <time>2022-09-17T23:43:06Z</time>
      </trkpt>
      <trkpt lat="44.15146" lon="6.67086">
        <ele>1709.5</ele>
        <time>2022-09-17T23:43:08Z</time>
      </trkpt>
      <trkpt lat="44.15148" lon="6.67088">
        <ele>1709.7</ele>
        <time>2022-09-17T23:43:09Z</time>
      </trkpt>
      <trkpt lat="44.15151" lon="6.67089">
        <ele>1709.9</ele>
        <time>2022-09-17T23:43:10Z</time>
      </trkpt>
      <trkpt lat="44.15154" lon="6.67089">
        <ele>1710.1</ele>
        <time>2022-09-17T23:43:11Z</time>
      </trkpt>
      <trkpt lat="44.15155" lon="6.67091">
        <ele>1710.2</ele>
        <time>2022-09-17T23:43:12Z</time>
      </trkpt>
      <trkpt lat="44.15158" lon="6.67095">
        <ele>1710.4</ele>
        <time>2022-09-17T23:43:14Z</time>
      </trkpt>
      <trkpt lat="44.15161" lon="6.67101">
        <ele>1710.8</ele>
        <time>2022-09-17T23:43:15Z</time>
      </trkpt>
      <trkpt lat="44.15165" lon="6.67105">
        <ele>1711.1</ele>
        <time>2022-09-17T23:43:16Z</time>
      </trkpt>
      <trkpt lat="44.15169" lon="6.6711">
        <ele>1711.5</ele>
        <time>2022-09-17T23:43:18Z</time>
      </trkpt>
      <trkpt lat="44.15174" lon="6.6712">
        <ele>1712.1</ele>
        <time>2022-09-17T23:43:19Z</time>
      </trkpt>
      <trkpt lat="44.15176" lon="6.67126">
        <ele>1712.5</ele>
        <time>2022-09-17T23:43:21Z</time>
      </trkpt>
      <trkpt lat="44.15176" lon="6.67128">
        <ele>1712.6</ele>
        <time>2022-09-17T23:43:22Z</time>
      </trkpt>
      <trkpt lat="44.15176" lon="6.67131">
        <ele>1712.7</ele>
        <time>2022-09-17T23:43:23Z</time>
      </trkpt>
      <trkpt lat="44.15176" lon="6.67135">
        <ele>1712.8</ele>
        <time>2022-09-17T23:43:24Z</time>
      </trkpt>
      <trkpt lat="44.15177" lon="6.67137">
        <ele>1712.9</ele>
        <time>2022-09-17T23:43:25Z</time>
      </trkpt>
      <trkpt lat="44.15176" lon="6.67145">
        <ele>1713.2</ele>
        <time>2022-09-17T23:43:27Z</time>
      </trkpt>
      <trkpt lat="44.15174" lon="6.67151">
        <ele>1713.5</ele>
        <time>2022-09-17T23:43:28Z</time>
      </trkpt>
      <trkpt lat="44.15174" lon="6.67153">
        <ele>1713.6</ele>
        <time>2022-09-17T23:43:29Z</time>
      </trkpt>
      <trkpt lat="44.15173" lon="6.67157">
        <ele>1713.7</ele>
        <time>2022-09-17T23:43:30Z</time>
      </trkpt>
      <trkpt lat="44.1517" lon="6.67163">
        <ele>1714.1</ele>
        <time>2022-09-17T23:43:31Z</time>
      </trkpt>
      <trkpt lat="44.15169" lon="6.67167">
        <ele>1714.3</ele>
        <time>2022-09-17T23:43:33Z</time>
      </trkpt>
      <trkpt lat="44.15167" lon="6.67171">
        <ele>1714.5</ele>
        <time>2022-09-17T23:43:34Z</time>
      </trkpt>
      <trkpt lat="44.15166" lon="6.67175">
        <ele>1714.7</ele>
        <time>2022-09-17T23:43:35Z</time>
      </trkpt>
      <trkpt lat="44.15164" lon="6.67182">
        <ele>1715.1</ele>
        <time>2022-09-17T23:43:36Z</time>
      </trkpt>
      <trkpt lat="44.15163" lon="6.67188">
        <ele>1715.4</ele>
        <time>2022-09-17T23:43:38Z</time>
      </trkpt>
      <trkpt lat="44.15161" lon="6.67192">
        <ele>1715.7</ele>
        <time>2022-09-17T23:43:39Z</time>
      </trkpt>
      <trkpt lat="44.1516" lon="6.67198">
        <ele>1716</ele>
        <time>2022-09-17T23:43:40Z</time>
      </trkpt>
      <trkpt lat="44.15159" lon="6.67204">
        <ele>1716.3</ele>
        <time>2022-09-17T23:43:41Z</time>
      </trkpt>
      <trkpt lat="44.15159" lon="6.67209">
        <ele>1716.6</ele>
        <time>2022-09-17T23:43:42Z</time>
      </trkpt>
      <trkpt lat="44.1516" lon="6.67213">
        <ele>1716.8</ele>
        <time>2022-09-17T23:43:43Z</time>
      </trkpt>
      <trkpt lat="44.15164" lon="6.67216">
        <ele>1717.2</ele>
        <time>2022-09-17T23:43:45Z</time>
      </trkpt>
      <trkpt lat="44.15165" lon="6.6722">
        <ele>1717.5</ele>
        <time>2022-09-17T23:43:46Z</time>
      </trkpt>
      <trkpt lat="44.15165" lon="6.67225">
        <ele>1717.8</ele>
        <time>2022-09-17T23:43:48Z</time>
      </trkpt>
      <trkpt lat="44.15165" lon="6.67229">
        <ele>1718.1</ele>
        <time>2022-09-17T23:43:49Z</time>
      </trkpt>
      <trkpt lat="44.15169" lon="6.67233">
        <ele>1718.5</ele>
        <time>2022-09-17T23:43:50Z</time>
      </trkpt>
      <trkpt lat="44.15172" lon="6.67234">
        <ele>1718.8</ele>
        <time>2022-09-17T23:43:52Z</time>
      </trkpt>
      <trkpt lat="44.15176" lon="6.67233">
        <ele>1719</ele>
        <time>2022-09-17T23:43:53Z</time>
      </trkpt>
      <trkpt lat="44.15177" lon="6.67233">
        <ele>1719.1</ele>
        <time>2022-09-17T23:43:54Z</time>
      </trkpt>
      <trkpt lat="44.1518" lon="6.6723">
        <ele>1719.3</ele>
        <time>2022-09-17T23:43:55Z</time>
      </trkpt>
      <trkpt lat="44.15182" lon="6.67228">
        <ele>1719.4</ele>
        <time>2022-09-17T23:43:56Z</time>
      </trkpt>
      <trkpt lat="44.15185" lon="6.67224">
        <ele>1719.5</ele>
        <time>2022-09-17T23:43:58Z</time>
      </trkpt>
      <trkpt lat="44.15187" lon="6.67221">
        <ele>1719.6</ele>
        <time>2022-09-17T23:43:59Z</time>
      </trkpt>
      <trkpt lat="44.1519" lon="6.67217">
        <ele>1719.6</ele>
        <time>2022-09-17T23:44:01Z</time>
      </trkpt>
      <trkpt lat="44.15193" lon="6.67214">
        <ele>1719.7</ele>
        <time>2022-09-17T23:44:02Z</time>
      </trkpt>
      <trkpt lat="44.15194" lon="6.67212">
        <ele>1719.7</ele>
        <time>2022-09-17T23:44:03Z</time>
      </trkpt>
      <trkpt lat="44.15197" lon="6.6721">
        <ele>1719.8</ele>
        <time>2022-09-17T23:44:04Z</time>
      </trkpt>
      <trkpt lat="44.15201" lon="6.67206">
        <ele>1719.8</ele>
        <time>2022-09-17T23:44:05Z</time>
      </trkpt>
      <trkpt lat="44.15203" lon="6.67203">
        <ele>1719.9</ele>
        <time>2022-09-17T23:44:06Z</time>
      </trkpt>
      <trkpt lat="44.15206" lon="6.67199">
        <ele>1719.9</ele>
        <time>2022-09-17T23:44:08Z</time>
      </trkpt>
      <trkpt lat="44.15208" lon="6.67195">
        <ele>1720</ele>
        <time>2022-09-17T23:44:09Z</time>
      </trkpt>
      <trkpt lat="44.15209" lon="6.67194">
        <ele>1720</ele>
        <time>2022-09-17T23:44:10Z</time>
      </trkpt>
      <trkpt lat="44.15211" lon="6.67188">
        <ele>1720.1</ele>
        <time>2022-09-17T23:44:11Z</time>
      </trkpt>
      <trkpt lat="44.15212" lon="6.67186">
        <ele>1720.1</ele>
        <time>2022-09-17T23:44:12Z</time>
      </trkpt>
      <trkpt lat="44.15214" lon="6.67181">
        <ele>1720.2</ele>
        <time>2022-09-17T23:44:13Z</time>
      </trkpt>
      <trkpt lat="44.15217" lon="6.67173">
        <ele>1720.3</ele>
        <time>2022-09-17T23:44:15Z</time>
      </trkpt>
      <trkpt lat="44.15222" lon="6.67168">
        <ele>1720.5</ele>
        <time>2022-09-17T23:44:17Z</time>
      </trkpt>
      <trkpt lat="44.15224" lon="6.67164">
        <ele>1720.6</ele>
        <time>2022-09-17T23:44:19Z</time>
      </trkpt>
      <trkpt lat="44.15225" lon="6.67161">
        <ele>1720.7</ele>
        <time>2022-09-17T23:44:20Z</time>
      </trkpt>
      <trkpt lat="44.15228" lon="6.67156">
        <ele>1720.9</ele>
        <time>2022-09-17T23:44:21Z</time>
      </trkpt>
      <trkpt lat="44.15229" lon="6.67154">
        <ele>1721</ele>
        <time>2022-09-17T23:44:22Z</time>
      </trkpt>
      <trkpt lat="44.15231" lon="6.67148">
        <ele>1721.3</ele>
        <time>2022-09-17T23:44:24Z</time>
      </trkpt>
      <trkpt lat="44.15234" lon="6.67143">
        <ele>1721.6</ele>
        <time>2022-09-17T23:44:25Z</time>
      </trkpt>
      <trkpt lat="44.15236" lon="6.67137">
        <ele>1721.9</ele>
        <time>2022-09-17T23:44:27Z</time>
      </trkpt>
      <trkpt lat="44.15238" lon="6.67133">
        <ele>1722.2</ele>
        <time>2022-09-17T23:44:28Z</time>
      </trkpt>
      <trkpt lat="44.1524" lon="6.67128">
        <ele>1722.5</ele>
        <time>2022-09-17T23:44:29Z</time>
      </trkpt>
      <trkpt lat="44.15242" lon="6.67124">
        <ele>1722.9</ele>
        <time>2022-09-17T23:44:30Z</time>
      </trkpt>
      <trkpt lat="44.15244" lon="6.67118">
        <ele>1723.3</ele>
        <time>2022-09-17T23:44:31Z</time>
      </trkpt>
      <trkpt lat="44.15245" lon="6.67114">
        <ele>1723.7</ele>
        <time>2022-09-17T23:44:32Z</time>
      </trkpt>
      <trkpt lat="44.15245" lon="6.67109">
        <ele>1724.1</ele>
        <time>2022-09-17T23:44:34Z</time>
      </trkpt>
      <trkpt lat="44.15246" lon="6.67104">
        <ele>1724.5</ele>
        <time>2022-09-17T23:44:35Z</time>
      </trkpt>
      <trkpt lat="44.15246" lon="6.67102">
        <ele>1724.7</ele>
        <time>2022-09-17T23:44:36Z</time>
      </trkpt>
      <trkpt lat="44.15246" lon="6.67097">
        <ele>1725.1</ele>
        <time>2022-09-17T23:44:37Z</time>
      </trkpt>
      <trkpt lat="44.15247" lon="6.67093">
        <ele>1725.4</ele>
        <time>2022-09-17T23:44:38Z</time>
      </trkpt>
      <trkpt lat="44.15247" lon="6.67089">
        <ele>1725.7</ele>
        <time>2022-09-17T23:44:39Z</time>
      </trkpt>
      <trkpt lat="44.15249" lon="6.67085">
        <ele>1726.1</ele>
        <time>2022-09-17T23:44:40Z</time>
      </trkpt>
      <trkpt lat="44.15249" lon="6.67081">
        <ele>1726.4</ele>
        <time>2022-09-17T23:44:42Z</time>
      </trkpt>
      <trkpt lat="44.1525" lon="6.6708">
        <ele>1726.4</ele>
        <time>2022-09-17T23:44:43Z</time>
      </trkpt>
      <trkpt lat="44.15252" lon="6.67076">
        <ele>1726.8</ele>
        <time>2022-09-17T23:44:44Z</time>
      </trkpt>
      <trkpt lat="44.15253" lon="6.67074">
        <ele>1726.9</ele>
        <time>2022-09-17T23:44:45Z</time>
      </trkpt>
      <trkpt lat="44.15255" lon="6.6707">
        <ele>1727.2</ele>
        <time>2022-09-17T23:44:46Z</time>
      </trkpt>
      <trkpt lat="44.15256" lon="6.67065">
        <ele>1727.5</ele>
        <time>2022-09-17T23:44:47Z</time>
      </trkpt>
      <trkpt lat="44.15258" lon="6.6706">
        <ele>1727.8</ele>
        <time>2022-09-17T23:44:48Z</time>
      </trkpt>
      <trkpt lat="44.15259" lon="6.67054">
        <ele>1728.2</ele>
        <time>2022-09-17T23:44:50Z</time>
      </trkpt>
      <trkpt lat="44.15261" lon="6.67047">
        <ele>1728.7</ele>
        <time>2022-09-17T23:44:51Z</time>
      </trkpt>
      <trkpt lat="44.15262" lon="6.67041">
        <ele>1729.1</ele>
        <time>2022-09-17T23:44:52Z</time>
      </trkpt>
      <trkpt lat="44.15264" lon="6.67037">
        <ele>1729.5</ele>
        <time>2022-09-17T23:44:53Z</time>
      </trkpt>
      <trkpt lat="44.15265" lon="6.67033">
        <ele>1729.8</ele>
        <time>2022-09-17T23:44:55Z</time>
      </trkpt>
      <trkpt lat="44.15267" lon="6.67029">
        <ele>1730.7</ele>
        <time>2022-09-17T23:44:56Z</time>
      </trkpt>
      <trkpt lat="44.15269" lon="6.67022">
        <ele>1732.8</ele>
        <time>2022-09-17T23:44:57Z</time>
      </trkpt>
      <trkpt lat="44.15271" lon="6.67018">
        <ele>1734.1</ele>
        <time>2022-09-17T23:44:59Z</time>
      </trkpt>
      <trkpt lat="44.15272" lon="6.67014">
        <ele>1735.2</ele>
        <time>2022-09-17T23:45:00Z</time>
      </trkpt>
      <trkpt lat="44.15276" lon="6.67011">
        <ele>1736.8</ele>
        <time>2022-09-17T23:45:01Z</time>
      </trkpt>
      <trkpt lat="44.15278" lon="6.67011">
        <ele>1737.5</ele>
        <time>2022-09-17T23:45:02Z</time>
      </trkpt>
      <trkpt lat="44.15282" lon="6.6701">
        <ele>1739.2</ele>
        <time>2022-09-17T23:45:03Z</time>
      </trkpt>
      <trkpt lat="44.15286" lon="6.6701">
        <ele>1740.7</ele>
        <time>2022-09-17T23:45:05Z</time>
      </trkpt>
      <trkpt lat="44.15289" lon="6.67011">
        <ele>1741.9</ele>
        <time>2022-09-17T23:45:06Z</time>
      </trkpt>
      <trkpt lat="44.15291" lon="6.67011">
        <ele>1742.4</ele>
        <time>2022-09-17T23:45:07Z</time>
      </trkpt>
      <trkpt lat="44.15294" lon="6.6701">
        <ele>1743.7</ele>
        <time>2022-09-17T23:45:08Z</time>
      </trkpt>
      <trkpt lat="44.15295" lon="6.67009">
        <ele>1744</ele>
        <time>2022-09-17T23:45:09Z</time>
      </trkpt>
      <trkpt lat="44.15297" lon="6.67007">
        <ele>1745.1</ele>
        <time>2022-09-17T23:45:10Z</time>
      </trkpt>
      <trkpt lat="44.153" lon="6.67004">
        <ele>1745.7</ele>
        <time>2022-09-17T23:45:11Z</time>
      </trkpt>
      <trkpt lat="44.15301" lon="6.67001">
        <ele>1746.3</ele>
        <time>2022-09-17T23:45:12Z</time>
      </trkpt>
      <trkpt lat="44.15305" lon="6.66996">
        <ele>1747.4</ele>
        <time>2022-09-17T23:45:14Z</time>
      </trkpt>
      <trkpt lat="44.15308" lon="6.66992">
        <ele>1748.4</ele>
        <time>2022-09-17T23:45:15Z</time>
      </trkpt>
      <trkpt lat="44.15312" lon="6.66987">
        <ele>1749.4</ele>
        <time>2022-09-17T23:45:16Z</time>
      </trkpt>
      <trkpt lat="44.15315" lon="6.66984">
        <ele>1750.3</ele>
        <time>2022-09-17T23:45:17Z</time>
      </trkpt>
      <trkpt lat="44.15317" lon="6.6698">
        <ele>1751</ele>
        <time>2022-09-17T23:45:18Z</time>
      </trkpt>
      <trkpt lat="44.15319" lon="6.66976">
        <ele>1751.7</ele>
        <time>2022-09-17T23:45:19Z</time>
      </trkpt>
      <trkpt lat="44.15322" lon="6.6697">
        <ele>1752.8</ele>
        <time>2022-09-17T23:45:20Z</time>
      </trkpt>
      <trkpt lat="44.15324" lon="6.66966">
        <ele>1753.7</ele>
        <time>2022-09-17T23:45:21Z</time>
      </trkpt>
      <trkpt lat="44.15328" lon="6.66965">
        <ele>1754.6</ele>
        <time>2022-09-17T23:45:23Z</time>
      </trkpt>
      <trkpt lat="44.1533" lon="6.66967">
        <ele>1755.3</ele>
        <time>2022-09-17T23:45:24Z</time>
      </trkpt>
      <trkpt lat="44.15332" lon="6.66971">
        <ele>1756.1</ele>
        <time>2022-09-17T23:45:25Z</time>
      </trkpt>
      <trkpt lat="44.15332" lon="6.66977">
        <ele>1757.1</ele>
        <time>2022-09-17T23:45:26Z</time>
      </trkpt>
      <trkpt lat="44.15331" lon="6.66982">
        <ele>1757.8</ele>
        <time>2022-09-17T23:45:27Z</time>
      </trkpt>
      <trkpt lat="44.15331" lon="6.66987">
        <ele>1758.7</ele>
        <time>2022-09-17T23:45:28Z</time>
      </trkpt>
      <trkpt lat="44.1533" lon="6.66994">
        <ele>1759.8</ele>
        <time>2022-09-17T23:45:30Z</time>
      </trkpt>
      <trkpt lat="44.15329" lon="6.67">
        <ele>1760.7</ele>
        <time>2022-09-17T23:45:31Z</time>
      </trkpt>
      <trkpt lat="44.15329" lon="6.67005">
        <ele>1761.5</ele>
        <time>2022-09-17T23:45:32Z</time>
      </trkpt>
      <trkpt lat="44.15329" lon="6.6701">
        <ele>1762.3</ele>
        <time>2022-09-17T23:45:33Z</time>
      </trkpt>
      <trkpt lat="44.15329" lon="6.67015">
        <ele>1762.8</ele>
        <time>2022-09-17T23:45:34Z</time>
      </trkpt>
      <trkpt lat="44.1533" lon="6.6702">
        <ele>1763.3</ele>
        <time>2022-09-17T23:45:36Z</time>
      </trkpt>
      <trkpt lat="44.15329" lon="6.67024">
        <ele>1763.7</ele>
        <time>2022-09-17T23:45:37Z</time>
      </trkpt>
      <trkpt lat="44.15329" lon="6.67029">
        <ele>1764.2</ele>
        <time>2022-09-17T23:45:38Z</time>
      </trkpt>
      <trkpt lat="44.15328" lon="6.67036">
        <ele>1765</ele>
        <time>2022-09-17T23:45:40Z</time>
      </trkpt>
      <trkpt lat="44.15327" lon="6.67041">
        <ele>1765.5</ele>
        <time>2022-09-17T23:45:41Z</time>
      </trkpt>
      <trkpt lat="44.15326" lon="6.67047">
        <ele>1766.1</ele>
        <time>2022-09-17T23:45:42Z</time>
      </trkpt>
      <trkpt lat="44.15326" lon="6.67049">
        <ele>1766.3</ele>
        <time>2022-09-17T23:45:43Z</time>
      </trkpt>
      <trkpt lat="44.15325" lon="6.67053">
        <ele>1766.8</ele>
        <time>2022-09-17T23:45:44Z</time>
      </trkpt>
      <trkpt lat="44.15325" lon="6.67057">
        <ele>1767.2</ele>
        <time>2022-09-17T23:45:46Z</time>
      </trkpt>
      <trkpt lat="44.15324" lon="6.67063">
        <ele>1767.8</ele>
        <time>2022-09-17T23:45:48Z</time>
      </trkpt>
      <trkpt lat="44.15323" lon="6.67067">
        <ele>1768.3</ele>
        <time>2022-09-17T23:45:49Z</time>
      </trkpt>
      <trkpt lat="44.15323" lon="6.67069">
        <ele>1768.5</ele>
        <time>2022-09-17T23:45:50Z</time>
      </trkpt>
      <trkpt lat="44.15323" lon="6.67073">
        <ele>1768.9</ele>
        <time>2022-09-17T23:45:51Z</time>
      </trkpt>
      <trkpt lat="44.15323" lon="6.67078">
        <ele>1769.5</ele>
        <time>2022-09-17T23:45:52Z</time>
      </trkpt>
      <trkpt lat="44.15323" lon="6.67083">
        <ele>1770</ele>
        <time>2022-09-17T23:45:53Z</time>
      </trkpt>
      <trkpt lat="44.15324" lon="6.67088">
        <ele>1770.5</ele>
        <time>2022-09-17T23:45:54Z</time>
      </trkpt>
      <trkpt lat="44.15324" lon="6.67093">
        <ele>1771.1</ele>
        <time>2022-09-17T23:45:55Z</time>
      </trkpt>
      <trkpt lat="44.15325" lon="6.67097">
        <ele>1771.5</ele>
        <time>2022-09-17T23:45:56Z</time>
      </trkpt>
      <trkpt lat="44.15325" lon="6.67105">
        <ele>1772.3</ele>
        <time>2022-09-17T23:45:58Z</time>
      </trkpt>
      <trkpt lat="44.15324" lon="6.67108">
        <ele>1772.7</ele>
        <time>2022-09-17T23:45:59Z</time>
      </trkpt>
      <trkpt lat="44.15323" lon="6.67114">
        <ele>1773.3</ele>
        <time>2022-09-17T23:46:00Z</time>
      </trkpt>
      <trkpt lat="44.15323" lon="6.67118">
        <ele>1773.7</ele>
        <time>2022-09-17T23:46:01Z</time>
      </trkpt>
      <trkpt lat="44.15322" lon="6.67123">
        <ele>1774.3</ele>
        <time>2022-09-17T23:46:03Z</time>
      </trkpt>
      <trkpt lat="44.1532" lon="6.67127">
        <ele>1774.8</ele>
        <time>2022-09-17T23:46:04Z</time>
      </trkpt>
      <trkpt lat="44.15318" lon="6.67131">
        <ele>1775.4</ele>
        <time>2022-09-17T23:46:05Z</time>
      </trkpt>
      <trkpt lat="44.15315" lon="6.67136">
        <ele>1776.1</ele>
        <time>2022-09-17T23:46:06Z</time>
      </trkpt>
      <trkpt lat="44.15312" lon="6.6714">
        <ele>1776.7</ele>
        <time>2022-09-17T23:46:08Z</time>
      </trkpt>
      <trkpt lat="44.15311" lon="6.67143">
        <ele>1777.1</ele>
        <time>2022-09-17T23:46:09Z</time>
      </trkpt>
      <trkpt lat="44.15309" lon="6.6715">
        <ele>1778</ele>
        <time>2022-09-17T23:46:10Z</time>
      </trkpt>
      <trkpt lat="44.15308" lon="6.67153">
        <ele>1778.4</ele>
        <time>2022-09-17T23:46:11Z</time>
      </trkpt>
      <trkpt lat="44.15307" lon="6.67159">
        <ele>1779.1</ele>
        <time>2022-09-17T23:46:12Z</time>
      </trkpt>
      <trkpt lat="44.15306" lon="6.67163">
        <ele>1779.7</ele>
        <time>2022-09-17T23:46:14Z</time>
      </trkpt>
      <trkpt lat="44.15306" lon="6.67169">
        <ele>1780.5</ele>
        <time>2022-09-17T23:46:15Z</time>
      </trkpt>
      <trkpt lat="44.15306" lon="6.67174">
        <ele>1781.1</ele>
        <time>2022-09-17T23:46:16Z</time>
      </trkpt>
      <trkpt lat="44.15305" lon="6.67178">
        <ele>1781.6</ele>
        <time>2022-09-17T23:46:17Z</time>
      </trkpt>
      <trkpt lat="44.15302" lon="6.67184">
        <ele>1782.7</ele>
        <time>2022-09-17T23:46:19Z</time>
      </trkpt>
      <trkpt lat="44.153" lon="6.67187">
        <ele>1783.1</ele>
        <time>2022-09-17T23:46:21Z</time>
      </trkpt>
      <trkpt lat="44.153" lon="6.67192">
        <ele>1783.7</ele>
        <time>2022-09-17T23:46:22Z</time>
      </trkpt>
      <trkpt lat="44.15299" lon="6.67194">
        <ele>1783.9</ele>
        <time>2022-09-17T23:46:23Z</time>
      </trkpt>
      <trkpt lat="44.15299" lon="6.67199">
        <ele>1784.4</ele>
        <time>2022-09-17T23:46:24Z</time>
      </trkpt>
      <trkpt lat="44.15299" lon="6.67203">
        <ele>1784.9</ele>
        <time>2022-09-17T23:46:25Z</time>
      </trkpt>
      <trkpt lat="44.153" lon="6.67207">
        <ele>1785.4</ele>
        <time>2022-09-17T23:46:26Z</time>
      </trkpt>
      <trkpt lat="44.153" lon="6.67211">
        <ele>1785.8</ele>
        <time>2022-09-17T23:46:27Z</time>
      </trkpt>
      <trkpt lat="44.153" lon="6.67215">
        <ele>1786.3</ele>
        <time>2022-09-17T23:46:28Z</time>
      </trkpt>
      <trkpt lat="44.15299" lon="6.6722">
        <ele>1786.9</ele>
        <time>2022-09-17T23:46:29Z</time>
      </trkpt>
      <trkpt lat="44.15299" lon="6.67224">
        <ele>1787.3</ele>
        <time>2022-09-17T23:46:30Z</time>
      </trkpt>
      <trkpt lat="44.15298" lon="6.67228">
        <ele>1787.8</ele>
        <time>2022-09-17T23:46:32Z</time>
      </trkpt>
      <trkpt lat="44.15297" lon="6.67233">
        <ele>1788.3</ele>
        <time>2022-09-17T23:46:33Z</time>
      </trkpt>
      <trkpt lat="44.15296" lon="6.67238">
        <ele>1788.7</ele>
        <time>2022-09-17T23:46:34Z</time>
      </trkpt>
      <trkpt lat="44.15295" lon="6.67239">
        <ele>1788.8</ele>
        <time>2022-09-17T23:46:35Z</time>
      </trkpt>
      <trkpt lat="44.15294" lon="6.67244">
        <ele>1789.1</ele>
        <time>2022-09-17T23:46:36Z</time>
      </trkpt>
      <trkpt lat="44.15294" lon="6.67246">
        <ele>1789.2</ele>
        <time>2022-09-17T23:46:37Z</time>
      </trkpt>
      <trkpt lat="44.15293" lon="6.67249">
        <ele>1789.3</ele>
        <time>2022-09-17T23:46:38Z</time>
      </trkpt>
      <trkpt lat="44.15291" lon="6.67254">
        <ele>1789.5</ele>
        <time>2022-09-17T23:46:39Z</time>
      </trkpt>
      <trkpt lat="44.1529" lon="6.67256">
        <ele>1789.6</ele>
        <time>2022-09-17T23:46:40Z</time>
      </trkpt>
      <trkpt lat="44.15286" lon="6.67261">
        <ele>1789.8</ele>
        <time>2022-09-17T23:46:41Z</time>
      </trkpt>
      <trkpt lat="44.15284" lon="6.67264">
        <ele>1790</ele>
        <time>2022-09-17T23:46:42Z</time>
      </trkpt>
      <trkpt lat="44.15281" lon="6.67273">
        <ele>1790.5</ele>
        <time>2022-09-17T23:46:43Z</time>
      </trkpt>
      <trkpt lat="44.1528" lon="6.67279">
        <ele>1790.9</ele>
        <time>2022-09-17T23:46:45Z</time>
      </trkpt>
      <trkpt lat="44.15279" lon="6.67286">
        <ele>1791.4</ele>
        <time>2022-09-17T23:46:46Z</time>
      </trkpt>
      <trkpt lat="44.15278" lon="6.67291">
        <ele>1791.9</ele>
        <time>2022-09-17T23:46:47Z</time>
      </trkpt>
      <trkpt lat="44.15276" lon="6.67295">
        <ele>1792.3</ele>
        <time>2022-09-17T23:46:49Z</time>
      </trkpt>
      <trkpt lat="44.15274" lon="6.67298">
        <ele>1792.8</ele>
        <time>2022-09-17T23:46:50Z</time>
      </trkpt>
      <trkpt lat="44.15272" lon="6.67305">
        <ele>1793.6</ele>
        <time>2022-09-17T23:46:51Z</time>
      </trkpt>
      <trkpt lat="44.15271" lon="6.6731">
        <ele>1794.1</ele>
        <time>2022-09-17T23:46:52Z</time>
      </trkpt>
      <trkpt lat="44.15271" lon="6.67314">
        <ele>1794.7</ele>
        <time>2022-09-17T23:46:54Z</time>
      </trkpt>
      <trkpt lat="44.15271" lon="6.67316">
        <ele>1794.9</ele>
        <time>2022-09-17T23:46:55Z</time>
      </trkpt>
      <trkpt lat="44.15271" lon="6.67317">
        <ele>1795.1</ele>
        <time>2022-09-17T23:46:56Z</time>
      </trkpt>
      <trkpt lat="44.1527" lon="6.67319">
        <ele>1795.4</ele>
        <time>2022-09-17T23:46:57Z</time>
      </trkpt>
      <trkpt lat="44.1527" lon="6.67321">
        <ele>1795.6</ele>
        <time>2022-09-17T23:46:58Z</time>
      </trkpt>
      <trkpt lat="44.1527" lon="6.67324">
        <ele>1795.9</ele>
        <time>2022-09-17T23:46:59Z</time>
      </trkpt>
      <trkpt lat="44.15269" lon="6.67328">
        <ele>1796.4</ele>
        <time>2022-09-17T23:47:00Z</time>
      </trkpt>
      <trkpt lat="44.15269" lon="6.6733">
        <ele>1796.6</ele>
        <time>2022-09-17T23:47:01Z</time>
      </trkpt>
      <trkpt lat="44.15268" lon="6.67336">
        <ele>1797.2</ele>
        <time>2022-09-17T23:47:02Z</time>
      </trkpt>
      <trkpt lat="44.15267" lon="6.67338">
        <ele>1797.4</ele>
        <time>2022-09-17T23:47:03Z</time>
      </trkpt>
      <trkpt lat="44.15265" lon="6.67343">
        <ele>1797.9</ele>
        <time>2022-09-17T23:47:04Z</time>
      </trkpt>
      <trkpt lat="44.15262" lon="6.67346">
        <ele>1798.2</ele>
        <time>2022-09-17T23:47:06Z</time>
      </trkpt>
      <trkpt lat="44.1526" lon="6.67348">
        <ele>1798.5</ele>
        <time>2022-09-17T23:47:07Z</time>
      </trkpt>
      <trkpt lat="44.15256" lon="6.67353">
        <ele>1798.9</ele>
        <time>2022-09-17T23:47:08Z</time>
      </trkpt>
      <trkpt lat="44.15254" lon="6.67358">
        <ele>1799.2</ele>
        <time>2022-09-17T23:47:09Z</time>
      </trkpt>
      <trkpt lat="44.15251" lon="6.67363">
        <ele>1799.6</ele>
        <time>2022-09-17T23:47:10Z</time>
      </trkpt>
      <trkpt lat="44.15248" lon="6.67367">
        <ele>1799.9</ele>
        <time>2022-09-17T23:47:11Z</time>
      </trkpt>
      <trkpt lat="44.15244" lon="6.67373">
        <ele>1800.3</ele>
        <time>2022-09-17T23:47:13Z</time>
      </trkpt>
      <trkpt lat="44.15242" lon="6.67377">
        <ele>1800.5</ele>
        <time>2022-09-17T23:47:14Z</time>
      </trkpt>
      <trkpt lat="44.15241" lon="6.67381">
        <ele>1800.8</ele>
        <time>2022-09-17T23:47:15Z</time>
      </trkpt>
      <trkpt lat="44.15239" lon="6.67385">
        <ele>1801</ele>
        <time>2022-09-17T23:47:16Z</time>
      </trkpt>
      <trkpt lat="44.15236" lon="6.67388">
        <ele>1801.3</ele>
        <time>2022-09-17T23:47:17Z</time>
      </trkpt>
      <trkpt lat="44.15234" lon="6.67392">
        <ele>1801.6</ele>
        <time>2022-09-17T23:47:18Z</time>
      </trkpt>
      <trkpt lat="44.15232" lon="6.67396">
        <ele>1801.8</ele>
        <time>2022-09-17T23:47:19Z</time>
      </trkpt>
      <trkpt lat="44.15231" lon="6.67398">
        <ele>1802</ele>
        <time>2022-09-17T23:47:21Z</time>
      </trkpt>
      <trkpt lat="44.15231" lon="6.67398">
        <ele>1802</ele>
        <time>2022-09-17T23:47:22Z</time>
      </trkpt>
      <trkpt lat="44.15231" lon="6.67398">
        <ele>1802</ele>
        <time>2022-09-17T23:47:23Z</time>
      </trkpt>
      <trkpt lat="44.15231" lon="6.67398">
        <ele>1802</ele>
        <time>2022-09-17T23:47:25Z</time>
      </trkpt>
      <trkpt lat="44.1523" lon="6.674">
        <ele>1802.1</ele>
        <time>2022-09-17T23:47:26Z</time>
      </trkpt>
      <trkpt lat="44.15229" lon="6.67405">
        <ele>1802.4</ele>
        <time>2022-09-17T23:47:27Z</time>
      </trkpt>
      <trkpt lat="44.15228" lon="6.67409">
        <ele>1802.6</ele>
        <time>2022-09-17T23:47:29Z</time>
      </trkpt>
      <trkpt lat="44.15227" lon="6.67412">
        <ele>1802.8</ele>
        <time>2022-09-17T23:47:30Z</time>
      </trkpt>
      <trkpt lat="44.15221" lon="6.67417">
        <ele>1803.3</ele>
        <time>2022-09-17T23:47:31Z</time>
      </trkpt>
      <trkpt lat="44.15218" lon="6.67421">
        <ele>1803.6</ele>
        <time>2022-09-17T23:47:32Z</time>
      </trkpt>
      <trkpt lat="44.15215" lon="6.67425">
        <ele>1803.9</ele>
        <time>2022-09-17T23:47:33Z</time>
      </trkpt>
      <trkpt lat="44.15212" lon="6.67429">
        <ele>1804.2</ele>
        <time>2022-09-17T23:47:34Z</time>
      </trkpt>
      <trkpt lat="44.1521" lon="6.67433">
        <ele>1804.5</ele>
        <time>2022-09-17T23:47:36Z</time>
      </trkpt>
      <trkpt lat="44.15208" lon="6.67437">
        <ele>1804.8</ele>
        <time>2022-09-17T23:47:37Z</time>
      </trkpt>
      <trkpt lat="44.15205" lon="6.6744">
        <ele>1805</ele>
        <time>2022-09-17T23:47:38Z</time>
      </trkpt>
      <trkpt lat="44.15203" lon="6.67445">
        <ele>1805.3</ele>
        <time>2022-09-17T23:47:39Z</time>
      </trkpt>
      <trkpt lat="44.15201" lon="6.67448">
        <ele>1805.5</ele>
        <time>2022-09-17T23:47:40Z</time>
      </trkpt>
      <trkpt lat="44.15199" lon="6.67452">
        <ele>1805.8</ele>
        <time>2022-09-17T23:47:42Z</time>
      </trkpt>
      <trkpt lat="44.15195" lon="6.67452">
        <ele>1806</ele>
        <time>2022-09-17T23:47:43Z</time>
      </trkpt>
      <trkpt lat="44.15194" lon="6.67453">
        <ele>1806.1</ele>
        <time>2022-09-17T23:47:44Z</time>
      </trkpt>
      <trkpt lat="44.1519" lon="6.67455">
        <ele>1806.4</ele>
        <time>2022-09-17T23:47:45Z</time>
      </trkpt>
      <trkpt lat="44.15187" lon="6.67457">
        <ele>1806.5</ele>
        <time>2022-09-17T23:47:46Z</time>
      </trkpt>
      <trkpt lat="44.15184" lon="6.6746">
        <ele>1806.7</ele>
        <time>2022-09-17T23:47:47Z</time>
      </trkpt>
      <trkpt lat="44.15181" lon="6.67465">
        <ele>1806.9</ele>
        <time>2022-09-17T23:47:49Z</time>
      </trkpt>
      <trkpt lat="44.1518" lon="6.67469">
        <ele>1807.1</ele>
        <time>2022-09-17T23:47:50Z</time>
      </trkpt>
      <trkpt lat="44.15179" lon="6.67472">
        <ele>1807.2</ele>
        <time>2022-09-17T23:47:51Z</time>
      </trkpt>
      <trkpt lat="44.15177" lon="6.67476">
        <ele>1807.4</ele>
        <time>2022-09-17T23:47:53Z</time>
      </trkpt>
      <trkpt lat="44.15174" lon="6.6748">
        <ele>1807.5</ele>
        <time>2022-09-17T23:47:54Z</time>
      </trkpt>
      <trkpt lat="44.15171" lon="6.67484">
        <ele>1807.8</ele>
        <time>2022-09-17T23:47:56Z</time>
      </trkpt>
      <trkpt lat="44.15166" lon="6.67489">
        <ele>1808.1</ele>
        <time>2022-09-17T23:47:57Z</time>
      </trkpt>
      <trkpt lat="44.15163" lon="6.67489">
        <ele>1808.3</ele>
        <time>2022-09-17T23:47:59Z</time>
      </trkpt>
      <trkpt lat="44.15159" lon="6.6749">
        <ele>1808.4</ele>
        <time>2022-09-17T23:48:01Z</time>
      </trkpt>
      <trkpt lat="44.1516" lon="6.67492">
        <ele>1808.5</ele>
        <time>2022-09-17T23:48:02Z</time>
      </trkpt>
      <trkpt lat="44.15161" lon="6.67494">
        <ele>1808.6</ele>
        <time>2022-09-17T23:48:03Z</time>
      </trkpt>
      <trkpt lat="44.15161" lon="6.67495">
        <ele>1808.6</ele>
        <time>2022-09-17T23:48:04Z</time>
      </trkpt>
      <trkpt lat="44.15161" lon="6.67495">
        <ele>1808.7</ele>
        <time>2022-09-17T23:48:05Z</time>
      </trkpt>
      <trkpt lat="44.1516" lon="6.67496">
        <ele>1808.7</ele>
        <time>2022-09-17T23:48:06Z</time>
      </trkpt>
      <trkpt lat="44.1516" lon="6.67496">
        <ele>1808.7</ele>
        <time>2022-09-17T23:48:07Z</time>
      </trkpt>
      <trkpt lat="44.1516" lon="6.67496">
        <ele>1808.7</ele>
        <time>2022-09-17T23:48:09Z</time>
      </trkpt>
      <trkpt lat="44.1516" lon="6.67496">
        <ele>1808.7</ele>
        <time>2022-09-17T23:48:10Z</time>
      </trkpt>
      <trkpt lat="44.1516" lon="6.67496">
        <ele>1808.7</ele>
        <time>2022-09-17T23:48:11Z</time>
      </trkpt>
      <trkpt lat="44.15159" lon="6.67496">
        <ele>1808.8</ele>
        <time>2022-09-17T23:48:13Z</time>
      </trkpt>
      <trkpt lat="44.15159" lon="6.67496">
        <ele>1808.8</ele>
        <time>2022-09-17T23:48:14Z</time>
      </trkpt>
      <trkpt lat="44.15158" lon="6.67497">
        <ele>1808.9</ele>
        <time>2022-09-17T23:48:19Z</time>
      </trkpt>
      <trkpt lat="44.15158" lon="6.67497">
        <ele>1808.9</ele>
        <time>2022-09-17T23:48:20Z</time>
      </trkpt>
      <trkpt lat="44.15158" lon="6.67498">
        <ele>1808.9</ele>
        <time>2022-09-17T23:48:21Z</time>
      </trkpt>
      <trkpt lat="44.15157" lon="6.67498">
        <ele>1808.9</ele>
        <time>2022-09-17T23:48:22Z</time>
      </trkpt>
      <trkpt lat="44.15157" lon="6.67498">
        <ele>1808.9</ele>
        <time>2022-09-17T23:48:23Z</time>
      </trkpt>
      <trkpt lat="44.15157" lon="6.67498">
        <ele>1808.9</ele>
        <time>2022-09-17T23:48:24Z</time>
      </trkpt>
      <trkpt lat="44.15157" lon="6.67498">
        <ele>1808.9</ele>
        <time>2022-09-17T23:48:25Z</time>
      </trkpt>
      <trkpt lat="44.15156" lon="6.67498">
        <ele>1809</ele>
        <time>2022-09-17T23:48:26Z</time>
      </trkpt>
      <trkpt lat="44.15156" lon="6.67498">
        <ele>1809</ele>
        <time>2022-09-17T23:48:27Z</time>
      </trkpt>
      <trkpt lat="44.15156" lon="6.67498">
        <ele>1809</ele>
        <time>2022-09-17T23:48:28Z</time>
      </trkpt>
      <trkpt lat="44.15156" lon="6.67498">
        <ele>1809</ele>
        <time>2022-09-17T23:48:29Z</time>
      </trkpt>
      <trkpt lat="44.15156" lon="6.67498">
        <ele>1809</ele>
        <time>2022-09-17T23:48:30Z</time>
      </trkpt>
      <trkpt lat="44.15156" lon="6.67498">
        <ele>1809</ele>
        <time>2022-09-17T23:48:31Z</time>
      </trkpt>
      <trkpt lat="44.15156" lon="6.67498">
        <ele>1809</ele>
        <time>2022-09-17T23:48:34Z</time>
      </trkpt>
      <trkpt lat="44.15156" lon="6.67498">
        <ele>1809</ele>
        <time>2022-09-17T23:48:35Z</time>
      </trkpt>
      <trkpt lat="44.15156" lon="6.67498">
        <ele>1809</ele>
        <time>2022-09-17T23:48:36Z</time>
      </trkpt>
      <trkpt lat="44.15155" lon="6.67498">
        <ele>1809.1</ele>
        <time>2022-09-17T23:48:37Z</time>
      </trkpt>
      <trkpt lat="44.15154" lon="6.67498">
        <ele>1809.1</ele>
        <time>2022-09-17T23:48:38Z</time>
      </trkpt>
      <trkpt lat="44.15154" lon="6.67499">
        <ele>1809.1</ele>
        <time>2022-09-17T23:48:39Z</time>
      </trkpt>
      <trkpt lat="44.15154" lon="6.67499">
        <ele>1809.1</ele>
        <time>2022-09-17T23:48:40Z</time>
      </trkpt>
      <trkpt lat="44.15154" lon="6.67499">
        <ele>1809.1</ele>
        <time>2022-09-17T23:48:41Z</time>
      </trkpt>
      <trkpt lat="44.15154" lon="6.67499">
        <ele>1809.1</ele>
        <time>2022-09-17T23:48:42Z</time>
      </trkpt>
      <trkpt lat="44.15154" lon="6.67499">
        <ele>1809.1</ele>
        <time>2022-09-17T23:48:43Z</time>
      </trkpt>
      <trkpt lat="44.15154" lon="6.67499">
        <ele>1809.1</ele>
        <time>2022-09-17T23:48:45Z</time>
      </trkpt>
      <trkpt lat="44.15155" lon="6.675">
        <ele>1809.2</ele>
        <time>2022-09-17T23:48:48Z</time>
      </trkpt>
      <trkpt lat="44.15156" lon="6.67501">
        <ele>1809.3</ele>
        <time>2022-09-17T23:48:49Z</time>
      </trkpt>
      <trkpt lat="44.15156" lon="6.67501">
        <ele>1809.3</ele>
        <time>2022-09-17T23:48:50Z</time>
      </trkpt>
      <trkpt lat="44.15156" lon="6.67502">
        <ele>1809.3</ele>
        <time>2022-09-17T23:48:51Z</time>
      </trkpt>
      <trkpt lat="44.15155" lon="6.67502">
        <ele>1809.3</ele>
        <time>2022-09-17T23:48:52Z</time>
      </trkpt>
      <trkpt lat="44.15155" lon="6.67503">
        <ele>1809.3</ele>
        <time>2022-09-17T23:48:53Z</time>
      </trkpt>
      <trkpt lat="44.15153" lon="6.67503">
        <ele>1809.4</ele>
        <time>2022-09-17T23:48:54Z</time>
      </trkpt>
      <trkpt lat="44.15152" lon="6.67505">
        <ele>1809.5</ele>
        <time>2022-09-17T23:48:55Z</time>
      </trkpt>
      <trkpt lat="44.1515" lon="6.67506">
        <ele>1809.6</ele>
        <time>2022-09-17T23:48:57Z</time>
      </trkpt>
      <trkpt lat="44.15147" lon="6.67508">
        <ele>1809.6</ele>
        <time>2022-09-17T23:48:58Z</time>
      </trkpt>
      <trkpt lat="44.15144" lon="6.6751">
        <ele>1809.7</ele>
        <time>2022-09-17T23:48:59Z</time>
      </trkpt>
      <trkpt lat="44.15141" lon="6.67511">
        <ele>1809.7</ele>
        <time>2022-09-17T23:49:00Z</time>
      </trkpt>
      <trkpt lat="44.15138" lon="6.6751">
        <ele>1809.8</ele>
        <time>2022-09-17T23:49:01Z</time>
      </trkpt>
      <trkpt lat="44.15134" lon="6.67508">
        <ele>1809.8</ele>
        <time>2022-09-17T23:49:02Z</time>
      </trkpt>
      <trkpt lat="44.15131" lon="6.67506">
        <ele>1809.9</ele>
        <time>2022-09-17T23:49:03Z</time>
      </trkpt>
      <trkpt lat="44.15131" lon="6.67505">
        <ele>1809.9</ele>
        <time>2022-09-17T23:49:04Z</time>
      </trkpt>
      <trkpt lat="44.15128" lon="6.67505">
        <ele>1809.9</ele>
        <time>2022-09-17T23:49:06Z</time>
      </trkpt>
      <trkpt lat="44.15127" lon="6.67504">
        <ele>1809.9</ele>
        <time>2022-09-17T23:49:07Z</time>
      </trkpt>
      <trkpt lat="44.15127" lon="6.67505">
        <ele>1809.9</ele>
        <time>2022-09-17T23:49:09Z</time>
      </trkpt>
      <trkpt lat="44.15127" lon="6.67505">
        <ele>1809.9</ele>
        <time>2022-09-17T23:49:10Z</time>
      </trkpt>
      <trkpt lat="44.15127" lon="6.67505">
        <ele>1809.9</ele>
        <time>2022-09-17T23:49:12Z</time>
      </trkpt>
      <trkpt lat="44.15127" lon="6.67505">
        <ele>1810</ele>
        <time>2022-09-17T23:49:13Z</time>
      </trkpt>
      <trkpt lat="44.15127" lon="6.67505">
        <ele>1810</ele>
        <time>2022-09-17T23:49:14Z</time>
      </trkpt>
      <trkpt lat="44.15127" lon="6.67505">
        <ele>1810</ele>
        <time>2022-09-17T23:49:15Z</time>
      </trkpt>
      <trkpt lat="44.15127" lon="6.67505">
        <ele>1810</ele>
        <time>2022-09-17T23:49:17Z</time>
      </trkpt>
      <trkpt lat="44.15126" lon="6.67506">
        <ele>1810.1</ele>
        <time>2022-09-17T23:49:18Z</time>
      </trkpt>
      <trkpt lat="44.15126" lon="6.67507">
        <ele>1810.2</ele>
        <time>2022-09-17T23:49:19Z</time>
      </trkpt>
      <trkpt lat="44.15126" lon="6.67507">
        <ele>1810.3</ele>
        <time>2022-09-17T23:49:20Z</time>
      </trkpt>
      <trkpt lat="44.15125" lon="6.67508">
        <ele>1810.4</ele>
        <time>2022-09-17T23:49:21Z</time>
      </trkpt>
      <trkpt lat="44.15125" lon="6.67508">
        <ele>1810.4</ele>
        <time>2022-09-17T23:49:23Z</time>
      </trkpt>
      <trkpt lat="44.15125" lon="6.67509">
        <ele>1810.4</ele>
        <time>2022-09-17T23:49:24Z</time>
      </trkpt>
      <trkpt lat="44.15125" lon="6.67509">
        <ele>1810.5</ele>
        <time>2022-09-17T23:49:25Z</time>
      </trkpt>
      <trkpt lat="44.15124" lon="6.6751">
        <ele>1810.7</ele>
        <time>2022-09-17T23:49:27Z</time>
      </trkpt>
      <trkpt lat="44.15123" lon="6.67511">
        <ele>1810.8</ele>
        <time>2022-09-17T23:49:28Z</time>
      </trkpt>
      <trkpt lat="44.15123" lon="6.67511">
        <ele>1810.8</ele>
        <time>2022-09-17T23:49:29Z</time>
      </trkpt>
      <trkpt lat="44.15122" lon="6.67511">
        <ele>1810.9</ele>
        <time>2022-09-17T23:49:30Z</time>
      </trkpt>
      <trkpt lat="44.15121" lon="6.67511">
        <ele>1811.1</ele>
        <time>2022-09-17T23:49:31Z</time>
      </trkpt>
      <trkpt lat="44.1512" lon="6.67512">
        <ele>1811.2</ele>
        <time>2022-09-17T23:49:33Z</time>
      </trkpt>
      <trkpt lat="44.1512" lon="6.67513">
        <ele>1811.4</ele>
        <time>2022-09-17T23:49:34Z</time>
      </trkpt>
      <trkpt lat="44.15119" lon="6.67514">
        <ele>1811.6</ele>
        <time>2022-09-17T23:49:35Z</time>
      </trkpt>
      <trkpt lat="44.15118" lon="6.67515">
        <ele>1811.8</ele>
        <time>2022-09-17T23:49:36Z</time>
      </trkpt>
      <trkpt lat="44.15116" lon="6.67516">
        <ele>1812</ele>
        <time>2022-09-17T23:49:37Z</time>
      </trkpt>
      <trkpt lat="44.15116" lon="6.67517">
        <ele>1812.2</ele>
        <time>2022-09-17T23:49:38Z</time>
      </trkpt>
      <trkpt lat="44.15115" lon="6.67518">
        <ele>1812.3</ele>
        <time>2022-09-17T23:49:39Z</time>
      </trkpt>
      <trkpt lat="44.15114" lon="6.67518">
        <ele>1812.5</ele>
        <time>2022-09-17T23:49:40Z</time>
      </trkpt>
      <trkpt lat="44.15113" lon="6.67519">
        <ele>1812.8</ele>
        <time>2022-09-17T23:49:42Z</time>
      </trkpt>
      <trkpt lat="44.15112" lon="6.6752">
        <ele>1813</ele>
        <time>2022-09-17T23:49:43Z</time>
      </trkpt>
      <trkpt lat="44.15112" lon="6.67521">
        <ele>1813.1</ele>
        <time>2022-09-17T23:49:45Z</time>
      </trkpt>
      <trkpt lat="44.15111" lon="6.67521">
        <ele>1813.1</ele>
        <time>2022-09-17T23:49:46Z</time>
      </trkpt>
      <trkpt lat="44.15111" lon="6.67522">
        <ele>1813.3</ele>
        <time>2022-09-17T23:49:48Z</time>
      </trkpt>
      <trkpt lat="44.1511" lon="6.67522">
        <ele>1813.4</ele>
        <time>2022-09-17T23:49:49Z</time>
      </trkpt>
      <trkpt lat="44.15109" lon="6.67522">
        <ele>1813.5</ele>
        <time>2022-09-17T23:49:50Z</time>
      </trkpt>
      <trkpt lat="44.15109" lon="6.67522">
        <ele>1813.6</ele>
        <time>2022-09-17T23:49:51Z</time>
      </trkpt>
      <trkpt lat="44.15107" lon="6.67523">
        <ele>1813.8</ele>
        <time>2022-09-17T23:49:52Z</time>
      </trkpt>
      <trkpt lat="44.15106" lon="6.67523">
        <ele>1814.1</ele>
        <time>2022-09-17T23:49:54Z</time>
      </trkpt>
      <trkpt lat="44.15105" lon="6.67523">
        <ele>1814.2</ele>
        <time>2022-09-17T23:49:55Z</time>
      </trkpt>
      <trkpt lat="44.15104" lon="6.67522">
        <ele>1814.4</ele>
        <time>2022-09-17T23:49:56Z</time>
      </trkpt>
      <trkpt lat="44.15103" lon="6.67522">
        <ele>1814.5</ele>
        <time>2022-09-17T23:49:58Z</time>
      </trkpt>
      <trkpt lat="44.15102" lon="6.67522">
        <ele>1814.7</ele>
        <time>2022-09-17T23:49:59Z</time>
      </trkpt>
      <trkpt lat="44.15101" lon="6.67523">
        <ele>1814.9</ele>
        <time>2022-09-17T23:50:00Z</time>
      </trkpt>
      <trkpt lat="44.151" lon="6.67523">
        <ele>1815</ele>
        <time>2022-09-17T23:50:01Z</time>
      </trkpt>
      <trkpt lat="44.15099" lon="6.67524">
        <ele>1815.2</ele>
        <time>2022-09-17T23:50:02Z</time>
      </trkpt>
      <trkpt lat="44.15097" lon="6.67524">
        <ele>1815.4</ele>
        <time>2022-09-17T23:50:04Z</time>
      </trkpt>
      <trkpt lat="44.15096" lon="6.67525">
        <ele>1815.5</ele>
        <time>2022-09-17T23:50:05Z</time>
      </trkpt>
      <trkpt lat="44.15095" lon="6.67525">
        <ele>1815.7</ele>
        <time>2022-09-17T23:50:06Z</time>
      </trkpt>
      <trkpt lat="44.15094" lon="6.67526">
        <ele>1815.8</ele>
        <time>2022-09-17T23:50:07Z</time>
      </trkpt>
      <trkpt lat="44.15093" lon="6.67526">
        <ele>1815.9</ele>
        <time>2022-09-17T23:50:08Z</time>
      </trkpt>
      <trkpt lat="44.15092" lon="6.67526">
        <ele>1816</ele>
        <time>2022-09-17T23:50:10Z</time>
      </trkpt>
      <trkpt lat="44.15091" lon="6.67527">
        <ele>1816.1</ele>
        <time>2022-09-17T23:50:12Z</time>
      </trkpt>
      <trkpt lat="44.1509" lon="6.67527">
        <ele>1816.2</ele>
        <time>2022-09-17T23:50:13Z</time>
      </trkpt>
      <trkpt lat="44.1509" lon="6.67527">
        <ele>1816.3</ele>
        <time>2022-09-17T23:50:14Z</time>
      </trkpt>
      <trkpt lat="44.15088" lon="6.67527">
        <ele>1816.4</ele>
        <time>2022-09-17T23:50:15Z</time>
      </trkpt>
      <trkpt lat="44.15087" lon="6.67528">
        <ele>1816.5</ele>
        <time>2022-09-17T23:50:17Z</time>
      </trkpt>
      <trkpt lat="44.15087" lon="6.67528">
        <ele>1816.6</ele>
        <time>2022-09-17T23:50:18Z</time>
      </trkpt>
      <trkpt lat="44.15086" lon="6.67528">
        <ele>1816.6</ele>
        <time>2022-09-17T23:50:19Z</time>
      </trkpt>
      <trkpt lat="44.15085" lon="6.67529">
        <ele>1816.7</ele>
        <time>2022-09-17T23:50:21Z</time>
      </trkpt>
      <trkpt lat="44.15085" lon="6.67529">
        <ele>1816.8</ele>
        <time>2022-09-17T23:50:22Z</time>
      </trkpt>
      <trkpt lat="44.15084" lon="6.6753">
        <ele>1816.8</ele>
        <time>2022-09-17T23:50:23Z</time>
      </trkpt>
      <trkpt lat="44.15084" lon="6.6753">
        <ele>1816.9</ele>
        <time>2022-09-17T23:50:24Z</time>
      </trkpt>
      <trkpt lat="44.15082" lon="6.67531">
        <ele>1817</ele>
        <time>2022-09-17T23:50:25Z</time>
      </trkpt>
      <trkpt lat="44.1508" lon="6.67531">
        <ele>1817.1</ele>
        <time>2022-09-17T23:50:27Z</time>
      </trkpt>
      <trkpt lat="44.15079" lon="6.67531">
        <ele>1817.2</ele>
        <time>2022-09-17T23:50:28Z</time>
      </trkpt>
      <trkpt lat="44.15079" lon="6.67531">
        <ele>1817.2</ele>
        <time>2022-09-17T23:50:29Z</time>
      </trkpt>
      <trkpt lat="44.15077" lon="6.67532">
        <ele>1817.3</ele>
        <time>2022-09-17T23:50:31Z</time>
      </trkpt>
      <trkpt lat="44.15077" lon="6.67532">
        <ele>1817.3</ele>
        <time>2022-09-17T23:50:32Z</time>
      </trkpt>
      <trkpt lat="44.15075" lon="6.67533">
        <ele>1817.5</ele>
        <time>2022-09-17T23:50:34Z</time>
      </trkpt>
      <trkpt lat="44.15074" lon="6.67534">
        <ele>1817.5</ele>
        <time>2022-09-17T23:50:36Z</time>
      </trkpt>
      <trkpt lat="44.15073" lon="6.67534">
        <ele>1817.5</ele>
        <time>2022-09-17T23:50:37Z</time>
      </trkpt>
      <trkpt lat="44.15073" lon="6.67534">
        <ele>1817.6</ele>
        <time>2022-09-17T23:50:38Z</time>
      </trkpt>
      <trkpt lat="44.15072" lon="6.67535">
        <ele>1817.6</ele>
        <time>2022-09-17T23:50:40Z</time>
      </trkpt>
      <trkpt lat="44.15072" lon="6.67535">
        <ele>1817.7</ele>
        <time>2022-09-17T23:50:41Z</time>
      </trkpt>
      <trkpt lat="44.15071" lon="6.67536">
        <ele>1817.7</ele>
        <time>2022-09-17T23:50:43Z</time>
      </trkpt>
      <trkpt lat="44.15071" lon="6.67536">
        <ele>1817.7</ele>
        <time>2022-09-17T23:50:44Z</time>
      </trkpt>
      <trkpt lat="44.1507" lon="6.67536">
        <ele>1817.8</ele>
        <time>2022-09-17T23:50:45Z</time>
      </trkpt>
      <trkpt lat="44.1507" lon="6.67536">
        <ele>1817.8</ele>
        <time>2022-09-17T23:50:46Z</time>
      </trkpt>
      <trkpt lat="44.15069" lon="6.67536">
        <ele>1817.8</ele>
        <time>2022-09-17T23:50:47Z</time>
      </trkpt>
      <trkpt lat="44.15069" lon="6.67536">
        <ele>1817.8</ele>
        <time>2022-09-17T23:50:48Z</time>
      </trkpt>
      <trkpt lat="44.15068" lon="6.67537">
        <ele>1817.9</ele>
        <time>2022-09-17T23:50:50Z</time>
      </trkpt>
      <trkpt lat="44.15067" lon="6.67537">
        <ele>1817.9</ele>
        <time>2022-09-17T23:50:51Z</time>
      </trkpt>
      <trkpt lat="44.15067" lon="6.67537">
        <ele>1818</ele>
        <time>2022-09-17T23:50:52Z</time>
      </trkpt>
      <trkpt lat="44.15066" lon="6.67538">
        <ele>1818</ele>
        <time>2022-09-17T23:50:53Z</time>
      </trkpt>
      <trkpt lat="44.15065" lon="6.67539">
        <ele>1818.1</ele>
        <time>2022-09-17T23:50:55Z</time>
      </trkpt>
      <trkpt lat="44.15064" lon="6.67539">
        <ele>1818.1</ele>
        <time>2022-09-17T23:50:56Z</time>
      </trkpt>
      <trkpt lat="44.15063" lon="6.6754">
        <ele>1818.2</ele>
        <time>2022-09-17T23:50:57Z</time>
      </trkpt>
      <trkpt lat="44.15062" lon="6.6754">
        <ele>1818.2</ele>
        <time>2022-09-17T23:50:58Z</time>
      </trkpt>
      <trkpt lat="44.15062" lon="6.6754">
        <ele>1818.2</ele>
        <time>2022-09-17T23:51:00Z</time>
      </trkpt>
      <trkpt lat="44.15062" lon="6.6754">
        <ele>1818.3</ele>
        <time>2022-09-17T23:51:01Z</time>
      </trkpt>
      <trkpt lat="44.1506" lon="6.6754">
        <ele>1818.3</ele>
        <time>2022-09-17T23:51:02Z</time>
      </trkpt>
      <trkpt lat="44.15058" lon="6.67541">
        <ele>1818.4</ele>
        <time>2022-09-17T23:51:04Z</time>
      </trkpt>
      <trkpt lat="44.15058" lon="6.67541">
        <ele>1818.5</ele>
        <time>2022-09-17T23:51:05Z</time>
      </trkpt>
      <trkpt lat="44.15057" lon="6.6754">
        <ele>1818.5</ele>
        <time>2022-09-17T23:51:06Z</time>
      </trkpt>
      <trkpt lat="44.15055" lon="6.6754">
        <ele>1818.6</ele>
        <time>2022-09-17T23:51:08Z</time>
      </trkpt>
      <trkpt lat="44.15053" lon="6.67541">
        <ele>1818.7</ele>
        <time>2022-09-17T23:51:09Z</time>
      </trkpt>
      <trkpt lat="44.15052" lon="6.67541">
        <ele>1818.8</ele>
        <time>2022-09-17T23:51:11Z</time>
      </trkpt>
      <trkpt lat="44.15051" lon="6.67541">
        <ele>1818.8</ele>
        <time>2022-09-17T23:51:12Z</time>
      </trkpt>
      <trkpt lat="44.1505" lon="6.67542">
        <ele>1818.9</ele>
        <time>2022-09-17T23:51:13Z</time>
      </trkpt>
      <trkpt lat="44.15049" lon="6.67543">
        <ele>1818.9</ele>
        <time>2022-09-17T23:51:15Z</time>
      </trkpt>
      <trkpt lat="44.15048" lon="6.67544">
        <ele>1819</ele>
        <time>2022-09-17T23:51:16Z</time>
      </trkpt>
      <trkpt lat="44.15046" lon="6.67546">
        <ele>1819.1</ele>
        <time>2022-09-17T23:51:17Z</time>
      </trkpt>
      <trkpt lat="44.15045" lon="6.67547">
        <ele>1819.1</ele>
        <time>2022-09-17T23:51:18Z</time>
      </trkpt>
      <trkpt lat="44.15044" lon="6.67548">
        <ele>1819.2</ele>
        <time>2022-09-17T23:51:19Z</time>
      </trkpt>
      <trkpt lat="44.15042" lon="6.6755">
        <ele>1819.3</ele>
        <time>2022-09-17T23:51:21Z</time>
      </trkpt>
      <trkpt lat="44.15041" lon="6.67551">
        <ele>1819.3</ele>
        <time>2022-09-17T23:51:22Z</time>
      </trkpt>
      <trkpt lat="44.1504" lon="6.67552">
        <ele>1819.4</ele>
        <time>2022-09-17T23:51:23Z</time>
      </trkpt>
      <trkpt lat="44.15038" lon="6.67553">
        <ele>1819.5</ele>
        <time>2022-09-17T23:51:24Z</time>
      </trkpt>
      <trkpt lat="44.15036" lon="6.67556">
        <ele>1819.6</ele>
        <time>2022-09-17T23:51:25Z</time>
      </trkpt>
      <trkpt lat="44.15036" lon="6.67559">
        <ele>1819.7</ele>
        <time>2022-09-17T23:51:27Z</time>
      </trkpt>
      <trkpt lat="44.15036" lon="6.67559">
        <ele>1819.7</ele>
        <time>2022-09-17T23:51:28Z</time>
      </trkpt>
      <trkpt lat="44.15036" lon="6.67559">
        <ele>1819.7</ele>
        <time>2022-09-17T23:51:29Z</time>
      </trkpt>
      <trkpt lat="44.15036" lon="6.67558">
        <ele>1819.7</ele>
        <time>2022-09-17T23:51:30Z</time>
      </trkpt>
      <trkpt lat="44.15036" lon="6.67557">
        <ele>1819.8</ele>
        <time>2022-09-17T23:51:32Z</time>
      </trkpt>
      <trkpt lat="44.15036" lon="6.67557">
        <ele>1819.8</ele>
        <time>2022-09-17T23:51:33Z</time>
      </trkpt>
      <trkpt lat="44.15036" lon="6.67557">
        <ele>1819.8</ele>
        <time>2022-09-17T23:51:34Z</time>
      </trkpt>
      <trkpt lat="44.15035" lon="6.67557">
        <ele>1819.8</ele>
        <time>2022-09-17T23:51:35Z</time>
      </trkpt>
      <trkpt lat="44.15034" lon="6.67558">
        <ele>1819.9</ele>
        <time>2022-09-17T23:51:36Z</time>
      </trkpt>
      <trkpt lat="44.15032" lon="6.67563">
        <ele>1820</ele>
        <time>2022-09-17T23:51:37Z</time>
      </trkpt>
      <trkpt lat="44.15032" lon="6.67564">
        <ele>1820.1</ele>
        <time>2022-09-17T23:51:38Z</time>
      </trkpt>
      <trkpt lat="44.1503" lon="6.67567">
        <ele>1820.2</ele>
        <time>2022-09-17T23:51:39Z</time>
      </trkpt>
      <trkpt lat="44.15028" lon="6.67573">
        <ele>1820.4</ele>
        <time>2022-09-17T23:51:41Z</time>
      </trkpt>
      <trkpt lat="44.15026" lon="6.67576">
        <ele>1820.5</ele>
        <time>2022-09-17T23:51:42Z</time>
      </trkpt>
      <trkpt lat="44.15025" lon="6.6758">
        <ele>1820.6</ele>
        <time>2022-09-17T23:51:43Z</time>
      </trkpt>
      <trkpt lat="44.15023" lon="6.67584">
        <ele>1820.7</ele>
        <time>2022-09-17T23:51:44Z</time>
      </trkpt>
      <trkpt lat="44.15022" lon="6.67586">
        <ele>1820.8</ele>
        <time>2022-09-17T23:51:45Z</time>
      </trkpt>
      <trkpt lat="44.1502" lon="6.6759">
        <ele>1820.9</ele>
        <time>2022-09-17T23:51:46Z</time>
      </trkpt>
      <trkpt lat="44.15019" lon="6.67592">
        <ele>1821</ele>
        <time>2022-09-17T23:51:47Z</time>
      </trkpt>
      <trkpt lat="44.15018" lon="6.67598">
        <ele>1821.2</ele>
        <time>2022-09-17T23:51:48Z</time>
      </trkpt>
      <trkpt lat="44.15017" lon="6.67604">
        <ele>1821.3</ele>
        <time>2022-09-17T23:51:49Z</time>
      </trkpt>
      <trkpt lat="44.15017" lon="6.6761">
        <ele>1821.6</ele>
        <time>2022-09-17T23:51:51Z</time>
      </trkpt>
      <trkpt lat="44.15018" lon="6.67612">
        <ele>1821.7</ele>
        <time>2022-09-17T23:51:52Z</time>
      </trkpt>
      <trkpt lat="44.15018" lon="6.67614">
        <ele>1821.9</ele>
        <time>2022-09-17T23:51:53Z</time>
      </trkpt>
      <trkpt lat="44.15018" lon="6.67618">
        <ele>1822.1</ele>
        <time>2022-09-17T23:51:54Z</time>
      </trkpt>
      <trkpt lat="44.15018" lon="6.67622">
        <ele>1822.3</ele>
        <time>2022-09-17T23:51:55Z</time>
      </trkpt>
      <trkpt lat="44.15017" lon="6.67627">
        <ele>1822.6</ele>
        <time>2022-09-17T23:51:57Z</time>
      </trkpt>
      <trkpt lat="44.15017" lon="6.67631">
        <ele>1822.9</ele>
        <time>2022-09-17T23:51:58Z</time>
      </trkpt>
      <trkpt lat="44.15015" lon="6.67636">
        <ele>1823.7</ele>
        <time>2022-09-17T23:51:59Z</time>
      </trkpt>
      <trkpt lat="44.15014" lon="6.67639">
        <ele>1824.3</ele>
        <time>2022-09-17T23:52:00Z</time>
      </trkpt>
      <trkpt lat="44.15013" lon="6.6764">
        <ele>1824.5</ele>
        <time>2022-09-17T23:52:01Z</time>
      </trkpt>
      <trkpt lat="44.15012" lon="6.67643">
        <ele>1825</ele>
        <time>2022-09-17T23:52:02Z</time>
      </trkpt>
      <trkpt lat="44.15011" lon="6.67646">
        <ele>1825.6</ele>
        <time>2022-09-17T23:52:04Z</time>
      </trkpt>
      <trkpt lat="44.15008" lon="6.67649">
        <ele>1826.3</ele>
        <time>2022-09-17T23:52:05Z</time>
      </trkpt>
      <trkpt lat="44.15007" lon="6.6765">
        <ele>1826.7</ele>
        <time>2022-09-17T23:52:06Z</time>
      </trkpt>
      <trkpt lat="44.15005" lon="6.67653">
        <ele>1827.3</ele>
        <time>2022-09-17T23:52:07Z</time>
      </trkpt>
      <trkpt lat="44.15003" lon="6.67655">
        <ele>1827.9</ele>
        <time>2022-09-17T23:52:08Z</time>
      </trkpt>
      <trkpt lat="44.15" lon="6.67657">
        <ele>1828.5</ele>
        <time>2022-09-17T23:52:10Z</time>
      </trkpt>
      <trkpt lat="44.14998" lon="6.67659">
        <ele>1829.1</ele>
        <time>2022-09-17T23:52:11Z</time>
      </trkpt>
      <trkpt lat="44.14994" lon="6.67662">
        <ele>1830.1</ele>
        <time>2022-09-17T23:52:12Z</time>
      </trkpt>
      <trkpt lat="44.14993" lon="6.67663">
        <ele>1830.4</ele>
        <time>2022-09-17T23:52:13Z</time>
      </trkpt>
      <trkpt lat="44.14991" lon="6.67666">
        <ele>1831</ele>
        <time>2022-09-17T23:52:14Z</time>
      </trkpt>
      <trkpt lat="44.14989" lon="6.6767">
        <ele>1831.8</ele>
        <time>2022-09-17T23:52:15Z</time>
      </trkpt>
      <trkpt lat="44.14987" lon="6.67673">
        <ele>1832.5</ele>
        <time>2022-09-17T23:52:16Z</time>
      </trkpt>
      <trkpt lat="44.14986" lon="6.67678">
        <ele>1833.4</ele>
        <time>2022-09-17T23:52:18Z</time>
      </trkpt>
      <trkpt lat="44.14985" lon="6.67682">
        <ele>1834.1</ele>
        <time>2022-09-17T23:52:19Z</time>
      </trkpt>
      <trkpt lat="44.14984" lon="6.67686">
        <ele>1834.8</ele>
        <time>2022-09-17T23:52:20Z</time>
      </trkpt>
      <trkpt lat="44.14983" lon="6.67687">
        <ele>1835.1</ele>
        <time>2022-09-17T23:52:21Z</time>
      </trkpt>
      <trkpt lat="44.1498" lon="6.67691">
        <ele>1835.9</ele>
        <time>2022-09-17T23:52:22Z</time>
      </trkpt>
      <trkpt lat="44.14977" lon="6.67695">
        <ele>1836.8</ele>
        <time>2022-09-17T23:52:23Z</time>
      </trkpt>
      <trkpt lat="44.14974" lon="6.67698">
        <ele>1837.6</ele>
        <time>2022-09-17T23:52:25Z</time>
      </trkpt>
      <trkpt lat="44.14971" lon="6.67699">
        <ele>1838.2</ele>
        <time>2022-09-17T23:52:26Z</time>
      </trkpt>
      <trkpt lat="44.14971" lon="6.67699">
        <ele>1838.4</ele>
        <time>2022-09-17T23:52:27Z</time>
      </trkpt>
      <trkpt lat="44.1497" lon="6.677">
        <ele>1838.7</ele>
        <time>2022-09-17T23:52:28Z</time>
      </trkpt>
      <trkpt lat="44.1497" lon="6.67701">
        <ele>1838.8</ele>
        <time>2022-09-17T23:52:30Z</time>
      </trkpt>
      <trkpt lat="44.14969" lon="6.67701">
        <ele>1838.9</ele>
        <time>2022-09-17T23:52:31Z</time>
      </trkpt>
      <trkpt lat="44.14969" lon="6.67701">
        <ele>1839</ele>
        <time>2022-09-17T23:52:32Z</time>
      </trkpt>
      <trkpt lat="44.14968" lon="6.67702">
        <ele>1839.1</ele>
        <time>2022-09-17T23:52:33Z</time>
      </trkpt>
      <trkpt lat="44.14968" lon="6.67702">
        <ele>1839.1</ele>
        <time>2022-09-17T23:52:34Z</time>
      </trkpt>
      <trkpt lat="44.14968" lon="6.67702">
        <ele>1839.2</ele>
        <time>2022-09-17T23:52:35Z</time>
      </trkpt>
      <trkpt lat="44.14967" lon="6.67702">
        <ele>1839.2</ele>
        <time>2022-09-17T23:52:36Z</time>
      </trkpt>
      <trkpt lat="44.14967" lon="6.67703">
        <ele>1839.3</ele>
        <time>2022-09-17T23:52:37Z</time>
      </trkpt>
      <trkpt lat="44.14966" lon="6.67703">
        <ele>1839.3</ele>
        <time>2022-09-17T23:52:38Z</time>
      </trkpt>
      <trkpt lat="44.14966" lon="6.67703">
        <ele>1839.3</ele>
        <time>2022-09-17T23:52:39Z</time>
      </trkpt>
      <trkpt lat="44.14966" lon="6.67703">
        <ele>1839.3</ele>
        <time>2022-09-17T23:52:40Z</time>
      </trkpt>
      <trkpt lat="44.14965" lon="6.67704">
        <ele>1839.3</ele>
        <time>2022-09-17T23:52:41Z</time>
      </trkpt>
      <trkpt lat="44.14965" lon="6.67704">
        <ele>1839.4</ele>
        <time>2022-09-17T23:52:42Z</time>
      </trkpt>
      <trkpt lat="44.14964" lon="6.67704">
        <ele>1839.4</ele>
        <time>2022-09-17T23:53:58Z</time>
      </trkpt>
      <trkpt lat="44.14964" lon="6.67705">
        <ele>1839.4</ele>
        <time>2022-09-17T23:53:59Z</time>
      </trkpt>
      <trkpt lat="44.14963" lon="6.67705">
        <ele>1839.4</ele>
        <time>2022-09-17T23:54:00Z</time>
      </trkpt>
      <trkpt lat="44.14962" lon="6.67705">
        <ele>1839.5</ele>
        <time>2022-09-17T23:54:01Z</time>
      </trkpt>
      <trkpt lat="44.14962" lon="6.67706">
        <ele>1839.5</ele>
        <time>2022-09-17T23:54:02Z</time>
      </trkpt>
      <trkpt lat="44.14962" lon="6.67706">
        <ele>1839.5</ele>
        <time>2022-09-17T23:54:03Z</time>
      </trkpt>
      <trkpt lat="44.14961" lon="6.67706">
        <ele>1839.6</ele>
        <time>2022-09-17T23:54:04Z</time>
      </trkpt>
      <trkpt lat="44.14961" lon="6.67706">
        <ele>1839.6</ele>
        <time>2022-09-17T23:54:05Z</time>
      </trkpt>
      <trkpt lat="44.14961" lon="6.67706">
        <ele>1839.6</ele>
        <time>2022-09-17T23:54:06Z</time>
      </trkpt>
      <trkpt lat="44.14961" lon="6.67707">
        <ele>1839.6</ele>
        <time>2022-09-17T23:54:07Z</time>
      </trkpt>
      <trkpt lat="44.14961" lon="6.67707">
        <ele>1839.6</ele>
        <time>2022-09-17T23:54:08Z</time>
      </trkpt>
      <trkpt lat="44.1496" lon="6.67707">
        <ele>1839.6</ele>
        <time>2022-09-17T23:54:09Z</time>
      </trkpt>
      <trkpt lat="44.1496" lon="6.67707">
        <ele>1839.6</ele>
        <time>2022-09-17T23:54:10Z</time>
      </trkpt>
      <trkpt lat="44.1496" lon="6.67707">
        <ele>1839.6</ele>
        <time>2022-09-17T23:54:11Z</time>
      </trkpt>
      <trkpt lat="44.1496" lon="6.67707">
        <ele>1839.6</ele>
        <time>2022-09-17T23:54:12Z</time>
      </trkpt>
      <trkpt lat="44.1496" lon="6.67708">
        <ele>1839.7</ele>
        <time>2022-09-17T23:54:13Z</time>
      </trkpt>
      <trkpt lat="44.14959" lon="6.67708">
        <ele>1839.7</ele>
        <time>2022-09-17T23:54:14Z</time>
      </trkpt>
      <trkpt lat="44.14959" lon="6.67708">
        <ele>1839.7</ele>
        <time>2022-09-17T23:54:17Z</time>
      </trkpt>
      <trkpt lat="44.14959" lon="6.67708">
        <ele>1839.7</ele>
        <time>2022-09-17T23:54:18Z</time>
      </trkpt>
      <trkpt lat="44.14959" lon="6.67708">
        <ele>1839.7</ele>
        <time>2022-09-17T23:54:20Z</time>
      </trkpt>
      <trkpt lat="44.14959" lon="6.67709">
        <ele>1839.7</ele>
        <time>2022-09-17T23:54:21Z</time>
      </trkpt>
      <trkpt lat="44.14958" lon="6.67709">
        <ele>1839.7</ele>
        <time>2022-09-17T23:54:22Z</time>
      </trkpt>
      <trkpt lat="44.14958" lon="6.67709">
        <ele>1839.7</ele>
        <time>2022-09-17T23:54:23Z</time>
      </trkpt>
      <trkpt lat="44.14958" lon="6.67709">
        <ele>1839.8</ele>
        <time>2022-09-17T23:54:24Z</time>
      </trkpt>
      <trkpt lat="44.14958" lon="6.67709">
        <ele>1839.8</ele>
        <time>2022-09-17T23:54:25Z</time>
      </trkpt>
      <trkpt lat="44.14958" lon="6.6771">
        <ele>1839.8</ele>
        <time>2022-09-17T23:54:26Z</time>
      </trkpt>
      <trkpt lat="44.14957" lon="6.6771">
        <ele>1839.8</ele>
        <time>2022-09-17T23:54:27Z</time>
      </trkpt>
      <trkpt lat="44.14957" lon="6.6771">
        <ele>1839.8</ele>
        <time>2022-09-17T23:54:28Z</time>
      </trkpt>
      <trkpt lat="44.14957" lon="6.6771">
        <ele>1839.8</ele>
        <time>2022-09-17T23:54:29Z</time>
      </trkpt>
      <trkpt lat="44.14957" lon="6.6771">
        <ele>1839.8</ele>
        <time>2022-09-17T23:54:30Z</time>
      </trkpt>
      <trkpt lat="44.14957" lon="6.6771">
        <ele>1839.8</ele>
        <time>2022-09-17T23:54:31Z</time>
      </trkpt>
      <trkpt lat="44.14956" lon="6.67711">
        <ele>1839.8</ele>
        <time>2022-09-17T23:54:32Z</time>
      </trkpt>
      <trkpt lat="44.14956" lon="6.67711">
        <ele>1839.9</ele>
        <time>2022-09-17T23:54:33Z</time>
      </trkpt>
      <trkpt lat="44.14956" lon="6.67711">
        <ele>1839.9</ele>
        <time>2022-09-17T23:54:34Z</time>
      </trkpt>
      <trkpt lat="44.14956" lon="6.67711">
        <ele>1839.9</ele>
        <time>2022-09-17T23:54:35Z</time>
      </trkpt>
      <trkpt lat="44.14956" lon="6.67711">
        <ele>1839.9</ele>
        <time>2022-09-17T23:54:36Z</time>
      </trkpt>
      <trkpt lat="44.14955" lon="6.67712">
        <ele>1839.9</ele>
        <time>2022-09-17T23:54:37Z</time>
      </trkpt>
      <trkpt lat="44.14955" lon="6.67712">
        <ele>1839.9</ele>
        <time>2022-09-17T23:54:38Z</time>
      </trkpt>
      <trkpt lat="44.14955" lon="6.67712">
        <ele>1839.9</ele>
        <time>2022-09-17T23:54:40Z</time>
      </trkpt>
      <trkpt lat="44.14955" lon="6.67712">
        <ele>1839.9</ele>
        <time>2022-09-17T23:54:41Z</time>
      </trkpt>
      <trkpt lat="44.14955" lon="6.67712">
        <ele>1840</ele>
        <time>2022-09-17T23:54:42Z</time>
      </trkpt>
      <trkpt lat="44.14954" lon="6.67713">
        <ele>1840</ele>
        <time>2022-09-17T23:54:43Z</time>
      </trkpt>
      <trkpt lat="44.14954" lon="6.67713">
        <ele>1840</ele>
        <time>2022-09-17T23:54:44Z</time>
      </trkpt>
      <trkpt lat="44.14954" lon="6.67713">
        <ele>1840</ele>
        <time>2022-09-17T23:54:45Z</time>
      </trkpt>
      <trkpt lat="44.14951" lon="6.67714">
        <ele>1840.2</ele>
        <time>2022-09-17T23:54:47Z</time>
      </trkpt>
      <trkpt lat="44.14948" lon="6.67714">
        <ele>1840.3</ele>
        <time>2022-09-17T23:54:48Z</time>
      </trkpt>
      <trkpt lat="44.14946" lon="6.67714">
        <ele>1840.4</ele>
        <time>2022-09-17T23:54:50Z</time>
      </trkpt>
      <trkpt lat="44.14946" lon="6.67714">
        <ele>1840.4</ele>
        <time>2022-09-17T23:54:51Z</time>
      </trkpt>
      <trkpt lat="44.14946" lon="6.67714">
        <ele>1840.4</ele>
        <time>2022-09-17T23:54:52Z</time>
      </trkpt>
      <trkpt lat="44.14946" lon="6.67713">
        <ele>1840.4</ele>
        <time>2022-09-17T23:54:53Z</time>
      </trkpt>
      <trkpt lat="44.14946" lon="6.67713">
        <ele>1840.4</ele>
        <time>2022-09-17T23:54:54Z</time>
      </trkpt>
      <trkpt lat="44.14946" lon="6.67713">
        <ele>1840.5</ele>
        <time>2022-09-17T23:54:55Z</time>
      </trkpt>
      <trkpt lat="44.14946" lon="6.67713">
        <ele>1840.5</ele>
        <time>2022-09-17T23:54:56Z</time>
      </trkpt>
      <trkpt lat="44.14945" lon="6.67713">
        <ele>1840.5</ele>
        <time>2022-09-17T23:54:57Z</time>
      </trkpt>
      <trkpt lat="44.14943" lon="6.67714">
        <ele>1840.6</ele>
        <time>2022-09-17T23:54:58Z</time>
      </trkpt>
      <trkpt lat="44.14941" lon="6.67714">
        <ele>1840.7</ele>
        <time>2022-09-17T23:55:00Z</time>
      </trkpt>
      <trkpt lat="44.14938" lon="6.67716">
        <ele>1840.9</ele>
        <time>2022-09-17T23:55:01Z</time>
      </trkpt>
      <trkpt lat="44.14934" lon="6.67719">
        <ele>1841.1</ele>
        <time>2022-09-17T23:55:03Z</time>
      </trkpt>
      <trkpt lat="44.14931" lon="6.67721">
        <ele>1841.4</ele>
        <time>2022-09-17T23:55:04Z</time>
      </trkpt>
      <trkpt lat="44.1493" lon="6.67722">
        <ele>1841.5</ele>
        <time>2022-09-17T23:55:05Z</time>
      </trkpt>
      <trkpt lat="44.14926" lon="6.67724">
        <ele>1841.8</ele>
        <time>2022-09-17T23:55:06Z</time>
      </trkpt>
      <trkpt lat="44.14924" lon="6.67727">
        <ele>1842.1</ele>
        <time>2022-09-17T23:55:07Z</time>
      </trkpt>
      <trkpt lat="44.14921" lon="6.67728">
        <ele>1842.4</ele>
        <time>2022-09-17T23:55:08Z</time>
      </trkpt>
      <trkpt lat="44.14919" lon="6.67731">
        <ele>1842.8</ele>
        <time>2022-09-17T23:55:10Z</time>
      </trkpt>
      <trkpt lat="44.14916" lon="6.67735">
        <ele>1843.3</ele>
        <time>2022-09-17T23:55:11Z</time>
      </trkpt>
      <trkpt lat="44.14915" lon="6.67736">
        <ele>1843.5</ele>
        <time>2022-09-17T23:55:12Z</time>
      </trkpt>
      <trkpt lat="44.14913" lon="6.6774">
        <ele>1843.9</ele>
        <time>2022-09-17T23:55:13Z</time>
      </trkpt>
      <trkpt lat="44.14912" lon="6.67744">
        <ele>1844.3</ele>
        <time>2022-09-17T23:55:14Z</time>
      </trkpt>
      <trkpt lat="44.1491" lon="6.67748">
        <ele>1844.8</ele>
        <time>2022-09-17T23:55:16Z</time>
      </trkpt>
      <trkpt lat="44.14908" lon="6.67751">
        <ele>1845.2</ele>
        <time>2022-09-17T23:55:17Z</time>
      </trkpt>
      <trkpt lat="44.14906" lon="6.67755">
        <ele>1845.7</ele>
        <time>2022-09-17T23:55:18Z</time>
      </trkpt>
      <trkpt lat="44.14905" lon="6.67758">
        <ele>1846.1</ele>
        <time>2022-09-17T23:55:20Z</time>
      </trkpt>
      <trkpt lat="44.14903" lon="6.67762">
        <ele>1846.5</ele>
        <time>2022-09-17T23:55:21Z</time>
      </trkpt>
      <trkpt lat="44.149" lon="6.67766">
        <ele>1847</ele>
        <time>2022-09-17T23:55:23Z</time>
      </trkpt>
      <trkpt lat="44.14899" lon="6.67768">
        <ele>1847.2</ele>
        <time>2022-09-17T23:55:24Z</time>
      </trkpt>
      <trkpt lat="44.14898" lon="6.67769">
        <ele>1847.3</ele>
        <time>2022-09-17T23:55:25Z</time>
      </trkpt>
      <trkpt lat="44.14894" lon="6.67772">
        <ele>1847.9</ele>
        <time>2022-09-17T23:55:26Z</time>
      </trkpt>
      <trkpt lat="44.1489" lon="6.67776">
        <ele>1848.6</ele>
        <time>2022-09-17T23:55:28Z</time>
      </trkpt>
      <trkpt lat="44.14889" lon="6.67777">
        <ele>1848.8</ele>
        <time>2022-09-17T23:55:29Z</time>
      </trkpt>
      <trkpt lat="44.14888" lon="6.67779">
        <ele>1849</ele>
        <time>2022-09-17T23:55:30Z</time>
      </trkpt>
      <trkpt lat="44.14887" lon="6.67782">
        <ele>1849.3</ele>
        <time>2022-09-17T23:55:31Z</time>
      </trkpt>
      <trkpt lat="44.14887" lon="6.67783">
        <ele>1849.5</ele>
        <time>2022-09-17T23:55:32Z</time>
      </trkpt>
      <trkpt lat="44.14886" lon="6.67785">
        <ele>1849.6</ele>
        <time>2022-09-17T23:55:33Z</time>
      </trkpt>
      <trkpt lat="44.14884" lon="6.67788">
        <ele>1850.1</ele>
        <time>2022-09-17T23:55:35Z</time>
      </trkpt>
      <trkpt lat="44.14883" lon="6.67789">
        <ele>1850.3</ele>
        <time>2022-09-17T23:55:36Z</time>
      </trkpt>
      <trkpt lat="44.14882" lon="6.67792">
        <ele>1850.7</ele>
        <time>2022-09-17T23:55:37Z</time>
      </trkpt>
      <trkpt lat="44.14879" lon="6.67795">
        <ele>1851.3</ele>
        <time>2022-09-17T23:55:38Z</time>
      </trkpt>
      <trkpt lat="44.14878" lon="6.67796">
        <ele>1851.5</ele>
        <time>2022-09-17T23:55:39Z</time>
      </trkpt>
      <trkpt lat="44.14876" lon="6.678">
        <ele>1852</ele>
        <time>2022-09-17T23:55:41Z</time>
      </trkpt>
      <trkpt lat="44.14874" lon="6.67804">
        <ele>1852.5</ele>
        <time>2022-09-17T23:55:42Z</time>
      </trkpt>
      <trkpt lat="44.14873" lon="6.67808">
        <ele>1853</ele>
        <time>2022-09-17T23:55:43Z</time>
      </trkpt>
      <trkpt lat="44.1487" lon="6.67813">
        <ele>1853.9</ele>
        <time>2022-09-17T23:55:45Z</time>
      </trkpt>
      <trkpt lat="44.14868" lon="6.67815">
        <ele>1854.2</ele>
        <time>2022-09-17T23:55:46Z</time>
      </trkpt>
      <trkpt lat="44.14867" lon="6.67817">
        <ele>1854.5</ele>
        <time>2022-09-17T23:55:47Z</time>
      </trkpt>
      <trkpt lat="44.14865" lon="6.67819">
        <ele>1855</ele>
        <time>2022-09-17T23:55:48Z</time>
      </trkpt>
      <trkpt lat="44.14862" lon="6.67822">
        <ele>1855.5</ele>
        <time>2022-09-17T23:55:49Z</time>
      </trkpt>
      <trkpt lat="44.1486" lon="6.67825">
        <ele>1856.1</ele>
        <time>2022-09-17T23:55:50Z</time>
      </trkpt>
      <trkpt lat="44.14857" lon="6.67829">
        <ele>1856.8</ele>
        <time>2022-09-17T23:55:51Z</time>
      </trkpt>
      <trkpt lat="44.14855" lon="6.67834">
        <ele>1857.7</ele>
        <time>2022-09-17T23:55:53Z</time>
      </trkpt>
      <trkpt lat="44.14853" lon="6.67837">
        <ele>1858.2</ele>
        <time>2022-09-17T23:55:54Z</time>
      </trkpt>
      <trkpt lat="44.14852" lon="6.6784">
        <ele>1858.6</ele>
        <time>2022-09-17T23:55:56Z</time>
      </trkpt>
      <trkpt lat="44.1485" lon="6.67844">
        <ele>1859.4</ele>
        <time>2022-09-17T23:55:57Z</time>
      </trkpt>
      <trkpt lat="44.14849" lon="6.67846">
        <ele>1859.7</ele>
        <time>2022-09-17T23:55:58Z</time>
      </trkpt>
      <trkpt lat="44.14848" lon="6.6785">
        <ele>1860.3</ele>
        <time>2022-09-17T23:55:59Z</time>
      </trkpt>
      <trkpt lat="44.14846" lon="6.67853">
        <ele>1860.9</ele>
        <time>2022-09-17T23:56:00Z</time>
      </trkpt>
      <trkpt lat="44.14844" lon="6.67856">
        <ele>1861.5</ele>
        <time>2022-09-17T23:56:01Z</time>
      </trkpt>
      <trkpt lat="44.14842" lon="6.67862">
        <ele>1862.5</ele>
        <time>2022-09-17T23:56:02Z</time>
      </trkpt>
      <trkpt lat="44.1484" lon="6.67865">
        <ele>1863.1</ele>
        <time>2022-09-17T23:56:04Z</time>
      </trkpt>
      <trkpt lat="44.14838" lon="6.67869">
        <ele>1863.8</ele>
        <time>2022-09-17T23:56:05Z</time>
      </trkpt>
      <trkpt lat="44.14835" lon="6.67873">
        <ele>1864.5</ele>
        <time>2022-09-17T23:56:06Z</time>
      </trkpt>
      <trkpt lat="44.14832" lon="6.67877">
        <ele>1865.2</ele>
        <time>2022-09-17T23:56:08Z</time>
      </trkpt>
      <trkpt lat="44.1483" lon="6.67878">
        <ele>1865.5</ele>
        <time>2022-09-17T23:56:09Z</time>
      </trkpt>
      <trkpt lat="44.14829" lon="6.67879">
        <ele>1865.7</ele>
        <time>2022-09-17T23:56:10Z</time>
      </trkpt>
      <trkpt lat="44.14825" lon="6.67881">
        <ele>1866.2</ele>
        <time>2022-09-17T23:56:11Z</time>
      </trkpt>
      <trkpt lat="44.14822" lon="6.67884">
        <ele>1866.7</ele>
        <time>2022-09-17T23:56:12Z</time>
      </trkpt>
      <trkpt lat="44.14817" lon="6.67888">
        <ele>1867.4</ele>
        <time>2022-09-17T23:56:13Z</time>
      </trkpt>
      <trkpt lat="44.14813" lon="6.6789">
        <ele>1868</ele>
        <time>2022-09-17T23:56:14Z</time>
      </trkpt>
      <trkpt lat="44.14808" lon="6.67893">
        <ele>1869</ele>
        <time>2022-09-17T23:56:16Z</time>
      </trkpt>
      <trkpt lat="44.14806" lon="6.67895">
        <ele>1869.4</ele>
        <time>2022-09-17T23:56:17Z</time>
      </trkpt>
      <trkpt lat="44.14802" lon="6.67899">
        <ele>1870.4</ele>
        <time>2022-09-17T23:56:19Z</time>
      </trkpt>
      <trkpt lat="44.148" lon="6.67903">
        <ele>1870.9</ele>
        <time>2022-09-17T23:56:20Z</time>
      </trkpt>
      <trkpt lat="44.14799" lon="6.67906">
        <ele>1871.4</ele>
        <time>2022-09-17T23:56:21Z</time>
      </trkpt>
      <trkpt lat="44.14794" lon="6.6791">
        <ele>1872.2</ele>
        <time>2022-09-17T23:56:23Z</time>
      </trkpt>
      <trkpt lat="44.14791" lon="6.67911">
        <ele>1872.8</ele>
        <time>2022-09-17T23:56:25Z</time>
      </trkpt>
      <trkpt lat="44.14787" lon="6.67911">
        <ele>1873.3</ele>
        <time>2022-09-17T23:56:26Z</time>
      </trkpt>
      <trkpt lat="44.14783" lon="6.67911">
        <ele>1873.8</ele>
        <time>2022-09-17T23:56:27Z</time>
      </trkpt>
      <trkpt lat="44.1478" lon="6.67913">
        <ele>1874.3</ele>
        <time>2022-09-17T23:56:28Z</time>
      </trkpt>
      <trkpt lat="44.14778" lon="6.67915">
        <ele>1874.7</ele>
        <time>2022-09-17T23:56:29Z</time>
      </trkpt>
      <trkpt lat="44.14776" lon="6.67918">
        <ele>1875.1</ele>
        <time>2022-09-17T23:56:30Z</time>
      </trkpt>
      <trkpt lat="44.14775" lon="6.67922">
        <ele>1875.5</ele>
        <time>2022-09-17T23:56:31Z</time>
      </trkpt>
      <trkpt lat="44.14774" lon="6.67931">
        <ele>1876.5</ele>
        <time>2022-09-17T23:56:33Z</time>
      </trkpt>
      <trkpt lat="44.14772" lon="6.67935">
        <ele>1876.9</ele>
        <time>2022-09-17T23:56:35Z</time>
      </trkpt>
      <trkpt lat="44.14771" lon="6.67938">
        <ele>1877.3</ele>
        <time>2022-09-17T23:56:36Z</time>
      </trkpt>
      <trkpt lat="44.14769" lon="6.67945">
        <ele>1878.1</ele>
        <time>2022-09-17T23:56:37Z</time>
      </trkpt>
      <trkpt lat="44.14768" lon="6.67948">
        <ele>1878.5</ele>
        <time>2022-09-17T23:56:38Z</time>
      </trkpt>
      <trkpt lat="44.14767" lon="6.6795">
        <ele>1878.9</ele>
        <time>2022-09-17T23:56:39Z</time>
      </trkpt>
      <trkpt lat="44.14763" lon="6.67953">
        <ele>1879.5</ele>
        <time>2022-09-17T23:56:41Z</time>
      </trkpt>
      <trkpt lat="44.14762" lon="6.67953">
        <ele>1879.7</ele>
        <time>2022-09-17T23:56:42Z</time>
      </trkpt>
      <trkpt lat="44.14759" lon="6.67955">
        <ele>1880.3</ele>
        <time>2022-09-17T23:56:43Z</time>
      </trkpt>
      <trkpt lat="44.14757" lon="6.67957">
        <ele>1880.8</ele>
        <time>2022-09-17T23:56:44Z</time>
      </trkpt>
      <trkpt lat="44.14754" lon="6.67959">
        <ele>1881.2</ele>
        <time>2022-09-17T23:56:45Z</time>
      </trkpt>
      <trkpt lat="44.14752" lon="6.67961">
        <ele>1881.7</ele>
        <time>2022-09-17T23:56:46Z</time>
      </trkpt>
      <trkpt lat="44.1475" lon="6.67964">
        <ele>1882.2</ele>
        <time>2022-09-17T23:56:48Z</time>
      </trkpt>
      <trkpt lat="44.14748" lon="6.67968">
        <ele>1882.7</ele>
        <time>2022-09-17T23:56:49Z</time>
      </trkpt>
      <trkpt lat="44.14747" lon="6.67973">
        <ele>1883.1</ele>
        <time>2022-09-17T23:56:50Z</time>
      </trkpt>
      <trkpt lat="44.14743" lon="6.67978">
        <ele>1883.8</ele>
        <time>2022-09-17T23:56:52Z</time>
      </trkpt>
      <trkpt lat="44.14741" lon="6.67979">
        <ele>1884.1</ele>
        <time>2022-09-17T23:56:53Z</time>
      </trkpt>
      <trkpt lat="44.14736" lon="6.67982">
        <ele>1884.7</ele>
        <time>2022-09-17T23:56:55Z</time>
      </trkpt>
      <trkpt lat="44.14735" lon="6.67983">
        <ele>1884.9</ele>
        <time>2022-09-17T23:56:56Z</time>
      </trkpt>
      <trkpt lat="44.14733" lon="6.67984">
        <ele>1885.1</ele>
        <time>2022-09-17T23:56:57Z</time>
      </trkpt>
      <trkpt lat="44.14731" lon="6.67986">
        <ele>1885.3</ele>
        <time>2022-09-17T23:56:58Z</time>
      </trkpt>
      <trkpt lat="44.14729" lon="6.67988">
        <ele>1885.6</ele>
        <time>2022-09-17T23:56:59Z</time>
      </trkpt>
      <trkpt lat="44.14726" lon="6.67992">
        <ele>1886</ele>
        <time>2022-09-17T23:57:00Z</time>
      </trkpt>
      <trkpt lat="44.14722" lon="6.67995">
        <ele>1886.5</ele>
        <time>2022-09-17T23:57:01Z</time>
      </trkpt>
      <trkpt lat="44.14721" lon="6.67997">
        <ele>1886.7</ele>
        <time>2022-09-17T23:57:02Z</time>
      </trkpt>
      <trkpt lat="44.14719" lon="6.67999">
        <ele>1887</ele>
        <time>2022-09-17T23:57:03Z</time>
      </trkpt>
      <trkpt lat="44.14717" lon="6.68002">
        <ele>1887.4</ele>
        <time>2022-09-17T23:57:05Z</time>
      </trkpt>
      <trkpt lat="44.14715" lon="6.68005">
        <ele>1887.8</ele>
        <time>2022-09-17T23:57:06Z</time>
      </trkpt>
      <trkpt lat="44.14712" lon="6.68006">
        <ele>1888.2</ele>
        <time>2022-09-17T23:57:07Z</time>
      </trkpt>
      <trkpt lat="44.14709" lon="6.68009">
        <ele>1888.8</ele>
        <time>2022-09-17T23:57:08Z</time>
      </trkpt>
      <trkpt lat="44.14706" lon="6.68011">
        <ele>1889.6</ele>
        <time>2022-09-17T23:57:09Z</time>
      </trkpt>
      <trkpt lat="44.14702" lon="6.68013">
        <ele>1890.5</ele>
        <time>2022-09-17T23:57:11Z</time>
      </trkpt>
      <trkpt lat="44.14698" lon="6.68014">
        <ele>1891.4</ele>
        <time>2022-09-17T23:57:12Z</time>
      </trkpt>
      <trkpt lat="44.14697" lon="6.68015">
        <ele>1891.7</ele>
        <time>2022-09-17T23:57:13Z</time>
      </trkpt>
      <trkpt lat="44.14694" lon="6.68017">
        <ele>1892.7</ele>
        <time>2022-09-17T23:57:14Z</time>
      </trkpt>
      <trkpt lat="44.14693" lon="6.68018">
        <ele>1893.2</ele>
        <time>2022-09-17T23:57:15Z</time>
      </trkpt>
      <trkpt lat="44.1469" lon="6.68022">
        <ele>1894.2</ele>
        <time>2022-09-17T23:57:17Z</time>
      </trkpt>
      <trkpt lat="44.14689" lon="6.68023">
        <ele>1894.5</ele>
        <time>2022-09-17T23:57:18Z</time>
      </trkpt>
      <trkpt lat="44.14687" lon="6.68026">
        <ele>1895.3</ele>
        <time>2022-09-17T23:57:19Z</time>
      </trkpt>
      <trkpt lat="44.14685" lon="6.6803">
        <ele>1896.3</ele>
        <time>2022-09-17T23:57:20Z</time>
      </trkpt>
      <trkpt lat="44.14683" lon="6.68032">
        <ele>1897</ele>
        <time>2022-09-17T23:57:21Z</time>
      </trkpt>
      <trkpt lat="44.14681" lon="6.68035">
        <ele>1897.8</ele>
        <time>2022-09-17T23:57:23Z</time>
      </trkpt>
      <trkpt lat="44.14678" lon="6.68038">
        <ele>1898.7</ele>
        <time>2022-09-17T23:57:24Z</time>
      </trkpt>
      <trkpt lat="44.14677" lon="6.68039">
        <ele>1899</ele>
        <time>2022-09-17T23:57:25Z</time>
      </trkpt>
      <trkpt lat="44.14675" lon="6.68042">
        <ele>1899.9</ele>
        <time>2022-09-17T23:57:26Z</time>
      </trkpt>
      <trkpt lat="44.14674" lon="6.68043">
        <ele>1900.1</ele>
        <time>2022-09-17T23:57:27Z</time>
      </trkpt>
      <trkpt lat="44.1467" lon="6.68044">
        <ele>1901.1</ele>
        <time>2022-09-17T23:57:28Z</time>
      </trkpt>
      <trkpt lat="44.14668" lon="6.68043">
        <ele>1901.5</ele>
        <time>2022-09-17T23:57:29Z</time>
      </trkpt>
      <trkpt lat="44.14664" lon="6.68043">
        <ele>1902.3</ele>
        <time>2022-09-17T23:57:30Z</time>
      </trkpt>
      <trkpt lat="44.14663" lon="6.68044">
        <ele>1902.6</ele>
        <time>2022-09-17T23:57:31Z</time>
      </trkpt>
      <trkpt lat="44.1466" lon="6.68045">
        <ele>1903.1</ele>
        <time>2022-09-17T23:57:32Z</time>
      </trkpt>
      <trkpt lat="44.14656" lon="6.68047">
        <ele>1904.1</ele>
        <time>2022-09-17T23:57:34Z</time>
      </trkpt>
      <trkpt lat="44.14654" lon="6.68048">
        <ele>1904.4</ele>
        <time>2022-09-17T23:57:35Z</time>
      </trkpt>
      <trkpt lat="44.14653" lon="6.6805">
        <ele>1904.7</ele>
        <time>2022-09-17T23:57:36Z</time>
      </trkpt>
      <trkpt lat="44.1465" lon="6.68052">
        <ele>1905.2</ele>
        <time>2022-09-17T23:57:37Z</time>
      </trkpt>
      <trkpt lat="44.14649" lon="6.68053">
        <ele>1905.4</ele>
        <time>2022-09-17T23:57:38Z</time>
      </trkpt>
      <trkpt lat="44.14647" lon="6.68055">
        <ele>1905.8</ele>
        <time>2022-09-17T23:57:39Z</time>
      </trkpt>
      <trkpt lat="44.14644" lon="6.68058">
        <ele>1906.4</ele>
        <time>2022-09-17T23:57:41Z</time>
      </trkpt>
      <trkpt lat="44.14642" lon="6.68061">
        <ele>1906.9</ele>
        <time>2022-09-17T23:57:42Z</time>
      </trkpt>
      <trkpt lat="44.1464" lon="6.68064">
        <ele>1907.4</ele>
        <time>2022-09-17T23:57:43Z</time>
      </trkpt>
      <trkpt lat="44.14638" lon="6.68067">
        <ele>1907.8</ele>
        <time>2022-09-17T23:57:44Z</time>
      </trkpt>
      <trkpt lat="44.14636" lon="6.6807">
        <ele>1908.2</ele>
        <time>2022-09-17T23:57:45Z</time>
      </trkpt>
      <trkpt lat="44.14634" lon="6.68074">
        <ele>1908.7</ele>
        <time>2022-09-17T23:57:46Z</time>
      </trkpt>
      <trkpt lat="44.14632" lon="6.68077">
        <ele>1909.3</ele>
        <time>2022-09-17T23:57:48Z</time>
      </trkpt>
      <trkpt lat="44.14631" lon="6.68079">
        <ele>1909.5</ele>
        <time>2022-09-17T23:57:49Z</time>
      </trkpt>
      <trkpt lat="44.14629" lon="6.68082">
        <ele>1910</ele>
        <time>2022-09-17T23:57:50Z</time>
      </trkpt>
      <trkpt lat="44.14629" lon="6.68083">
        <ele>1910.1</ele>
        <time>2022-09-17T23:57:51Z</time>
      </trkpt>
      <trkpt lat="44.14627" lon="6.68087">
        <ele>1910.5</ele>
        <time>2022-09-17T23:57:52Z</time>
      </trkpt>
      <trkpt lat="44.14626" lon="6.68088">
        <ele>1910.7</ele>
        <time>2022-09-17T23:57:53Z</time>
      </trkpt>
      <trkpt lat="44.14625" lon="6.68093">
        <ele>1911.3</ele>
        <time>2022-09-17T23:57:54Z</time>
      </trkpt>
      <trkpt lat="44.14624" lon="6.68096">
        <ele>1911.5</ele>
        <time>2022-09-17T23:57:55Z</time>
      </trkpt>
      <trkpt lat="44.14622" lon="6.68103">
        <ele>1912.3</ele>
        <time>2022-09-17T23:57:57Z</time>
      </trkpt>
      <trkpt lat="44.14621" lon="6.68106">
        <ele>1912.6</ele>
        <time>2022-09-17T23:57:58Z</time>
      </trkpt>
      <trkpt lat="44.14619" lon="6.68108">
        <ele>1912.9</ele>
        <time>2022-09-17T23:57:59Z</time>
      </trkpt>
      <trkpt lat="44.14617" lon="6.68112">
        <ele>1913.3</ele>
        <time>2022-09-17T23:58:01Z</time>
      </trkpt>
      <trkpt lat="44.14615" lon="6.68114">
        <ele>1913.6</ele>
        <time>2022-09-17T23:58:02Z</time>
      </trkpt>
      <trkpt lat="44.14612" lon="6.68116">
        <ele>1914</ele>
        <time>2022-09-17T23:58:04Z</time>
      </trkpt>
      <trkpt lat="44.14611" lon="6.68117">
        <ele>1914.2</ele>
        <time>2022-09-17T23:58:05Z</time>
      </trkpt>
      <trkpt lat="44.14608" lon="6.68119">
        <ele>1914.8</ele>
        <time>2022-09-17T23:58:06Z</time>
      </trkpt>
      <trkpt lat="44.14604" lon="6.68121">
        <ele>1915.5</ele>
        <time>2022-09-17T23:58:07Z</time>
      </trkpt>
      <trkpt lat="44.14603" lon="6.68121">
        <ele>1915.7</ele>
        <time>2022-09-17T23:58:08Z</time>
      </trkpt>
      <trkpt lat="44.14601" lon="6.68123">
        <ele>1916.2</ele>
        <time>2022-09-17T23:58:09Z</time>
      </trkpt>
      <trkpt lat="44.14597" lon="6.68128">
        <ele>1917.2</ele>
        <time>2022-09-17T23:58:11Z</time>
      </trkpt>
      <trkpt lat="44.14597" lon="6.6813">
        <ele>1917.7</ele>
        <time>2022-09-17T23:58:13Z</time>
      </trkpt>
      <trkpt lat="44.14594" lon="6.68133">
        <ele>1918.4</ele>
        <time>2022-09-17T23:58:14Z</time>
      </trkpt>
      <trkpt lat="44.14593" lon="6.68134">
        <ele>1918.7</ele>
        <time>2022-09-17T23:58:16Z</time>
      </trkpt>
      <trkpt lat="44.14592" lon="6.68135">
        <ele>1919.1</ele>
        <time>2022-09-17T23:58:17Z</time>
      </trkpt>
      <trkpt lat="44.14591" lon="6.68136">
        <ele>1919.4</ele>
        <time>2022-09-17T23:58:18Z</time>
      </trkpt>
      <trkpt lat="44.14589" lon="6.68138">
        <ele>1920</ele>
        <time>2022-09-17T23:58:19Z</time>
      </trkpt>
      <trkpt lat="44.14586" lon="6.68139">
        <ele>1920.7</ele>
        <time>2022-09-17T23:58:21Z</time>
      </trkpt>
      <trkpt lat="44.14585" lon="6.6814">
        <ele>1921.2</ele>
        <time>2022-09-17T23:58:22Z</time>
      </trkpt>
      <trkpt lat="44.14581" lon="6.68141">
        <ele>1922.2</ele>
        <time>2022-09-17T23:58:24Z</time>
      </trkpt>
      <trkpt lat="44.14578" lon="6.68142">
        <ele>1922.9</ele>
        <time>2022-09-17T23:58:25Z</time>
      </trkpt>
      <trkpt lat="44.14577" lon="6.68143">
        <ele>1923.2</ele>
        <time>2022-09-17T23:58:26Z</time>
      </trkpt>
      <trkpt lat="44.14574" lon="6.68144">
        <ele>1923.9</ele>
        <time>2022-09-17T23:58:27Z</time>
      </trkpt>
      <trkpt lat="44.14573" lon="6.68145">
        <ele>1924.2</ele>
        <time>2022-09-17T23:58:28Z</time>
      </trkpt>
      <trkpt lat="44.1457" lon="6.68145">
        <ele>1924.8</ele>
        <time>2022-09-17T23:58:29Z</time>
      </trkpt>
      <trkpt lat="44.14567" lon="6.68144">
        <ele>1925.5</ele>
        <time>2022-09-17T23:58:31Z</time>
      </trkpt>
      <trkpt lat="44.14563" lon="6.68144">
        <ele>1926.1</ele>
        <time>2022-09-17T23:58:32Z</time>
      </trkpt>
      <trkpt lat="44.14559" lon="6.68142">
        <ele>1926.9</ele>
        <time>2022-09-17T23:58:34Z</time>
      </trkpt>
      <trkpt lat="44.14558" lon="6.68141">
        <ele>1927.1</ele>
        <time>2022-09-17T23:58:35Z</time>
      </trkpt>
      <trkpt lat="44.14558" lon="6.68141">
        <ele>1927.3</ele>
        <time>2022-09-17T23:58:36Z</time>
      </trkpt>
      <trkpt lat="44.14559" lon="6.68141">
        <ele>1927.3</ele>
        <time>2022-09-17T23:58:37Z</time>
      </trkpt>
      <trkpt lat="44.1456" lon="6.68143">
        <ele>1927.6</ele>
        <time>2022-09-17T23:58:38Z</time>
      </trkpt>
      <trkpt lat="44.1456" lon="6.68143">
        <ele>1927.6</ele>
        <time>2022-09-17T23:58:39Z</time>
      </trkpt>
      <trkpt lat="44.14561" lon="6.68143">
        <ele>1927.7</ele>
        <time>2022-09-17T23:58:40Z</time>
      </trkpt>
      <trkpt lat="44.14561" lon="6.68144">
        <ele>1927.7</ele>
        <time>2022-09-17T23:58:41Z</time>
      </trkpt>
      <trkpt lat="44.14561" lon="6.68144">
        <ele>1927.7</ele>
        <time>2022-09-17T23:58:42Z</time>
      </trkpt>
      <trkpt lat="44.14561" lon="6.68144">
        <ele>1927.7</ele>
        <time>2022-09-17T23:58:43Z</time>
      </trkpt>
      <trkpt lat="44.14561" lon="6.68144">
        <ele>1927.7</ele>
        <time>2022-09-17T23:58:44Z</time>
      </trkpt>
      <trkpt lat="44.14561" lon="6.68144">
        <ele>1927.7</ele>
        <time>2022-09-17T23:58:45Z</time>
      </trkpt>
      <trkpt lat="44.14561" lon="6.68144">
        <ele>1927.7</ele>
        <time>2022-09-17T23:58:46Z</time>
      </trkpt>
      <trkpt lat="44.14558" lon="6.68145">
        <ele>1928.1</ele>
        <time>2022-09-18T00:01:04Z</time>
      </trkpt>
      <trkpt lat="44.14557" lon="6.68145">
        <ele>1928.2</ele>
        <time>2022-09-18T00:01:05Z</time>
      </trkpt>
      <trkpt lat="44.14555" lon="6.68144">
        <ele>1928.5</ele>
        <time>2022-09-18T00:01:06Z</time>
      </trkpt>
      <trkpt lat="44.14552" lon="6.68145">
        <ele>1928.8</ele>
        <time>2022-09-18T00:01:07Z</time>
      </trkpt>
      <trkpt lat="44.1455" lon="6.68145">
        <ele>1929</ele>
        <time>2022-09-18T00:01:08Z</time>
      </trkpt>
      <trkpt lat="44.14547" lon="6.68146">
        <ele>1929.3</ele>
        <time>2022-09-18T00:01:09Z</time>
      </trkpt>
      <trkpt lat="44.14544" lon="6.68148">
        <ele>1929.6</ele>
        <time>2022-09-18T00:01:10Z</time>
      </trkpt>
      <trkpt lat="44.14542" lon="6.68149">
        <ele>1929.8</ele>
        <time>2022-09-18T00:01:11Z</time>
      </trkpt>
      <trkpt lat="44.14538" lon="6.68151">
        <ele>1930.1</ele>
        <time>2022-09-18T00:01:13Z</time>
      </trkpt>
      <trkpt lat="44.14535" lon="6.68151">
        <ele>1930.3</ele>
        <time>2022-09-18T00:01:14Z</time>
      </trkpt>
      <trkpt lat="44.14532" lon="6.68151">
        <ele>1930.4</ele>
        <time>2022-09-18T00:01:15Z</time>
      </trkpt>
      <trkpt lat="44.14529" lon="6.68152">
        <ele>1930.6</ele>
        <time>2022-09-18T00:01:16Z</time>
      </trkpt>
      <trkpt lat="44.14526" lon="6.68155">
        <ele>1930.8</ele>
        <time>2022-09-18T00:01:17Z</time>
      </trkpt>
      <trkpt lat="44.14525" lon="6.68156">
        <ele>1930.8</ele>
        <time>2022-09-18T00:01:18Z</time>
      </trkpt>
      <trkpt lat="44.14523" lon="6.68159">
        <ele>1931</ele>
        <time>2022-09-18T00:01:19Z</time>
      </trkpt>
      <trkpt lat="44.14521" lon="6.68161">
        <ele>1931</ele>
        <time>2022-09-18T00:01:20Z</time>
      </trkpt>
      <trkpt lat="44.1452" lon="6.68162">
        <ele>1931.1</ele>
        <time>2022-09-18T00:01:21Z</time>
      </trkpt>
      <trkpt lat="44.14516" lon="6.68163">
        <ele>1931.2</ele>
        <time>2022-09-18T00:01:23Z</time>
      </trkpt>
      <trkpt lat="44.14515" lon="6.68163">
        <ele>1931.3</ele>
        <time>2022-09-18T00:01:24Z</time>
      </trkpt>
      <trkpt lat="44.14512" lon="6.68164">
        <ele>1931.4</ele>
        <time>2022-09-18T00:01:25Z</time>
      </trkpt>
      <trkpt lat="44.14508" lon="6.68165">
        <ele>1931.5</ele>
        <time>2022-09-18T00:01:26Z</time>
      </trkpt>
      <trkpt lat="44.14506" lon="6.68167">
        <ele>1931.6</ele>
        <time>2022-09-18T00:01:27Z</time>
      </trkpt>
      <trkpt lat="44.14503" lon="6.68171">
        <ele>1931.7</ele>
        <time>2022-09-18T00:01:29Z</time>
      </trkpt>
      <trkpt lat="44.14501" lon="6.68173">
        <ele>1931.8</ele>
        <time>2022-09-18T00:01:30Z</time>
      </trkpt>
      <trkpt lat="44.14499" lon="6.68176">
        <ele>1931.8</ele>
        <time>2022-09-18T00:01:31Z</time>
      </trkpt>
      <trkpt lat="44.14496" lon="6.6818">
        <ele>1931.9</ele>
        <time>2022-09-18T00:01:33Z</time>
      </trkpt>
      <trkpt lat="44.14494" lon="6.68183">
        <ele>1931.9</ele>
        <time>2022-09-18T00:01:34Z</time>
      </trkpt>
      <trkpt lat="44.14492" lon="6.68185">
        <ele>1932</ele>
        <time>2022-09-18T00:01:35Z</time>
      </trkpt>
      <trkpt lat="44.14486" lon="6.68193">
        <ele>1932.1</ele>
        <time>2022-09-18T00:01:37Z</time>
      </trkpt>
      <trkpt lat="44.14483" lon="6.68197">
        <ele>1932.2</ele>
        <time>2022-09-18T00:01:39Z</time>
      </trkpt>
      <trkpt lat="44.14482" lon="6.68199">
        <ele>1932.2</ele>
        <time>2022-09-18T00:01:40Z</time>
      </trkpt>
      <trkpt lat="44.1448" lon="6.68201">
        <ele>1932.2</ele>
        <time>2022-09-18T00:01:41Z</time>
      </trkpt>
      <trkpt lat="44.14478" lon="6.68203">
        <ele>1932.3</ele>
        <time>2022-09-18T00:01:42Z</time>
      </trkpt>
      <trkpt lat="44.14475" lon="6.68205">
        <ele>1932.3</ele>
        <time>2022-09-18T00:01:43Z</time>
      </trkpt>
      <trkpt lat="44.14473" lon="6.68208">
        <ele>1932.4</ele>
        <time>2022-09-18T00:01:44Z</time>
      </trkpt>
      <trkpt lat="44.14471" lon="6.68211">
        <ele>1932.4</ele>
        <time>2022-09-18T00:01:45Z</time>
      </trkpt>
      <trkpt lat="44.14469" lon="6.68213">
        <ele>1932.5</ele>
        <time>2022-09-18T00:01:46Z</time>
      </trkpt>
      <trkpt lat="44.14466" lon="6.68214">
        <ele>1932.6</ele>
        <time>2022-09-18T00:01:48Z</time>
      </trkpt>
      <trkpt lat="44.14463" lon="6.68216">
        <ele>1932.6</ele>
        <time>2022-09-18T00:01:49Z</time>
      </trkpt>
      <trkpt lat="44.1446" lon="6.68217">
        <ele>1932.7</ele>
        <time>2022-09-18T00:01:50Z</time>
      </trkpt>
      <trkpt lat="44.14458" lon="6.68218">
        <ele>1932.7</ele>
        <time>2022-09-18T00:01:52Z</time>
      </trkpt>
      <trkpt lat="44.14458" lon="6.68218">
        <ele>1932.7</ele>
        <time>2022-09-18T00:01:53Z</time>
      </trkpt>
      <trkpt lat="44.14458" lon="6.68218">
        <ele>1932.7</ele>
        <time>2022-09-18T00:01:54Z</time>
      </trkpt>
      <trkpt lat="44.14458" lon="6.68219">
        <ele>1932.7</ele>
        <time>2022-09-18T00:01:55Z</time>
      </trkpt>
      <trkpt lat="44.14457" lon="6.68219">
        <ele>1932.7</ele>
        <time>2022-09-18T00:01:56Z</time>
      </trkpt>
      <trkpt lat="44.14457" lon="6.68219">
        <ele>1932.7</ele>
        <time>2022-09-18T00:01:57Z</time>
      </trkpt>
      <trkpt lat="44.14457" lon="6.6822">
        <ele>1932.7</ele>
        <time>2022-09-18T00:01:58Z</time>
      </trkpt>
      <trkpt lat="44.14457" lon="6.6822">
        <ele>1932.7</ele>
        <time>2022-09-18T00:01:59Z</time>
      </trkpt>
      <trkpt lat="44.14457" lon="6.6822">
        <ele>1932.7</ele>
        <time>2022-09-18T00:02:00Z</time>
      </trkpt>
      <trkpt lat="44.14457" lon="6.68221">
        <ele>1932.7</ele>
        <time>2022-09-18T00:02:01Z</time>
      </trkpt>
      <trkpt lat="44.14454" lon="6.68222">
        <ele>1932.7</ele>
        <time>2022-09-18T00:02:02Z</time>
      </trkpt>
      <trkpt lat="44.1445" lon="6.68223">
        <ele>1932.8</ele>
        <time>2022-09-18T00:02:03Z</time>
      </trkpt>
      <trkpt lat="44.14446" lon="6.68224">
        <ele>1932.8</ele>
        <time>2022-09-18T00:02:04Z</time>
      </trkpt>
      <trkpt lat="44.14443" lon="6.68226">
        <ele>1932.8</ele>
        <time>2022-09-18T00:02:06Z</time>
      </trkpt>
      <trkpt lat="44.14439" lon="6.68229">
        <ele>1932.9</ele>
        <time>2022-09-18T00:02:07Z</time>
      </trkpt>
      <trkpt lat="44.14435" lon="6.68232">
        <ele>1933</ele>
        <time>2022-09-18T00:02:08Z</time>
      </trkpt>
      <trkpt lat="44.14432" lon="6.68234">
        <ele>1933</ele>
        <time>2022-09-18T00:02:09Z</time>
      </trkpt>
      <trkpt lat="44.14429" lon="6.68237">
        <ele>1933.2</ele>
        <time>2022-09-18T00:02:10Z</time>
      </trkpt>
      <trkpt lat="44.14425" lon="6.6824">
        <ele>1933.3</ele>
        <time>2022-09-18T00:02:12Z</time>
      </trkpt>
      <trkpt lat="44.14423" lon="6.68243">
        <ele>1933.4</ele>
        <time>2022-09-18T00:02:13Z</time>
      </trkpt>
      <trkpt lat="44.14418" lon="6.68248">
        <ele>1933.6</ele>
        <time>2022-09-18T00:02:14Z</time>
      </trkpt>
      <trkpt lat="44.14416" lon="6.68251">
        <ele>1933.7</ele>
        <time>2022-09-18T00:02:15Z</time>
      </trkpt>
      <trkpt lat="44.14413" lon="6.68254">
        <ele>1933.9</ele>
        <time>2022-09-18T00:02:17Z</time>
      </trkpt>
      <trkpt lat="44.1441" lon="6.68258">
        <ele>1934</ele>
        <time>2022-09-18T00:02:18Z</time>
      </trkpt>
      <trkpt lat="44.14408" lon="6.68261">
        <ele>1934.1</ele>
        <time>2022-09-18T00:02:19Z</time>
      </trkpt>
      <trkpt lat="44.14405" lon="6.68264">
        <ele>1934.2</ele>
        <time>2022-09-18T00:02:20Z</time>
      </trkpt>
      <trkpt lat="44.14403" lon="6.68266">
        <ele>1934.3</ele>
        <time>2022-09-18T00:02:21Z</time>
      </trkpt>
      <trkpt lat="44.14401" lon="6.68271">
        <ele>1934.4</ele>
        <time>2022-09-18T00:02:23Z</time>
      </trkpt>
      <trkpt lat="44.14399" lon="6.68275">
        <ele>1934.5</ele>
        <time>2022-09-18T00:02:24Z</time>
      </trkpt>
      <trkpt lat="44.14397" lon="6.68279">
        <ele>1934.5</ele>
        <time>2022-09-18T00:02:25Z</time>
      </trkpt>
      <trkpt lat="44.14394" lon="6.68284">
        <ele>1934.5</ele>
        <time>2022-09-18T00:02:26Z</time>
      </trkpt>
      <trkpt lat="44.14389" lon="6.68288">
        <ele>1934.5</ele>
        <time>2022-09-18T00:02:27Z</time>
      </trkpt>
      <trkpt lat="44.14381" lon="6.68293">
        <ele>1934.5</ele>
        <time>2022-09-18T00:02:29Z</time>
      </trkpt>
      <trkpt lat="44.14377" lon="6.68295">
        <ele>1934.5</ele>
        <time>2022-09-18T00:02:31Z</time>
      </trkpt>
      <trkpt lat="44.14375" lon="6.68297">
        <ele>1934.6</ele>
        <time>2022-09-18T00:02:32Z</time>
      </trkpt>
      <trkpt lat="44.14372" lon="6.683">
        <ele>1934.6</ele>
        <time>2022-09-18T00:02:33Z</time>
      </trkpt>
      <trkpt lat="44.14369" lon="6.68301">
        <ele>1934.7</ele>
        <time>2022-09-18T00:02:34Z</time>
      </trkpt>
      <trkpt lat="44.14365" lon="6.68304">
        <ele>1934.8</ele>
        <time>2022-09-18T00:02:35Z</time>
      </trkpt>
      <trkpt lat="44.14362" lon="6.68306">
        <ele>1934.9</ele>
        <time>2022-09-18T00:02:36Z</time>
      </trkpt>
      <trkpt lat="44.14359" lon="6.68309">
        <ele>1935.1</ele>
        <time>2022-09-18T00:02:37Z</time>
      </trkpt>
      <trkpt lat="44.14356" lon="6.68311">
        <ele>1935.2</ele>
        <time>2022-09-18T00:02:38Z</time>
      </trkpt>
      <trkpt lat="44.14353" lon="6.68313">
        <ele>1935.4</ele>
        <time>2022-09-18T00:02:39Z</time>
      </trkpt>
      <trkpt lat="44.14351" lon="6.68316">
        <ele>1935.5</ele>
        <time>2022-09-18T00:02:41Z</time>
      </trkpt>
      <trkpt lat="44.14346" lon="6.68322">
        <ele>1935.9</ele>
        <time>2022-09-18T00:02:43Z</time>
      </trkpt>
      <trkpt lat="44.14344" lon="6.68327">
        <ele>1936.1</ele>
        <time>2022-09-18T00:02:44Z</time>
      </trkpt>
      <trkpt lat="44.14343" lon="6.6833">
        <ele>1936.2</ele>
        <time>2022-09-18T00:02:45Z</time>
      </trkpt>
      <trkpt lat="44.14341" lon="6.68335">
        <ele>1936.4</ele>
        <time>2022-09-18T00:02:46Z</time>
      </trkpt>
      <trkpt lat="44.14338" lon="6.6834">
        <ele>1936.7</ele>
        <time>2022-09-18T00:02:48Z</time>
      </trkpt>
      <trkpt lat="44.14335" lon="6.68342">
        <ele>1936.8</ele>
        <time>2022-09-18T00:02:49Z</time>
      </trkpt>
      <trkpt lat="44.14332" lon="6.68346">
        <ele>1936.9</ele>
        <time>2022-09-18T00:02:50Z</time>
      </trkpt>
      <trkpt lat="44.14331" lon="6.68347">
        <ele>1936.9</ele>
        <time>2022-09-18T00:02:51Z</time>
      </trkpt>
      <trkpt lat="44.14328" lon="6.68346">
        <ele>1937.1</ele>
        <time>2022-09-18T00:02:52Z</time>
      </trkpt>
      <trkpt lat="44.14321" lon="6.68344">
        <ele>1937.4</ele>
        <time>2022-09-18T00:02:53Z</time>
      </trkpt>
      <trkpt lat="44.14316" lon="6.68343">
        <ele>1937.8</ele>
        <time>2022-09-18T00:02:54Z</time>
      </trkpt>
      <trkpt lat="44.14313" lon="6.68344">
        <ele>1938.3</ele>
        <time>2022-09-18T00:02:55Z</time>
      </trkpt>
      <trkpt lat="44.1431" lon="6.68344">
        <ele>1938.7</ele>
        <time>2022-09-18T00:02:56Z</time>
      </trkpt>
      <trkpt lat="44.14304" lon="6.68344">
        <ele>1939.8</ele>
        <time>2022-09-18T00:02:58Z</time>
      </trkpt>
      <trkpt lat="44.14301" lon="6.68344">
        <ele>1940.5</ele>
        <time>2022-09-18T00:03:00Z</time>
      </trkpt>
      <trkpt lat="44.14298" lon="6.68345">
        <ele>1941.1</ele>
        <time>2022-09-18T00:03:01Z</time>
      </trkpt>
      <trkpt lat="44.14295" lon="6.68346">
        <ele>1942</ele>
        <time>2022-09-18T00:03:02Z</time>
      </trkpt>
      <trkpt lat="44.14294" lon="6.68347">
        <ele>1942.2</ele>
        <time>2022-09-18T00:03:03Z</time>
      </trkpt>
      <trkpt lat="44.14293" lon="6.68348">
        <ele>1942.7</ele>
        <time>2022-09-18T00:03:04Z</time>
      </trkpt>
      <trkpt lat="44.14292" lon="6.6835">
        <ele>1943</ele>
        <time>2022-09-18T00:03:05Z</time>
      </trkpt>
      <trkpt lat="44.1429" lon="6.68352">
        <ele>1943.7</ele>
        <time>2022-09-18T00:03:06Z</time>
      </trkpt>
      <trkpt lat="44.14288" lon="6.68353">
        <ele>1944</ele>
        <time>2022-09-18T00:03:07Z</time>
      </trkpt>
      <trkpt lat="44.14287" lon="6.68353">
        <ele>1944.5</ele>
        <time>2022-09-18T00:03:08Z</time>
      </trkpt>
      <trkpt lat="44.14284" lon="6.68355">
        <ele>1945.1</ele>
        <time>2022-09-18T00:03:10Z</time>
      </trkpt>
      <trkpt lat="44.1428" lon="6.68357">
        <ele>1945.7</ele>
        <time>2022-09-18T00:03:11Z</time>
      </trkpt>
      <trkpt lat="44.14278" lon="6.68358">
        <ele>1945.9</ele>
        <time>2022-09-18T00:03:12Z</time>
      </trkpt>
      <trkpt lat="44.14276" lon="6.68358">
        <ele>1946.1</ele>
        <time>2022-09-18T00:03:13Z</time>
      </trkpt>
      <trkpt lat="44.14272" lon="6.68356">
        <ele>1946.4</ele>
        <time>2022-09-18T00:03:15Z</time>
      </trkpt>
      <trkpt lat="44.14268" lon="6.68356">
        <ele>1946.6</ele>
        <time>2022-09-18T00:03:16Z</time>
      </trkpt>
      <trkpt lat="44.14265" lon="6.68355">
        <ele>1946.8</ele>
        <time>2022-09-18T00:03:17Z</time>
      </trkpt>
      <trkpt lat="44.14262" lon="6.68355">
        <ele>1947</ele>
        <time>2022-09-18T00:03:18Z</time>
      </trkpt>
      <trkpt lat="44.14261" lon="6.68355">
        <ele>1947</ele>
        <time>2022-09-18T00:03:19Z</time>
      </trkpt>
      <trkpt lat="44.14258" lon="6.68356">
        <ele>1947.1</ele>
        <time>2022-09-18T00:03:20Z</time>
      </trkpt>
      <trkpt lat="44.14255" lon="6.68356">
        <ele>1947.2</ele>
        <time>2022-09-18T00:03:21Z</time>
      </trkpt>
      <trkpt lat="44.14252" lon="6.68357">
        <ele>1947.4</ele>
        <time>2022-09-18T00:03:22Z</time>
      </trkpt>
      <trkpt lat="44.14249" lon="6.68357">
        <ele>1947.4</ele>
        <time>2022-09-18T00:03:23Z</time>
      </trkpt>
      <trkpt lat="44.14245" lon="6.68359">
        <ele>1947.6</ele>
        <time>2022-09-18T00:03:25Z</time>
      </trkpt>
      <trkpt lat="44.14242" lon="6.68359">
        <ele>1947.6</ele>
        <time>2022-09-18T00:03:26Z</time>
      </trkpt>
      <trkpt lat="44.14239" lon="6.6836">
        <ele>1947.6</ele>
        <time>2022-09-18T00:03:27Z</time>
      </trkpt>
      <trkpt lat="44.14235" lon="6.6836">
        <ele>1947.6</ele>
        <time>2022-09-18T00:03:28Z</time>
      </trkpt>
      <trkpt lat="44.14231" lon="6.68361">
        <ele>1947.6</ele>
        <time>2022-09-18T00:03:30Z</time>
      </trkpt>
      <trkpt lat="44.14227" lon="6.68362">
        <ele>1947.6</ele>
        <time>2022-09-18T00:03:31Z</time>
      </trkpt>
      <trkpt lat="44.14223" lon="6.68362">
        <ele>1947.5</ele>
        <time>2022-09-18T00:03:33Z</time>
      </trkpt>
      <trkpt lat="44.14219" lon="6.68364">
        <ele>1947.4</ele>
        <time>2022-09-18T00:03:34Z</time>
      </trkpt>
      <trkpt lat="44.14216" lon="6.68365">
        <ele>1947.4</ele>
        <time>2022-09-18T00:03:35Z</time>
      </trkpt>
      <trkpt lat="44.14214" lon="6.68365">
        <ele>1947.4</ele>
        <time>2022-09-18T00:03:36Z</time>
      </trkpt>
      <trkpt lat="44.14212" lon="6.68367">
        <ele>1947.3</ele>
        <time>2022-09-18T00:03:38Z</time>
      </trkpt>
      <trkpt lat="44.14208" lon="6.68369">
        <ele>1947.3</ele>
        <time>2022-09-18T00:03:39Z</time>
      </trkpt>
      <trkpt lat="44.14207" lon="6.6837">
        <ele>1947.3</ele>
        <time>2022-09-18T00:03:40Z</time>
      </trkpt>
      <trkpt lat="44.14204" lon="6.68372">
        <ele>1947.2</ele>
        <time>2022-09-18T00:03:41Z</time>
      </trkpt>
      <trkpt lat="44.14199" lon="6.68375">
        <ele>1947.1</ele>
        <time>2022-09-18T00:03:43Z</time>
      </trkpt>
      <trkpt lat="44.14198" lon="6.68376">
        <ele>1947.1</ele>
        <time>2022-09-18T00:03:44Z</time>
      </trkpt>
      <trkpt lat="44.14197" lon="6.68377">
        <ele>1947</ele>
        <time>2022-09-18T00:03:45Z</time>
      </trkpt>
      <trkpt lat="44.14194" lon="6.68378">
        <ele>1946.9</ele>
        <time>2022-09-18T00:03:46Z</time>
      </trkpt>
      <trkpt lat="44.14193" lon="6.68379">
        <ele>1946.8</ele>
        <time>2022-09-18T00:03:47Z</time>
      </trkpt>
      <trkpt lat="44.14191" lon="6.6838">
        <ele>1946.7</ele>
        <time>2022-09-18T00:03:48Z</time>
      </trkpt>
      <trkpt lat="44.1419" lon="6.68381">
        <ele>1946.6</ele>
        <time>2022-09-18T00:03:49Z</time>
      </trkpt>
      <trkpt lat="44.14186" lon="6.68381">
        <ele>1946.3</ele>
        <time>2022-09-18T00:03:50Z</time>
      </trkpt>
      <trkpt lat="44.14184" lon="6.68382">
        <ele>1946.1</ele>
        <time>2022-09-18T00:03:51Z</time>
      </trkpt>
      <trkpt lat="44.14178" lon="6.68386">
        <ele>1945.3</ele>
        <time>2022-09-18T00:03:53Z</time>
      </trkpt>
      <trkpt lat="44.14173" lon="6.68389">
        <ele>1944.6</ele>
        <time>2022-09-18T00:03:54Z</time>
      </trkpt>
      <trkpt lat="44.14168" lon="6.68392">
        <ele>1943.9</ele>
        <time>2022-09-18T00:03:55Z</time>
      </trkpt>
      <trkpt lat="44.14162" lon="6.68396">
        <ele>1943.1</ele>
        <time>2022-09-18T00:03:56Z</time>
      </trkpt>
      <trkpt lat="44.14156" lon="6.684">
        <ele>1942.6</ele>
        <time>2022-09-18T00:03:57Z</time>
      </trkpt>
      <trkpt lat="44.14149" lon="6.68402">
        <ele>1942.3</ele>
        <time>2022-09-18T00:03:58Z</time>
      </trkpt>
      <trkpt lat="44.14142" lon="6.68403">
        <ele>1942.1</ele>
        <time>2022-09-18T00:03:59Z</time>
      </trkpt>
      <trkpt lat="44.14136" lon="6.68405">
        <ele>1941.9</ele>
        <time>2022-09-18T00:04:00Z</time>
      </trkpt>
      <trkpt lat="44.14131" lon="6.68407">
        <ele>1941.6</ele>
        <time>2022-09-18T00:04:01Z</time>
      </trkpt>
      <trkpt lat="44.14125" lon="6.68407">
        <ele>1941.3</ele>
        <time>2022-09-18T00:04:02Z</time>
      </trkpt>
      <trkpt lat="44.14119" lon="6.68406">
        <ele>1941.1</ele>
        <time>2022-09-18T00:04:03Z</time>
      </trkpt>
      <trkpt lat="44.14113" lon="6.68407">
        <ele>1941</ele>
        <time>2022-09-18T00:04:04Z</time>
      </trkpt>
      <trkpt lat="44.14108" lon="6.68408">
        <ele>1941</ele>
        <time>2022-09-18T00:04:05Z</time>
      </trkpt>
      <trkpt lat="44.14103" lon="6.6841">
        <ele>1941.1</ele>
        <time>2022-09-18T00:04:06Z</time>
      </trkpt>
      <trkpt lat="44.14099" lon="6.68412">
        <ele>1941.1</ele>
        <time>2022-09-18T00:04:07Z</time>
      </trkpt>
      <trkpt lat="44.14094" lon="6.68413">
        <ele>1941.3</ele>
        <time>2022-09-18T00:04:08Z</time>
      </trkpt>
      <trkpt lat="44.14091" lon="6.68413">
        <ele>1941.4</ele>
        <time>2022-09-18T00:04:09Z</time>
      </trkpt>
      <trkpt lat="44.14087" lon="6.68413">
        <ele>1941.5</ele>
        <time>2022-09-18T00:04:10Z</time>
      </trkpt>
      <trkpt lat="44.14084" lon="6.68413">
        <ele>1941.6</ele>
        <time>2022-09-18T00:04:11Z</time>
      </trkpt>
      <trkpt lat="44.14081" lon="6.68413">
        <ele>1941.7</ele>
        <time>2022-09-18T00:04:12Z</time>
      </trkpt>
      <trkpt lat="44.14076" lon="6.68415">
        <ele>1941.8</ele>
        <time>2022-09-18T00:04:13Z</time>
      </trkpt>
      <trkpt lat="44.14073" lon="6.68415">
        <ele>1941.9</ele>
        <time>2022-09-18T00:04:14Z</time>
      </trkpt>
      <trkpt lat="44.14063" lon="6.6842">
        <ele>1941.8</ele>
        <time>2022-09-18T00:04:16Z</time>
      </trkpt>
      <trkpt lat="44.14058" lon="6.68424">
        <ele>1941.7</ele>
        <time>2022-09-18T00:04:17Z</time>
      </trkpt>
      <trkpt lat="44.14053" lon="6.68428">
        <ele>1941.5</ele>
        <time>2022-09-18T00:04:18Z</time>
      </trkpt>
      <trkpt lat="44.14047" lon="6.68431">
        <ele>1941.2</ele>
        <time>2022-09-18T00:04:19Z</time>
      </trkpt>
      <trkpt lat="44.1404" lon="6.68434">
        <ele>1941.1</ele>
        <time>2022-09-18T00:04:20Z</time>
      </trkpt>
      <trkpt lat="44.14034" lon="6.68437">
        <ele>1941.1</ele>
        <time>2022-09-18T00:04:21Z</time>
      </trkpt>
      <trkpt lat="44.14028" lon="6.68438">
        <ele>1941.2</ele>
        <time>2022-09-18T00:04:22Z</time>
      </trkpt>
      <trkpt lat="44.14022" lon="6.68438">
        <ele>1941.4</ele>
        <time>2022-09-18T00:04:23Z</time>
      </trkpt>
      <trkpt lat="44.14017" lon="6.68439">
        <ele>1941.6</ele>
        <time>2022-09-18T00:04:24Z</time>
      </trkpt>
      <trkpt lat="44.14014" lon="6.68437">
        <ele>1941.7</ele>
        <time>2022-09-18T00:04:25Z</time>
      </trkpt>
      <trkpt lat="44.14008" lon="6.68436">
        <ele>1941.9</ele>
        <time>2022-09-18T00:04:26Z</time>
      </trkpt>
      <trkpt lat="44.14002" lon="6.68436">
        <ele>1942.2</ele>
        <time>2022-09-18T00:04:27Z</time>
      </trkpt>
      <trkpt lat="44.13997" lon="6.68436">
        <ele>1942.4</ele>
        <time>2022-09-18T00:04:29Z</time>
      </trkpt>
      <trkpt lat="44.13992" lon="6.68437">
        <ele>1942.5</ele>
        <time>2022-09-18T00:04:30Z</time>
      </trkpt>
      <trkpt lat="44.13987" lon="6.68439">
        <ele>1942.6</ele>
        <time>2022-09-18T00:04:31Z</time>
      </trkpt>
      <trkpt lat="44.13983" lon="6.6844">
        <ele>1942.7</ele>
        <time>2022-09-18T00:04:32Z</time>
      </trkpt>
      <trkpt lat="44.13978" lon="6.6844">
        <ele>1942.8</ele>
        <time>2022-09-18T00:04:33Z</time>
      </trkpt>
      <trkpt lat="44.13973" lon="6.68443">
        <ele>1943</ele>
        <time>2022-09-18T00:04:35Z</time>
      </trkpt>
      <trkpt lat="44.13969" lon="6.68445">
        <ele>1943.1</ele>
        <time>2022-09-18T00:04:36Z</time>
      </trkpt>
      <trkpt lat="44.13965" lon="6.68447">
        <ele>1943.3</ele>
        <time>2022-09-18T00:04:37Z</time>
      </trkpt>
      <trkpt lat="44.1396" lon="6.68451">
        <ele>1943.5</ele>
        <time>2022-09-18T00:04:38Z</time>
      </trkpt>
      <trkpt lat="44.13956" lon="6.68453">
        <ele>1943.6</ele>
        <time>2022-09-18T00:04:39Z</time>
      </trkpt>
      <trkpt lat="44.13953" lon="6.68455">
        <ele>1943.8</ele>
        <time>2022-09-18T00:04:40Z</time>
      </trkpt>
      <trkpt lat="44.1395" lon="6.68457">
        <ele>1944</ele>
        <time>2022-09-18T00:04:41Z</time>
      </trkpt>
      <trkpt lat="44.13946" lon="6.68459">
        <ele>1944.3</ele>
        <time>2022-09-18T00:04:42Z</time>
      </trkpt>
      <trkpt lat="44.13943" lon="6.68461">
        <ele>1944.5</ele>
        <time>2022-09-18T00:04:43Z</time>
      </trkpt>
      <trkpt lat="44.1394" lon="6.68464">
        <ele>1944.8</ele>
        <time>2022-09-18T00:04:44Z</time>
      </trkpt>
      <trkpt lat="44.13937" lon="6.68467">
        <ele>1945.1</ele>
        <time>2022-09-18T00:04:45Z</time>
      </trkpt>
      <trkpt lat="44.13934" lon="6.68471">
        <ele>1945.4</ele>
        <time>2022-09-18T00:04:47Z</time>
      </trkpt>
      <trkpt lat="44.13932" lon="6.68475">
        <ele>1945.8</ele>
        <time>2022-09-18T00:04:48Z</time>
      </trkpt>
      <trkpt lat="44.1393" lon="6.68479">
        <ele>1946.1</ele>
        <time>2022-09-18T00:04:49Z</time>
      </trkpt>
      <trkpt lat="44.13928" lon="6.68483">
        <ele>1946.5</ele>
        <time>2022-09-18T00:04:50Z</time>
      </trkpt>
      <trkpt lat="44.13925" lon="6.6849">
        <ele>1947</ele>
        <time>2022-09-18T00:04:52Z</time>
      </trkpt>
      <trkpt lat="44.13924" lon="6.68494">
        <ele>1947.3</ele>
        <time>2022-09-18T00:04:53Z</time>
      </trkpt>
      <trkpt lat="44.13922" lon="6.68499">
        <ele>1947.4</ele>
        <time>2022-09-18T00:04:54Z</time>
      </trkpt>
      <trkpt lat="44.13918" lon="6.685">
        <ele>1947.7</ele>
        <time>2022-09-18T00:04:56Z</time>
      </trkpt>
      <trkpt lat="44.13912" lon="6.68501">
        <ele>1947.9</ele>
        <time>2022-09-18T00:04:57Z</time>
      </trkpt>
      <trkpt lat="44.13909" lon="6.685">
        <ele>1948</ele>
        <time>2022-09-18T00:04:58Z</time>
      </trkpt>
      <trkpt lat="44.13905" lon="6.685">
        <ele>1948.1</ele>
        <time>2022-09-18T00:04:59Z</time>
      </trkpt>
      <trkpt lat="44.13901" lon="6.68502">
        <ele>1948.1</ele>
        <time>2022-09-18T00:05:00Z</time>
      </trkpt>
      <trkpt lat="44.13897" lon="6.68504">
        <ele>1948.1</ele>
        <time>2022-09-18T00:05:02Z</time>
      </trkpt>
      <trkpt lat="44.13889" lon="6.68507">
        <ele>1948</ele>
        <time>2022-09-18T00:05:03Z</time>
      </trkpt>
      <trkpt lat="44.13885" lon="6.68508">
        <ele>1947.9</ele>
        <time>2022-09-18T00:05:05Z</time>
      </trkpt>
      <trkpt lat="44.13879" lon="6.68511">
        <ele>1947.9</ele>
        <time>2022-09-18T00:05:06Z</time>
      </trkpt>
      <trkpt lat="44.13873" lon="6.68512">
        <ele>1947.8</ele>
        <time>2022-09-18T00:05:07Z</time>
      </trkpt>
      <trkpt lat="44.13864" lon="6.68516">
        <ele>1947.8</ele>
        <time>2022-09-18T00:05:09Z</time>
      </trkpt>
      <trkpt lat="44.1386" lon="6.68519">
        <ele>1947.9</ele>
        <time>2022-09-18T00:05:11Z</time>
      </trkpt>
      <trkpt lat="44.13857" lon="6.68522">
        <ele>1947.9</ele>
        <time>2022-09-18T00:05:12Z</time>
      </trkpt>
      <trkpt lat="44.13853" lon="6.68525">
        <ele>1948</ele>
        <time>2022-09-18T00:05:13Z</time>
      </trkpt>
      <trkpt lat="44.13849" lon="6.68529">
        <ele>1948.2</ele>
        <time>2022-09-18T00:05:15Z</time>
      </trkpt>
      <trkpt lat="44.13844" lon="6.68533">
        <ele>1948.4</ele>
        <time>2022-09-18T00:05:17Z</time>
      </trkpt>
      <trkpt lat="44.13842" lon="6.68536">
        <ele>1948.5</ele>
        <time>2022-09-18T00:05:18Z</time>
      </trkpt>
      <trkpt lat="44.13838" lon="6.68538">
        <ele>1948.6</ele>
        <time>2022-09-18T00:05:19Z</time>
      </trkpt>
      <trkpt lat="44.13836" lon="6.68541">
        <ele>1948.7</ele>
        <time>2022-09-18T00:05:20Z</time>
      </trkpt>
      <trkpt lat="44.13834" lon="6.68544">
        <ele>1948.8</ele>
        <time>2022-09-18T00:05:21Z</time>
      </trkpt>
      <trkpt lat="44.13831" lon="6.68549">
        <ele>1948.8</ele>
        <time>2022-09-18T00:05:22Z</time>
      </trkpt>
      <trkpt lat="44.13828" lon="6.68551">
        <ele>1948.8</ele>
        <time>2022-09-18T00:05:23Z</time>
      </trkpt>
      <trkpt lat="44.13824" lon="6.68554">
        <ele>1948.8</ele>
        <time>2022-09-18T00:05:24Z</time>
      </trkpt>
      <trkpt lat="44.13821" lon="6.68557">
        <ele>1948.8</ele>
        <time>2022-09-18T00:05:26Z</time>
      </trkpt>
      <trkpt lat="44.13819" lon="6.68559">
        <ele>1948.8</ele>
        <time>2022-09-18T00:05:27Z</time>
      </trkpt>
      <trkpt lat="44.13814" lon="6.68561">
        <ele>1948.7</ele>
        <time>2022-09-18T00:05:28Z</time>
      </trkpt>
      <trkpt lat="44.13811" lon="6.68562">
        <ele>1948.6</ele>
        <time>2022-09-18T00:05:29Z</time>
      </trkpt>
      <trkpt lat="44.13807" lon="6.68563">
        <ele>1948.6</ele>
        <time>2022-09-18T00:05:31Z</time>
      </trkpt>
      <trkpt lat="44.13805" lon="6.68563">
        <ele>1948.6</ele>
        <time>2022-09-18T00:05:32Z</time>
      </trkpt>
      <trkpt lat="44.13804" lon="6.68563">
        <ele>1948.5</ele>
        <time>2022-09-18T00:05:33Z</time>
      </trkpt>
      <trkpt lat="44.138" lon="6.68563">
        <ele>1948.6</ele>
        <time>2022-09-18T00:05:34Z</time>
      </trkpt>
      <trkpt lat="44.13798" lon="6.68563">
        <ele>1948.6</ele>
        <time>2022-09-18T00:05:35Z</time>
      </trkpt>
      <trkpt lat="44.13797" lon="6.68563">
        <ele>1948.6</ele>
        <time>2022-09-18T00:05:36Z</time>
      </trkpt>
      <trkpt lat="44.13796" lon="6.68563">
        <ele>1948.6</ele>
        <time>2022-09-18T00:05:37Z</time>
      </trkpt>
      <trkpt lat="44.13796" lon="6.68564">
        <ele>1948.6</ele>
        <time>2022-09-18T00:05:39Z</time>
      </trkpt>
      <trkpt lat="44.13795" lon="6.68565">
        <ele>1948.6</ele>
        <time>2022-09-18T00:05:40Z</time>
      </trkpt>
      <trkpt lat="44.13794" lon="6.68565">
        <ele>1948.6</ele>
        <time>2022-09-18T00:05:41Z</time>
      </trkpt>
      <trkpt lat="44.13793" lon="6.68566">
        <ele>1948.7</ele>
        <time>2022-09-18T00:05:42Z</time>
      </trkpt>
      <trkpt lat="44.13792" lon="6.68566">
        <ele>1948.7</ele>
        <time>2022-09-18T00:05:43Z</time>
      </trkpt>
      <trkpt lat="44.13791" lon="6.68567">
        <ele>1948.7</ele>
        <time>2022-09-18T00:05:44Z</time>
      </trkpt>
      <trkpt lat="44.1379" lon="6.68567">
        <ele>1948.8</ele>
        <time>2022-09-18T00:05:45Z</time>
      </trkpt>
      <trkpt lat="44.13789" lon="6.68568">
        <ele>1948.8</ele>
        <time>2022-09-18T00:05:47Z</time>
      </trkpt>
      <trkpt lat="44.13789" lon="6.68569">
        <ele>1948.8</ele>
        <time>2022-09-18T00:05:48Z</time>
      </trkpt>
      <trkpt lat="44.13788" lon="6.68569">
        <ele>1948.9</ele>
        <time>2022-09-18T00:05:49Z</time>
      </trkpt>
      <trkpt lat="44.13787" lon="6.6857">
        <ele>1948.9</ele>
        <time>2022-09-18T00:06:07Z</time>
      </trkpt>
      <trkpt lat="44.13786" lon="6.6857">
        <ele>1948.9</ele>
        <time>2022-09-18T00:06:08Z</time>
      </trkpt>
      <trkpt lat="44.13782" lon="6.68575">
        <ele>1949.3</ele>
        <time>2022-09-18T00:06:09Z</time>
      </trkpt>
      <trkpt lat="44.13776" lon="6.68581">
        <ele>1949.8</ele>
        <time>2022-09-18T00:06:10Z</time>
      </trkpt>
      <trkpt lat="44.1377" lon="6.68587">
        <ele>1950.5</ele>
        <time>2022-09-18T00:06:11Z</time>
      </trkpt>
      <trkpt lat="44.13766" lon="6.68592">
        <ele>1951.4</ele>
        <time>2022-09-18T00:06:12Z</time>
      </trkpt>
      <trkpt lat="44.13763" lon="6.68596">
        <ele>1952</ele>
        <time>2022-09-18T00:06:13Z</time>
      </trkpt>
      <trkpt lat="44.13762" lon="6.686">
        <ele>1952.6</ele>
        <time>2022-09-18T00:06:14Z</time>
      </trkpt>
      <trkpt lat="44.1376" lon="6.68606">
        <ele>1953.4</ele>
        <time>2022-09-18T00:06:15Z</time>
      </trkpt>
      <trkpt lat="44.13758" lon="6.6861">
        <ele>1954</ele>
        <time>2022-09-18T00:06:17Z</time>
      </trkpt>
      <trkpt lat="44.13757" lon="6.68614">
        <ele>1954.5</ele>
        <time>2022-09-18T00:06:18Z</time>
      </trkpt>
      <trkpt lat="44.13755" lon="6.68618">
        <ele>1955.1</ele>
        <time>2022-09-18T00:06:19Z</time>
      </trkpt>
      <trkpt lat="44.13753" lon="6.68622">
        <ele>1955.7</ele>
        <time>2022-09-18T00:06:20Z</time>
      </trkpt>
      <trkpt lat="44.13751" lon="6.68625">
        <ele>1956.2</ele>
        <time>2022-09-18T00:06:21Z</time>
      </trkpt>
      <trkpt lat="44.13748" lon="6.68628">
        <ele>1956.7</ele>
        <time>2022-09-18T00:06:22Z</time>
      </trkpt>
      <trkpt lat="44.13746" lon="6.6863">
        <ele>1957.2</ele>
        <time>2022-09-18T00:06:23Z</time>
      </trkpt>
      <trkpt lat="44.13744" lon="6.68634">
        <ele>1957.6</ele>
        <time>2022-09-18T00:06:24Z</time>
      </trkpt>
      <trkpt lat="44.13741" lon="6.68637">
        <ele>1958.1</ele>
        <time>2022-09-18T00:06:25Z</time>
      </trkpt>
      <trkpt lat="44.13739" lon="6.6864">
        <ele>1958.5</ele>
        <time>2022-09-18T00:06:26Z</time>
      </trkpt>
      <trkpt lat="44.13737" lon="6.68644">
        <ele>1958.9</ele>
        <time>2022-09-18T00:06:27Z</time>
      </trkpt>
      <trkpt lat="44.13735" lon="6.68648">
        <ele>1959.3</ele>
        <time>2022-09-18T00:06:28Z</time>
      </trkpt>
      <trkpt lat="44.13734" lon="6.68653">
        <ele>1959.7</ele>
        <time>2022-09-18T00:06:29Z</time>
      </trkpt>
      <trkpt lat="44.13732" lon="6.68657">
        <ele>1960.1</ele>
        <time>2022-09-18T00:06:30Z</time>
      </trkpt>
      <trkpt lat="44.1373" lon="6.68661">
        <ele>1960.5</ele>
        <time>2022-09-18T00:06:31Z</time>
      </trkpt>
      <trkpt lat="44.13728" lon="6.68665">
        <ele>1960.8</ele>
        <time>2022-09-18T00:06:32Z</time>
      </trkpt>
      <trkpt lat="44.13726" lon="6.68668">
        <ele>1961.1</ele>
        <time>2022-09-18T00:06:33Z</time>
      </trkpt>
      <trkpt lat="44.13724" lon="6.68671">
        <ele>1961.4</ele>
        <time>2022-09-18T00:06:34Z</time>
      </trkpt>
      <trkpt lat="44.13721" lon="6.68674">
        <ele>1961.7</ele>
        <time>2022-09-18T00:06:35Z</time>
      </trkpt>
      <trkpt lat="44.13718" lon="6.68675">
        <ele>1962</ele>
        <time>2022-09-18T00:06:36Z</time>
      </trkpt>
      <trkpt lat="44.13716" lon="6.68679">
        <ele>1962.3</ele>
        <time>2022-09-18T00:06:37Z</time>
      </trkpt>
      <trkpt lat="44.13714" lon="6.68682">
        <ele>1962.6</ele>
        <time>2022-09-18T00:06:38Z</time>
      </trkpt>
      <trkpt lat="44.13711" lon="6.68686">
        <ele>1963</ele>
        <time>2022-09-18T00:06:39Z</time>
      </trkpt>
      <trkpt lat="44.13708" lon="6.6869">
        <ele>1963.6</ele>
        <time>2022-09-18T00:06:41Z</time>
      </trkpt>
      <trkpt lat="44.13706" lon="6.68692">
        <ele>1963.9</ele>
        <time>2022-09-18T00:06:42Z</time>
      </trkpt>
      <trkpt lat="44.13703" lon="6.68694">
        <ele>1964.4</ele>
        <time>2022-09-18T00:06:43Z</time>
      </trkpt>
      <trkpt lat="44.137" lon="6.68695">
        <ele>1964.9</ele>
        <time>2022-09-18T00:06:44Z</time>
      </trkpt>
      <trkpt lat="44.13697" lon="6.68698">
        <ele>1965.5</ele>
        <time>2022-09-18T00:06:45Z</time>
      </trkpt>
      <trkpt lat="44.13695" lon="6.68699">
        <ele>1965.9</ele>
        <time>2022-09-18T00:06:46Z</time>
      </trkpt>
      <trkpt lat="44.13694" lon="6.68702">
        <ele>1966.3</ele>
        <time>2022-09-18T00:06:48Z</time>
      </trkpt>
      <trkpt lat="44.13693" lon="6.68704">
        <ele>1966.7</ele>
        <time>2022-09-18T00:06:49Z</time>
      </trkpt>
      <trkpt lat="44.13692" lon="6.68705">
        <ele>1967</ele>
        <time>2022-09-18T00:06:50Z</time>
      </trkpt>
      <trkpt lat="44.1369" lon="6.68708">
        <ele>1967.6</ele>
        <time>2022-09-18T00:06:51Z</time>
      </trkpt>
      <trkpt lat="44.13687" lon="6.68712">
        <ele>1968.3</ele>
        <time>2022-09-18T00:06:53Z</time>
      </trkpt>
      <trkpt lat="44.13684" lon="6.68715">
        <ele>1969.2</ele>
        <time>2022-09-18T00:06:54Z</time>
      </trkpt>
      <trkpt lat="44.13683" lon="6.68717">
        <ele>1969.4</ele>
        <time>2022-09-18T00:06:55Z</time>
      </trkpt>
      <trkpt lat="44.13681" lon="6.68719">
        <ele>1970.1</ele>
        <time>2022-09-18T00:06:56Z</time>
      </trkpt>
      <trkpt lat="44.13678" lon="6.68721">
        <ele>1970.8</ele>
        <time>2022-09-18T00:06:57Z</time>
      </trkpt>
      <trkpt lat="44.13676" lon="6.68722">
        <ele>1971</ele>
        <time>2022-09-18T00:06:58Z</time>
      </trkpt>
      <trkpt lat="44.13674" lon="6.68723">
        <ele>1971.5</ele>
        <time>2022-09-18T00:06:59Z</time>
      </trkpt>
      <trkpt lat="44.1367" lon="6.68725">
        <ele>1972.2</ele>
        <time>2022-09-18T00:07:01Z</time>
      </trkpt>
      <trkpt lat="44.13667" lon="6.68727">
        <ele>1972.8</ele>
        <time>2022-09-18T00:07:02Z</time>
      </trkpt>
      <trkpt lat="44.13666" lon="6.68727">
        <ele>1973</ele>
        <time>2022-09-18T00:07:03Z</time>
      </trkpt>
      <trkpt lat="44.13663" lon="6.68729">
        <ele>1973.5</ele>
        <time>2022-09-18T00:07:04Z</time>
      </trkpt>
      <trkpt lat="44.1366" lon="6.68731">
        <ele>1974</ele>
        <time>2022-09-18T00:07:05Z</time>
      </trkpt>
      <trkpt lat="44.13657" lon="6.68735">
        <ele>1974.6</ele>
        <time>2022-09-18T00:07:07Z</time>
      </trkpt>
      <trkpt lat="44.13655" lon="6.68736">
        <ele>1974.8</ele>
        <time>2022-09-18T00:07:08Z</time>
      </trkpt>
      <trkpt lat="44.13654" lon="6.68738">
        <ele>1975.1</ele>
        <time>2022-09-18T00:07:09Z</time>
      </trkpt>
      <trkpt lat="44.1365" lon="6.68739">
        <ele>1975.5</ele>
        <time>2022-09-18T00:07:10Z</time>
      </trkpt>
      <trkpt lat="44.13647" lon="6.6874">
        <ele>1975.9</ele>
        <time>2022-09-18T00:07:12Z</time>
      </trkpt>
      <trkpt lat="44.13646" lon="6.6874">
        <ele>1976.1</ele>
        <time>2022-09-18T00:07:13Z</time>
      </trkpt>
      <trkpt lat="44.13644" lon="6.6874">
        <ele>1976.3</ele>
        <time>2022-09-18T00:07:14Z</time>
      </trkpt>
      <trkpt lat="44.1364" lon="6.68742">
        <ele>1976.9</ele>
        <time>2022-09-18T00:07:15Z</time>
      </trkpt>
      <trkpt lat="44.13636" lon="6.68744">
        <ele>1977.3</ele>
        <time>2022-09-18T00:07:17Z</time>
      </trkpt>
      <trkpt lat="44.13634" lon="6.68744">
        <ele>1977.5</ele>
        <time>2022-09-18T00:07:18Z</time>
      </trkpt>
      <trkpt lat="44.13631" lon="6.68746">
        <ele>1977.8</ele>
        <time>2022-09-18T00:07:19Z</time>
      </trkpt>
      <trkpt lat="44.13629" lon="6.68747">
        <ele>1978</ele>
        <time>2022-09-18T00:07:20Z</time>
      </trkpt>
      <trkpt lat="44.13627" lon="6.68749">
        <ele>1978.2</ele>
        <time>2022-09-18T00:07:22Z</time>
      </trkpt>
      <trkpt lat="44.13624" lon="6.68752">
        <ele>1978.4</ele>
        <time>2022-09-18T00:07:23Z</time>
      </trkpt>
      <trkpt lat="44.13623" lon="6.68753">
        <ele>1978.4</ele>
        <time>2022-09-18T00:07:24Z</time>
      </trkpt>
      <trkpt lat="44.13621" lon="6.68757">
        <ele>1978.6</ele>
        <time>2022-09-18T00:07:25Z</time>
      </trkpt>
      <trkpt lat="44.13618" lon="6.68762">
        <ele>1978.8</ele>
        <time>2022-09-18T00:07:27Z</time>
      </trkpt>
      <trkpt lat="44.13616" lon="6.68765">
        <ele>1978.8</ele>
        <time>2022-09-18T00:07:28Z</time>
      </trkpt>
      <trkpt lat="44.13614" lon="6.68766">
        <ele>1978.9</ele>
        <time>2022-09-18T00:07:30Z</time>
      </trkpt>
      <trkpt lat="44.13609" lon="6.68769">
        <ele>1978.9</ele>
        <time>2022-09-18T00:07:31Z</time>
      </trkpt>
      <trkpt lat="44.13605" lon="6.68771">
        <ele>1978.9</ele>
        <time>2022-09-18T00:07:33Z</time>
      </trkpt>
      <trkpt lat="44.13601" lon="6.68773">
        <ele>1979</ele>
        <time>2022-09-18T00:07:34Z</time>
      </trkpt>
      <trkpt lat="44.13597" lon="6.68776">
        <ele>1979</ele>
        <time>2022-09-18T00:07:36Z</time>
      </trkpt>
      <trkpt lat="44.13594" lon="6.68778">
        <ele>1979</ele>
        <time>2022-09-18T00:07:37Z</time>
      </trkpt>
      <trkpt lat="44.13591" lon="6.6878">
        <ele>1979.1</ele>
        <time>2022-09-18T00:07:38Z</time>
      </trkpt>
      <trkpt lat="44.13587" lon="6.68782">
        <ele>1979.1</ele>
        <time>2022-09-18T00:07:39Z</time>
      </trkpt>
      <trkpt lat="44.13585" lon="6.68784">
        <ele>1979.1</ele>
        <time>2022-09-18T00:07:40Z</time>
      </trkpt>
      <trkpt lat="44.13582" lon="6.68786">
        <ele>1979.2</ele>
        <time>2022-09-18T00:07:41Z</time>
      </trkpt>
      <trkpt lat="44.1358" lon="6.68789">
        <ele>1979.2</ele>
        <time>2022-09-18T00:07:42Z</time>
      </trkpt>
      <trkpt lat="44.13576" lon="6.68792">
        <ele>1979.3</ele>
        <time>2022-09-18T00:07:44Z</time>
      </trkpt>
      <trkpt lat="44.13575" lon="6.68793">
        <ele>1979.3</ele>
        <time>2022-09-18T00:07:45Z</time>
      </trkpt>
      <trkpt lat="44.13574" lon="6.68794">
        <ele>1979.4</ele>
        <time>2022-09-18T00:07:46Z</time>
      </trkpt>
      <trkpt lat="44.13571" lon="6.68798">
        <ele>1979.5</ele>
        <time>2022-09-18T00:07:47Z</time>
      </trkpt>
      <trkpt lat="44.1357" lon="6.68799">
        <ele>1979.5</ele>
        <time>2022-09-18T00:07:48Z</time>
      </trkpt>
      <trkpt lat="44.13568" lon="6.68801">
        <ele>1979.6</ele>
        <time>2022-09-18T00:07:49Z</time>
      </trkpt>
      <trkpt lat="44.13565" lon="6.68803">
        <ele>1979.8</ele>
        <time>2022-09-18T00:07:50Z</time>
      </trkpt>
      <trkpt lat="44.13561" lon="6.68805">
        <ele>1980</ele>
        <time>2022-09-18T00:07:51Z</time>
      </trkpt>
      <trkpt lat="44.1356" lon="6.68806">
        <ele>1980.1</ele>
        <time>2022-09-18T00:07:52Z</time>
      </trkpt>
      <trkpt lat="44.13556" lon="6.68809">
        <ele>1980.3</ele>
        <time>2022-09-18T00:07:53Z</time>
      </trkpt>
      <trkpt lat="44.13554" lon="6.68811">
        <ele>1980.6</ele>
        <time>2022-09-18T00:07:54Z</time>
      </trkpt>
      <trkpt lat="44.13551" lon="6.68813">
        <ele>1980.8</ele>
        <time>2022-09-18T00:07:55Z</time>
      </trkpt>
      <trkpt lat="44.13548" lon="6.68815">
        <ele>1981.1</ele>
        <time>2022-09-18T00:07:56Z</time>
      </trkpt>
      <trkpt lat="44.13546" lon="6.68816">
        <ele>1981.2</ele>
        <time>2022-09-18T00:07:57Z</time>
      </trkpt>
      <trkpt lat="44.13544" lon="6.68818">
        <ele>1981.5</ele>
        <time>2022-09-18T00:07:59Z</time>
      </trkpt>
      <trkpt lat="44.13541" lon="6.6882">
        <ele>1981.8</ele>
        <time>2022-09-18T00:08:00Z</time>
      </trkpt>
      <trkpt lat="44.1354" lon="6.68821">
        <ele>1981.9</ele>
        <time>2022-09-18T00:08:01Z</time>
      </trkpt>
      <trkpt lat="44.13536" lon="6.68823">
        <ele>1982.2</ele>
        <time>2022-09-18T00:08:02Z</time>
      </trkpt>
      <trkpt lat="44.13532" lon="6.68823">
        <ele>1982.6</ele>
        <time>2022-09-18T00:08:04Z</time>
      </trkpt>
      <trkpt lat="44.13526" lon="6.68824">
        <ele>1983.1</ele>
        <time>2022-09-18T00:08:06Z</time>
      </trkpt>
      <trkpt lat="44.13523" lon="6.68827">
        <ele>1983.4</ele>
        <time>2022-09-18T00:08:07Z</time>
      </trkpt>
      <trkpt lat="44.13522" lon="6.68828">
        <ele>1983.5</ele>
        <time>2022-09-18T00:08:08Z</time>
      </trkpt>
      <trkpt lat="44.1352" lon="6.6883">
        <ele>1983.7</ele>
        <time>2022-09-18T00:08:09Z</time>
      </trkpt>
      <trkpt lat="44.13515" lon="6.68833">
        <ele>1984</ele>
        <time>2022-09-18T00:08:11Z</time>
      </trkpt>
      <trkpt lat="44.13512" lon="6.68835">
        <ele>1984.2</ele>
        <time>2022-09-18T00:08:12Z</time>
      </trkpt>
      <trkpt lat="44.13507" lon="6.68836">
        <ele>1984.5</ele>
        <time>2022-09-18T00:08:13Z</time>
      </trkpt>
      <trkpt lat="44.13503" lon="6.68838">
        <ele>1984.7</ele>
        <time>2022-09-18T00:08:15Z</time>
      </trkpt>
      <trkpt lat="44.135" lon="6.6884">
        <ele>1984.8</ele>
        <time>2022-09-18T00:08:16Z</time>
      </trkpt>
      <trkpt lat="44.13497" lon="6.68842">
        <ele>1985</ele>
        <time>2022-09-18T00:08:17Z</time>
      </trkpt>
      <trkpt lat="44.13494" lon="6.68844">
        <ele>1985.2</ele>
        <time>2022-09-18T00:08:18Z</time>
      </trkpt>
      <trkpt lat="44.1349" lon="6.68846">
        <ele>1985.5</ele>
        <time>2022-09-18T00:08:19Z</time>
      </trkpt>
      <trkpt lat="44.13487" lon="6.68846">
        <ele>1985.7</ele>
        <time>2022-09-18T00:08:20Z</time>
      </trkpt>
      <trkpt lat="44.13483" lon="6.68847">
        <ele>1986</ele>
        <time>2022-09-18T00:08:22Z</time>
      </trkpt>
      <trkpt lat="44.13482" lon="6.68848">
        <ele>1986.2</ele>
        <time>2022-09-18T00:08:23Z</time>
      </trkpt>
      <trkpt lat="44.1348" lon="6.68849">
        <ele>1986.3</ele>
        <time>2022-09-18T00:08:24Z</time>
      </trkpt>
      <trkpt lat="44.13476" lon="6.68852">
        <ele>1986.7</ele>
        <time>2022-09-18T00:08:25Z</time>
      </trkpt>
      <trkpt lat="44.13474" lon="6.68853">
        <ele>1986.9</ele>
        <time>2022-09-18T00:08:26Z</time>
      </trkpt>
      <trkpt lat="44.1347" lon="6.68856">
        <ele>1987.4</ele>
        <time>2022-09-18T00:08:27Z</time>
      </trkpt>
      <trkpt lat="44.13468" lon="6.68858">
        <ele>1987.6</ele>
        <time>2022-09-18T00:08:28Z</time>
      </trkpt>
      <trkpt lat="44.13467" lon="6.6886">
        <ele>1987.9</ele>
        <time>2022-09-18T00:08:30Z</time>
      </trkpt>
      <trkpt lat="44.13465" lon="6.68862">
        <ele>1988.2</ele>
        <time>2022-09-18T00:08:31Z</time>
      </trkpt>
      <trkpt lat="44.13464" lon="6.68863">
        <ele>1988.4</ele>
        <time>2022-09-18T00:08:32Z</time>
      </trkpt>
      <trkpt lat="44.13463" lon="6.68864">
        <ele>1988.6</ele>
        <time>2022-09-18T00:08:33Z</time>
      </trkpt>
      <trkpt lat="44.13462" lon="6.68866">
        <ele>1988.8</ele>
        <time>2022-09-18T00:08:34Z</time>
      </trkpt>
      <trkpt lat="44.13459" lon="6.68868">
        <ele>1989.3</ele>
        <time>2022-09-18T00:08:35Z</time>
      </trkpt>
      <trkpt lat="44.13457" lon="6.68869">
        <ele>1989.7</ele>
        <time>2022-09-18T00:08:36Z</time>
      </trkpt>
      <trkpt lat="44.13454" lon="6.68874">
        <ele>1990.3</ele>
        <time>2022-09-18T00:08:38Z</time>
      </trkpt>
      <trkpt lat="44.13451" lon="6.68876">
        <ele>1990.7</ele>
        <time>2022-09-18T00:08:39Z</time>
      </trkpt>
      <trkpt lat="44.13448" lon="6.68879">
        <ele>1991.2</ele>
        <time>2022-09-18T00:08:40Z</time>
      </trkpt>
      <trkpt lat="44.13445" lon="6.68881">
        <ele>1991.5</ele>
        <time>2022-09-18T00:08:41Z</time>
      </trkpt>
      <trkpt lat="44.13441" lon="6.68884">
        <ele>1992.1</ele>
        <time>2022-09-18T00:08:42Z</time>
      </trkpt>
      <trkpt lat="44.13437" lon="6.68886">
        <ele>1992.5</ele>
        <time>2022-09-18T00:08:44Z</time>
      </trkpt>
      <trkpt lat="44.13433" lon="6.68891">
        <ele>1993</ele>
        <time>2022-09-18T00:08:45Z</time>
      </trkpt>
      <trkpt lat="44.13431" lon="6.68893">
        <ele>1993.3</ele>
        <time>2022-09-18T00:08:47Z</time>
      </trkpt>
      <trkpt lat="44.13429" lon="6.68895">
        <ele>1993.5</ele>
        <time>2022-09-18T00:08:48Z</time>
      </trkpt>
      <trkpt lat="44.13426" lon="6.68897">
        <ele>1993.8</ele>
        <time>2022-09-18T00:08:49Z</time>
      </trkpt>
      <trkpt lat="44.13422" lon="6.689">
        <ele>1994.1</ele>
        <time>2022-09-18T00:08:50Z</time>
      </trkpt>
      <trkpt lat="44.1342" lon="6.68901">
        <ele>1994.3</ele>
        <time>2022-09-18T00:08:51Z</time>
      </trkpt>
      <trkpt lat="44.13417" lon="6.68903">
        <ele>1994.5</ele>
        <time>2022-09-18T00:08:52Z</time>
      </trkpt>
      <trkpt lat="44.13415" lon="6.68904">
        <ele>1994.6</ele>
        <time>2022-09-18T00:08:53Z</time>
      </trkpt>
      <trkpt lat="44.13413" lon="6.68908">
        <ele>1994.9</ele>
        <time>2022-09-18T00:08:54Z</time>
      </trkpt>
      <trkpt lat="44.13409" lon="6.68911">
        <ele>1995.1</ele>
        <time>2022-09-18T00:08:55Z</time>
      </trkpt>
      <trkpt lat="44.13406" lon="6.68915">
        <ele>1995.4</ele>
        <time>2022-09-18T00:08:57Z</time>
      </trkpt>
      <trkpt lat="44.13403" lon="6.68918">
        <ele>1995.7</ele>
        <time>2022-09-18T00:08:58Z</time>
      </trkpt>
      <trkpt lat="44.13402" lon="6.68919">
        <ele>1995.8</ele>
        <time>2022-09-18T00:08:59Z</time>
      </trkpt>
      <trkpt lat="44.13399" lon="6.68922">
        <ele>1996</ele>
        <time>2022-09-18T00:09:00Z</time>
      </trkpt>
      <trkpt lat="44.13398" lon="6.68923">
        <ele>1996.1</ele>
        <time>2022-09-18T00:09:01Z</time>
      </trkpt>
      <trkpt lat="44.13395" lon="6.68924">
        <ele>1996.5</ele>
        <time>2022-09-18T00:09:02Z</time>
      </trkpt>
      <trkpt lat="44.13392" lon="6.68925">
        <ele>1996.8</ele>
        <time>2022-09-18T00:09:03Z</time>
      </trkpt>
      <trkpt lat="44.13391" lon="6.68926">
        <ele>1996.9</ele>
        <time>2022-09-18T00:09:04Z</time>
      </trkpt>
      <trkpt lat="44.13388" lon="6.68928">
        <ele>1997.2</ele>
        <time>2022-09-18T00:09:06Z</time>
      </trkpt>
      <trkpt lat="44.13386" lon="6.68931">
        <ele>1997.6</ele>
        <time>2022-09-18T00:09:07Z</time>
      </trkpt>
      <trkpt lat="44.13382" lon="6.68934">
        <ele>1998.1</ele>
        <time>2022-09-18T00:09:09Z</time>
      </trkpt>
      <trkpt lat="44.1338" lon="6.68934">
        <ele>1998.3</ele>
        <time>2022-09-18T00:09:10Z</time>
      </trkpt>
      <trkpt lat="44.13379" lon="6.68935">
        <ele>1998.4</ele>
        <time>2022-09-18T00:09:11Z</time>
      </trkpt>
      <trkpt lat="44.13376" lon="6.68935">
        <ele>1998.8</ele>
        <time>2022-09-18T00:09:12Z</time>
      </trkpt>
      <trkpt lat="44.13375" lon="6.68936">
        <ele>1998.9</ele>
        <time>2022-09-18T00:09:13Z</time>
      </trkpt>
      <trkpt lat="44.13372" lon="6.68937">
        <ele>1999.2</ele>
        <time>2022-09-18T00:09:14Z</time>
      </trkpt>
      <trkpt lat="44.13369" lon="6.6894">
        <ele>1999.5</ele>
        <time>2022-09-18T00:09:15Z</time>
      </trkpt>
      <trkpt lat="44.13368" lon="6.6894">
        <ele>1999.6</ele>
        <time>2022-09-18T00:09:16Z</time>
      </trkpt>
      <trkpt lat="44.13364" lon="6.68942">
        <ele>1999.9</ele>
        <time>2022-09-18T00:09:17Z</time>
      </trkpt>
      <trkpt lat="44.13362" lon="6.68943">
        <ele>2000</ele>
        <time>2022-09-18T00:09:18Z</time>
      </trkpt>
      <trkpt lat="44.13358" lon="6.68945">
        <ele>2000.3</ele>
        <time>2022-09-18T00:09:20Z</time>
      </trkpt>
      <trkpt lat="44.13356" lon="6.68946">
        <ele>2000.4</ele>
        <time>2022-09-18T00:09:21Z</time>
      </trkpt>
      <trkpt lat="44.13355" lon="6.68947">
        <ele>2000.5</ele>
        <time>2022-09-18T00:09:22Z</time>
      </trkpt>
      <trkpt lat="44.13352" lon="6.68949">
        <ele>2000.6</ele>
        <time>2022-09-18T00:09:23Z</time>
      </trkpt>
      <trkpt lat="44.13349" lon="6.68952">
        <ele>2000.8</ele>
        <time>2022-09-18T00:09:25Z</time>
      </trkpt>
      <trkpt lat="44.13346" lon="6.68957">
        <ele>2000.9</ele>
        <time>2022-09-18T00:09:26Z</time>
      </trkpt>
      <trkpt lat="44.13343" lon="6.68961">
        <ele>2001.1</ele>
        <time>2022-09-18T00:09:28Z</time>
      </trkpt>
      <trkpt lat="44.1334" lon="6.68966">
        <ele>2001.2</ele>
        <time>2022-09-18T00:09:29Z</time>
      </trkpt>
      <trkpt lat="44.13338" lon="6.68969">
        <ele>2001.4</ele>
        <time>2022-09-18T00:09:30Z</time>
      </trkpt>
      <trkpt lat="44.13335" lon="6.68973">
        <ele>2001.6</ele>
        <time>2022-09-18T00:09:31Z</time>
      </trkpt>
      <trkpt lat="44.13334" lon="6.68974">
        <ele>2001.6</ele>
        <time>2022-09-18T00:09:32Z</time>
      </trkpt>
      <trkpt lat="44.13331" lon="6.68979">
        <ele>2001.8</ele>
        <time>2022-09-18T00:09:34Z</time>
      </trkpt>
      <trkpt lat="44.13329" lon="6.68982">
        <ele>2002</ele>
        <time>2022-09-18T00:09:35Z</time>
      </trkpt>
      <trkpt lat="44.13327" lon="6.68985">
        <ele>2002.1</ele>
        <time>2022-09-18T00:09:37Z</time>
      </trkpt>
      <trkpt lat="44.13325" lon="6.68988">
        <ele>2002.3</ele>
        <time>2022-09-18T00:09:38Z</time>
      </trkpt>
      <trkpt lat="44.13321" lon="6.68989">
        <ele>2002.5</ele>
        <time>2022-09-18T00:09:39Z</time>
      </trkpt>
      <trkpt lat="44.1332" lon="6.6899">
        <ele>2002.6</ele>
        <time>2022-09-18T00:09:40Z</time>
      </trkpt>
      <trkpt lat="44.13317" lon="6.68992">
        <ele>2002.8</ele>
        <time>2022-09-18T00:09:41Z</time>
      </trkpt>
      <trkpt lat="44.13315" lon="6.68995">
        <ele>2003</ele>
        <time>2022-09-18T00:09:42Z</time>
      </trkpt>
      <trkpt lat="44.1331" lon="6.68999">
        <ele>2003.4</ele>
        <time>2022-09-18T00:09:44Z</time>
      </trkpt>
      <trkpt lat="44.13309" lon="6.69">
        <ele>2003.5</ele>
        <time>2022-09-18T00:09:45Z</time>
      </trkpt>
      <trkpt lat="44.13307" lon="6.69">
        <ele>2003.6</ele>
        <time>2022-09-18T00:09:46Z</time>
      </trkpt>
      <trkpt lat="44.13304" lon="6.69002">
        <ele>2003.8</ele>
        <time>2022-09-18T00:09:47Z</time>
      </trkpt>
      <trkpt lat="44.13301" lon="6.69004">
        <ele>2004.1</ele>
        <time>2022-09-18T00:09:48Z</time>
      </trkpt>
      <trkpt lat="44.13299" lon="6.69006">
        <ele>2004.3</ele>
        <time>2022-09-18T00:09:50Z</time>
      </trkpt>
      <trkpt lat="44.13297" lon="6.69009">
        <ele>2004.5</ele>
        <time>2022-09-18T00:09:51Z</time>
      </trkpt>
      <trkpt lat="44.13294" lon="6.6901">
        <ele>2004.7</ele>
        <time>2022-09-18T00:09:52Z</time>
      </trkpt>
      <trkpt lat="44.13291" lon="6.69012">
        <ele>2004.9</ele>
        <time>2022-09-18T00:09:53Z</time>
      </trkpt>
      <trkpt lat="44.13287" lon="6.69016">
        <ele>2005.2</ele>
        <time>2022-09-18T00:09:55Z</time>
      </trkpt>
      <trkpt lat="44.13285" lon="6.69018">
        <ele>2005.3</ele>
        <time>2022-09-18T00:09:56Z</time>
      </trkpt>
      <trkpt lat="44.13283" lon="6.69021">
        <ele>2005.5</ele>
        <time>2022-09-18T00:09:57Z</time>
      </trkpt>
      <trkpt lat="44.13282" lon="6.69022">
        <ele>2005.6</ele>
        <time>2022-09-18T00:09:58Z</time>
      </trkpt>
      <trkpt lat="44.13277" lon="6.69026">
        <ele>2005.8</ele>
        <time>2022-09-18T00:10:00Z</time>
      </trkpt>
      <trkpt lat="44.13274" lon="6.69028">
        <ele>2005.9</ele>
        <time>2022-09-18T00:10:01Z</time>
      </trkpt>
      <trkpt lat="44.13272" lon="6.6903">
        <ele>2006</ele>
        <time>2022-09-18T00:10:02Z</time>
      </trkpt>
      <trkpt lat="44.13269" lon="6.69032">
        <ele>2006.1</ele>
        <time>2022-09-18T00:10:03Z</time>
      </trkpt>
      <trkpt lat="44.13265" lon="6.69036">
        <ele>2006.2</ele>
        <time>2022-09-18T00:10:04Z</time>
      </trkpt>
      <trkpt lat="44.13262" lon="6.69039">
        <ele>2006.2</ele>
        <time>2022-09-18T00:10:05Z</time>
      </trkpt>
      <trkpt lat="44.13259" lon="6.69041">
        <ele>2006.3</ele>
        <time>2022-09-18T00:10:06Z</time>
      </trkpt>
      <trkpt lat="44.13256" lon="6.69043">
        <ele>2006.4</ele>
        <time>2022-09-18T00:10:08Z</time>
      </trkpt>
      <trkpt lat="44.13253" lon="6.69044">
        <ele>2006.5</ele>
        <time>2022-09-18T00:10:09Z</time>
      </trkpt>
      <trkpt lat="44.1325" lon="6.69045">
        <ele>2006.6</ele>
        <time>2022-09-18T00:10:10Z</time>
      </trkpt>
      <trkpt lat="44.13247" lon="6.69047">
        <ele>2006.7</ele>
        <time>2022-09-18T00:10:11Z</time>
      </trkpt>
      <trkpt lat="44.13243" lon="6.6905">
        <ele>2006.8</ele>
        <time>2022-09-18T00:10:12Z</time>
      </trkpt>
      <trkpt lat="44.1324" lon="6.69052">
        <ele>2006.9</ele>
        <time>2022-09-18T00:10:13Z</time>
      </trkpt>
      <trkpt lat="44.13236" lon="6.69054">
        <ele>2007.1</ele>
        <time>2022-09-18T00:10:14Z</time>
      </trkpt>
      <trkpt lat="44.13232" lon="6.69056">
        <ele>2007.2</ele>
        <time>2022-09-18T00:10:15Z</time>
      </trkpt>
      <trkpt lat="44.13229" lon="6.69059">
        <ele>2007.3</ele>
        <time>2022-09-18T00:10:17Z</time>
      </trkpt>
      <trkpt lat="44.13226" lon="6.69062">
        <ele>2007.5</ele>
        <time>2022-09-18T00:10:18Z</time>
      </trkpt>
      <trkpt lat="44.13222" lon="6.69066">
        <ele>2007.7</ele>
        <time>2022-09-18T00:10:19Z</time>
      </trkpt>
      <trkpt lat="44.13218" lon="6.69068">
        <ele>2007.9</ele>
        <time>2022-09-18T00:10:20Z</time>
      </trkpt>
      <trkpt lat="44.13214" lon="6.69073">
        <ele>2008.1</ele>
        <time>2022-09-18T00:10:22Z</time>
      </trkpt>
      <trkpt lat="44.13211" lon="6.69076">
        <ele>2008.3</ele>
        <time>2022-09-18T00:10:23Z</time>
      </trkpt>
      <trkpt lat="44.13208" lon="6.69078">
        <ele>2008.5</ele>
        <time>2022-09-18T00:10:24Z</time>
      </trkpt>
      <trkpt lat="44.13205" lon="6.69082">
        <ele>2008.7</ele>
        <time>2022-09-18T00:10:25Z</time>
      </trkpt>
      <trkpt lat="44.13202" lon="6.69084">
        <ele>2008.9</ele>
        <time>2022-09-18T00:10:26Z</time>
      </trkpt>
      <trkpt lat="44.13199" lon="6.69086">
        <ele>2009.2</ele>
        <time>2022-09-18T00:10:27Z</time>
      </trkpt>
      <trkpt lat="44.13196" lon="6.69088">
        <ele>2009.4</ele>
        <time>2022-09-18T00:10:28Z</time>
      </trkpt>
      <trkpt lat="44.13194" lon="6.6909">
        <ele>2009.5</ele>
        <time>2022-09-18T00:10:29Z</time>
      </trkpt>
      <trkpt lat="44.1319" lon="6.69092">
        <ele>2009.8</ele>
        <time>2022-09-18T00:10:31Z</time>
      </trkpt>
      <trkpt lat="44.13187" lon="6.69093">
        <ele>2010</ele>
        <time>2022-09-18T00:10:32Z</time>
      </trkpt>
      <trkpt lat="44.13183" lon="6.69094">
        <ele>2010.2</ele>
        <time>2022-09-18T00:10:33Z</time>
      </trkpt>
      <trkpt lat="44.1318" lon="6.69096">
        <ele>2010.4</ele>
        <time>2022-09-18T00:10:34Z</time>
      </trkpt>
      <trkpt lat="44.13176" lon="6.69099">
        <ele>2010.7</ele>
        <time>2022-09-18T00:10:35Z</time>
      </trkpt>
      <trkpt lat="44.13172" lon="6.69101">
        <ele>2010.9</ele>
        <time>2022-09-18T00:10:36Z</time>
      </trkpt>
      <trkpt lat="44.13167" lon="6.69103">
        <ele>2011.2</ele>
        <time>2022-09-18T00:10:38Z</time>
      </trkpt>
      <trkpt lat="44.13164" lon="6.69105">
        <ele>2011.5</ele>
        <time>2022-09-18T00:10:39Z</time>
      </trkpt>
      <trkpt lat="44.13162" lon="6.69107">
        <ele>2011.7</ele>
        <time>2022-09-18T00:10:40Z</time>
      </trkpt>
      <trkpt lat="44.13159" lon="6.69109">
        <ele>2011.9</ele>
        <time>2022-09-18T00:10:41Z</time>
      </trkpt>
      <trkpt lat="44.13156" lon="6.69112">
        <ele>2012.2</ele>
        <time>2022-09-18T00:10:42Z</time>
      </trkpt>
      <trkpt lat="44.13153" lon="6.69115">
        <ele>2012.5</ele>
        <time>2022-09-18T00:10:43Z</time>
      </trkpt>
      <trkpt lat="44.13148" lon="6.69121">
        <ele>2013.2</ele>
        <time>2022-09-18T00:10:45Z</time>
      </trkpt>
      <trkpt lat="44.13145" lon="6.69123">
        <ele>2013.5</ele>
        <time>2022-09-18T00:10:47Z</time>
      </trkpt>
      <trkpt lat="44.13142" lon="6.69124">
        <ele>2013.8</ele>
        <time>2022-09-18T00:10:48Z</time>
      </trkpt>
      <trkpt lat="44.13139" lon="6.69126">
        <ele>2014.1</ele>
        <time>2022-09-18T00:10:49Z</time>
      </trkpt>
      <trkpt lat="44.13136" lon="6.69129">
        <ele>2014.4</ele>
        <time>2022-09-18T00:10:50Z</time>
      </trkpt>
      <trkpt lat="44.13135" lon="6.6913">
        <ele>2014.5</ele>
        <time>2022-09-18T00:10:51Z</time>
      </trkpt>
      <trkpt lat="44.13131" lon="6.69133">
        <ele>2014.9</ele>
        <time>2022-09-18T00:10:52Z</time>
      </trkpt>
      <trkpt lat="44.13128" lon="6.69135">
        <ele>2015.3</ele>
        <time>2022-09-18T00:10:53Z</time>
      </trkpt>
      <trkpt lat="44.13124" lon="6.69138">
        <ele>2015.6</ele>
        <time>2022-09-18T00:10:55Z</time>
      </trkpt>
      <trkpt lat="44.1312" lon="6.6914">
        <ele>2016</ele>
        <time>2022-09-18T00:10:56Z</time>
      </trkpt>
      <trkpt lat="44.13119" lon="6.69142">
        <ele>2016.2</ele>
        <time>2022-09-18T00:10:57Z</time>
      </trkpt>
      <trkpt lat="44.13116" lon="6.69144">
        <ele>2016.5</ele>
        <time>2022-09-18T00:10:58Z</time>
      </trkpt>
      <trkpt lat="44.13113" lon="6.69146">
        <ele>2016.9</ele>
        <time>2022-09-18T00:10:59Z</time>
      </trkpt>
      <trkpt lat="44.1311" lon="6.69148">
        <ele>2017.3</ele>
        <time>2022-09-18T00:11:00Z</time>
      </trkpt>
      <trkpt lat="44.13106" lon="6.6915">
        <ele>2017.8</ele>
        <time>2022-09-18T00:11:02Z</time>
      </trkpt>
      <trkpt lat="44.13102" lon="6.69152">
        <ele>2018.4</ele>
        <time>2022-09-18T00:11:03Z</time>
      </trkpt>
      <trkpt lat="44.13097" lon="6.69157">
        <ele>2019.3</ele>
        <time>2022-09-18T00:11:06Z</time>
      </trkpt>
      <trkpt lat="44.13093" lon="6.6916">
        <ele>2020</ele>
        <time>2022-09-18T00:11:07Z</time>
      </trkpt>
      <trkpt lat="44.13092" lon="6.69161">
        <ele>2020.2</ele>
        <time>2022-09-18T00:11:08Z</time>
      </trkpt>
      <trkpt lat="44.13089" lon="6.69163">
        <ele>2020.7</ele>
        <time>2022-09-18T00:11:09Z</time>
      </trkpt>
      <trkpt lat="44.13087" lon="6.69164">
        <ele>2021.2</ele>
        <time>2022-09-18T00:11:10Z</time>
      </trkpt>
      <trkpt lat="44.13084" lon="6.69165">
        <ele>2021.6</ele>
        <time>2022-09-18T00:11:11Z</time>
      </trkpt>
      <trkpt lat="44.13079" lon="6.69167">
        <ele>2022.2</ele>
        <time>2022-09-18T00:11:12Z</time>
      </trkpt>
      <trkpt lat="44.13076" lon="6.69168">
        <ele>2022.7</ele>
        <time>2022-09-18T00:11:13Z</time>
      </trkpt>
      <trkpt lat="44.13072" lon="6.6917">
        <ele>2023.1</ele>
        <time>2022-09-18T00:11:14Z</time>
      </trkpt>
      <trkpt lat="44.13068" lon="6.69173">
        <ele>2023.6</ele>
        <time>2022-09-18T00:11:16Z</time>
      </trkpt>
      <trkpt lat="44.13064" lon="6.69175">
        <ele>2024</ele>
        <time>2022-09-18T00:11:17Z</time>
      </trkpt>
      <trkpt lat="44.13061" lon="6.69177">
        <ele>2024.3</ele>
        <time>2022-09-18T00:11:19Z</time>
      </trkpt>
      <trkpt lat="44.13057" lon="6.69178">
        <ele>2024.6</ele>
        <time>2022-09-18T00:11:20Z</time>
      </trkpt>
      <trkpt lat="44.13053" lon="6.69179">
        <ele>2024.9</ele>
        <time>2022-09-18T00:11:21Z</time>
      </trkpt>
      <trkpt lat="44.1305" lon="6.6918">
        <ele>2025.1</ele>
        <time>2022-09-18T00:11:23Z</time>
      </trkpt>
      <trkpt lat="44.13046" lon="6.6918">
        <ele>2025.4</ele>
        <time>2022-09-18T00:11:24Z</time>
      </trkpt>
      <trkpt lat="44.13043" lon="6.69181">
        <ele>2025.7</ele>
        <time>2022-09-18T00:11:25Z</time>
      </trkpt>
      <trkpt lat="44.13038" lon="6.69182">
        <ele>2026</ele>
        <time>2022-09-18T00:11:27Z</time>
      </trkpt>
      <trkpt lat="44.13033" lon="6.69182">
        <ele>2026.3</ele>
        <time>2022-09-18T00:11:28Z</time>
      </trkpt>
      <trkpt lat="44.1303" lon="6.69183">
        <ele>2026.5</ele>
        <time>2022-09-18T00:11:30Z</time>
      </trkpt>
      <trkpt lat="44.13027" lon="6.69183">
        <ele>2026.7</ele>
        <time>2022-09-18T00:11:31Z</time>
      </trkpt>
      <trkpt lat="44.13024" lon="6.69183">
        <ele>2026.9</ele>
        <time>2022-09-18T00:11:32Z</time>
      </trkpt>
      <trkpt lat="44.13021" lon="6.69183">
        <ele>2027</ele>
        <time>2022-09-18T00:11:33Z</time>
      </trkpt>
      <trkpt lat="44.13017" lon="6.69183">
        <ele>2027.3</ele>
        <time>2022-09-18T00:11:34Z</time>
      </trkpt>
      <trkpt lat="44.13014" lon="6.69182">
        <ele>2027.5</ele>
        <time>2022-09-18T00:11:35Z</time>
      </trkpt>
      <trkpt lat="44.13011" lon="6.69182">
        <ele>2027.6</ele>
        <time>2022-09-18T00:11:37Z</time>
      </trkpt>
      <trkpt lat="44.13007" lon="6.69182">
        <ele>2027.7</ele>
        <time>2022-09-18T00:11:38Z</time>
      </trkpt>
      <trkpt lat="44.13004" lon="6.69183">
        <ele>2027.7</ele>
        <time>2022-09-18T00:11:39Z</time>
      </trkpt>
      <trkpt lat="44.13" lon="6.69184">
        <ele>2027.7</ele>
        <time>2022-09-18T00:11:41Z</time>
      </trkpt>
      <trkpt lat="44.12995" lon="6.69182">
        <ele>2027.5</ele>
        <time>2022-09-18T00:11:42Z</time>
      </trkpt>
      <trkpt lat="44.12989" lon="6.69182">
        <ele>2027.2</ele>
        <time>2022-09-18T00:11:43Z</time>
      </trkpt>
      <trkpt lat="44.12983" lon="6.69182">
        <ele>2026.9</ele>
        <time>2022-09-18T00:11:44Z</time>
      </trkpt>
      <trkpt lat="44.12979" lon="6.69183">
        <ele>2026.7</ele>
        <time>2022-09-18T00:11:45Z</time>
      </trkpt>
      <trkpt lat="44.12976" lon="6.69185">
        <ele>2026.6</ele>
        <time>2022-09-18T00:11:46Z</time>
      </trkpt>
      <trkpt lat="44.12973" lon="6.69187">
        <ele>2026.5</ele>
        <time>2022-09-18T00:11:47Z</time>
      </trkpt>
      <trkpt lat="44.1297" lon="6.6919">
        <ele>2026.5</ele>
        <time>2022-09-18T00:11:48Z</time>
      </trkpt>
      <trkpt lat="44.12965" lon="6.69189">
        <ele>2026.5</ele>
        <time>2022-09-18T00:11:49Z</time>
      </trkpt>
      <trkpt lat="44.12964" lon="6.69189">
        <ele>2026.5</ele>
        <time>2022-09-18T00:11:50Z</time>
      </trkpt>
      <trkpt lat="44.1296" lon="6.6919">
        <ele>2026.5</ele>
        <time>2022-09-18T00:11:51Z</time>
      </trkpt>
      <trkpt lat="44.12955" lon="6.69194">
        <ele>2026.6</ele>
        <time>2022-09-18T00:11:53Z</time>
      </trkpt>
      <trkpt lat="44.12951" lon="6.69196">
        <ele>2026.7</ele>
        <time>2022-09-18T00:11:54Z</time>
      </trkpt>
      <trkpt lat="44.12948" lon="6.69197">
        <ele>2026.7</ele>
        <time>2022-09-18T00:11:55Z</time>
      </trkpt>
      <trkpt lat="44.12944" lon="6.69199">
        <ele>2026.9</ele>
        <time>2022-09-18T00:11:56Z</time>
      </trkpt>
      <trkpt lat="44.1294" lon="6.692">
        <ele>2027</ele>
        <time>2022-09-18T00:11:57Z</time>
      </trkpt>
      <trkpt lat="44.12936" lon="6.69201">
        <ele>2027.1</ele>
        <time>2022-09-18T00:11:58Z</time>
      </trkpt>
      <trkpt lat="44.12932" lon="6.69203">
        <ele>2027.3</ele>
        <time>2022-09-18T00:11:59Z</time>
      </trkpt>
      <trkpt lat="44.12928" lon="6.69206">
        <ele>2027.4</ele>
        <time>2022-09-18T00:12:00Z</time>
      </trkpt>
      <trkpt lat="44.12924" lon="6.69207">
        <ele>2027.6</ele>
        <time>2022-09-18T00:12:02Z</time>
      </trkpt>
      <trkpt lat="44.12921" lon="6.69208">
        <ele>2027.7</ele>
        <time>2022-09-18T00:12:03Z</time>
      </trkpt>
      <trkpt lat="44.12916" lon="6.6921">
        <ele>2028</ele>
        <time>2022-09-18T00:12:04Z</time>
      </trkpt>
      <trkpt lat="44.12913" lon="6.6921">
        <ele>2028.2</ele>
        <time>2022-09-18T00:12:05Z</time>
      </trkpt>
      <trkpt lat="44.12909" lon="6.69212">
        <ele>2028.5</ele>
        <time>2022-09-18T00:12:07Z</time>
      </trkpt>
      <trkpt lat="44.12906" lon="6.69216">
        <ele>2028.8</ele>
        <time>2022-09-18T00:12:08Z</time>
      </trkpt>
      <trkpt lat="44.12904" lon="6.69219">
        <ele>2029</ele>
        <time>2022-09-18T00:12:09Z</time>
      </trkpt>
      <trkpt lat="44.129" lon="6.69222">
        <ele>2029.4</ele>
        <time>2022-09-18T00:12:11Z</time>
      </trkpt>
      <trkpt lat="44.12896" lon="6.69222">
        <ele>2029.8</ele>
        <time>2022-09-18T00:12:12Z</time>
      </trkpt>
      <trkpt lat="44.12894" lon="6.69223">
        <ele>2030.1</ele>
        <time>2022-09-18T00:12:13Z</time>
      </trkpt>
      <trkpt lat="44.12893" lon="6.69223">
        <ele>2030.2</ele>
        <time>2022-09-18T00:12:14Z</time>
      </trkpt>
      <trkpt lat="44.12892" lon="6.69223">
        <ele>2030.3</ele>
        <time>2022-09-18T00:12:15Z</time>
      </trkpt>
      <trkpt lat="44.12888" lon="6.69225">
        <ele>2030.8</ele>
        <time>2022-09-18T00:12:16Z</time>
      </trkpt>
      <trkpt lat="44.12887" lon="6.69226">
        <ele>2031</ele>
        <time>2022-09-18T00:12:17Z</time>
      </trkpt>
      <trkpt lat="44.1288" lon="6.6923">
        <ele>2032</ele>
        <time>2022-09-18T00:12:18Z</time>
      </trkpt>
      <trkpt lat="44.12876" lon="6.69232">
        <ele>2032.6</ele>
        <time>2022-09-18T00:12:20Z</time>
      </trkpt>
      <trkpt lat="44.12872" lon="6.69237">
        <ele>2033.3</ele>
        <time>2022-09-18T00:12:21Z</time>
      </trkpt>
      <trkpt lat="44.12869" lon="6.69242">
        <ele>2033.9</ele>
        <time>2022-09-18T00:12:22Z</time>
      </trkpt>
      <trkpt lat="44.12867" lon="6.69244">
        <ele>2034.4</ele>
        <time>2022-09-18T00:12:23Z</time>
      </trkpt>
      <trkpt lat="44.12864" lon="6.69248">
        <ele>2034.8</ele>
        <time>2022-09-18T00:12:25Z</time>
      </trkpt>
      <trkpt lat="44.12861" lon="6.69252">
        <ele>2035.3</ele>
        <time>2022-09-18T00:12:26Z</time>
      </trkpt>
      <trkpt lat="44.12858" lon="6.69257">
        <ele>2035.8</ele>
        <time>2022-09-18T00:12:27Z</time>
      </trkpt>
      <trkpt lat="44.12855" lon="6.6926">
        <ele>2036.1</ele>
        <time>2022-09-18T00:12:28Z</time>
      </trkpt>
      <trkpt lat="44.12851" lon="6.69263">
        <ele>2036.4</ele>
        <time>2022-09-18T00:12:29Z</time>
      </trkpt>
      <trkpt lat="44.12846" lon="6.69264">
        <ele>2036.7</ele>
        <time>2022-09-18T00:12:31Z</time>
      </trkpt>
      <trkpt lat="44.12844" lon="6.69264">
        <ele>2036.8</ele>
        <time>2022-09-18T00:12:32Z</time>
      </trkpt>
      <trkpt lat="44.12842" lon="6.69264">
        <ele>2036.9</ele>
        <time>2022-09-18T00:12:33Z</time>
      </trkpt>
      <trkpt lat="44.12839" lon="6.69267">
        <ele>2037</ele>
        <time>2022-09-18T00:12:34Z</time>
      </trkpt>
      <trkpt lat="44.12838" lon="6.69268">
        <ele>2037</ele>
        <time>2022-09-18T00:12:35Z</time>
      </trkpt>
      <trkpt lat="44.12835" lon="6.69272">
        <ele>2037.2</ele>
        <time>2022-09-18T00:12:36Z</time>
      </trkpt>
      <trkpt lat="44.12832" lon="6.69277">
        <ele>2037.4</ele>
        <time>2022-09-18T00:12:37Z</time>
      </trkpt>
      <trkpt lat="44.12829" lon="6.69282">
        <ele>2037.6</ele>
        <time>2022-09-18T00:12:39Z</time>
      </trkpt>
      <trkpt lat="44.12826" lon="6.69286">
        <ele>2037.8</ele>
        <time>2022-09-18T00:12:40Z</time>
      </trkpt>
      <trkpt lat="44.12824" lon="6.69288">
        <ele>2038</ele>
        <time>2022-09-18T00:12:41Z</time>
      </trkpt>
      <trkpt lat="44.12822" lon="6.69291">
        <ele>2038.1</ele>
        <time>2022-09-18T00:12:42Z</time>
      </trkpt>
      <trkpt lat="44.12819" lon="6.69293">
        <ele>2038.3</ele>
        <time>2022-09-18T00:12:43Z</time>
      </trkpt>
      <trkpt lat="44.12814" lon="6.69294">
        <ele>2038.6</ele>
        <time>2022-09-18T00:12:45Z</time>
      </trkpt>
      <trkpt lat="44.12811" lon="6.69299">
        <ele>2038.9</ele>
        <time>2022-09-18T00:12:46Z</time>
      </trkpt>
      <trkpt lat="44.12808" lon="6.69302">
        <ele>2039</ele>
        <time>2022-09-18T00:12:47Z</time>
      </trkpt>
      <trkpt lat="44.12806" lon="6.69305">
        <ele>2039.2</ele>
        <time>2022-09-18T00:12:49Z</time>
      </trkpt>
      <trkpt lat="44.12803" lon="6.69307">
        <ele>2039.4</ele>
        <time>2022-09-18T00:12:50Z</time>
      </trkpt>
      <trkpt lat="44.128" lon="6.69309">
        <ele>2039.6</ele>
        <time>2022-09-18T00:12:51Z</time>
      </trkpt>
      <trkpt lat="44.12797" lon="6.69311">
        <ele>2039.7</ele>
        <time>2022-09-18T00:12:52Z</time>
      </trkpt>
      <trkpt lat="44.12793" lon="6.69314">
        <ele>2040</ele>
        <time>2022-09-18T00:12:53Z</time>
      </trkpt>
      <trkpt lat="44.1279" lon="6.69318">
        <ele>2040.2</ele>
        <time>2022-09-18T00:12:55Z</time>
      </trkpt>
      <trkpt lat="44.12787" lon="6.69322">
        <ele>2040.5</ele>
        <time>2022-09-18T00:12:56Z</time>
      </trkpt>
      <trkpt lat="44.12786" lon="6.69323">
        <ele>2040.5</ele>
        <time>2022-09-18T00:12:57Z</time>
      </trkpt>
      <trkpt lat="44.12784" lon="6.69324">
        <ele>2040.6</ele>
        <time>2022-09-18T00:12:58Z</time>
      </trkpt>
      <trkpt lat="44.12782" lon="6.69326">
        <ele>2040.8</ele>
        <time>2022-09-18T00:13:00Z</time>
      </trkpt>
      <trkpt lat="44.12778" lon="6.69328">
        <ele>2041</ele>
        <time>2022-09-18T00:13:01Z</time>
      </trkpt>
      <trkpt lat="44.12776" lon="6.69331">
        <ele>2041.1</ele>
        <time>2022-09-18T00:13:02Z</time>
      </trkpt>
      <trkpt lat="44.12774" lon="6.69335">
        <ele>2041.3</ele>
        <time>2022-09-18T00:13:03Z</time>
      </trkpt>
      <trkpt lat="44.12771" lon="6.69337">
        <ele>2041.5</ele>
        <time>2022-09-18T00:13:05Z</time>
      </trkpt>
      <trkpt lat="44.1277" lon="6.69338">
        <ele>2041.5</ele>
        <time>2022-09-18T00:13:06Z</time>
      </trkpt>
      <trkpt lat="44.12768" lon="6.69339">
        <ele>2041.6</ele>
        <time>2022-09-18T00:13:07Z</time>
      </trkpt>
      <trkpt lat="44.12768" lon="6.6934">
        <ele>2041.6</ele>
        <time>2022-09-18T00:13:08Z</time>
      </trkpt>
      <trkpt lat="44.12767" lon="6.6934">
        <ele>2041.6</ele>
        <time>2022-09-18T00:13:09Z</time>
      </trkpt>
      <trkpt lat="44.12766" lon="6.69341">
        <ele>2041.7</ele>
        <time>2022-09-18T00:13:10Z</time>
      </trkpt>
      <trkpt lat="44.12766" lon="6.69341">
        <ele>2041.7</ele>
        <time>2022-09-18T00:13:11Z</time>
      </trkpt>
      <trkpt lat="44.12765" lon="6.69342">
        <ele>2041.7</ele>
        <time>2022-09-18T00:13:12Z</time>
      </trkpt>
      <trkpt lat="44.12765" lon="6.69342">
        <ele>2041.8</ele>
        <time>2022-09-18T00:13:13Z</time>
      </trkpt>
      <trkpt lat="44.12764" lon="6.69343">
        <ele>2041.8</ele>
        <time>2022-09-18T00:13:14Z</time>
      </trkpt>
      <trkpt lat="44.12764" lon="6.69343">
        <ele>2041.8</ele>
        <time>2022-09-18T00:13:15Z</time>
      </trkpt>
      <trkpt lat="44.12763" lon="6.69344">
        <ele>2041.8</ele>
        <time>2022-09-18T00:13:16Z</time>
      </trkpt>
      <trkpt lat="44.12762" lon="6.69344">
        <ele>2041.8</ele>
        <time>2022-09-18T00:13:17Z</time>
      </trkpt>
      <trkpt lat="44.12762" lon="6.69345">
        <ele>2041.9</ele>
        <time>2022-09-18T00:13:18Z</time>
      </trkpt>
      <trkpt lat="44.12761" lon="6.69345">
        <ele>2041.9</ele>
        <time>2022-09-18T00:14:26Z</time>
      </trkpt>
      <trkpt lat="44.12761" lon="6.69346">
        <ele>2041.9</ele>
        <time>2022-09-18T00:14:27Z</time>
      </trkpt>
      <trkpt lat="44.1276" lon="6.69346">
        <ele>2041.9</ele>
        <time>2022-09-18T00:14:28Z</time>
      </trkpt>
      <trkpt lat="44.12758" lon="6.6935">
        <ele>2042</ele>
        <time>2022-09-18T00:14:29Z</time>
      </trkpt>
      <trkpt lat="44.12755" lon="6.69354">
        <ele>2042.1</ele>
        <time>2022-09-18T00:14:30Z</time>
      </trkpt>
      <trkpt lat="44.12754" lon="6.69355">
        <ele>2042.1</ele>
        <time>2022-09-18T00:14:31Z</time>
      </trkpt>
      <trkpt lat="44.12752" lon="6.69358">
        <ele>2042.1</ele>
        <time>2022-09-18T00:14:32Z</time>
      </trkpt>
      <trkpt lat="44.1275" lon="6.69362">
        <ele>2042.2</ele>
        <time>2022-09-18T00:14:33Z</time>
      </trkpt>
      <trkpt lat="44.12747" lon="6.69366">
        <ele>2042.3</ele>
        <time>2022-09-18T00:14:34Z</time>
      </trkpt>
      <trkpt lat="44.12745" lon="6.69369">
        <ele>2042.3</ele>
        <time>2022-09-18T00:14:35Z</time>
      </trkpt>
      <trkpt lat="44.12743" lon="6.69373">
        <ele>2042.4</ele>
        <time>2022-09-18T00:14:36Z</time>
      </trkpt>
      <trkpt lat="44.1274" lon="6.69378">
        <ele>2042.5</ele>
        <time>2022-09-18T00:14:38Z</time>
      </trkpt>
      <trkpt lat="44.12737" lon="6.69382">
        <ele>2042.7</ele>
        <time>2022-09-18T00:14:39Z</time>
      </trkpt>
      <trkpt lat="44.12736" lon="6.69383">
        <ele>2042.7</ele>
        <time>2022-09-18T00:14:40Z</time>
      </trkpt>
      <trkpt lat="44.12734" lon="6.69386">
        <ele>2042.9</ele>
        <time>2022-09-18T00:14:41Z</time>
      </trkpt>
      <trkpt lat="44.1273" lon="6.69388">
        <ele>2043.1</ele>
        <time>2022-09-18T00:14:42Z</time>
      </trkpt>
      <trkpt lat="44.12727" lon="6.69391">
        <ele>2043.3</ele>
        <time>2022-09-18T00:14:44Z</time>
      </trkpt>
      <trkpt lat="44.12726" lon="6.69393">
        <ele>2043.3</ele>
        <time>2022-09-18T00:14:45Z</time>
      </trkpt>
      <trkpt lat="44.12725" lon="6.69394">
        <ele>2043.4</ele>
        <time>2022-09-18T00:14:46Z</time>
      </trkpt>
      <trkpt lat="44.12722" lon="6.69402">
        <ele>2043.6</ele>
        <time>2022-09-18T00:14:47Z</time>
      </trkpt>
      <trkpt lat="44.1272" lon="6.69407">
        <ele>2043.8</ele>
        <time>2022-09-18T00:14:49Z</time>
      </trkpt>
      <trkpt lat="44.12717" lon="6.69412">
        <ele>2043.8</ele>
        <time>2022-09-18T00:14:50Z</time>
      </trkpt>
      <trkpt lat="44.12712" lon="6.69417">
        <ele>2043.8</ele>
        <time>2022-09-18T00:14:51Z</time>
      </trkpt>
      <trkpt lat="44.12708" lon="6.69422">
        <ele>2043.8</ele>
        <time>2022-09-18T00:14:52Z</time>
      </trkpt>
      <trkpt lat="44.12704" lon="6.69427">
        <ele>2043.7</ele>
        <time>2022-09-18T00:14:53Z</time>
      </trkpt>
      <trkpt lat="44.12701" lon="6.6943">
        <ele>2043.6</ele>
        <time>2022-09-18T00:14:54Z</time>
      </trkpt>
      <trkpt lat="44.12698" lon="6.69431">
        <ele>2043.6</ele>
        <time>2022-09-18T00:14:55Z</time>
      </trkpt>
      <trkpt lat="44.12696" lon="6.69432">
        <ele>2043.6</ele>
        <time>2022-09-18T00:14:56Z</time>
      </trkpt>
      <trkpt lat="44.12693" lon="6.69435">
        <ele>2043.7</ele>
        <time>2022-09-18T00:14:57Z</time>
      </trkpt>
      <trkpt lat="44.1269" lon="6.69439">
        <ele>2043.8</ele>
        <time>2022-09-18T00:14:58Z</time>
      </trkpt>
      <trkpt lat="44.12686" lon="6.69443">
        <ele>2044</ele>
        <time>2022-09-18T00:14:59Z</time>
      </trkpt>
      <trkpt lat="44.12679" lon="6.69449">
        <ele>2044.2</ele>
        <time>2022-09-18T00:15:01Z</time>
      </trkpt>
      <trkpt lat="44.12676" lon="6.69452">
        <ele>2044.4</ele>
        <time>2022-09-18T00:15:02Z</time>
      </trkpt>
      <trkpt lat="44.12671" lon="6.69456">
        <ele>2044.5</ele>
        <time>2022-09-18T00:15:03Z</time>
      </trkpt>
      <trkpt lat="44.12668" lon="6.69457">
        <ele>2044.6</ele>
        <time>2022-09-18T00:15:04Z</time>
      </trkpt>
      <trkpt lat="44.12664" lon="6.69459">
        <ele>2044.7</ele>
        <time>2022-09-18T00:15:05Z</time>
      </trkpt>
      <trkpt lat="44.12657" lon="6.69459">
        <ele>2044.7</ele>
        <time>2022-09-18T00:15:07Z</time>
      </trkpt>
      <trkpt lat="44.12653" lon="6.69461">
        <ele>2044.7</ele>
        <time>2022-09-18T00:15:08Z</time>
      </trkpt>
      <trkpt lat="44.1265" lon="6.69462">
        <ele>2044.7</ele>
        <time>2022-09-18T00:15:09Z</time>
      </trkpt>
      <trkpt lat="44.12647" lon="6.69466">
        <ele>2044.7</ele>
        <time>2022-09-18T00:15:10Z</time>
      </trkpt>
      <trkpt lat="44.12643" lon="6.69469">
        <ele>2044.6</ele>
        <time>2022-09-18T00:15:11Z</time>
      </trkpt>
      <trkpt lat="44.12639" lon="6.69472">
        <ele>2044.5</ele>
        <time>2022-09-18T00:15:12Z</time>
      </trkpt>
      <trkpt lat="44.12636" lon="6.69472">
        <ele>2044.5</ele>
        <time>2022-09-18T00:15:13Z</time>
      </trkpt>
      <trkpt lat="44.12631" lon="6.69475">
        <ele>2044.3</ele>
        <time>2022-09-18T00:15:14Z</time>
      </trkpt>
      <trkpt lat="44.12625" lon="6.69477">
        <ele>2044.2</ele>
        <time>2022-09-18T00:15:15Z</time>
      </trkpt>
      <trkpt lat="44.1262" lon="6.69477">
        <ele>2044.1</ele>
        <time>2022-09-18T00:15:16Z</time>
      </trkpt>
      <trkpt lat="44.12614" lon="6.69478">
        <ele>2043.9</ele>
        <time>2022-09-18T00:15:18Z</time>
      </trkpt>
      <trkpt lat="44.1261" lon="6.69479">
        <ele>2043.9</ele>
        <time>2022-09-18T00:15:19Z</time>
      </trkpt>
      <trkpt lat="44.12606" lon="6.69481">
        <ele>2043.7</ele>
        <time>2022-09-18T00:15:20Z</time>
      </trkpt>
      <trkpt lat="44.12603" lon="6.69482">
        <ele>2043.7</ele>
        <time>2022-09-18T00:15:21Z</time>
      </trkpt>
      <trkpt lat="44.12598" lon="6.69485">
        <ele>2043.5</ele>
        <time>2022-09-18T00:15:22Z</time>
      </trkpt>
      <trkpt lat="44.12594" lon="6.69488">
        <ele>2043.5</ele>
        <time>2022-09-18T00:15:24Z</time>
      </trkpt>
      <trkpt lat="44.12589" lon="6.69492">
        <ele>2043.4</ele>
        <time>2022-09-18T00:15:25Z</time>
      </trkpt>
      <trkpt lat="44.12584" lon="6.69495">
        <ele>2043.3</ele>
        <time>2022-09-18T00:15:26Z</time>
      </trkpt>
      <trkpt lat="44.12579" lon="6.69498">
        <ele>2043.2</ele>
        <time>2022-09-18T00:15:27Z</time>
      </trkpt>
      <trkpt lat="44.12575" lon="6.695">
        <ele>2043.2</ele>
        <time>2022-09-18T00:15:28Z</time>
      </trkpt>
      <trkpt lat="44.12571" lon="6.69503">
        <ele>2043.2</ele>
        <time>2022-09-18T00:15:29Z</time>
      </trkpt>
      <trkpt lat="44.12568" lon="6.69505">
        <ele>2043.2</ele>
        <time>2022-09-18T00:15:30Z</time>
      </trkpt>
      <trkpt lat="44.12567" lon="6.69505">
        <ele>2043.2</ele>
        <time>2022-09-18T00:15:31Z</time>
      </trkpt>
      <trkpt lat="44.12563" lon="6.69509">
        <ele>2043.2</ele>
        <time>2022-09-18T00:15:32Z</time>
      </trkpt>
      <trkpt lat="44.12559" lon="6.69514">
        <ele>2043.3</ele>
        <time>2022-09-18T00:15:33Z</time>
      </trkpt>
      <trkpt lat="44.12552" lon="6.69518">
        <ele>2043.4</ele>
        <time>2022-09-18T00:15:34Z</time>
      </trkpt>
      <trkpt lat="44.12548" lon="6.69519">
        <ele>2043.5</ele>
        <time>2022-09-18T00:15:35Z</time>
      </trkpt>
      <trkpt lat="44.12543" lon="6.69519">
        <ele>2043.6</ele>
        <time>2022-09-18T00:15:36Z</time>
      </trkpt>
      <trkpt lat="44.12536" lon="6.69518">
        <ele>2043.8</ele>
        <time>2022-09-18T00:15:38Z</time>
      </trkpt>
      <trkpt lat="44.12532" lon="6.69518">
        <ele>2043.9</ele>
        <time>2022-09-18T00:15:39Z</time>
      </trkpt>
      <trkpt lat="44.12525" lon="6.69518">
        <ele>2044.1</ele>
        <time>2022-09-18T00:15:40Z</time>
      </trkpt>
      <trkpt lat="44.1252" lon="6.69519">
        <ele>2044.3</ele>
        <time>2022-09-18T00:15:42Z</time>
      </trkpt>
      <trkpt lat="44.12517" lon="6.69519">
        <ele>2044.4</ele>
        <time>2022-09-18T00:15:43Z</time>
      </trkpt>
      <trkpt lat="44.12513" lon="6.69519">
        <ele>2044.5</ele>
        <time>2022-09-18T00:15:44Z</time>
      </trkpt>
      <trkpt lat="44.12509" lon="6.69519">
        <ele>2044.6</ele>
        <time>2022-09-18T00:15:45Z</time>
      </trkpt>
      <trkpt lat="44.12505" lon="6.6952">
        <ele>2044.8</ele>
        <time>2022-09-18T00:15:46Z</time>
      </trkpt>
      <trkpt lat="44.12499" lon="6.69521">
        <ele>2045</ele>
        <time>2022-09-18T00:15:47Z</time>
      </trkpt>
      <trkpt lat="44.12495" lon="6.69523">
        <ele>2045.2</ele>
        <time>2022-09-18T00:15:48Z</time>
      </trkpt>
      <trkpt lat="44.12492" lon="6.69527">
        <ele>2045.4</ele>
        <time>2022-09-18T00:15:49Z</time>
      </trkpt>
      <trkpt lat="44.12487" lon="6.69529">
        <ele>2045.6</ele>
        <time>2022-09-18T00:15:50Z</time>
      </trkpt>
      <trkpt lat="44.12484" lon="6.6953">
        <ele>2045.8</ele>
        <time>2022-09-18T00:15:51Z</time>
      </trkpt>
      <trkpt lat="44.12477" lon="6.69535">
        <ele>2046.1</ele>
        <time>2022-09-18T00:15:52Z</time>
      </trkpt>
      <trkpt lat="44.12473" lon="6.69537">
        <ele>2046.3</ele>
        <time>2022-09-18T00:15:54Z</time>
      </trkpt>
      <trkpt lat="44.1247" lon="6.69539">
        <ele>2046.4</ele>
        <time>2022-09-18T00:15:55Z</time>
      </trkpt>
      <trkpt lat="44.12466" lon="6.69539">
        <ele>2046.6</ele>
        <time>2022-09-18T00:15:56Z</time>
      </trkpt>
      <trkpt lat="44.12462" lon="6.69539">
        <ele>2046.8</ele>
        <time>2022-09-18T00:15:57Z</time>
      </trkpt>
      <trkpt lat="44.12456" lon="6.69542">
        <ele>2047</ele>
        <time>2022-09-18T00:15:58Z</time>
      </trkpt>
      <trkpt lat="44.12452" lon="6.69544">
        <ele>2047.2</ele>
        <time>2022-09-18T00:15:59Z</time>
      </trkpt>
      <trkpt lat="44.1245" lon="6.69547">
        <ele>2047.3</ele>
        <time>2022-09-18T00:16:00Z</time>
      </trkpt>
      <trkpt lat="44.12445" lon="6.69551">
        <ele>2047.6</ele>
        <time>2022-09-18T00:16:01Z</time>
      </trkpt>
      <trkpt lat="44.12439" lon="6.69558">
        <ele>2048</ele>
        <time>2022-09-18T00:16:02Z</time>
      </trkpt>
      <trkpt lat="44.12435" lon="6.69562">
        <ele>2048.2</ele>
        <time>2022-09-18T00:16:04Z</time>
      </trkpt>
      <trkpt lat="44.12431" lon="6.69565">
        <ele>2048.4</ele>
        <time>2022-09-18T00:16:05Z</time>
      </trkpt>
      <trkpt lat="44.12427" lon="6.69568">
        <ele>2048.7</ele>
        <time>2022-09-18T00:16:06Z</time>
      </trkpt>
      <trkpt lat="44.1242" lon="6.69571">
        <ele>2049</ele>
        <time>2022-09-18T00:16:07Z</time>
      </trkpt>
      <trkpt lat="44.12415" lon="6.69576">
        <ele>2049.2</ele>
        <time>2022-09-18T00:16:09Z</time>
      </trkpt>
      <trkpt lat="44.12411" lon="6.69578">
        <ele>2049.4</ele>
        <time>2022-09-18T00:16:10Z</time>
      </trkpt>
      <trkpt lat="44.12407" lon="6.6958">
        <ele>2049.6</ele>
        <time>2022-09-18T00:16:11Z</time>
      </trkpt>
      <trkpt lat="44.12403" lon="6.69583">
        <ele>2049.8</ele>
        <time>2022-09-18T00:16:12Z</time>
      </trkpt>
      <trkpt lat="44.12399" lon="6.69587">
        <ele>2050</ele>
        <time>2022-09-18T00:16:13Z</time>
      </trkpt>
      <trkpt lat="44.12394" lon="6.69591">
        <ele>2050.3</ele>
        <time>2022-09-18T00:16:14Z</time>
      </trkpt>
      <trkpt lat="44.12389" lon="6.69595">
        <ele>2050.6</ele>
        <time>2022-09-18T00:16:16Z</time>
      </trkpt>
      <trkpt lat="44.12385" lon="6.69599">
        <ele>2050.9</ele>
        <time>2022-09-18T00:16:17Z</time>
      </trkpt>
      <trkpt lat="44.12381" lon="6.69603">
        <ele>2051.2</ele>
        <time>2022-09-18T00:16:18Z</time>
      </trkpt>
      <trkpt lat="44.12377" lon="6.69605">
        <ele>2051.2</ele>
        <time>2022-09-18T00:16:19Z</time>
      </trkpt>
      <trkpt lat="44.12372" lon="6.69605">
        <ele>2051.5</ele>
        <time>2022-09-18T00:16:20Z</time>
      </trkpt>
      <trkpt lat="44.12369" lon="6.69604">
        <ele>2051.8</ele>
        <time>2022-09-18T00:16:21Z</time>
      </trkpt>
      <trkpt lat="44.12364" lon="6.69602">
        <ele>2052</ele>
        <time>2022-09-18T00:16:22Z</time>
      </trkpt>
      <trkpt lat="44.12359" lon="6.69603">
        <ele>2052.3</ele>
        <time>2022-09-18T00:16:24Z</time>
      </trkpt>
      <trkpt lat="44.12353" lon="6.69603">
        <ele>2052.5</ele>
        <time>2022-09-18T00:16:25Z</time>
      </trkpt>
      <trkpt lat="44.12348" lon="6.69601">
        <ele>2052.7</ele>
        <time>2022-09-18T00:16:26Z</time>
      </trkpt>
      <trkpt lat="44.1234" lon="6.69597">
        <ele>2053</ele>
        <time>2022-09-18T00:16:28Z</time>
      </trkpt>
      <trkpt lat="44.12336" lon="6.69596">
        <ele>2053.2</ele>
        <time>2022-09-18T00:16:29Z</time>
      </trkpt>
      <trkpt lat="44.12331" lon="6.69596">
        <ele>2053.3</ele>
        <time>2022-09-18T00:16:30Z</time>
      </trkpt>
      <trkpt lat="44.12329" lon="6.69597">
        <ele>2053.5</ele>
        <time>2022-09-18T00:16:31Z</time>
      </trkpt>
      <trkpt lat="44.12324" lon="6.69599">
        <ele>2053.7</ele>
        <time>2022-09-18T00:16:32Z</time>
      </trkpt>
      <trkpt lat="44.12319" lon="6.69602">
        <ele>2053.9</ele>
        <time>2022-09-18T00:16:33Z</time>
      </trkpt>
      <trkpt lat="44.12316" lon="6.69605">
        <ele>2054</ele>
        <time>2022-09-18T00:16:34Z</time>
      </trkpt>
      <trkpt lat="44.12311" lon="6.6961">
        <ele>2054.2</ele>
        <time>2022-09-18T00:16:35Z</time>
      </trkpt>
      <trkpt lat="44.12308" lon="6.69614">
        <ele>2054.3</ele>
        <time>2022-09-18T00:16:36Z</time>
      </trkpt>
      <trkpt lat="44.12304" lon="6.69622">
        <ele>2054.4</ele>
        <time>2022-09-18T00:16:38Z</time>
      </trkpt>
      <trkpt lat="44.12296" lon="6.69627">
        <ele>2054.5</ele>
        <time>2022-09-18T00:16:39Z</time>
      </trkpt>
      <trkpt lat="44.12291" lon="6.69629">
        <ele>2054.6</ele>
        <time>2022-09-18T00:16:41Z</time>
      </trkpt>
      <trkpt lat="44.12285" lon="6.6963">
        <ele>2054.7</ele>
        <time>2022-09-18T00:16:43Z</time>
      </trkpt>
      <trkpt lat="44.12279" lon="6.69634">
        <ele>2054.9</ele>
        <time>2022-09-18T00:16:44Z</time>
      </trkpt>
      <trkpt lat="44.12274" lon="6.69636">
        <ele>2055.1</ele>
        <time>2022-09-18T00:16:46Z</time>
      </trkpt>
      <trkpt lat="44.1227" lon="6.69637">
        <ele>2055.3</ele>
        <time>2022-09-18T00:16:47Z</time>
      </trkpt>
      <trkpt lat="44.12266" lon="6.69637">
        <ele>2055.5</ele>
        <time>2022-09-18T00:16:48Z</time>
      </trkpt>
      <trkpt lat="44.12263" lon="6.6964">
        <ele>2055.7</ele>
        <time>2022-09-18T00:16:49Z</time>
      </trkpt>
      <trkpt lat="44.12259" lon="6.69641">
        <ele>2055.9</ele>
        <time>2022-09-18T00:16:50Z</time>
      </trkpt>
      <trkpt lat="44.12252" lon="6.69643">
        <ele>2056.2</ele>
        <time>2022-09-18T00:16:51Z</time>
      </trkpt>
      <trkpt lat="44.12248" lon="6.69643">
        <ele>2056.3</ele>
        <time>2022-09-18T00:16:52Z</time>
      </trkpt>
      <trkpt lat="44.12244" lon="6.69643">
        <ele>2056.5</ele>
        <time>2022-09-18T00:16:53Z</time>
      </trkpt>
      <trkpt lat="44.1224" lon="6.69644">
        <ele>2056.7</ele>
        <time>2022-09-18T00:16:55Z</time>
      </trkpt>
      <trkpt lat="44.12236" lon="6.69645">
        <ele>2056.8</ele>
        <time>2022-09-18T00:16:56Z</time>
      </trkpt>
      <trkpt lat="44.12233" lon="6.69647">
        <ele>2057</ele>
        <time>2022-09-18T00:16:57Z</time>
      </trkpt>
      <trkpt lat="44.12228" lon="6.69648">
        <ele>2057.3</ele>
        <time>2022-09-18T00:16:58Z</time>
      </trkpt>
      <trkpt lat="44.12224" lon="6.69649">
        <ele>2057.5</ele>
        <time>2022-09-18T00:16:59Z</time>
      </trkpt>
      <trkpt lat="44.12219" lon="6.69651">
        <ele>2057.7</ele>
        <time>2022-09-18T00:17:00Z</time>
      </trkpt>
      <trkpt lat="44.12215" lon="6.69655">
        <ele>2057.9</ele>
        <time>2022-09-18T00:17:02Z</time>
      </trkpt>
      <trkpt lat="44.12212" lon="6.69658">
        <ele>2058.1</ele>
        <time>2022-09-18T00:17:03Z</time>
      </trkpt>
      <trkpt lat="44.12209" lon="6.69661">
        <ele>2058.3</ele>
        <time>2022-09-18T00:17:04Z</time>
      </trkpt>
      <trkpt lat="44.12205" lon="6.69662">
        <ele>2058.4</ele>
        <time>2022-09-18T00:17:06Z</time>
      </trkpt>
      <trkpt lat="44.12199" lon="6.6966">
        <ele>2058.7</ele>
        <time>2022-09-18T00:17:07Z</time>
      </trkpt>
      <trkpt lat="44.12196" lon="6.69661">
        <ele>2058.8</ele>
        <time>2022-09-18T00:17:08Z</time>
      </trkpt>
      <trkpt lat="44.12194" lon="6.69662">
        <ele>2058.9</ele>
        <time>2022-09-18T00:17:09Z</time>
      </trkpt>
      <trkpt lat="44.12189" lon="6.69661">
        <ele>2059.1</ele>
        <time>2022-09-18T00:17:11Z</time>
      </trkpt>
      <trkpt lat="44.12185" lon="6.69659">
        <ele>2059.2</ele>
        <time>2022-09-18T00:17:12Z</time>
      </trkpt>
      <trkpt lat="44.12179" lon="6.6966">
        <ele>2059.5</ele>
        <time>2022-09-18T00:17:13Z</time>
      </trkpt>
      <trkpt lat="44.12176" lon="6.69663">
        <ele>2059.6</ele>
        <time>2022-09-18T00:17:14Z</time>
      </trkpt>
      <trkpt lat="44.12174" lon="6.69666">
        <ele>2059.8</ele>
        <time>2022-09-18T00:17:15Z</time>
      </trkpt>
      <trkpt lat="44.12172" lon="6.69671">
        <ele>2060</ele>
        <time>2022-09-18T00:17:17Z</time>
      </trkpt>
      <trkpt lat="44.12171" lon="6.69672">
        <ele>2060</ele>
        <time>2022-09-18T00:17:18Z</time>
      </trkpt>
      <trkpt lat="44.1217" lon="6.69673">
        <ele>2060.1</ele>
        <time>2022-09-18T00:17:19Z</time>
      </trkpt>
      <trkpt lat="44.12167" lon="6.69675">
        <ele>2060.3</ele>
        <time>2022-09-18T00:17:20Z</time>
      </trkpt>
      <trkpt lat="44.12166" lon="6.69676">
        <ele>2060.4</ele>
        <time>2022-09-18T00:17:21Z</time>
      </trkpt>
      <trkpt lat="44.12164" lon="6.69677">
        <ele>2060.6</ele>
        <time>2022-09-18T00:17:22Z</time>
      </trkpt>
      <trkpt lat="44.12162" lon="6.69677">
        <ele>2060.7</ele>
        <time>2022-09-18T00:17:24Z</time>
      </trkpt>
      <trkpt lat="44.12158" lon="6.6968">
        <ele>2060.9</ele>
        <time>2022-09-18T00:17:25Z</time>
      </trkpt>
      <trkpt lat="44.12154" lon="6.69684">
        <ele>2061.3</ele>
        <time>2022-09-18T00:17:27Z</time>
      </trkpt>
      <trkpt lat="44.12152" lon="6.69686">
        <ele>2061.4</ele>
        <time>2022-09-18T00:17:28Z</time>
      </trkpt>
      <trkpt lat="44.12149" lon="6.69689">
        <ele>2061.6</ele>
        <time>2022-09-18T00:17:29Z</time>
      </trkpt>
      <trkpt lat="44.12146" lon="6.69692">
        <ele>2061.8</ele>
        <time>2022-09-18T00:17:30Z</time>
      </trkpt>
      <trkpt lat="44.12143" lon="6.69695">
        <ele>2062</ele>
        <time>2022-09-18T00:17:31Z</time>
      </trkpt>
      <trkpt lat="44.12139" lon="6.697">
        <ele>2062.3</ele>
        <time>2022-09-18T00:17:33Z</time>
      </trkpt>
      <trkpt lat="44.12138" lon="6.69701">
        <ele>2062.4</ele>
        <time>2022-09-18T00:17:34Z</time>
      </trkpt>
      <trkpt lat="44.12136" lon="6.69703">
        <ele>2062.6</ele>
        <time>2022-09-18T00:17:35Z</time>
      </trkpt>
      <trkpt lat="44.12134" lon="6.69705">
        <ele>2062.8</ele>
        <time>2022-09-18T00:17:36Z</time>
      </trkpt>
      <trkpt lat="44.12131" lon="6.69709">
        <ele>2063.1</ele>
        <time>2022-09-18T00:17:38Z</time>
      </trkpt>
      <trkpt lat="44.12129" lon="6.69712">
        <ele>2063.5</ele>
        <time>2022-09-18T00:17:39Z</time>
      </trkpt>
      <trkpt lat="44.12126" lon="6.69717">
        <ele>2064</ele>
        <time>2022-09-18T00:17:40Z</time>
      </trkpt>
      <trkpt lat="44.12124" lon="6.69723">
        <ele>2064.6</ele>
        <time>2022-09-18T00:17:42Z</time>
      </trkpt>
      <trkpt lat="44.12125" lon="6.69726">
        <ele>2064.9</ele>
        <time>2022-09-18T00:17:43Z</time>
      </trkpt>
      <trkpt lat="44.12125" lon="6.69728">
        <ele>2065.2</ele>
        <time>2022-09-18T00:17:44Z</time>
      </trkpt>
      <trkpt lat="44.12125" lon="6.69732">
        <ele>2065.6</ele>
        <time>2022-09-18T00:17:45Z</time>
      </trkpt>
      <trkpt lat="44.12127" lon="6.69738">
        <ele>2066.3</ele>
        <time>2022-09-18T00:17:46Z</time>
      </trkpt>
      <trkpt lat="44.12127" lon="6.69743">
        <ele>2067</ele>
        <time>2022-09-18T00:17:47Z</time>
      </trkpt>
      <trkpt lat="44.12127" lon="6.69745">
        <ele>2067.3</ele>
        <time>2022-09-18T00:17:48Z</time>
      </trkpt>
      <trkpt lat="44.12126" lon="6.69752">
        <ele>2068.2</ele>
        <time>2022-09-18T00:17:50Z</time>
      </trkpt>
      <trkpt lat="44.12125" lon="6.69754">
        <ele>2068.6</ele>
        <time>2022-09-18T00:17:51Z</time>
      </trkpt>
      <trkpt lat="44.12124" lon="6.69757">
        <ele>2069</ele>
        <time>2022-09-18T00:17:52Z</time>
      </trkpt>
      <trkpt lat="44.12123" lon="6.6976">
        <ele>2069.6</ele>
        <time>2022-09-18T00:17:53Z</time>
      </trkpt>
      <trkpt lat="44.1212" lon="6.69763">
        <ele>2070.3</ele>
        <time>2022-09-18T00:17:54Z</time>
      </trkpt>
      <trkpt lat="44.1212" lon="6.69764">
        <ele>2070.5</ele>
        <time>2022-09-18T00:17:55Z</time>
      </trkpt>
      <trkpt lat="44.12118" lon="6.69767">
        <ele>2071</ele>
        <time>2022-09-18T00:17:56Z</time>
      </trkpt>
      <trkpt lat="44.12117" lon="6.69769">
        <ele>2071.5</ele>
        <time>2022-09-18T00:17:58Z</time>
      </trkpt>
      <trkpt lat="44.12115" lon="6.69771">
        <ele>2072.2</ele>
        <time>2022-09-18T00:17:59Z</time>
      </trkpt>
      <trkpt lat="44.12114" lon="6.69772">
        <ele>2072.5</ele>
        <time>2022-09-18T00:18:00Z</time>
      </trkpt>
      <trkpt lat="44.12112" lon="6.69774">
        <ele>2073</ele>
        <time>2022-09-18T00:18:01Z</time>
      </trkpt>
      <trkpt lat="44.12111" lon="6.69774">
        <ele>2073.4</ele>
        <time>2022-09-18T00:18:02Z</time>
      </trkpt>
      <trkpt lat="44.12108" lon="6.69778">
        <ele>2074.3</ele>
        <time>2022-09-18T00:18:03Z</time>
      </trkpt>
      <trkpt lat="44.12107" lon="6.69779">
        <ele>2074.6</ele>
        <time>2022-09-18T00:18:04Z</time>
      </trkpt>
      <trkpt lat="44.12105" lon="6.69782">
        <ele>2075.4</ele>
        <time>2022-09-18T00:18:05Z</time>
      </trkpt>
      <trkpt lat="44.12104" lon="6.69783">
        <ele>2075.4</ele>
        <time>2022-09-18T00:18:06Z</time>
      </trkpt>
      <trkpt lat="44.121" lon="6.69786">
        <ele>2075.4</ele>
        <time>2022-09-18T00:18:07Z</time>
      </trkpt>
      <trkpt lat="44.12098" lon="6.69788">
        <ele>2075.2</ele>
        <time>2022-09-18T00:18:08Z</time>
      </trkpt>
      <trkpt lat="44.12095" lon="6.69791">
        <ele>2078.2</ele>
        <time>2022-09-18T00:18:10Z</time>
      </trkpt>
      <trkpt lat="44.12094" lon="6.69792">
        <ele>2078.2</ele>
        <time>2022-09-18T00:18:11Z</time>
      </trkpt>
      <trkpt lat="44.12091" lon="6.69797">
        <ele>2078.2</ele>
        <time>2022-09-18T00:18:12Z</time>
      </trkpt>
      <trkpt lat="44.1209" lon="6.69799">
        <ele>2078.3</ele>
        <time>2022-09-18T00:18:13Z</time>
      </trkpt>
      <trkpt lat="44.12089" lon="6.69804">
        <ele>2078.3</ele>
        <time>2022-09-18T00:18:15Z</time>
      </trkpt>
      <trkpt lat="44.12088" lon="6.69805">
        <ele>2078.3</ele>
        <time>2022-09-18T00:18:17Z</time>
      </trkpt>
      <trkpt lat="44.12087" lon="6.69807">
        <ele>2082.1</ele>
        <time>2022-09-18T00:18:18Z</time>
      </trkpt>
      <trkpt lat="44.12084" lon="6.69811">
        <ele>2082.1</ele>
        <time>2022-09-18T00:18:19Z</time>
      </trkpt>
      <trkpt lat="44.12083" lon="6.69812">
        <ele>2082.1</ele>
        <time>2022-09-18T00:18:20Z</time>
      </trkpt>
      <trkpt lat="44.12081" lon="6.69814">
        <ele>2082.1</ele>
        <time>2022-09-18T00:18:22Z</time>
      </trkpt>
      <trkpt lat="44.12077" lon="6.69816">
        <ele>2082.1</ele>
        <time>2022-09-18T00:18:23Z</time>
      </trkpt>
      <trkpt lat="44.12074" lon="6.6982">
        <ele>2082.5</ele>
        <time>2022-09-18T00:18:24Z</time>
      </trkpt>
      <trkpt lat="44.12073" lon="6.69821">
        <ele>2082.5</ele>
        <time>2022-09-18T00:18:25Z</time>
      </trkpt>
      <trkpt lat="44.12072" lon="6.69822">
        <ele>2082.5</ele>
        <time>2022-09-18T00:18:26Z</time>
      </trkpt>
      <trkpt lat="44.12069" lon="6.69824">
        <ele>2086.1</ele>
        <time>2022-09-18T00:18:28Z</time>
      </trkpt>
      <trkpt lat="44.12066" lon="6.69826">
        <ele>2086.2</ele>
        <time>2022-09-18T00:18:29Z</time>
      </trkpt>
      <trkpt lat="44.12066" lon="6.69827">
        <ele>2086.2</ele>
        <time>2022-09-18T00:18:30Z</time>
      </trkpt>
      <trkpt lat="44.12066" lon="6.69827">
        <ele>2086.2</ele>
        <time>2022-09-18T00:18:32Z</time>
      </trkpt>
      <trkpt lat="44.12066" lon="6.69827">
        <ele>2086.2</ele>
        <time>2022-09-18T00:18:33Z</time>
      </trkpt>
      <trkpt lat="44.12066" lon="6.69827">
        <ele>2086.2</ele>
        <time>2022-09-18T00:18:34Z</time>
      </trkpt>
      <trkpt lat="44.12066" lon="6.69828">
        <ele>2086.2</ele>
        <time>2022-09-18T00:18:35Z</time>
      </trkpt>
      <trkpt lat="44.12067" lon="6.69828">
        <ele>2086.2</ele>
        <time>2022-09-18T00:18:36Z</time>
      </trkpt>
      <trkpt lat="44.12067" lon="6.69828">
        <ele>2086.3</ele>
        <time>2022-09-18T00:18:37Z</time>
      </trkpt>
      <trkpt lat="44.12068" lon="6.69829">
        <ele>2086.3</ele>
        <time>2022-09-18T00:18:39Z</time>
      </trkpt>
      <trkpt lat="44.12069" lon="6.69829">
        <ele>2086.3</ele>
        <time>2022-09-18T00:18:40Z</time>
      </trkpt>
      <trkpt lat="44.12069" lon="6.6983">
        <ele>2086.3</ele>
        <time>2022-09-18T00:18:41Z</time>
      </trkpt>
      <trkpt lat="44.1207" lon="6.69831">
        <ele>2086.3</ele>
        <time>2022-09-18T00:18:43Z</time>
      </trkpt>
      <trkpt lat="44.12072" lon="6.69832">
        <ele>2086.3</ele>
        <time>2022-09-18T00:18:44Z</time>
      </trkpt>
      <trkpt lat="44.12075" lon="6.69829">
        <ele>2086.2</ele>
        <time>2022-09-18T00:18:45Z</time>
      </trkpt>
      <trkpt lat="44.12077" lon="6.69828">
        <ele>2086.2</ele>
        <time>2022-09-18T00:18:46Z</time>
      </trkpt>
      <trkpt lat="44.1208" lon="6.69827">
        <ele>2086.3</ele>
        <time>2022-09-18T00:18:47Z</time>
      </trkpt>
      <trkpt lat="44.12083" lon="6.69826">
        <ele>2086.3</ele>
        <time>2022-09-18T00:18:48Z</time>
      </trkpt>
      <trkpt lat="44.12086" lon="6.69826">
        <ele>2086.3</ele>
        <time>2022-09-18T00:18:49Z</time>
      </trkpt>
      <trkpt lat="44.12089" lon="6.69825">
        <ele>2086.5</ele>
        <time>2022-09-18T00:18:51Z</time>
      </trkpt>
      <trkpt lat="44.12093" lon="6.69826">
        <ele>2086.5</ele>
        <time>2022-09-18T00:18:52Z</time>
      </trkpt>
      <trkpt lat="44.12094" lon="6.69826">
        <ele>2086.6</ele>
        <time>2022-09-18T00:18:53Z</time>
      </trkpt>
      <trkpt lat="44.12096" lon="6.69826">
        <ele>2086.6</ele>
        <time>2022-09-18T00:18:54Z</time>
      </trkpt>
      <trkpt lat="44.12097" lon="6.69827">
        <ele>2086.6</ele>
        <time>2022-09-18T00:18:55Z</time>
      </trkpt>
      <trkpt lat="44.12098" lon="6.69827">
        <ele>2086.6</ele>
        <time>2022-09-18T00:18:56Z</time>
      </trkpt>
      <trkpt lat="44.12101" lon="6.69829">
        <ele>2087.1</ele>
        <time>2022-09-18T00:18:58Z</time>
      </trkpt>
      <trkpt lat="44.12102" lon="6.6983">
        <ele>2087.1</ele>
        <time>2022-09-18T00:18:59Z</time>
      </trkpt>
      <trkpt lat="44.12103" lon="6.69832">
        <ele>2087.1</ele>
        <time>2022-09-18T00:19:00Z</time>
      </trkpt>
      <trkpt lat="44.12104" lon="6.69834">
        <ele>2087.2</ele>
        <time>2022-09-18T00:19:01Z</time>
      </trkpt>
      <trkpt lat="44.12104" lon="6.69838">
        <ele>2087.2</ele>
        <time>2022-09-18T00:19:03Z</time>
      </trkpt>
      <trkpt lat="44.12104" lon="6.69839">
        <ele>2087.2</ele>
        <time>2022-09-18T00:19:04Z</time>
      </trkpt>
      <trkpt lat="44.12103" lon="6.69841">
        <ele>2091.6</ele>
        <time>2022-09-18T00:19:05Z</time>
      </trkpt>
      <trkpt lat="44.12103" lon="6.69843">
        <ele>2091.6</ele>
        <time>2022-09-18T00:19:06Z</time>
      </trkpt>
      <trkpt lat="44.12102" lon="6.69844">
        <ele>2091.6</ele>
        <time>2022-09-18T00:19:07Z</time>
      </trkpt>
      <trkpt lat="44.121" lon="6.69846">
        <ele>2091.7</ele>
        <time>2022-09-18T00:19:09Z</time>
      </trkpt>
      <trkpt lat="44.12098" lon="6.69849">
        <ele>2091.2</ele>
        <time>2022-09-18T00:19:10Z</time>
      </trkpt>
      <trkpt lat="44.12097" lon="6.6985">
        <ele>2091.2</ele>
        <time>2022-09-18T00:19:11Z</time>
      </trkpt>
      <trkpt lat="44.12096" lon="6.69851">
        <ele>2091.2</ele>
        <time>2022-09-18T00:19:12Z</time>
      </trkpt>
      <trkpt lat="44.12095" lon="6.69853">
        <ele>2091.3</ele>
        <time>2022-09-18T00:19:13Z</time>
      </trkpt>
      <trkpt lat="44.12091" lon="6.69855">
        <ele>2091.3</ele>
        <time>2022-09-18T00:19:14Z</time>
      </trkpt>
      <trkpt lat="44.12089" lon="6.69856">
        <ele>2091.3</ele>
        <time>2022-09-18T00:19:15Z</time>
      </trkpt>
      <trkpt lat="44.12087" lon="6.69858">
        <ele>2095.5</ele>
        <time>2022-09-18T00:19:16Z</time>
      </trkpt>
      <trkpt lat="44.12086" lon="6.69859">
        <ele>2095.6</ele>
        <time>2022-09-18T00:19:17Z</time>
      </trkpt>
      <trkpt lat="44.12084" lon="6.69862">
        <ele>2095.6</ele>
        <time>2022-09-18T00:19:18Z</time>
      </trkpt>
      <trkpt lat="44.12083" lon="6.69863">
        <ele>2095.6</ele>
        <time>2022-09-18T00:19:19Z</time>
      </trkpt>
      <trkpt lat="44.12081" lon="6.69864">
        <ele>2095.6</ele>
        <time>2022-09-18T00:19:20Z</time>
      </trkpt>
      <trkpt lat="44.1208" lon="6.69866">
        <ele>2095.6</ele>
        <time>2022-09-18T00:19:21Z</time>
      </trkpt>
      <trkpt lat="44.12077" lon="6.6987">
        <ele>2095.6</ele>
        <time>2022-09-18T00:19:23Z</time>
      </trkpt>
      <trkpt lat="44.12076" lon="6.69872">
        <ele>2095.7</ele>
        <time>2022-09-18T00:19:24Z</time>
      </trkpt>
      <trkpt lat="44.12075" lon="6.69874">
        <ele>2095.7</ele>
        <time>2022-09-18T00:19:25Z</time>
      </trkpt>
      <trkpt lat="44.12073" lon="6.69875">
        <ele>2099.7</ele>
        <time>2022-09-18T00:19:26Z</time>
      </trkpt>
      <trkpt lat="44.1207" lon="6.6988">
        <ele>2099.7</ele>
        <time>2022-09-18T00:19:29Z</time>
      </trkpt>
      <trkpt lat="44.12068" lon="6.69883">
        <ele>2099.7</ele>
        <time>2022-09-18T00:19:30Z</time>
      </trkpt>
      <trkpt lat="44.12066" lon="6.69887">
        <ele>2099.8</ele>
        <time>2022-09-18T00:19:31Z</time>
      </trkpt>
      <trkpt lat="44.12065" lon="6.69889">
        <ele>2099.8</ele>
        <time>2022-09-18T00:19:32Z</time>
      </trkpt>
      <trkpt lat="44.12062" lon="6.69892">
        <ele>2104.2</ele>
        <time>2022-09-18T00:19:33Z</time>
      </trkpt>
      <trkpt lat="44.12061" lon="6.69893">
        <ele>2104.6</ele>
        <time>2022-09-18T00:19:34Z</time>
      </trkpt>
      <trkpt lat="44.12059" lon="6.69895">
        <ele>2104.6</ele>
        <time>2022-09-18T00:19:35Z</time>
      </trkpt>
      <trkpt lat="44.12058" lon="6.69896">
        <ele>2104.6</ele>
        <time>2022-09-18T00:19:36Z</time>
      </trkpt>
      <trkpt lat="44.12057" lon="6.69899">
        <ele>2104.6</ele>
        <time>2022-09-18T00:19:37Z</time>
      </trkpt>
      <trkpt lat="44.12056" lon="6.69901">
        <ele>2104.6</ele>
        <time>2022-09-18T00:19:39Z</time>
      </trkpt>
      <trkpt lat="44.12054" lon="6.69905">
        <ele>2104.6</ele>
        <time>2022-09-18T00:19:40Z</time>
      </trkpt>
      <trkpt lat="44.12053" lon="6.69906">
        <ele>2104.7</ele>
        <time>2022-09-18T00:19:41Z</time>
      </trkpt>
      <trkpt lat="44.12051" lon="6.6991">
        <ele>2109</ele>
        <time>2022-09-18T00:19:42Z</time>
      </trkpt>
      <trkpt lat="44.12049" lon="6.69912">
        <ele>2110</ele>
        <time>2022-09-18T00:19:43Z</time>
      </trkpt>
      <trkpt lat="44.12047" lon="6.69914">
        <ele>2110</ele>
        <time>2022-09-18T00:19:45Z</time>
      </trkpt>
      <trkpt lat="44.12047" lon="6.69918">
        <ele>2110</ele>
        <time>2022-09-18T00:19:46Z</time>
      </trkpt>
      <trkpt lat="44.12047" lon="6.69921">
        <ele>2110</ele>
        <time>2022-09-18T00:19:47Z</time>
      </trkpt>
      <trkpt lat="44.12045" lon="6.69924">
        <ele>2110</ele>
        <time>2022-09-18T00:19:49Z</time>
      </trkpt>
      <trkpt lat="44.12042" lon="6.69926">
        <ele>2114.3</ele>
        <time>2022-09-18T00:19:50Z</time>
      </trkpt>
      <trkpt lat="44.12041" lon="6.69926">
        <ele>2114.3</ele>
        <time>2022-09-18T00:19:51Z</time>
      </trkpt>
      <trkpt lat="44.12038" lon="6.69927">
        <ele>2114.3</ele>
        <time>2022-09-18T00:19:52Z</time>
      </trkpt>
      <trkpt lat="44.12037" lon="6.69928">
        <ele>2115.6</ele>
        <time>2022-09-18T00:19:53Z</time>
      </trkpt>
      <trkpt lat="44.12033" lon="6.69931">
        <ele>2115.6</ele>
        <time>2022-09-18T00:19:54Z</time>
      </trkpt>
      <trkpt lat="44.12031" lon="6.69933">
        <ele>2115.6</ele>
        <time>2022-09-18T00:19:56Z</time>
      </trkpt>
      <trkpt lat="44.1203" lon="6.69934">
        <ele>2115.6</ele>
        <time>2022-09-18T00:19:57Z</time>
      </trkpt>
      <trkpt lat="44.12027" lon="6.69935">
        <ele>2115.7</ele>
        <time>2022-09-18T00:19:58Z</time>
      </trkpt>
      <trkpt lat="44.12026" lon="6.69936">
        <ele>2115.7</ele>
        <time>2022-09-18T00:19:59Z</time>
      </trkpt>
      <trkpt lat="44.12025" lon="6.69937">
        <ele>2117.6</ele>
        <time>2022-09-18T00:20:00Z</time>
      </trkpt>
      <trkpt lat="44.12023" lon="6.69938">
        <ele>2117.6</ele>
        <time>2022-09-18T00:20:01Z</time>
      </trkpt>
      <trkpt lat="44.12022" lon="6.69939">
        <ele>2117.6</ele>
        <time>2022-09-18T00:20:02Z</time>
      </trkpt>
      <trkpt lat="44.12021" lon="6.69939">
        <ele>2117.6</ele>
        <time>2022-09-18T00:20:03Z</time>
      </trkpt>
      <trkpt lat="44.12019" lon="6.69938">
        <ele>2117.6</ele>
        <time>2022-09-18T00:20:05Z</time>
      </trkpt>
      <trkpt lat="44.12016" lon="6.6994">
        <ele>2117.6</ele>
        <time>2022-09-18T00:20:06Z</time>
      </trkpt>
      <trkpt lat="44.12015" lon="6.69941">
        <ele>2117.7</ele>
        <time>2022-09-18T00:20:07Z</time>
      </trkpt>
      <trkpt lat="44.12014" lon="6.69943">
        <ele>2122.8</ele>
        <time>2022-09-18T00:20:08Z</time>
      </trkpt>
      <trkpt lat="44.12011" lon="6.69948">
        <ele>2125.2</ele>
        <time>2022-09-18T00:20:10Z</time>
      </trkpt>
      <trkpt lat="44.1201" lon="6.6995">
        <ele>2125.2</ele>
        <time>2022-09-18T00:20:12Z</time>
      </trkpt>
      <trkpt lat="44.12008" lon="6.69953">
        <ele>2125.2</ele>
        <time>2022-09-18T00:20:13Z</time>
      </trkpt>
      <trkpt lat="44.12007" lon="6.69954">
        <ele>2125.2</ele>
        <time>2022-09-18T00:20:14Z</time>
      </trkpt>
      <trkpt lat="44.12004" lon="6.69957">
        <ele>2125.2</ele>
        <time>2022-09-18T00:20:15Z</time>
      </trkpt>
      <trkpt lat="44.12003" lon="6.69959">
        <ele>2125.2</ele>
        <time>2022-09-18T00:20:16Z</time>
      </trkpt>
      <trkpt lat="44.12001" lon="6.69961">
        <ele>2129.8</ele>
        <time>2022-09-18T00:20:17Z</time>
      </trkpt>
      <trkpt lat="44.12" lon="6.69962">
        <ele>2133.3</ele>
        <time>2022-09-18T00:20:18Z</time>
      </trkpt>
      <trkpt lat="44.11997" lon="6.69964">
        <ele>2133.3</ele>
        <time>2022-09-18T00:20:19Z</time>
      </trkpt>
      <trkpt lat="44.11996" lon="6.69965">
        <ele>2133.3</ele>
        <time>2022-09-18T00:20:20Z</time>
      </trkpt>
      <trkpt lat="44.11995" lon="6.69967">
        <ele>2133.3</ele>
        <time>2022-09-18T00:20:21Z</time>
      </trkpt>
      <trkpt lat="44.11996" lon="6.69968">
        <ele>2133.3</ele>
        <time>2022-09-18T00:20:23Z</time>
      </trkpt>
      <trkpt lat="44.11997" lon="6.6997">
        <ele>2133.3</ele>
        <time>2022-09-18T00:20:24Z</time>
      </trkpt>
      <trkpt lat="44.11997" lon="6.69972">
        <ele>2133.4</ele>
        <time>2022-09-18T00:20:25Z</time>
      </trkpt>
      <trkpt lat="44.11995" lon="6.69974">
        <ele>2133.4</ele>
        <time>2022-09-18T00:20:26Z</time>
      </trkpt>
      <trkpt lat="44.11994" lon="6.69975">
        <ele>2133.4</ele>
        <time>2022-09-18T00:20:27Z</time>
      </trkpt>
      <trkpt lat="44.11991" lon="6.69976">
        <ele>2133.4</ele>
        <time>2022-09-18T00:20:28Z</time>
      </trkpt>
      <trkpt lat="44.1199" lon="6.69976">
        <ele>2133.4</ele>
        <time>2022-09-18T00:20:29Z</time>
      </trkpt>
      <trkpt lat="44.11987" lon="6.69977">
        <ele>2141.5</ele>
        <time>2022-09-18T00:20:30Z</time>
      </trkpt>
      <trkpt lat="44.11985" lon="6.6998">
        <ele>2141.5</ele>
        <time>2022-09-18T00:20:31Z</time>
      </trkpt>
      <trkpt lat="44.11984" lon="6.69981">
        <ele>2141.6</ele>
        <time>2022-09-18T00:20:32Z</time>
      </trkpt>
      <trkpt lat="44.11981" lon="6.69983">
        <ele>2141.6</ele>
        <time>2022-09-18T00:20:34Z</time>
      </trkpt>
      <trkpt lat="44.11979" lon="6.69983">
        <ele>2141.6</ele>
        <time>2022-09-18T00:20:35Z</time>
      </trkpt>
      <trkpt lat="44.11975" lon="6.69983">
        <ele>2146.2</ele>
        <time>2022-09-18T00:20:37Z</time>
      </trkpt>
      <trkpt lat="44.11974" lon="6.69983">
        <ele>2146.2</ele>
        <time>2022-09-18T00:20:38Z</time>
      </trkpt>
      <trkpt lat="44.11973" lon="6.69983">
        <ele>2146.3</ele>
        <time>2022-09-18T00:20:39Z</time>
      </trkpt>
      <trkpt lat="44.11971" lon="6.69984">
        <ele>2146.3</ele>
        <time>2022-09-18T00:20:40Z</time>
      </trkpt>
      <trkpt lat="44.11972" lon="6.69987">
        <ele>2146.3</ele>
        <time>2022-09-18T00:20:42Z</time>
      </trkpt>
      <trkpt lat="44.11973" lon="6.69987">
        <ele>2146.3</ele>
        <time>2022-09-18T00:20:43Z</time>
      </trkpt>
      <trkpt lat="44.11974" lon="6.69988">
        <ele>2146.3</ele>
        <time>2022-09-18T00:20:44Z</time>
      </trkpt>
      <trkpt lat="44.11974" lon="6.69989">
        <ele>2146.3</ele>
        <time>2022-09-18T00:20:45Z</time>
      </trkpt>
      <trkpt lat="44.11974" lon="6.69991">
        <ele>2146.3</ele>
        <time>2022-09-18T00:20:46Z</time>
      </trkpt>
      <trkpt lat="44.11972" lon="6.69993">
        <ele>2146.4</ele>
        <time>2022-09-18T00:20:47Z</time>
      </trkpt>
      <trkpt lat="44.11969" lon="6.69994">
        <ele>2146.4</ele>
        <time>2022-09-18T00:20:48Z</time>
      </trkpt>
      <trkpt lat="44.11966" lon="6.69994">
        <ele>2146.4</ele>
        <time>2022-09-18T00:20:49Z</time>
      </trkpt>
      <trkpt lat="44.11964" lon="6.69995">
        <ele>2151.2</ele>
        <time>2022-09-18T00:20:50Z</time>
      </trkpt>
      <trkpt lat="44.11961" lon="6.69997">
        <ele>2155.9</ele>
        <time>2022-09-18T00:20:51Z</time>
      </trkpt>
      <trkpt lat="44.1196" lon="6.69998">
        <ele>2155.9</ele>
        <time>2022-09-18T00:20:52Z</time>
      </trkpt>
      <trkpt lat="44.11957" lon="6.69999">
        <ele>2155.9</ele>
        <time>2022-09-18T00:20:53Z</time>
      </trkpt>
      <trkpt lat="44.11956" lon="6.7">
        <ele>2155.9</ele>
        <time>2022-09-18T00:20:54Z</time>
      </trkpt>
      <trkpt lat="44.11954" lon="6.70001">
        <ele>2155.9</ele>
        <time>2022-09-18T00:20:56Z</time>
      </trkpt>
      <trkpt lat="44.11953" lon="6.70002">
        <ele>2155.9</ele>
        <time>2022-09-18T00:20:57Z</time>
      </trkpt>
      <trkpt lat="44.1195" lon="6.70001">
        <ele>2161.4</ele>
        <time>2022-09-18T00:20:58Z</time>
      </trkpt>
      <trkpt lat="44.11949" lon="6.70001">
        <ele>2161.4</ele>
        <time>2022-09-18T00:20:59Z</time>
      </trkpt>
      <trkpt lat="44.11945" lon="6.7">
        <ele>2161.4</ele>
        <time>2022-09-18T00:21:00Z</time>
      </trkpt>
      <trkpt lat="44.11943" lon="6.7">
        <ele>2161.4</ele>
        <time>2022-09-18T00:21:01Z</time>
      </trkpt>
      <trkpt lat="44.1194" lon="6.7">
        <ele>2161.4</ele>
        <time>2022-09-18T00:21:02Z</time>
      </trkpt>
      <trkpt lat="44.11939" lon="6.70002">
        <ele>2161.8</ele>
        <time>2022-09-18T00:21:04Z</time>
      </trkpt>
      <trkpt lat="44.11941" lon="6.70003">
        <ele>2162.3</ele>
        <time>2022-09-18T00:21:06Z</time>
      </trkpt>
      <trkpt lat="44.11942" lon="6.70006">
        <ele>2163</ele>
        <time>2022-09-18T00:21:10Z</time>
      </trkpt>
      <trkpt lat="44.11943" lon="6.70006">
        <ele>2163.2</ele>
        <time>2022-09-18T00:21:11Z</time>
      </trkpt>
      <trkpt lat="44.11942" lon="6.70004">
        <ele>2163.5</ele>
        <time>2022-09-18T00:21:12Z</time>
      </trkpt>
      <trkpt lat="44.11942" lon="6.70003">
        <ele>2163.8</ele>
        <time>2022-09-18T00:21:13Z</time>
      </trkpt>
      <trkpt lat="44.11941" lon="6.70002">
        <ele>2164.1</ele>
        <time>2022-09-18T00:21:14Z</time>
      </trkpt>
      <trkpt lat="44.11942" lon="6.70008">
        <ele>2165.3</ele>
        <time>2022-09-18T00:21:16Z</time>
      </trkpt>
      <trkpt lat="44.11943" lon="6.7001">
        <ele>2165.7</ele>
        <time>2022-09-18T00:21:17Z</time>
      </trkpt>
      <trkpt lat="44.11944" lon="6.70012">
        <ele>2166</ele>
        <time>2022-09-18T00:21:18Z</time>
      </trkpt>
      <trkpt lat="44.11945" lon="6.70016">
        <ele>2166.9</ele>
        <time>2022-09-18T00:21:19Z</time>
      </trkpt>
      <trkpt lat="44.11946" lon="6.70017">
        <ele>2167.2</ele>
        <time>2022-09-18T00:21:20Z</time>
      </trkpt>
      <trkpt lat="44.11947" lon="6.70022">
        <ele>2168.1</ele>
        <time>2022-09-18T00:21:21Z</time>
      </trkpt>
      <trkpt lat="44.11948" lon="6.70024">
        <ele>2168.6</ele>
        <time>2022-09-18T00:21:22Z</time>
      </trkpt>
      <trkpt lat="44.11949" lon="6.70026">
        <ele>2169</ele>
        <time>2022-09-18T00:21:24Z</time>
      </trkpt>
      <trkpt lat="44.1195" lon="6.7003">
        <ele>2169.7</ele>
        <time>2022-09-18T00:21:25Z</time>
      </trkpt>
      <trkpt lat="44.1195" lon="6.70032">
        <ele>2170</ele>
        <time>2022-09-18T00:21:26Z</time>
      </trkpt>
      <trkpt lat="44.11952" lon="6.70035">
        <ele>2170.8</ele>
        <time>2022-09-18T00:21:27Z</time>
      </trkpt>
      <trkpt lat="44.11952" lon="6.70037">
        <ele>2171</ele>
        <time>2022-09-18T00:21:28Z</time>
      </trkpt>
      <trkpt lat="44.11953" lon="6.70041">
        <ele>2171.7</ele>
        <time>2022-09-18T00:21:30Z</time>
      </trkpt>
      <trkpt lat="44.11953" lon="6.70043">
        <ele>2172</ele>
        <time>2022-09-18T00:21:31Z</time>
      </trkpt>
      <trkpt lat="44.11951" lon="6.70046">
        <ele>2172.5</ele>
        <time>2022-09-18T00:21:32Z</time>
      </trkpt>
      <trkpt lat="44.1195" lon="6.70049">
        <ele>2172.9</ele>
        <time>2022-09-18T00:21:34Z</time>
      </trkpt>
      <trkpt lat="44.11947" lon="6.70051">
        <ele>2173.5</ele>
        <time>2022-09-18T00:21:35Z</time>
      </trkpt>
      <trkpt lat="44.11946" lon="6.70053">
        <ele>2173.7</ele>
        <time>2022-09-18T00:21:36Z</time>
      </trkpt>
      <trkpt lat="44.11946" lon="6.70057">
        <ele>2174.2</ele>
        <time>2022-09-18T00:21:37Z</time>
      </trkpt>
      <trkpt lat="44.11946" lon="6.7006">
        <ele>2174.6</ele>
        <time>2022-09-18T00:21:38Z</time>
      </trkpt>
      <trkpt lat="44.11946" lon="6.70064">
        <ele>2175</ele>
        <time>2022-09-18T00:21:40Z</time>
      </trkpt>
      <trkpt lat="44.11944" lon="6.70067">
        <ele>2175.4</ele>
        <time>2022-09-18T00:21:41Z</time>
      </trkpt>
      <trkpt lat="44.11943" lon="6.70068">
        <ele>2175.5</ele>
        <time>2022-09-18T00:21:42Z</time>
      </trkpt>
      <trkpt lat="44.11942" lon="6.70071">
        <ele>2175.8</ele>
        <time>2022-09-18T00:21:43Z</time>
      </trkpt>
      <trkpt lat="44.11941" lon="6.70072">
        <ele>2175.9</ele>
        <time>2022-09-18T00:21:44Z</time>
      </trkpt>
      <trkpt lat="44.1194" lon="6.70073">
        <ele>2176.1</ele>
        <time>2022-09-18T00:21:45Z</time>
      </trkpt>
      <trkpt lat="44.11939" lon="6.70075">
        <ele>2176.3</ele>
        <time>2022-09-18T00:21:46Z</time>
      </trkpt>
      <trkpt lat="44.11938" lon="6.7008">
        <ele>2176.6</ele>
        <time>2022-09-18T00:21:47Z</time>
      </trkpt>
      <trkpt lat="44.11938" lon="6.70081">
        <ele>2176.7</ele>
        <time>2022-09-18T00:21:48Z</time>
      </trkpt>
      <trkpt lat="44.11936" lon="6.70086">
        <ele>2177</ele>
        <time>2022-09-18T00:21:49Z</time>
      </trkpt>
      <trkpt lat="44.11936" lon="6.70087">
        <ele>2177</ele>
        <time>2022-09-18T00:21:50Z</time>
      </trkpt>
      <trkpt lat="44.11935" lon="6.70092">
        <ele>2177.2</ele>
        <time>2022-09-18T00:21:52Z</time>
      </trkpt>
      <trkpt lat="44.11934" lon="6.70094">
        <ele>2177.2</ele>
        <time>2022-09-18T00:21:53Z</time>
      </trkpt>
      <trkpt lat="44.11934" lon="6.70096">
        <ele>2177.3</ele>
        <time>2022-09-18T00:21:54Z</time>
      </trkpt>
      <trkpt lat="44.11934" lon="6.70095">
        <ele>2177.3</ele>
        <time>2022-09-18T00:21:55Z</time>
      </trkpt>
      <trkpt lat="44.11933" lon="6.70095">
        <ele>2177.3</ele>
        <time>2022-09-18T00:21:57Z</time>
      </trkpt>
      <trkpt lat="44.11933" lon="6.70095">
        <ele>2177.3</ele>
        <time>2022-09-18T00:21:58Z</time>
      </trkpt>
      <trkpt lat="44.11933" lon="6.70095">
        <ele>2177.3</ele>
        <time>2022-09-18T00:21:59Z</time>
      </trkpt>
      <trkpt lat="44.11933" lon="6.70095">
        <ele>2177.3</ele>
        <time>2022-09-18T00:22:00Z</time>
      </trkpt>
      <trkpt lat="44.11933" lon="6.70095">
        <ele>2177.3</ele>
        <time>2022-09-18T00:22:01Z</time>
      </trkpt>
      <trkpt lat="44.11933" lon="6.70095">
        <ele>2177.3</ele>
        <time>2022-09-18T00:22:02Z</time>
      </trkpt>
      <trkpt lat="44.11933" lon="6.70095">
        <ele>2177.3</ele>
        <time>2022-09-18T00:22:03Z</time>
      </trkpt>
      <trkpt lat="44.11934" lon="6.70094">
        <ele>2177.3</ele>
        <time>2022-09-18T00:22:05Z</time>
      </trkpt>
      <trkpt lat="44.11932" lon="6.70093">
        <ele>2177.4</ele>
        <time>2022-09-18T00:22:56Z</time>
      </trkpt>
      <trkpt lat="44.11931" lon="6.70093">
        <ele>2177.4</ele>
        <time>2022-09-18T00:22:59Z</time>
      </trkpt>
      <trkpt lat="44.11931" lon="6.70093">
        <ele>2177.4</ele>
        <time>2022-09-18T00:23:00Z</time>
      </trkpt>
      <trkpt lat="44.11931" lon="6.70092">
        <ele>2177.4</ele>
        <time>2022-09-18T00:23:01Z</time>
      </trkpt>
      <trkpt lat="44.11931" lon="6.70092">
        <ele>2177.4</ele>
        <time>2022-09-18T00:23:02Z</time>
      </trkpt>
      <trkpt lat="44.11931" lon="6.70092">
        <ele>2177.4</ele>
        <time>2022-09-18T00:23:03Z</time>
      </trkpt>
      <trkpt lat="44.11931" lon="6.70091">
        <ele>2177.4</ele>
        <time>2022-09-18T00:23:04Z</time>
      </trkpt>
      <trkpt lat="44.11931" lon="6.70091">
        <ele>2177.4</ele>
        <time>2022-09-18T00:23:05Z</time>
      </trkpt>
      <trkpt lat="44.11932" lon="6.70091">
        <ele>2177.5</ele>
        <time>2022-09-18T00:23:06Z</time>
      </trkpt>
      <trkpt lat="44.11932" lon="6.70091">
        <ele>2177.5</ele>
        <time>2022-09-18T00:23:07Z</time>
      </trkpt>
      <trkpt lat="44.11932" lon="6.70091">
        <ele>2177.5</ele>
        <time>2022-09-18T00:23:08Z</time>
      </trkpt>
      <trkpt lat="44.11932" lon="6.70091">
        <ele>2177.5</ele>
        <time>2022-09-18T00:23:12Z</time>
      </trkpt>
      <trkpt lat="44.11932" lon="6.70092">
        <ele>2177.5</ele>
        <time>2022-09-18T00:23:15Z</time>
      </trkpt>
      <trkpt lat="44.11932" lon="6.70091">
        <ele>2177.5</ele>
        <time>2022-09-18T00:23:16Z</time>
      </trkpt>
      <trkpt lat="44.11932" lon="6.70091">
        <ele>2177.5</ele>
        <time>2022-09-18T00:23:17Z</time>
      </trkpt>
      <trkpt lat="44.11932" lon="6.70091">
        <ele>2177.5</ele>
        <time>2022-09-18T00:23:18Z</time>
      </trkpt>
      <trkpt lat="44.11932" lon="6.70091">
        <ele>2177.5</ele>
        <time>2022-09-18T00:23:19Z</time>
      </trkpt>
      <trkpt lat="44.11932" lon="6.70091">
        <ele>2177.5</ele>
        <time>2022-09-18T00:23:20Z</time>
      </trkpt>
      <trkpt lat="44.11932" lon="6.70091">
        <ele>2177.5</ele>
        <time>2022-09-18T00:23:21Z</time>
      </trkpt>
      <trkpt lat="44.11932" lon="6.70091">
        <ele>2177.5</ele>
        <time>2022-09-18T00:23:22Z</time>
      </trkpt>
      <trkpt lat="44.11932" lon="6.70091">
        <ele>2177.5</ele>
        <time>2022-09-18T00:23:23Z</time>
      </trkpt>
      <trkpt lat="44.11932" lon="6.70091">
        <ele>2177.5</ele>
        <time>2022-09-18T00:23:25Z</time>
      </trkpt>
      <trkpt lat="44.11931" lon="6.70092">
        <ele>2177.5</ele>
        <time>2022-09-18T00:23:26Z</time>
      </trkpt>
      <trkpt lat="44.11932" lon="6.70092">
        <ele>2177.5</ele>
        <time>2022-09-18T00:23:27Z</time>
      </trkpt>
      <trkpt lat="44.11932" lon="6.70092">
        <ele>2177.5</ele>
        <time>2022-09-18T00:23:28Z</time>
      </trkpt>
      <trkpt lat="44.11932" lon="6.70092">
        <ele>2177.5</ele>
        <time>2022-09-18T00:23:29Z</time>
      </trkpt>
      <trkpt lat="44.11933" lon="6.70101">
        <ele>2177.8</ele>
        <time>2022-09-18T00:28:08Z</time>
      </trkpt>
      <trkpt lat="44.11932" lon="6.70105">
        <ele>2178</ele>
        <time>2022-09-18T00:28:09Z</time>
      </trkpt>
      <trkpt lat="44.11931" lon="6.7011">
        <ele>2178.3</ele>
        <time>2022-09-18T00:28:10Z</time>
      </trkpt>
      <trkpt lat="44.1193" lon="6.70116">
        <ele>2178.8</ele>
        <time>2022-09-18T00:28:11Z</time>
      </trkpt>
      <trkpt lat="44.1193" lon="6.70123">
        <ele>2179.3</ele>
        <time>2022-09-18T00:28:12Z</time>
      </trkpt>
      <trkpt lat="44.11931" lon="6.70127">
        <ele>2179.7</ele>
        <time>2022-09-18T00:28:13Z</time>
      </trkpt>
      <trkpt lat="44.11932" lon="6.70131">
        <ele>2180.2</ele>
        <time>2022-09-18T00:28:14Z</time>
      </trkpt>
      <trkpt lat="44.11933" lon="6.70132">
        <ele>2180.3</ele>
        <time>2022-09-18T00:28:15Z</time>
      </trkpt>
      <trkpt lat="44.11932" lon="6.70136">
        <ele>2180.8</ele>
        <time>2022-09-18T00:28:17Z</time>
      </trkpt>
      <trkpt lat="44.11931" lon="6.70137">
        <ele>2180.9</ele>
        <time>2022-09-18T00:28:18Z</time>
      </trkpt>
      <trkpt lat="44.11928" lon="6.70137">
        <ele>2181.5</ele>
        <time>2022-09-18T00:28:19Z</time>
      </trkpt>
      <trkpt lat="44.11925" lon="6.70136">
        <ele>2182</ele>
        <time>2022-09-18T00:28:20Z</time>
      </trkpt>
      <trkpt lat="44.11921" lon="6.70137">
        <ele>2182.7</ele>
        <time>2022-09-18T00:28:21Z</time>
      </trkpt>
      <trkpt lat="44.11919" lon="6.70137">
        <ele>2183</ele>
        <time>2022-09-18T00:28:22Z</time>
      </trkpt>
      <trkpt lat="44.11917" lon="6.70142">
        <ele>2183.7</ele>
        <time>2022-09-18T00:28:23Z</time>
      </trkpt>
      <trkpt lat="44.11917" lon="6.70144">
        <ele>2184</ele>
        <time>2022-09-18T00:28:24Z</time>
      </trkpt>
      <trkpt lat="44.11915" lon="6.70147">
        <ele>2184.6</ele>
        <time>2022-09-18T00:28:25Z</time>
      </trkpt>
      <trkpt lat="44.11912" lon="6.70149">
        <ele>2185.2</ele>
        <time>2022-09-18T00:28:26Z</time>
      </trkpt>
      <trkpt lat="44.11908" lon="6.70152">
        <ele>2186.1</ele>
        <time>2022-09-18T00:28:28Z</time>
      </trkpt>
      <trkpt lat="44.11907" lon="6.70153">
        <ele>2186.3</ele>
        <time>2022-09-18T00:28:29Z</time>
      </trkpt>
      <trkpt lat="44.11905" lon="6.70154">
        <ele>2186.6</ele>
        <time>2022-09-18T00:28:30Z</time>
      </trkpt>
      <trkpt lat="44.11903" lon="6.70157">
        <ele>2187.3</ele>
        <time>2022-09-18T00:28:31Z</time>
      </trkpt>
      <trkpt lat="44.11901" lon="6.70158">
        <ele>2187.7</ele>
        <time>2022-09-18T00:28:32Z</time>
      </trkpt>
      <trkpt lat="44.11898" lon="6.70161">
        <ele>2188.2</ele>
        <time>2022-09-18T00:28:34Z</time>
      </trkpt>
      <trkpt lat="44.11897" lon="6.70162">
        <ele>2188.5</ele>
        <time>2022-09-18T00:28:35Z</time>
      </trkpt>
      <trkpt lat="44.11896" lon="6.70163">
        <ele>2188.8</ele>
        <time>2022-09-18T00:28:36Z</time>
      </trkpt>
      <trkpt lat="44.11893" lon="6.70165">
        <ele>2189.4</ele>
        <time>2022-09-18T00:28:37Z</time>
      </trkpt>
      <trkpt lat="44.11892" lon="6.70166">
        <ele>2189.6</ele>
        <time>2022-09-18T00:28:38Z</time>
      </trkpt>
      <trkpt lat="44.11889" lon="6.70168">
        <ele>2190.2</ele>
        <time>2022-09-18T00:28:39Z</time>
      </trkpt>
      <trkpt lat="44.11888" lon="6.70169">
        <ele>2190.5</ele>
        <time>2022-09-18T00:28:40Z</time>
      </trkpt>
      <trkpt lat="44.11886" lon="6.70172">
        <ele>2191.1</ele>
        <time>2022-09-18T00:28:42Z</time>
      </trkpt>
      <trkpt lat="44.11883" lon="6.70174">
        <ele>2191.6</ele>
        <time>2022-09-18T00:28:43Z</time>
      </trkpt>
      <trkpt lat="44.11882" lon="6.70175">
        <ele>2191.8</ele>
        <time>2022-09-18T00:28:44Z</time>
      </trkpt>
      <trkpt lat="44.1188" lon="6.70179">
        <ele>2192.2</ele>
        <time>2022-09-18T00:28:45Z</time>
      </trkpt>
      <trkpt lat="44.11879" lon="6.7018">
        <ele>2192.4</ele>
        <time>2022-09-18T00:28:46Z</time>
      </trkpt>
      <trkpt lat="44.11877" lon="6.70183">
        <ele>2192.8</ele>
        <time>2022-09-18T00:28:47Z</time>
      </trkpt>
      <trkpt lat="44.11876" lon="6.70184">
        <ele>2193</ele>
        <time>2022-09-18T00:28:48Z</time>
      </trkpt>
      <trkpt lat="44.11874" lon="6.70188">
        <ele>2193.4</ele>
        <time>2022-09-18T00:28:49Z</time>
      </trkpt>
      <trkpt lat="44.11873" lon="6.70189">
        <ele>2193.6</ele>
        <time>2022-09-18T00:28:50Z</time>
      </trkpt>
      <trkpt lat="44.11871" lon="6.70193">
        <ele>2193.9</ele>
        <time>2022-09-18T00:28:51Z</time>
      </trkpt>
      <trkpt lat="44.11871" lon="6.70194">
        <ele>2194</ele>
        <time>2022-09-18T00:28:52Z</time>
      </trkpt>
      <trkpt lat="44.11869" lon="6.70197">
        <ele>2194.4</ele>
        <time>2022-09-18T00:28:53Z</time>
      </trkpt>
      <trkpt lat="44.11868" lon="6.70198">
        <ele>2194.5</ele>
        <time>2022-09-18T00:28:54Z</time>
      </trkpt>
      <trkpt lat="44.11864" lon="6.70201">
        <ele>2194.9</ele>
        <time>2022-09-18T00:28:56Z</time>
      </trkpt>
      <trkpt lat="44.11861" lon="6.70203">
        <ele>2195.2</ele>
        <time>2022-09-18T00:28:57Z</time>
      </trkpt>
      <trkpt lat="44.11859" lon="6.70206">
        <ele>2195.5</ele>
        <time>2022-09-18T00:28:58Z</time>
      </trkpt>
      <trkpt lat="44.11858" lon="6.70207">
        <ele>2195.6</ele>
        <time>2022-09-18T00:28:59Z</time>
      </trkpt>
      <trkpt lat="44.11856" lon="6.70212">
        <ele>2195.9</ele>
        <time>2022-09-18T00:29:01Z</time>
      </trkpt>
      <trkpt lat="44.11855" lon="6.70217">
        <ele>2196.2</ele>
        <time>2022-09-18T00:29:02Z</time>
      </trkpt>
      <trkpt lat="44.11855" lon="6.70219">
        <ele>2196.3</ele>
        <time>2022-09-18T00:29:03Z</time>
      </trkpt>
      <trkpt lat="44.11853" lon="6.70223">
        <ele>2196.5</ele>
        <time>2022-09-18T00:29:04Z</time>
      </trkpt>
      <trkpt lat="44.11851" lon="6.70226">
        <ele>2196.7</ele>
        <time>2022-09-18T00:29:06Z</time>
      </trkpt>
      <trkpt lat="44.1185" lon="6.7023">
        <ele>2196.9</ele>
        <time>2022-09-18T00:29:07Z</time>
      </trkpt>
      <trkpt lat="44.11849" lon="6.70234">
        <ele>2197.1</ele>
        <time>2022-09-18T00:29:08Z</time>
      </trkpt>
      <trkpt lat="44.11848" lon="6.70236">
        <ele>2197.1</ele>
        <time>2022-09-18T00:29:09Z</time>
      </trkpt>
      <trkpt lat="44.11846" lon="6.70241">
        <ele>2197.4</ele>
        <time>2022-09-18T00:29:10Z</time>
      </trkpt>
      <trkpt lat="44.11846" lon="6.70242">
        <ele>2197.5</ele>
        <time>2022-09-18T00:29:11Z</time>
      </trkpt>
      <trkpt lat="44.11845" lon="6.70246">
        <ele>2197.8</ele>
        <time>2022-09-18T00:29:12Z</time>
      </trkpt>
      <trkpt lat="44.11842" lon="6.70251">
        <ele>2198.2</ele>
        <time>2022-09-18T00:29:14Z</time>
      </trkpt>
      <trkpt lat="44.11841" lon="6.70252">
        <ele>2198.3</ele>
        <time>2022-09-18T00:29:15Z</time>
      </trkpt>
      <trkpt lat="44.1184" lon="6.70254">
        <ele>2198.5</ele>
        <time>2022-09-18T00:29:16Z</time>
      </trkpt>
      <trkpt lat="44.11838" lon="6.70259">
        <ele>2198.9</ele>
        <time>2022-09-18T00:29:17Z</time>
      </trkpt>
      <trkpt lat="44.11837" lon="6.7026">
        <ele>2199</ele>
        <time>2022-09-18T00:29:18Z</time>
      </trkpt>
      <trkpt lat="44.11834" lon="6.70265">
        <ele>2199.5</ele>
        <time>2022-09-18T00:29:19Z</time>
      </trkpt>
      <trkpt lat="44.11833" lon="6.70268">
        <ele>2199.7</ele>
        <time>2022-09-18T00:29:20Z</time>
      </trkpt>
      <trkpt lat="44.1183" lon="6.70272">
        <ele>2200</ele>
        <time>2022-09-18T00:29:22Z</time>
      </trkpt>
      <trkpt lat="44.1183" lon="6.70274">
        <ele>2200.1</ele>
        <time>2022-09-18T00:29:23Z</time>
      </trkpt>
      <trkpt lat="44.11828" lon="6.70277">
        <ele>2200.3</ele>
        <time>2022-09-18T00:29:24Z</time>
      </trkpt>
      <trkpt lat="44.11827" lon="6.70281">
        <ele>2200.5</ele>
        <time>2022-09-18T00:29:25Z</time>
      </trkpt>
      <trkpt lat="44.11825" lon="6.70285">
        <ele>2200.8</ele>
        <time>2022-09-18T00:29:26Z</time>
      </trkpt>
      <trkpt lat="44.11824" lon="6.70288">
        <ele>2201</ele>
        <time>2022-09-18T00:29:27Z</time>
      </trkpt>
      <trkpt lat="44.11822" lon="6.70293">
        <ele>2201.3</ele>
        <time>2022-09-18T00:29:28Z</time>
      </trkpt>
      <trkpt lat="44.11821" lon="6.70294">
        <ele>2201.4</ele>
        <time>2022-09-18T00:29:29Z</time>
      </trkpt>
      <trkpt lat="44.11819" lon="6.703">
        <ele>2201.8</ele>
        <time>2022-09-18T00:29:30Z</time>
      </trkpt>
      <trkpt lat="44.11817" lon="6.70303">
        <ele>2202.1</ele>
        <time>2022-09-18T00:29:31Z</time>
      </trkpt>
      <trkpt lat="44.11816" lon="6.70307">
        <ele>2202.4</ele>
        <time>2022-09-18T00:29:32Z</time>
      </trkpt>
      <trkpt lat="44.11814" lon="6.7031">
        <ele>2202.7</ele>
        <time>2022-09-18T00:29:34Z</time>
      </trkpt>
      <trkpt lat="44.1181" lon="6.70313">
        <ele>2203.2</ele>
        <time>2022-09-18T00:29:35Z</time>
      </trkpt>
      <trkpt lat="44.11807" lon="6.70316">
        <ele>2203.7</ele>
        <time>2022-09-18T00:29:37Z</time>
      </trkpt>
      <trkpt lat="44.11806" lon="6.70318">
        <ele>2203.8</ele>
        <time>2022-09-18T00:29:38Z</time>
      </trkpt>
      <trkpt lat="44.11805" lon="6.70319">
        <ele>2204</ele>
        <time>2022-09-18T00:29:39Z</time>
      </trkpt>
      <trkpt lat="44.11803" lon="6.70324">
        <ele>2204.6</ele>
        <time>2022-09-18T00:29:40Z</time>
      </trkpt>
      <trkpt lat="44.11802" lon="6.70329">
        <ele>2205.1</ele>
        <time>2022-09-18T00:29:41Z</time>
      </trkpt>
      <trkpt lat="44.118" lon="6.70333">
        <ele>2205.5</ele>
        <time>2022-09-18T00:29:43Z</time>
      </trkpt>
      <trkpt lat="44.11798" lon="6.70336">
        <ele>2205.9</ele>
        <time>2022-09-18T00:29:44Z</time>
      </trkpt>
      <trkpt lat="44.11796" lon="6.7034">
        <ele>2206.4</ele>
        <time>2022-09-18T00:29:45Z</time>
      </trkpt>
      <trkpt lat="44.11796" lon="6.70342">
        <ele>2206.6</ele>
        <time>2022-09-18T00:29:46Z</time>
      </trkpt>
      <trkpt lat="44.11795" lon="6.70346">
        <ele>2207</ele>
        <time>2022-09-18T00:29:47Z</time>
      </trkpt>
      <trkpt lat="44.11794" lon="6.70351">
        <ele>2207.5</ele>
        <time>2022-09-18T00:29:48Z</time>
      </trkpt>
      <trkpt lat="44.11792" lon="6.70355">
        <ele>2207.9</ele>
        <time>2022-09-18T00:29:49Z</time>
      </trkpt>
      <trkpt lat="44.11789" lon="6.70358">
        <ele>2208.2</ele>
        <time>2022-09-18T00:29:50Z</time>
      </trkpt>
      <trkpt lat="44.11786" lon="6.70362">
        <ele>2208.6</ele>
        <time>2022-09-18T00:29:51Z</time>
      </trkpt>
      <trkpt lat="44.11783" lon="6.70364">
        <ele>2208.9</ele>
        <time>2022-09-18T00:29:52Z</time>
      </trkpt>
      <trkpt lat="44.11781" lon="6.70367">
        <ele>2209.1</ele>
        <time>2022-09-18T00:29:53Z</time>
      </trkpt>
      <trkpt lat="44.11779" lon="6.7037">
        <ele>2209.3</ele>
        <time>2022-09-18T00:29:54Z</time>
      </trkpt>
      <trkpt lat="44.11775" lon="6.70372">
        <ele>2209.5</ele>
        <time>2022-09-18T00:29:56Z</time>
      </trkpt>
      <trkpt lat="44.11773" lon="6.70374">
        <ele>2209.6</ele>
        <time>2022-09-18T00:29:57Z</time>
      </trkpt>
      <trkpt lat="44.1177" lon="6.70376">
        <ele>2209.7</ele>
        <time>2022-09-18T00:29:58Z</time>
      </trkpt>
      <trkpt lat="44.11769" lon="6.70377">
        <ele>2209.7</ele>
        <time>2022-09-18T00:29:59Z</time>
      </trkpt>
      <trkpt lat="44.11766" lon="6.70379">
        <ele>2209.8</ele>
        <time>2022-09-18T00:30:00Z</time>
      </trkpt>
      <trkpt lat="44.11765" lon="6.70379">
        <ele>2209.8</ele>
        <time>2022-09-18T00:30:01Z</time>
      </trkpt>
      <trkpt lat="44.11762" lon="6.70383">
        <ele>2209.9</ele>
        <time>2022-09-18T00:30:02Z</time>
      </trkpt>
      <trkpt lat="44.11761" lon="6.70384">
        <ele>2209.9</ele>
        <time>2022-09-18T00:30:03Z</time>
      </trkpt>
      <trkpt lat="44.11759" lon="6.70387">
        <ele>2210</ele>
        <time>2022-09-18T00:30:04Z</time>
      </trkpt>
      <trkpt lat="44.11755" lon="6.70389">
        <ele>2210.2</ele>
        <time>2022-09-18T00:30:05Z</time>
      </trkpt>
      <trkpt lat="44.11753" lon="6.70389">
        <ele>2210.3</ele>
        <time>2022-09-18T00:30:06Z</time>
      </trkpt>
      <trkpt lat="44.1175" lon="6.70391">
        <ele>2210.5</ele>
        <time>2022-09-18T00:30:07Z</time>
      </trkpt>
      <trkpt lat="44.11747" lon="6.70394">
        <ele>2210.6</ele>
        <time>2022-09-18T00:30:09Z</time>
      </trkpt>
      <trkpt lat="44.11746" lon="6.70395">
        <ele>2210.7</ele>
        <time>2022-09-18T00:30:10Z</time>
      </trkpt>
      <trkpt lat="44.11743" lon="6.70399">
        <ele>2210.8</ele>
        <time>2022-09-18T00:30:11Z</time>
      </trkpt>
      <trkpt lat="44.1174" lon="6.70403">
        <ele>2210.9</ele>
        <time>2022-09-18T00:30:13Z</time>
      </trkpt>
      <trkpt lat="44.11737" lon="6.70405">
        <ele>2210.9</ele>
        <time>2022-09-18T00:30:14Z</time>
      </trkpt>
      <trkpt lat="44.11735" lon="6.70409">
        <ele>2211</ele>
        <time>2022-09-18T00:30:15Z</time>
      </trkpt>
      <trkpt lat="44.11731" lon="6.7041">
        <ele>2211</ele>
        <time>2022-09-18T00:30:16Z</time>
      </trkpt>
      <trkpt lat="44.11727" lon="6.70411">
        <ele>2211</ele>
        <time>2022-09-18T00:30:17Z</time>
      </trkpt>
      <trkpt lat="44.11724" lon="6.70413">
        <ele>2211.1</ele>
        <time>2022-09-18T00:30:18Z</time>
      </trkpt>
      <trkpt lat="44.1172" lon="6.70414">
        <ele>2211.1</ele>
        <time>2022-09-18T00:30:20Z</time>
      </trkpt>
      <trkpt lat="44.11717" lon="6.70416">
        <ele>2211.2</ele>
        <time>2022-09-18T00:30:21Z</time>
      </trkpt>
      <trkpt lat="44.11714" lon="6.70417">
        <ele>2211.3</ele>
        <time>2022-09-18T00:30:22Z</time>
      </trkpt>
      <trkpt lat="44.11711" lon="6.70418">
        <ele>2211.4</ele>
        <time>2022-09-18T00:30:23Z</time>
      </trkpt>
      <trkpt lat="44.11706" lon="6.70421">
        <ele>2211.7</ele>
        <time>2022-09-18T00:30:24Z</time>
      </trkpt>
      <trkpt lat="44.11702" lon="6.70421">
        <ele>2211.9</ele>
        <time>2022-09-18T00:30:26Z</time>
      </trkpt>
      <trkpt lat="44.11698" lon="6.70422">
        <ele>2212.1</ele>
        <time>2022-09-18T00:30:27Z</time>
      </trkpt>
      <trkpt lat="44.11695" lon="6.70423">
        <ele>2212.3</ele>
        <time>2022-09-18T00:30:28Z</time>
      </trkpt>
      <trkpt lat="44.11692" lon="6.70424">
        <ele>2212.5</ele>
        <time>2022-09-18T00:30:29Z</time>
      </trkpt>
      <trkpt lat="44.11687" lon="6.70425">
        <ele>2212.8</ele>
        <time>2022-09-18T00:30:30Z</time>
      </trkpt>
      <trkpt lat="44.11684" lon="6.70426">
        <ele>2213.1</ele>
        <time>2022-09-18T00:30:31Z</time>
      </trkpt>
      <trkpt lat="44.1168" lon="6.70429">
        <ele>2213.5</ele>
        <time>2022-09-18T00:30:33Z</time>
      </trkpt>
      <trkpt lat="44.11676" lon="6.7043">
        <ele>2213.8</ele>
        <time>2022-09-18T00:30:35Z</time>
      </trkpt>
      <trkpt lat="44.11673" lon="6.70431">
        <ele>2214.1</ele>
        <time>2022-09-18T00:30:36Z</time>
      </trkpt>
      <trkpt lat="44.1167" lon="6.70431">
        <ele>2214.4</ele>
        <time>2022-09-18T00:30:37Z</time>
      </trkpt>
      <trkpt lat="44.11666" lon="6.70432">
        <ele>2214.7</ele>
        <time>2022-09-18T00:30:38Z</time>
      </trkpt>
      <trkpt lat="44.11663" lon="6.70432">
        <ele>2215</ele>
        <time>2022-09-18T00:30:39Z</time>
      </trkpt>
      <trkpt lat="44.11659" lon="6.70432">
        <ele>2215.4</ele>
        <time>2022-09-18T00:30:40Z</time>
      </trkpt>
      <trkpt lat="44.11656" lon="6.70434">
        <ele>2215.7</ele>
        <time>2022-09-18T00:30:41Z</time>
      </trkpt>
      <trkpt lat="44.11653" lon="6.70438">
        <ele>2216.1</ele>
        <time>2022-09-18T00:30:42Z</time>
      </trkpt>
      <trkpt lat="44.1165" lon="6.70441">
        <ele>2216.5</ele>
        <time>2022-09-18T00:30:44Z</time>
      </trkpt>
      <trkpt lat="44.11646" lon="6.70442">
        <ele>2217.1</ele>
        <time>2022-09-18T00:30:45Z</time>
      </trkpt>
      <trkpt lat="44.11642" lon="6.70442">
        <ele>2217.5</ele>
        <time>2022-09-18T00:30:46Z</time>
      </trkpt>
      <trkpt lat="44.11638" lon="6.70444">
        <ele>2218.2</ele>
        <time>2022-09-18T00:30:48Z</time>
      </trkpt>
      <trkpt lat="44.11636" lon="6.70445">
        <ele>2218.5</ele>
        <time>2022-09-18T00:30:49Z</time>
      </trkpt>
      <trkpt lat="44.11634" lon="6.70446">
        <ele>2218.8</ele>
        <time>2022-09-18T00:30:50Z</time>
      </trkpt>
      <trkpt lat="44.11631" lon="6.70448">
        <ele>2219.3</ele>
        <time>2022-09-18T00:30:51Z</time>
      </trkpt>
      <trkpt lat="44.11627" lon="6.7045">
        <ele>2219.9</ele>
        <time>2022-09-18T00:30:52Z</time>
      </trkpt>
      <trkpt lat="44.11626" lon="6.70451">
        <ele>2220.2</ele>
        <time>2022-09-18T00:30:53Z</time>
      </trkpt>
      <trkpt lat="44.11623" lon="6.70454">
        <ele>2220.8</ele>
        <time>2022-09-18T00:30:55Z</time>
      </trkpt>
      <trkpt lat="44.11622" lon="6.70455">
        <ele>2221</ele>
        <time>2022-09-18T00:30:56Z</time>
      </trkpt>
      <trkpt lat="44.1162" lon="6.70459">
        <ele>2221.6</ele>
        <time>2022-09-18T00:30:57Z</time>
      </trkpt>
      <trkpt lat="44.11617" lon="6.7046">
        <ele>2222.2</ele>
        <time>2022-09-18T00:30:58Z</time>
      </trkpt>
      <trkpt lat="44.11614" lon="6.70462">
        <ele>2222.7</ele>
        <time>2022-09-18T00:30:59Z</time>
      </trkpt>
      <trkpt lat="44.11611" lon="6.70463">
        <ele>2223.3</ele>
        <time>2022-09-18T00:31:00Z</time>
      </trkpt>
      <trkpt lat="44.11608" lon="6.70464">
        <ele>2223.9</ele>
        <time>2022-09-18T00:31:01Z</time>
      </trkpt>
      <trkpt lat="44.11605" lon="6.70465">
        <ele>2224.4</ele>
        <time>2022-09-18T00:31:03Z</time>
      </trkpt>
      <trkpt lat="44.11601" lon="6.70465">
        <ele>2224.9</ele>
        <time>2022-09-18T00:31:04Z</time>
      </trkpt>
      <trkpt lat="44.11598" lon="6.70465">
        <ele>2225.3</ele>
        <time>2022-09-18T00:31:05Z</time>
      </trkpt>
      <trkpt lat="44.11596" lon="6.70464">
        <ele>2225.7</ele>
        <time>2022-09-18T00:31:06Z</time>
      </trkpt>
      <trkpt lat="44.11591" lon="6.70463">
        <ele>2226.1</ele>
        <time>2022-09-18T00:31:07Z</time>
      </trkpt>
      <trkpt lat="44.11589" lon="6.70463">
        <ele>2226.3</ele>
        <time>2022-09-18T00:31:08Z</time>
      </trkpt>
      <trkpt lat="44.11585" lon="6.70462">
        <ele>2226.6</ele>
        <time>2022-09-18T00:31:09Z</time>
      </trkpt>
      <trkpt lat="44.11581" lon="6.70462">
        <ele>2226.9</ele>
        <time>2022-09-18T00:31:11Z</time>
      </trkpt>
      <trkpt lat="44.11579" lon="6.70462">
        <ele>2227</ele>
        <time>2022-09-18T00:31:12Z</time>
      </trkpt>
      <trkpt lat="44.11578" lon="6.70462">
        <ele>2227.1</ele>
        <time>2022-09-18T00:31:13Z</time>
      </trkpt>
      <trkpt lat="44.11575" lon="6.70461">
        <ele>2227.2</ele>
        <time>2022-09-18T00:31:14Z</time>
      </trkpt>
      <trkpt lat="44.11574" lon="6.70462">
        <ele>2227.3</ele>
        <time>2022-09-18T00:31:15Z</time>
      </trkpt>
      <trkpt lat="44.11571" lon="6.70464">
        <ele>2227.5</ele>
        <time>2022-09-18T00:31:16Z</time>
      </trkpt>
      <trkpt lat="44.11568" lon="6.70473">
        <ele>2227.9</ele>
        <time>2022-09-18T00:31:17Z</time>
      </trkpt>
      <trkpt lat="44.11566" lon="6.70476">
        <ele>2228</ele>
        <time>2022-09-18T00:31:18Z</time>
      </trkpt>
      <trkpt lat="44.11562" lon="6.7048">
        <ele>2228.3</ele>
        <time>2022-09-18T00:31:19Z</time>
      </trkpt>
      <trkpt lat="44.11559" lon="6.70483">
        <ele>2228.6</ele>
        <time>2022-09-18T00:31:21Z</time>
      </trkpt>
      <trkpt lat="44.11557" lon="6.70486">
        <ele>2228.8</ele>
        <time>2022-09-18T00:31:22Z</time>
      </trkpt>
      <trkpt lat="44.11554" lon="6.70489">
        <ele>2229</ele>
        <time>2022-09-18T00:31:23Z</time>
      </trkpt>
      <trkpt lat="44.11552" lon="6.70491">
        <ele>2229.3</ele>
        <time>2022-09-18T00:31:24Z</time>
      </trkpt>
      <trkpt lat="44.11549" lon="6.70494">
        <ele>2229.6</ele>
        <time>2022-09-18T00:31:25Z</time>
      </trkpt>
      <trkpt lat="44.11546" lon="6.70497">
        <ele>2230</ele>
        <time>2022-09-18T00:31:26Z</time>
      </trkpt>
      <trkpt lat="44.11545" lon="6.705">
        <ele>2230.3</ele>
        <time>2022-09-18T00:31:28Z</time>
      </trkpt>
      <trkpt lat="44.11542" lon="6.70504">
        <ele>2230.8</ele>
        <time>2022-09-18T00:31:29Z</time>
      </trkpt>
      <trkpt lat="44.1154" lon="6.70506">
        <ele>2231</ele>
        <time>2022-09-18T00:31:30Z</time>
      </trkpt>
      <trkpt lat="44.11537" lon="6.70511">
        <ele>2231.5</ele>
        <time>2022-09-18T00:31:32Z</time>
      </trkpt>
      <trkpt lat="44.11536" lon="6.70515">
        <ele>2231.9</ele>
        <time>2022-09-18T00:31:33Z</time>
      </trkpt>
      <trkpt lat="44.11536" lon="6.70518">
        <ele>2232.2</ele>
        <time>2022-09-18T00:31:34Z</time>
      </trkpt>
      <trkpt lat="44.11536" lon="6.70519">
        <ele>2232.3</ele>
        <time>2022-09-18T00:31:35Z</time>
      </trkpt>
      <trkpt lat="44.11535" lon="6.70521">
        <ele>2232.4</ele>
        <time>2022-09-18T00:31:36Z</time>
      </trkpt>
      <trkpt lat="44.11532" lon="6.70523">
        <ele>2232.7</ele>
        <time>2022-09-18T00:31:37Z</time>
      </trkpt>
      <trkpt lat="44.11531" lon="6.70524">
        <ele>2232.9</ele>
        <time>2022-09-18T00:31:38Z</time>
      </trkpt>
      <trkpt lat="44.11528" lon="6.70526">
        <ele>2233.2</ele>
        <time>2022-09-18T00:31:39Z</time>
      </trkpt>
      <trkpt lat="44.11526" lon="6.7053">
        <ele>2233.5</ele>
        <time>2022-09-18T00:31:40Z</time>
      </trkpt>
      <trkpt lat="44.11523" lon="6.70533">
        <ele>2233.8</ele>
        <time>2022-09-18T00:31:41Z</time>
      </trkpt>
      <trkpt lat="44.11519" lon="6.70537">
        <ele>2234.3</ele>
        <time>2022-09-18T00:31:42Z</time>
      </trkpt>
      <trkpt lat="44.11518" lon="6.70539">
        <ele>2234.5</ele>
        <time>2022-09-18T00:31:43Z</time>
      </trkpt>
      <trkpt lat="44.11513" lon="6.70541">
        <ele>2235.1</ele>
        <time>2022-09-18T00:31:45Z</time>
      </trkpt>
      <trkpt lat="44.11509" lon="6.70543">
        <ele>2235.7</ele>
        <time>2022-09-18T00:31:46Z</time>
      </trkpt>
      <trkpt lat="44.11506" lon="6.70545">
        <ele>2236.2</ele>
        <time>2022-09-18T00:31:47Z</time>
      </trkpt>
      <trkpt lat="44.11502" lon="6.70546">
        <ele>2236.7</ele>
        <time>2022-09-18T00:31:48Z</time>
      </trkpt>
      <trkpt lat="44.11499" lon="6.70548">
        <ele>2237.1</ele>
        <time>2022-09-18T00:31:50Z</time>
      </trkpt>
      <trkpt lat="44.11498" lon="6.70549">
        <ele>2237.3</ele>
        <time>2022-09-18T00:31:51Z</time>
      </trkpt>
      <trkpt lat="44.11498" lon="6.70549">
        <ele>2237.4</ele>
        <time>2022-09-18T00:31:53Z</time>
      </trkpt>
      <trkpt lat="44.11498" lon="6.70548">
        <ele>2237.5</ele>
        <time>2022-09-18T00:31:54Z</time>
      </trkpt>
      <trkpt lat="44.11499" lon="6.70548">
        <ele>2237.5</ele>
        <time>2022-09-18T00:31:55Z</time>
      </trkpt>
      <trkpt lat="44.11498" lon="6.70548">
        <ele>2237.5</ele>
        <time>2022-09-18T00:31:56Z</time>
      </trkpt>
      <trkpt lat="44.11498" lon="6.70548">
        <ele>2237.5</ele>
        <time>2022-09-18T00:31:57Z</time>
      </trkpt>
      <trkpt lat="44.11498" lon="6.70548">
        <ele>2237.6</ele>
        <time>2022-09-18T00:31:58Z</time>
      </trkpt>
      <trkpt lat="44.11498" lon="6.70548">
        <ele>2237.6</ele>
        <time>2022-09-18T00:31:59Z</time>
      </trkpt>
      <trkpt lat="44.11498" lon="6.70548">
        <ele>2237.6</ele>
        <time>2022-09-18T00:32:00Z</time>
      </trkpt>
      <trkpt lat="44.11498" lon="6.70548">
        <ele>2237.6</ele>
        <time>2022-09-18T00:32:02Z</time>
      </trkpt>
      <trkpt lat="44.11498" lon="6.70547">
        <ele>2237.6</ele>
        <time>2022-09-18T00:32:04Z</time>
      </trkpt>
      <trkpt lat="44.11498" lon="6.70547">
        <ele>2237.6</ele>
        <time>2022-09-18T00:32:05Z</time>
      </trkpt>
      <trkpt lat="44.11498" lon="6.70547">
        <ele>2237.6</ele>
        <time>2022-09-18T00:32:06Z</time>
      </trkpt>
      <trkpt lat="44.11496" lon="6.70547">
        <ele>2237.8</ele>
        <time>2022-09-18T00:33:51Z</time>
      </trkpt>
      <trkpt lat="44.11494" lon="6.70547">
        <ele>2238</ele>
        <time>2022-09-18T00:33:52Z</time>
      </trkpt>
      <trkpt lat="44.1149" lon="6.70548">
        <ele>2238.3</ele>
        <time>2022-09-18T00:33:53Z</time>
      </trkpt>
      <trkpt lat="44.11489" lon="6.70549">
        <ele>2238.4</ele>
        <time>2022-09-18T00:33:54Z</time>
      </trkpt>
      <trkpt lat="44.11488" lon="6.7055">
        <ele>2238.4</ele>
        <time>2022-09-18T00:33:55Z</time>
      </trkpt>
      <trkpt lat="44.11486" lon="6.70552">
        <ele>2238.6</ele>
        <time>2022-09-18T00:33:56Z</time>
      </trkpt>
      <trkpt lat="44.11484" lon="6.70553">
        <ele>2238.7</ele>
        <time>2022-09-18T00:33:57Z</time>
      </trkpt>
      <trkpt lat="44.11483" lon="6.70551">
        <ele>2238.8</ele>
        <time>2022-09-18T00:33:58Z</time>
      </trkpt>
      <trkpt lat="44.11478" lon="6.7055">
        <ele>2239.1</ele>
        <time>2022-09-18T00:33:59Z</time>
      </trkpt>
      <trkpt lat="44.11474" lon="6.7055">
        <ele>2239.3</ele>
        <time>2022-09-18T00:34:01Z</time>
      </trkpt>
      <trkpt lat="44.11471" lon="6.7055">
        <ele>2239.5</ele>
        <time>2022-09-18T00:34:02Z</time>
      </trkpt>
      <trkpt lat="44.11468" lon="6.70549">
        <ele>2239.7</ele>
        <time>2022-09-18T00:34:03Z</time>
      </trkpt>
      <trkpt lat="44.11465" lon="6.70549">
        <ele>2239.9</ele>
        <time>2022-09-18T00:34:04Z</time>
      </trkpt>
      <trkpt lat="44.11461" lon="6.70549">
        <ele>2240.2</ele>
        <time>2022-09-18T00:34:05Z</time>
      </trkpt>
      <trkpt lat="44.11454" lon="6.70549">
        <ele>2240.7</ele>
        <time>2022-09-18T00:34:06Z</time>
      </trkpt>
      <trkpt lat="44.11451" lon="6.70548">
        <ele>2241</ele>
        <time>2022-09-18T00:34:08Z</time>
      </trkpt>
      <trkpt lat="44.11446" lon="6.70547">
        <ele>2241.3</ele>
        <time>2022-09-18T00:34:09Z</time>
      </trkpt>
      <trkpt lat="44.11444" lon="6.70547">
        <ele>2241.4</ele>
        <time>2022-09-18T00:34:10Z</time>
      </trkpt>
      <trkpt lat="44.1144" lon="6.70547">
        <ele>2241.6</ele>
        <time>2022-09-18T00:34:11Z</time>
      </trkpt>
      <trkpt lat="44.11434" lon="6.70548">
        <ele>2241.9</ele>
        <time>2022-09-18T00:34:13Z</time>
      </trkpt>
      <trkpt lat="44.11429" lon="6.70548">
        <ele>2242.1</ele>
        <time>2022-09-18T00:34:15Z</time>
      </trkpt>
      <trkpt lat="44.11426" lon="6.70548">
        <ele>2242.2</ele>
        <time>2022-09-18T00:34:16Z</time>
      </trkpt>
      <trkpt lat="44.11423" lon="6.70548">
        <ele>2242.4</ele>
        <time>2022-09-18T00:34:17Z</time>
      </trkpt>
      <trkpt lat="44.1142" lon="6.70548">
        <ele>2242.5</ele>
        <time>2022-09-18T00:34:19Z</time>
      </trkpt>
      <trkpt lat="44.11416" lon="6.70548">
        <ele>2242.8</ele>
        <time>2022-09-18T00:34:20Z</time>
      </trkpt>
      <trkpt lat="44.11411" lon="6.70548">
        <ele>2243.1</ele>
        <time>2022-09-18T00:34:21Z</time>
      </trkpt>
      <trkpt lat="44.11406" lon="6.70546">
        <ele>2243.5</ele>
        <time>2022-09-18T00:34:23Z</time>
      </trkpt>
      <trkpt lat="44.11403" lon="6.70545">
        <ele>2243.8</ele>
        <time>2022-09-18T00:34:24Z</time>
      </trkpt>
      <trkpt lat="44.11399" lon="6.70544">
        <ele>2244.2</ele>
        <time>2022-09-18T00:34:25Z</time>
      </trkpt>
      <trkpt lat="44.11391" lon="6.70545">
        <ele>2244.9</ele>
        <time>2022-09-18T00:34:27Z</time>
      </trkpt>
      <trkpt lat="44.11389" lon="6.70547">
        <ele>2245.2</ele>
        <time>2022-09-18T00:34:29Z</time>
      </trkpt>
      <trkpt lat="44.11385" lon="6.70547">
        <ele>2245.5</ele>
        <time>2022-09-18T00:34:30Z</time>
      </trkpt>
      <trkpt lat="44.11384" lon="6.70546">
        <ele>2245.6</ele>
        <time>2022-09-18T00:34:31Z</time>
      </trkpt>
      <trkpt lat="44.11381" lon="6.70545">
        <ele>2245.9</ele>
        <time>2022-09-18T00:34:32Z</time>
      </trkpt>
      <trkpt lat="44.11378" lon="6.70544">
        <ele>2246.1</ele>
        <time>2022-09-18T00:34:33Z</time>
      </trkpt>
      <trkpt lat="44.11375" lon="6.70542">
        <ele>2246.4</ele>
        <time>2022-09-18T00:34:34Z</time>
      </trkpt>
      <trkpt lat="44.11373" lon="6.70541">
        <ele>2246.5</ele>
        <time>2022-09-18T00:34:35Z</time>
      </trkpt>
      <trkpt lat="44.11371" lon="6.7054">
        <ele>2246.7</ele>
        <time>2022-09-18T00:34:36Z</time>
      </trkpt>
      <trkpt lat="44.11368" lon="6.70539">
        <ele>2246.9</ele>
        <time>2022-09-18T00:34:37Z</time>
      </trkpt>
      <trkpt lat="44.11364" lon="6.70543">
        <ele>2247.2</ele>
        <time>2022-09-18T00:34:38Z</time>
      </trkpt>
      <trkpt lat="44.11363" lon="6.70544">
        <ele>2247.4</ele>
        <time>2022-09-18T00:34:39Z</time>
      </trkpt>
      <trkpt lat="44.11359" lon="6.70548">
        <ele>2247.7</ele>
        <time>2022-09-18T00:34:41Z</time>
      </trkpt>
      <trkpt lat="44.11356" lon="6.70549">
        <ele>2248</ele>
        <time>2022-09-18T00:34:42Z</time>
      </trkpt>
      <trkpt lat="44.11353" lon="6.70549">
        <ele>2248.3</ele>
        <time>2022-09-18T00:34:43Z</time>
      </trkpt>
      <trkpt lat="44.11348" lon="6.7055">
        <ele>2248.8</ele>
        <time>2022-09-18T00:34:44Z</time>
      </trkpt>
      <trkpt lat="44.11345" lon="6.70547">
        <ele>2249.1</ele>
        <time>2022-09-18T00:34:46Z</time>
      </trkpt>
      <trkpt lat="44.11341" lon="6.70543">
        <ele>2249.6</ele>
        <time>2022-09-18T00:34:47Z</time>
      </trkpt>
      <trkpt lat="44.11338" lon="6.7054">
        <ele>2250</ele>
        <time>2022-09-18T00:34:48Z</time>
      </trkpt>
      <trkpt lat="44.11333" lon="6.70538">
        <ele>2250.6</ele>
        <time>2022-09-18T00:34:50Z</time>
      </trkpt>
      <trkpt lat="44.1133" lon="6.70536">
        <ele>2250.9</ele>
        <time>2022-09-18T00:34:51Z</time>
      </trkpt>
      <trkpt lat="44.11328" lon="6.70535">
        <ele>2251.2</ele>
        <time>2022-09-18T00:34:52Z</time>
      </trkpt>
      <trkpt lat="44.11321" lon="6.70538">
        <ele>2252.1</ele>
        <time>2022-09-18T00:34:54Z</time>
      </trkpt>
      <trkpt lat="44.11319" lon="6.7054">
        <ele>2252.5</ele>
        <time>2022-09-18T00:34:55Z</time>
      </trkpt>
      <trkpt lat="44.11316" lon="6.7054">
        <ele>2252.8</ele>
        <time>2022-09-18T00:34:56Z</time>
      </trkpt>
      <trkpt lat="44.11313" lon="6.70542">
        <ele>2253.3</ele>
        <time>2022-09-18T00:34:58Z</time>
      </trkpt>
      <trkpt lat="44.11308" lon="6.70544">
        <ele>2254</ele>
        <time>2022-09-18T00:34:59Z</time>
      </trkpt>
      <trkpt lat="44.11306" lon="6.70545">
        <ele>2254.3</ele>
        <time>2022-09-18T00:35:00Z</time>
      </trkpt>
      <trkpt lat="44.11303" lon="6.70547">
        <ele>2254.8</ele>
        <time>2022-09-18T00:35:02Z</time>
      </trkpt>
      <trkpt lat="44.11298" lon="6.70548">
        <ele>2255.4</ele>
        <time>2022-09-18T00:35:03Z</time>
      </trkpt>
      <trkpt lat="44.11295" lon="6.7055">
        <ele>2255.9</ele>
        <time>2022-09-18T00:35:04Z</time>
      </trkpt>
      <trkpt lat="44.11292" lon="6.70552">
        <ele>2256.4</ele>
        <time>2022-09-18T00:35:05Z</time>
      </trkpt>
      <trkpt lat="44.11288" lon="6.70554">
        <ele>2257.1</ele>
        <time>2022-09-18T00:35:07Z</time>
      </trkpt>
      <trkpt lat="44.11285" lon="6.70554">
        <ele>2257.5</ele>
        <time>2022-09-18T00:35:08Z</time>
      </trkpt>
      <trkpt lat="44.11281" lon="6.70556">
        <ele>2258.2</ele>
        <time>2022-09-18T00:35:10Z</time>
      </trkpt>
      <trkpt lat="44.11278" lon="6.70557">
        <ele>2258.6</ele>
        <time>2022-09-18T00:35:11Z</time>
      </trkpt>
      <trkpt lat="44.11274" lon="6.70558">
        <ele>2259.1</ele>
        <time>2022-09-18T00:35:12Z</time>
      </trkpt>
      <trkpt lat="44.11273" lon="6.70558">
        <ele>2259.2</ele>
        <time>2022-09-18T00:35:13Z</time>
      </trkpt>
      <trkpt lat="44.1127" lon="6.70561">
        <ele>2259.8</ele>
        <time>2022-09-18T00:35:14Z</time>
      </trkpt>
      <trkpt lat="44.11269" lon="6.70561">
        <ele>2260</ele>
        <time>2022-09-18T00:35:15Z</time>
      </trkpt>
      <trkpt lat="44.11266" lon="6.70564">
        <ele>2260.5</ele>
        <time>2022-09-18T00:35:16Z</time>
      </trkpt>
      <trkpt lat="44.11261" lon="6.70566">
        <ele>2261.3</ele>
        <time>2022-09-18T00:35:18Z</time>
      </trkpt>
      <trkpt lat="44.11256" lon="6.70568">
        <ele>2262.1</ele>
        <time>2022-09-18T00:35:19Z</time>
      </trkpt>
      <trkpt lat="44.11253" lon="6.7057">
        <ele>2262.5</ele>
        <time>2022-09-18T00:35:20Z</time>
      </trkpt>
      <trkpt lat="44.1125" lon="6.7057">
        <ele>2263</ele>
        <time>2022-09-18T00:35:22Z</time>
      </trkpt>
      <trkpt lat="44.11246" lon="6.70568">
        <ele>2263.6</ele>
        <time>2022-09-18T00:35:23Z</time>
      </trkpt>
      <trkpt lat="44.11243" lon="6.70567">
        <ele>2264.1</ele>
        <time>2022-09-18T00:35:24Z</time>
      </trkpt>
      <trkpt lat="44.11239" lon="6.70567">
        <ele>2264.7</ele>
        <time>2022-09-18T00:35:26Z</time>
      </trkpt>
      <trkpt lat="44.11235" lon="6.70571">
        <ele>2265.4</ele>
        <time>2022-09-18T00:35:27Z</time>
      </trkpt>
      <trkpt lat="44.11234" lon="6.70572">
        <ele>2265.8</ele>
        <time>2022-09-18T00:35:28Z</time>
      </trkpt>
      <trkpt lat="44.11232" lon="6.70574">
        <ele>2266.2</ele>
        <time>2022-09-18T00:35:30Z</time>
      </trkpt>
      <trkpt lat="44.11231" lon="6.70574">
        <ele>2266.3</ele>
        <time>2022-09-18T00:35:31Z</time>
      </trkpt>
      <trkpt lat="44.11232" lon="6.70573">
        <ele>2266.4</ele>
        <time>2022-09-18T00:35:32Z</time>
      </trkpt>
      <trkpt lat="44.11232" lon="6.70573">
        <ele>2266.4</ele>
        <time>2022-09-18T00:35:33Z</time>
      </trkpt>
      <trkpt lat="44.11232" lon="6.70573">
        <ele>2266.4</ele>
        <time>2022-09-18T00:35:34Z</time>
      </trkpt>
      <trkpt lat="44.11232" lon="6.70573">
        <ele>2266.5</ele>
        <time>2022-09-18T00:35:35Z</time>
      </trkpt>
      <trkpt lat="44.11233" lon="6.70573">
        <ele>2266.5</ele>
        <time>2022-09-18T00:35:36Z</time>
      </trkpt>
      <trkpt lat="44.11232" lon="6.70574">
        <ele>2266.6</ele>
        <time>2022-09-18T00:35:37Z</time>
      </trkpt>
      <trkpt lat="44.11232" lon="6.70574">
        <ele>2266.7</ele>
        <time>2022-09-18T00:35:38Z</time>
      </trkpt>
      <trkpt lat="44.11231" lon="6.70575">
        <ele>2266.8</ele>
        <time>2022-09-18T00:35:39Z</time>
      </trkpt>
      <trkpt lat="44.11231" lon="6.70575">
        <ele>2266.8</ele>
        <time>2022-09-18T00:35:40Z</time>
      </trkpt>
      <trkpt lat="44.11231" lon="6.70575">
        <ele>2266.9</ele>
        <time>2022-09-18T00:35:41Z</time>
      </trkpt>
      <trkpt lat="44.1123" lon="6.70576">
        <ele>2267</ele>
        <time>2022-09-18T00:35:43Z</time>
      </trkpt>
      <trkpt lat="44.11229" lon="6.70578">
        <ele>2267.3</ele>
        <time>2022-09-18T00:35:44Z</time>
      </trkpt>
      <trkpt lat="44.11228" lon="6.70579">
        <ele>2267.6</ele>
        <time>2022-09-18T00:35:46Z</time>
      </trkpt>
      <trkpt lat="44.11227" lon="6.70579">
        <ele>2267.6</ele>
        <time>2022-09-18T00:35:47Z</time>
      </trkpt>
      <trkpt lat="44.11227" lon="6.70579">
        <ele>2267.7</ele>
        <time>2022-09-18T00:35:48Z</time>
      </trkpt>
      <trkpt lat="44.11226" lon="6.70579">
        <ele>2267.8</ele>
        <time>2022-09-18T00:35:49Z</time>
      </trkpt>
      <trkpt lat="44.11225" lon="6.70579">
        <ele>2268</ele>
        <time>2022-09-18T00:35:50Z</time>
      </trkpt>
      <trkpt lat="44.11224" lon="6.70579">
        <ele>2268.2</ele>
        <time>2022-09-18T00:35:51Z</time>
      </trkpt>
      <trkpt lat="44.11222" lon="6.70579">
        <ele>2268.5</ele>
        <time>2022-09-18T00:35:53Z</time>
      </trkpt>
      <trkpt lat="44.11221" lon="6.70579">
        <ele>2268.8</ele>
        <time>2022-09-18T00:35:54Z</time>
      </trkpt>
      <trkpt lat="44.1122" lon="6.70579">
        <ele>2268.9</ele>
        <time>2022-09-18T00:35:55Z</time>
      </trkpt>
      <trkpt lat="44.11217" lon="6.70579">
        <ele>2269.4</ele>
        <time>2022-09-18T00:35:57Z</time>
      </trkpt>
      <trkpt lat="44.11215" lon="6.7058">
        <ele>2269.8</ele>
        <time>2022-09-18T00:35:58Z</time>
      </trkpt>
      <trkpt lat="44.11215" lon="6.70581">
        <ele>2269.9</ele>
        <time>2022-09-18T00:36:00Z</time>
      </trkpt>
      <trkpt lat="44.11215" lon="6.70582">
        <ele>2270</ele>
        <time>2022-09-18T00:36:01Z</time>
      </trkpt>
      <trkpt lat="44.11215" lon="6.70582">
        <ele>2270.1</ele>
        <time>2022-09-18T00:36:03Z</time>
      </trkpt>
      <trkpt lat="44.11215" lon="6.70583">
        <ele>2270.2</ele>
        <time>2022-09-18T00:36:04Z</time>
      </trkpt>
      <trkpt lat="44.11215" lon="6.70583">
        <ele>2270.3</ele>
        <time>2022-09-18T00:36:05Z</time>
      </trkpt>
      <trkpt lat="44.11212" lon="6.70585">
        <ele>2270.8</ele>
        <time>2022-09-18T00:36:06Z</time>
      </trkpt>
      <trkpt lat="44.11209" lon="6.70587">
        <ele>2271.5</ele>
        <time>2022-09-18T00:36:07Z</time>
      </trkpt>
      <trkpt lat="44.11208" lon="6.70587">
        <ele>2271.7</ele>
        <time>2022-09-18T00:36:08Z</time>
      </trkpt>
      <trkpt lat="44.11206" lon="6.70587">
        <ele>2272</ele>
        <time>2022-09-18T00:36:10Z</time>
      </trkpt>
      <trkpt lat="44.11206" lon="6.70588">
        <ele>2272.2</ele>
        <time>2022-09-18T00:36:11Z</time>
      </trkpt>
      <trkpt lat="44.11205" lon="6.70589">
        <ele>2272.4</ele>
        <time>2022-09-18T00:36:12Z</time>
      </trkpt>
      <trkpt lat="44.11204" lon="6.7059">
        <ele>2272.7</ele>
        <time>2022-09-18T00:36:14Z</time>
      </trkpt>
      <trkpt lat="44.11203" lon="6.70591">
        <ele>2272.9</ele>
        <time>2022-09-18T00:36:15Z</time>
      </trkpt>
      <trkpt lat="44.11202" lon="6.70591">
        <ele>2273.1</ele>
        <time>2022-09-18T00:36:16Z</time>
      </trkpt>
      <trkpt lat="44.112" lon="6.70592">
        <ele>2273.4</ele>
        <time>2022-09-18T00:36:17Z</time>
      </trkpt>
      <trkpt lat="44.11199" lon="6.70593">
        <ele>2273.6</ele>
        <time>2022-09-18T00:36:18Z</time>
      </trkpt>
      <trkpt lat="44.11199" lon="6.70593">
        <ele>2273.7</ele>
        <time>2022-09-18T00:36:19Z</time>
      </trkpt>
      <trkpt lat="44.11197" lon="6.70594">
        <ele>2274.1</ele>
        <time>2022-09-18T00:36:21Z</time>
      </trkpt>
      <trkpt lat="44.11196" lon="6.70596">
        <ele>2274.4</ele>
        <time>2022-09-18T00:36:22Z</time>
      </trkpt>
      <trkpt lat="44.11195" lon="6.70597">
        <ele>2274.7</ele>
        <time>2022-09-18T00:36:23Z</time>
      </trkpt>
      <trkpt lat="44.11194" lon="6.70599">
        <ele>2274.9</ele>
        <time>2022-09-18T00:36:25Z</time>
      </trkpt>
      <trkpt lat="44.11193" lon="6.706">
        <ele>2275.1</ele>
        <time>2022-09-18T00:36:26Z</time>
      </trkpt>
      <trkpt lat="44.11192" lon="6.70601">
        <ele>2275.3</ele>
        <time>2022-09-18T00:36:27Z</time>
      </trkpt>
      <trkpt lat="44.11191" lon="6.70602">
        <ele>2275.5</ele>
        <time>2022-09-18T00:36:28Z</time>
      </trkpt>
      <trkpt lat="44.11189" lon="6.70601">
        <ele>2275.8</ele>
        <time>2022-09-18T00:36:29Z</time>
      </trkpt>
      <trkpt lat="44.11188" lon="6.70601">
        <ele>2275.9</ele>
        <time>2022-09-18T00:36:30Z</time>
      </trkpt>
      <trkpt lat="44.11187" lon="6.706">
        <ele>2276.1</ele>
        <time>2022-09-18T00:36:31Z</time>
      </trkpt>
      <trkpt lat="44.11186" lon="6.70601">
        <ele>2276.3</ele>
        <time>2022-09-18T00:36:33Z</time>
      </trkpt>
      <trkpt lat="44.11185" lon="6.70602">
        <ele>2276.5</ele>
        <time>2022-09-18T00:36:34Z</time>
      </trkpt>
      <trkpt lat="44.11182" lon="6.70604">
        <ele>2276.8</ele>
        <time>2022-09-18T00:36:35Z</time>
      </trkpt>
      <trkpt lat="44.11182" lon="6.70605">
        <ele>2277</ele>
        <time>2022-09-18T00:36:36Z</time>
      </trkpt>
      <trkpt lat="44.1118" lon="6.70606">
        <ele>2277.2</ele>
        <time>2022-09-18T00:36:37Z</time>
      </trkpt>
      <trkpt lat="44.11179" lon="6.70608">
        <ele>2277.4</ele>
        <time>2022-09-18T00:36:38Z</time>
      </trkpt>
      <trkpt lat="44.11177" lon="6.70609">
        <ele>2277.5</ele>
        <time>2022-09-18T00:36:39Z</time>
      </trkpt>
      <trkpt lat="44.11175" lon="6.70609">
        <ele>2277.7</ele>
        <time>2022-09-18T00:36:41Z</time>
      </trkpt>
      <trkpt lat="44.11173" lon="6.70609">
        <ele>2277.9</ele>
        <time>2022-09-18T00:36:43Z</time>
      </trkpt>
      <trkpt lat="44.11172" lon="6.7061">
        <ele>2278</ele>
        <time>2022-09-18T00:36:44Z</time>
      </trkpt>
      <trkpt lat="44.11168" lon="6.70611">
        <ele>2278.4</ele>
        <time>2022-09-18T00:36:46Z</time>
      </trkpt>
      <trkpt lat="44.11166" lon="6.70611">
        <ele>2278.4</ele>
        <time>2022-09-18T00:36:47Z</time>
      </trkpt>
      <trkpt lat="44.11165" lon="6.70611">
        <ele>2278.5</ele>
        <time>2022-09-18T00:36:48Z</time>
      </trkpt>
      <trkpt lat="44.11161" lon="6.70611">
        <ele>2278.7</ele>
        <time>2022-09-18T00:36:49Z</time>
      </trkpt>
      <trkpt lat="44.1116" lon="6.70611">
        <ele>2278.8</ele>
        <time>2022-09-18T00:36:50Z</time>
      </trkpt>
      <trkpt lat="44.11157" lon="6.70612">
        <ele>2278.9</ele>
        <time>2022-09-18T00:36:51Z</time>
      </trkpt>
      <trkpt lat="44.11154" lon="6.70614">
        <ele>2279</ele>
        <time>2022-09-18T00:36:53Z</time>
      </trkpt>
      <trkpt lat="44.11151" lon="6.70616">
        <ele>2279.1</ele>
        <time>2022-09-18T00:36:54Z</time>
      </trkpt>
      <trkpt lat="44.1115" lon="6.70617">
        <ele>2279.1</ele>
        <time>2022-09-18T00:36:55Z</time>
      </trkpt>
      <trkpt lat="44.11148" lon="6.70617">
        <ele>2279.2</ele>
        <time>2022-09-18T00:36:56Z</time>
      </trkpt>
      <trkpt lat="44.11148" lon="6.70617">
        <ele>2279.2</ele>
        <time>2022-09-18T00:36:57Z</time>
      </trkpt>
      <trkpt lat="44.11147" lon="6.70617">
        <ele>2279.2</ele>
        <time>2022-09-18T00:36:58Z</time>
      </trkpt>
      <trkpt lat="44.11147" lon="6.70618">
        <ele>2279.2</ele>
        <time>2022-09-18T00:37:00Z</time>
      </trkpt>
      <trkpt lat="44.11147" lon="6.70618">
        <ele>2279.2</ele>
        <time>2022-09-18T00:37:01Z</time>
      </trkpt>
      <trkpt lat="44.11148" lon="6.70618">
        <ele>2279.2</ele>
        <time>2022-09-18T00:37:02Z</time>
      </trkpt>
      <trkpt lat="44.11148" lon="6.70618">
        <ele>2279.2</ele>
        <time>2022-09-18T00:37:04Z</time>
      </trkpt>
      <trkpt lat="44.11148" lon="6.70618">
        <ele>2279.3</ele>
        <time>2022-09-18T00:37:05Z</time>
      </trkpt>
      <trkpt lat="44.11148" lon="6.70618">
        <ele>2279.3</ele>
        <time>2022-09-18T00:37:06Z</time>
      </trkpt>
      <trkpt lat="44.11148" lon="6.70618">
        <ele>2279.3</ele>
        <time>2022-09-18T00:37:08Z</time>
      </trkpt>
      <trkpt lat="44.11148" lon="6.70618">
        <ele>2279.3</ele>
        <time>2022-09-18T00:37:10Z</time>
      </trkpt>
      <trkpt lat="44.11148" lon="6.70618">
        <ele>2279.3</ele>
        <time>2022-09-18T00:37:11Z</time>
      </trkpt>
      <trkpt lat="44.11148" lon="6.70618">
        <ele>2279.3</ele>
        <time>2022-09-18T00:37:13Z</time>
      </trkpt>
      <trkpt lat="44.11149" lon="6.70616">
        <ele>2279.3</ele>
        <time>2022-09-18T00:38:33Z</time>
      </trkpt>
      <trkpt lat="44.11149" lon="6.70616">
        <ele>2279.3</ele>
        <time>2022-09-18T00:38:34Z</time>
      </trkpt>
      <trkpt lat="44.11149" lon="6.70616">
        <ele>2279.3</ele>
        <time>2022-09-18T00:38:36Z</time>
      </trkpt>
      <trkpt lat="44.11149" lon="6.70616">
        <ele>2279.3</ele>
        <time>2022-09-18T00:38:37Z</time>
      </trkpt>
      <trkpt lat="44.11149" lon="6.70616">
        <ele>2279.3</ele>
        <time>2022-09-18T00:38:38Z</time>
      </trkpt>
      <trkpt lat="44.11149" lon="6.70616">
        <ele>2279.3</ele>
        <time>2022-09-18T00:38:39Z</time>
      </trkpt>
      <trkpt lat="44.11149" lon="6.70616">
        <ele>2279.3</ele>
        <time>2022-09-18T00:38:40Z</time>
      </trkpt>
      <trkpt lat="44.11149" lon="6.70616">
        <ele>2279.3</ele>
        <time>2022-09-18T00:38:41Z</time>
      </trkpt>
      <trkpt lat="44.11149" lon="6.70616">
        <ele>2279.3</ele>
        <time>2022-09-18T00:38:43Z</time>
      </trkpt>
      <trkpt lat="44.11149" lon="6.70616">
        <ele>2279.3</ele>
        <time>2022-09-18T00:38:47Z</time>
      </trkpt>
      <trkpt lat="44.11151" lon="6.7062">
        <ele>2279.4</ele>
        <time>2022-09-18T00:40:03Z</time>
      </trkpt>
      <trkpt lat="44.11151" lon="6.7062">
        <ele>2279.4</ele>
        <time>2022-09-18T00:40:04Z</time>
      </trkpt>
      <trkpt lat="44.11153" lon="6.70621">
        <ele>2279.5</ele>
        <time>2022-09-18T00:40:05Z</time>
      </trkpt>
      <trkpt lat="44.11154" lon="6.70622">
        <ele>2279.5</ele>
        <time>2022-09-18T00:40:06Z</time>
      </trkpt>
      <trkpt lat="44.11155" lon="6.70624">
        <ele>2279.6</ele>
        <time>2022-09-18T00:40:08Z</time>
      </trkpt>
      <trkpt lat="44.11155" lon="6.70625">
        <ele>2279.6</ele>
        <time>2022-09-18T00:40:09Z</time>
      </trkpt>
      <trkpt lat="44.11156" lon="6.70626">
        <ele>2279.6</ele>
        <time>2022-09-18T00:40:10Z</time>
      </trkpt>
      <trkpt lat="44.11156" lon="6.70629">
        <ele>2279.7</ele>
        <time>2022-09-18T00:40:12Z</time>
      </trkpt>
      <trkpt lat="44.11155" lon="6.7063">
        <ele>2279.7</ele>
        <time>2022-09-18T00:40:13Z</time>
      </trkpt>
      <trkpt lat="44.11155" lon="6.70631">
        <ele>2279.7</ele>
        <time>2022-09-18T00:40:14Z</time>
      </trkpt>
      <trkpt lat="44.11154" lon="6.7063">
        <ele>2279.7</ele>
        <time>2022-09-18T00:40:15Z</time>
      </trkpt>
      <trkpt lat="44.11154" lon="6.7063">
        <ele>2279.8</ele>
        <time>2022-09-18T00:40:16Z</time>
      </trkpt>
      <trkpt lat="44.11153" lon="6.70629">
        <ele>2279.8</ele>
        <time>2022-09-18T00:40:17Z</time>
      </trkpt>
      <trkpt lat="44.11153" lon="6.70628">
        <ele>2279.8</ele>
        <time>2022-09-18T00:40:19Z</time>
      </trkpt>
      <trkpt lat="44.11153" lon="6.70628">
        <ele>2279.8</ele>
        <time>2022-09-18T00:40:20Z</time>
      </trkpt>
      <trkpt lat="44.11153" lon="6.70627">
        <ele>2279.9</ele>
        <time>2022-09-18T00:40:21Z</time>
      </trkpt>
      <trkpt lat="44.11153" lon="6.70626">
        <ele>2279.9</ele>
        <time>2022-09-18T00:40:23Z</time>
      </trkpt>
      <trkpt lat="44.11153" lon="6.70626">
        <ele>2279.9</ele>
        <time>2022-09-18T00:40:24Z</time>
      </trkpt>
      <trkpt lat="44.11153" lon="6.70626">
        <ele>2279.9</ele>
        <time>2022-09-18T00:40:25Z</time>
      </trkpt>
      <trkpt lat="44.11153" lon="6.70626">
        <ele>2279.9</ele>
        <time>2022-09-18T00:40:26Z</time>
      </trkpt>
      <trkpt lat="44.11153" lon="6.70626">
        <ele>2279.9</ele>
        <time>2022-09-18T00:40:27Z</time>
      </trkpt>
      <trkpt lat="44.11153" lon="6.70626">
        <ele>2279.9</ele>
        <time>2022-09-18T00:40:28Z</time>
      </trkpt>
      <trkpt lat="44.11153" lon="6.70625">
        <ele>2279.9</ele>
        <time>2022-09-18T00:40:29Z</time>
      </trkpt>
      <trkpt lat="44.11153" lon="6.70624">
        <ele>2280</ele>
        <time>2022-09-18T00:40:30Z</time>
      </trkpt>
      <trkpt lat="44.11155" lon="6.70623">
        <ele>2280</ele>
        <time>2022-09-18T00:40:31Z</time>
      </trkpt>
      <trkpt lat="44.11156" lon="6.70623">
        <ele>2280.1</ele>
        <time>2022-09-18T00:40:32Z</time>
      </trkpt>
      <trkpt lat="44.11157" lon="6.70624">
        <ele>2280.1</ele>
        <time>2022-09-18T00:40:33Z</time>
      </trkpt>
      <trkpt lat="44.11157" lon="6.70624">
        <ele>2280.1</ele>
        <time>2022-09-18T00:40:35Z</time>
      </trkpt>
      <trkpt lat="44.11155" lon="6.70624">
        <ele>2280.2</ele>
        <time>2022-09-18T00:40:37Z</time>
      </trkpt>
      <trkpt lat="44.11153" lon="6.70623">
        <ele>2280.2</ele>
        <time>2022-09-18T00:40:38Z</time>
      </trkpt>
      <trkpt lat="44.11153" lon="6.70622">
        <ele>2280.3</ele>
        <time>2022-09-18T00:40:39Z</time>
      </trkpt>
      <trkpt lat="44.11152" lon="6.70621">
        <ele>2280.3</ele>
        <time>2022-09-18T00:40:40Z</time>
      </trkpt>
      <trkpt lat="44.11151" lon="6.70621">
        <ele>2280.3</ele>
        <time>2022-09-18T00:40:41Z</time>
      </trkpt>
      <trkpt lat="44.1115" lon="6.7062">
        <ele>2280.3</ele>
        <time>2022-09-18T00:40:42Z</time>
      </trkpt>
      <trkpt lat="44.11149" lon="6.70619">
        <ele>2280.3</ele>
        <time>2022-09-18T00:40:43Z</time>
      </trkpt>
      <trkpt lat="44.11149" lon="6.70619">
        <ele>2280.3</ele>
        <time>2022-09-18T00:40:44Z</time>
      </trkpt>
      <trkpt lat="44.11149" lon="6.70619">
        <ele>2280.3</ele>
        <time>2022-09-18T00:40:45Z</time>
      </trkpt>
      <trkpt lat="44.1115" lon="6.70619">
        <ele>2280.3</ele>
        <time>2022-09-18T00:40:47Z</time>
      </trkpt>
      <trkpt lat="44.11149" lon="6.70619">
        <ele>2280.3</ele>
        <time>2022-09-18T00:40:48Z</time>
      </trkpt>
      <trkpt lat="44.11149" lon="6.70616">
        <ele>2280.3</ele>
        <time>2022-09-18T00:42:30Z</time>
      </trkpt>
      <trkpt lat="44.11148" lon="6.70616">
        <ele>2280.3</ele>
        <time>2022-09-18T00:42:32Z</time>
      </trkpt>
      <trkpt lat="44.11148" lon="6.70617">
        <ele>2280.3</ele>
        <time>2022-09-18T00:42:34Z</time>
      </trkpt>
      <trkpt lat="44.11148" lon="6.70616">
        <ele>2280.3</ele>
        <time>2022-09-18T00:42:35Z</time>
      </trkpt>
      <trkpt lat="44.11148" lon="6.70616">
        <ele>2280.3</ele>
        <time>2022-09-18T00:42:36Z</time>
      </trkpt>
      <trkpt lat="44.11148" lon="6.70615">
        <ele>2280.3</ele>
        <time>2022-09-18T00:42:37Z</time>
      </trkpt>
      <trkpt lat="44.11148" lon="6.70615">
        <ele>2280.3</ele>
        <time>2022-09-18T00:42:38Z</time>
      </trkpt>
      <trkpt lat="44.11148" lon="6.70615">
        <ele>2280.3</ele>
        <time>2022-09-18T00:42:39Z</time>
      </trkpt>
      <trkpt lat="44.11148" lon="6.70615">
        <ele>2280.3</ele>
        <time>2022-09-18T00:42:40Z</time>
      </trkpt>
      <trkpt lat="44.11148" lon="6.70615">
        <ele>2280.3</ele>
        <time>2022-09-18T00:42:42Z</time>
      </trkpt>
      <trkpt lat="44.11148" lon="6.70615">
        <ele>2280.3</ele>
        <time>2022-09-18T00:42:43Z</time>
      </trkpt>
      <trkpt lat="44.11143" lon="6.70615">
        <ele>2280.1</ele>
        <time>2022-09-18T00:44:57Z</time>
      </trkpt>
      <trkpt lat="44.11143" lon="6.70615">
        <ele>2280.1</ele>
        <time>2022-09-18T00:44:58Z</time>
      </trkpt>
      <trkpt lat="44.11143" lon="6.70615">
        <ele>2280.1</ele>
        <time>2022-09-18T00:44:59Z</time>
      </trkpt>
      <trkpt lat="44.11143" lon="6.70615">
        <ele>2280.1</ele>
        <time>2022-09-18T00:45:00Z</time>
      </trkpt>
      <trkpt lat="44.11143" lon="6.70614">
        <ele>2280.1</ele>
        <time>2022-09-18T00:45:01Z</time>
      </trkpt>
      <trkpt lat="44.11143" lon="6.70614">
        <ele>2280.1</ele>
        <time>2022-09-18T00:45:03Z</time>
      </trkpt>
      <trkpt lat="44.11143" lon="6.70614">
        <ele>2280.1</ele>
        <time>2022-09-18T00:45:06Z</time>
      </trkpt>
      <trkpt lat="44.11146" lon="6.70615">
        <ele>2280</ele>
        <time>2022-09-18T00:45:14Z</time>
      </trkpt>
      <trkpt lat="44.11146" lon="6.70615">
        <ele>2280</ele>
        <time>2022-09-18T00:45:16Z</time>
      </trkpt>
      <trkpt lat="44.11144" lon="6.70614">
        <ele>2279.8</ele>
        <time>2022-09-18T00:45:17Z</time>
      </trkpt>
      <trkpt lat="44.11143" lon="6.70613">
        <ele>2279.7</ele>
        <time>2022-09-18T00:45:18Z</time>
      </trkpt>
      <trkpt lat="44.1114" lon="6.70614">
        <ele>2279.5</ele>
        <time>2022-09-18T00:45:19Z</time>
      </trkpt>
      <trkpt lat="44.11129" lon="6.70616">
        <ele>2278.4</ele>
        <time>2022-09-18T00:45:21Z</time>
      </trkpt>
      <trkpt lat="44.11121" lon="6.70618">
        <ele>2277.4</ele>
        <time>2022-09-18T00:45:22Z</time>
      </trkpt>
      <trkpt lat="44.11115" lon="6.7062">
        <ele>2276.6</ele>
        <time>2022-09-18T00:45:23Z</time>
      </trkpt>
      <trkpt lat="44.11109" lon="6.70622">
        <ele>2275.5</ele>
        <time>2022-09-18T00:45:24Z</time>
      </trkpt>
      <trkpt lat="44.11102" lon="6.70624">
        <ele>2274.7</ele>
        <time>2022-09-18T00:45:25Z</time>
      </trkpt>
      <trkpt lat="44.11095" lon="6.70624">
        <ele>2273.9</ele>
        <time>2022-09-18T00:45:26Z</time>
      </trkpt>
      <trkpt lat="44.11087" lon="6.70622">
        <ele>2273.3</ele>
        <time>2022-09-18T00:45:27Z</time>
      </trkpt>
      <trkpt lat="44.1108" lon="6.70619">
        <ele>2272.9</ele>
        <time>2022-09-18T00:45:28Z</time>
      </trkpt>
      <trkpt lat="44.11073" lon="6.70617">
        <ele>2272.7</ele>
        <time>2022-09-18T00:45:29Z</time>
      </trkpt>
      <trkpt lat="44.11067" lon="6.70616">
        <ele>2272.6</ele>
        <time>2022-09-18T00:45:30Z</time>
      </trkpt>
      <trkpt lat="44.11061" lon="6.70618">
        <ele>2272.6</ele>
        <time>2022-09-18T00:45:31Z</time>
      </trkpt>
      <trkpt lat="44.11056" lon="6.7062">
        <ele>2272.5</ele>
        <time>2022-09-18T00:45:32Z</time>
      </trkpt>
      <trkpt lat="44.11051" lon="6.70623">
        <ele>2272.5</ele>
        <time>2022-09-18T00:45:33Z</time>
      </trkpt>
      <trkpt lat="44.11047" lon="6.70623">
        <ele>2272.5</ele>
        <time>2022-09-18T00:45:34Z</time>
      </trkpt>
      <trkpt lat="44.11043" lon="6.70623">
        <ele>2272.5</ele>
        <time>2022-09-18T00:45:35Z</time>
      </trkpt>
      <trkpt lat="44.11038" lon="6.70622">
        <ele>2272.5</ele>
        <time>2022-09-18T00:45:36Z</time>
      </trkpt>
      <trkpt lat="44.11034" lon="6.70622">
        <ele>2272.5</ele>
        <time>2022-09-18T00:45:37Z</time>
      </trkpt>
      <trkpt lat="44.1103" lon="6.70624">
        <ele>2272.5</ele>
        <time>2022-09-18T00:45:38Z</time>
      </trkpt>
      <trkpt lat="44.11026" lon="6.70625">
        <ele>2272.5</ele>
        <time>2022-09-18T00:45:39Z</time>
      </trkpt>
      <trkpt lat="44.11022" lon="6.70626">
        <ele>2272.5</ele>
        <time>2022-09-18T00:45:40Z</time>
      </trkpt>
      <trkpt lat="44.11019" lon="6.70626">
        <ele>2272.5</ele>
        <time>2022-09-18T00:45:41Z</time>
      </trkpt>
      <trkpt lat="44.11018" lon="6.70625">
        <ele>2272.5</ele>
        <time>2022-09-18T00:45:42Z</time>
      </trkpt>
      <trkpt lat="44.11015" lon="6.70624">
        <ele>2272.5</ele>
        <time>2022-09-18T00:45:43Z</time>
      </trkpt>
      <trkpt lat="44.1101" lon="6.70622">
        <ele>2272.4</ele>
        <time>2022-09-18T00:45:44Z</time>
      </trkpt>
      <trkpt lat="44.11004" lon="6.7062">
        <ele>2272.3</ele>
        <time>2022-09-18T00:45:45Z</time>
      </trkpt>
      <trkpt lat="44.10998" lon="6.70619">
        <ele>2272.1</ele>
        <time>2022-09-18T00:45:46Z</time>
      </trkpt>
      <trkpt lat="44.10993" lon="6.70618">
        <ele>2271.8</ele>
        <time>2022-09-18T00:45:47Z</time>
      </trkpt>
      <trkpt lat="44.10988" lon="6.70618">
        <ele>2271.6</ele>
        <time>2022-09-18T00:45:48Z</time>
      </trkpt>
      <trkpt lat="44.10984" lon="6.70617">
        <ele>2271.4</ele>
        <time>2022-09-18T00:45:49Z</time>
      </trkpt>
      <trkpt lat="44.10979" lon="6.70616">
        <ele>2271.2</ele>
        <time>2022-09-18T00:45:50Z</time>
      </trkpt>
      <trkpt lat="44.10974" lon="6.70616">
        <ele>2271</ele>
        <time>2022-09-18T00:45:51Z</time>
      </trkpt>
      <trkpt lat="44.10969" lon="6.70616">
        <ele>2270.8</ele>
        <time>2022-09-18T00:45:52Z</time>
      </trkpt>
      <trkpt lat="44.10964" lon="6.70617">
        <ele>2270.6</ele>
        <time>2022-09-18T00:45:53Z</time>
      </trkpt>
      <trkpt lat="44.1096" lon="6.70617">
        <ele>2270.4</ele>
        <time>2022-09-18T00:45:54Z</time>
      </trkpt>
      <trkpt lat="44.10956" lon="6.70619">
        <ele>2270.3</ele>
        <time>2022-09-18T00:45:55Z</time>
      </trkpt>
      <trkpt lat="44.10952" lon="6.7062">
        <ele>2270.1</ele>
        <time>2022-09-18T00:45:56Z</time>
      </trkpt>
      <trkpt lat="44.10948" lon="6.70624">
        <ele>2269.9</ele>
        <time>2022-09-18T00:45:57Z</time>
      </trkpt>
      <trkpt lat="44.10944" lon="6.70626">
        <ele>2269.7</ele>
        <time>2022-09-18T00:45:58Z</time>
      </trkpt>
      <trkpt lat="44.10941" lon="6.70625">
        <ele>2269.6</ele>
        <time>2022-09-18T00:45:59Z</time>
      </trkpt>
      <trkpt lat="44.10939" lon="6.70624">
        <ele>2269.5</ele>
        <time>2022-09-18T00:46:00Z</time>
      </trkpt>
      <trkpt lat="44.10936" lon="6.70626">
        <ele>2269.4</ele>
        <time>2022-09-18T00:46:01Z</time>
      </trkpt>
      <trkpt lat="44.1093" lon="6.70631">
        <ele>2269.2</ele>
        <time>2022-09-18T00:46:02Z</time>
      </trkpt>
      <trkpt lat="44.10925" lon="6.70635">
        <ele>2269.1</ele>
        <time>2022-09-18T00:46:03Z</time>
      </trkpt>
      <trkpt lat="44.10921" lon="6.70638">
        <ele>2269</ele>
        <time>2022-09-18T00:46:04Z</time>
      </trkpt>
      <trkpt lat="44.10915" lon="6.70642">
        <ele>2268.9</ele>
        <time>2022-09-18T00:46:06Z</time>
      </trkpt>
      <trkpt lat="44.1091" lon="6.70645">
        <ele>2268.8</ele>
        <time>2022-09-18T00:46:07Z</time>
      </trkpt>
      <trkpt lat="44.10906" lon="6.70647">
        <ele>2268.8</ele>
        <time>2022-09-18T00:46:08Z</time>
      </trkpt>
      <trkpt lat="44.10902" lon="6.7065">
        <ele>2268.8</ele>
        <time>2022-09-18T00:46:09Z</time>
      </trkpt>
      <trkpt lat="44.10897" lon="6.70651">
        <ele>2268.8</ele>
        <time>2022-09-18T00:46:10Z</time>
      </trkpt>
      <trkpt lat="44.10894" lon="6.70652">
        <ele>2268.9</ele>
        <time>2022-09-18T00:46:11Z</time>
      </trkpt>
      <trkpt lat="44.1089" lon="6.70654">
        <ele>2269</ele>
        <time>2022-09-18T00:46:12Z</time>
      </trkpt>
      <trkpt lat="44.10888" lon="6.70655">
        <ele>2269</ele>
        <time>2022-09-18T00:46:13Z</time>
      </trkpt>
      <trkpt lat="44.10882" lon="6.70656">
        <ele>2269.2</ele>
        <time>2022-09-18T00:46:14Z</time>
      </trkpt>
      <trkpt lat="44.10876" lon="6.70657">
        <ele>2269.5</ele>
        <time>2022-09-18T00:46:15Z</time>
      </trkpt>
      <trkpt lat="44.10872" lon="6.70658">
        <ele>2269.7</ele>
        <time>2022-09-18T00:46:16Z</time>
      </trkpt>
      <trkpt lat="44.10864" lon="6.70661">
        <ele>2270.1</ele>
        <time>2022-09-18T00:46:18Z</time>
      </trkpt>
      <trkpt lat="44.1086" lon="6.70663">
        <ele>2270.3</ele>
        <time>2022-09-18T00:46:19Z</time>
      </trkpt>
      <trkpt lat="44.10859" lon="6.70664">
        <ele>2270.4</ele>
        <time>2022-09-18T00:46:20Z</time>
      </trkpt>
      <trkpt lat="44.10855" lon="6.7067">
        <ele>2270.7</ele>
        <time>2022-09-18T00:46:22Z</time>
      </trkpt>
      <trkpt lat="44.10852" lon="6.7067">
        <ele>2271</ele>
        <time>2022-09-18T00:46:23Z</time>
      </trkpt>
      <trkpt lat="44.10847" lon="6.70668">
        <ele>2271.3</ele>
        <time>2022-09-18T00:46:24Z</time>
      </trkpt>
      <trkpt lat="44.1084" lon="6.70667">
        <ele>2271.8</ele>
        <time>2022-09-18T00:46:25Z</time>
      </trkpt>
      <trkpt lat="44.10834" lon="6.70667">
        <ele>2272.1</ele>
        <time>2022-09-18T00:46:26Z</time>
      </trkpt>
      <trkpt lat="44.10828" lon="6.70666">
        <ele>2272.5</ele>
        <time>2022-09-18T00:46:28Z</time>
      </trkpt>
      <trkpt lat="44.10824" lon="6.70665">
        <ele>2272.7</ele>
        <time>2022-09-18T00:46:29Z</time>
      </trkpt>
      <trkpt lat="44.1082" lon="6.70665">
        <ele>2272.9</ele>
        <time>2022-09-18T00:46:31Z</time>
      </trkpt>
      <trkpt lat="44.10816" lon="6.70665">
        <ele>2273</ele>
        <time>2022-09-18T00:46:32Z</time>
      </trkpt>
      <trkpt lat="44.10812" lon="6.70665">
        <ele>2273.2</ele>
        <time>2022-09-18T00:46:33Z</time>
      </trkpt>
      <trkpt lat="44.10807" lon="6.70666">
        <ele>2273.4</ele>
        <time>2022-09-18T00:46:34Z</time>
      </trkpt>
      <trkpt lat="44.10801" lon="6.70666">
        <ele>2273.5</ele>
        <time>2022-09-18T00:46:35Z</time>
      </trkpt>
      <trkpt lat="44.10798" lon="6.70667">
        <ele>2273.6</ele>
        <time>2022-09-18T00:46:36Z</time>
      </trkpt>
      <trkpt lat="44.10794" lon="6.70668">
        <ele>2273.8</ele>
        <time>2022-09-18T00:46:37Z</time>
      </trkpt>
      <trkpt lat="44.1079" lon="6.70668">
        <ele>2273.9</ele>
        <time>2022-09-18T00:46:38Z</time>
      </trkpt>
      <trkpt lat="44.10785" lon="6.7067">
        <ele>2274</ele>
        <time>2022-09-18T00:46:40Z</time>
      </trkpt>
      <trkpt lat="44.10781" lon="6.70671">
        <ele>2274.2</ele>
        <time>2022-09-18T00:46:41Z</time>
      </trkpt>
      <trkpt lat="44.10776" lon="6.70673">
        <ele>2274.4</ele>
        <time>2022-09-18T00:46:42Z</time>
      </trkpt>
      <trkpt lat="44.10771" lon="6.70674">
        <ele>2274.6</ele>
        <time>2022-09-18T00:46:44Z</time>
      </trkpt>
      <trkpt lat="44.10768" lon="6.70673">
        <ele>2274.8</ele>
        <time>2022-09-18T00:46:45Z</time>
      </trkpt>
      <trkpt lat="44.10765" lon="6.70672">
        <ele>2274.9</ele>
        <time>2022-09-18T00:46:46Z</time>
      </trkpt>
      <trkpt lat="44.10762" lon="6.70669">
        <ele>2275.1</ele>
        <time>2022-09-18T00:46:47Z</time>
      </trkpt>
      <trkpt lat="44.10756" lon="6.70665">
        <ele>2275.4</ele>
        <time>2022-09-18T00:46:49Z</time>
      </trkpt>
      <trkpt lat="44.1075" lon="6.70664">
        <ele>2275.6</ele>
        <time>2022-09-18T00:46:50Z</time>
      </trkpt>
      <trkpt lat="44.10746" lon="6.70664">
        <ele>2275.8</ele>
        <time>2022-09-18T00:46:51Z</time>
      </trkpt>
      <trkpt lat="44.10741" lon="6.70664">
        <ele>2276</ele>
        <time>2022-09-18T00:46:53Z</time>
      </trkpt>
      <trkpt lat="44.10737" lon="6.70664">
        <ele>2276.1</ele>
        <time>2022-09-18T00:46:54Z</time>
      </trkpt>
      <trkpt lat="44.10733" lon="6.70664">
        <ele>2276.3</ele>
        <time>2022-09-18T00:46:55Z</time>
      </trkpt>
      <trkpt lat="44.1073" lon="6.70664">
        <ele>2276.5</ele>
        <time>2022-09-18T00:46:56Z</time>
      </trkpt>
      <trkpt lat="44.10727" lon="6.70664">
        <ele>2276.6</ele>
        <time>2022-09-18T00:46:57Z</time>
      </trkpt>
      <trkpt lat="44.10723" lon="6.70664">
        <ele>2276.8</ele>
        <time>2022-09-18T00:46:58Z</time>
      </trkpt>
      <trkpt lat="44.10717" lon="6.70662">
        <ele>2277.2</ele>
        <time>2022-09-18T00:46:59Z</time>
      </trkpt>
      <trkpt lat="44.10713" lon="6.70661">
        <ele>2277.5</ele>
        <time>2022-09-18T00:47:01Z</time>
      </trkpt>
      <trkpt lat="44.10709" lon="6.70661">
        <ele>2277.7</ele>
        <time>2022-09-18T00:47:02Z</time>
      </trkpt>
      <trkpt lat="44.10705" lon="6.7066">
        <ele>2277.9</ele>
        <time>2022-09-18T00:47:03Z</time>
      </trkpt>
      <trkpt lat="44.10702" lon="6.70659">
        <ele>2278.1</ele>
        <time>2022-09-18T00:47:04Z</time>
      </trkpt>
      <trkpt lat="44.10697" lon="6.70657">
        <ele>2278.4</ele>
        <time>2022-09-18T00:47:05Z</time>
      </trkpt>
      <trkpt lat="44.10693" lon="6.70654">
        <ele>2278.7</ele>
        <time>2022-09-18T00:47:07Z</time>
      </trkpt>
      <trkpt lat="44.10689" lon="6.7065">
        <ele>2279</ele>
        <time>2022-09-18T00:47:08Z</time>
      </trkpt>
      <trkpt lat="44.10685" lon="6.70646">
        <ele>2279.3</ele>
        <time>2022-09-18T00:47:09Z</time>
      </trkpt>
      <trkpt lat="44.10683" lon="6.70644">
        <ele>2279.5</ele>
        <time>2022-09-18T00:47:10Z</time>
      </trkpt>
      <trkpt lat="44.10679" lon="6.70642">
        <ele>2279.7</ele>
        <time>2022-09-18T00:47:12Z</time>
      </trkpt>
      <trkpt lat="44.10678" lon="6.70642">
        <ele>2279.8</ele>
        <time>2022-09-18T00:47:13Z</time>
      </trkpt>
      <trkpt lat="44.10674" lon="6.70641">
        <ele>2280</ele>
        <time>2022-09-18T00:47:14Z</time>
      </trkpt>
      <trkpt lat="44.1067" lon="6.7064">
        <ele>2280.3</ele>
        <time>2022-09-18T00:47:16Z</time>
      </trkpt>
      <trkpt lat="44.10667" lon="6.70639">
        <ele>2280.4</ele>
        <time>2022-09-18T00:47:17Z</time>
      </trkpt>
      <trkpt lat="44.10664" lon="6.70638">
        <ele>2280.5</ele>
        <time>2022-09-18T00:47:18Z</time>
      </trkpt>
      <trkpt lat="44.10662" lon="6.70637">
        <ele>2280.6</ele>
        <time>2022-09-18T00:47:19Z</time>
      </trkpt>
      <trkpt lat="44.10655" lon="6.70635">
        <ele>2280.8</ele>
        <time>2022-09-18T00:47:20Z</time>
      </trkpt>
      <trkpt lat="44.10651" lon="6.70634">
        <ele>2280.8</ele>
        <time>2022-09-18T00:47:22Z</time>
      </trkpt>
      <trkpt lat="44.10648" lon="6.70634">
        <ele>2280.9</ele>
        <time>2022-09-18T00:47:23Z</time>
      </trkpt>
      <trkpt lat="44.10644" lon="6.70633">
        <ele>2280.9</ele>
        <time>2022-09-18T00:47:24Z</time>
      </trkpt>
      <trkpt lat="44.10641" lon="6.70633">
        <ele>2280.9</ele>
        <time>2022-09-18T00:47:25Z</time>
      </trkpt>
      <trkpt lat="44.10638" lon="6.70632">
        <ele>2280.9</ele>
        <time>2022-09-18T00:47:26Z</time>
      </trkpt>
      <trkpt lat="44.10635" lon="6.70632">
        <ele>2280.9</ele>
        <time>2022-09-18T00:47:27Z</time>
      </trkpt>
      <trkpt lat="44.1063" lon="6.70633">
        <ele>2280.8</ele>
        <time>2022-09-18T00:47:28Z</time>
      </trkpt>
      <trkpt lat="44.10626" lon="6.70634">
        <ele>2280.8</ele>
        <time>2022-09-18T00:47:29Z</time>
      </trkpt>
      <trkpt lat="44.10622" lon="6.70636">
        <ele>2280.6</ele>
        <time>2022-09-18T00:47:31Z</time>
      </trkpt>
      <trkpt lat="44.10618" lon="6.70638">
        <ele>2280.6</ele>
        <time>2022-09-18T00:47:32Z</time>
      </trkpt>
      <trkpt lat="44.10614" lon="6.7064">
        <ele>2280.4</ele>
        <time>2022-09-18T00:47:33Z</time>
      </trkpt>
      <trkpt lat="44.10609" lon="6.70638">
        <ele>2280.2</ele>
        <time>2022-09-18T00:47:35Z</time>
      </trkpt>
      <trkpt lat="44.10608" lon="6.70635">
        <ele>2280</ele>
        <time>2022-09-18T00:47:36Z</time>
      </trkpt>
      <trkpt lat="44.10606" lon="6.70633">
        <ele>2279.9</ele>
        <time>2022-09-18T00:47:37Z</time>
      </trkpt>
      <trkpt lat="44.10604" lon="6.70628">
        <ele>2279.6</ele>
        <time>2022-09-18T00:47:38Z</time>
      </trkpt>
      <trkpt lat="44.106" lon="6.70621">
        <ele>2279.2</ele>
        <time>2022-09-18T00:47:40Z</time>
      </trkpt>
      <trkpt lat="44.10596" lon="6.70617">
        <ele>2278.8</ele>
        <time>2022-09-18T00:47:41Z</time>
      </trkpt>
      <trkpt lat="44.10591" lon="6.70613">
        <ele>2278.2</ele>
        <time>2022-09-18T00:47:42Z</time>
      </trkpt>
      <trkpt lat="44.10586" lon="6.70611">
        <ele>2277.6</ele>
        <time>2022-09-18T00:47:43Z</time>
      </trkpt>
      <trkpt lat="44.1058" lon="6.70609">
        <ele>2277</ele>
        <time>2022-09-18T00:47:44Z</time>
      </trkpt>
      <trkpt lat="44.10573" lon="6.70608">
        <ele>2276.4</ele>
        <time>2022-09-18T00:47:45Z</time>
      </trkpt>
      <trkpt lat="44.10566" lon="6.70608">
        <ele>2275.8</ele>
        <time>2022-09-18T00:47:46Z</time>
      </trkpt>
      <trkpt lat="44.10559" lon="6.70608">
        <ele>2275.3</ele>
        <time>2022-09-18T00:47:47Z</time>
      </trkpt>
      <trkpt lat="44.10552" lon="6.7061">
        <ele>2275</ele>
        <time>2022-09-18T00:47:48Z</time>
      </trkpt>
      <trkpt lat="44.10546" lon="6.70612">
        <ele>2274.7</ele>
        <time>2022-09-18T00:47:49Z</time>
      </trkpt>
      <trkpt lat="44.1054" lon="6.70613">
        <ele>2274.6</ele>
        <time>2022-09-18T00:47:50Z</time>
      </trkpt>
      <trkpt lat="44.10535" lon="6.70615">
        <ele>2274.6</ele>
        <time>2022-09-18T00:47:51Z</time>
      </trkpt>
      <trkpt lat="44.10531" lon="6.70615">
        <ele>2274.6</ele>
        <time>2022-09-18T00:47:52Z</time>
      </trkpt>
      <trkpt lat="44.10528" lon="6.70615">
        <ele>2274.6</ele>
        <time>2022-09-18T00:47:53Z</time>
      </trkpt>
      <trkpt lat="44.10523" lon="6.70614">
        <ele>2274.5</ele>
        <time>2022-09-18T00:47:54Z</time>
      </trkpt>
      <trkpt lat="44.1052" lon="6.70614">
        <ele>2274.5</ele>
        <time>2022-09-18T00:47:55Z</time>
      </trkpt>
      <trkpt lat="44.10517" lon="6.70615">
        <ele>2274.5</ele>
        <time>2022-09-18T00:47:56Z</time>
      </trkpt>
      <trkpt lat="44.10513" lon="6.70616">
        <ele>2274.6</ele>
        <time>2022-09-18T00:47:57Z</time>
      </trkpt>
      <trkpt lat="44.1051" lon="6.70617">
        <ele>2274.6</ele>
        <time>2022-09-18T00:47:58Z</time>
      </trkpt>
      <trkpt lat="44.10506" lon="6.70615">
        <ele>2274.7</ele>
        <time>2022-09-18T00:47:59Z</time>
      </trkpt>
      <trkpt lat="44.10504" lon="6.70615">
        <ele>2274.7</ele>
        <time>2022-09-18T00:48:00Z</time>
      </trkpt>
      <trkpt lat="44.10501" lon="6.70617">
        <ele>2274.7</ele>
        <time>2022-09-18T00:48:01Z</time>
      </trkpt>
      <trkpt lat="44.10498" lon="6.70618">
        <ele>2274.8</ele>
        <time>2022-09-18T00:48:03Z</time>
      </trkpt>
      <trkpt lat="44.10495" lon="6.70618">
        <ele>2274.9</ele>
        <time>2022-09-18T00:48:04Z</time>
      </trkpt>
      <trkpt lat="44.10491" lon="6.70616">
        <ele>2274.9</ele>
        <time>2022-09-18T00:48:05Z</time>
      </trkpt>
      <trkpt lat="44.10488" lon="6.70615">
        <ele>2274.9</ele>
        <time>2022-09-18T00:48:06Z</time>
      </trkpt>
      <trkpt lat="44.10484" lon="6.70614">
        <ele>2274.9</ele>
        <time>2022-09-18T00:48:07Z</time>
      </trkpt>
      <trkpt lat="44.10483" lon="6.70613">
        <ele>2274.9</ele>
        <time>2022-09-18T00:48:08Z</time>
      </trkpt>
      <trkpt lat="44.10476" lon="6.70609">
        <ele>2274.9</ele>
        <time>2022-09-18T00:48:10Z</time>
      </trkpt>
      <trkpt lat="44.10473" lon="6.70606">
        <ele>2274.9</ele>
        <time>2022-09-18T00:48:12Z</time>
      </trkpt>
      <trkpt lat="44.10469" lon="6.70603">
        <ele>2274.9</ele>
        <time>2022-09-18T00:48:13Z</time>
      </trkpt>
      <trkpt lat="44.1046" lon="6.70599">
        <ele>2275</ele>
        <time>2022-09-18T00:48:15Z</time>
      </trkpt>
      <trkpt lat="44.10455" lon="6.70598">
        <ele>2275</ele>
        <time>2022-09-18T00:48:17Z</time>
      </trkpt>
      <trkpt lat="44.10452" lon="6.70598">
        <ele>2275</ele>
        <time>2022-09-18T00:48:19Z</time>
      </trkpt>
      <trkpt lat="44.10448" lon="6.70597">
        <ele>2275</ele>
        <time>2022-09-18T00:48:20Z</time>
      </trkpt>
      <trkpt lat="44.10447" lon="6.70596">
        <ele>2275.1</ele>
        <time>2022-09-18T00:48:21Z</time>
      </trkpt>
      <trkpt lat="44.10442" lon="6.70597">
        <ele>2275.1</ele>
        <time>2022-09-18T00:48:22Z</time>
      </trkpt>
      <trkpt lat="44.1044" lon="6.70597">
        <ele>2275.1</ele>
        <time>2022-09-18T00:48:24Z</time>
      </trkpt>
      <trkpt lat="44.10438" lon="6.70598">
        <ele>2275.1</ele>
        <time>2022-09-18T00:48:26Z</time>
      </trkpt>
      <trkpt lat="44.10438" lon="6.70597">
        <ele>2275.1</ele>
        <time>2022-09-18T00:48:27Z</time>
      </trkpt>
      <trkpt lat="44.10439" lon="6.70597">
        <ele>2275.1</ele>
        <time>2022-09-18T00:48:28Z</time>
      </trkpt>
      <trkpt lat="44.10439" lon="6.70597">
        <ele>2275.2</ele>
        <time>2022-09-18T00:48:29Z</time>
      </trkpt>
      <trkpt lat="44.10439" lon="6.70597">
        <ele>2275.2</ele>
        <time>2022-09-18T00:48:30Z</time>
      </trkpt>
      <trkpt lat="44.10439" lon="6.70597">
        <ele>2275.2</ele>
        <time>2022-09-18T00:48:31Z</time>
      </trkpt>
      <trkpt lat="44.10439" lon="6.70597">
        <ele>2275.2</ele>
        <time>2022-09-18T00:48:32Z</time>
      </trkpt>
      <trkpt lat="44.1044" lon="6.70597">
        <ele>2275.2</ele>
        <time>2022-09-18T00:48:33Z</time>
      </trkpt>
      <trkpt lat="44.1044" lon="6.70597">
        <ele>2275.3</ele>
        <time>2022-09-18T00:48:34Z</time>
      </trkpt>
      <trkpt lat="44.1044" lon="6.70597">
        <ele>2275.3</ele>
        <time>2022-09-18T00:48:35Z</time>
      </trkpt>
      <trkpt lat="44.1044" lon="6.70597">
        <ele>2275.3</ele>
        <time>2022-09-18T00:48:36Z</time>
      </trkpt>
      <trkpt lat="44.10441" lon="6.70597">
        <ele>2275.3</ele>
        <time>2022-09-18T00:48:37Z</time>
      </trkpt>
      <trkpt lat="44.10441" lon="6.70597">
        <ele>2275.3</ele>
        <time>2022-09-18T00:48:38Z</time>
      </trkpt>
      <trkpt lat="44.10441" lon="6.70597">
        <ele>2275.3</ele>
        <time>2022-09-18T00:48:39Z</time>
      </trkpt>
      <trkpt lat="44.10441" lon="6.70597">
        <ele>2275.4</ele>
        <time>2022-09-18T00:48:40Z</time>
      </trkpt>
      <trkpt lat="44.10437" lon="6.70601">
        <ele>2275.4</ele>
        <time>2022-09-18T00:48:58Z</time>
      </trkpt>
      <trkpt lat="44.10437" lon="6.70601">
        <ele>2275.4</ele>
        <time>2022-09-18T00:49:00Z</time>
      </trkpt>
      <trkpt lat="44.10437" lon="6.70602">
        <ele>2275.4</ele>
        <time>2022-09-18T00:49:01Z</time>
      </trkpt>
      <trkpt lat="44.10437" lon="6.70602">
        <ele>2275.5</ele>
        <time>2022-09-18T00:49:02Z</time>
      </trkpt>
      <trkpt lat="44.10437" lon="6.70603">
        <ele>2275.5</ele>
        <time>2022-09-18T00:49:03Z</time>
      </trkpt>
      <trkpt lat="44.10437" lon="6.70603">
        <ele>2275.5</ele>
        <time>2022-09-18T00:49:04Z</time>
      </trkpt>
      <trkpt lat="44.10436" lon="6.70603">
        <ele>2275.5</ele>
        <time>2022-09-18T00:49:05Z</time>
      </trkpt>
      <trkpt lat="44.10436" lon="6.70604">
        <ele>2275.5</ele>
        <time>2022-09-18T00:49:07Z</time>
      </trkpt>
      <trkpt lat="44.10437" lon="6.70605">
        <ele>2275.6</ele>
        <time>2022-09-18T00:49:08Z</time>
      </trkpt>
      <trkpt lat="44.10437" lon="6.70606">
        <ele>2275.6</ele>
        <time>2022-09-18T00:49:09Z</time>
      </trkpt>
      <trkpt lat="44.10437" lon="6.70606">
        <ele>2275.6</ele>
        <time>2022-09-18T00:49:11Z</time>
      </trkpt>
      <trkpt lat="44.10438" lon="6.70605">
        <ele>2275.6</ele>
        <time>2022-09-18T00:49:12Z</time>
      </trkpt>
      <trkpt lat="44.10438" lon="6.70605">
        <ele>2275.6</ele>
        <time>2022-09-18T00:49:13Z</time>
      </trkpt>
      <trkpt lat="44.10438" lon="6.70604">
        <ele>2275.7</ele>
        <time>2022-09-18T00:49:14Z</time>
      </trkpt>
      <trkpt lat="44.10438" lon="6.70604">
        <ele>2275.7</ele>
        <time>2022-09-18T00:49:15Z</time>
      </trkpt>
      <trkpt lat="44.10438" lon="6.70604">
        <ele>2275.7</ele>
        <time>2022-09-18T00:49:16Z</time>
      </trkpt>
      <trkpt lat="44.10438" lon="6.70604">
        <ele>2275.7</ele>
        <time>2022-09-18T00:49:17Z</time>
      </trkpt>
      <trkpt lat="44.10438" lon="6.70604">
        <ele>2275.7</ele>
        <time>2022-09-18T00:49:18Z</time>
      </trkpt>
      <trkpt lat="44.10438" lon="6.70603">
        <ele>2275.8</ele>
        <time>2022-09-18T00:49:20Z</time>
      </trkpt>
      <trkpt lat="44.10438" lon="6.70603">
        <ele>2275.8</ele>
        <time>2022-09-18T00:49:21Z</time>
      </trkpt>
      <trkpt lat="44.10438" lon="6.70602">
        <ele>2275.8</ele>
        <time>2022-09-18T00:49:22Z</time>
      </trkpt>
      <trkpt lat="44.10438" lon="6.70601">
        <ele>2275.9</ele>
        <time>2022-09-18T00:49:23Z</time>
      </trkpt>
      <trkpt lat="44.10439" lon="6.70601">
        <ele>2275.9</ele>
        <time>2022-09-18T00:49:24Z</time>
      </trkpt>
      <trkpt lat="44.10439" lon="6.706">
        <ele>2275.9</ele>
        <time>2022-09-18T00:49:25Z</time>
      </trkpt>
      <trkpt lat="44.10438" lon="6.70601">
        <ele>2275.9</ele>
        <time>2022-09-18T00:49:27Z</time>
      </trkpt>
      <trkpt lat="44.10438" lon="6.70601">
        <ele>2275.9</ele>
        <time>2022-09-18T00:49:28Z</time>
      </trkpt>
      <trkpt lat="44.10437" lon="6.70601">
        <ele>2276</ele>
        <time>2022-09-18T00:49:29Z</time>
      </trkpt>
      <trkpt lat="44.10437" lon="6.70601">
        <ele>2276</ele>
        <time>2022-09-18T00:49:30Z</time>
      </trkpt>
      <trkpt lat="44.10437" lon="6.70602">
        <ele>2276</ele>
        <time>2022-09-18T00:49:31Z</time>
      </trkpt>
      <trkpt lat="44.10437" lon="6.70602">
        <ele>2276</ele>
        <time>2022-09-18T00:49:32Z</time>
      </trkpt>
      <trkpt lat="44.10437" lon="6.70602">
        <ele>2276</ele>
        <time>2022-09-18T00:49:33Z</time>
      </trkpt>
      <trkpt lat="44.10437" lon="6.70602">
        <ele>2276.1</ele>
        <time>2022-09-18T00:49:34Z</time>
      </trkpt>
      <trkpt lat="44.10437" lon="6.70601">
        <ele>2276.1</ele>
        <time>2022-09-18T00:49:35Z</time>
      </trkpt>
      <trkpt lat="44.10437" lon="6.70601">
        <ele>2276.2</ele>
        <time>2022-09-18T00:49:36Z</time>
      </trkpt>
      <trkpt lat="44.10437" lon="6.70601">
        <ele>2276.2</ele>
        <time>2022-09-18T00:49:37Z</time>
      </trkpt>
      <trkpt lat="44.10437" lon="6.706">
        <ele>2276.2</ele>
        <time>2022-09-18T00:49:38Z</time>
      </trkpt>
      <trkpt lat="44.10437" lon="6.706">
        <ele>2276.2</ele>
        <time>2022-09-18T00:49:39Z</time>
      </trkpt>
      <trkpt lat="44.10437" lon="6.706">
        <ele>2276.2</ele>
        <time>2022-09-18T00:49:40Z</time>
      </trkpt>
      <trkpt lat="44.10437" lon="6.706">
        <ele>2276.3</ele>
        <time>2022-09-18T00:49:41Z</time>
      </trkpt>
      <trkpt lat="44.10437" lon="6.706">
        <ele>2276.3</ele>
        <time>2022-09-18T00:49:42Z</time>
      </trkpt>
      <trkpt lat="44.1044" lon="6.70598">
        <ele>2276.4</ele>
        <time>2022-09-18T00:50:34Z</time>
      </trkpt>
      <trkpt lat="44.10439" lon="6.70598">
        <ele>2276.4</ele>
        <time>2022-09-18T00:50:35Z</time>
      </trkpt>
      <trkpt lat="44.10439" lon="6.70597">
        <ele>2276.4</ele>
        <time>2022-09-18T00:50:41Z</time>
      </trkpt>
      <trkpt lat="44.10438" lon="6.70597">
        <ele>2276.5</ele>
        <time>2022-09-18T00:50:42Z</time>
      </trkpt>
      <trkpt lat="44.10439" lon="6.70597">
        <ele>2276.5</ele>
        <time>2022-09-18T00:50:43Z</time>
      </trkpt>
      <trkpt lat="44.10439" lon="6.70597">
        <ele>2276.5</ele>
        <time>2022-09-18T00:50:44Z</time>
      </trkpt>
      <trkpt lat="44.10439" lon="6.70597">
        <ele>2276.5</ele>
        <time>2022-09-18T00:50:45Z</time>
      </trkpt>
      <trkpt lat="44.10438" lon="6.70597">
        <ele>2276.5</ele>
        <time>2022-09-18T00:50:46Z</time>
      </trkpt>
      <trkpt lat="44.10438" lon="6.70597">
        <ele>2276.6</ele>
        <time>2022-09-18T00:50:48Z</time>
      </trkpt>
      <trkpt lat="44.10438" lon="6.70597">
        <ele>2276.7</ele>
        <time>2022-09-18T00:50:51Z</time>
      </trkpt>
      <trkpt lat="44.10439" lon="6.70597">
        <ele>2276.7</ele>
        <time>2022-09-18T00:50:53Z</time>
      </trkpt>
      <trkpt lat="44.10439" lon="6.70597">
        <ele>2276.7</ele>
        <time>2022-09-18T00:50:55Z</time>
      </trkpt>
      <trkpt lat="44.10439" lon="6.70597">
        <ele>2276.8</ele>
        <time>2022-09-18T00:50:57Z</time>
      </trkpt>
      <trkpt lat="44.10439" lon="6.70597">
        <ele>2276.8</ele>
        <time>2022-09-18T00:50:59Z</time>
      </trkpt>
      <trkpt lat="44.10439" lon="6.70597">
        <ele>2276.8</ele>
        <time>2022-09-18T00:51:00Z</time>
      </trkpt>
      <trkpt lat="44.10438" lon="6.70597">
        <ele>2276.9</ele>
        <time>2022-09-18T00:51:01Z</time>
      </trkpt>
      <trkpt lat="44.10438" lon="6.70597">
        <ele>2276.9</ele>
        <time>2022-09-18T00:51:03Z</time>
      </trkpt>
      <trkpt lat="44.10438" lon="6.70597">
        <ele>2277</ele>
        <time>2022-09-18T00:51:06Z</time>
      </trkpt>
      <trkpt lat="44.10438" lon="6.70597">
        <ele>2277.1</ele>
        <time>2022-09-18T00:51:10Z</time>
      </trkpt>
      <trkpt lat="44.10438" lon="6.70597">
        <ele>2277.1</ele>
        <time>2022-09-18T00:51:14Z</time>
      </trkpt>
      <trkpt lat="44.10438" lon="6.70597">
        <ele>2277.2</ele>
        <time>2022-09-18T00:51:18Z</time>
      </trkpt>
      <trkpt lat="44.10438" lon="6.70597">
        <ele>2277.2</ele>
        <time>2022-09-18T00:51:22Z</time>
      </trkpt>
      <trkpt lat="44.10438" lon="6.70597">
        <ele>2277.2</ele>
        <time>2022-09-18T00:51:26Z</time>
      </trkpt>
      <trkpt lat="44.10438" lon="6.70597">
        <ele>2277.2</ele>
        <time>2022-09-18T00:51:30Z</time>
      </trkpt>
      <trkpt lat="44.10438" lon="6.70597">
        <ele>2277.2</ele>
        <time>2022-09-18T00:51:34Z</time>
      </trkpt>
      <trkpt lat="44.10438" lon="6.70597">
        <ele>2277.2</ele>
        <time>2022-09-18T00:51:35Z</time>
      </trkpt>
      <trkpt lat="44.10438" lon="6.70596">
        <ele>2277.3</ele>
        <time>2022-09-18T00:51:36Z</time>
      </trkpt>
      <trkpt lat="44.10438" lon="6.70597">
        <ele>2277.3</ele>
        <time>2022-09-18T00:51:37Z</time>
      </trkpt>
      <trkpt lat="44.10438" lon="6.70598">
        <ele>2277.3</ele>
        <time>2022-09-18T00:51:38Z</time>
      </trkpt>
      <trkpt lat="44.10438" lon="6.70598">
        <ele>2277.3</ele>
        <time>2022-09-18T00:51:39Z</time>
      </trkpt>
      <trkpt lat="44.10438" lon="6.70598">
        <ele>2277.3</ele>
        <time>2022-09-18T00:51:43Z</time>
      </trkpt>
      <trkpt lat="44.10442" lon="6.70594">
        <ele>2277.4</ele>
        <time>2022-09-18T00:52:09Z</time>
      </trkpt>
      <trkpt lat="44.10442" lon="6.70594">
        <ele>2277.4</ele>
        <time>2022-09-18T00:52:10Z</time>
      </trkpt>
      <trkpt lat="44.10441" lon="6.70595">
        <ele>2277.4</ele>
        <time>2022-09-18T00:52:11Z</time>
      </trkpt>
      <trkpt lat="44.10441" lon="6.70595">
        <ele>2277.4</ele>
        <time>2022-09-18T00:52:13Z</time>
      </trkpt>
      <trkpt lat="44.10441" lon="6.70595">
        <ele>2277.4</ele>
        <time>2022-09-18T00:52:14Z</time>
      </trkpt>
      <trkpt lat="44.10441" lon="6.70596">
        <ele>2277.4</ele>
        <time>2022-09-18T00:52:15Z</time>
      </trkpt>
      <trkpt lat="44.1044" lon="6.70596">
        <ele>2277.4</ele>
        <time>2022-09-18T00:52:16Z</time>
      </trkpt>
      <trkpt lat="44.1044" lon="6.70596">
        <ele>2277.4</ele>
        <time>2022-09-18T00:52:17Z</time>
      </trkpt>
      <trkpt lat="44.1044" lon="6.70596">
        <ele>2277.4</ele>
        <time>2022-09-18T00:52:18Z</time>
      </trkpt>
      <trkpt lat="44.10441" lon="6.70597">
        <ele>2277.5</ele>
        <time>2022-09-18T00:52:19Z</time>
      </trkpt>
      <trkpt lat="44.10441" lon="6.70597">
        <ele>2277.5</ele>
        <time>2022-09-18T00:52:20Z</time>
      </trkpt>
      <trkpt lat="44.10441" lon="6.70598">
        <ele>2277.5</ele>
        <time>2022-09-18T00:52:22Z</time>
      </trkpt>
      <trkpt lat="44.10441" lon="6.70599">
        <ele>2277.5</ele>
        <time>2022-09-18T00:52:23Z</time>
      </trkpt>
      <trkpt lat="44.10441" lon="6.706">
        <ele>2277.5</ele>
        <time>2022-09-18T00:52:24Z</time>
      </trkpt>
      <trkpt lat="44.10441" lon="6.706">
        <ele>2277.5</ele>
        <time>2022-09-18T00:52:25Z</time>
      </trkpt>
      <trkpt lat="44.10441" lon="6.706">
        <ele>2277.5</ele>
        <time>2022-09-18T00:52:26Z</time>
      </trkpt>
      <trkpt lat="44.1044" lon="6.70601">
        <ele>2277.5</ele>
        <time>2022-09-18T00:52:27Z</time>
      </trkpt>
      <trkpt lat="44.1044" lon="6.70601">
        <ele>2277.5</ele>
        <time>2022-09-18T00:52:28Z</time>
      </trkpt>
      <trkpt lat="44.1044" lon="6.70601">
        <ele>2277.5</ele>
        <time>2022-09-18T00:52:29Z</time>
      </trkpt>
      <trkpt lat="44.1044" lon="6.70601">
        <ele>2277.6</ele>
        <time>2022-09-18T00:52:30Z</time>
      </trkpt>
      <trkpt lat="44.1044" lon="6.70601">
        <ele>2277.6</ele>
        <time>2022-09-18T00:52:31Z</time>
      </trkpt>
      <trkpt lat="44.1044" lon="6.70601">
        <ele>2277.6</ele>
        <time>2022-09-18T00:52:32Z</time>
      </trkpt>
      <trkpt lat="44.1044" lon="6.70602">
        <ele>2277.6</ele>
        <time>2022-09-18T00:52:33Z</time>
      </trkpt>
      <trkpt lat="44.1044" lon="6.70602">
        <ele>2277.6</ele>
        <time>2022-09-18T00:52:34Z</time>
      </trkpt>
      <trkpt lat="44.10439" lon="6.70597">
        <ele>2277.6</ele>
        <time>2022-09-18T00:54:13Z</time>
      </trkpt>
      <trkpt lat="44.10439" lon="6.70597">
        <ele>2277.6</ele>
        <time>2022-09-18T00:54:14Z</time>
      </trkpt>
      <trkpt lat="44.10439" lon="6.70597">
        <ele>2277.7</ele>
        <time>2022-09-18T00:54:15Z</time>
      </trkpt>
      <trkpt lat="44.10439" lon="6.70597">
        <ele>2277.7</ele>
        <time>2022-09-18T00:54:16Z</time>
      </trkpt>
      <trkpt lat="44.10439" lon="6.70598">
        <ele>2277.7</ele>
        <time>2022-09-18T00:54:17Z</time>
      </trkpt>
      <trkpt lat="44.10439" lon="6.70598">
        <ele>2277.7</ele>
        <time>2022-09-18T00:54:18Z</time>
      </trkpt>
      <trkpt lat="44.10439" lon="6.70598">
        <ele>2277.7</ele>
        <time>2022-09-18T00:54:19Z</time>
      </trkpt>
      <trkpt lat="44.10439" lon="6.70598">
        <ele>2277.7</ele>
        <time>2022-09-18T00:54:23Z</time>
      </trkpt>
      <trkpt lat="44.10439" lon="6.70598">
        <ele>2277.7</ele>
        <time>2022-09-18T00:54:27Z</time>
      </trkpt>
      <trkpt lat="44.10439" lon="6.70598">
        <ele>2277.7</ele>
        <time>2022-09-18T00:54:31Z</time>
      </trkpt>
      <trkpt lat="44.10439" lon="6.70598">
        <ele>2277.7</ele>
        <time>2022-09-18T00:54:35Z</time>
      </trkpt>
      <trkpt lat="44.10439" lon="6.70598">
        <ele>2277.7</ele>
        <time>2022-09-18T00:54:39Z</time>
      </trkpt>
      <trkpt lat="44.10439" lon="6.70598">
        <ele>2277.7</ele>
        <time>2022-09-18T00:54:43Z</time>
      </trkpt>
      <trkpt lat="44.10439" lon="6.70598">
        <ele>2277.7</ele>
        <time>2022-09-18T00:54:47Z</time>
      </trkpt>
      <trkpt lat="44.10439" lon="6.70598">
        <ele>2277.7</ele>
        <time>2022-09-18T00:54:51Z</time>
      </trkpt>
      <trkpt lat="44.10439" lon="6.70598">
        <ele>2277.7</ele>
        <time>2022-09-18T00:54:55Z</time>
      </trkpt>
      <trkpt lat="44.10439" lon="6.70598">
        <ele>2277.7</ele>
        <time>2022-09-18T00:54:59Z</time>
      </trkpt>
      <trkpt lat="44.10439" lon="6.70598">
        <ele>2277.7</ele>
        <time>2022-09-18T00:55:03Z</time>
      </trkpt>
      <trkpt lat="44.10439" lon="6.70598">
        <ele>2277.7</ele>
        <time>2022-09-18T00:55:07Z</time>
      </trkpt>
      <trkpt lat="44.10439" lon="6.70598">
        <ele>2277.7</ele>
        <time>2022-09-18T00:55:11Z</time>
      </trkpt>
      <trkpt lat="44.10439" lon="6.70598">
        <ele>2277.7</ele>
        <time>2022-09-18T00:55:15Z</time>
      </trkpt>
      <trkpt lat="44.10439" lon="6.70598">
        <ele>2277.7</ele>
        <time>2022-09-18T00:55:19Z</time>
      </trkpt>
      <trkpt lat="44.10439" lon="6.70598">
        <ele>2277.7</ele>
        <time>2022-09-18T00:55:23Z</time>
      </trkpt>
      <trkpt lat="44.10439" lon="6.70598">
        <ele>2277.7</ele>
        <time>2022-09-18T00:55:27Z</time>
      </trkpt>
      <trkpt lat="44.10439" lon="6.70598">
        <ele>2277.7</ele>
        <time>2022-09-18T00:55:31Z</time>
      </trkpt>
      <trkpt lat="44.10439" lon="6.70598">
        <ele>2277.7</ele>
        <time>2022-09-18T00:55:35Z</time>
      </trkpt>
      <trkpt lat="44.10439" lon="6.70598">
        <ele>2277.7</ele>
        <time>2022-09-18T00:55:39Z</time>
      </trkpt>
      <trkpt lat="44.10439" lon="6.70598">
        <ele>2277.7</ele>
        <time>2022-09-18T00:55:43Z</time>
      </trkpt>
      <trkpt lat="44.10439" lon="6.70598">
        <ele>2277.7</ele>
        <time>2022-09-18T00:55:47Z</time>
      </trkpt>
      <trkpt lat="44.10439" lon="6.70598">
        <ele>2277.7</ele>
        <time>2022-09-18T00:55:51Z</time>
      </trkpt>
      <trkpt lat="44.10439" lon="6.70598">
        <ele>2277.7</ele>
        <time>2022-09-18T00:55:55Z</time>
      </trkpt>
      <trkpt lat="44.10439" lon="6.70598">
        <ele>2277.7</ele>
        <time>2022-09-18T00:55:59Z</time>
      </trkpt>
      <trkpt lat="44.10439" lon="6.70598">
        <ele>2277.7</ele>
        <time>2022-09-18T00:56:03Z</time>
      </trkpt>
      <trkpt lat="44.10439" lon="6.70598">
        <ele>2277.7</ele>
        <time>2022-09-18T00:56:07Z</time>
      </trkpt>
      <trkpt lat="44.10439" lon="6.70598">
        <ele>2277.7</ele>
        <time>2022-09-18T00:56:11Z</time>
      </trkpt>
      <trkpt lat="44.10439" lon="6.70598">
        <ele>2277.7</ele>
        <time>2022-09-18T00:56:15Z</time>
      </trkpt>
      <trkpt lat="44.10439" lon="6.70598">
        <ele>2277.7</ele>
        <time>2022-09-18T00:56:19Z</time>
      </trkpt>
      <trkpt lat="44.10439" lon="6.70598">
        <ele>2277.7</ele>
        <time>2022-09-18T00:56:23Z</time>
      </trkpt>
      <trkpt lat="44.10439" lon="6.70598">
        <ele>2277.7</ele>
        <time>2022-09-18T00:56:27Z</time>
      </trkpt>
      <trkpt lat="44.10439" lon="6.70598">
        <ele>2277.7</ele>
        <time>2022-09-18T00:56:31Z</time>
      </trkpt>
      <trkpt lat="44.10439" lon="6.70598">
        <ele>2277.7</ele>
        <time>2022-09-18T00:56:35Z</time>
      </trkpt>
      <trkpt lat="44.10439" lon="6.70598">
        <ele>2277.7</ele>
        <time>2022-09-18T00:56:39Z</time>
      </trkpt>
      <trkpt lat="44.10439" lon="6.70598">
        <ele>2277.7</ele>
        <time>2022-09-18T00:56:43Z</time>
      </trkpt>
      <trkpt lat="44.10439" lon="6.70598">
        <ele>2277.7</ele>
        <time>2022-09-18T00:56:47Z</time>
      </trkpt>
      <trkpt lat="44.10439" lon="6.70598">
        <ele>2277.7</ele>
        <time>2022-09-18T00:56:51Z</time>
      </trkpt>
      <trkpt lat="44.10439" lon="6.70598">
        <ele>2277.7</ele>
        <time>2022-09-18T00:56:55Z</time>
      </trkpt>
      <trkpt lat="44.10439" lon="6.70598">
        <ele>2277.7</ele>
        <time>2022-09-18T00:56:59Z</time>
      </trkpt>
      <trkpt lat="44.10439" lon="6.70598">
        <ele>2277.7</ele>
        <time>2022-09-18T00:57:03Z</time>
      </trkpt>
      <trkpt lat="44.10439" lon="6.70598">
        <ele>2277.7</ele>
        <time>2022-09-18T00:57:07Z</time>
      </trkpt>
      <trkpt lat="44.10439" lon="6.70598">
        <ele>2277.7</ele>
        <time>2022-09-18T00:57:11Z</time>
      </trkpt>
      <trkpt lat="44.10439" lon="6.70598">
        <ele>2277.7</ele>
        <time>2022-09-18T00:57:15Z</time>
      </trkpt>
      <trkpt lat="44.10439" lon="6.70598">
        <ele>2277.7</ele>
        <time>2022-09-18T00:57:19Z</time>
      </trkpt>
      <trkpt lat="44.10439" lon="6.70598">
        <ele>2277.7</ele>
        <time>2022-09-18T00:57:23Z</time>
      </trkpt>
      <trkpt lat="44.10439" lon="6.70598">
        <ele>2277.7</ele>
        <time>2022-09-18T00:57:27Z</time>
      </trkpt>
      <trkpt lat="44.10439" lon="6.70598">
        <ele>2277.7</ele>
        <time>2022-09-18T00:57:31Z</time>
      </trkpt>
      <trkpt lat="44.10439" lon="6.70598">
        <ele>2277.7</ele>
        <time>2022-09-18T00:57:35Z</time>
      </trkpt>
      <trkpt lat="44.10439" lon="6.70598">
        <ele>2277.7</ele>
        <time>2022-09-18T00:57:39Z</time>
      </trkpt>
      <trkpt lat="44.10439" lon="6.70598">
        <ele>2277.7</ele>
        <time>2022-09-18T00:57:43Z</time>
      </trkpt>
      <trkpt lat="44.10439" lon="6.70598">
        <ele>2277.7</ele>
        <time>2022-09-18T00:57:47Z</time>
      </trkpt>
      <trkpt lat="44.10439" lon="6.70598">
        <ele>2277.7</ele>
        <time>2022-09-18T00:57:51Z</time>
      </trkpt>
      <trkpt lat="44.10439" lon="6.70598">
        <ele>2277.7</ele>
        <time>2022-09-18T00:57:55Z</time>
      </trkpt>
      <trkpt lat="44.10439" lon="6.70598">
        <ele>2277.7</ele>
        <time>2022-09-18T00:57:59Z</time>
      </trkpt>
      <trkpt lat="44.10439" lon="6.70598">
        <ele>2277.7</ele>
        <time>2022-09-18T00:58:03Z</time>
      </trkpt>
      <trkpt lat="44.10439" lon="6.70598">
        <ele>2277.7</ele>
        <time>2022-09-18T00:58:07Z</time>
      </trkpt>
      <trkpt lat="44.10439" lon="6.70598">
        <ele>2277.7</ele>
        <time>2022-09-18T00:58:11Z</time>
      </trkpt>
      <trkpt lat="44.10439" lon="6.70598">
        <ele>2277.7</ele>
        <time>2022-09-18T00:58:15Z</time>
      </trkpt>
      <trkpt lat="44.10439" lon="6.70598">
        <ele>2277.7</ele>
        <time>2022-09-18T00:58:19Z</time>
      </trkpt>
      <trkpt lat="44.10439" lon="6.70598">
        <ele>2277.7</ele>
        <time>2022-09-18T00:58:23Z</time>
      </trkpt>
      <trkpt lat="44.10439" lon="6.70598">
        <ele>2277.7</ele>
        <time>2022-09-18T00:58:27Z</time>
      </trkpt>
      <trkpt lat="44.10438" lon="6.70598">
        <ele>2277.7</ele>
        <time>2022-09-18T00:58:28Z</time>
      </trkpt>
      <trkpt lat="44.10437" lon="6.70598">
        <ele>2277.7</ele>
        <time>2022-09-18T00:58:29Z</time>
      </trkpt>
      <trkpt lat="44.10436" lon="6.70598">
        <ele>2277.7</ele>
        <time>2022-09-18T00:58:30Z</time>
      </trkpt>
      <trkpt lat="44.10435" lon="6.70598">
        <ele>2277.7</ele>
        <time>2022-09-18T00:58:31Z</time>
      </trkpt>
      <trkpt lat="44.10434" lon="6.706">
        <ele>2277.8</ele>
        <time>2022-09-18T00:58:32Z</time>
      </trkpt>
      <trkpt lat="44.10434" lon="6.70601">
        <ele>2277.8</ele>
        <time>2022-09-18T00:58:33Z</time>
      </trkpt>
      <trkpt lat="44.10434" lon="6.706">
        <ele>2277.8</ele>
        <time>2022-09-18T00:58:34Z</time>
      </trkpt>
      <trkpt lat="44.10434" lon="6.70601">
        <ele>2277.8</ele>
        <time>2022-09-18T00:58:35Z</time>
      </trkpt>
      <trkpt lat="44.10434" lon="6.706">
        <ele>2277.8</ele>
        <time>2022-09-18T00:58:36Z</time>
      </trkpt>
      <trkpt lat="44.10434" lon="6.70601">
        <ele>2277.8</ele>
        <time>2022-09-18T00:58:37Z</time>
      </trkpt>
      <trkpt lat="44.10434" lon="6.70601">
        <ele>2277.8</ele>
        <time>2022-09-18T00:58:38Z</time>
      </trkpt>
      <trkpt lat="44.10434" lon="6.70601">
        <ele>2277.8</ele>
        <time>2022-09-18T00:58:39Z</time>
      </trkpt>
      <trkpt lat="44.10433" lon="6.70601">
        <ele>2277.9</ele>
        <time>2022-09-18T00:58:40Z</time>
      </trkpt>
      <trkpt lat="44.10433" lon="6.70601">
        <ele>2277.9</ele>
        <time>2022-09-18T00:58:41Z</time>
      </trkpt>
      <trkpt lat="44.10434" lon="6.706">
        <ele>2277.9</ele>
        <time>2022-09-18T00:58:43Z</time>
      </trkpt>
      <trkpt lat="44.10436" lon="6.706">
        <ele>2277.9</ele>
        <time>2022-09-18T00:58:44Z</time>
      </trkpt>
      <trkpt lat="44.10436" lon="6.70601">
        <ele>2278</ele>
        <time>2022-09-18T00:58:45Z</time>
      </trkpt>
      <trkpt lat="44.10436" lon="6.70602">
        <ele>2278</ele>
        <time>2022-09-18T00:58:47Z</time>
      </trkpt>
      <trkpt lat="44.10436" lon="6.70602">
        <ele>2278</ele>
        <time>2022-09-18T00:58:48Z</time>
      </trkpt>
      <trkpt lat="44.10436" lon="6.70602">
        <ele>2278</ele>
        <time>2022-09-18T00:58:49Z</time>
      </trkpt>
      <trkpt lat="44.10436" lon="6.70602">
        <ele>2278</ele>
        <time>2022-09-18T00:58:50Z</time>
      </trkpt>
      <trkpt lat="44.10436" lon="6.70602">
        <ele>2278</ele>
        <time>2022-09-18T00:58:51Z</time>
      </trkpt>
      <trkpt lat="44.10436" lon="6.70601">
        <ele>2278</ele>
        <time>2022-09-18T00:58:52Z</time>
      </trkpt>
      <trkpt lat="44.10436" lon="6.70602">
        <ele>2278</ele>
        <time>2022-09-18T00:58:54Z</time>
      </trkpt>
      <trkpt lat="44.10436" lon="6.70602">
        <ele>2278</ele>
        <time>2022-09-18T00:58:55Z</time>
      </trkpt>
      <trkpt lat="44.10435" lon="6.70602">
        <ele>2278.1</ele>
        <time>2022-09-18T00:58:56Z</time>
      </trkpt>
      <trkpt lat="44.10433" lon="6.70603">
        <ele>2278.1</ele>
        <time>2022-09-18T00:58:57Z</time>
      </trkpt>
      <trkpt lat="44.10433" lon="6.70602">
        <ele>2278.1</ele>
        <time>2022-09-18T00:58:59Z</time>
      </trkpt>
      <trkpt lat="44.10434" lon="6.706">
        <ele>2278.2</ele>
        <time>2022-09-18T00:59:00Z</time>
      </trkpt>
      <trkpt lat="44.10434" lon="6.70599">
        <ele>2278.2</ele>
        <time>2022-09-18T00:59:01Z</time>
      </trkpt>
      <trkpt lat="44.10434" lon="6.706">
        <ele>2278.2</ele>
        <time>2022-09-18T00:59:02Z</time>
      </trkpt>
      <trkpt lat="44.10435" lon="6.70599">
        <ele>2278.2</ele>
        <time>2022-09-18T00:59:03Z</time>
      </trkpt>
      <trkpt lat="44.10435" lon="6.706">
        <ele>2278.2</ele>
        <time>2022-09-18T00:59:04Z</time>
      </trkpt>
      <trkpt lat="44.10435" lon="6.706">
        <ele>2278.2</ele>
        <time>2022-09-18T00:59:05Z</time>
      </trkpt>
      <trkpt lat="44.10435" lon="6.70599">
        <ele>2278.3</ele>
        <time>2022-09-18T00:59:06Z</time>
      </trkpt>
      <trkpt lat="44.10435" lon="6.70599">
        <ele>2278.3</ele>
        <time>2022-09-18T00:59:07Z</time>
      </trkpt>
      <trkpt lat="44.10435" lon="6.70599">
        <ele>2278.3</ele>
        <time>2022-09-18T00:59:08Z</time>
      </trkpt>
      <trkpt lat="44.10436" lon="6.70598">
        <ele>2278.3</ele>
        <time>2022-09-18T00:59:09Z</time>
      </trkpt>
      <trkpt lat="44.10436" lon="6.70598">
        <ele>2278.3</ele>
        <time>2022-09-18T00:59:10Z</time>
      </trkpt>
      <trkpt lat="44.10436" lon="6.70598">
        <ele>2278.3</ele>
        <time>2022-09-18T00:59:11Z</time>
      </trkpt>
      <trkpt lat="44.10436" lon="6.70598">
        <ele>2278.3</ele>
        <time>2022-09-18T00:59:12Z</time>
      </trkpt>
      <trkpt lat="44.10436" lon="6.70599">
        <ele>2278.3</ele>
        <time>2022-09-18T00:59:13Z</time>
      </trkpt>
      <trkpt lat="44.10441" lon="6.70592">
        <ele>2278.6</ele>
        <time>2022-09-18T01:02:28Z</time>
      </trkpt>
      <trkpt lat="44.10441" lon="6.70593">
        <ele>2278.6</ele>
        <time>2022-09-18T01:02:29Z</time>
      </trkpt>
      <trkpt lat="44.10441" lon="6.70594">
        <ele>2278.6</ele>
        <time>2022-09-18T01:02:30Z</time>
      </trkpt>
      <trkpt lat="44.10441" lon="6.70594">
        <ele>2278.6</ele>
        <time>2022-09-18T01:02:31Z</time>
      </trkpt>
      <trkpt lat="44.10441" lon="6.70594">
        <ele>2278.6</ele>
        <time>2022-09-18T01:02:32Z</time>
      </trkpt>
      <trkpt lat="44.1044" lon="6.70594">
        <ele>2278.7</ele>
        <time>2022-09-18T01:02:35Z</time>
      </trkpt>
      <trkpt lat="44.10439" lon="6.70594">
        <ele>2278.7</ele>
        <time>2022-09-18T01:02:36Z</time>
      </trkpt>
      <trkpt lat="44.10439" lon="6.70595">
        <ele>2278.7</ele>
        <time>2022-09-18T01:02:37Z</time>
      </trkpt>
      <trkpt lat="44.10439" lon="6.70595">
        <ele>2278.7</ele>
        <time>2022-09-18T01:02:38Z</time>
      </trkpt>
      <trkpt lat="44.10438" lon="6.70595">
        <ele>2278.7</ele>
        <time>2022-09-18T01:02:39Z</time>
      </trkpt>
      <trkpt lat="44.10438" lon="6.70595">
        <ele>2278.7</ele>
        <time>2022-09-18T01:02:40Z</time>
      </trkpt>
      <trkpt lat="44.10438" lon="6.70595">
        <ele>2278.8</ele>
        <time>2022-09-18T01:02:41Z</time>
      </trkpt>
      <trkpt lat="44.10438" lon="6.70595">
        <ele>2278.8</ele>
        <time>2022-09-18T01:02:42Z</time>
      </trkpt>
      <trkpt lat="44.10438" lon="6.70595">
        <ele>2278.8</ele>
        <time>2022-09-18T01:02:43Z</time>
      </trkpt>
      <trkpt lat="44.10437" lon="6.70595">
        <ele>2278.8</ele>
        <time>2022-09-18T01:02:44Z</time>
      </trkpt>
      <trkpt lat="44.10437" lon="6.70595">
        <ele>2278.8</ele>
        <time>2022-09-18T01:02:45Z</time>
      </trkpt>
      <trkpt lat="44.10437" lon="6.70595">
        <ele>2278.8</ele>
        <time>2022-09-18T01:02:46Z</time>
      </trkpt>
      <trkpt lat="44.10437" lon="6.70595">
        <ele>2278.8</ele>
        <time>2022-09-18T01:02:47Z</time>
      </trkpt>
      <trkpt lat="44.10437" lon="6.70595">
        <ele>2278.8</ele>
        <time>2022-09-18T01:04:15Z</time>
      </trkpt>
      <trkpt lat="44.10436" lon="6.70595">
        <ele>2278.8</ele>
        <time>2022-09-18T01:04:16Z</time>
      </trkpt>
      <trkpt lat="44.10436" lon="6.70596">
        <ele>2278.9</ele>
        <time>2022-09-18T01:04:17Z</time>
      </trkpt>
      <trkpt lat="44.10436" lon="6.70596">
        <ele>2278.9</ele>
        <time>2022-09-18T01:04:18Z</time>
      </trkpt>
      <trkpt lat="44.10436" lon="6.70596">
        <ele>2278.9</ele>
        <time>2022-09-18T01:04:19Z</time>
      </trkpt>
      <trkpt lat="44.10436" lon="6.70596">
        <ele>2278.9</ele>
        <time>2022-09-18T01:04:20Z</time>
      </trkpt>
      <trkpt lat="44.10436" lon="6.70596">
        <ele>2278.9</ele>
        <time>2022-09-18T01:04:24Z</time>
      </trkpt>
      <trkpt lat="44.10436" lon="6.70596">
        <ele>2278.9</ele>
        <time>2022-09-18T01:04:28Z</time>
      </trkpt>
      <trkpt lat="44.1044" lon="6.70592">
        <ele>2279.1</ele>
        <time>2022-09-18T01:10:36Z</time>
      </trkpt>
      <trkpt lat="44.10438" lon="6.70594">
        <ele>2279.2</ele>
        <time>2022-09-18T01:10:37Z</time>
      </trkpt>
      <trkpt lat="44.10438" lon="6.70595">
        <ele>2279.2</ele>
        <time>2022-09-18T01:10:38Z</time>
      </trkpt>
      <trkpt lat="44.10437" lon="6.70595">
        <ele>2279.3</ele>
        <time>2022-09-18T01:10:39Z</time>
      </trkpt>
      <trkpt lat="44.10437" lon="6.70596">
        <ele>2279.3</ele>
        <time>2022-09-18T01:10:40Z</time>
      </trkpt>
      <trkpt lat="44.10437" lon="6.70596">
        <ele>2279.3</ele>
        <time>2022-09-18T01:10:41Z</time>
      </trkpt>
      <trkpt lat="44.10437" lon="6.70596">
        <ele>2279.3</ele>
        <time>2022-09-18T01:10:45Z</time>
      </trkpt>
      <trkpt lat="44.10439" lon="6.706">
        <ele>2279.4</ele>
        <time>2022-09-18T01:17:00Z</time>
      </trkpt>
      <trkpt lat="44.10439" lon="6.70599">
        <ele>2279.4</ele>
        <time>2022-09-18T01:17:01Z</time>
      </trkpt>
      <trkpt lat="44.10439" lon="6.70599">
        <ele>2279.5</ele>
        <time>2022-09-18T01:17:02Z</time>
      </trkpt>
      <trkpt lat="44.10439" lon="6.70599">
        <ele>2279.5</ele>
        <time>2022-09-18T01:17:03Z</time>
      </trkpt>
      <trkpt lat="44.1044" lon="6.706">
        <ele>2279.5</ele>
        <time>2022-09-18T01:17:04Z</time>
      </trkpt>
      <trkpt lat="44.10439" lon="6.70601">
        <ele>2279.5</ele>
        <time>2022-09-18T01:17:05Z</time>
      </trkpt>
      <trkpt lat="44.10438" lon="6.70601">
        <ele>2279.6</ele>
        <time>2022-09-18T01:17:06Z</time>
      </trkpt>
      <trkpt lat="44.10439" lon="6.706">
        <ele>2279.6</ele>
        <time>2022-09-18T01:17:07Z</time>
      </trkpt>
      <trkpt lat="44.10439" lon="6.706">
        <ele>2279.6</ele>
        <time>2022-09-18T01:17:08Z</time>
      </trkpt>
      <trkpt lat="44.10439" lon="6.70601">
        <ele>2279.7</ele>
        <time>2022-09-18T01:17:10Z</time>
      </trkpt>
      <trkpt lat="44.10439" lon="6.70601">
        <ele>2279.7</ele>
        <time>2022-09-18T01:17:11Z</time>
      </trkpt>
      <trkpt lat="44.10439" lon="6.70602">
        <ele>2279.7</ele>
        <time>2022-09-18T01:17:12Z</time>
      </trkpt>
      <trkpt lat="44.10438" lon="6.70602">
        <ele>2279.7</ele>
        <time>2022-09-18T01:17:13Z</time>
      </trkpt>
      <trkpt lat="44.10438" lon="6.70602">
        <ele>2279.7</ele>
        <time>2022-09-18T01:17:14Z</time>
      </trkpt>
      <trkpt lat="44.10438" lon="6.70601">
        <ele>2279.7</ele>
        <time>2022-09-18T01:17:15Z</time>
      </trkpt>
      <trkpt lat="44.10438" lon="6.70601">
        <ele>2279.7</ele>
        <time>2022-09-18T01:17:16Z</time>
      </trkpt>
      <trkpt lat="44.10438" lon="6.70601">
        <ele>2279.7</ele>
        <time>2022-09-18T01:17:17Z</time>
      </trkpt>
      <trkpt lat="44.10438" lon="6.70601">
        <ele>2279.7</ele>
        <time>2022-09-18T01:17:18Z</time>
      </trkpt>
      <trkpt lat="44.10438" lon="6.70601">
        <ele>2279.7</ele>
        <time>2022-09-18T01:17:20Z</time>
      </trkpt>
      <trkpt lat="44.10438" lon="6.70601">
        <ele>2279.7</ele>
        <time>2022-09-18T01:17:21Z</time>
      </trkpt>
      <trkpt lat="44.10438" lon="6.70601">
        <ele>2279.7</ele>
        <time>2022-09-18T01:17:22Z</time>
      </trkpt>
      <trkpt lat="44.10438" lon="6.70605">
        <ele>2279.8</ele>
        <time>2022-09-18T01:18:33Z</time>
      </trkpt>
      <trkpt lat="44.10438" lon="6.70607">
        <ele>2279.9</ele>
        <time>2022-09-18T01:18:34Z</time>
      </trkpt>
      <trkpt lat="44.10437" lon="6.70608">
        <ele>2279.9</ele>
        <time>2022-09-18T01:18:35Z</time>
      </trkpt>
      <trkpt lat="44.10437" lon="6.70609">
        <ele>2280</ele>
        <time>2022-09-18T01:18:36Z</time>
      </trkpt>
      <trkpt lat="44.10436" lon="6.70609">
        <ele>2280</ele>
        <time>2022-09-18T01:18:37Z</time>
      </trkpt>
      <trkpt lat="44.10435" lon="6.70608">
        <ele>2280</ele>
        <time>2022-09-18T01:18:38Z</time>
      </trkpt>
      <trkpt lat="44.10435" lon="6.70608">
        <ele>2280</ele>
        <time>2022-09-18T01:18:39Z</time>
      </trkpt>
      <trkpt lat="44.10435" lon="6.70608">
        <ele>2280</ele>
        <time>2022-09-18T01:18:40Z</time>
      </trkpt>
      <trkpt lat="44.10435" lon="6.70608">
        <ele>2280</ele>
        <time>2022-09-18T01:18:41Z</time>
      </trkpt>
      <trkpt lat="44.10435" lon="6.70608">
        <ele>2280.1</ele>
        <time>2022-09-18T01:18:42Z</time>
      </trkpt>
      <trkpt lat="44.10434" lon="6.70608">
        <ele>2280.1</ele>
        <time>2022-09-18T01:18:44Z</time>
      </trkpt>
      <trkpt lat="44.10434" lon="6.70608">
        <ele>2280.1</ele>
        <time>2022-09-18T01:18:46Z</time>
      </trkpt>
      <trkpt lat="44.10434" lon="6.70608">
        <ele>2280.1</ele>
        <time>2022-09-18T01:18:47Z</time>
      </trkpt>
      <trkpt lat="44.10433" lon="6.70608">
        <ele>2280.1</ele>
        <time>2022-09-18T01:18:48Z</time>
      </trkpt>
      <trkpt lat="44.10433" lon="6.70609">
        <ele>2280.1</ele>
        <time>2022-09-18T01:18:49Z</time>
      </trkpt>
      <trkpt lat="44.10434" lon="6.70609">
        <ele>2280.1</ele>
        <time>2022-09-18T01:18:50Z</time>
      </trkpt>
      <trkpt lat="44.10435" lon="6.70608">
        <ele>2280.2</ele>
        <time>2022-09-18T01:18:51Z</time>
      </trkpt>
      <trkpt lat="44.10435" lon="6.70607">
        <ele>2280.2</ele>
        <time>2022-09-18T01:18:52Z</time>
      </trkpt>
      <trkpt lat="44.10436" lon="6.70605">
        <ele>2280.3</ele>
        <time>2022-09-18T01:18:53Z</time>
      </trkpt>
      <trkpt lat="44.10436" lon="6.70605">
        <ele>2280.3</ele>
        <time>2022-09-18T01:18:54Z</time>
      </trkpt>
      <trkpt lat="44.10437" lon="6.70604">
        <ele>2280.3</ele>
        <time>2022-09-18T01:18:56Z</time>
      </trkpt>
      <trkpt lat="44.10437" lon="6.70603">
        <ele>2280.3</ele>
        <time>2022-09-18T01:18:57Z</time>
      </trkpt>
      <trkpt lat="44.10437" lon="6.70603">
        <ele>2280.4</ele>
        <time>2022-09-18T01:18:59Z</time>
      </trkpt>
      <trkpt lat="44.10437" lon="6.70603">
        <ele>2280.4</ele>
        <time>2022-09-18T01:19:00Z</time>
      </trkpt>
      <trkpt lat="44.10437" lon="6.70603">
        <ele>2280.4</ele>
        <time>2022-09-18T01:19:01Z</time>
      </trkpt>
      <trkpt lat="44.10436" lon="6.70602">
        <ele>2280.4</ele>
        <time>2022-09-18T01:19:03Z</time>
      </trkpt>
      <trkpt lat="44.10437" lon="6.706">
        <ele>2280.4</ele>
        <time>2022-09-18T01:19:04Z</time>
      </trkpt>
      <trkpt lat="44.10438" lon="6.70598">
        <ele>2280.5</ele>
        <time>2022-09-18T01:19:05Z</time>
      </trkpt>
      <trkpt lat="44.1044" lon="6.70594">
        <ele>2280.7</ele>
        <time>2022-09-18T01:19:07Z</time>
      </trkpt>
      <trkpt lat="44.10443" lon="6.70589">
        <ele>2280.8</ele>
        <time>2022-09-18T01:19:08Z</time>
      </trkpt>
      <trkpt lat="44.10444" lon="6.70586">
        <ele>2280.9</ele>
        <time>2022-09-18T01:19:09Z</time>
      </trkpt>
      <trkpt lat="44.10445" lon="6.70583">
        <ele>2281</ele>
        <time>2022-09-18T01:19:10Z</time>
      </trkpt>
      <trkpt lat="44.10448" lon="6.70578">
        <ele>2281.2</ele>
        <time>2022-09-18T01:19:12Z</time>
      </trkpt>
      <trkpt lat="44.10449" lon="6.70573">
        <ele>2281.3</ele>
        <time>2022-09-18T01:19:13Z</time>
      </trkpt>
      <trkpt lat="44.10448" lon="6.70571">
        <ele>2281.4</ele>
        <time>2022-09-18T01:19:14Z</time>
      </trkpt>
      <trkpt lat="44.10447" lon="6.70564">
        <ele>2281.6</ele>
        <time>2022-09-18T01:19:15Z</time>
      </trkpt>
      <trkpt lat="44.10447" lon="6.70561">
        <ele>2281.7</ele>
        <time>2022-09-18T01:19:16Z</time>
      </trkpt>
      <trkpt lat="44.10446" lon="6.70557">
        <ele>2281.8</ele>
        <time>2022-09-18T01:19:17Z</time>
      </trkpt>
      <trkpt lat="44.10445" lon="6.70552">
        <ele>2282</ele>
        <time>2022-09-18T01:19:19Z</time>
      </trkpt>
      <trkpt lat="44.10444" lon="6.70544">
        <ele>2282.2</ele>
        <time>2022-09-18T01:19:21Z</time>
      </trkpt>
      <trkpt lat="44.10444" lon="6.7054">
        <ele>2282.4</ele>
        <time>2022-09-18T01:19:22Z</time>
      </trkpt>
      <trkpt lat="44.10444" lon="6.70535">
        <ele>2282.6</ele>
        <time>2022-09-18T01:19:23Z</time>
      </trkpt>
      <trkpt lat="44.10444" lon="6.7053">
        <ele>2282.8</ele>
        <time>2022-09-18T01:19:24Z</time>
      </trkpt>
      <trkpt lat="44.10444" lon="6.70525">
        <ele>2282.9</ele>
        <time>2022-09-18T01:19:25Z</time>
      </trkpt>
      <trkpt lat="44.10444" lon="6.70524">
        <ele>2283</ele>
        <time>2022-09-18T01:19:26Z</time>
      </trkpt>
      <trkpt lat="44.10445" lon="6.7052">
        <ele>2283.1</ele>
        <time>2022-09-18T01:19:27Z</time>
      </trkpt>
      <trkpt lat="44.10446" lon="6.70515">
        <ele>2283.4</ele>
        <time>2022-09-18T01:19:28Z</time>
      </trkpt>
      <trkpt lat="44.10446" lon="6.70513">
        <ele>2283.5</ele>
        <time>2022-09-18T01:19:29Z</time>
      </trkpt>
      <trkpt lat="44.10446" lon="6.70509">
        <ele>2283.6</ele>
        <time>2022-09-18T01:19:30Z</time>
      </trkpt>
      <trkpt lat="44.10446" lon="6.70504">
        <ele>2283.9</ele>
        <time>2022-09-18T01:19:31Z</time>
      </trkpt>
      <trkpt lat="44.10446" lon="6.70502">
        <ele>2283.9</ele>
        <time>2022-09-18T01:19:32Z</time>
      </trkpt>
      <trkpt lat="44.10446" lon="6.70498">
        <ele>2284.1</ele>
        <time>2022-09-18T01:19:33Z</time>
      </trkpt>
      <trkpt lat="44.10446" lon="6.70494">
        <ele>2284.3</ele>
        <time>2022-09-18T01:19:34Z</time>
      </trkpt>
      <trkpt lat="44.10445" lon="6.70489">
        <ele>2284.5</ele>
        <time>2022-09-18T01:19:35Z</time>
      </trkpt>
      <trkpt lat="44.10442" lon="6.70484">
        <ele>2284.7</ele>
        <time>2022-09-18T01:19:36Z</time>
      </trkpt>
      <trkpt lat="44.10441" lon="6.70481">
        <ele>2284.9</ele>
        <time>2022-09-18T01:19:37Z</time>
      </trkpt>
      <trkpt lat="44.10441" lon="6.70476">
        <ele>2285.1</ele>
        <time>2022-09-18T01:19:38Z</time>
      </trkpt>
      <trkpt lat="44.10441" lon="6.70474">
        <ele>2285.2</ele>
        <time>2022-09-18T01:19:39Z</time>
      </trkpt>
      <trkpt lat="44.10442" lon="6.70469">
        <ele>2285.4</ele>
        <time>2022-09-18T01:19:41Z</time>
      </trkpt>
      <trkpt lat="44.10442" lon="6.70465">
        <ele>2285.5</ele>
        <time>2022-09-18T01:19:42Z</time>
      </trkpt>
      <trkpt lat="44.10442" lon="6.7046">
        <ele>2285.6</ele>
        <time>2022-09-18T01:19:43Z</time>
      </trkpt>
      <trkpt lat="44.10443" lon="6.70458">
        <ele>2285.6</ele>
        <time>2022-09-18T01:19:44Z</time>
      </trkpt>
      <trkpt lat="44.10445" lon="6.70454">
        <ele>2285.8</ele>
        <time>2022-09-18T01:19:45Z</time>
      </trkpt>
      <trkpt lat="44.10448" lon="6.7045">
        <ele>2285.8</ele>
        <time>2022-09-18T01:19:47Z</time>
      </trkpt>
      <trkpt lat="44.10448" lon="6.70445">
        <ele>2285.9</ele>
        <time>2022-09-18T01:19:48Z</time>
      </trkpt>
      <trkpt lat="44.1045" lon="6.70439">
        <ele>2286</ele>
        <time>2022-09-18T01:19:49Z</time>
      </trkpt>
      <trkpt lat="44.10451" lon="6.70437">
        <ele>2286</ele>
        <time>2022-09-18T01:19:50Z</time>
      </trkpt>
      <trkpt lat="44.10456" lon="6.70433">
        <ele>2286.1</ele>
        <time>2022-09-18T01:19:52Z</time>
      </trkpt>
      <trkpt lat="44.10458" lon="6.70431">
        <ele>2286.1</ele>
        <time>2022-09-18T01:19:53Z</time>
      </trkpt>
      <trkpt lat="44.10461" lon="6.70428">
        <ele>2286.1</ele>
        <time>2022-09-18T01:19:55Z</time>
      </trkpt>
      <trkpt lat="44.10465" lon="6.70424">
        <ele>2286.1</ele>
        <time>2022-09-18T01:19:56Z</time>
      </trkpt>
      <trkpt lat="44.10469" lon="6.70421">
        <ele>2286.1</ele>
        <time>2022-09-18T01:19:58Z</time>
      </trkpt>
      <trkpt lat="44.10473" lon="6.7042">
        <ele>2286.1</ele>
        <time>2022-09-18T01:19:59Z</time>
      </trkpt>
      <trkpt lat="44.10477" lon="6.70417">
        <ele>2286.1</ele>
        <time>2022-09-18T01:20:01Z</time>
      </trkpt>
      <trkpt lat="44.1048" lon="6.70415">
        <ele>2286</ele>
        <time>2022-09-18T01:20:02Z</time>
      </trkpt>
      <trkpt lat="44.10481" lon="6.70415">
        <ele>2286</ele>
        <time>2022-09-18T01:20:03Z</time>
      </trkpt>
      <trkpt lat="44.10482" lon="6.70413">
        <ele>2286</ele>
        <time>2022-09-18T01:20:04Z</time>
      </trkpt>
      <trkpt lat="44.10483" lon="6.70413">
        <ele>2286</ele>
        <time>2022-09-18T01:20:06Z</time>
      </trkpt>
      <trkpt lat="44.10484" lon="6.70412">
        <ele>2286</ele>
        <time>2022-09-18T01:20:07Z</time>
      </trkpt>
      <trkpt lat="44.10484" lon="6.70411">
        <ele>2285.9</ele>
        <time>2022-09-18T01:20:08Z</time>
      </trkpt>
      <trkpt lat="44.10485" lon="6.70411">
        <ele>2285.9</ele>
        <time>2022-09-18T01:20:09Z</time>
      </trkpt>
      <trkpt lat="44.10486" lon="6.7041">
        <ele>2285.9</ele>
        <time>2022-09-18T01:20:10Z</time>
      </trkpt>
      <trkpt lat="44.10486" lon="6.70409">
        <ele>2285.9</ele>
        <time>2022-09-18T01:20:11Z</time>
      </trkpt>
      <trkpt lat="44.10487" lon="6.70408">
        <ele>2285.8</ele>
        <time>2022-09-18T01:20:12Z</time>
      </trkpt>
      <trkpt lat="44.10488" lon="6.70408">
        <ele>2285.8</ele>
        <time>2022-09-18T01:20:13Z</time>
      </trkpt>
      <trkpt lat="44.10488" lon="6.70407">
        <ele>2285.8</ele>
        <time>2022-09-18T01:22:35Z</time>
      </trkpt>
      <trkpt lat="44.10489" lon="6.70406">
        <ele>2285.8</ele>
        <time>2022-09-18T01:22:36Z</time>
      </trkpt>
      <trkpt lat="44.10496" lon="6.70402">
        <ele>2285.5</ele>
        <time>2022-09-18T01:22:38Z</time>
      </trkpt>
      <trkpt lat="44.105" lon="6.70402">
        <ele>2285.4</ele>
        <time>2022-09-18T01:22:39Z</time>
      </trkpt>
      <trkpt lat="44.10504" lon="6.70401">
        <ele>2285.2</ele>
        <time>2022-09-18T01:22:40Z</time>
      </trkpt>
      <trkpt lat="44.10507" lon="6.70399">
        <ele>2285.1</ele>
        <time>2022-09-18T01:22:41Z</time>
      </trkpt>
      <trkpt lat="44.10512" lon="6.70394">
        <ele>2285</ele>
        <time>2022-09-18T01:22:42Z</time>
      </trkpt>
      <trkpt lat="44.10517" lon="6.7039">
        <ele>2284.8</ele>
        <time>2022-09-18T01:22:43Z</time>
      </trkpt>
      <trkpt lat="44.1052" lon="6.70386">
        <ele>2284.7</ele>
        <time>2022-09-18T01:22:45Z</time>
      </trkpt>
      <trkpt lat="44.10525" lon="6.7038">
        <ele>2284.5</ele>
        <time>2022-09-18T01:22:46Z</time>
      </trkpt>
      <trkpt lat="44.10529" lon="6.70376">
        <ele>2284.3</ele>
        <time>2022-09-18T01:22:48Z</time>
      </trkpt>
      <trkpt lat="44.10533" lon="6.70374">
        <ele>2284.2</ele>
        <time>2022-09-18T01:22:49Z</time>
      </trkpt>
      <trkpt lat="44.10538" lon="6.70369">
        <ele>2284</ele>
        <time>2022-09-18T01:22:50Z</time>
      </trkpt>
      <trkpt lat="44.10542" lon="6.70364">
        <ele>2283.8</ele>
        <time>2022-09-18T01:22:52Z</time>
      </trkpt>
      <trkpt lat="44.10549" lon="6.70357">
        <ele>2283.5</ele>
        <time>2022-09-18T01:22:54Z</time>
      </trkpt>
      <trkpt lat="44.10552" lon="6.70354">
        <ele>2283.3</ele>
        <time>2022-09-18T01:22:55Z</time>
      </trkpt>
      <trkpt lat="44.10556" lon="6.7035">
        <ele>2283.2</ele>
        <time>2022-09-18T01:22:56Z</time>
      </trkpt>
      <trkpt lat="44.10559" lon="6.70346">
        <ele>2283</ele>
        <time>2022-09-18T01:22:57Z</time>
      </trkpt>
      <trkpt lat="44.10563" lon="6.70343">
        <ele>2282.9</ele>
        <time>2022-09-18T01:22:58Z</time>
      </trkpt>
      <trkpt lat="44.10568" lon="6.70337">
        <ele>2282.7</ele>
        <time>2022-09-18T01:22:59Z</time>
      </trkpt>
      <trkpt lat="44.10572" lon="6.70332">
        <ele>2282.5</ele>
        <time>2022-09-18T01:23:01Z</time>
      </trkpt>
      <trkpt lat="44.10575" lon="6.70328">
        <ele>2282.4</ele>
        <time>2022-09-18T01:23:02Z</time>
      </trkpt>
      <trkpt lat="44.10578" lon="6.70325">
        <ele>2282.3</ele>
        <time>2022-09-18T01:23:03Z</time>
      </trkpt>
      <trkpt lat="44.10581" lon="6.70321">
        <ele>2282.2</ele>
        <time>2022-09-18T01:23:04Z</time>
      </trkpt>
      <trkpt lat="44.10585" lon="6.70317">
        <ele>2282</ele>
        <time>2022-09-18T01:23:05Z</time>
      </trkpt>
      <trkpt lat="44.10589" lon="6.70313">
        <ele>2281.8</ele>
        <time>2022-09-18T01:23:07Z</time>
      </trkpt>
      <trkpt lat="44.10592" lon="6.70309">
        <ele>2281.7</ele>
        <time>2022-09-18T01:23:08Z</time>
      </trkpt>
      <trkpt lat="44.10594" lon="6.70305">
        <ele>2281.6</ele>
        <time>2022-09-18T01:23:09Z</time>
      </trkpt>
      <trkpt lat="44.10595" lon="6.703">
        <ele>2281.4</ele>
        <time>2022-09-18T01:23:10Z</time>
      </trkpt>
      <trkpt lat="44.10596" lon="6.70295">
        <ele>2281</ele>
        <time>2022-09-18T01:23:11Z</time>
      </trkpt>
      <trkpt lat="44.10596" lon="6.70289">
        <ele>2280.8</ele>
        <time>2022-09-18T01:23:12Z</time>
      </trkpt>
      <trkpt lat="44.10596" lon="6.70283">
        <ele>2280.6</ele>
        <time>2022-09-18T01:23:13Z</time>
      </trkpt>
      <trkpt lat="44.10596" lon="6.70276">
        <ele>2280.4</ele>
        <time>2022-09-18T01:23:14Z</time>
      </trkpt>
      <trkpt lat="44.10595" lon="6.7027">
        <ele>2280.2</ele>
        <time>2022-09-18T01:23:15Z</time>
      </trkpt>
      <trkpt lat="44.10595" lon="6.70263">
        <ele>2279.9</ele>
        <time>2022-09-18T01:23:16Z</time>
      </trkpt>
      <trkpt lat="44.10594" lon="6.70257">
        <ele>2279.7</ele>
        <time>2022-09-18T01:23:17Z</time>
      </trkpt>
      <trkpt lat="44.10593" lon="6.70251">
        <ele>2279.6</ele>
        <time>2022-09-18T01:23:18Z</time>
      </trkpt>
      <trkpt lat="44.10587" lon="6.70244">
        <ele>2279.3</ele>
        <time>2022-09-18T01:23:19Z</time>
      </trkpt>
      <trkpt lat="44.10583" lon="6.70242">
        <ele>2279.3</ele>
        <time>2022-09-18T01:23:21Z</time>
      </trkpt>
      <trkpt lat="44.10579" lon="6.70241">
        <ele>2279.2</ele>
        <time>2022-09-18T01:23:22Z</time>
      </trkpt>
      <trkpt lat="44.10574" lon="6.70241">
        <ele>2279.2</ele>
        <time>2022-09-18T01:23:23Z</time>
      </trkpt>
      <trkpt lat="44.10571" lon="6.70243">
        <ele>2279.2</ele>
        <time>2022-09-18T01:23:24Z</time>
      </trkpt>
      <trkpt lat="44.10563" lon="6.7024">
        <ele>2279.2</ele>
        <time>2022-09-18T01:23:26Z</time>
      </trkpt>
      <trkpt lat="44.10559" lon="6.70238">
        <ele>2279.2</ele>
        <time>2022-09-18T01:23:28Z</time>
      </trkpt>
      <trkpt lat="44.10556" lon="6.70237">
        <ele>2279.3</ele>
        <time>2022-09-18T01:23:29Z</time>
      </trkpt>
      <trkpt lat="44.1055" lon="6.70237">
        <ele>2279.3</ele>
        <time>2022-09-18T01:23:30Z</time>
      </trkpt>
      <trkpt lat="44.10545" lon="6.70238">
        <ele>2279.2</ele>
        <time>2022-09-18T01:23:32Z</time>
      </trkpt>
      <trkpt lat="44.10538" lon="6.70239">
        <ele>2279.2</ele>
        <time>2022-09-18T01:23:33Z</time>
      </trkpt>
      <trkpt lat="44.10532" lon="6.70241">
        <ele>2279.2</ele>
        <time>2022-09-18T01:23:35Z</time>
      </trkpt>
      <trkpt lat="44.10526" lon="6.70245">
        <ele>2279.2</ele>
        <time>2022-09-18T01:23:37Z</time>
      </trkpt>
      <trkpt lat="44.10523" lon="6.70246">
        <ele>2279.2</ele>
        <time>2022-09-18T01:23:38Z</time>
      </trkpt>
      <trkpt lat="44.1052" lon="6.70247">
        <ele>2279.2</ele>
        <time>2022-09-18T01:23:39Z</time>
      </trkpt>
      <trkpt lat="44.10515" lon="6.70245">
        <ele>2279.2</ele>
        <time>2022-09-18T01:23:40Z</time>
      </trkpt>
      <trkpt lat="44.10512" lon="6.70239">
        <ele>2279.2</ele>
        <time>2022-09-18T01:23:41Z</time>
      </trkpt>
      <trkpt lat="44.10509" lon="6.70233">
        <ele>2279.2</ele>
        <time>2022-09-18T01:23:43Z</time>
      </trkpt>
      <trkpt lat="44.10506" lon="6.70227">
        <ele>2279.2</ele>
        <time>2022-09-18T01:23:44Z</time>
      </trkpt>
      <trkpt lat="44.10501" lon="6.70221">
        <ele>2279.1</ele>
        <time>2022-09-18T01:23:45Z</time>
      </trkpt>
      <trkpt lat="44.10499" lon="6.70216">
        <ele>2279.1</ele>
        <time>2022-09-18T01:23:46Z</time>
      </trkpt>
      <trkpt lat="44.10497" lon="6.70211">
        <ele>2279</ele>
        <time>2022-09-18T01:23:47Z</time>
      </trkpt>
      <trkpt lat="44.10494" lon="6.70206">
        <ele>2279</ele>
        <time>2022-09-18T01:23:48Z</time>
      </trkpt>
      <trkpt lat="44.10492" lon="6.70201">
        <ele>2278.9</ele>
        <time>2022-09-18T01:23:50Z</time>
      </trkpt>
      <trkpt lat="44.10489" lon="6.70193">
        <ele>2278.9</ele>
        <time>2022-09-18T01:23:51Z</time>
      </trkpt>
      <trkpt lat="44.10487" lon="6.70187">
        <ele>2278.8</ele>
        <time>2022-09-18T01:23:53Z</time>
      </trkpt>
      <trkpt lat="44.10486" lon="6.7018">
        <ele>2278.8</ele>
        <time>2022-09-18T01:23:54Z</time>
      </trkpt>
      <trkpt lat="44.10485" lon="6.70176">
        <ele>2278.8</ele>
        <time>2022-09-18T01:23:55Z</time>
      </trkpt>
      <trkpt lat="44.10484" lon="6.7017">
        <ele>2278.8</ele>
        <time>2022-09-18T01:23:56Z</time>
      </trkpt>
      <trkpt lat="44.10483" lon="6.70163">
        <ele>2278.8</ele>
        <time>2022-09-18T01:23:57Z</time>
      </trkpt>
      <trkpt lat="44.10482" lon="6.70158">
        <ele>2278.8</ele>
        <time>2022-09-18T01:23:59Z</time>
      </trkpt>
      <trkpt lat="44.10481" lon="6.70154">
        <ele>2278.8</ele>
        <time>2022-09-18T01:24:00Z</time>
      </trkpt>
      <trkpt lat="44.10481" lon="6.7015">
        <ele>2278.7</ele>
        <time>2022-09-18T01:24:01Z</time>
      </trkpt>
      <trkpt lat="44.10481" lon="6.70145">
        <ele>2278.7</ele>
        <time>2022-09-18T01:24:02Z</time>
      </trkpt>
      <trkpt lat="44.10481" lon="6.70141">
        <ele>2278.7</ele>
        <time>2022-09-18T01:24:03Z</time>
      </trkpt>
      <trkpt lat="44.10481" lon="6.70136">
        <ele>2278.7</ele>
        <time>2022-09-18T01:24:04Z</time>
      </trkpt>
      <trkpt lat="44.10482" lon="6.70131">
        <ele>2278.7</ele>
        <time>2022-09-18T01:24:05Z</time>
      </trkpt>
      <trkpt lat="44.10482" lon="6.70125">
        <ele>2278.7</ele>
        <time>2022-09-18T01:24:06Z</time>
      </trkpt>
      <trkpt lat="44.10482" lon="6.7012">
        <ele>2278.7</ele>
        <time>2022-09-18T01:24:07Z</time>
      </trkpt>
      <trkpt lat="44.10483" lon="6.70116">
        <ele>2278.7</ele>
        <time>2022-09-18T01:24:08Z</time>
      </trkpt>
      <trkpt lat="44.10484" lon="6.7011">
        <ele>2278.7</ele>
        <time>2022-09-18T01:24:10Z</time>
      </trkpt>
      <trkpt lat="44.10486" lon="6.70106">
        <ele>2278.8</ele>
        <time>2022-09-18T01:24:11Z</time>
      </trkpt>
      <trkpt lat="44.10488" lon="6.701">
        <ele>2278.9</ele>
        <time>2022-09-18T01:24:12Z</time>
      </trkpt>
      <trkpt lat="44.1049" lon="6.70096">
        <ele>2279</ele>
        <time>2022-09-18T01:24:13Z</time>
      </trkpt>
      <trkpt lat="44.10491" lon="6.70091">
        <ele>2279.1</ele>
        <time>2022-09-18T01:24:14Z</time>
      </trkpt>
      <trkpt lat="44.10492" lon="6.70087">
        <ele>2279.2</ele>
        <time>2022-09-18T01:24:15Z</time>
      </trkpt>
      <trkpt lat="44.10493" lon="6.70083">
        <ele>2279.3</ele>
        <time>2022-09-18T01:24:16Z</time>
      </trkpt>
      <trkpt lat="44.10494" lon="6.70078">
        <ele>2279.5</ele>
        <time>2022-09-18T01:24:18Z</time>
      </trkpt>
      <trkpt lat="44.10494" lon="6.70074">
        <ele>2279.6</ele>
        <time>2022-09-18T01:24:19Z</time>
      </trkpt>
      <trkpt lat="44.10495" lon="6.70067">
        <ele>2279.9</ele>
        <time>2022-09-18T01:24:20Z</time>
      </trkpt>
      <trkpt lat="44.10496" lon="6.70062">
        <ele>2280.1</ele>
        <time>2022-09-18T01:24:21Z</time>
      </trkpt>
      <trkpt lat="44.10497" lon="6.70054">
        <ele>2280.3</ele>
        <time>2022-09-18T01:24:22Z</time>
      </trkpt>
      <trkpt lat="44.10498" lon="6.70046">
        <ele>2280.6</ele>
        <time>2022-09-18T01:24:24Z</time>
      </trkpt>
      <trkpt lat="44.10499" lon="6.70041">
        <ele>2280.7</ele>
        <time>2022-09-18T01:24:25Z</time>
      </trkpt>
      <trkpt lat="44.105" lon="6.70035">
        <ele>2280.9</ele>
        <time>2022-09-18T01:24:26Z</time>
      </trkpt>
      <trkpt lat="44.10502" lon="6.7003">
        <ele>2281</ele>
        <time>2022-09-18T01:24:27Z</time>
      </trkpt>
      <trkpt lat="44.10504" lon="6.70026">
        <ele>2281.1</ele>
        <time>2022-09-18T01:24:28Z</time>
      </trkpt>
      <trkpt lat="44.10506" lon="6.7002">
        <ele>2281.1</ele>
        <time>2022-09-18T01:24:29Z</time>
      </trkpt>
      <trkpt lat="44.10508" lon="6.70016">
        <ele>2281.2</ele>
        <time>2022-09-18T01:24:30Z</time>
      </trkpt>
      <trkpt lat="44.10511" lon="6.70008">
        <ele>2281.3</ele>
        <time>2022-09-18T01:24:31Z</time>
      </trkpt>
      <trkpt lat="44.10513" lon="6.70005">
        <ele>2281.3</ele>
        <time>2022-09-18T01:24:32Z</time>
      </trkpt>
      <trkpt lat="44.10518" lon="6.70001">
        <ele>2281.4</ele>
        <time>2022-09-18T01:24:34Z</time>
      </trkpt>
      <trkpt lat="44.1052" lon="6.69999">
        <ele>2281.4</ele>
        <time>2022-09-18T01:24:35Z</time>
      </trkpt>
      <trkpt lat="44.10522" lon="6.69997">
        <ele>2281.5</ele>
        <time>2022-09-18T01:24:36Z</time>
      </trkpt>
      <trkpt lat="44.10524" lon="6.69993">
        <ele>2281.5</ele>
        <time>2022-09-18T01:24:38Z</time>
      </trkpt>
      <trkpt lat="44.10529" lon="6.69986">
        <ele>2281.8</ele>
        <time>2022-09-18T01:24:39Z</time>
      </trkpt>
      <trkpt lat="44.10535" lon="6.69983">
        <ele>2282</ele>
        <time>2022-09-18T01:24:41Z</time>
      </trkpt>
      <trkpt lat="44.10537" lon="6.69981">
        <ele>2282.1</ele>
        <time>2022-09-18T01:24:42Z</time>
      </trkpt>
      <trkpt lat="44.10542" lon="6.69982">
        <ele>2282.2</ele>
        <time>2022-09-18T01:24:43Z</time>
      </trkpt>
      <trkpt lat="44.10545" lon="6.69983">
        <ele>2282.3</ele>
        <time>2022-09-18T01:24:45Z</time>
      </trkpt>
      <trkpt lat="44.1055" lon="6.6998">
        <ele>2282.5</ele>
        <time>2022-09-18T01:24:46Z</time>
      </trkpt>
      <trkpt lat="44.10553" lon="6.69976">
        <ele>2282.6</ele>
        <time>2022-09-18T01:24:47Z</time>
      </trkpt>
      <trkpt lat="44.10556" lon="6.69974">
        <ele>2282.7</ele>
        <time>2022-09-18T01:24:49Z</time>
      </trkpt>
      <trkpt lat="44.10559" lon="6.69974">
        <ele>2282.8</ele>
        <time>2022-09-18T01:24:50Z</time>
      </trkpt>
      <trkpt lat="44.10562" lon="6.69975">
        <ele>2282.9</ele>
        <time>2022-09-18T01:24:51Z</time>
      </trkpt>
      <trkpt lat="44.10566" lon="6.69975">
        <ele>2282.9</ele>
        <time>2022-09-18T01:24:52Z</time>
      </trkpt>
      <trkpt lat="44.1057" lon="6.69974">
        <ele>2283</ele>
        <time>2022-09-18T01:24:53Z</time>
      </trkpt>
      <trkpt lat="44.10572" lon="6.69977">
        <ele>2283.1</ele>
        <time>2022-09-18T01:24:54Z</time>
      </trkpt>
      <trkpt lat="44.10575" lon="6.69985">
        <ele>2283.3</ele>
        <time>2022-09-18T01:24:56Z</time>
      </trkpt>
      <trkpt lat="44.10579" lon="6.69987">
        <ele>2283.4</ele>
        <time>2022-09-18T01:24:57Z</time>
      </trkpt>
      <trkpt lat="44.10586" lon="6.69986">
        <ele>2283.5</ele>
        <time>2022-09-18T01:24:59Z</time>
      </trkpt>
      <trkpt lat="44.1059" lon="6.69985">
        <ele>2283.6</ele>
        <time>2022-09-18T01:25:00Z</time>
      </trkpt>
      <trkpt lat="44.10594" lon="6.69984">
        <ele>2283.7</ele>
        <time>2022-09-18T01:25:01Z</time>
      </trkpt>
      <trkpt lat="44.10599" lon="6.69986">
        <ele>2283.7</ele>
        <time>2022-09-18T01:25:03Z</time>
      </trkpt>
      <trkpt lat="44.10602" lon="6.69986">
        <ele>2283.8</ele>
        <time>2022-09-18T01:25:04Z</time>
      </trkpt>
      <trkpt lat="44.10605" lon="6.69983">
        <ele>2283.8</ele>
        <time>2022-09-18T01:25:05Z</time>
      </trkpt>
      <trkpt lat="44.10608" lon="6.69982">
        <ele>2283.9</ele>
        <time>2022-09-18T01:25:06Z</time>
      </trkpt>
      <trkpt lat="44.10609" lon="6.69981">
        <ele>2283.9</ele>
        <time>2022-09-18T01:25:08Z</time>
      </trkpt>
      <trkpt lat="44.10609" lon="6.69981">
        <ele>2283.9</ele>
        <time>2022-09-18T01:25:09Z</time>
      </trkpt>
      <trkpt lat="44.1061" lon="6.69981">
        <ele>2284</ele>
        <time>2022-09-18T01:25:10Z</time>
      </trkpt>
      <trkpt lat="44.1061" lon="6.69981">
        <ele>2284</ele>
        <time>2022-09-18T01:25:11Z</time>
      </trkpt>
      <trkpt lat="44.1061" lon="6.69981">
        <ele>2284</ele>
        <time>2022-09-18T01:25:13Z</time>
      </trkpt>
      <trkpt lat="44.1061" lon="6.69981">
        <ele>2284</ele>
        <time>2022-09-18T01:25:15Z</time>
      </trkpt>
      <trkpt lat="44.10611" lon="6.69981">
        <ele>2284</ele>
        <time>2022-09-18T01:25:16Z</time>
      </trkpt>
      <trkpt lat="44.10611" lon="6.69981">
        <ele>2284</ele>
        <time>2022-09-18T01:25:17Z</time>
      </trkpt>
      <trkpt lat="44.10611" lon="6.69981">
        <ele>2284</ele>
        <time>2022-09-18T01:25:18Z</time>
      </trkpt>
      <trkpt lat="44.10611" lon="6.69981">
        <ele>2284</ele>
        <time>2022-09-18T01:25:20Z</time>
      </trkpt>
      <trkpt lat="44.10612" lon="6.69981">
        <ele>2284</ele>
        <time>2022-09-18T01:25:21Z</time>
      </trkpt>
      <trkpt lat="44.10614" lon="6.69983">
        <ele>2284.1</ele>
        <time>2022-09-18T01:25:22Z</time>
      </trkpt>
      <trkpt lat="44.10615" lon="6.69983">
        <ele>2284.1</ele>
        <time>2022-09-18T01:25:24Z</time>
      </trkpt>
      <trkpt lat="44.10617" lon="6.69984">
        <ele>2284.2</ele>
        <time>2022-09-18T01:25:25Z</time>
      </trkpt>
      <trkpt lat="44.10618" lon="6.69985">
        <ele>2284.2</ele>
        <time>2022-09-18T01:25:26Z</time>
      </trkpt>
      <trkpt lat="44.10619" lon="6.69985">
        <ele>2284.3</ele>
        <time>2022-09-18T01:25:27Z</time>
      </trkpt>
      <trkpt lat="44.10623" lon="6.69984">
        <ele>2284.4</ele>
        <time>2022-09-18T01:25:29Z</time>
      </trkpt>
      <trkpt lat="44.10626" lon="6.69985">
        <ele>2284.5</ele>
        <time>2022-09-18T01:25:30Z</time>
      </trkpt>
      <trkpt lat="44.1063" lon="6.69985">
        <ele>2284.6</ele>
        <time>2022-09-18T01:25:31Z</time>
      </trkpt>
      <trkpt lat="44.10634" lon="6.69987">
        <ele>2284.7</ele>
        <time>2022-09-18T01:25:32Z</time>
      </trkpt>
      <trkpt lat="44.1064" lon="6.6999">
        <ele>2284.8</ele>
        <time>2022-09-18T01:25:33Z</time>
      </trkpt>
      <trkpt lat="44.10644" lon="6.69992">
        <ele>2284.8</ele>
        <time>2022-09-18T01:25:34Z</time>
      </trkpt>
      <trkpt lat="44.1065" lon="6.69992">
        <ele>2284.8</ele>
        <time>2022-09-18T01:25:36Z</time>
      </trkpt>
      <trkpt lat="44.10654" lon="6.69989">
        <ele>2284.8</ele>
        <time>2022-09-18T01:25:37Z</time>
      </trkpt>
      <trkpt lat="44.10657" lon="6.69986">
        <ele>2284.8</ele>
        <time>2022-09-18T01:25:38Z</time>
      </trkpt>
      <trkpt lat="44.1066" lon="6.69985">
        <ele>2284.8</ele>
        <time>2022-09-18T01:25:39Z</time>
      </trkpt>
      <trkpt lat="44.10661" lon="6.69984">
        <ele>2284.8</ele>
        <time>2022-09-18T01:25:41Z</time>
      </trkpt>
      <trkpt lat="44.1066" lon="6.69982">
        <ele>2284.9</ele>
        <time>2022-09-18T01:25:42Z</time>
      </trkpt>
      <trkpt lat="44.10661" lon="6.69981">
        <ele>2284.9</ele>
        <time>2022-09-18T01:25:43Z</time>
      </trkpt>
      <trkpt lat="44.10662" lon="6.69981">
        <ele>2284.9</ele>
        <time>2022-09-18T01:25:44Z</time>
      </trkpt>
      <trkpt lat="44.10662" lon="6.69981">
        <ele>2284.9</ele>
        <time>2022-09-18T01:25:46Z</time>
      </trkpt>
      <trkpt lat="44.10662" lon="6.69982">
        <ele>2284.9</ele>
        <time>2022-09-18T01:25:47Z</time>
      </trkpt>
      <trkpt lat="44.10662" lon="6.69982">
        <ele>2284.9</ele>
        <time>2022-09-18T01:25:48Z</time>
      </trkpt>
      <trkpt lat="44.10662" lon="6.69982">
        <ele>2284.9</ele>
        <time>2022-09-18T01:25:49Z</time>
      </trkpt>
      <trkpt lat="44.10663" lon="6.69982">
        <ele>2284.9</ele>
        <time>2022-09-18T01:25:51Z</time>
      </trkpt>
      <trkpt lat="44.10663" lon="6.69982">
        <ele>2284.9</ele>
        <time>2022-09-18T01:25:52Z</time>
      </trkpt>
      <trkpt lat="44.10663" lon="6.69982">
        <ele>2284.9</ele>
        <time>2022-09-18T01:25:53Z</time>
      </trkpt>
      <trkpt lat="44.10663" lon="6.69982">
        <ele>2284.9</ele>
        <time>2022-09-18T01:25:54Z</time>
      </trkpt>
      <trkpt lat="44.10664" lon="6.69982">
        <ele>2284.9</ele>
        <time>2022-09-18T01:25:56Z</time>
      </trkpt>
      <trkpt lat="44.10665" lon="6.69982">
        <ele>2284.9</ele>
        <time>2022-09-18T01:25:57Z</time>
      </trkpt>
      <trkpt lat="44.10666" lon="6.69981">
        <ele>2284.9</ele>
        <time>2022-09-18T01:25:58Z</time>
      </trkpt>
      <trkpt lat="44.1067" lon="6.6998">
        <ele>2285</ele>
        <time>2022-09-18T01:25:59Z</time>
      </trkpt>
      <trkpt lat="44.10671" lon="6.69979">
        <ele>2285</ele>
        <time>2022-09-18T01:26:00Z</time>
      </trkpt>
      <trkpt lat="44.10675" lon="6.69979">
        <ele>2285.1</ele>
        <time>2022-09-18T01:26:01Z</time>
      </trkpt>
      <trkpt lat="44.10676" lon="6.69978">
        <ele>2285.1</ele>
        <time>2022-09-18T01:26:02Z</time>
      </trkpt>
      <trkpt lat="44.10679" lon="6.69976">
        <ele>2285.2</ele>
        <time>2022-09-18T01:26:03Z</time>
      </trkpt>
      <trkpt lat="44.10681" lon="6.69973">
        <ele>2285.3</ele>
        <time>2022-09-18T01:26:04Z</time>
      </trkpt>
      <trkpt lat="44.10684" lon="6.69971">
        <ele>2285.4</ele>
        <time>2022-09-18T01:26:06Z</time>
      </trkpt>
      <trkpt lat="44.10688" lon="6.69973">
        <ele>2285.5</ele>
        <time>2022-09-18T01:26:07Z</time>
      </trkpt>
      <trkpt lat="44.1069" lon="6.69973">
        <ele>2285.5</ele>
        <time>2022-09-18T01:26:08Z</time>
      </trkpt>
      <trkpt lat="44.10693" lon="6.69974">
        <ele>2285.6</ele>
        <time>2022-09-18T01:26:09Z</time>
      </trkpt>
      <trkpt lat="44.10696" lon="6.69975">
        <ele>2285.7</ele>
        <time>2022-09-18T01:26:11Z</time>
      </trkpt>
      <trkpt lat="44.10699" lon="6.69974">
        <ele>2285.7</ele>
        <time>2022-09-18T01:26:12Z</time>
      </trkpt>
      <trkpt lat="44.10703" lon="6.69973">
        <ele>2285.8</ele>
        <time>2022-09-18T01:26:13Z</time>
      </trkpt>
      <trkpt lat="44.10706" lon="6.6997">
        <ele>2285.9</ele>
        <time>2022-09-18T01:26:14Z</time>
      </trkpt>
      <trkpt lat="44.10709" lon="6.69968">
        <ele>2285.9</ele>
        <time>2022-09-18T01:26:15Z</time>
      </trkpt>
      <trkpt lat="44.10713" lon="6.69964">
        <ele>2286.1</ele>
        <time>2022-09-18T01:26:16Z</time>
      </trkpt>
      <trkpt lat="44.10717" lon="6.69961">
        <ele>2286.2</ele>
        <time>2022-09-18T01:26:17Z</time>
      </trkpt>
      <trkpt lat="44.10721" lon="6.69959">
        <ele>2286.4</ele>
        <time>2022-09-18T01:26:18Z</time>
      </trkpt>
      <trkpt lat="44.10724" lon="6.69955">
        <ele>2286.5</ele>
        <time>2022-09-18T01:26:20Z</time>
      </trkpt>
      <trkpt lat="44.10729" lon="6.69949">
        <ele>2286.8</ele>
        <time>2022-09-18T01:26:21Z</time>
      </trkpt>
      <trkpt lat="44.10733" lon="6.69943">
        <ele>2287.1</ele>
        <time>2022-09-18T01:26:23Z</time>
      </trkpt>
      <trkpt lat="44.10736" lon="6.69939">
        <ele>2287.4</ele>
        <time>2022-09-18T01:26:24Z</time>
      </trkpt>
      <trkpt lat="44.1074" lon="6.69936">
        <ele>2287.7</ele>
        <time>2022-09-18T01:26:25Z</time>
      </trkpt>
      <trkpt lat="44.10743" lon="6.69934">
        <ele>2287.9</ele>
        <time>2022-09-18T01:26:26Z</time>
      </trkpt>
      <trkpt lat="44.10745" lon="6.69931">
        <ele>2288.1</ele>
        <time>2022-09-18T01:26:28Z</time>
      </trkpt>
      <trkpt lat="44.10747" lon="6.69927">
        <ele>2288.3</ele>
        <time>2022-09-18T01:26:29Z</time>
      </trkpt>
      <trkpt lat="44.10752" lon="6.69923">
        <ele>2288.7</ele>
        <time>2022-09-18T01:26:30Z</time>
      </trkpt>
      <trkpt lat="44.10756" lon="6.69922">
        <ele>2288.9</ele>
        <time>2022-09-18T01:26:32Z</time>
      </trkpt>
      <trkpt lat="44.10761" lon="6.69921">
        <ele>2289.1</ele>
        <time>2022-09-18T01:26:33Z</time>
      </trkpt>
      <trkpt lat="44.10766" lon="6.69921">
        <ele>2289.3</ele>
        <time>2022-09-18T01:26:35Z</time>
      </trkpt>
      <trkpt lat="44.10772" lon="6.6992">
        <ele>2289.5</ele>
        <time>2022-09-18T01:26:36Z</time>
      </trkpt>
      <trkpt lat="44.10777" lon="6.69919">
        <ele>2289.8</ele>
        <time>2022-09-18T01:26:37Z</time>
      </trkpt>
      <trkpt lat="44.10781" lon="6.69918">
        <ele>2290</ele>
        <time>2022-09-18T01:26:38Z</time>
      </trkpt>
      <trkpt lat="44.10785" lon="6.69914">
        <ele>2290.3</ele>
        <time>2022-09-18T01:26:40Z</time>
      </trkpt>
      <trkpt lat="44.10788" lon="6.6991">
        <ele>2290.5</ele>
        <time>2022-09-18T01:26:41Z</time>
      </trkpt>
      <trkpt lat="44.10791" lon="6.69907">
        <ele>2290.7</ele>
        <time>2022-09-18T01:26:42Z</time>
      </trkpt>
      <trkpt lat="44.10794" lon="6.69903">
        <ele>2291</ele>
        <time>2022-09-18T01:26:43Z</time>
      </trkpt>
      <trkpt lat="44.10796" lon="6.699">
        <ele>2291.2</ele>
        <time>2022-09-18T01:26:44Z</time>
      </trkpt>
      <trkpt lat="44.10799" lon="6.69897">
        <ele>2291.4</ele>
        <time>2022-09-18T01:26:45Z</time>
      </trkpt>
      <trkpt lat="44.10803" lon="6.69891">
        <ele>2291.8</ele>
        <time>2022-09-18T01:26:47Z</time>
      </trkpt>
      <trkpt lat="44.10805" lon="6.69887">
        <ele>2292</ele>
        <time>2022-09-18T01:26:48Z</time>
      </trkpt>
      <trkpt lat="44.10807" lon="6.69884">
        <ele>2292.1</ele>
        <time>2022-09-18T01:26:49Z</time>
      </trkpt>
      <trkpt lat="44.10808" lon="6.6988">
        <ele>2292.3</ele>
        <time>2022-09-18T01:26:50Z</time>
      </trkpt>
      <trkpt lat="44.1081" lon="6.69876">
        <ele>2292.4</ele>
        <time>2022-09-18T01:26:51Z</time>
      </trkpt>
      <trkpt lat="44.10811" lon="6.69871">
        <ele>2292.5</ele>
        <time>2022-09-18T01:26:52Z</time>
      </trkpt>
      <trkpt lat="44.10811" lon="6.69869">
        <ele>2292.5</ele>
        <time>2022-09-18T01:26:53Z</time>
      </trkpt>
      <trkpt lat="44.10812" lon="6.69864">
        <ele>2292.7</ele>
        <time>2022-09-18T01:26:54Z</time>
      </trkpt>
      <trkpt lat="44.10812" lon="6.69862">
        <ele>2292.7</ele>
        <time>2022-09-18T01:26:55Z</time>
      </trkpt>
      <trkpt lat="44.10812" lon="6.69858">
        <ele>2292.8</ele>
        <time>2022-09-18T01:26:56Z</time>
      </trkpt>
      <trkpt lat="44.10812" lon="6.69851">
        <ele>2292.9</ele>
        <time>2022-09-18T01:26:57Z</time>
      </trkpt>
      <trkpt lat="44.10813" lon="6.69846">
        <ele>2292.9</ele>
        <time>2022-09-18T01:26:58Z</time>
      </trkpt>
      <trkpt lat="44.10814" lon="6.69844">
        <ele>2292.9</ele>
        <time>2022-09-18T01:26:59Z</time>
      </trkpt>
      <trkpt lat="44.10816" lon="6.69841">
        <ele>2293</ele>
        <time>2022-09-18T01:27:00Z</time>
      </trkpt>
      <trkpt lat="44.10821" lon="6.69836">
        <ele>2293</ele>
        <time>2022-09-18T01:27:02Z</time>
      </trkpt>
      <trkpt lat="44.10825" lon="6.69831">
        <ele>2293</ele>
        <time>2022-09-18T01:27:03Z</time>
      </trkpt>
      <trkpt lat="44.10828" lon="6.69828">
        <ele>2293</ele>
        <time>2022-09-18T01:27:05Z</time>
      </trkpt>
      <trkpt lat="44.10831" lon="6.69823">
        <ele>2293.1</ele>
        <time>2022-09-18T01:27:06Z</time>
      </trkpt>
      <trkpt lat="44.10832" lon="6.69819">
        <ele>2293.1</ele>
        <time>2022-09-18T01:27:07Z</time>
      </trkpt>
      <trkpt lat="44.10834" lon="6.69815">
        <ele>2293.2</ele>
        <time>2022-09-18T01:27:08Z</time>
      </trkpt>
      <trkpt lat="44.10838" lon="6.6981">
        <ele>2293.4</ele>
        <time>2022-09-18T01:27:09Z</time>
      </trkpt>
      <trkpt lat="44.10841" lon="6.69806">
        <ele>2293.6</ele>
        <time>2022-09-18T01:27:11Z</time>
      </trkpt>
      <trkpt lat="44.10842" lon="6.69801">
        <ele>2293.8</ele>
        <time>2022-09-18T01:27:12Z</time>
      </trkpt>
      <trkpt lat="44.10845" lon="6.69793">
        <ele>2294.4</ele>
        <time>2022-09-18T01:27:14Z</time>
      </trkpt>
      <trkpt lat="44.10847" lon="6.69791">
        <ele>2294.7</ele>
        <time>2022-09-18T01:27:15Z</time>
      </trkpt>
      <trkpt lat="44.1085" lon="6.69777">
        <ele>2295.8</ele>
        <time>2022-09-18T01:27:17Z</time>
      </trkpt>
      <trkpt lat="44.1085" lon="6.69773">
        <ele>2296.1</ele>
        <time>2022-09-18T01:27:18Z</time>
      </trkpt>
      <trkpt lat="44.10849" lon="6.69767">
        <ele>2296.5</ele>
        <time>2022-09-18T01:27:19Z</time>
      </trkpt>
      <trkpt lat="44.10851" lon="6.69759">
        <ele>2297</ele>
        <time>2022-09-18T01:27:20Z</time>
      </trkpt>
      <trkpt lat="44.10854" lon="6.69752">
        <ele>2297.2</ele>
        <time>2022-09-18T01:27:21Z</time>
      </trkpt>
      <trkpt lat="44.10855" lon="6.69745">
        <ele>2297.4</ele>
        <time>2022-09-18T01:27:22Z</time>
      </trkpt>
      <trkpt lat="44.10857" lon="6.69738">
        <ele>2297.5</ele>
        <time>2022-09-18T01:27:24Z</time>
      </trkpt>
      <trkpt lat="44.10858" lon="6.69731">
        <ele>2297.5</ele>
        <time>2022-09-18T01:27:25Z</time>
      </trkpt>
      <trkpt lat="44.10859" lon="6.69728">
        <ele>2297.5</ele>
        <time>2022-09-18T01:27:26Z</time>
      </trkpt>
      <trkpt lat="44.10859" lon="6.69724">
        <ele>2297.5</ele>
        <time>2022-09-18T01:27:27Z</time>
      </trkpt>
      <trkpt lat="44.10859" lon="6.69714">
        <ele>2297.4</ele>
        <time>2022-09-18T01:27:29Z</time>
      </trkpt>
      <trkpt lat="44.10861" lon="6.6971">
        <ele>2297.3</ele>
        <time>2022-09-18T01:27:30Z</time>
      </trkpt>
      <trkpt lat="44.10863" lon="6.69706">
        <ele>2297.3</ele>
        <time>2022-09-18T01:27:31Z</time>
      </trkpt>
      <trkpt lat="44.10864" lon="6.69701">
        <ele>2297.2</ele>
        <time>2022-09-18T01:27:32Z</time>
      </trkpt>
      <trkpt lat="44.10864" lon="6.69695">
        <ele>2297.1</ele>
        <time>2022-09-18T01:27:33Z</time>
      </trkpt>
      <trkpt lat="44.10863" lon="6.69689">
        <ele>2297</ele>
        <time>2022-09-18T01:27:35Z</time>
      </trkpt>
      <trkpt lat="44.10862" lon="6.69685">
        <ele>2296.9</ele>
        <time>2022-09-18T01:27:36Z</time>
      </trkpt>
      <trkpt lat="44.10863" lon="6.69682">
        <ele>2296.8</ele>
        <time>2022-09-18T01:27:37Z</time>
      </trkpt>
      <trkpt lat="44.10865" lon="6.69677">
        <ele>2296.7</ele>
        <time>2022-09-18T01:27:38Z</time>
      </trkpt>
      <trkpt lat="44.10866" lon="6.69672">
        <ele>2296.6</ele>
        <time>2022-09-18T01:27:39Z</time>
      </trkpt>
      <trkpt lat="44.10865" lon="6.69665">
        <ele>2296.6</ele>
        <time>2022-09-18T01:27:41Z</time>
      </trkpt>
      <trkpt lat="44.10864" lon="6.6966">
        <ele>2296.5</ele>
        <time>2022-09-18T01:27:42Z</time>
      </trkpt>
      <trkpt lat="44.10864" lon="6.69657">
        <ele>2296.5</ele>
        <time>2022-09-18T01:27:43Z</time>
      </trkpt>
      <trkpt lat="44.10864" lon="6.69655">
        <ele>2296.5</ele>
        <time>2022-09-18T01:27:45Z</time>
      </trkpt>
      <trkpt lat="44.10865" lon="6.69653">
        <ele>2296.4</ele>
        <time>2022-09-18T01:27:46Z</time>
      </trkpt>
      <trkpt lat="44.10866" lon="6.69651">
        <ele>2296.4</ele>
        <time>2022-09-18T01:27:47Z</time>
      </trkpt>
      <trkpt lat="44.10869" lon="6.69651">
        <ele>2296.4</ele>
        <time>2022-09-18T01:27:48Z</time>
      </trkpt>
      <trkpt lat="44.10872" lon="6.69652">
        <ele>2296.4</ele>
        <time>2022-09-18T01:27:50Z</time>
      </trkpt>
      <trkpt lat="44.1087" lon="6.69654">
        <ele>2296.4</ele>
        <time>2022-09-18T01:27:52Z</time>
      </trkpt>
      <trkpt lat="44.1087" lon="6.69654">
        <ele>2296.4</ele>
        <time>2022-09-18T01:27:53Z</time>
      </trkpt>
      <trkpt lat="44.1087" lon="6.69654">
        <ele>2296.4</ele>
        <time>2022-09-18T01:27:54Z</time>
      </trkpt>
      <trkpt lat="44.1087" lon="6.69654">
        <ele>2296.5</ele>
        <time>2022-09-18T01:27:55Z</time>
      </trkpt>
      <trkpt lat="44.1087" lon="6.69653">
        <ele>2296.5</ele>
        <time>2022-09-18T01:27:56Z</time>
      </trkpt>
      <trkpt lat="44.1087" lon="6.69653">
        <ele>2296.5</ele>
        <time>2022-09-18T01:27:57Z</time>
      </trkpt>
      <trkpt lat="44.1087" lon="6.69653">
        <ele>2296.5</ele>
        <time>2022-09-18T01:27:59Z</time>
      </trkpt>
      <trkpt lat="44.1087" lon="6.69653">
        <ele>2296.5</ele>
        <time>2022-09-18T01:28:00Z</time>
      </trkpt>
      <trkpt lat="44.1087" lon="6.69653">
        <ele>2296.5</ele>
        <time>2022-09-18T01:28:01Z</time>
      </trkpt>
      <trkpt lat="44.10874" lon="6.69655">
        <ele>2296.5</ele>
        <time>2022-09-18T01:28:12Z</time>
      </trkpt>
      <trkpt lat="44.10876" lon="6.69655">
        <ele>2296.6</ele>
        <time>2022-09-18T01:28:13Z</time>
      </trkpt>
      <trkpt lat="44.10879" lon="6.69655">
        <ele>2296.6</ele>
        <time>2022-09-18T01:28:15Z</time>
      </trkpt>
      <trkpt lat="44.1088" lon="6.69654">
        <ele>2296.7</ele>
        <time>2022-09-18T01:28:16Z</time>
      </trkpt>
      <trkpt lat="44.10882" lon="6.69653">
        <ele>2296.7</ele>
        <time>2022-09-18T01:28:17Z</time>
      </trkpt>
      <trkpt lat="44.10884" lon="6.69652">
        <ele>2296.8</ele>
        <time>2022-09-18T01:28:18Z</time>
      </trkpt>
      <trkpt lat="44.10884" lon="6.69651">
        <ele>2296.8</ele>
        <time>2022-09-18T01:28:20Z</time>
      </trkpt>
      <trkpt lat="44.10885" lon="6.69651">
        <ele>2296.8</ele>
        <time>2022-09-18T01:28:21Z</time>
      </trkpt>
      <trkpt lat="44.10887" lon="6.6965">
        <ele>2296.9</ele>
        <time>2022-09-18T01:28:22Z</time>
      </trkpt>
      <trkpt lat="44.10888" lon="6.69649">
        <ele>2296.9</ele>
        <time>2022-09-18T01:28:23Z</time>
      </trkpt>
      <trkpt lat="44.10889" lon="6.69648">
        <ele>2296.9</ele>
        <time>2022-09-18T01:28:24Z</time>
      </trkpt>
      <trkpt lat="44.1089" lon="6.69648">
        <ele>2297</ele>
        <time>2022-09-18T01:28:26Z</time>
      </trkpt>
      <trkpt lat="44.1089" lon="6.69647">
        <ele>2297</ele>
        <time>2022-09-18T01:28:27Z</time>
      </trkpt>
      <trkpt lat="44.10891" lon="6.69646">
        <ele>2297</ele>
        <time>2022-09-18T01:28:28Z</time>
      </trkpt>
      <trkpt lat="44.10892" lon="6.69646">
        <ele>2297.1</ele>
        <time>2022-09-18T01:28:30Z</time>
      </trkpt>
      <trkpt lat="44.10894" lon="6.69645">
        <ele>2297.1</ele>
        <time>2022-09-18T01:28:31Z</time>
      </trkpt>
      <trkpt lat="44.10895" lon="6.69645">
        <ele>2297.2</ele>
        <time>2022-09-18T01:28:32Z</time>
      </trkpt>
      <trkpt lat="44.10896" lon="6.69644">
        <ele>2297.3</ele>
        <time>2022-09-18T01:28:34Z</time>
      </trkpt>
      <trkpt lat="44.10897" lon="6.69643">
        <ele>2297.3</ele>
        <time>2022-09-18T01:28:35Z</time>
      </trkpt>
      <trkpt lat="44.10897" lon="6.69643">
        <ele>2297.3</ele>
        <time>2022-09-18T01:28:36Z</time>
      </trkpt>
      <trkpt lat="44.10898" lon="6.69642">
        <ele>2297.3</ele>
        <time>2022-09-18T01:28:37Z</time>
      </trkpt>
      <trkpt lat="44.10898" lon="6.69642">
        <ele>2297.3</ele>
        <time>2022-09-18T01:28:38Z</time>
      </trkpt>
      <trkpt lat="44.10897" lon="6.69641">
        <ele>2297.4</ele>
        <time>2022-09-18T01:28:39Z</time>
      </trkpt>
      <trkpt lat="44.10897" lon="6.69641">
        <ele>2297.4</ele>
        <time>2022-09-18T01:28:41Z</time>
      </trkpt>
      <trkpt lat="44.10898" lon="6.69641">
        <ele>2297.4</ele>
        <time>2022-09-18T01:28:43Z</time>
      </trkpt>
      <trkpt lat="44.10898" lon="6.69641">
        <ele>2297.4</ele>
        <time>2022-09-18T01:28:44Z</time>
      </trkpt>
      <trkpt lat="44.10897" lon="6.69641">
        <ele>2297.4</ele>
        <time>2022-09-18T01:28:45Z</time>
      </trkpt>
      <trkpt lat="44.10897" lon="6.69641">
        <ele>2297.4</ele>
        <time>2022-09-18T01:28:46Z</time>
      </trkpt>
      <trkpt lat="44.10897" lon="6.69642">
        <ele>2297.4</ele>
        <time>2022-09-18T01:28:47Z</time>
      </trkpt>
      <trkpt lat="44.10897" lon="6.69642">
        <ele>2297.4</ele>
        <time>2022-09-18T01:28:50Z</time>
      </trkpt>
      <trkpt lat="44.10897" lon="6.69642">
        <ele>2297.4</ele>
        <time>2022-09-18T01:28:51Z</time>
      </trkpt>
      <trkpt lat="44.10896" lon="6.69642">
        <ele>2297.5</ele>
        <time>2022-09-18T01:28:52Z</time>
      </trkpt>
      <trkpt lat="44.10896" lon="6.69642">
        <ele>2297.5</ele>
        <time>2022-09-18T01:28:53Z</time>
      </trkpt>
      <trkpt lat="44.10896" lon="6.69642">
        <ele>2297.5</ele>
        <time>2022-09-18T01:28:55Z</time>
      </trkpt>
      <trkpt lat="44.10896" lon="6.69643">
        <ele>2297.5</ele>
        <time>2022-09-18T01:28:56Z</time>
      </trkpt>
      <trkpt lat="44.10896" lon="6.69643">
        <ele>2297.5</ele>
        <time>2022-09-18T01:28:57Z</time>
      </trkpt>
      <trkpt lat="44.10899" lon="6.69642">
        <ele>2297.6</ele>
        <time>2022-09-18T01:30:09Z</time>
      </trkpt>
      <trkpt lat="44.10898" lon="6.69642">
        <ele>2297.7</ele>
        <time>2022-09-18T01:30:10Z</time>
      </trkpt>
      <trkpt lat="44.10898" lon="6.69642">
        <ele>2297.7</ele>
        <time>2022-09-18T01:30:11Z</time>
      </trkpt>
      <trkpt lat="44.10897" lon="6.69642">
        <ele>2297.7</ele>
        <time>2022-09-18T01:30:12Z</time>
      </trkpt>
      <trkpt lat="44.10897" lon="6.69642">
        <ele>2297.7</ele>
        <time>2022-09-18T01:30:13Z</time>
      </trkpt>
      <trkpt lat="44.10898" lon="6.69642">
        <ele>2297.7</ele>
        <time>2022-09-18T01:30:14Z</time>
      </trkpt>
      <trkpt lat="44.10898" lon="6.69642">
        <ele>2297.7</ele>
        <time>2022-09-18T01:30:18Z</time>
      </trkpt>
      <trkpt lat="44.10898" lon="6.69642">
        <ele>2297.7</ele>
        <time>2022-09-18T01:30:22Z</time>
      </trkpt>
      <trkpt lat="44.10898" lon="6.69642">
        <ele>2297.7</ele>
        <time>2022-09-18T01:30:26Z</time>
      </trkpt>
      <trkpt lat="44.10898" lon="6.69642">
        <ele>2297.7</ele>
        <time>2022-09-18T01:30:30Z</time>
      </trkpt>
      <trkpt lat="44.10898" lon="6.69642">
        <ele>2297.8</ele>
        <time>2022-09-18T01:30:32Z</time>
      </trkpt>
      <trkpt lat="44.10898" lon="6.69642">
        <ele>2297.8</ele>
        <time>2022-09-18T01:30:33Z</time>
      </trkpt>
      <trkpt lat="44.10899" lon="6.69642">
        <ele>2297.8</ele>
        <time>2022-09-18T01:30:34Z</time>
      </trkpt>
      <trkpt lat="44.10899" lon="6.69642">
        <ele>2297.8</ele>
        <time>2022-09-18T01:30:36Z</time>
      </trkpt>
      <trkpt lat="44.10899" lon="6.69642">
        <ele>2297.8</ele>
        <time>2022-09-18T01:30:39Z</time>
      </trkpt>
      <trkpt lat="44.109" lon="6.69639">
        <ele>2297.9</ele>
        <time>2022-09-18T01:31:39Z</time>
      </trkpt>
      <trkpt lat="44.109" lon="6.69639">
        <ele>2297.9</ele>
        <time>2022-09-18T01:31:40Z</time>
      </trkpt>
      <trkpt lat="44.109" lon="6.6964">
        <ele>2298</ele>
        <time>2022-09-18T01:31:41Z</time>
      </trkpt>
      <trkpt lat="44.109" lon="6.69641">
        <ele>2298</ele>
        <time>2022-09-18T01:31:42Z</time>
      </trkpt>
      <trkpt lat="44.10899" lon="6.69641">
        <ele>2298</ele>
        <time>2022-09-18T01:31:43Z</time>
      </trkpt>
      <trkpt lat="44.109" lon="6.69642">
        <ele>2298</ele>
        <time>2022-09-18T01:31:44Z</time>
      </trkpt>
      <trkpt lat="44.109" lon="6.69643">
        <ele>2298.1</ele>
        <time>2022-09-18T01:31:46Z</time>
      </trkpt>
      <trkpt lat="44.109" lon="6.69643">
        <ele>2298.1</ele>
        <time>2022-09-18T01:31:48Z</time>
      </trkpt>
      <trkpt lat="44.10898" lon="6.69644">
        <ele>2298.2</ele>
        <time>2022-09-18T01:31:49Z</time>
      </trkpt>
      <trkpt lat="44.10897" lon="6.69644">
        <ele>2298.2</ele>
        <time>2022-09-18T01:31:50Z</time>
      </trkpt>
      <trkpt lat="44.10897" lon="6.69645">
        <ele>2298.3</ele>
        <time>2022-09-18T01:31:51Z</time>
      </trkpt>
      <trkpt lat="44.10895" lon="6.69645">
        <ele>2298.3</ele>
        <time>2022-09-18T01:31:53Z</time>
      </trkpt>
      <trkpt lat="44.10894" lon="6.69646">
        <ele>2298.4</ele>
        <time>2022-09-18T01:31:54Z</time>
      </trkpt>
      <trkpt lat="44.10892" lon="6.69647">
        <ele>2298.5</ele>
        <time>2022-09-18T01:31:55Z</time>
      </trkpt>
      <trkpt lat="44.10891" lon="6.69648">
        <ele>2298.6</ele>
        <time>2022-09-18T01:31:56Z</time>
      </trkpt>
      <trkpt lat="44.10889" lon="6.69649">
        <ele>2298.6</ele>
        <time>2022-09-18T01:31:58Z</time>
      </trkpt>
      <trkpt lat="44.10887" lon="6.6965">
        <ele>2298.7</ele>
        <time>2022-09-18T01:31:59Z</time>
      </trkpt>
      <trkpt lat="44.10885" lon="6.6965">
        <ele>2298.8</ele>
        <time>2022-09-18T01:32:00Z</time>
      </trkpt>
      <trkpt lat="44.10884" lon="6.69651">
        <ele>2298.9</ele>
        <time>2022-09-18T01:32:02Z</time>
      </trkpt>
      <trkpt lat="44.10883" lon="6.69651">
        <ele>2298.9</ele>
        <time>2022-09-18T01:32:03Z</time>
      </trkpt>
      <trkpt lat="44.1088" lon="6.69651">
        <ele>2299</ele>
        <time>2022-09-18T01:32:05Z</time>
      </trkpt>
      <trkpt lat="44.10879" lon="6.6965">
        <ele>2299.1</ele>
        <time>2022-09-18T01:32:07Z</time>
      </trkpt>
      <trkpt lat="44.10878" lon="6.6965">
        <ele>2299.1</ele>
        <time>2022-09-18T01:32:08Z</time>
      </trkpt>
      <trkpt lat="44.10877" lon="6.69649">
        <ele>2299.2</ele>
        <time>2022-09-18T01:32:09Z</time>
      </trkpt>
      <trkpt lat="44.10876" lon="6.69648">
        <ele>2299.2</ele>
        <time>2022-09-18T01:32:10Z</time>
      </trkpt>
      <trkpt lat="44.10875" lon="6.69648">
        <ele>2299.3</ele>
        <time>2022-09-18T01:32:12Z</time>
      </trkpt>
      <trkpt lat="44.10874" lon="6.69647">
        <ele>2299.3</ele>
        <time>2022-09-18T01:32:14Z</time>
      </trkpt>
      <trkpt lat="44.10873" lon="6.69646">
        <ele>2299.4</ele>
        <time>2022-09-18T01:32:16Z</time>
      </trkpt>
      <trkpt lat="44.10872" lon="6.69646">
        <ele>2299.4</ele>
        <time>2022-09-18T01:32:17Z</time>
      </trkpt>
      <trkpt lat="44.10871" lon="6.69645">
        <ele>2299.4</ele>
        <time>2022-09-18T01:33:41Z</time>
      </trkpt>
      <trkpt lat="44.1087" lon="6.69644">
        <ele>2299.5</ele>
        <time>2022-09-18T01:33:42Z</time>
      </trkpt>
      <trkpt lat="44.10869" lon="6.69644">
        <ele>2299.5</ele>
        <time>2022-09-18T01:33:43Z</time>
      </trkpt>
      <trkpt lat="44.10865" lon="6.69643">
        <ele>2299.7</ele>
        <time>2022-09-18T01:33:44Z</time>
      </trkpt>
      <trkpt lat="44.1086" lon="6.69643">
        <ele>2299.8</ele>
        <time>2022-09-18T01:33:45Z</time>
      </trkpt>
      <trkpt lat="44.10857" lon="6.69642">
        <ele>2299.9</ele>
        <time>2022-09-18T01:33:46Z</time>
      </trkpt>
      <trkpt lat="44.1085" lon="6.69641">
        <ele>2300.1</ele>
        <time>2022-09-18T01:33:47Z</time>
      </trkpt>
      <trkpt lat="44.10847" lon="6.69639">
        <ele>2300.2</ele>
        <time>2022-09-18T01:33:48Z</time>
      </trkpt>
      <trkpt lat="44.10844" lon="6.69635">
        <ele>2300.3</ele>
        <time>2022-09-18T01:33:49Z</time>
      </trkpt>
      <trkpt lat="44.10839" lon="6.69635">
        <ele>2300.4</ele>
        <time>2022-09-18T01:33:50Z</time>
      </trkpt>
      <trkpt lat="44.10836" lon="6.69633">
        <ele>2300.5</ele>
        <time>2022-09-18T01:33:51Z</time>
      </trkpt>
      <trkpt lat="44.10826" lon="6.69624">
        <ele>2300.7</ele>
        <time>2022-09-18T01:33:53Z</time>
      </trkpt>
      <trkpt lat="44.10822" lon="6.6962">
        <ele>2300.8</ele>
        <time>2022-09-18T01:33:54Z</time>
      </trkpt>
      <trkpt lat="44.10818" lon="6.69615">
        <ele>2300.9</ele>
        <time>2022-09-18T01:33:55Z</time>
      </trkpt>
      <trkpt lat="44.10813" lon="6.69609">
        <ele>2301</ele>
        <time>2022-09-18T01:33:56Z</time>
      </trkpt>
      <trkpt lat="44.1081" lon="6.69604">
        <ele>2301.1</ele>
        <time>2022-09-18T01:33:58Z</time>
      </trkpt>
      <trkpt lat="44.10808" lon="6.69599">
        <ele>2301.2</ele>
        <time>2022-09-18T01:33:59Z</time>
      </trkpt>
      <trkpt lat="44.10805" lon="6.69596">
        <ele>2301.3</ele>
        <time>2022-09-18T01:34:00Z</time>
      </trkpt>
      <trkpt lat="44.10801" lon="6.69593">
        <ele>2301.5</ele>
        <time>2022-09-18T01:34:01Z</time>
      </trkpt>
      <trkpt lat="44.10797" lon="6.6959">
        <ele>2301.5</ele>
        <time>2022-09-18T01:34:02Z</time>
      </trkpt>
      <trkpt lat="44.10796" lon="6.69589">
        <ele>2301.6</ele>
        <time>2022-09-18T01:34:03Z</time>
      </trkpt>
      <trkpt lat="44.10792" lon="6.69589">
        <ele>2301.6</ele>
        <time>2022-09-18T01:34:05Z</time>
      </trkpt>
      <trkpt lat="44.10786" lon="6.69592">
        <ele>2301.7</ele>
        <time>2022-09-18T01:34:06Z</time>
      </trkpt>
      <trkpt lat="44.10778" lon="6.69599">
        <ele>2301.8</ele>
        <time>2022-09-18T01:34:08Z</time>
      </trkpt>
      <trkpt lat="44.10773" lon="6.69602">
        <ele>2301.8</ele>
        <time>2022-09-18T01:34:10Z</time>
      </trkpt>
      <trkpt lat="44.10768" lon="6.69605">
        <ele>2301.8</ele>
        <time>2022-09-18T01:34:11Z</time>
      </trkpt>
      <trkpt lat="44.10764" lon="6.69607">
        <ele>2301.8</ele>
        <time>2022-09-18T01:34:13Z</time>
      </trkpt>
      <trkpt lat="44.10759" lon="6.69602">
        <ele>2301.8</ele>
        <time>2022-09-18T01:34:14Z</time>
      </trkpt>
      <trkpt lat="44.10755" lon="6.69598">
        <ele>2301.8</ele>
        <time>2022-09-18T01:34:16Z</time>
      </trkpt>
      <trkpt lat="44.10752" lon="6.69593">
        <ele>2301.8</ele>
        <time>2022-09-18T01:34:17Z</time>
      </trkpt>
      <trkpt lat="44.10749" lon="6.69588">
        <ele>2301.8</ele>
        <time>2022-09-18T01:34:18Z</time>
      </trkpt>
      <trkpt lat="44.10748" lon="6.69576">
        <ele>2301.8</ele>
        <time>2022-09-18T01:34:19Z</time>
      </trkpt>
      <trkpt lat="44.10747" lon="6.69571">
        <ele>2301.8</ele>
        <time>2022-09-18T01:34:21Z</time>
      </trkpt>
      <trkpt lat="44.10747" lon="6.69564">
        <ele>2301.9</ele>
        <time>2022-09-18T01:34:22Z</time>
      </trkpt>
      <trkpt lat="44.10746" lon="6.6956">
        <ele>2301.9</ele>
        <time>2022-09-18T01:34:23Z</time>
      </trkpt>
      <trkpt lat="44.10743" lon="6.69552">
        <ele>2302</ele>
        <time>2022-09-18T01:34:25Z</time>
      </trkpt>
      <trkpt lat="44.1074" lon="6.69549">
        <ele>2302</ele>
        <time>2022-09-18T01:34:26Z</time>
      </trkpt>
      <trkpt lat="44.10737" lon="6.69546">
        <ele>2302.1</ele>
        <time>2022-09-18T01:34:27Z</time>
      </trkpt>
      <trkpt lat="44.10733" lon="6.69544">
        <ele>2302.1</ele>
        <time>2022-09-18T01:34:28Z</time>
      </trkpt>
      <trkpt lat="44.10729" lon="6.69538">
        <ele>2302.2</ele>
        <time>2022-09-18T01:34:30Z</time>
      </trkpt>
      <trkpt lat="44.10727" lon="6.69534">
        <ele>2302.2</ele>
        <time>2022-09-18T01:34:31Z</time>
      </trkpt>
      <trkpt lat="44.10724" lon="6.69532">
        <ele>2302.3</ele>
        <time>2022-09-18T01:34:32Z</time>
      </trkpt>
      <trkpt lat="44.10721" lon="6.6953">
        <ele>2302.3</ele>
        <time>2022-09-18T01:34:33Z</time>
      </trkpt>
      <trkpt lat="44.10719" lon="6.69528">
        <ele>2302.4</ele>
        <time>2022-09-18T01:34:34Z</time>
      </trkpt>
      <trkpt lat="44.10715" lon="6.69527">
        <ele>2302.5</ele>
        <time>2022-09-18T01:34:35Z</time>
      </trkpt>
      <trkpt lat="44.10712" lon="6.69526">
        <ele>2302.5</ele>
        <time>2022-09-18T01:34:36Z</time>
      </trkpt>
      <trkpt lat="44.10709" lon="6.69524">
        <ele>2302.6</ele>
        <time>2022-09-18T01:34:37Z</time>
      </trkpt>
      <trkpt lat="44.10703" lon="6.69521">
        <ele>2302.8</ele>
        <time>2022-09-18T01:34:38Z</time>
      </trkpt>
      <trkpt lat="44.10701" lon="6.69518">
        <ele>2302.9</ele>
        <time>2022-09-18T01:34:40Z</time>
      </trkpt>
      <trkpt lat="44.10699" lon="6.69514">
        <ele>2303</ele>
        <time>2022-09-18T01:34:41Z</time>
      </trkpt>
      <trkpt lat="44.10696" lon="6.69507">
        <ele>2303.2</ele>
        <time>2022-09-18T01:34:42Z</time>
      </trkpt>
      <trkpt lat="44.10694" lon="6.69505">
        <ele>2303.3</ele>
        <time>2022-09-18T01:34:44Z</time>
      </trkpt>
      <trkpt lat="44.10689" lon="6.69503">
        <ele>2303.4</ele>
        <time>2022-09-18T01:34:45Z</time>
      </trkpt>
      <trkpt lat="44.10686" lon="6.69501">
        <ele>2303.5</ele>
        <time>2022-09-18T01:34:46Z</time>
      </trkpt>
      <trkpt lat="44.10683" lon="6.69496">
        <ele>2303.6</ele>
        <time>2022-09-18T01:34:47Z</time>
      </trkpt>
      <trkpt lat="44.10681" lon="6.69491">
        <ele>2303.8</ele>
        <time>2022-09-18T01:34:49Z</time>
      </trkpt>
      <trkpt lat="44.10679" lon="6.69486">
        <ele>2303.9</ele>
        <time>2022-09-18T01:34:50Z</time>
      </trkpt>
      <trkpt lat="44.10677" lon="6.69482">
        <ele>2304</ele>
        <time>2022-09-18T01:34:51Z</time>
      </trkpt>
      <trkpt lat="44.10675" lon="6.69477">
        <ele>2304.1</ele>
        <time>2022-09-18T01:34:52Z</time>
      </trkpt>
      <trkpt lat="44.10674" lon="6.69474">
        <ele>2304.2</ele>
        <time>2022-09-18T01:34:53Z</time>
      </trkpt>
      <trkpt lat="44.10671" lon="6.69471">
        <ele>2304.3</ele>
        <time>2022-09-18T01:34:55Z</time>
      </trkpt>
      <trkpt lat="44.10667" lon="6.69466">
        <ele>2304.4</ele>
        <time>2022-09-18T01:34:56Z</time>
      </trkpt>
      <trkpt lat="44.10666" lon="6.69462">
        <ele>2304.5</ele>
        <time>2022-09-18T01:34:58Z</time>
      </trkpt>
      <trkpt lat="44.10666" lon="6.69456">
        <ele>2304.6</ele>
        <time>2022-09-18T01:34:59Z</time>
      </trkpt>
      <trkpt lat="44.10666" lon="6.69451">
        <ele>2304.7</ele>
        <time>2022-09-18T01:35:00Z</time>
      </trkpt>
      <trkpt lat="44.10666" lon="6.69446">
        <ele>2304.9</ele>
        <time>2022-09-18T01:35:01Z</time>
      </trkpt>
      <trkpt lat="44.10665" lon="6.69441">
        <ele>2305</ele>
        <time>2022-09-18T01:35:02Z</time>
      </trkpt>
      <trkpt lat="44.10664" lon="6.69437">
        <ele>2305.1</ele>
        <time>2022-09-18T01:35:04Z</time>
      </trkpt>
      <trkpt lat="44.10663" lon="6.69433">
        <ele>2305.2</ele>
        <time>2022-09-18T01:35:05Z</time>
      </trkpt>
      <trkpt lat="44.10662" lon="6.69429">
        <ele>2305.3</ele>
        <time>2022-09-18T01:35:06Z</time>
      </trkpt>
      <trkpt lat="44.1066" lon="6.69421">
        <ele>2305.5</ele>
        <time>2022-09-18T01:35:07Z</time>
      </trkpt>
      <trkpt lat="44.10659" lon="6.69414">
        <ele>2305.6</ele>
        <time>2022-09-18T01:35:09Z</time>
      </trkpt>
      <trkpt lat="44.10657" lon="6.6941">
        <ele>2305.7</ele>
        <time>2022-09-18T01:35:10Z</time>
      </trkpt>
      <trkpt lat="44.10655" lon="6.69406">
        <ele>2305.8</ele>
        <time>2022-09-18T01:35:12Z</time>
      </trkpt>
      <trkpt lat="44.10654" lon="6.69402">
        <ele>2305.9</ele>
        <time>2022-09-18T01:35:13Z</time>
      </trkpt>
      <trkpt lat="44.10654" lon="6.69397">
        <ele>2306</ele>
        <time>2022-09-18T01:35:14Z</time>
      </trkpt>
      <trkpt lat="44.10653" lon="6.69393">
        <ele>2306.1</ele>
        <time>2022-09-18T01:35:15Z</time>
      </trkpt>
      <trkpt lat="44.10652" lon="6.69387">
        <ele>2306.2</ele>
        <time>2022-09-18T01:35:16Z</time>
      </trkpt>
      <trkpt lat="44.10652" lon="6.69382">
        <ele>2306.3</ele>
        <time>2022-09-18T01:35:17Z</time>
      </trkpt>
      <trkpt lat="44.10652" lon="6.69375">
        <ele>2306.5</ele>
        <time>2022-09-18T01:35:19Z</time>
      </trkpt>
      <trkpt lat="44.10652" lon="6.69371">
        <ele>2306.6</ele>
        <time>2022-09-18T01:35:20Z</time>
      </trkpt>
      <trkpt lat="44.10652" lon="6.69366">
        <ele>2306.6</ele>
        <time>2022-09-18T01:35:21Z</time>
      </trkpt>
      <trkpt lat="44.10655" lon="6.69361">
        <ele>2306.7</ele>
        <time>2022-09-18T01:35:22Z</time>
      </trkpt>
      <trkpt lat="44.10659" lon="6.69358">
        <ele>2306.8</ele>
        <time>2022-09-18T01:35:24Z</time>
      </trkpt>
      <trkpt lat="44.10663" lon="6.69354">
        <ele>2306.9</ele>
        <time>2022-09-18T01:35:25Z</time>
      </trkpt>
      <trkpt lat="44.10666" lon="6.6935">
        <ele>2307</ele>
        <time>2022-09-18T01:35:26Z</time>
      </trkpt>
      <trkpt lat="44.10669" lon="6.69346">
        <ele>2307.1</ele>
        <time>2022-09-18T01:35:28Z</time>
      </trkpt>
      <trkpt lat="44.10671" lon="6.6934">
        <ele>2307.1</ele>
        <time>2022-09-18T01:35:29Z</time>
      </trkpt>
      <trkpt lat="44.10673" lon="6.69334">
        <ele>2307.2</ele>
        <time>2022-09-18T01:35:30Z</time>
      </trkpt>
      <trkpt lat="44.10674" lon="6.69328">
        <ele>2307.3</ele>
        <time>2022-09-18T01:35:31Z</time>
      </trkpt>
      <trkpt lat="44.10675" lon="6.69322">
        <ele>2307.3</ele>
        <time>2022-09-18T01:35:33Z</time>
      </trkpt>
      <trkpt lat="44.10677" lon="6.69317">
        <ele>2307.4</ele>
        <time>2022-09-18T01:35:34Z</time>
      </trkpt>
      <trkpt lat="44.10678" lon="6.69311">
        <ele>2307.4</ele>
        <time>2022-09-18T01:35:35Z</time>
      </trkpt>
      <trkpt lat="44.10681" lon="6.69304">
        <ele>2307.5</ele>
        <time>2022-09-18T01:35:36Z</time>
      </trkpt>
      <trkpt lat="44.10683" lon="6.69296">
        <ele>2307.6</ele>
        <time>2022-09-18T01:35:38Z</time>
      </trkpt>
      <trkpt lat="44.10684" lon="6.69291">
        <ele>2307.6</ele>
        <time>2022-09-18T01:35:39Z</time>
      </trkpt>
      <trkpt lat="44.10683" lon="6.69286">
        <ele>2307.6</ele>
        <time>2022-09-18T01:35:40Z</time>
      </trkpt>
      <trkpt lat="44.10682" lon="6.6928">
        <ele>2307.7</ele>
        <time>2022-09-18T01:35:41Z</time>
      </trkpt>
      <trkpt lat="44.1068" lon="6.69275">
        <ele>2307.7</ele>
        <time>2022-09-18T01:35:42Z</time>
      </trkpt>
      <trkpt lat="44.10678" lon="6.69271">
        <ele>2307.8</ele>
        <time>2022-09-18T01:35:43Z</time>
      </trkpt>
      <trkpt lat="44.10675" lon="6.69266">
        <ele>2307.9</ele>
        <time>2022-09-18T01:35:44Z</time>
      </trkpt>
      <trkpt lat="44.10673" lon="6.69262">
        <ele>2307.9</ele>
        <time>2022-09-18T01:35:45Z</time>
      </trkpt>
      <trkpt lat="44.1067" lon="6.69257">
        <ele>2308</ele>
        <time>2022-09-18T01:35:46Z</time>
      </trkpt>
      <trkpt lat="44.10667" lon="6.69252">
        <ele>2308.1</ele>
        <time>2022-09-18T01:35:48Z</time>
      </trkpt>
      <trkpt lat="44.10668" lon="6.69244">
        <ele>2308.2</ele>
        <time>2022-09-18T01:35:49Z</time>
      </trkpt>
      <trkpt lat="44.10672" lon="6.69237">
        <ele>2308.3</ele>
        <time>2022-09-18T01:35:51Z</time>
      </trkpt>
      <trkpt lat="44.10673" lon="6.6923">
        <ele>2308.4</ele>
        <time>2022-09-18T01:35:52Z</time>
      </trkpt>
      <trkpt lat="44.10673" lon="6.69224">
        <ele>2308.4</ele>
        <time>2022-09-18T01:35:54Z</time>
      </trkpt>
      <trkpt lat="44.1067" lon="6.6922">
        <ele>2308.4</ele>
        <time>2022-09-18T01:35:55Z</time>
      </trkpt>
      <trkpt lat="44.10668" lon="6.69217">
        <ele>2308.5</ele>
        <time>2022-09-18T01:35:56Z</time>
      </trkpt>
      <trkpt lat="44.10663" lon="6.69212">
        <ele>2308.6</ele>
        <time>2022-09-18T01:35:57Z</time>
      </trkpt>
      <trkpt lat="44.10662" lon="6.69208">
        <ele>2308.6</ele>
        <time>2022-09-18T01:35:58Z</time>
      </trkpt>
      <trkpt lat="44.10663" lon="6.69203">
        <ele>2308.7</ele>
        <time>2022-09-18T01:35:59Z</time>
      </trkpt>
      <trkpt lat="44.10661" lon="6.69199">
        <ele>2308.7</ele>
        <time>2022-09-18T01:36:01Z</time>
      </trkpt>
      <trkpt lat="44.10659" lon="6.69195">
        <ele>2308.8</ele>
        <time>2022-09-18T01:36:02Z</time>
      </trkpt>
      <trkpt lat="44.10657" lon="6.69189">
        <ele>2308.8</ele>
        <time>2022-09-18T01:36:03Z</time>
      </trkpt>
      <trkpt lat="44.10656" lon="6.69187">
        <ele>2308.9</ele>
        <time>2022-09-18T01:36:04Z</time>
      </trkpt>
      <trkpt lat="44.10655" lon="6.69182">
        <ele>2308.9</ele>
        <time>2022-09-18T01:36:05Z</time>
      </trkpt>
      <trkpt lat="44.10656" lon="6.69177">
        <ele>2309</ele>
        <time>2022-09-18T01:36:06Z</time>
      </trkpt>
      <trkpt lat="44.10657" lon="6.69171">
        <ele>2309</ele>
        <time>2022-09-18T01:36:08Z</time>
      </trkpt>
      <trkpt lat="44.10657" lon="6.69165">
        <ele>2309.1</ele>
        <time>2022-09-18T01:36:09Z</time>
      </trkpt>
      <trkpt lat="44.10656" lon="6.69161">
        <ele>2309.1</ele>
        <time>2022-09-18T01:36:10Z</time>
      </trkpt>
      <trkpt lat="44.10656" lon="6.69156">
        <ele>2309.2</ele>
        <time>2022-09-18T01:36:11Z</time>
      </trkpt>
      <trkpt lat="44.10657" lon="6.69152">
        <ele>2309.2</ele>
        <time>2022-09-18T01:36:12Z</time>
      </trkpt>
      <trkpt lat="44.10657" lon="6.69147">
        <ele>2309.3</ele>
        <time>2022-09-18T01:36:14Z</time>
      </trkpt>
      <trkpt lat="44.1066" lon="6.6914">
        <ele>2309.4</ele>
        <time>2022-09-18T01:36:15Z</time>
      </trkpt>
      <trkpt lat="44.1066" lon="6.69136">
        <ele>2309.4</ele>
        <time>2022-09-18T01:36:16Z</time>
      </trkpt>
      <trkpt lat="44.1066" lon="6.69131">
        <ele>2309.5</ele>
        <time>2022-09-18T01:36:18Z</time>
      </trkpt>
      <trkpt lat="44.1066" lon="6.69127">
        <ele>2309.6</ele>
        <time>2022-09-18T01:36:19Z</time>
      </trkpt>
      <trkpt lat="44.10659" lon="6.69121">
        <ele>2309.6</ele>
        <time>2022-09-18T01:36:20Z</time>
      </trkpt>
      <trkpt lat="44.10659" lon="6.6912">
        <ele>2309.6</ele>
        <time>2022-09-18T01:36:21Z</time>
      </trkpt>
      <trkpt lat="44.10659" lon="6.69115">
        <ele>2309.7</ele>
        <time>2022-09-18T01:36:22Z</time>
      </trkpt>
      <trkpt lat="44.10658" lon="6.69113">
        <ele>2309.7</ele>
        <time>2022-09-18T01:36:23Z</time>
      </trkpt>
      <trkpt lat="44.10657" lon="6.69107">
        <ele>2309.8</ele>
        <time>2022-09-18T01:36:24Z</time>
      </trkpt>
      <trkpt lat="44.10657" lon="6.69104">
        <ele>2309.8</ele>
        <time>2022-09-18T01:36:26Z</time>
      </trkpt>
      <trkpt lat="44.10656" lon="6.69103">
        <ele>2309.9</ele>
        <time>2022-09-18T01:36:27Z</time>
      </trkpt>
      <trkpt lat="44.10656" lon="6.69101">
        <ele>2309.9</ele>
        <time>2022-09-18T01:36:28Z</time>
      </trkpt>
      <trkpt lat="44.10655" lon="6.69097">
        <ele>2309.9</ele>
        <time>2022-09-18T01:36:29Z</time>
      </trkpt>
      <trkpt lat="44.10655" lon="6.69096">
        <ele>2309.9</ele>
        <time>2022-09-18T01:36:30Z</time>
      </trkpt>
      <trkpt lat="44.10656" lon="6.69092">
        <ele>2310</ele>
        <time>2022-09-18T01:36:31Z</time>
      </trkpt>
      <trkpt lat="44.10657" lon="6.6909">
        <ele>2310</ele>
        <time>2022-09-18T01:36:32Z</time>
      </trkpt>
      <trkpt lat="44.10659" lon="6.69086">
        <ele>2310.1</ele>
        <time>2022-09-18T01:36:33Z</time>
      </trkpt>
      <trkpt lat="44.1066" lon="6.69085">
        <ele>2310.1</ele>
        <time>2022-09-18T01:36:34Z</time>
      </trkpt>
      <trkpt lat="44.10664" lon="6.69081">
        <ele>2310.2</ele>
        <time>2022-09-18T01:36:36Z</time>
      </trkpt>
      <trkpt lat="44.10668" lon="6.6908">
        <ele>2310.3</ele>
        <time>2022-09-18T01:36:38Z</time>
      </trkpt>
      <trkpt lat="44.10671" lon="6.69078">
        <ele>2310.4</ele>
        <time>2022-09-18T01:36:39Z</time>
      </trkpt>
      <trkpt lat="44.10673" lon="6.69075">
        <ele>2310.5</ele>
        <time>2022-09-18T01:36:40Z</time>
      </trkpt>
      <trkpt lat="44.10675" lon="6.6907">
        <ele>2310.6</ele>
        <time>2022-09-18T01:36:41Z</time>
      </trkpt>
      <trkpt lat="44.10675" lon="6.69068">
        <ele>2310.7</ele>
        <time>2022-09-18T01:36:42Z</time>
      </trkpt>
      <trkpt lat="44.10675" lon="6.69067">
        <ele>2310.7</ele>
        <time>2022-09-18T01:36:44Z</time>
      </trkpt>
      <trkpt lat="44.10675" lon="6.69068">
        <ele>2310.7</ele>
        <time>2022-09-18T01:36:45Z</time>
      </trkpt>
      <trkpt lat="44.10675" lon="6.69068">
        <ele>2310.8</ele>
        <time>2022-09-18T01:36:46Z</time>
      </trkpt>
      <trkpt lat="44.10676" lon="6.69068">
        <ele>2310.8</ele>
        <time>2022-09-18T01:36:47Z</time>
      </trkpt>
      <trkpt lat="44.10676" lon="6.69069">
        <ele>2310.8</ele>
        <time>2022-09-18T01:36:48Z</time>
      </trkpt>
      <trkpt lat="44.10676" lon="6.69069">
        <ele>2310.8</ele>
        <time>2022-09-18T01:36:49Z</time>
      </trkpt>
      <trkpt lat="44.10676" lon="6.69069">
        <ele>2310.8</ele>
        <time>2022-09-18T01:36:50Z</time>
      </trkpt>
      <trkpt lat="44.10676" lon="6.69069">
        <ele>2310.8</ele>
        <time>2022-09-18T01:36:51Z</time>
      </trkpt>
      <trkpt lat="44.10676" lon="6.69069">
        <ele>2310.8</ele>
        <time>2022-09-18T01:36:52Z</time>
      </trkpt>
      <trkpt lat="44.10676" lon="6.69069">
        <ele>2310.8</ele>
        <time>2022-09-18T01:36:53Z</time>
      </trkpt>
      <trkpt lat="44.10676" lon="6.69069">
        <ele>2310.8</ele>
        <time>2022-09-18T01:36:54Z</time>
      </trkpt>
      <trkpt lat="44.10677" lon="6.69065">
        <ele>2310.9</ele>
        <time>2022-09-18T01:37:03Z</time>
      </trkpt>
      <trkpt lat="44.10678" lon="6.69062">
        <ele>2311</ele>
        <time>2022-09-18T01:37:04Z</time>
      </trkpt>
      <trkpt lat="44.10679" lon="6.69058">
        <ele>2311.2</ele>
        <time>2022-09-18T01:37:05Z</time>
      </trkpt>
      <trkpt lat="44.1068" lon="6.69054">
        <ele>2311.3</ele>
        <time>2022-09-18T01:37:06Z</time>
      </trkpt>
      <trkpt lat="44.10682" lon="6.69049">
        <ele>2311.4</ele>
        <time>2022-09-18T01:37:07Z</time>
      </trkpt>
      <trkpt lat="44.10682" lon="6.69044">
        <ele>2311.6</ele>
        <time>2022-09-18T01:37:08Z</time>
      </trkpt>
      <trkpt lat="44.1068" lon="6.69037">
        <ele>2311.9</ele>
        <time>2022-09-18T01:37:09Z</time>
      </trkpt>
      <trkpt lat="44.10677" lon="6.69031">
        <ele>2312.1</ele>
        <time>2022-09-18T01:37:10Z</time>
      </trkpt>
      <trkpt lat="44.10676" lon="6.69024">
        <ele>2312.3</ele>
        <time>2022-09-18T01:37:11Z</time>
      </trkpt>
      <trkpt lat="44.10676" lon="6.69018">
        <ele>2312.5</ele>
        <time>2022-09-18T01:37:12Z</time>
      </trkpt>
      <trkpt lat="44.10675" lon="6.69012">
        <ele>2312.7</ele>
        <time>2022-09-18T01:37:13Z</time>
      </trkpt>
      <trkpt lat="44.10675" lon="6.69007">
        <ele>2312.8</ele>
        <time>2022-09-18T01:37:15Z</time>
      </trkpt>
      <trkpt lat="44.10675" lon="6.69005">
        <ele>2312.9</ele>
        <time>2022-09-18T01:37:16Z</time>
      </trkpt>
      <trkpt lat="44.10674" lon="6.68996">
        <ele>2313.2</ele>
        <time>2022-09-18T01:37:17Z</time>
      </trkpt>
      <trkpt lat="44.10676" lon="6.68991">
        <ele>2313.4</ele>
        <time>2022-09-18T01:37:19Z</time>
      </trkpt>
      <trkpt lat="44.10679" lon="6.68986">
        <ele>2313.7</ele>
        <time>2022-09-18T01:37:20Z</time>
      </trkpt>
      <trkpt lat="44.10682" lon="6.6898">
        <ele>2314</ele>
        <time>2022-09-18T01:37:21Z</time>
      </trkpt>
      <trkpt lat="44.10684" lon="6.68977">
        <ele>2314.2</ele>
        <time>2022-09-18T01:37:22Z</time>
      </trkpt>
      <trkpt lat="44.10687" lon="6.68972">
        <ele>2314.5</ele>
        <time>2022-09-18T01:37:23Z</time>
      </trkpt>
      <trkpt lat="44.10691" lon="6.68969">
        <ele>2314.8</ele>
        <time>2022-09-18T01:37:25Z</time>
      </trkpt>
      <trkpt lat="44.10693" lon="6.68967">
        <ele>2315</ele>
        <time>2022-09-18T01:37:26Z</time>
      </trkpt>
      <trkpt lat="44.10696" lon="6.68964">
        <ele>2315.2</ele>
        <time>2022-09-18T01:37:27Z</time>
      </trkpt>
      <trkpt lat="44.10698" lon="6.68963">
        <ele>2315.3</ele>
        <time>2022-09-18T01:37:28Z</time>
      </trkpt>
      <trkpt lat="44.10701" lon="6.68963">
        <ele>2315.5</ele>
        <time>2022-09-18T01:37:29Z</time>
      </trkpt>
      <trkpt lat="44.10702" lon="6.68965">
        <ele>2315.6</ele>
        <time>2022-09-18T01:37:30Z</time>
      </trkpt>
      <trkpt lat="44.10704" lon="6.6897">
        <ele>2315.9</ele>
        <time>2022-09-18T01:37:31Z</time>
      </trkpt>
      <trkpt lat="44.10706" lon="6.68971">
        <ele>2316.1</ele>
        <time>2022-09-18T01:37:32Z</time>
      </trkpt>
      <trkpt lat="44.10709" lon="6.68968">
        <ele>2316.3</ele>
        <time>2022-09-18T01:37:34Z</time>
      </trkpt>
      <trkpt lat="44.1071" lon="6.68963">
        <ele>2316.5</ele>
        <time>2022-09-18T01:37:35Z</time>
      </trkpt>
      <trkpt lat="44.1071" lon="6.68958">
        <ele>2316.8</ele>
        <time>2022-09-18T01:37:36Z</time>
      </trkpt>
      <trkpt lat="44.1071" lon="6.68953">
        <ele>2317.1</ele>
        <time>2022-09-18T01:37:37Z</time>
      </trkpt>
      <trkpt lat="44.1071" lon="6.68947">
        <ele>2317.3</ele>
        <time>2022-09-18T01:37:38Z</time>
      </trkpt>
      <trkpt lat="44.1071" lon="6.68942">
        <ele>2317.6</ele>
        <time>2022-09-18T01:37:40Z</time>
      </trkpt>
      <trkpt lat="44.10709" lon="6.68937">
        <ele>2317.9</ele>
        <time>2022-09-18T01:37:41Z</time>
      </trkpt>
      <trkpt lat="44.1071" lon="6.68932">
        <ele>2318.1</ele>
        <time>2022-09-18T01:37:42Z</time>
      </trkpt>
      <trkpt lat="44.1071" lon="6.68928">
        <ele>2318.3</ele>
        <time>2022-09-18T01:37:43Z</time>
      </trkpt>
      <trkpt lat="44.1071" lon="6.68924">
        <ele>2318.5</ele>
        <time>2022-09-18T01:37:44Z</time>
      </trkpt>
      <trkpt lat="44.1071" lon="6.68919">
        <ele>2318.7</ele>
        <time>2022-09-18T01:37:45Z</time>
      </trkpt>
      <trkpt lat="44.1071" lon="6.68915">
        <ele>2319</ele>
        <time>2022-09-18T01:37:46Z</time>
      </trkpt>
      <trkpt lat="44.1071" lon="6.68911">
        <ele>2319.3</ele>
        <time>2022-09-18T01:37:47Z</time>
      </trkpt>
      <trkpt lat="44.1071" lon="6.68906">
        <ele>2319.6</ele>
        <time>2022-09-18T01:37:48Z</time>
      </trkpt>
      <trkpt lat="44.1071" lon="6.68901">
        <ele>2320</ele>
        <time>2022-09-18T01:37:50Z</time>
      </trkpt>
      <trkpt lat="44.1071" lon="6.68898">
        <ele>2320.2</ele>
        <time>2022-09-18T01:37:51Z</time>
      </trkpt>
      <trkpt lat="44.1071" lon="6.68893">
        <ele>2320.5</ele>
        <time>2022-09-18T01:37:52Z</time>
      </trkpt>
      <trkpt lat="44.1071" lon="6.68889">
        <ele>2320.8</ele>
        <time>2022-09-18T01:37:53Z</time>
      </trkpt>
      <trkpt lat="44.1071" lon="6.68881">
        <ele>2321.4</ele>
        <time>2022-09-18T01:37:54Z</time>
      </trkpt>
      <trkpt lat="44.10711" lon="6.68878">
        <ele>2321.7</ele>
        <time>2022-09-18T01:37:56Z</time>
      </trkpt>
      <trkpt lat="44.10713" lon="6.68873">
        <ele>2322.1</ele>
        <time>2022-09-18T01:37:57Z</time>
      </trkpt>
      <trkpt lat="44.10714" lon="6.68867">
        <ele>2322.6</ele>
        <time>2022-09-18T01:37:58Z</time>
      </trkpt>
      <trkpt lat="44.10714" lon="6.68863">
        <ele>2322.9</ele>
        <time>2022-09-18T01:37:59Z</time>
      </trkpt>
      <trkpt lat="44.10714" lon="6.68858">
        <ele>2323.3</ele>
        <time>2022-09-18T01:38:01Z</time>
      </trkpt>
      <trkpt lat="44.10714" lon="6.68853">
        <ele>2323.8</ele>
        <time>2022-09-18T01:38:02Z</time>
      </trkpt>
      <trkpt lat="44.10714" lon="6.68849">
        <ele>2324.2</ele>
        <time>2022-09-18T01:38:03Z</time>
      </trkpt>
      <trkpt lat="44.10712" lon="6.68846">
        <ele>2324.5</ele>
        <time>2022-09-18T01:38:05Z</time>
      </trkpt>
      <trkpt lat="44.1071" lon="6.68847">
        <ele>2324.9</ele>
        <time>2022-09-18T01:38:06Z</time>
      </trkpt>
      <trkpt lat="44.1071" lon="6.68851">
        <ele>2325.3</ele>
        <time>2022-09-18T01:38:08Z</time>
      </trkpt>
      <trkpt lat="44.1071" lon="6.68856">
        <ele>2325.8</ele>
        <time>2022-09-18T01:38:09Z</time>
      </trkpt>
      <trkpt lat="44.10709" lon="6.68861">
        <ele>2326.3</ele>
        <time>2022-09-18T01:38:10Z</time>
      </trkpt>
      <trkpt lat="44.10708" lon="6.68865">
        <ele>2326.8</ele>
        <time>2022-09-18T01:38:11Z</time>
      </trkpt>
      <trkpt lat="44.10706" lon="6.68868">
        <ele>2327.2</ele>
        <time>2022-09-18T01:38:12Z</time>
      </trkpt>
      <trkpt lat="44.10703" lon="6.68873">
        <ele>2328</ele>
        <time>2022-09-18T01:38:13Z</time>
      </trkpt>
      <trkpt lat="44.10701" lon="6.68876">
        <ele>2328.4</ele>
        <time>2022-09-18T01:38:14Z</time>
      </trkpt>
      <trkpt lat="44.10699" lon="6.6888">
        <ele>2329.1</ele>
        <time>2022-09-18T01:38:16Z</time>
      </trkpt>
      <trkpt lat="44.10697" lon="6.68885">
        <ele>2329.7</ele>
        <time>2022-09-18T01:38:17Z</time>
      </trkpt>
      <trkpt lat="44.10696" lon="6.68888">
        <ele>2330.1</ele>
        <time>2022-09-18T01:38:18Z</time>
      </trkpt>
      <trkpt lat="44.10694" lon="6.68892">
        <ele>2330.6</ele>
        <time>2022-09-18T01:38:20Z</time>
      </trkpt>
      <trkpt lat="44.10693" lon="6.68893">
        <ele>2330.8</ele>
        <time>2022-09-18T01:38:21Z</time>
      </trkpt>
      <trkpt lat="44.10693" lon="6.68892">
        <ele>2330.9</ele>
        <time>2022-09-18T01:38:22Z</time>
      </trkpt>
      <trkpt lat="44.10693" lon="6.68889">
        <ele>2331.2</ele>
        <time>2022-09-18T01:38:23Z</time>
      </trkpt>
      <trkpt lat="44.10694" lon="6.68886">
        <ele>2331.6</ele>
        <time>2022-09-18T01:38:25Z</time>
      </trkpt>
      <trkpt lat="44.10695" lon="6.68883">
        <ele>2331.9</ele>
        <time>2022-09-18T01:38:26Z</time>
      </trkpt>
      <trkpt lat="44.10695" lon="6.68882">
        <ele>2332</ele>
        <time>2022-09-18T01:38:28Z</time>
      </trkpt>
      <trkpt lat="44.10694" lon="6.68881">
        <ele>2332</ele>
        <time>2022-09-18T01:38:29Z</time>
      </trkpt>
      <trkpt lat="44.10694" lon="6.6888">
        <ele>2332.1</ele>
        <time>2022-09-18T01:38:30Z</time>
      </trkpt>
      <trkpt lat="44.10695" lon="6.68878">
        <ele>2332.4</ele>
        <time>2022-09-18T01:38:32Z</time>
      </trkpt>
      <trkpt lat="44.10696" lon="6.68875">
        <ele>2332.7</ele>
        <time>2022-09-18T01:38:33Z</time>
      </trkpt>
      <trkpt lat="44.10696" lon="6.68872">
        <ele>2332.9</ele>
        <time>2022-09-18T01:38:34Z</time>
      </trkpt>
      <trkpt lat="44.10696" lon="6.68865">
        <ele>2333.5</ele>
        <time>2022-09-18T01:38:36Z</time>
      </trkpt>
      <trkpt lat="44.10696" lon="6.6886">
        <ele>2333.9</ele>
        <time>2022-09-18T01:38:37Z</time>
      </trkpt>
      <trkpt lat="44.10696" lon="6.68856">
        <ele>2334.3</ele>
        <time>2022-09-18T01:38:38Z</time>
      </trkpt>
      <trkpt lat="44.10695" lon="6.6885">
        <ele>2334.8</ele>
        <time>2022-09-18T01:38:39Z</time>
      </trkpt>
      <trkpt lat="44.10695" lon="6.68844">
        <ele>2335.3</ele>
        <time>2022-09-18T01:38:40Z</time>
      </trkpt>
      <trkpt lat="44.10694" lon="6.68839">
        <ele>2335.7</ele>
        <time>2022-09-18T01:38:41Z</time>
      </trkpt>
      <trkpt lat="44.10693" lon="6.68831">
        <ele>2336.3</ele>
        <time>2022-09-18T01:38:44Z</time>
      </trkpt>
      <trkpt lat="44.10692" lon="6.68828">
        <ele>2336.7</ele>
        <time>2022-09-18T01:38:45Z</time>
      </trkpt>
      <trkpt lat="44.10691" lon="6.68825">
        <ele>2337</ele>
        <time>2022-09-18T01:38:46Z</time>
      </trkpt>
      <trkpt lat="44.1069" lon="6.68817">
        <ele>2337.6</ele>
        <time>2022-09-18T01:38:48Z</time>
      </trkpt>
      <trkpt lat="44.10689" lon="6.68812">
        <ele>2338.1</ele>
        <time>2022-09-18T01:38:49Z</time>
      </trkpt>
      <trkpt lat="44.10689" lon="6.6881">
        <ele>2338.2</ele>
        <time>2022-09-18T01:38:50Z</time>
      </trkpt>
      <trkpt lat="44.10689" lon="6.68804">
        <ele>2338.7</ele>
        <time>2022-09-18T01:38:51Z</time>
      </trkpt>
      <trkpt lat="44.10689" lon="6.688">
        <ele>2339</ele>
        <time>2022-09-18T01:38:52Z</time>
      </trkpt>
      <trkpt lat="44.10688" lon="6.68796">
        <ele>2339.3</ele>
        <time>2022-09-18T01:38:53Z</time>
      </trkpt>
      <trkpt lat="44.10687" lon="6.68791">
        <ele>2339.7</ele>
        <time>2022-09-18T01:38:55Z</time>
      </trkpt>
      <trkpt lat="44.10685" lon="6.68788">
        <ele>2339.9</ele>
        <time>2022-09-18T01:38:56Z</time>
      </trkpt>
      <trkpt lat="44.10681" lon="6.68782">
        <ele>2340.5</ele>
        <time>2022-09-18T01:38:57Z</time>
      </trkpt>
      <trkpt lat="44.10678" lon="6.68779">
        <ele>2340.7</ele>
        <time>2022-09-18T01:38:59Z</time>
      </trkpt>
      <trkpt lat="44.10676" lon="6.68776">
        <ele>2340.9</ele>
        <time>2022-09-18T01:39:00Z</time>
      </trkpt>
      <trkpt lat="44.10672" lon="6.68772">
        <ele>2341.3</ele>
        <time>2022-09-18T01:39:01Z</time>
      </trkpt>
      <trkpt lat="44.1067" lon="6.68769">
        <ele>2341.5</ele>
        <time>2022-09-18T01:39:02Z</time>
      </trkpt>
      <trkpt lat="44.10667" lon="6.68767">
        <ele>2341.8</ele>
        <time>2022-09-18T01:39:03Z</time>
      </trkpt>
      <trkpt lat="44.10663" lon="6.68763">
        <ele>2342.1</ele>
        <time>2022-09-18T01:39:05Z</time>
      </trkpt>
      <trkpt lat="44.1066" lon="6.68759">
        <ele>2342.4</ele>
        <time>2022-09-18T01:39:06Z</time>
      </trkpt>
      <trkpt lat="44.10659" lon="6.68758">
        <ele>2342.5</ele>
        <time>2022-09-18T01:39:07Z</time>
      </trkpt>
      <trkpt lat="44.10655" lon="6.68755">
        <ele>2342.8</ele>
        <time>2022-09-18T01:39:08Z</time>
      </trkpt>
      <trkpt lat="44.10654" lon="6.68753">
        <ele>2343</ele>
        <time>2022-09-18T01:39:09Z</time>
      </trkpt>
      <trkpt lat="44.10651" lon="6.6875">
        <ele>2343.2</ele>
        <time>2022-09-18T01:39:10Z</time>
      </trkpt>
      <trkpt lat="44.10649" lon="6.68746">
        <ele>2343.4</ele>
        <time>2022-09-18T01:39:11Z</time>
      </trkpt>
      <trkpt lat="44.10646" lon="6.68744">
        <ele>2343.7</ele>
        <time>2022-09-18T01:39:12Z</time>
      </trkpt>
      <trkpt lat="44.10643" lon="6.6874">
        <ele>2344</ele>
        <time>2022-09-18T01:39:13Z</time>
      </trkpt>
      <trkpt lat="44.1064" lon="6.68735">
        <ele>2344.3</ele>
        <time>2022-09-18T01:39:14Z</time>
      </trkpt>
      <trkpt lat="44.10639" lon="6.68726">
        <ele>2345</ele>
        <time>2022-09-18T01:39:16Z</time>
      </trkpt>
      <trkpt lat="44.10639" lon="6.68722">
        <ele>2345.3</ele>
        <time>2022-09-18T01:39:18Z</time>
      </trkpt>
      <trkpt lat="44.10638" lon="6.68718">
        <ele>2345.8</ele>
        <time>2022-09-18T01:39:19Z</time>
      </trkpt>
      <trkpt lat="44.10639" lon="6.68714">
        <ele>2346.1</ele>
        <time>2022-09-18T01:39:20Z</time>
      </trkpt>
      <trkpt lat="44.10643" lon="6.6871">
        <ele>2346.7</ele>
        <time>2022-09-18T01:39:21Z</time>
      </trkpt>
      <trkpt lat="44.10645" lon="6.68708">
        <ele>2347.1</ele>
        <time>2022-09-18T01:39:22Z</time>
      </trkpt>
      <trkpt lat="44.10648" lon="6.68706">
        <ele>2347.5</ele>
        <time>2022-09-18T01:39:23Z</time>
      </trkpt>
      <trkpt lat="44.10649" lon="6.68702">
        <ele>2348</ele>
        <time>2022-09-18T01:39:24Z</time>
      </trkpt>
      <trkpt lat="44.10652" lon="6.68698">
        <ele>2348.4</ele>
        <time>2022-09-18T01:39:25Z</time>
      </trkpt>
      <trkpt lat="44.1065" lon="6.68693">
        <ele>2349</ele>
        <time>2022-09-18T01:39:27Z</time>
      </trkpt>
      <trkpt lat="44.10648" lon="6.68693">
        <ele>2349.2</ele>
        <time>2022-09-18T01:39:28Z</time>
      </trkpt>
      <trkpt lat="44.10647" lon="6.68692">
        <ele>2349.4</ele>
        <time>2022-09-18T01:39:29Z</time>
      </trkpt>
      <trkpt lat="44.10641" lon="6.68694">
        <ele>2350.1</ele>
        <time>2022-09-18T01:39:30Z</time>
      </trkpt>
      <trkpt lat="44.10636" lon="6.68692">
        <ele>2350.6</ele>
        <time>2022-09-18T01:39:32Z</time>
      </trkpt>
      <trkpt lat="44.10633" lon="6.68688">
        <ele>2351</ele>
        <time>2022-09-18T01:39:33Z</time>
      </trkpt>
      <trkpt lat="44.10632" lon="6.68685">
        <ele>2351.2</ele>
        <time>2022-09-18T01:39:34Z</time>
      </trkpt>
      <trkpt lat="44.10633" lon="6.68681">
        <ele>2351.5</ele>
        <time>2022-09-18T01:39:36Z</time>
      </trkpt>
      <trkpt lat="44.10634" lon="6.68675">
        <ele>2352</ele>
        <time>2022-09-18T01:39:37Z</time>
      </trkpt>
      <trkpt lat="44.10635" lon="6.68672">
        <ele>2352.2</ele>
        <time>2022-09-18T01:39:38Z</time>
      </trkpt>
      <trkpt lat="44.10639" lon="6.68668">
        <ele>2352.6</ele>
        <time>2022-09-18T01:39:39Z</time>
      </trkpt>
      <trkpt lat="44.10641" lon="6.68665">
        <ele>2352.9</ele>
        <time>2022-09-18T01:39:40Z</time>
      </trkpt>
      <trkpt lat="44.10643" lon="6.68661">
        <ele>2353.2</ele>
        <time>2022-09-18T01:39:41Z</time>
      </trkpt>
      <trkpt lat="44.10646" lon="6.68659">
        <ele>2353.5</ele>
        <time>2022-09-18T01:39:42Z</time>
      </trkpt>
      <trkpt lat="44.10649" lon="6.68656">
        <ele>2353.8</ele>
        <time>2022-09-18T01:39:43Z</time>
      </trkpt>
      <trkpt lat="44.10653" lon="6.68654">
        <ele>2354.2</ele>
        <time>2022-09-18T01:39:45Z</time>
      </trkpt>
      <trkpt lat="44.10656" lon="6.68652">
        <ele>2354.7</ele>
        <time>2022-09-18T01:39:46Z</time>
      </trkpt>
      <trkpt lat="44.10659" lon="6.68649">
        <ele>2355</ele>
        <time>2022-09-18T01:39:47Z</time>
      </trkpt>
      <trkpt lat="44.10663" lon="6.68648">
        <ele>2355.4</ele>
        <time>2022-09-18T01:39:48Z</time>
      </trkpt>
      <trkpt lat="44.10666" lon="6.68648">
        <ele>2355.7</ele>
        <time>2022-09-18T01:39:49Z</time>
      </trkpt>
      <trkpt lat="44.10669" lon="6.68648">
        <ele>2355.9</ele>
        <time>2022-09-18T01:39:50Z</time>
      </trkpt>
      <trkpt lat="44.10673" lon="6.68647">
        <ele>2356.3</ele>
        <time>2022-09-18T01:39:51Z</time>
      </trkpt>
      <trkpt lat="44.10676" lon="6.68645">
        <ele>2356.6</ele>
        <time>2022-09-18T01:39:52Z</time>
      </trkpt>
      <trkpt lat="44.1068" lon="6.68642">
        <ele>2357</ele>
        <time>2022-09-18T01:39:54Z</time>
      </trkpt>
      <trkpt lat="44.10686" lon="6.68637">
        <ele>2357.5</ele>
        <time>2022-09-18T01:39:55Z</time>
      </trkpt>
      <trkpt lat="44.10688" lon="6.68633">
        <ele>2357.8</ele>
        <time>2022-09-18T01:39:57Z</time>
      </trkpt>
      <trkpt lat="44.10691" lon="6.68631">
        <ele>2358.1</ele>
        <time>2022-09-18T01:39:58Z</time>
      </trkpt>
      <trkpt lat="44.10694" lon="6.68628">
        <ele>2358.4</ele>
        <time>2022-09-18T01:39:59Z</time>
      </trkpt>
      <trkpt lat="44.10697" lon="6.68626">
        <ele>2358.6</ele>
        <time>2022-09-18T01:40:00Z</time>
      </trkpt>
      <trkpt lat="44.107" lon="6.68621">
        <ele>2359.1</ele>
        <time>2022-09-18T01:40:01Z</time>
      </trkpt>
      <trkpt lat="44.10702" lon="6.68616">
        <ele>2359.4</ele>
        <time>2022-09-18T01:40:02Z</time>
      </trkpt>
      <trkpt lat="44.10704" lon="6.6861">
        <ele>2359.8</ele>
        <time>2022-09-18T01:40:04Z</time>
      </trkpt>
      <trkpt lat="44.10704" lon="6.68606">
        <ele>2360</ele>
        <time>2022-09-18T01:40:05Z</time>
      </trkpt>
      <trkpt lat="44.10705" lon="6.68601">
        <ele>2360.4</ele>
        <time>2022-09-18T01:40:06Z</time>
      </trkpt>
      <trkpt lat="44.10705" lon="6.68598">
        <ele>2360.6</ele>
        <time>2022-09-18T01:40:07Z</time>
      </trkpt>
      <trkpt lat="44.10704" lon="6.68593">
        <ele>2360.8</ele>
        <time>2022-09-18T01:40:08Z</time>
      </trkpt>
      <trkpt lat="44.10702" lon="6.68587">
        <ele>2361.2</ele>
        <time>2022-09-18T01:40:09Z</time>
      </trkpt>
      <trkpt lat="44.10701" lon="6.68584">
        <ele>2361.5</ele>
        <time>2022-09-18T01:40:10Z</time>
      </trkpt>
      <trkpt lat="44.10697" lon="6.68582">
        <ele>2361.8</ele>
        <time>2022-09-18T01:40:12Z</time>
      </trkpt>
      <trkpt lat="44.10694" lon="6.68582">
        <ele>2362.1</ele>
        <time>2022-09-18T01:40:13Z</time>
      </trkpt>
      <trkpt lat="44.10692" lon="6.68582">
        <ele>2362.2</ele>
        <time>2022-09-18T01:40:14Z</time>
      </trkpt>
      <trkpt lat="44.10689" lon="6.68583">
        <ele>2362.5</ele>
        <time>2022-09-18T01:40:15Z</time>
      </trkpt>
      <trkpt lat="44.10686" lon="6.68584">
        <ele>2362.8</ele>
        <time>2022-09-18T01:40:16Z</time>
      </trkpt>
      <trkpt lat="44.10684" lon="6.68584">
        <ele>2363</ele>
        <time>2022-09-18T01:40:17Z</time>
      </trkpt>
      <trkpt lat="44.10681" lon="6.68582">
        <ele>2363.3</ele>
        <time>2022-09-18T01:40:18Z</time>
      </trkpt>
      <trkpt lat="44.10679" lon="6.68579">
        <ele>2363.6</ele>
        <time>2022-09-18T01:40:19Z</time>
      </trkpt>
      <trkpt lat="44.10679" lon="6.68574">
        <ele>2363.9</ele>
        <time>2022-09-18T01:40:20Z</time>
      </trkpt>
      <trkpt lat="44.10678" lon="6.68567">
        <ele>2364.4</ele>
        <time>2022-09-18T01:40:21Z</time>
      </trkpt>
      <trkpt lat="44.10676" lon="6.68563">
        <ele>2364.7</ele>
        <time>2022-09-18T01:40:23Z</time>
      </trkpt>
      <trkpt lat="44.10672" lon="6.68559">
        <ele>2365.1</ele>
        <time>2022-09-18T01:40:24Z</time>
      </trkpt>
      <trkpt lat="44.10671" lon="6.68557">
        <ele>2365.3</ele>
        <time>2022-09-18T01:40:25Z</time>
      </trkpt>
      <trkpt lat="44.10669" lon="6.68554">
        <ele>2365.6</ele>
        <time>2022-09-18T01:40:27Z</time>
      </trkpt>
      <trkpt lat="44.10668" lon="6.6855">
        <ele>2365.9</ele>
        <time>2022-09-18T01:40:28Z</time>
      </trkpt>
      <trkpt lat="44.10665" lon="6.68545">
        <ele>2366.2</ele>
        <time>2022-09-18T01:40:29Z</time>
      </trkpt>
      <trkpt lat="44.10664" lon="6.68544">
        <ele>2366.4</ele>
        <time>2022-09-18T01:40:30Z</time>
      </trkpt>
      <trkpt lat="44.10663" lon="6.68541">
        <ele>2366.6</ele>
        <time>2022-09-18T01:40:31Z</time>
      </trkpt>
      <trkpt lat="44.10663" lon="6.6854">
        <ele>2366.7</ele>
        <time>2022-09-18T01:40:32Z</time>
      </trkpt>
      <trkpt lat="44.10662" lon="6.68539">
        <ele>2366.8</ele>
        <time>2022-09-18T01:40:33Z</time>
      </trkpt>
      <trkpt lat="44.10661" lon="6.68534">
        <ele>2367.1</ele>
        <time>2022-09-18T01:40:34Z</time>
      </trkpt>
      <trkpt lat="44.10659" lon="6.68529">
        <ele>2367.5</ele>
        <time>2022-09-18T01:40:35Z</time>
      </trkpt>
      <trkpt lat="44.1066" lon="6.68521">
        <ele>2368</ele>
        <time>2022-09-18T01:40:36Z</time>
      </trkpt>
      <trkpt lat="44.10662" lon="6.68517">
        <ele>2368.3</ele>
        <time>2022-09-18T01:40:38Z</time>
      </trkpt>
      <trkpt lat="44.10663" lon="6.68512">
        <ele>2368.7</ele>
        <time>2022-09-18T01:40:39Z</time>
      </trkpt>
      <trkpt lat="44.10662" lon="6.68509">
        <ele>2368.9</ele>
        <time>2022-09-18T01:40:40Z</time>
      </trkpt>
      <trkpt lat="44.1066" lon="6.68505">
        <ele>2369.3</ele>
        <time>2022-09-18T01:40:42Z</time>
      </trkpt>
      <trkpt lat="44.10657" lon="6.68499">
        <ele>2369.8</ele>
        <time>2022-09-18T01:40:43Z</time>
      </trkpt>
      <trkpt lat="44.10654" lon="6.68494">
        <ele>2370.4</ele>
        <time>2022-09-18T01:40:44Z</time>
      </trkpt>
      <trkpt lat="44.10652" lon="6.68489">
        <ele>2370.8</ele>
        <time>2022-09-18T01:40:46Z</time>
      </trkpt>
      <trkpt lat="44.10649" lon="6.68482">
        <ele>2371.3</ele>
        <time>2022-09-18T01:40:47Z</time>
      </trkpt>
      <trkpt lat="44.10645" lon="6.68474">
        <ele>2372</ele>
        <time>2022-09-18T01:40:49Z</time>
      </trkpt>
      <trkpt lat="44.10643" lon="6.68469">
        <ele>2372.3</ele>
        <time>2022-09-18T01:40:51Z</time>
      </trkpt>
      <trkpt lat="44.10641" lon="6.68465">
        <ele>2372.6</ele>
        <time>2022-09-18T01:40:52Z</time>
      </trkpt>
      <trkpt lat="44.1064" lon="6.68461">
        <ele>2372.9</ele>
        <time>2022-09-18T01:40:53Z</time>
      </trkpt>
      <trkpt lat="44.10639" lon="6.68453">
        <ele>2373.3</ele>
        <time>2022-09-18T01:40:54Z</time>
      </trkpt>
      <trkpt lat="44.10639" lon="6.68447">
        <ele>2373.7</ele>
        <time>2022-09-18T01:40:55Z</time>
      </trkpt>
      <trkpt lat="44.1064" lon="6.68442">
        <ele>2374.1</ele>
        <time>2022-09-18T01:40:57Z</time>
      </trkpt>
      <trkpt lat="44.10639" lon="6.68438">
        <ele>2374.3</ele>
        <time>2022-09-18T01:40:58Z</time>
      </trkpt>
      <trkpt lat="44.10636" lon="6.68434">
        <ele>2374.8</ele>
        <time>2022-09-18T01:40:59Z</time>
      </trkpt>
      <trkpt lat="44.10633" lon="6.68429">
        <ele>2375.4</ele>
        <time>2022-09-18T01:41:01Z</time>
      </trkpt>
      <trkpt lat="44.10632" lon="6.68427">
        <ele>2375.6</ele>
        <time>2022-09-18T01:41:02Z</time>
      </trkpt>
      <trkpt lat="44.10631" lon="6.68425">
        <ele>2375.8</ele>
        <time>2022-09-18T01:41:03Z</time>
      </trkpt>
      <trkpt lat="44.1063" lon="6.68421">
        <ele>2376.2</ele>
        <time>2022-09-18T01:41:04Z</time>
      </trkpt>
      <trkpt lat="44.10629" lon="6.68416">
        <ele>2376.7</ele>
        <time>2022-09-18T01:41:05Z</time>
      </trkpt>
      <trkpt lat="44.10628" lon="6.68411">
        <ele>2377.2</ele>
        <time>2022-09-18T01:41:06Z</time>
      </trkpt>
      <trkpt lat="44.10628" lon="6.68405">
        <ele>2377.8</ele>
        <time>2022-09-18T01:41:07Z</time>
      </trkpt>
      <trkpt lat="44.10625" lon="6.68401">
        <ele>2378.3</ele>
        <time>2022-09-18T01:41:09Z</time>
      </trkpt>
      <trkpt lat="44.10623" lon="6.68397">
        <ele>2378.8</ele>
        <time>2022-09-18T01:41:10Z</time>
      </trkpt>
      <trkpt lat="44.10621" lon="6.68394">
        <ele>2379.2</ele>
        <time>2022-09-18T01:41:11Z</time>
      </trkpt>
      <trkpt lat="44.10619" lon="6.68389">
        <ele>2379.8</ele>
        <time>2022-09-18T01:41:12Z</time>
      </trkpt>
      <trkpt lat="44.10619" lon="6.68385">
        <ele>2380.2</ele>
        <time>2022-09-18T01:41:13Z</time>
      </trkpt>
      <trkpt lat="44.1062" lon="6.68379">
        <ele>2380.7</ele>
        <time>2022-09-18T01:41:15Z</time>
      </trkpt>
      <trkpt lat="44.10622" lon="6.68376">
        <ele>2381.2</ele>
        <time>2022-09-18T01:41:16Z</time>
      </trkpt>
      <trkpt lat="44.10624" lon="6.68372">
        <ele>2381.6</ele>
        <time>2022-09-18T01:41:17Z</time>
      </trkpt>
      <trkpt lat="44.10625" lon="6.68368">
        <ele>2382</ele>
        <time>2022-09-18T01:41:18Z</time>
      </trkpt>
      <trkpt lat="44.10625" lon="6.68362">
        <ele>2382.7</ele>
        <time>2022-09-18T01:41:20Z</time>
      </trkpt>
      <trkpt lat="44.10624" lon="6.68356">
        <ele>2383.3</ele>
        <time>2022-09-18T01:41:21Z</time>
      </trkpt>
      <trkpt lat="44.10622" lon="6.68351">
        <ele>2383.8</ele>
        <time>2022-09-18T01:41:23Z</time>
      </trkpt>
      <trkpt lat="44.1062" lon="6.68347">
        <ele>2384.3</ele>
        <time>2022-09-18T01:41:24Z</time>
      </trkpt>
      <trkpt lat="44.10618" lon="6.68342">
        <ele>2384.8</ele>
        <time>2022-09-18T01:41:25Z</time>
      </trkpt>
      <trkpt lat="44.10616" lon="6.68334">
        <ele>2385.6</ele>
        <time>2022-09-18T01:41:27Z</time>
      </trkpt>
      <trkpt lat="44.10616" lon="6.6833">
        <ele>2385.9</ele>
        <time>2022-09-18T01:41:29Z</time>
      </trkpt>
      <trkpt lat="44.10615" lon="6.68325">
        <ele>2386.4</ele>
        <time>2022-09-18T01:41:30Z</time>
      </trkpt>
      <trkpt lat="44.10614" lon="6.68323">
        <ele>2386.6</ele>
        <time>2022-09-18T01:41:31Z</time>
      </trkpt>
      <trkpt lat="44.10611" lon="6.68317">
        <ele>2387.2</ele>
        <time>2022-09-18T01:41:32Z</time>
      </trkpt>
      <trkpt lat="44.10608" lon="6.68315">
        <ele>2387.7</ele>
        <time>2022-09-18T01:41:34Z</time>
      </trkpt>
      <trkpt lat="44.10605" lon="6.68313">
        <ele>2388.1</ele>
        <time>2022-09-18T01:41:35Z</time>
      </trkpt>
      <trkpt lat="44.10604" lon="6.68312">
        <ele>2388.2</ele>
        <time>2022-09-18T01:41:36Z</time>
      </trkpt>
      <trkpt lat="44.10604" lon="6.6831">
        <ele>2388.4</ele>
        <time>2022-09-18T01:41:38Z</time>
      </trkpt>
      <trkpt lat="44.10604" lon="6.68309">
        <ele>2388.5</ele>
        <time>2022-09-18T01:41:39Z</time>
      </trkpt>
      <trkpt lat="44.10604" lon="6.6831">
        <ele>2388.5</ele>
        <time>2022-09-18T01:41:40Z</time>
      </trkpt>
      <trkpt lat="44.10604" lon="6.68309">
        <ele>2388.5</ele>
        <time>2022-09-18T01:41:41Z</time>
      </trkpt>
      <trkpt lat="44.10604" lon="6.68308">
        <ele>2388.6</ele>
        <time>2022-09-18T01:41:42Z</time>
      </trkpt>
      <trkpt lat="44.10604" lon="6.68308">
        <ele>2388.7</ele>
        <time>2022-09-18T01:41:43Z</time>
      </trkpt>
      <trkpt lat="44.10604" lon="6.68308">
        <ele>2388.7</ele>
        <time>2022-09-18T01:41:45Z</time>
      </trkpt>
      <trkpt lat="44.10604" lon="6.68308">
        <ele>2388.7</ele>
        <time>2022-09-18T01:41:47Z</time>
      </trkpt>
      <trkpt lat="44.10604" lon="6.68308">
        <ele>2388.7</ele>
        <time>2022-09-18T01:41:48Z</time>
      </trkpt>
      <trkpt lat="44.10604" lon="6.68307">
        <ele>2388.8</ele>
        <time>2022-09-18T01:41:49Z</time>
      </trkpt>
      <trkpt lat="44.10603" lon="6.68306">
        <ele>2389</ele>
        <time>2022-09-18T01:41:51Z</time>
      </trkpt>
      <trkpt lat="44.10603" lon="6.68305">
        <ele>2389.1</ele>
        <time>2022-09-18T01:41:52Z</time>
      </trkpt>
      <trkpt lat="44.10601" lon="6.68303">
        <ele>2389.3</ele>
        <time>2022-09-18T01:41:53Z</time>
      </trkpt>
      <trkpt lat="44.106" lon="6.68301">
        <ele>2389.6</ele>
        <time>2022-09-18T01:41:54Z</time>
      </trkpt>
      <trkpt lat="44.10599" lon="6.683">
        <ele>2389.8</ele>
        <time>2022-09-18T01:41:56Z</time>
      </trkpt>
      <trkpt lat="44.10599" lon="6.68299">
        <ele>2389.9</ele>
        <time>2022-09-18T01:41:57Z</time>
      </trkpt>
      <trkpt lat="44.10599" lon="6.68299">
        <ele>2389.9</ele>
        <time>2022-09-18T01:41:58Z</time>
      </trkpt>
      <trkpt lat="44.10598" lon="6.68298">
        <ele>2390</ele>
        <time>2022-09-18T01:41:59Z</time>
      </trkpt>
      <trkpt lat="44.10598" lon="6.68295">
        <ele>2390.3</ele>
        <time>2022-09-18T01:42:01Z</time>
      </trkpt>
      <trkpt lat="44.10598" lon="6.68293">
        <ele>2390.5</ele>
        <time>2022-09-18T01:42:02Z</time>
      </trkpt>
      <trkpt lat="44.10597" lon="6.68292">
        <ele>2390.6</ele>
        <time>2022-09-18T01:42:03Z</time>
      </trkpt>
      <trkpt lat="44.10596" lon="6.68291">
        <ele>2390.8</ele>
        <time>2022-09-18T01:42:05Z</time>
      </trkpt>
      <trkpt lat="44.10595" lon="6.6829">
        <ele>2391</ele>
        <time>2022-09-18T01:42:06Z</time>
      </trkpt>
      <trkpt lat="44.10594" lon="6.68288">
        <ele>2391.3</ele>
        <time>2022-09-18T01:42:08Z</time>
      </trkpt>
      <trkpt lat="44.10593" lon="6.68287">
        <ele>2391.5</ele>
        <time>2022-09-18T01:42:09Z</time>
      </trkpt>
      <trkpt lat="44.10592" lon="6.68286">
        <ele>2391.6</ele>
        <time>2022-09-18T01:42:10Z</time>
      </trkpt>
      <trkpt lat="44.10592" lon="6.68285">
        <ele>2391.7</ele>
        <time>2022-09-18T01:42:12Z</time>
      </trkpt>
      <trkpt lat="44.10591" lon="6.68284">
        <ele>2391.9</ele>
        <time>2022-09-18T01:42:13Z</time>
      </trkpt>
      <trkpt lat="44.1059" lon="6.68283">
        <ele>2392.1</ele>
        <time>2022-09-18T01:42:14Z</time>
      </trkpt>
      <trkpt lat="44.10589" lon="6.68282">
        <ele>2392.2</ele>
        <time>2022-09-18T01:42:15Z</time>
      </trkpt>
      <trkpt lat="44.10589" lon="6.68281">
        <ele>2392.3</ele>
        <time>2022-09-18T01:42:16Z</time>
      </trkpt>
      <trkpt lat="44.10589" lon="6.68281">
        <ele>2392.4</ele>
        <time>2022-09-18T01:42:17Z</time>
      </trkpt>
      <trkpt lat="44.10588" lon="6.68279">
        <ele>2392.7</ele>
        <time>2022-09-18T01:42:19Z</time>
      </trkpt>
      <trkpt lat="44.10587" lon="6.68277">
        <ele>2392.9</ele>
        <time>2022-09-18T01:42:20Z</time>
      </trkpt>
      <trkpt lat="44.10586" lon="6.68277">
        <ele>2393</ele>
        <time>2022-09-18T01:42:21Z</time>
      </trkpt>
      <trkpt lat="44.10586" lon="6.68276">
        <ele>2393.1</ele>
        <time>2022-09-18T01:42:22Z</time>
      </trkpt>
      <trkpt lat="44.10585" lon="6.68276">
        <ele>2393.2</ele>
        <time>2022-09-18T01:42:24Z</time>
      </trkpt>
      <trkpt lat="44.10584" lon="6.68275">
        <ele>2393.3</ele>
        <time>2022-09-18T01:42:25Z</time>
      </trkpt>
      <trkpt lat="44.10582" lon="6.68273">
        <ele>2393.7</ele>
        <time>2022-09-18T01:42:26Z</time>
      </trkpt>
      <trkpt lat="44.10581" lon="6.68272">
        <ele>2393.8</ele>
        <time>2022-09-18T01:42:27Z</time>
      </trkpt>
      <trkpt lat="44.10581" lon="6.68272">
        <ele>2393.9</ele>
        <time>2022-09-18T01:42:28Z</time>
      </trkpt>
      <trkpt lat="44.1058" lon="6.68272">
        <ele>2394</ele>
        <time>2022-09-18T01:42:30Z</time>
      </trkpt>
      <trkpt lat="44.10578" lon="6.68271">
        <ele>2394.3</ele>
        <time>2022-09-18T01:42:31Z</time>
      </trkpt>
      <trkpt lat="44.10576" lon="6.6827">
        <ele>2394.6</ele>
        <time>2022-09-18T01:42:33Z</time>
      </trkpt>
      <trkpt lat="44.10576" lon="6.6827">
        <ele>2394.7</ele>
        <time>2022-09-18T01:42:34Z</time>
      </trkpt>
      <trkpt lat="44.10575" lon="6.6827">
        <ele>2394.8</ele>
        <time>2022-09-18T01:42:35Z</time>
      </trkpt>
      <trkpt lat="44.10574" lon="6.68269">
        <ele>2395</ele>
        <time>2022-09-18T01:42:37Z</time>
      </trkpt>
      <trkpt lat="44.10573" lon="6.68269">
        <ele>2395.2</ele>
        <time>2022-09-18T01:42:38Z</time>
      </trkpt>
      <trkpt lat="44.10572" lon="6.68268">
        <ele>2395.3</ele>
        <time>2022-09-18T01:42:39Z</time>
      </trkpt>
      <trkpt lat="44.10571" lon="6.68267">
        <ele>2395.5</ele>
        <time>2022-09-18T01:42:40Z</time>
      </trkpt>
      <trkpt lat="44.10571" lon="6.68267">
        <ele>2395.7</ele>
        <time>2022-09-18T01:42:41Z</time>
      </trkpt>
      <trkpt lat="44.10571" lon="6.68267">
        <ele>2395.8</ele>
        <time>2022-09-18T01:42:42Z</time>
      </trkpt>
      <trkpt lat="44.10571" lon="6.68266">
        <ele>2396</ele>
        <time>2022-09-18T01:42:43Z</time>
      </trkpt>
      <trkpt lat="44.10571" lon="6.68265">
        <ele>2396.2</ele>
        <time>2022-09-18T01:42:44Z</time>
      </trkpt>
      <trkpt lat="44.10571" lon="6.68265">
        <ele>2396.3</ele>
        <time>2022-09-18T01:42:45Z</time>
      </trkpt>
      <trkpt lat="44.10571" lon="6.68264">
        <ele>2396.5</ele>
        <time>2022-09-18T01:42:46Z</time>
      </trkpt>
      <trkpt lat="44.10573" lon="6.68264">
        <ele>2396.7</ele>
        <time>2022-09-18T01:42:47Z</time>
      </trkpt>
      <trkpt lat="44.10574" lon="6.68264">
        <ele>2396.8</ele>
        <time>2022-09-18T01:42:48Z</time>
      </trkpt>
      <trkpt lat="44.10575" lon="6.68264">
        <ele>2397</ele>
        <time>2022-09-18T01:42:50Z</time>
      </trkpt>
      <trkpt lat="44.10576" lon="6.68264">
        <ele>2397.2</ele>
        <time>2022-09-18T01:42:51Z</time>
      </trkpt>
      <trkpt lat="44.10577" lon="6.68264">
        <ele>2397.3</ele>
        <time>2022-09-18T01:42:54Z</time>
      </trkpt>
      <trkpt lat="44.10578" lon="6.68264">
        <ele>2397.5</ele>
        <time>2022-09-18T01:42:55Z</time>
      </trkpt>
      <trkpt lat="44.10579" lon="6.68264">
        <ele>2397.7</ele>
        <time>2022-09-18T01:42:57Z</time>
      </trkpt>
      <trkpt lat="44.1058" lon="6.68264">
        <ele>2397.8</ele>
        <time>2022-09-18T01:42:58Z</time>
      </trkpt>
      <trkpt lat="44.10581" lon="6.68264">
        <ele>2398</ele>
        <time>2022-09-18T01:42:59Z</time>
      </trkpt>
      <trkpt lat="44.10582" lon="6.68264">
        <ele>2398.1</ele>
        <time>2022-09-18T01:43:00Z</time>
      </trkpt>
      <trkpt lat="44.10583" lon="6.68265">
        <ele>2398</ele>
        <time>2022-09-18T01:43:01Z</time>
      </trkpt>
      <trkpt lat="44.10585" lon="6.68265">
        <ele>2398.2</ele>
        <time>2022-09-18T01:43:03Z</time>
      </trkpt>
      <trkpt lat="44.10586" lon="6.68265">
        <ele>2398.3</ele>
        <time>2022-09-18T01:43:04Z</time>
      </trkpt>
      <trkpt lat="44.10587" lon="6.68265">
        <ele>2398.5</ele>
        <time>2022-09-18T01:43:05Z</time>
      </trkpt>
      <trkpt lat="44.10587" lon="6.68265">
        <ele>2398.7</ele>
        <time>2022-09-18T01:43:07Z</time>
      </trkpt>
      <trkpt lat="44.10589" lon="6.68266">
        <ele>2398.8</ele>
        <time>2022-09-18T01:43:08Z</time>
      </trkpt>
      <trkpt lat="44.10591" lon="6.68268">
        <ele>2399</ele>
        <time>2022-09-18T01:43:10Z</time>
      </trkpt>
      <trkpt lat="44.10592" lon="6.68268">
        <ele>2399.2</ele>
        <time>2022-09-18T01:43:11Z</time>
      </trkpt>
      <trkpt lat="44.10592" lon="6.68269">
        <ele>2399.3</ele>
        <time>2022-09-18T01:43:12Z</time>
      </trkpt>
      <trkpt lat="44.10594" lon="6.6827">
        <ele>2399.5</ele>
        <time>2022-09-18T01:43:13Z</time>
      </trkpt>
      <trkpt lat="44.10595" lon="6.68271">
        <ele>2399.7</ele>
        <time>2022-09-18T01:43:15Z</time>
      </trkpt>
      <trkpt lat="44.10596" lon="6.68271">
        <ele>2399.9</ele>
        <time>2022-09-18T01:43:16Z</time>
      </trkpt>
      <trkpt lat="44.10596" lon="6.68271">
        <ele>2400</ele>
        <time>2022-09-18T01:43:17Z</time>
      </trkpt>
      <trkpt lat="44.10597" lon="6.68272">
        <ele>2400.2</ele>
        <time>2022-09-18T01:43:18Z</time>
      </trkpt>
      <trkpt lat="44.10598" lon="6.68272">
        <ele>2400.4</ele>
        <time>2022-09-18T01:43:20Z</time>
      </trkpt>
      <trkpt lat="44.10598" lon="6.68272">
        <ele>2400.5</ele>
        <time>2022-09-18T01:43:21Z</time>
      </trkpt>
      <trkpt lat="44.10599" lon="6.68272">
        <ele>2400.7</ele>
        <time>2022-09-18T01:43:22Z</time>
      </trkpt>
      <trkpt lat="44.10599" lon="6.68272">
        <ele>2401.2</ele>
        <time>2022-09-18T01:43:25Z</time>
      </trkpt>
      <trkpt lat="44.10598" lon="6.68272">
        <ele>2401.4</ele>
        <time>2022-09-18T01:43:26Z</time>
      </trkpt>
      <trkpt lat="44.10598" lon="6.68272">
        <ele>2401.7</ele>
        <time>2022-09-18T01:43:28Z</time>
      </trkpt>
      <trkpt lat="44.10599" lon="6.68272">
        <ele>2402</ele>
        <time>2022-09-18T01:43:30Z</time>
      </trkpt>
      <trkpt lat="44.10599" lon="6.68272">
        <ele>2402.2</ele>
        <time>2022-09-18T01:43:31Z</time>
      </trkpt>
      <trkpt lat="44.10602" lon="6.68274">
        <ele>2402.3</ele>
        <time>2022-09-18T01:43:34Z</time>
      </trkpt>
      <trkpt lat="44.10606" lon="6.68275">
        <ele>2402.5</ele>
        <time>2022-09-18T01:43:36Z</time>
      </trkpt>
      <trkpt lat="44.1061" lon="6.68274">
        <ele>2402.9</ele>
        <time>2022-09-18T01:43:37Z</time>
      </trkpt>
      <trkpt lat="44.10611" lon="6.68273">
        <ele>2403</ele>
        <time>2022-09-18T01:43:38Z</time>
      </trkpt>
      <trkpt lat="44.10613" lon="6.68272">
        <ele>2403.2</ele>
        <time>2022-09-18T01:43:39Z</time>
      </trkpt>
      <trkpt lat="44.10617" lon="6.68272">
        <ele>2403.6</ele>
        <time>2022-09-18T01:43:40Z</time>
      </trkpt>
      <trkpt lat="44.10621" lon="6.68274">
        <ele>2404</ele>
        <time>2022-09-18T01:43:41Z</time>
      </trkpt>
      <trkpt lat="44.10623" lon="6.68276">
        <ele>2404.2</ele>
        <time>2022-09-18T01:43:42Z</time>
      </trkpt>
      <trkpt lat="44.10627" lon="6.68276">
        <ele>2404.5</ele>
        <time>2022-09-18T01:43:44Z</time>
      </trkpt>
      <trkpt lat="44.1063" lon="6.68276">
        <ele>2404.9</ele>
        <time>2022-09-18T01:43:45Z</time>
      </trkpt>
      <trkpt lat="44.10633" lon="6.68272">
        <ele>2405.4</ele>
        <time>2022-09-18T01:43:47Z</time>
      </trkpt>
      <trkpt lat="44.10633" lon="6.68269">
        <ele>2405.6</ele>
        <time>2022-09-18T01:43:48Z</time>
      </trkpt>
      <trkpt lat="44.10634" lon="6.68266">
        <ele>2405.8</ele>
        <time>2022-09-18T01:43:49Z</time>
      </trkpt>
      <trkpt lat="44.10636" lon="6.68264">
        <ele>2406</ele>
        <time>2022-09-18T01:43:51Z</time>
      </trkpt>
      <trkpt lat="44.10638" lon="6.68264">
        <ele>2406.3</ele>
        <time>2022-09-18T01:43:52Z</time>
      </trkpt>
      <trkpt lat="44.10642" lon="6.68262">
        <ele>2406.8</ele>
        <time>2022-09-18T01:43:53Z</time>
      </trkpt>
      <trkpt lat="44.10643" lon="6.68261">
        <ele>2406.9</ele>
        <time>2022-09-18T01:43:54Z</time>
      </trkpt>
      <trkpt lat="44.10647" lon="6.68258">
        <ele>2407.3</ele>
        <time>2022-09-18T01:43:55Z</time>
      </trkpt>
      <trkpt lat="44.10648" lon="6.68257">
        <ele>2407.4</ele>
        <time>2022-09-18T01:43:56Z</time>
      </trkpt>
      <trkpt lat="44.1065" lon="6.68254">
        <ele>2407.7</ele>
        <time>2022-09-18T01:43:57Z</time>
      </trkpt>
      <trkpt lat="44.10652" lon="6.68251">
        <ele>2408</ele>
        <time>2022-09-18T01:43:58Z</time>
      </trkpt>
      <trkpt lat="44.10654" lon="6.68247">
        <ele>2408.3</ele>
        <time>2022-09-18T01:43:59Z</time>
      </trkpt>
      <trkpt lat="44.10656" lon="6.68244">
        <ele>2408.5</ele>
        <time>2022-09-18T01:44:00Z</time>
      </trkpt>
      <trkpt lat="44.10659" lon="6.6824">
        <ele>2408.9</ele>
        <time>2022-09-18T01:44:01Z</time>
      </trkpt>
      <trkpt lat="44.10661" lon="6.68237">
        <ele>2409.1</ele>
        <time>2022-09-18T01:44:02Z</time>
      </trkpt>
      <trkpt lat="44.10663" lon="6.68235">
        <ele>2409.5</ele>
        <time>2022-09-18T01:44:03Z</time>
      </trkpt>
      <trkpt lat="44.10667" lon="6.68232">
        <ele>2409.9</ele>
        <time>2022-09-18T01:44:04Z</time>
      </trkpt>
      <trkpt lat="44.10669" lon="6.68231">
        <ele>2410.3</ele>
        <time>2022-09-18T01:44:05Z</time>
      </trkpt>
      <trkpt lat="44.10672" lon="6.68232">
        <ele>2410.6</ele>
        <time>2022-09-18T01:44:06Z</time>
      </trkpt>
      <trkpt lat="44.10675" lon="6.68231">
        <ele>2411.1</ele>
        <time>2022-09-18T01:44:08Z</time>
      </trkpt>
      <trkpt lat="44.10678" lon="6.68229">
        <ele>2411.6</ele>
        <time>2022-09-18T01:44:09Z</time>
      </trkpt>
      <trkpt lat="44.10678" lon="6.68228">
        <ele>2411.7</ele>
        <time>2022-09-18T01:44:10Z</time>
      </trkpt>
      <trkpt lat="44.1068" lon="6.68223">
        <ele>2412.3</ele>
        <time>2022-09-18T01:44:11Z</time>
      </trkpt>
      <trkpt lat="44.1068" lon="6.68221">
        <ele>2412.5</ele>
        <time>2022-09-18T01:44:12Z</time>
      </trkpt>
      <trkpt lat="44.10681" lon="6.68217">
        <ele>2412.9</ele>
        <time>2022-09-18T01:44:13Z</time>
      </trkpt>
      <trkpt lat="44.10683" lon="6.68214">
        <ele>2413.3</ele>
        <time>2022-09-18T01:44:14Z</time>
      </trkpt>
      <trkpt lat="44.10684" lon="6.6821">
        <ele>2413.7</ele>
        <time>2022-09-18T01:44:15Z</time>
      </trkpt>
      <trkpt lat="44.10687" lon="6.68206">
        <ele>2414.1</ele>
        <time>2022-09-18T01:44:17Z</time>
      </trkpt>
      <trkpt lat="44.10689" lon="6.68203">
        <ele>2414.4</ele>
        <time>2022-09-18T01:44:18Z</time>
      </trkpt>
      <trkpt lat="44.10691" lon="6.68199">
        <ele>2414.8</ele>
        <time>2022-09-18T01:44:19Z</time>
      </trkpt>
      <trkpt lat="44.10693" lon="6.68195">
        <ele>2415.1</ele>
        <time>2022-09-18T01:44:20Z</time>
      </trkpt>
      <trkpt lat="44.10695" lon="6.68192">
        <ele>2415.3</ele>
        <time>2022-09-18T01:44:21Z</time>
      </trkpt>
      <trkpt lat="44.10697" lon="6.68189">
        <ele>2415.6</ele>
        <time>2022-09-18T01:44:22Z</time>
      </trkpt>
      <trkpt lat="44.10698" lon="6.68187">
        <ele>2415.8</ele>
        <time>2022-09-18T01:44:24Z</time>
      </trkpt>
      <trkpt lat="44.107" lon="6.68183">
        <ele>2416.1</ele>
        <time>2022-09-18T01:44:25Z</time>
      </trkpt>
      <trkpt lat="44.10701" lon="6.68182">
        <ele>2416.2</ele>
        <time>2022-09-18T01:44:26Z</time>
      </trkpt>
      <trkpt lat="44.10702" lon="6.68179">
        <ele>2416.5</ele>
        <time>2022-09-18T01:44:27Z</time>
      </trkpt>
      <trkpt lat="44.10703" lon="6.68178">
        <ele>2416.6</ele>
        <time>2022-09-18T01:44:28Z</time>
      </trkpt>
      <trkpt lat="44.10706" lon="6.68176">
        <ele>2416.9</ele>
        <time>2022-09-18T01:44:29Z</time>
      </trkpt>
      <trkpt lat="44.10706" lon="6.68175">
        <ele>2417</ele>
        <time>2022-09-18T01:44:30Z</time>
      </trkpt>
      <trkpt lat="44.10709" lon="6.68173">
        <ele>2417.3</ele>
        <time>2022-09-18T01:44:31Z</time>
      </trkpt>
      <trkpt lat="44.10711" lon="6.68172">
        <ele>2417.5</ele>
        <time>2022-09-18T01:44:32Z</time>
      </trkpt>
      <trkpt lat="44.10713" lon="6.68168">
        <ele>2417.9</ele>
        <time>2022-09-18T01:44:33Z</time>
      </trkpt>
      <trkpt lat="44.10714" lon="6.68167">
        <ele>2418</ele>
        <time>2022-09-18T01:44:34Z</time>
      </trkpt>
      <trkpt lat="44.10717" lon="6.68163">
        <ele>2418.4</ele>
        <time>2022-09-18T01:44:35Z</time>
      </trkpt>
      <trkpt lat="44.1072" lon="6.68159">
        <ele>2418.8</ele>
        <time>2022-09-18T01:44:37Z</time>
      </trkpt>
      <trkpt lat="44.10722" lon="6.68156">
        <ele>2419.1</ele>
        <time>2022-09-18T01:44:38Z</time>
      </trkpt>
      <trkpt lat="44.10724" lon="6.68153">
        <ele>2419.4</ele>
        <time>2022-09-18T01:44:39Z</time>
      </trkpt>
      <trkpt lat="44.10725" lon="6.68152">
        <ele>2419.5</ele>
        <time>2022-09-18T01:44:40Z</time>
      </trkpt>
      <trkpt lat="44.10727" lon="6.68149">
        <ele>2419.9</ele>
        <time>2022-09-18T01:44:42Z</time>
      </trkpt>
      <trkpt lat="44.1073" lon="6.68146">
        <ele>2420.2</ele>
        <time>2022-09-18T01:44:43Z</time>
      </trkpt>
      <trkpt lat="44.10732" lon="6.68144">
        <ele>2420.5</ele>
        <time>2022-09-18T01:44:44Z</time>
      </trkpt>
      <trkpt lat="44.10736" lon="6.68144">
        <ele>2420.9</ele>
        <time>2022-09-18T01:44:45Z</time>
      </trkpt>
      <trkpt lat="44.10741" lon="6.68143">
        <ele>2421.6</ele>
        <time>2022-09-18T01:44:46Z</time>
      </trkpt>
      <trkpt lat="44.10743" lon="6.68142">
        <ele>2421.9</ele>
        <time>2022-09-18T01:44:47Z</time>
      </trkpt>
      <trkpt lat="44.10744" lon="6.6814">
        <ele>2422.2</ele>
        <time>2022-09-18T01:44:48Z</time>
      </trkpt>
      <trkpt lat="44.10748" lon="6.68134">
        <ele>2422.9</ele>
        <time>2022-09-18T01:44:50Z</time>
      </trkpt>
      <trkpt lat="44.1075" lon="6.68131">
        <ele>2423.2</ele>
        <time>2022-09-18T01:44:51Z</time>
      </trkpt>
      <trkpt lat="44.10751" lon="6.68125">
        <ele>2423.6</ele>
        <time>2022-09-18T01:44:53Z</time>
      </trkpt>
      <trkpt lat="44.1075" lon="6.68123">
        <ele>2423.8</ele>
        <time>2022-09-18T01:44:54Z</time>
      </trkpt>
      <trkpt lat="44.1075" lon="6.68121">
        <ele>2423.9</ele>
        <time>2022-09-18T01:44:55Z</time>
      </trkpt>
      <trkpt lat="44.10746" lon="6.68117">
        <ele>2424.4</ele>
        <time>2022-09-18T01:44:56Z</time>
      </trkpt>
      <trkpt lat="44.10744" lon="6.68114">
        <ele>2424.6</ele>
        <time>2022-09-18T01:44:57Z</time>
      </trkpt>
      <trkpt lat="44.10744" lon="6.68112">
        <ele>2424.7</ele>
        <time>2022-09-18T01:44:58Z</time>
      </trkpt>
      <trkpt lat="44.10744" lon="6.68109">
        <ele>2424.9</ele>
        <time>2022-09-18T01:44:59Z</time>
      </trkpt>
      <trkpt lat="44.10747" lon="6.68103">
        <ele>2425.4</ele>
        <time>2022-09-18T01:45:00Z</time>
      </trkpt>
      <trkpt lat="44.1075" lon="6.68101">
        <ele>2425.6</ele>
        <time>2022-09-18T01:45:01Z</time>
      </trkpt>
      <trkpt lat="44.10754" lon="6.68096">
        <ele>2426.1</ele>
        <time>2022-09-18T01:45:02Z</time>
      </trkpt>
      <trkpt lat="44.10756" lon="6.68095">
        <ele>2426.3</ele>
        <time>2022-09-18T01:45:03Z</time>
      </trkpt>
      <trkpt lat="44.10759" lon="6.68091">
        <ele>2426.7</ele>
        <time>2022-09-18T01:45:04Z</time>
      </trkpt>
      <trkpt lat="44.10763" lon="6.68087">
        <ele>2427.1</ele>
        <time>2022-09-18T01:45:05Z</time>
      </trkpt>
      <trkpt lat="44.10763" lon="6.68083">
        <ele>2427.4</ele>
        <time>2022-09-18T01:45:07Z</time>
      </trkpt>
      <trkpt lat="44.10764" lon="6.68079">
        <ele>2427.6</ele>
        <time>2022-09-18T01:45:08Z</time>
      </trkpt>
      <trkpt lat="44.10765" lon="6.68075">
        <ele>2427.9</ele>
        <time>2022-09-18T01:45:10Z</time>
      </trkpt>
      <trkpt lat="44.10766" lon="6.6807">
        <ele>2428.2</ele>
        <time>2022-09-18T01:45:11Z</time>
      </trkpt>
      <trkpt lat="44.10767" lon="6.68069">
        <ele>2428.3</ele>
        <time>2022-09-18T01:45:12Z</time>
      </trkpt>
      <trkpt lat="44.1077" lon="6.68066">
        <ele>2428.6</ele>
        <time>2022-09-18T01:45:13Z</time>
      </trkpt>
      <trkpt lat="44.10773" lon="6.68062">
        <ele>2428.6</ele>
        <time>2022-09-18T01:45:15Z</time>
      </trkpt>
      <trkpt lat="44.10775" lon="6.68057">
        <ele>2428.5</ele>
        <time>2022-09-18T01:45:16Z</time>
      </trkpt>
      <trkpt lat="44.10777" lon="6.68054">
        <ele>2428.5</ele>
        <time>2022-09-18T01:45:17Z</time>
      </trkpt>
      <trkpt lat="44.10779" lon="6.68052">
        <ele>2428.5</ele>
        <time>2022-09-18T01:45:18Z</time>
      </trkpt>
      <trkpt lat="44.10782" lon="6.68051">
        <ele>2428.4</ele>
        <time>2022-09-18T01:45:19Z</time>
      </trkpt>
      <trkpt lat="44.10786" lon="6.68051">
        <ele>2428.4</ele>
        <time>2022-09-18T01:45:20Z</time>
      </trkpt>
      <trkpt lat="44.10789" lon="6.68052">
        <ele>2428.3</ele>
        <time>2022-09-18T01:45:22Z</time>
      </trkpt>
      <trkpt lat="44.10792" lon="6.68055">
        <ele>2428.3</ele>
        <time>2022-09-18T01:45:23Z</time>
      </trkpt>
      <trkpt lat="44.10795" lon="6.68058">
        <ele>2428.3</ele>
        <time>2022-09-18T01:45:24Z</time>
      </trkpt>
      <trkpt lat="44.10799" lon="6.68062">
        <ele>2428.4</ele>
        <time>2022-09-18T01:45:25Z</time>
      </trkpt>
      <trkpt lat="44.10803" lon="6.68062">
        <ele>2428.4</ele>
        <time>2022-09-18T01:45:26Z</time>
      </trkpt>
      <trkpt lat="44.10807" lon="6.68061">
        <ele>2428.5</ele>
        <time>2022-09-18T01:45:27Z</time>
      </trkpt>
      <trkpt lat="44.10811" lon="6.6806">
        <ele>2428.6</ele>
        <time>2022-09-18T01:45:29Z</time>
      </trkpt>
      <trkpt lat="44.10812" lon="6.68059">
        <ele>2428.7</ele>
        <time>2022-09-18T01:45:30Z</time>
      </trkpt>
      <trkpt lat="44.10814" lon="6.68058">
        <ele>2428.7</ele>
        <time>2022-09-18T01:45:31Z</time>
      </trkpt>
      <trkpt lat="44.10819" lon="6.68057">
        <ele>2428.9</ele>
        <time>2022-09-18T01:45:33Z</time>
      </trkpt>
      <trkpt lat="44.1082" lon="6.68057">
        <ele>2429</ele>
        <time>2022-09-18T01:45:34Z</time>
      </trkpt>
      <trkpt lat="44.10822" lon="6.68057">
        <ele>2429.1</ele>
        <time>2022-09-18T01:45:35Z</time>
      </trkpt>
      <trkpt lat="44.10825" lon="6.68057">
        <ele>2429.2</ele>
        <time>2022-09-18T01:45:36Z</time>
      </trkpt>
      <trkpt lat="44.10826" lon="6.68057">
        <ele>2429.2</ele>
        <time>2022-09-18T01:45:37Z</time>
      </trkpt>
      <trkpt lat="44.10829" lon="6.68059">
        <ele>2429.4</ele>
        <time>2022-09-18T01:45:38Z</time>
      </trkpt>
      <trkpt lat="44.10832" lon="6.6806">
        <ele>2429.5</ele>
        <time>2022-09-18T01:45:39Z</time>
      </trkpt>
      <trkpt lat="44.10835" lon="6.68063">
        <ele>2429.6</ele>
        <time>2022-09-18T01:45:41Z</time>
      </trkpt>
      <trkpt lat="44.10838" lon="6.68066">
        <ele>2429.7</ele>
        <time>2022-09-18T01:45:42Z</time>
      </trkpt>
      <trkpt lat="44.1084" lon="6.68069">
        <ele>2429.9</ele>
        <time>2022-09-18T01:45:43Z</time>
      </trkpt>
      <trkpt lat="44.10841" lon="6.6807">
        <ele>2429.9</ele>
        <time>2022-09-18T01:45:44Z</time>
      </trkpt>
      <trkpt lat="44.10845" lon="6.6807">
        <ele>2430</ele>
        <time>2022-09-18T01:45:45Z</time>
      </trkpt>
      <trkpt lat="44.10846" lon="6.68069">
        <ele>2430.1</ele>
        <time>2022-09-18T01:45:46Z</time>
      </trkpt>
      <trkpt lat="44.10847" lon="6.68067">
        <ele>2430.1</ele>
        <time>2022-09-18T01:45:47Z</time>
      </trkpt>
      <trkpt lat="44.1085" lon="6.68064">
        <ele>2430.2</ele>
        <time>2022-09-18T01:45:49Z</time>
      </trkpt>
      <trkpt lat="44.10852" lon="6.68061">
        <ele>2430.3</ele>
        <time>2022-09-18T01:45:50Z</time>
      </trkpt>
      <trkpt lat="44.10854" lon="6.68058">
        <ele>2430.4</ele>
        <time>2022-09-18T01:45:51Z</time>
      </trkpt>
      <trkpt lat="44.10857" lon="6.68055">
        <ele>2430.4</ele>
        <time>2022-09-18T01:45:52Z</time>
      </trkpt>
      <trkpt lat="44.1086" lon="6.68052">
        <ele>2430.5</ele>
        <time>2022-09-18T01:45:53Z</time>
      </trkpt>
      <trkpt lat="44.10861" lon="6.68051">
        <ele>2430.5</ele>
        <time>2022-09-18T01:45:54Z</time>
      </trkpt>
      <trkpt lat="44.10864" lon="6.68048">
        <ele>2430.6</ele>
        <time>2022-09-18T01:45:55Z</time>
      </trkpt>
      <trkpt lat="44.10865" lon="6.68047">
        <ele>2430.6</ele>
        <time>2022-09-18T01:45:56Z</time>
      </trkpt>
      <trkpt lat="44.10869" lon="6.68045">
        <ele>2430.6</ele>
        <time>2022-09-18T01:45:58Z</time>
      </trkpt>
      <trkpt lat="44.10873" lon="6.68043">
        <ele>2430.7</ele>
        <time>2022-09-18T01:45:59Z</time>
      </trkpt>
      <trkpt lat="44.10877" lon="6.68042">
        <ele>2430.8</ele>
        <time>2022-09-18T01:46:00Z</time>
      </trkpt>
      <trkpt lat="44.10879" lon="6.68042">
        <ele>2430.8</ele>
        <time>2022-09-18T01:46:01Z</time>
      </trkpt>
      <trkpt lat="44.10882" lon="6.68045">
        <ele>2430.9</ele>
        <time>2022-09-18T01:46:02Z</time>
      </trkpt>
      <trkpt lat="44.10884" lon="6.68046">
        <ele>2431</ele>
        <time>2022-09-18T01:46:03Z</time>
      </trkpt>
      <trkpt lat="44.10886" lon="6.68044">
        <ele>2431.1</ele>
        <time>2022-09-18T01:46:05Z</time>
      </trkpt>
      <trkpt lat="44.10886" lon="6.68041">
        <ele>2431.2</ele>
        <time>2022-09-18T01:46:06Z</time>
      </trkpt>
      <trkpt lat="44.10885" lon="6.68039">
        <ele>2431.3</ele>
        <time>2022-09-18T01:46:07Z</time>
      </trkpt>
      <trkpt lat="44.10885" lon="6.68036">
        <ele>2431.5</ele>
        <time>2022-09-18T01:46:08Z</time>
      </trkpt>
      <trkpt lat="44.10883" lon="6.68032">
        <ele>2431.8</ele>
        <time>2022-09-18T01:46:10Z</time>
      </trkpt>
      <trkpt lat="44.10881" lon="6.68028">
        <ele>2432.1</ele>
        <time>2022-09-18T01:46:11Z</time>
      </trkpt>
      <trkpt lat="44.10878" lon="6.68021">
        <ele>2432.6</ele>
        <time>2022-09-18T01:46:13Z</time>
      </trkpt>
      <trkpt lat="44.10877" lon="6.68019">
        <ele>2432.7</ele>
        <time>2022-09-18T01:46:15Z</time>
      </trkpt>
      <trkpt lat="44.10875" lon="6.68017">
        <ele>2432.8</ele>
        <time>2022-09-18T01:46:16Z</time>
      </trkpt>
      <trkpt lat="44.10875" lon="6.68015">
        <ele>2432.9</ele>
        <time>2022-09-18T01:46:17Z</time>
      </trkpt>
      <trkpt lat="44.10872" lon="6.68012">
        <ele>2433.2</ele>
        <time>2022-09-18T01:46:18Z</time>
      </trkpt>
      <trkpt lat="44.10871" lon="6.68011">
        <ele>2433.3</ele>
        <time>2022-09-18T01:46:19Z</time>
      </trkpt>
      <trkpt lat="44.10867" lon="6.68008">
        <ele>2433.6</ele>
        <time>2022-09-18T01:46:20Z</time>
      </trkpt>
      <trkpt lat="44.10865" lon="6.68004">
        <ele>2433.9</ele>
        <time>2022-09-18T01:46:22Z</time>
      </trkpt>
      <trkpt lat="44.10863" lon="6.68001">
        <ele>2434.2</ele>
        <time>2022-09-18T01:46:24Z</time>
      </trkpt>
      <trkpt lat="44.1086" lon="6.67998">
        <ele>2434.6</ele>
        <time>2022-09-18T01:46:25Z</time>
      </trkpt>
      <trkpt lat="44.10858" lon="6.67995">
        <ele>2434.9</ele>
        <time>2022-09-18T01:46:26Z</time>
      </trkpt>
      <trkpt lat="44.10856" lon="6.67993">
        <ele>2435.2</ele>
        <time>2022-09-18T01:46:28Z</time>
      </trkpt>
      <trkpt lat="44.10854" lon="6.67991">
        <ele>2435.4</ele>
        <time>2022-09-18T01:46:29Z</time>
      </trkpt>
      <trkpt lat="44.10853" lon="6.6799">
        <ele>2435.6</ele>
        <time>2022-09-18T01:46:30Z</time>
      </trkpt>
      <trkpt lat="44.1085" lon="6.67987">
        <ele>2435.9</ele>
        <time>2022-09-18T01:46:31Z</time>
      </trkpt>
      <trkpt lat="44.10849" lon="6.67986">
        <ele>2436</ele>
        <time>2022-09-18T01:46:32Z</time>
      </trkpt>
      <trkpt lat="44.10848" lon="6.67984">
        <ele>2436.1</ele>
        <time>2022-09-18T01:46:33Z</time>
      </trkpt>
      <trkpt lat="44.10848" lon="6.67985">
        <ele>2436.2</ele>
        <time>2022-09-18T01:46:36Z</time>
      </trkpt>
      <trkpt lat="44.10848" lon="6.67986">
        <ele>2436.2</ele>
        <time>2022-09-18T01:46:37Z</time>
      </trkpt>
      <trkpt lat="44.10849" lon="6.67986">
        <ele>2436.2</ele>
        <time>2022-09-18T01:46:38Z</time>
      </trkpt>
      <trkpt lat="44.10849" lon="6.67986">
        <ele>2436.3</ele>
        <time>2022-09-18T01:46:39Z</time>
      </trkpt>
      <trkpt lat="44.10849" lon="6.67986">
        <ele>2436.3</ele>
        <time>2022-09-18T01:46:40Z</time>
      </trkpt>
      <trkpt lat="44.10849" lon="6.67986">
        <ele>2436.3</ele>
        <time>2022-09-18T01:46:41Z</time>
      </trkpt>
      <trkpt lat="44.10849" lon="6.67985">
        <ele>2436.3</ele>
        <time>2022-09-18T01:46:42Z</time>
      </trkpt>
      <trkpt lat="44.10849" lon="6.67984">
        <ele>2436.4</ele>
        <time>2022-09-18T01:46:44Z</time>
      </trkpt>
      <trkpt lat="44.1085" lon="6.67984">
        <ele>2436.4</ele>
        <time>2022-09-18T01:46:45Z</time>
      </trkpt>
      <trkpt lat="44.10851" lon="6.67984">
        <ele>2436.5</ele>
        <time>2022-09-18T01:46:46Z</time>
      </trkpt>
      <trkpt lat="44.10852" lon="6.67984">
        <ele>2436.6</ele>
        <time>2022-09-18T01:46:47Z</time>
      </trkpt>
      <trkpt lat="44.10853" lon="6.67983">
        <ele>2436.6</ele>
        <time>2022-09-18T01:46:49Z</time>
      </trkpt>
      <trkpt lat="44.10854" lon="6.67983">
        <ele>2436.7</ele>
        <time>2022-09-18T01:46:50Z</time>
      </trkpt>
      <trkpt lat="44.10855" lon="6.67983">
        <ele>2436.7</ele>
        <time>2022-09-18T01:46:51Z</time>
      </trkpt>
      <trkpt lat="44.10857" lon="6.67982">
        <ele>2436.8</ele>
        <time>2022-09-18T01:46:53Z</time>
      </trkpt>
      <trkpt lat="44.10857" lon="6.67981">
        <ele>2436.8</ele>
        <time>2022-09-18T01:46:54Z</time>
      </trkpt>
      <trkpt lat="44.10857" lon="6.67981">
        <ele>2436.9</ele>
        <time>2022-09-18T01:46:55Z</time>
      </trkpt>
      <trkpt lat="44.10857" lon="6.6798">
        <ele>2436.9</ele>
        <time>2022-09-18T01:46:56Z</time>
      </trkpt>
      <trkpt lat="44.10857" lon="6.67979">
        <ele>2437</ele>
        <time>2022-09-18T01:46:58Z</time>
      </trkpt>
      <trkpt lat="44.10857" lon="6.67978">
        <ele>2437</ele>
        <time>2022-09-18T01:46:59Z</time>
      </trkpt>
      <trkpt lat="44.10858" lon="6.67977">
        <ele>2437.1</ele>
        <time>2022-09-18T01:47:00Z</time>
      </trkpt>
      <trkpt lat="44.10858" lon="6.67976">
        <ele>2437.1</ele>
        <time>2022-09-18T01:47:01Z</time>
      </trkpt>
      <trkpt lat="44.10858" lon="6.67975">
        <ele>2437.2</ele>
        <time>2022-09-18T01:47:03Z</time>
      </trkpt>
      <trkpt lat="44.10858" lon="6.67974">
        <ele>2437.2</ele>
        <time>2022-09-18T01:47:27Z</time>
      </trkpt>
      <trkpt lat="44.10858" lon="6.67973">
        <ele>2437.3</ele>
        <time>2022-09-18T01:47:28Z</time>
      </trkpt>
      <trkpt lat="44.10858" lon="6.67972">
        <ele>2437.3</ele>
        <time>2022-09-18T01:47:29Z</time>
      </trkpt>
      <trkpt lat="44.10858" lon="6.67972">
        <ele>2437.4</ele>
        <time>2022-09-18T01:47:30Z</time>
      </trkpt>
      <trkpt lat="44.10856" lon="6.67969">
        <ele>2437.7</ele>
        <time>2022-09-18T01:47:32Z</time>
      </trkpt>
      <trkpt lat="44.10855" lon="6.67967">
        <ele>2437.8</ele>
        <time>2022-09-18T01:47:33Z</time>
      </trkpt>
      <trkpt lat="44.10856" lon="6.67965">
        <ele>2437.9</ele>
        <time>2022-09-18T01:47:34Z</time>
      </trkpt>
      <trkpt lat="44.10858" lon="6.67964">
        <ele>2438.1</ele>
        <time>2022-09-18T01:47:36Z</time>
      </trkpt>
      <trkpt lat="44.10859" lon="6.67965">
        <ele>2438.3</ele>
        <time>2022-09-18T01:47:37Z</time>
      </trkpt>
      <trkpt lat="44.10861" lon="6.67965">
        <ele>2438.4</ele>
        <time>2022-09-18T01:47:38Z</time>
      </trkpt>
      <trkpt lat="44.10862" lon="6.67965">
        <ele>2438.5</ele>
        <time>2022-09-18T01:47:39Z</time>
      </trkpt>
      <trkpt lat="44.10863" lon="6.67965">
        <ele>2438.6</ele>
        <time>2022-09-18T01:47:40Z</time>
      </trkpt>
      <trkpt lat="44.10864" lon="6.67965">
        <ele>2438.7</ele>
        <time>2022-09-18T01:47:42Z</time>
      </trkpt>
      <trkpt lat="44.10865" lon="6.67965">
        <ele>2438.8</ele>
        <time>2022-09-18T01:47:43Z</time>
      </trkpt>
      <trkpt lat="44.10865" lon="6.67965">
        <ele>2438.9</ele>
        <time>2022-09-18T01:47:44Z</time>
      </trkpt>
      <trkpt lat="44.10866" lon="6.67965">
        <ele>2438.9</ele>
        <time>2022-09-18T01:47:45Z</time>
      </trkpt>
      <trkpt lat="44.10867" lon="6.67966">
        <ele>2439</ele>
        <time>2022-09-18T01:47:47Z</time>
      </trkpt>
      <trkpt lat="44.10868" lon="6.67966">
        <ele>2439.1</ele>
        <time>2022-09-18T01:47:48Z</time>
      </trkpt>
      <trkpt lat="44.10869" lon="6.67966">
        <ele>2439.2</ele>
        <time>2022-09-18T01:47:50Z</time>
      </trkpt>
      <trkpt lat="44.1087" lon="6.67967">
        <ele>2439.2</ele>
        <time>2022-09-18T01:47:51Z</time>
      </trkpt>
      <trkpt lat="44.10872" lon="6.67967">
        <ele>2439.4</ele>
        <time>2022-09-18T01:47:52Z</time>
      </trkpt>
      <trkpt lat="44.10872" lon="6.67967">
        <ele>2439.5</ele>
        <time>2022-09-18T01:47:53Z</time>
      </trkpt>
      <trkpt lat="44.10873" lon="6.67967">
        <ele>2439.5</ele>
        <time>2022-09-18T01:47:55Z</time>
      </trkpt>
      <trkpt lat="44.10874" lon="6.67967">
        <ele>2439.6</ele>
        <time>2022-09-18T01:47:56Z</time>
      </trkpt>
      <trkpt lat="44.10875" lon="6.67967">
        <ele>2439.7</ele>
        <time>2022-09-18T01:47:57Z</time>
      </trkpt>
      <trkpt lat="44.10876" lon="6.67967">
        <ele>2439.7</ele>
        <time>2022-09-18T01:47:58Z</time>
      </trkpt>
      <trkpt lat="44.10877" lon="6.67967">
        <ele>2439.8</ele>
        <time>2022-09-18T01:47:59Z</time>
      </trkpt>
      <trkpt lat="44.10878" lon="6.67967">
        <ele>2439.9</ele>
        <time>2022-09-18T01:48:01Z</time>
      </trkpt>
      <trkpt lat="44.10879" lon="6.67967">
        <ele>2439.9</ele>
        <time>2022-09-18T01:48:02Z</time>
      </trkpt>
      <trkpt lat="44.10879" lon="6.67967">
        <ele>2439.9</ele>
        <time>2022-09-18T01:48:03Z</time>
      </trkpt>
      <trkpt lat="44.10881" lon="6.67968">
        <ele>2440</ele>
        <time>2022-09-18T01:48:04Z</time>
      </trkpt>
      <trkpt lat="44.10882" lon="6.67968">
        <ele>2440.1</ele>
        <time>2022-09-18T01:48:05Z</time>
      </trkpt>
      <trkpt lat="44.10883" lon="6.67968">
        <ele>2440.2</ele>
        <time>2022-09-18T01:48:07Z</time>
      </trkpt>
      <trkpt lat="44.10884" lon="6.67968">
        <ele>2440.2</ele>
        <time>2022-09-18T01:48:08Z</time>
      </trkpt>
      <trkpt lat="44.10884" lon="6.67968">
        <ele>2440.3</ele>
        <time>2022-09-18T01:48:09Z</time>
      </trkpt>
      <trkpt lat="44.10885" lon="6.67966">
        <ele>2440.3</ele>
        <time>2022-09-18T01:48:11Z</time>
      </trkpt>
      <trkpt lat="44.10885" lon="6.67966">
        <ele>2440.4</ele>
        <time>2022-09-18T01:48:12Z</time>
      </trkpt>
      <trkpt lat="44.10885" lon="6.67965">
        <ele>2440.4</ele>
        <time>2022-09-18T01:48:13Z</time>
      </trkpt>
      <trkpt lat="44.10885" lon="6.67964">
        <ele>2440.5</ele>
        <time>2022-09-18T01:48:14Z</time>
      </trkpt>
      <trkpt lat="44.10884" lon="6.67963">
        <ele>2440.6</ele>
        <time>2022-09-18T01:48:15Z</time>
      </trkpt>
      <trkpt lat="44.10884" lon="6.67962">
        <ele>2440.6</ele>
        <time>2022-09-18T01:48:16Z</time>
      </trkpt>
      <trkpt lat="44.10882" lon="6.6796">
        <ele>2440.8</ele>
        <time>2022-09-18T01:48:18Z</time>
      </trkpt>
      <trkpt lat="44.10882" lon="6.6796">
        <ele>2440.9</ele>
        <time>2022-09-18T01:48:20Z</time>
      </trkpt>
      <trkpt lat="44.10881" lon="6.67959">
        <ele>2440.9</ele>
        <time>2022-09-18T01:48:21Z</time>
      </trkpt>
      <trkpt lat="44.10881" lon="6.67958">
        <ele>2441.1</ele>
        <time>2022-09-18T01:48:23Z</time>
      </trkpt>
      <trkpt lat="44.1088" lon="6.67957">
        <ele>2441.2</ele>
        <time>2022-09-18T01:48:24Z</time>
      </trkpt>
      <trkpt lat="44.10879" lon="6.67955">
        <ele>2441.3</ele>
        <time>2022-09-18T01:48:25Z</time>
      </trkpt>
      <trkpt lat="44.10879" lon="6.67955">
        <ele>2441.4</ele>
        <time>2022-09-18T01:48:26Z</time>
      </trkpt>
      <trkpt lat="44.10877" lon="6.67953">
        <ele>2441.6</ele>
        <time>2022-09-18T01:48:28Z</time>
      </trkpt>
      <trkpt lat="44.10876" lon="6.67952">
        <ele>2441.7</ele>
        <time>2022-09-18T01:48:29Z</time>
      </trkpt>
      <trkpt lat="44.10875" lon="6.67951">
        <ele>2441.8</ele>
        <time>2022-09-18T01:48:30Z</time>
      </trkpt>
      <trkpt lat="44.10874" lon="6.67951">
        <ele>2441.9</ele>
        <time>2022-09-18T01:48:31Z</time>
      </trkpt>
      <trkpt lat="44.10874" lon="6.67951">
        <ele>2441.9</ele>
        <time>2022-09-18T01:48:32Z</time>
      </trkpt>
      <trkpt lat="44.10873" lon="6.6795">
        <ele>2442.1</ele>
        <time>2022-09-18T01:48:33Z</time>
      </trkpt>
      <trkpt lat="44.10871" lon="6.67949">
        <ele>2442.2</ele>
        <time>2022-09-18T01:48:35Z</time>
      </trkpt>
      <trkpt lat="44.1087" lon="6.67948">
        <ele>2442.4</ele>
        <time>2022-09-18T01:48:36Z</time>
      </trkpt>
      <trkpt lat="44.10869" lon="6.67947">
        <ele>2442.5</ele>
        <time>2022-09-18T01:48:37Z</time>
      </trkpt>
      <trkpt lat="44.10868" lon="6.67947">
        <ele>2442.6</ele>
        <time>2022-09-18T01:48:38Z</time>
      </trkpt>
      <trkpt lat="44.10867" lon="6.67946">
        <ele>2442.6</ele>
        <time>2022-09-18T01:48:39Z</time>
      </trkpt>
      <trkpt lat="44.10867" lon="6.67946">
        <ele>2442.7</ele>
        <time>2022-09-18T01:48:40Z</time>
      </trkpt>
      <trkpt lat="44.10866" lon="6.67945">
        <ele>2442.8</ele>
        <time>2022-09-18T01:48:42Z</time>
      </trkpt>
      <trkpt lat="44.10865" lon="6.67944">
        <ele>2442.9</ele>
        <time>2022-09-18T01:48:43Z</time>
      </trkpt>
      <trkpt lat="44.10864" lon="6.67943">
        <ele>2443</ele>
        <time>2022-09-18T01:48:44Z</time>
      </trkpt>
      <trkpt lat="44.10864" lon="6.67943">
        <ele>2443</ele>
        <time>2022-09-18T01:48:45Z</time>
      </trkpt>
      <trkpt lat="44.10864" lon="6.67942">
        <ele>2443</ele>
        <time>2022-09-18T01:48:46Z</time>
      </trkpt>
      <trkpt lat="44.10864" lon="6.6794">
        <ele>2443.2</ele>
        <time>2022-09-18T01:48:48Z</time>
      </trkpt>
      <trkpt lat="44.10865" lon="6.67938">
        <ele>2443.3</ele>
        <time>2022-09-18T01:48:49Z</time>
      </trkpt>
      <trkpt lat="44.10866" lon="6.67937">
        <ele>2443.4</ele>
        <time>2022-09-18T01:48:50Z</time>
      </trkpt>
      <trkpt lat="44.10867" lon="6.67937">
        <ele>2443.5</ele>
        <time>2022-09-18T01:48:51Z</time>
      </trkpt>
      <trkpt lat="44.10867" lon="6.67936">
        <ele>2443.5</ele>
        <time>2022-09-18T01:48:53Z</time>
      </trkpt>
      <trkpt lat="44.10869" lon="6.67936">
        <ele>2443.7</ele>
        <time>2022-09-18T01:48:54Z</time>
      </trkpt>
      <trkpt lat="44.1087" lon="6.67936">
        <ele>2443.8</ele>
        <time>2022-09-18T01:48:55Z</time>
      </trkpt>
      <trkpt lat="44.10872" lon="6.67937">
        <ele>2444</ele>
        <time>2022-09-18T01:48:57Z</time>
      </trkpt>
      <trkpt lat="44.10873" lon="6.67937">
        <ele>2444.1</ele>
        <time>2022-09-18T01:48:58Z</time>
      </trkpt>
      <trkpt lat="44.10873" lon="6.67937">
        <ele>2444.1</ele>
        <time>2022-09-18T01:48:59Z</time>
      </trkpt>
      <trkpt lat="44.1087" lon="6.67927">
        <ele>2445</ele>
        <time>2022-09-18T01:49:15Z</time>
      </trkpt>
      <trkpt lat="44.10868" lon="6.67926">
        <ele>2445.1</ele>
        <time>2022-09-18T01:49:16Z</time>
      </trkpt>
      <trkpt lat="44.10867" lon="6.67926">
        <ele>2445.3</ele>
        <time>2022-09-18T01:49:18Z</time>
      </trkpt>
      <trkpt lat="44.10867" lon="6.67926">
        <ele>2445.3</ele>
        <time>2022-09-18T01:49:19Z</time>
      </trkpt>
      <trkpt lat="44.10867" lon="6.67926">
        <ele>2445.3</ele>
        <time>2022-09-18T01:49:20Z</time>
      </trkpt>
      <trkpt lat="44.10866" lon="6.67925">
        <ele>2445.5</ele>
        <time>2022-09-18T01:49:21Z</time>
      </trkpt>
      <trkpt lat="44.10864" lon="6.67924">
        <ele>2445.6</ele>
        <time>2022-09-18T01:49:22Z</time>
      </trkpt>
      <trkpt lat="44.10863" lon="6.67922">
        <ele>2445.8</ele>
        <time>2022-09-18T01:49:23Z</time>
      </trkpt>
      <trkpt lat="44.10862" lon="6.67922">
        <ele>2445.8</ele>
        <time>2022-09-18T01:49:25Z</time>
      </trkpt>
      <trkpt lat="44.10862" lon="6.67921">
        <ele>2445.9</ele>
        <time>2022-09-18T01:49:26Z</time>
      </trkpt>
      <trkpt lat="44.10861" lon="6.6792">
        <ele>2446</ele>
        <time>2022-09-18T01:49:27Z</time>
      </trkpt>
      <trkpt lat="44.10859" lon="6.67918">
        <ele>2446.2</ele>
        <time>2022-09-18T01:49:29Z</time>
      </trkpt>
      <trkpt lat="44.10858" lon="6.67918">
        <ele>2446.2</ele>
        <time>2022-09-18T01:49:31Z</time>
      </trkpt>
      <trkpt lat="44.10858" lon="6.67917">
        <ele>2446.3</ele>
        <time>2022-09-18T01:49:32Z</time>
      </trkpt>
      <trkpt lat="44.10857" lon="6.67916">
        <ele>2446.4</ele>
        <time>2022-09-18T01:49:33Z</time>
      </trkpt>
      <trkpt lat="44.10856" lon="6.67915">
        <ele>2446.5</ele>
        <time>2022-09-18T01:49:35Z</time>
      </trkpt>
      <trkpt lat="44.10855" lon="6.67914">
        <ele>2446.5</ele>
        <time>2022-09-18T01:49:36Z</time>
      </trkpt>
      <trkpt lat="44.10854" lon="6.67914">
        <ele>2446.6</ele>
        <time>2022-09-18T01:49:37Z</time>
      </trkpt>
      <trkpt lat="44.10854" lon="6.67914">
        <ele>2446.6</ele>
        <time>2022-09-18T01:49:38Z</time>
      </trkpt>
      <trkpt lat="44.10853" lon="6.67913">
        <ele>2446.7</ele>
        <time>2022-09-18T01:49:40Z</time>
      </trkpt>
      <trkpt lat="44.10851" lon="6.67912">
        <ele>2446.8</ele>
        <time>2022-09-18T01:49:41Z</time>
      </trkpt>
      <trkpt lat="44.1085" lon="6.67912">
        <ele>2446.9</ele>
        <time>2022-09-18T01:49:42Z</time>
      </trkpt>
      <trkpt lat="44.1085" lon="6.67912">
        <ele>2446.9</ele>
        <time>2022-09-18T01:49:43Z</time>
      </trkpt>
      <trkpt lat="44.10848" lon="6.67911">
        <ele>2447</ele>
        <time>2022-09-18T01:49:44Z</time>
      </trkpt>
      <trkpt lat="44.10847" lon="6.6791">
        <ele>2447</ele>
        <time>2022-09-18T01:49:45Z</time>
      </trkpt>
      <trkpt lat="44.10846" lon="6.67909">
        <ele>2447.1</ele>
        <time>2022-09-18T01:49:47Z</time>
      </trkpt>
      <trkpt lat="44.10845" lon="6.67909">
        <ele>2447.2</ele>
        <time>2022-09-18T01:49:48Z</time>
      </trkpt>
      <trkpt lat="44.10844" lon="6.67908">
        <ele>2447.2</ele>
        <time>2022-09-18T01:49:49Z</time>
      </trkpt>
      <trkpt lat="44.10843" lon="6.67908">
        <ele>2447.2</ele>
        <time>2022-09-18T01:49:50Z</time>
      </trkpt>
      <trkpt lat="44.10841" lon="6.67906">
        <ele>2447.3</ele>
        <time>2022-09-18T01:49:52Z</time>
      </trkpt>
      <trkpt lat="44.1084" lon="6.67905">
        <ele>2447.4</ele>
        <time>2022-09-18T01:49:54Z</time>
      </trkpt>
      <trkpt lat="44.1084" lon="6.67905">
        <ele>2447.4</ele>
        <time>2022-09-18T01:49:55Z</time>
      </trkpt>
      <trkpt lat="44.10839" lon="6.67904">
        <ele>2447.5</ele>
        <time>2022-09-18T01:49:57Z</time>
      </trkpt>
      <trkpt lat="44.10838" lon="6.67903">
        <ele>2447.5</ele>
        <time>2022-09-18T01:49:58Z</time>
      </trkpt>
      <trkpt lat="44.10837" lon="6.67902">
        <ele>2447.5</ele>
        <time>2022-09-18T01:49:59Z</time>
      </trkpt>
      <trkpt lat="44.10836" lon="6.67901">
        <ele>2447.6</ele>
        <time>2022-09-18T01:50:00Z</time>
      </trkpt>
      <trkpt lat="44.10836" lon="6.679">
        <ele>2447.6</ele>
        <time>2022-09-18T01:50:02Z</time>
      </trkpt>
      <trkpt lat="44.10835" lon="6.679">
        <ele>2447.6</ele>
        <time>2022-09-18T01:50:03Z</time>
      </trkpt>
      <trkpt lat="44.10834" lon="6.67899">
        <ele>2447.6</ele>
        <time>2022-09-18T01:50:04Z</time>
      </trkpt>
      <trkpt lat="44.10833" lon="6.67898">
        <ele>2447.6</ele>
        <time>2022-09-18T01:50:05Z</time>
      </trkpt>
      <trkpt lat="44.10831" lon="6.67897">
        <ele>2447.7</ele>
        <time>2022-09-18T01:50:06Z</time>
      </trkpt>
      <trkpt lat="44.1083" lon="6.67897">
        <ele>2447.7</ele>
        <time>2022-09-18T01:50:07Z</time>
      </trkpt>
      <trkpt lat="44.1083" lon="6.67896">
        <ele>2447.7</ele>
        <time>2022-09-18T01:50:09Z</time>
      </trkpt>
      <trkpt lat="44.10829" lon="6.67896">
        <ele>2447.7</ele>
        <time>2022-09-18T01:50:10Z</time>
      </trkpt>
      <trkpt lat="44.10829" lon="6.67896">
        <ele>2447.7</ele>
        <time>2022-09-18T01:50:11Z</time>
      </trkpt>
      <trkpt lat="44.10829" lon="6.67896">
        <ele>2447.7</ele>
        <time>2022-09-18T01:50:12Z</time>
      </trkpt>
      <trkpt lat="44.10829" lon="6.67896">
        <ele>2447.7</ele>
        <time>2022-09-18T01:50:13Z</time>
      </trkpt>
      <trkpt lat="44.10829" lon="6.67896">
        <ele>2447.7</ele>
        <time>2022-09-18T01:50:15Z</time>
      </trkpt>
      <trkpt lat="44.10828" lon="6.67896">
        <ele>2447.7</ele>
        <time>2022-09-18T01:50:16Z</time>
      </trkpt>
      <trkpt lat="44.10825" lon="6.67895">
        <ele>2447.8</ele>
        <time>2022-09-18T01:50:17Z</time>
      </trkpt>
      <trkpt lat="44.10824" lon="6.67894">
        <ele>2447.8</ele>
        <time>2022-09-18T01:50:18Z</time>
      </trkpt>
      <trkpt lat="44.1082" lon="6.67892">
        <ele>2447.9</ele>
        <time>2022-09-18T01:50:20Z</time>
      </trkpt>
      <trkpt lat="44.10816" lon="6.67889">
        <ele>2447.9</ele>
        <time>2022-09-18T01:50:21Z</time>
      </trkpt>
      <trkpt lat="44.10813" lon="6.67887">
        <ele>2447.9</ele>
        <time>2022-09-18T01:50:23Z</time>
      </trkpt>
      <trkpt lat="44.1081" lon="6.67885">
        <ele>2448</ele>
        <time>2022-09-18T01:50:24Z</time>
      </trkpt>
      <trkpt lat="44.10808" lon="6.67885">
        <ele>2448</ele>
        <time>2022-09-18T01:50:25Z</time>
      </trkpt>
      <trkpt lat="44.10805" lon="6.67882">
        <ele>2448</ele>
        <time>2022-09-18T01:50:26Z</time>
      </trkpt>
      <trkpt lat="44.10804" lon="6.67882">
        <ele>2448</ele>
        <time>2022-09-18T01:50:27Z</time>
      </trkpt>
      <trkpt lat="44.10801" lon="6.67879">
        <ele>2448</ele>
        <time>2022-09-18T01:50:28Z</time>
      </trkpt>
      <trkpt lat="44.10798" lon="6.67878">
        <ele>2447.9</ele>
        <time>2022-09-18T01:50:29Z</time>
      </trkpt>
      <trkpt lat="44.10797" lon="6.67877">
        <ele>2447.9</ele>
        <time>2022-09-18T01:50:30Z</time>
      </trkpt>
      <trkpt lat="44.10793" lon="6.67874">
        <ele>2447.9</ele>
        <time>2022-09-18T01:50:32Z</time>
      </trkpt>
      <trkpt lat="44.10792" lon="6.67873">
        <ele>2447.8</ele>
        <time>2022-09-18T01:50:33Z</time>
      </trkpt>
      <trkpt lat="44.10791" lon="6.67872">
        <ele>2447.8</ele>
        <time>2022-09-18T01:50:34Z</time>
      </trkpt>
      <trkpt lat="44.10788" lon="6.67871">
        <ele>2447.7</ele>
        <time>2022-09-18T01:50:35Z</time>
      </trkpt>
      <trkpt lat="44.10785" lon="6.67869">
        <ele>2447.7</ele>
        <time>2022-09-18T01:50:37Z</time>
      </trkpt>
      <trkpt lat="44.10784" lon="6.67868">
        <ele>2447.7</ele>
        <time>2022-09-18T01:50:38Z</time>
      </trkpt>
      <trkpt lat="44.10781" lon="6.67866">
        <ele>2447.6</ele>
        <time>2022-09-18T01:50:40Z</time>
      </trkpt>
      <trkpt lat="44.10778" lon="6.67863">
        <ele>2447.4</ele>
        <time>2022-09-18T01:50:41Z</time>
      </trkpt>
      <trkpt lat="44.10777" lon="6.67862">
        <ele>2447.4</ele>
        <time>2022-09-18T01:50:42Z</time>
      </trkpt>
      <trkpt lat="44.10774" lon="6.6786">
        <ele>2447.3</ele>
        <time>2022-09-18T01:50:43Z</time>
      </trkpt>
      <trkpt lat="44.10773" lon="6.67859">
        <ele>2447.3</ele>
        <time>2022-09-18T01:50:44Z</time>
      </trkpt>
      <trkpt lat="44.1077" lon="6.67857">
        <ele>2447.2</ele>
        <time>2022-09-18T01:50:45Z</time>
      </trkpt>
      <trkpt lat="44.10769" lon="6.67857">
        <ele>2447.1</ele>
        <time>2022-09-18T01:50:46Z</time>
      </trkpt>
      <trkpt lat="44.10765" lon="6.67856">
        <ele>2447</ele>
        <time>2022-09-18T01:50:47Z</time>
      </trkpt>
      <trkpt lat="44.10764" lon="6.67855">
        <ele>2447</ele>
        <time>2022-09-18T01:50:48Z</time>
      </trkpt>
      <trkpt lat="44.10762" lon="6.67854">
        <ele>2446.9</ele>
        <time>2022-09-18T01:50:50Z</time>
      </trkpt>
      <trkpt lat="44.10761" lon="6.67853">
        <ele>2446.9</ele>
        <time>2022-09-18T01:50:51Z</time>
      </trkpt>
      <trkpt lat="44.1076" lon="6.67853">
        <ele>2446.9</ele>
        <time>2022-09-18T01:50:52Z</time>
      </trkpt>
      <trkpt lat="44.10761" lon="6.67853">
        <ele>2446.9</ele>
        <time>2022-09-18T01:50:53Z</time>
      </trkpt>
      <trkpt lat="44.10761" lon="6.67853">
        <ele>2446.9</ele>
        <time>2022-09-18T01:50:54Z</time>
      </trkpt>
      <trkpt lat="44.10761" lon="6.67853">
        <ele>2446.9</ele>
        <time>2022-09-18T01:50:55Z</time>
      </trkpt>
      <trkpt lat="44.10762" lon="6.67853">
        <ele>2446.9</ele>
        <time>2022-09-18T01:50:56Z</time>
      </trkpt>
      <trkpt lat="44.10762" lon="6.67853">
        <ele>2446.9</ele>
        <time>2022-09-18T01:50:57Z</time>
      </trkpt>
      <trkpt lat="44.10762" lon="6.67853">
        <ele>2446.9</ele>
        <time>2022-09-18T01:50:58Z</time>
      </trkpt>
      <trkpt lat="44.10762" lon="6.67853">
        <ele>2446.9</ele>
        <time>2022-09-18T01:50:59Z</time>
      </trkpt>
      <trkpt lat="44.10762" lon="6.67853">
        <ele>2446.9</ele>
        <time>2022-09-18T01:51:00Z</time>
      </trkpt>
      <trkpt lat="44.10762" lon="6.67853">
        <ele>2446.9</ele>
        <time>2022-09-18T01:51:01Z</time>
      </trkpt>
      <trkpt lat="44.10762" lon="6.67853">
        <ele>2446.9</ele>
        <time>2022-09-18T01:51:02Z</time>
      </trkpt>
      <trkpt lat="44.10763" lon="6.67853">
        <ele>2446.9</ele>
        <time>2022-09-18T01:51:03Z</time>
      </trkpt>
      <trkpt lat="44.10763" lon="6.67853">
        <ele>2446.9</ele>
        <time>2022-09-18T01:51:05Z</time>
      </trkpt>
      <trkpt lat="44.10763" lon="6.67853">
        <ele>2446.9</ele>
        <time>2022-09-18T01:51:06Z</time>
      </trkpt>
      <trkpt lat="44.10761" lon="6.6785">
        <ele>2446.9</ele>
        <time>2022-09-18T01:51:16Z</time>
      </trkpt>
      <trkpt lat="44.10762" lon="6.67848">
        <ele>2446.8</ele>
        <time>2022-09-18T01:51:18Z</time>
      </trkpt>
      <trkpt lat="44.10761" lon="6.67848">
        <ele>2447.5</ele>
        <time>2022-09-18T01:51:19Z</time>
      </trkpt>
      <trkpt lat="44.10761" lon="6.67847">
        <ele>2447.5</ele>
        <time>2022-09-18T01:51:20Z</time>
      </trkpt>
      <trkpt lat="44.10761" lon="6.67847">
        <ele>2447.5</ele>
        <time>2022-09-18T01:51:21Z</time>
      </trkpt>
      <trkpt lat="44.10761" lon="6.67847">
        <ele>2447.5</ele>
        <time>2022-09-18T01:51:22Z</time>
      </trkpt>
      <trkpt lat="44.10761" lon="6.67847">
        <ele>2447.6</ele>
        <time>2022-09-18T01:51:23Z</time>
      </trkpt>
      <trkpt lat="44.10761" lon="6.67847">
        <ele>2447.6</ele>
        <time>2022-09-18T01:51:24Z</time>
      </trkpt>
      <trkpt lat="44.10761" lon="6.67847">
        <ele>2447.6</ele>
        <time>2022-09-18T01:51:25Z</time>
      </trkpt>
      <trkpt lat="44.10761" lon="6.67846">
        <ele>2447.7</ele>
        <time>2022-09-18T01:51:26Z</time>
      </trkpt>
      <trkpt lat="44.10761" lon="6.67846">
        <ele>2447.7</ele>
        <time>2022-09-18T01:51:27Z</time>
      </trkpt>
      <trkpt lat="44.10761" lon="6.67846">
        <ele>2447.8</ele>
        <time>2022-09-18T01:51:28Z</time>
      </trkpt>
      <trkpt lat="44.10762" lon="6.67846">
        <ele>2447.8</ele>
        <time>2022-09-18T01:51:29Z</time>
      </trkpt>
      <trkpt lat="44.10762" lon="6.67847">
        <ele>2447.9</ele>
        <time>2022-09-18T01:51:30Z</time>
      </trkpt>
      <trkpt lat="44.10761" lon="6.67847">
        <ele>2447.9</ele>
        <time>2022-09-18T01:51:31Z</time>
      </trkpt>
      <trkpt lat="44.10761" lon="6.67847">
        <ele>2447.9</ele>
        <time>2022-09-18T01:51:32Z</time>
      </trkpt>
      <trkpt lat="44.10761" lon="6.67847">
        <ele>2447.9</ele>
        <time>2022-09-18T01:51:34Z</time>
      </trkpt>
      <trkpt lat="44.10761" lon="6.67847">
        <ele>2448</ele>
        <time>2022-09-18T01:51:35Z</time>
      </trkpt>
      <trkpt lat="44.10761" lon="6.67847">
        <ele>2448</ele>
        <time>2022-09-18T01:51:36Z</time>
      </trkpt>
      <trkpt lat="44.10761" lon="6.67847">
        <ele>2448</ele>
        <time>2022-09-18T01:51:37Z</time>
      </trkpt>
      <trkpt lat="44.10761" lon="6.67848">
        <ele>2448</ele>
        <time>2022-09-18T01:51:38Z</time>
      </trkpt>
      <trkpt lat="44.10762" lon="6.6784">
        <ele>2449.1</ele>
        <time>2022-09-18T01:55:41Z</time>
      </trkpt>
      <trkpt lat="44.10763" lon="6.67837">
        <ele>2449.5</ele>
        <time>2022-09-18T01:55:42Z</time>
      </trkpt>
      <trkpt lat="44.10765" lon="6.67833">
        <ele>2450.1</ele>
        <time>2022-09-18T01:55:44Z</time>
      </trkpt>
      <trkpt lat="44.10768" lon="6.67829">
        <ele>2450.7</ele>
        <time>2022-09-18T01:55:45Z</time>
      </trkpt>
      <trkpt lat="44.10772" lon="6.67824">
        <ele>2451.4</ele>
        <time>2022-09-18T01:55:46Z</time>
      </trkpt>
      <trkpt lat="44.10777" lon="6.67819">
        <ele>2452.1</ele>
        <time>2022-09-18T01:55:47Z</time>
      </trkpt>
      <trkpt lat="44.10786" lon="6.67815">
        <ele>2453.5</ele>
        <time>2022-09-18T01:55:49Z</time>
      </trkpt>
      <trkpt lat="44.1079" lon="6.67815">
        <ele>2454.2</ele>
        <time>2022-09-18T01:55:50Z</time>
      </trkpt>
      <trkpt lat="44.10793" lon="6.67813">
        <ele>2454.7</ele>
        <time>2022-09-18T01:55:51Z</time>
      </trkpt>
      <trkpt lat="44.10797" lon="6.67811">
        <ele>2455.1</ele>
        <time>2022-09-18T01:55:52Z</time>
      </trkpt>
      <trkpt lat="44.108" lon="6.67811">
        <ele>2455.5</ele>
        <time>2022-09-18T01:55:53Z</time>
      </trkpt>
      <trkpt lat="44.10805" lon="6.67811">
        <ele>2455.9</ele>
        <time>2022-09-18T01:55:54Z</time>
      </trkpt>
      <trkpt lat="44.10808" lon="6.67808">
        <ele>2456.2</ele>
        <time>2022-09-18T01:55:55Z</time>
      </trkpt>
      <trkpt lat="44.10808" lon="6.67807">
        <ele>2456.3</ele>
        <time>2022-09-18T01:55:56Z</time>
      </trkpt>
      <trkpt lat="44.10809" lon="6.67802">
        <ele>2456.7</ele>
        <time>2022-09-18T01:55:57Z</time>
      </trkpt>
      <trkpt lat="44.1081" lon="6.678">
        <ele>2456.8</ele>
        <time>2022-09-18T01:55:58Z</time>
      </trkpt>
      <trkpt lat="44.10813" lon="6.67798">
        <ele>2457.2</ele>
        <time>2022-09-18T01:56:00Z</time>
      </trkpt>
      <trkpt lat="44.10814" lon="6.67797">
        <ele>2457.3</ele>
        <time>2022-09-18T01:56:01Z</time>
      </trkpt>
      <trkpt lat="44.10815" lon="6.67797">
        <ele>2457.5</ele>
        <time>2022-09-18T01:56:02Z</time>
      </trkpt>
      <trkpt lat="44.10816" lon="6.67797">
        <ele>2457.6</ele>
        <time>2022-09-18T01:56:03Z</time>
      </trkpt>
      <trkpt lat="44.10817" lon="6.67796">
        <ele>2457.8</ele>
        <time>2022-09-18T01:56:04Z</time>
      </trkpt>
      <trkpt lat="44.10821" lon="6.67792">
        <ele>2458.4</ele>
        <time>2022-09-18T01:56:05Z</time>
      </trkpt>
      <trkpt lat="44.10823" lon="6.6779">
        <ele>2458.7</ele>
        <time>2022-09-18T01:56:06Z</time>
      </trkpt>
      <trkpt lat="44.10826" lon="6.67786">
        <ele>2459.3</ele>
        <time>2022-09-18T01:56:07Z</time>
      </trkpt>
      <trkpt lat="44.10829" lon="6.67781">
        <ele>2459.9</ele>
        <time>2022-09-18T01:56:08Z</time>
      </trkpt>
      <trkpt lat="44.10832" lon="6.67777">
        <ele>2460.4</ele>
        <time>2022-09-18T01:56:09Z</time>
      </trkpt>
      <trkpt lat="44.10832" lon="6.67775">
        <ele>2460.6</ele>
        <time>2022-09-18T01:56:10Z</time>
      </trkpt>
      <trkpt lat="44.10838" lon="6.67766">
        <ele>2461.6</ele>
        <time>2022-09-18T01:56:12Z</time>
      </trkpt>
      <trkpt lat="44.10842" lon="6.67764">
        <ele>2462</ele>
        <time>2022-09-18T01:56:13Z</time>
      </trkpt>
      <trkpt lat="44.10843" lon="6.67762">
        <ele>2462.1</ele>
        <time>2022-09-18T01:56:14Z</time>
      </trkpt>
      <trkpt lat="44.10845" lon="6.67757">
        <ele>2462.4</ele>
        <time>2022-09-18T01:56:15Z</time>
      </trkpt>
      <trkpt lat="44.10846" lon="6.67753">
        <ele>2462.5</ele>
        <time>2022-09-18T01:56:16Z</time>
      </trkpt>
      <trkpt lat="44.10847" lon="6.67748">
        <ele>2462.7</ele>
        <time>2022-09-18T01:56:17Z</time>
      </trkpt>
      <trkpt lat="44.10848" lon="6.67743">
        <ele>2462.9</ele>
        <time>2022-09-18T01:56:18Z</time>
      </trkpt>
      <trkpt lat="44.10847" lon="6.67734">
        <ele>2461.6</ele>
        <time>2022-09-18T01:56:19Z</time>
      </trkpt>
      <trkpt lat="44.10846" lon="6.67726">
        <ele>2460.2</ele>
        <time>2022-09-18T01:56:21Z</time>
      </trkpt>
      <trkpt lat="44.10846" lon="6.6772">
        <ele>2459.2</ele>
        <time>2022-09-18T01:56:23Z</time>
      </trkpt>
      <trkpt lat="44.10846" lon="6.67715">
        <ele>2458.4</ele>
        <time>2022-09-18T01:56:24Z</time>
      </trkpt>
      <trkpt lat="44.10846" lon="6.67709">
        <ele>2457.4</ele>
        <time>2022-09-18T01:56:25Z</time>
      </trkpt>
      <trkpt lat="44.10846" lon="6.67703">
        <ele>2456.5</ele>
        <time>2022-09-18T01:56:26Z</time>
      </trkpt>
      <trkpt lat="44.10845" lon="6.67698">
        <ele>2455.6</ele>
        <time>2022-09-18T01:56:27Z</time>
      </trkpt>
      <trkpt lat="44.10844" lon="6.67691">
        <ele>2454.6</ele>
        <time>2022-09-18T01:56:29Z</time>
      </trkpt>
      <trkpt lat="44.10846" lon="6.67686">
        <ele>2454</ele>
        <time>2022-09-18T01:56:30Z</time>
      </trkpt>
      <trkpt lat="44.10846" lon="6.67685">
        <ele>2453.8</ele>
        <time>2022-09-18T01:56:31Z</time>
      </trkpt>
      <trkpt lat="44.10847" lon="6.67678">
        <ele>2452.8</ele>
        <time>2022-09-18T01:56:32Z</time>
      </trkpt>
      <trkpt lat="44.10848" lon="6.67671">
        <ele>2451.7</ele>
        <time>2022-09-18T01:56:33Z</time>
      </trkpt>
      <trkpt lat="44.10848" lon="6.67664">
        <ele>2450.7</ele>
        <time>2022-09-18T01:56:35Z</time>
      </trkpt>
      <trkpt lat="44.10847" lon="6.67658">
        <ele>2449.8</ele>
        <time>2022-09-18T01:56:36Z</time>
      </trkpt>
      <trkpt lat="44.10847" lon="6.67653">
        <ele>2448.9</ele>
        <time>2022-09-18T01:56:37Z</time>
      </trkpt>
      <trkpt lat="44.10846" lon="6.67645">
        <ele>2447.6</ele>
        <time>2022-09-18T01:56:38Z</time>
      </trkpt>
      <trkpt lat="44.10845" lon="6.6764">
        <ele>2446.6</ele>
        <time>2022-09-18T01:56:39Z</time>
      </trkpt>
      <trkpt lat="44.10844" lon="6.67635">
        <ele>2445.8</ele>
        <time>2022-09-18T01:56:40Z</time>
      </trkpt>
      <trkpt lat="44.10843" lon="6.67627">
        <ele>2444.5</ele>
        <time>2022-09-18T01:56:42Z</time>
      </trkpt>
      <trkpt lat="44.10842" lon="6.67619">
        <ele>2443.3</ele>
        <time>2022-09-18T01:56:43Z</time>
      </trkpt>
      <trkpt lat="44.10842" lon="6.67613">
        <ele>2442.3</ele>
        <time>2022-09-18T01:56:45Z</time>
      </trkpt>
      <trkpt lat="44.10842" lon="6.67609">
        <ele>2441.7</ele>
        <time>2022-09-18T01:56:46Z</time>
      </trkpt>
      <trkpt lat="44.10842" lon="6.67603">
        <ele>2441</ele>
        <time>2022-09-18T01:56:47Z</time>
      </trkpt>
      <trkpt lat="44.10842" lon="6.67596">
        <ele>2439.9</ele>
        <time>2022-09-18T01:56:48Z</time>
      </trkpt>
      <trkpt lat="44.10843" lon="6.67591">
        <ele>2439</ele>
        <time>2022-09-18T01:56:50Z</time>
      </trkpt>
      <trkpt lat="44.10843" lon="6.67585">
        <ele>2438.2</ele>
        <time>2022-09-18T01:56:51Z</time>
      </trkpt>
      <trkpt lat="44.10842" lon="6.67578">
        <ele>2437.3</ele>
        <time>2022-09-18T01:56:52Z</time>
      </trkpt>
      <trkpt lat="44.10842" lon="6.67572">
        <ele>2436.5</ele>
        <time>2022-09-18T01:56:53Z</time>
      </trkpt>
      <trkpt lat="44.10842" lon="6.67566">
        <ele>2435.5</ele>
        <time>2022-09-18T01:56:55Z</time>
      </trkpt>
      <trkpt lat="44.10843" lon="6.67561">
        <ele>2434.9</ele>
        <time>2022-09-18T01:56:56Z</time>
      </trkpt>
      <trkpt lat="44.10843" lon="6.67558">
        <ele>2434.5</ele>
        <time>2022-09-18T01:56:57Z</time>
      </trkpt>
      <trkpt lat="44.10843" lon="6.67556">
        <ele>2434.1</ele>
        <time>2022-09-18T01:56:58Z</time>
      </trkpt>
      <trkpt lat="44.10842" lon="6.67556">
        <ele>2433.9</ele>
        <time>2022-09-18T01:56:59Z</time>
      </trkpt>
      <trkpt lat="44.1084" lon="6.67555">
        <ele>2433.5</ele>
        <time>2022-09-18T01:57:00Z</time>
      </trkpt>
      <trkpt lat="44.10839" lon="6.6755">
        <ele>2432.8</ele>
        <time>2022-09-18T01:57:01Z</time>
      </trkpt>
      <trkpt lat="44.1084" lon="6.67543">
        <ele>2431.7</ele>
        <time>2022-09-18T01:57:03Z</time>
      </trkpt>
      <trkpt lat="44.1084" lon="6.67536">
        <ele>2430.8</ele>
        <time>2022-09-18T01:57:04Z</time>
      </trkpt>
      <trkpt lat="44.10839" lon="6.6753">
        <ele>2429.9</ele>
        <time>2022-09-18T01:57:05Z</time>
      </trkpt>
      <trkpt lat="44.10838" lon="6.67523">
        <ele>2429</ele>
        <time>2022-09-18T01:57:06Z</time>
      </trkpt>
      <trkpt lat="44.10836" lon="6.67515">
        <ele>2428</ele>
        <time>2022-09-18T01:57:07Z</time>
      </trkpt>
      <trkpt lat="44.10836" lon="6.67509">
        <ele>2427.2</ele>
        <time>2022-09-18T01:57:08Z</time>
      </trkpt>
      <trkpt lat="44.10837" lon="6.67504">
        <ele>2426.3</ele>
        <time>2022-09-18T01:57:09Z</time>
      </trkpt>
      <trkpt lat="44.10836" lon="6.67498">
        <ele>2425.5</ele>
        <time>2022-09-18T01:57:10Z</time>
      </trkpt>
      <trkpt lat="44.10832" lon="6.67493">
        <ele>2424.5</ele>
        <time>2022-09-18T01:57:11Z</time>
      </trkpt>
      <trkpt lat="44.10829" lon="6.67487">
        <ele>2423.5</ele>
        <time>2022-09-18T01:57:12Z</time>
      </trkpt>
      <trkpt lat="44.10826" lon="6.67478">
        <ele>2422</ele>
        <time>2022-09-18T01:57:14Z</time>
      </trkpt>
      <trkpt lat="44.10827" lon="6.67474">
        <ele>2421.3</ele>
        <time>2022-09-18T01:57:15Z</time>
      </trkpt>
      <trkpt lat="44.10827" lon="6.67469">
        <ele>2420.5</ele>
        <time>2022-09-18T01:57:16Z</time>
      </trkpt>
      <trkpt lat="44.10826" lon="6.67464">
        <ele>2419.6</ele>
        <time>2022-09-18T01:57:17Z</time>
      </trkpt>
      <trkpt lat="44.10824" lon="6.67456">
        <ele>2418.3</ele>
        <time>2022-09-18T01:57:18Z</time>
      </trkpt>
      <trkpt lat="44.10821" lon="6.67451">
        <ele>2417.2</ele>
        <time>2022-09-18T01:57:19Z</time>
      </trkpt>
      <trkpt lat="44.10817" lon="6.67445">
        <ele>2415.9</ele>
        <time>2022-09-18T01:57:21Z</time>
      </trkpt>
      <trkpt lat="44.10813" lon="6.67438">
        <ele>2414.4</ele>
        <time>2022-09-18T01:57:22Z</time>
      </trkpt>
      <trkpt lat="44.10811" lon="6.67433">
        <ele>2413.5</ele>
        <time>2022-09-18T01:57:23Z</time>
      </trkpt>
      <trkpt lat="44.1081" lon="6.67429">
        <ele>2412.7</ele>
        <time>2022-09-18T01:57:24Z</time>
      </trkpt>
      <trkpt lat="44.10809" lon="6.67425">
        <ele>2412.1</ele>
        <time>2022-09-18T01:57:25Z</time>
      </trkpt>
      <trkpt lat="44.10808" lon="6.67421">
        <ele>2411.5</ele>
        <time>2022-09-18T01:57:26Z</time>
      </trkpt>
      <trkpt lat="44.10807" lon="6.67417">
        <ele>2410.9</ele>
        <time>2022-09-18T01:57:27Z</time>
      </trkpt>
      <trkpt lat="44.10806" lon="6.67411">
        <ele>2409.9</ele>
        <time>2022-09-18T01:57:29Z</time>
      </trkpt>
      <trkpt lat="44.10803" lon="6.67406">
        <ele>2408.9</ele>
        <time>2022-09-18T01:57:30Z</time>
      </trkpt>
      <trkpt lat="44.108" lon="6.674">
        <ele>2408</ele>
        <time>2022-09-18T01:57:31Z</time>
      </trkpt>
      <trkpt lat="44.10798" lon="6.67395">
        <ele>2407.1</ele>
        <time>2022-09-18T01:57:32Z</time>
      </trkpt>
      <trkpt lat="44.10796" lon="6.6739">
        <ele>2406.3</ele>
        <time>2022-09-18T01:57:33Z</time>
      </trkpt>
      <trkpt lat="44.10794" lon="6.67385">
        <ele>2405.5</ele>
        <time>2022-09-18T01:57:34Z</time>
      </trkpt>
      <trkpt lat="44.10792" lon="6.67382">
        <ele>2404.9</ele>
        <time>2022-09-18T01:57:35Z</time>
      </trkpt>
      <trkpt lat="44.1079" lon="6.67376">
        <ele>2404</ele>
        <time>2022-09-18T01:57:36Z</time>
      </trkpt>
      <trkpt lat="44.10789" lon="6.67371">
        <ele>2403.3</ele>
        <time>2022-09-18T01:57:37Z</time>
      </trkpt>
      <trkpt lat="44.10789" lon="6.67367">
        <ele>2402.8</ele>
        <time>2022-09-18T01:57:38Z</time>
      </trkpt>
      <trkpt lat="44.10788" lon="6.67363">
        <ele>2402.1</ele>
        <time>2022-09-18T01:57:39Z</time>
      </trkpt>
      <trkpt lat="44.10782" lon="6.67359">
        <ele>2400.9</ele>
        <time>2022-09-18T01:57:40Z</time>
      </trkpt>
      <trkpt lat="44.10779" lon="6.67354">
        <ele>2400</ele>
        <time>2022-09-18T01:57:41Z</time>
      </trkpt>
      <trkpt lat="44.10776" lon="6.67348">
        <ele>2399</ele>
        <time>2022-09-18T01:57:42Z</time>
      </trkpt>
      <trkpt lat="44.10773" lon="6.67343">
        <ele>2398.2</ele>
        <time>2022-09-18T01:57:43Z</time>
      </trkpt>
      <trkpt lat="44.1077" lon="6.67337">
        <ele>2397.1</ele>
        <time>2022-09-18T01:57:44Z</time>
      </trkpt>
      <trkpt lat="44.10768" lon="6.6733">
        <ele>2396.1</ele>
        <time>2022-09-18T01:57:45Z</time>
      </trkpt>
      <trkpt lat="44.10766" lon="6.67325">
        <ele>2395.3</ele>
        <time>2022-09-18T01:57:46Z</time>
      </trkpt>
      <trkpt lat="44.10764" lon="6.67321">
        <ele>2394.5</ele>
        <time>2022-09-18T01:57:47Z</time>
      </trkpt>
      <trkpt lat="44.10761" lon="6.67318">
        <ele>2393.8</ele>
        <time>2022-09-18T01:57:48Z</time>
      </trkpt>
      <trkpt lat="44.1076" lon="6.67311">
        <ele>2392.8</ele>
        <time>2022-09-18T01:57:49Z</time>
      </trkpt>
      <trkpt lat="44.10758" lon="6.67306">
        <ele>2391.8</ele>
        <time>2022-09-18T01:57:50Z</time>
      </trkpt>
      <trkpt lat="44.10756" lon="6.673">
        <ele>2390.9</ele>
        <time>2022-09-18T01:57:51Z</time>
      </trkpt>
      <trkpt lat="44.10755" lon="6.67294">
        <ele>2390</ele>
        <time>2022-09-18T01:57:52Z</time>
      </trkpt>
      <trkpt lat="44.10754" lon="6.67288">
        <ele>2389.1</ele>
        <time>2022-09-18T01:57:53Z</time>
      </trkpt>
      <trkpt lat="44.10753" lon="6.67283">
        <ele>2388.3</ele>
        <time>2022-09-18T01:57:54Z</time>
      </trkpt>
      <trkpt lat="44.10751" lon="6.67278">
        <ele>2387.4</ele>
        <time>2022-09-18T01:57:55Z</time>
      </trkpt>
      <trkpt lat="44.1075" lon="6.67272">
        <ele>2386.5</ele>
        <time>2022-09-18T01:57:56Z</time>
      </trkpt>
      <trkpt lat="44.10749" lon="6.67272">
        <ele>2386.3</ele>
        <time>2022-09-18T01:57:57Z</time>
      </trkpt>
      <trkpt lat="44.10747" lon="6.67262">
        <ele>2384.8</ele>
        <time>2022-09-18T01:57:59Z</time>
      </trkpt>
      <trkpt lat="44.10746" lon="6.67255">
        <ele>2383.7</ele>
        <time>2022-09-18T01:58:00Z</time>
      </trkpt>
      <trkpt lat="44.10743" lon="6.67249">
        <ele>2382.5</ele>
        <time>2022-09-18T01:58:01Z</time>
      </trkpt>
      <trkpt lat="44.10741" lon="6.67243">
        <ele>2381.5</ele>
        <time>2022-09-18T01:58:02Z</time>
      </trkpt>
      <trkpt lat="44.10739" lon="6.67236">
        <ele>2380.3</ele>
        <time>2022-09-18T01:58:03Z</time>
      </trkpt>
      <trkpt lat="44.10738" lon="6.67229">
        <ele>2379.2</ele>
        <time>2022-09-18T01:58:05Z</time>
      </trkpt>
      <trkpt lat="44.10737" lon="6.67224">
        <ele>2378.5</ele>
        <time>2022-09-18T01:58:06Z</time>
      </trkpt>
      <trkpt lat="44.10736" lon="6.67218">
        <ele>2377.7</ele>
        <time>2022-09-18T01:58:07Z</time>
      </trkpt>
      <trkpt lat="44.10733" lon="6.67213">
        <ele>2376.8</ele>
        <time>2022-09-18T01:58:08Z</time>
      </trkpt>
      <trkpt lat="44.10732" lon="6.67208">
        <ele>2376</ele>
        <time>2022-09-18T01:58:09Z</time>
      </trkpt>
      <trkpt lat="44.10728" lon="6.67202">
        <ele>2375.1</ele>
        <time>2022-09-18T01:58:10Z</time>
      </trkpt>
      <trkpt lat="44.10726" lon="6.67197">
        <ele>2374.1</ele>
        <time>2022-09-18T01:58:11Z</time>
      </trkpt>
      <trkpt lat="44.10724" lon="6.67191">
        <ele>2373.3</ele>
        <time>2022-09-18T01:58:12Z</time>
      </trkpt>
      <trkpt lat="44.10725" lon="6.67188">
        <ele>2372.7</ele>
        <time>2022-09-18T01:58:13Z</time>
      </trkpt>
      <trkpt lat="44.10725" lon="6.67182">
        <ele>2371.8</ele>
        <time>2022-09-18T01:58:14Z</time>
      </trkpt>
      <trkpt lat="44.10723" lon="6.67177">
        <ele>2370.8</ele>
        <time>2022-09-18T01:58:15Z</time>
      </trkpt>
      <trkpt lat="44.10718" lon="6.67173">
        <ele>2369.7</ele>
        <time>2022-09-18T01:58:16Z</time>
      </trkpt>
      <trkpt lat="44.10715" lon="6.67168">
        <ele>2368.6</ele>
        <time>2022-09-18T01:58:17Z</time>
      </trkpt>
      <trkpt lat="44.10712" lon="6.67164">
        <ele>2367.6</ele>
        <time>2022-09-18T01:58:18Z</time>
      </trkpt>
      <trkpt lat="44.10709" lon="6.67157">
        <ele>2366.3</ele>
        <time>2022-09-18T01:58:19Z</time>
      </trkpt>
      <trkpt lat="44.10706" lon="6.67151">
        <ele>2365.2</ele>
        <time>2022-09-18T01:58:20Z</time>
      </trkpt>
      <trkpt lat="44.10703" lon="6.67145">
        <ele>2364</ele>
        <time>2022-09-18T01:58:21Z</time>
      </trkpt>
      <trkpt lat="44.107" lon="6.6714">
        <ele>2363.1</ele>
        <time>2022-09-18T01:58:22Z</time>
      </trkpt>
      <trkpt lat="44.10697" lon="6.67135">
        <ele>2362.1</ele>
        <time>2022-09-18T01:58:23Z</time>
      </trkpt>
      <trkpt lat="44.10695" lon="6.67133">
        <ele>2361.6</ele>
        <time>2022-09-18T01:58:24Z</time>
      </trkpt>
      <trkpt lat="44.1069" lon="6.67124">
        <ele>2359.9</ele>
        <time>2022-09-18T01:58:26Z</time>
      </trkpt>
      <trkpt lat="44.10687" lon="6.67119">
        <ele>2358.9</ele>
        <time>2022-09-18T01:58:27Z</time>
      </trkpt>
      <trkpt lat="44.10684" lon="6.67114">
        <ele>2357.8</ele>
        <time>2022-09-18T01:58:28Z</time>
      </trkpt>
      <trkpt lat="44.10681" lon="6.67111">
        <ele>2356.9</ele>
        <time>2022-09-18T01:58:29Z</time>
      </trkpt>
      <trkpt lat="44.10679" lon="6.67107">
        <ele>2356.2</ele>
        <time>2022-09-18T01:58:30Z</time>
      </trkpt>
      <trkpt lat="44.10674" lon="6.67104">
        <ele>2355</ele>
        <time>2022-09-18T01:58:31Z</time>
      </trkpt>
      <trkpt lat="44.1067" lon="6.67101">
        <ele>2354</ele>
        <time>2022-09-18T01:58:32Z</time>
      </trkpt>
      <trkpt lat="44.10667" lon="6.67097">
        <ele>2353</ele>
        <time>2022-09-18T01:58:33Z</time>
      </trkpt>
      <trkpt lat="44.10664" lon="6.67093">
        <ele>2352</ele>
        <time>2022-09-18T01:58:34Z</time>
      </trkpt>
      <trkpt lat="44.10662" lon="6.6709">
        <ele>2351.5</ele>
        <time>2022-09-18T01:58:35Z</time>
      </trkpt>
      <trkpt lat="44.10659" lon="6.67086">
        <ele>2350.5</ele>
        <time>2022-09-18T01:58:36Z</time>
      </trkpt>
      <trkpt lat="44.10655" lon="6.67081">
        <ele>2349.4</ele>
        <time>2022-09-18T01:58:37Z</time>
      </trkpt>
      <trkpt lat="44.1065" lon="6.67074">
        <ele>2347.7</ele>
        <time>2022-09-18T01:58:39Z</time>
      </trkpt>
      <trkpt lat="44.10646" lon="6.6707">
        <ele>2346.7</ele>
        <time>2022-09-18T01:58:40Z</time>
      </trkpt>
      <trkpt lat="44.10642" lon="6.67066">
        <ele>2345.7</ele>
        <time>2022-09-18T01:58:41Z</time>
      </trkpt>
      <trkpt lat="44.10639" lon="6.67062">
        <ele>2344.8</ele>
        <time>2022-09-18T01:58:42Z</time>
      </trkpt>
      <trkpt lat="44.10636" lon="6.67057">
        <ele>2343.7</ele>
        <time>2022-09-18T01:58:43Z</time>
      </trkpt>
      <trkpt lat="44.10632" lon="6.67053">
        <ele>2342.8</ele>
        <time>2022-09-18T01:58:44Z</time>
      </trkpt>
      <trkpt lat="44.10628" lon="6.67048">
        <ele>2341.6</ele>
        <time>2022-09-18T01:58:45Z</time>
      </trkpt>
      <trkpt lat="44.10623" lon="6.67042">
        <ele>2340.3</ele>
        <time>2022-09-18T01:58:47Z</time>
      </trkpt>
      <trkpt lat="44.10618" lon="6.6704">
        <ele>2339.3</ele>
        <time>2022-09-18T01:58:48Z</time>
      </trkpt>
      <trkpt lat="44.10616" lon="6.67032">
        <ele>2338</ele>
        <time>2022-09-18T01:58:50Z</time>
      </trkpt>
      <trkpt lat="44.10613" lon="6.67027">
        <ele>2337</ele>
        <time>2022-09-18T01:58:51Z</time>
      </trkpt>
      <trkpt lat="44.1061" lon="6.67021">
        <ele>2335.9</ele>
        <time>2022-09-18T01:58:52Z</time>
      </trkpt>
      <trkpt lat="44.10606" lon="6.67014">
        <ele>2334.6</ele>
        <time>2022-09-18T01:58:53Z</time>
      </trkpt>
      <trkpt lat="44.10603" lon="6.67007">
        <ele>2333.4</ele>
        <time>2022-09-18T01:58:54Z</time>
      </trkpt>
      <trkpt lat="44.10601" lon="6.67002">
        <ele>2332.5</ele>
        <time>2022-09-18T01:58:55Z</time>
      </trkpt>
      <trkpt lat="44.10602" lon="6.66998">
        <ele>2331.9</ele>
        <time>2022-09-18T01:58:56Z</time>
      </trkpt>
      <trkpt lat="44.10601" lon="6.66994">
        <ele>2331.3</ele>
        <time>2022-09-18T01:58:57Z</time>
      </trkpt>
      <trkpt lat="44.10599" lon="6.66989">
        <ele>2330.5</ele>
        <time>2022-09-18T01:58:58Z</time>
      </trkpt>
      <trkpt lat="44.10599" lon="6.66982">
        <ele>2329.5</ele>
        <time>2022-09-18T01:58:59Z</time>
      </trkpt>
      <trkpt lat="44.10599" lon="6.66976">
        <ele>2328.6</ele>
        <time>2022-09-18T01:59:00Z</time>
      </trkpt>
      <trkpt lat="44.10598" lon="6.66972">
        <ele>2328.1</ele>
        <time>2022-09-18T01:59:01Z</time>
      </trkpt>
      <trkpt lat="44.10597" lon="6.66972">
        <ele>2327.9</ele>
        <time>2022-09-18T01:59:03Z</time>
      </trkpt>
      <trkpt lat="44.10596" lon="6.66973">
        <ele>2327.7</ele>
        <time>2022-09-18T01:59:04Z</time>
      </trkpt>
      <trkpt lat="44.10597" lon="6.66975">
        <ele>2327.5</ele>
        <time>2022-09-18T01:59:05Z</time>
      </trkpt>
      <trkpt lat="44.10597" lon="6.66975">
        <ele>2327.4</ele>
        <time>2022-09-18T01:59:06Z</time>
      </trkpt>
      <trkpt lat="44.10597" lon="6.66976">
        <ele>2327.3</ele>
        <time>2022-09-18T01:59:07Z</time>
      </trkpt>
      <trkpt lat="44.10598" lon="6.66976">
        <ele>2327.3</ele>
        <time>2022-09-18T01:59:08Z</time>
      </trkpt>
      <trkpt lat="44.10597" lon="6.66976">
        <ele>2327.2</ele>
        <time>2022-09-18T01:59:09Z</time>
      </trkpt>
      <trkpt lat="44.10597" lon="6.66976">
        <ele>2327.2</ele>
        <time>2022-09-18T01:59:11Z</time>
      </trkpt>
      <trkpt lat="44.10597" lon="6.66976">
        <ele>2327.2</ele>
        <time>2022-09-18T01:59:12Z</time>
      </trkpt>
      <trkpt lat="44.10597" lon="6.66976">
        <ele>2327.1</ele>
        <time>2022-09-18T01:59:13Z</time>
      </trkpt>
      <trkpt lat="44.10597" lon="6.66976">
        <ele>2327.1</ele>
        <time>2022-09-18T01:59:14Z</time>
      </trkpt>
      <trkpt lat="44.10594" lon="6.6697">
        <ele>2326.1</ele>
        <time>2022-09-18T01:59:21Z</time>
      </trkpt>
      <trkpt lat="44.10594" lon="6.66955">
        <ele>2323.8</ele>
        <time>2022-09-18T01:59:23Z</time>
      </trkpt>
      <trkpt lat="44.10594" lon="6.66947">
        <ele>2322.6</ele>
        <time>2022-09-18T01:59:24Z</time>
      </trkpt>
      <trkpt lat="44.10595" lon="6.66941">
        <ele>2321.5</ele>
        <time>2022-09-18T01:59:25Z</time>
      </trkpt>
      <trkpt lat="44.10597" lon="6.66936">
        <ele>2320.5</ele>
        <time>2022-09-18T01:59:26Z</time>
      </trkpt>
      <trkpt lat="44.10598" lon="6.66929">
        <ele>2319.5</ele>
        <time>2022-09-18T01:59:27Z</time>
      </trkpt>
      <trkpt lat="44.10597" lon="6.66927">
        <ele>2319.1</ele>
        <time>2022-09-18T01:59:29Z</time>
      </trkpt>
      <trkpt lat="44.10595" lon="6.66926">
        <ele>2318.7</ele>
        <time>2022-09-18T01:59:31Z</time>
      </trkpt>
      <trkpt lat="44.10595" lon="6.66925">
        <ele>2318.5</ele>
        <time>2022-09-18T01:59:32Z</time>
      </trkpt>
      <trkpt lat="44.10594" lon="6.66923">
        <ele>2318.3</ele>
        <time>2022-09-18T01:59:33Z</time>
      </trkpt>
      <trkpt lat="44.10594" lon="6.66922">
        <ele>2318.1</ele>
        <time>2022-09-18T01:59:34Z</time>
      </trkpt>
      <trkpt lat="44.10594" lon="6.66921">
        <ele>2317.9</ele>
        <time>2022-09-18T01:59:35Z</time>
      </trkpt>
      <trkpt lat="44.10594" lon="6.6692">
        <ele>2317.8</ele>
        <time>2022-09-18T01:59:36Z</time>
      </trkpt>
      <trkpt lat="44.10593" lon="6.66919">
        <ele>2317.6</ele>
        <time>2022-09-18T01:59:37Z</time>
      </trkpt>
      <trkpt lat="44.10593" lon="6.66918">
        <ele>2317.5</ele>
        <time>2022-09-18T01:59:38Z</time>
      </trkpt>
      <trkpt lat="44.10593" lon="6.66917">
        <ele>2317.3</ele>
        <time>2022-09-18T01:59:39Z</time>
      </trkpt>
      <trkpt lat="44.10593" lon="6.66916">
        <ele>2317.1</ele>
        <time>2022-09-18T01:59:40Z</time>
      </trkpt>
      <trkpt lat="44.10592" lon="6.66915">
        <ele>2317</ele>
        <time>2022-09-18T01:59:41Z</time>
      </trkpt>
      <trkpt lat="44.10592" lon="6.66913">
        <ele>2316.8</ele>
        <time>2022-09-18T02:00:00Z</time>
      </trkpt>
      <trkpt lat="44.10592" lon="6.66912">
        <ele>2316.7</ele>
        <time>2022-09-18T02:00:01Z</time>
      </trkpt>
      <trkpt lat="44.10591" lon="6.66906">
        <ele>2315.8</ele>
        <time>2022-09-18T02:00:02Z</time>
      </trkpt>
      <trkpt lat="44.10591" lon="6.66902">
        <ele>2315.3</ele>
        <time>2022-09-18T02:00:03Z</time>
      </trkpt>
      <trkpt lat="44.1059" lon="6.66897">
        <ele>2314.7</ele>
        <time>2022-09-18T02:00:04Z</time>
      </trkpt>
      <trkpt lat="44.10591" lon="6.66892">
        <ele>2314.1</ele>
        <time>2022-09-18T02:00:05Z</time>
      </trkpt>
      <trkpt lat="44.10594" lon="6.66886">
        <ele>2313.4</ele>
        <time>2022-09-18T02:00:06Z</time>
      </trkpt>
      <trkpt lat="44.10598" lon="6.66873">
        <ele>2311.9</ele>
        <time>2022-09-18T02:00:08Z</time>
      </trkpt>
      <trkpt lat="44.10599" lon="6.66867">
        <ele>2311.4</ele>
        <time>2022-09-18T02:00:09Z</time>
      </trkpt>
      <trkpt lat="44.10598" lon="6.66863">
        <ele>2311</ele>
        <time>2022-09-18T02:00:10Z</time>
      </trkpt>
      <trkpt lat="44.10595" lon="6.66856">
        <ele>2310.3</ele>
        <time>2022-09-18T02:00:12Z</time>
      </trkpt>
      <trkpt lat="44.10591" lon="6.66852">
        <ele>2309.8</ele>
        <time>2022-09-18T02:00:13Z</time>
      </trkpt>
      <trkpt lat="44.10587" lon="6.66848">
        <ele>2309.4</ele>
        <time>2022-09-18T02:00:14Z</time>
      </trkpt>
      <trkpt lat="44.10582" lon="6.66845">
        <ele>2308.9</ele>
        <time>2022-09-18T02:00:15Z</time>
      </trkpt>
      <trkpt lat="44.10578" lon="6.66841">
        <ele>2308.3</ele>
        <time>2022-09-18T02:00:17Z</time>
      </trkpt>
      <trkpt lat="44.10575" lon="6.66839">
        <ele>2308</ele>
        <time>2022-09-18T02:00:18Z</time>
      </trkpt>
      <trkpt lat="44.10575" lon="6.66838">
        <ele>2307.9</ele>
        <time>2022-09-18T02:00:19Z</time>
      </trkpt>
      <trkpt lat="44.10574" lon="6.66833">
        <ele>2307.5</ele>
        <time>2022-09-18T02:00:20Z</time>
      </trkpt>
      <trkpt lat="44.10574" lon="6.66831">
        <ele>2307.3</ele>
        <time>2022-09-18T02:00:21Z</time>
      </trkpt>
      <trkpt lat="44.1057" lon="6.66824">
        <ele>2306.6</ele>
        <time>2022-09-18T02:00:22Z</time>
      </trkpt>
      <trkpt lat="44.10566" lon="6.66819">
        <ele>2306</ele>
        <time>2022-09-18T02:00:23Z</time>
      </trkpt>
      <trkpt lat="44.10561" lon="6.66815">
        <ele>2305.3</ele>
        <time>2022-09-18T02:00:24Z</time>
      </trkpt>
      <trkpt lat="44.10556" lon="6.66809">
        <ele>2304.5</ele>
        <time>2022-09-18T02:00:25Z</time>
      </trkpt>
      <trkpt lat="44.10552" lon="6.66803">
        <ele>2303.7</ele>
        <time>2022-09-18T02:00:26Z</time>
      </trkpt>
      <trkpt lat="44.10549" lon="6.66799">
        <ele>2301.1</ele>
        <time>2022-09-18T02:00:27Z</time>
      </trkpt>
      <trkpt lat="44.10551" lon="6.66802">
        <ele>2302.3</ele>
        <time>2022-09-18T02:00:29Z</time>
      </trkpt>
      <trkpt lat="44.10551" lon="6.668">
        <ele>2299.6</ele>
        <time>2022-09-18T02:00:30Z</time>
      </trkpt>
      <trkpt lat="44.10551" lon="6.668">
        <ele>2298.9</ele>
        <time>2022-09-18T02:00:31Z</time>
      </trkpt>
      <trkpt lat="44.10551" lon="6.66799">
        <ele>2298.2</ele>
        <time>2022-09-18T02:00:32Z</time>
      </trkpt>
      <trkpt lat="44.10551" lon="6.66799">
        <ele>2297.5</ele>
        <time>2022-09-18T02:00:33Z</time>
      </trkpt>
      <trkpt lat="44.10551" lon="6.66798">
        <ele>2296.8</ele>
        <time>2022-09-18T02:00:34Z</time>
      </trkpt>
      <trkpt lat="44.10551" lon="6.66798">
        <ele>2296.1</ele>
        <time>2022-09-18T02:00:35Z</time>
      </trkpt>
      <trkpt lat="44.10551" lon="6.66798">
        <ele>2295.3</ele>
        <time>2022-09-18T02:00:36Z</time>
      </trkpt>
      <trkpt lat="44.10551" lon="6.66798">
        <ele>2294.6</ele>
        <time>2022-09-18T02:00:38Z</time>
      </trkpt>
      <trkpt lat="44.10552" lon="6.66799">
        <ele>2293.9</ele>
        <time>2022-09-18T02:00:54Z</time>
      </trkpt>
      <trkpt lat="44.10552" lon="6.66799">
        <ele>2293.2</ele>
        <time>2022-09-18T02:00:56Z</time>
      </trkpt>
      <trkpt lat="44.10552" lon="6.66799">
        <ele>2292.5</ele>
        <time>2022-09-18T02:00:57Z</time>
      </trkpt>
      <trkpt lat="44.10552" lon="6.66799">
        <ele>2291.8</ele>
        <time>2022-09-18T02:00:58Z</time>
      </trkpt>
      <trkpt lat="44.10552" lon="6.66799">
        <ele>2291.1</ele>
        <time>2022-09-18T02:00:59Z</time>
      </trkpt>
      <trkpt lat="44.10551" lon="6.66799">
        <ele>2290.3</ele>
        <time>2022-09-18T02:01:00Z</time>
      </trkpt>
      <trkpt lat="44.10551" lon="6.668">
        <ele>2289.6</ele>
        <time>2022-09-18T02:01:01Z</time>
      </trkpt>
      <trkpt lat="44.10551" lon="6.668">
        <ele>2288.9</ele>
        <time>2022-09-18T02:01:02Z</time>
      </trkpt>
      <trkpt lat="44.10551" lon="6.668">
        <ele>2288.2</ele>
        <time>2022-09-18T02:01:03Z</time>
      </trkpt>
      <trkpt lat="44.10551" lon="6.668">
        <ele>2287.5</ele>
        <time>2022-09-18T02:01:05Z</time>
      </trkpt>
      <trkpt lat="44.10551" lon="6.668">
        <ele>2286.8</ele>
        <time>2022-09-18T02:01:07Z</time>
      </trkpt>
      <trkpt lat="44.10555" lon="6.66801">
        <ele>2286.1</ele>
        <time>2022-09-18T02:04:08Z</time>
      </trkpt>
      <trkpt lat="44.10556" lon="6.66799">
        <ele>2285.3</ele>
        <time>2022-09-18T02:04:09Z</time>
      </trkpt>
      <trkpt lat="44.10561" lon="6.66803">
        <ele>2290.5</ele>
        <time>2022-09-18T02:04:11Z</time>
      </trkpt>
      <trkpt lat="44.10562" lon="6.66806">
        <ele>2289.8</ele>
        <time>2022-09-18T02:04:13Z</time>
      </trkpt>
      <trkpt lat="44.10561" lon="6.66808">
        <ele>2289.1</ele>
        <time>2022-09-18T02:04:14Z</time>
      </trkpt>
      <trkpt lat="44.10561" lon="6.66809">
        <ele>2288.4</ele>
        <time>2022-09-18T02:04:15Z</time>
      </trkpt>
      <trkpt lat="44.1056" lon="6.6681">
        <ele>2287.7</ele>
        <time>2022-09-18T02:04:16Z</time>
      </trkpt>
      <trkpt lat="44.10562" lon="6.66812">
        <ele>2287</ele>
        <time>2022-09-18T02:04:17Z</time>
      </trkpt>
      <trkpt lat="44.10564" lon="6.66812">
        <ele>2286.3</ele>
        <time>2022-09-18T02:04:18Z</time>
      </trkpt>
      <trkpt lat="44.10565" lon="6.66811">
        <ele>2285.5</ele>
        <time>2022-09-18T02:04:19Z</time>
      </trkpt>
      <trkpt lat="44.10567" lon="6.6681">
        <ele>2284.8</ele>
        <time>2022-09-18T02:04:21Z</time>
      </trkpt>
      <trkpt lat="44.10567" lon="6.66809">
        <ele>2284.1</ele>
        <time>2022-09-18T02:04:22Z</time>
      </trkpt>
      <trkpt lat="44.10568" lon="6.66808">
        <ele>2283.4</ele>
        <time>2022-09-18T02:04:23Z</time>
      </trkpt>
      <trkpt lat="44.10569" lon="6.66805">
        <ele>2282.7</ele>
        <time>2022-09-18T02:04:24Z</time>
      </trkpt>
      <trkpt lat="44.1057" lon="6.66803">
        <ele>2282</ele>
        <time>2022-09-18T02:04:25Z</time>
      </trkpt>
      <trkpt lat="44.10573" lon="6.668">
        <ele>2281.7</ele>
        <time>2022-09-18T02:04:26Z</time>
      </trkpt>
      <trkpt lat="44.1058" lon="6.66794">
        <ele>2281</ele>
        <time>2022-09-18T02:04:28Z</time>
      </trkpt>
      <trkpt lat="44.10585" lon="6.66792">
        <ele>2283.6</ele>
        <time>2022-09-18T02:04:30Z</time>
      </trkpt>
      <trkpt lat="44.10588" lon="6.6679">
        <ele>2282.9</ele>
        <time>2022-09-18T02:04:31Z</time>
      </trkpt>
      <trkpt lat="44.10591" lon="6.66789">
        <ele>2282.2</ele>
        <time>2022-09-18T02:04:32Z</time>
      </trkpt>
      <trkpt lat="44.10592" lon="6.66789">
        <ele>2282.2</ele>
        <time>2022-09-18T02:04:33Z</time>
      </trkpt>
      <trkpt lat="44.10594" lon="6.66787">
        <ele>2282.2</ele>
        <time>2022-09-18T02:04:34Z</time>
      </trkpt>
      <trkpt lat="44.10597" lon="6.66787">
        <ele>2282.2</ele>
        <time>2022-09-18T02:04:35Z</time>
      </trkpt>
      <trkpt lat="44.10599" lon="6.66786">
        <ele>2282.3</ele>
        <time>2022-09-18T02:04:37Z</time>
      </trkpt>
      <trkpt lat="44.10602" lon="6.66786">
        <ele>2282.3</ele>
        <time>2022-09-18T02:04:38Z</time>
      </trkpt>
      <trkpt lat="44.10603" lon="6.66786">
        <ele>2282.3</ele>
        <time>2022-09-18T02:04:39Z</time>
      </trkpt>
      <trkpt lat="44.10606" lon="6.66784">
        <ele>2282.3</ele>
        <time>2022-09-18T02:04:41Z</time>
      </trkpt>
      <trkpt lat="44.10607" lon="6.66784">
        <ele>2282.3</ele>
        <time>2022-09-18T02:04:42Z</time>
      </trkpt>
      <trkpt lat="44.10608" lon="6.66782">
        <ele>2282.3</ele>
        <time>2022-09-18T02:04:43Z</time>
      </trkpt>
      <trkpt lat="44.10609" lon="6.66782">
        <ele>2282.3</ele>
        <time>2022-09-18T02:04:44Z</time>
      </trkpt>
      <trkpt lat="44.10611" lon="6.66782">
        <ele>2282.3</ele>
        <time>2022-09-18T02:04:45Z</time>
      </trkpt>
      <trkpt lat="44.10612" lon="6.66781">
        <ele>2282.3</ele>
        <time>2022-09-18T02:04:46Z</time>
      </trkpt>
      <trkpt lat="44.10613" lon="6.6678">
        <ele>2282.3</ele>
        <time>2022-09-18T02:04:48Z</time>
      </trkpt>
      <trkpt lat="44.10614" lon="6.66779">
        <ele>2282.3</ele>
        <time>2022-09-18T02:04:49Z</time>
      </trkpt>
      <trkpt lat="44.10615" lon="6.66778">
        <ele>2282.3</ele>
        <time>2022-09-18T02:04:51Z</time>
      </trkpt>
      <trkpt lat="44.10616" lon="6.66777">
        <ele>2282.3</ele>
        <time>2022-09-18T02:04:52Z</time>
      </trkpt>
      <trkpt lat="44.10617" lon="6.66776">
        <ele>2282.3</ele>
        <time>2022-09-18T02:04:54Z</time>
      </trkpt>
      <trkpt lat="44.10618" lon="6.66775">
        <ele>2282.4</ele>
        <time>2022-09-18T02:04:55Z</time>
      </trkpt>
      <trkpt lat="44.10619" lon="6.66774">
        <ele>2282.4</ele>
        <time>2022-09-18T02:04:56Z</time>
      </trkpt>
      <trkpt lat="44.10622" lon="6.66772">
        <ele>2282.4</ele>
        <time>2022-09-18T02:04:58Z</time>
      </trkpt>
      <trkpt lat="44.10625" lon="6.6677">
        <ele>2282.4</ele>
        <time>2022-09-18T02:04:59Z</time>
      </trkpt>
      <trkpt lat="44.10626" lon="6.66769">
        <ele>2282.5</ele>
        <time>2022-09-18T02:05:00Z</time>
      </trkpt>
      <trkpt lat="44.10627" lon="6.66767">
        <ele>2282.5</ele>
        <time>2022-09-18T02:05:02Z</time>
      </trkpt>
      <trkpt lat="44.10628" lon="6.66766">
        <ele>2282.5</ele>
        <time>2022-09-18T02:05:03Z</time>
      </trkpt>
      <trkpt lat="44.10629" lon="6.66765">
        <ele>2282.5</ele>
        <time>2022-09-18T02:05:05Z</time>
      </trkpt>
      <trkpt lat="44.10629" lon="6.66765">
        <ele>2282.5</ele>
        <time>2022-09-18T02:05:06Z</time>
      </trkpt>
      <trkpt lat="44.10631" lon="6.66764">
        <ele>2282.5</ele>
        <time>2022-09-18T02:05:07Z</time>
      </trkpt>
      <trkpt lat="44.10633" lon="6.66763">
        <ele>2282.6</ele>
        <time>2022-09-18T02:05:08Z</time>
      </trkpt>
      <trkpt lat="44.10634" lon="6.66763">
        <ele>2282.6</ele>
        <time>2022-09-18T02:05:09Z</time>
      </trkpt>
      <trkpt lat="44.10636" lon="6.66763">
        <ele>2282.6</ele>
        <time>2022-09-18T02:05:10Z</time>
      </trkpt>
      <trkpt lat="44.10638" lon="6.66763">
        <ele>2282.7</ele>
        <time>2022-09-18T02:05:11Z</time>
      </trkpt>
      <trkpt lat="44.1064" lon="6.66763">
        <ele>2282.7</ele>
        <time>2022-09-18T02:05:13Z</time>
      </trkpt>
      <trkpt lat="44.10643" lon="6.66763">
        <ele>2282.7</ele>
        <time>2022-09-18T02:05:15Z</time>
      </trkpt>
      <trkpt lat="44.10646" lon="6.66762">
        <ele>2282.8</ele>
        <time>2022-09-18T02:05:16Z</time>
      </trkpt>
      <trkpt lat="44.10651" lon="6.6676">
        <ele>2282.9</ele>
        <time>2022-09-18T02:05:18Z</time>
      </trkpt>
      <trkpt lat="44.10653" lon="6.6676">
        <ele>2282.9</ele>
        <time>2022-09-18T02:05:19Z</time>
      </trkpt>
      <trkpt lat="44.10655" lon="6.6676">
        <ele>2282.9</ele>
        <time>2022-09-18T02:05:20Z</time>
      </trkpt>
      <trkpt lat="44.10657" lon="6.66759">
        <ele>2282.9</ele>
        <time>2022-09-18T02:05:21Z</time>
      </trkpt>
      <trkpt lat="44.10661" lon="6.66759">
        <ele>2283</ele>
        <time>2022-09-18T02:05:22Z</time>
      </trkpt>
      <trkpt lat="44.10663" lon="6.66759">
        <ele>2283</ele>
        <time>2022-09-18T02:05:23Z</time>
      </trkpt>
      <trkpt lat="44.10665" lon="6.66759">
        <ele>2283</ele>
        <time>2022-09-18T02:05:24Z</time>
      </trkpt>
      <trkpt lat="44.10667" lon="6.6676">
        <ele>2283</ele>
        <time>2022-09-18T02:05:26Z</time>
      </trkpt>
      <trkpt lat="44.10668" lon="6.6676">
        <ele>2283</ele>
        <time>2022-09-18T02:05:27Z</time>
      </trkpt>
      <trkpt lat="44.10669" lon="6.6676">
        <ele>2283.1</ele>
        <time>2022-09-18T02:05:28Z</time>
      </trkpt>
      <trkpt lat="44.10668" lon="6.6676">
        <ele>2283.1</ele>
        <time>2022-09-18T02:05:29Z</time>
      </trkpt>
      <trkpt lat="44.10668" lon="6.6676">
        <ele>2283.1</ele>
        <time>2022-09-18T02:05:30Z</time>
      </trkpt>
      <trkpt lat="44.10668" lon="6.6676">
        <ele>2283.1</ele>
        <time>2022-09-18T02:05:31Z</time>
      </trkpt>
      <trkpt lat="44.10668" lon="6.66759">
        <ele>2283.1</ele>
        <time>2022-09-18T02:05:32Z</time>
      </trkpt>
      <trkpt lat="44.10667" lon="6.66759">
        <ele>2283.1</ele>
        <time>2022-09-18T02:05:33Z</time>
      </trkpt>
      <trkpt lat="44.10667" lon="6.66759">
        <ele>2283.1</ele>
        <time>2022-09-18T02:05:34Z</time>
      </trkpt>
      <trkpt lat="44.10667" lon="6.66759">
        <ele>2283.1</ele>
        <time>2022-09-18T02:05:35Z</time>
      </trkpt>
      <trkpt lat="44.10667" lon="6.66759">
        <ele>2283.1</ele>
        <time>2022-09-18T02:05:36Z</time>
      </trkpt>
      <trkpt lat="44.10667" lon="6.66759">
        <ele>2283.1</ele>
        <time>2022-09-18T02:05:37Z</time>
      </trkpt>
      <trkpt lat="44.10667" lon="6.66759">
        <ele>2283.1</ele>
        <time>2022-09-18T02:05:38Z</time>
      </trkpt>
      <trkpt lat="44.10667" lon="6.66759">
        <ele>2283.1</ele>
        <time>2022-09-18T02:05:39Z</time>
      </trkpt>
      <trkpt lat="44.10667" lon="6.66759">
        <ele>2283.1</ele>
        <time>2022-09-18T02:05:40Z</time>
      </trkpt>
      <trkpt lat="44.10667" lon="6.66759">
        <ele>2283.1</ele>
        <time>2022-09-18T02:05:41Z</time>
      </trkpt>
      <trkpt lat="44.10667" lon="6.66759">
        <ele>2283.1</ele>
        <time>2022-09-18T02:05:42Z</time>
      </trkpt>
      <trkpt lat="44.10667" lon="6.66758">
        <ele>2283.1</ele>
        <time>2022-09-18T02:05:44Z</time>
      </trkpt>
      <trkpt lat="44.10668" lon="6.66754">
        <ele>2283.2</ele>
        <time>2022-09-18T02:05:46Z</time>
      </trkpt>
      <trkpt lat="44.10667" lon="6.66749">
        <ele>2283.3</ele>
        <time>2022-09-18T02:05:47Z</time>
      </trkpt>
      <trkpt lat="44.10666" lon="6.66743">
        <ele>2283.5</ele>
        <time>2022-09-18T02:05:48Z</time>
      </trkpt>
      <trkpt lat="44.10666" lon="6.66739">
        <ele>2283.6</ele>
        <time>2022-09-18T02:05:50Z</time>
      </trkpt>
      <trkpt lat="44.10665" lon="6.66735">
        <ele>2283.7</ele>
        <time>2022-09-18T02:05:51Z</time>
      </trkpt>
      <trkpt lat="44.10665" lon="6.6673">
        <ele>2283.9</ele>
        <time>2022-09-18T02:05:52Z</time>
      </trkpt>
      <trkpt lat="44.10665" lon="6.66728">
        <ele>2283.9</ele>
        <time>2022-09-18T02:05:53Z</time>
      </trkpt>
      <trkpt lat="44.10664" lon="6.66725">
        <ele>2284</ele>
        <time>2022-09-18T02:05:54Z</time>
      </trkpt>
      <trkpt lat="44.10663" lon="6.6672">
        <ele>2284.1</ele>
        <time>2022-09-18T02:05:56Z</time>
      </trkpt>
      <trkpt lat="44.10661" lon="6.66717">
        <ele>2284.3</ele>
        <time>2022-09-18T02:05:57Z</time>
      </trkpt>
      <trkpt lat="44.1066" lon="6.66716">
        <ele>2284.3</ele>
        <time>2022-09-18T02:05:58Z</time>
      </trkpt>
      <trkpt lat="44.1066" lon="6.66715">
        <ele>2284.3</ele>
        <time>2022-09-18T02:05:59Z</time>
      </trkpt>
      <trkpt lat="44.1066" lon="6.66716">
        <ele>2284.3</ele>
        <time>2022-09-18T02:06:00Z</time>
      </trkpt>
      <trkpt lat="44.10659" lon="6.66716">
        <ele>2284.4</ele>
        <time>2022-09-18T02:06:01Z</time>
      </trkpt>
      <trkpt lat="44.10659" lon="6.66715">
        <ele>2284.4</ele>
        <time>2022-09-18T02:06:03Z</time>
      </trkpt>
      <trkpt lat="44.10659" lon="6.66714">
        <ele>2284.4</ele>
        <time>2022-09-18T02:06:04Z</time>
      </trkpt>
      <trkpt lat="44.1066" lon="6.66712">
        <ele>2284.5</ele>
        <time>2022-09-18T02:06:05Z</time>
      </trkpt>
      <trkpt lat="44.1066" lon="6.66712">
        <ele>2284.5</ele>
        <time>2022-09-18T02:06:06Z</time>
      </trkpt>
      <trkpt lat="44.10662" lon="6.66713">
        <ele>2284.6</ele>
        <time>2022-09-18T02:06:07Z</time>
      </trkpt>
      <trkpt lat="44.10665" lon="6.66712">
        <ele>2284.7</ele>
        <time>2022-09-18T02:06:08Z</time>
      </trkpt>
      <trkpt lat="44.10669" lon="6.66711">
        <ele>2284.8</ele>
        <time>2022-09-18T02:06:09Z</time>
      </trkpt>
      <trkpt lat="44.1067" lon="6.66711">
        <ele>2284.8</ele>
        <time>2022-09-18T02:06:10Z</time>
      </trkpt>
      <trkpt lat="44.10677" lon="6.66713">
        <ele>2285</ele>
        <time>2022-09-18T02:06:11Z</time>
      </trkpt>
      <trkpt lat="44.10681" lon="6.66713">
        <ele>2285.2</ele>
        <time>2022-09-18T02:06:13Z</time>
      </trkpt>
      <trkpt lat="44.10684" lon="6.66714">
        <ele>2285.3</ele>
        <time>2022-09-18T02:06:14Z</time>
      </trkpt>
      <trkpt lat="44.10689" lon="6.66714">
        <ele>2285.5</ele>
        <time>2022-09-18T02:06:15Z</time>
      </trkpt>
      <trkpt lat="44.10692" lon="6.66715">
        <ele>2285.5</ele>
        <time>2022-09-18T02:06:16Z</time>
      </trkpt>
      <trkpt lat="44.10697" lon="6.66718">
        <ele>2285.6</ele>
        <time>2022-09-18T02:06:18Z</time>
      </trkpt>
      <trkpt lat="44.107" lon="6.66719">
        <ele>2285.7</ele>
        <time>2022-09-18T02:06:19Z</time>
      </trkpt>
      <trkpt lat="44.10703" lon="6.6672">
        <ele>2285.7</ele>
        <time>2022-09-18T02:06:20Z</time>
      </trkpt>
      <trkpt lat="44.10706" lon="6.66721">
        <ele>2285.7</ele>
        <time>2022-09-18T02:06:21Z</time>
      </trkpt>
      <trkpt lat="44.10709" lon="6.66723">
        <ele>2285.8</ele>
        <time>2022-09-18T02:06:22Z</time>
      </trkpt>
      <trkpt lat="44.10713" lon="6.66725">
        <ele>2285.8</ele>
        <time>2022-09-18T02:06:23Z</time>
      </trkpt>
      <trkpt lat="44.10716" lon="6.66727">
        <ele>2285.8</ele>
        <time>2022-09-18T02:06:24Z</time>
      </trkpt>
      <trkpt lat="44.10719" lon="6.6673">
        <ele>2285.8</ele>
        <time>2022-09-18T02:06:26Z</time>
      </trkpt>
      <trkpt lat="44.10721" lon="6.66733">
        <ele>2285.8</ele>
        <time>2022-09-18T02:06:27Z</time>
      </trkpt>
      <trkpt lat="44.10724" lon="6.66734">
        <ele>2285.8</ele>
        <time>2022-09-18T02:06:28Z</time>
      </trkpt>
      <trkpt lat="44.10727" lon="6.6673">
        <ele>2285.9</ele>
        <time>2022-09-18T02:06:30Z</time>
      </trkpt>
      <trkpt lat="44.10728" lon="6.66729">
        <ele>2285.9</ele>
        <time>2022-09-18T02:06:31Z</time>
      </trkpt>
      <trkpt lat="44.10732" lon="6.66726">
        <ele>2285.9</ele>
        <time>2022-09-18T02:06:32Z</time>
      </trkpt>
      <trkpt lat="44.10735" lon="6.66724">
        <ele>2286</ele>
        <time>2022-09-18T02:06:33Z</time>
      </trkpt>
      <trkpt lat="44.10739" lon="6.66722">
        <ele>2286.1</ele>
        <time>2022-09-18T02:06:34Z</time>
      </trkpt>
      <trkpt lat="44.10742" lon="6.66719">
        <ele>2286.1</ele>
        <time>2022-09-18T02:06:35Z</time>
      </trkpt>
      <trkpt lat="44.10746" lon="6.66716">
        <ele>2286.2</ele>
        <time>2022-09-18T02:06:36Z</time>
      </trkpt>
      <trkpt lat="44.10752" lon="6.66714">
        <ele>2286.3</ele>
        <time>2022-09-18T02:06:38Z</time>
      </trkpt>
      <trkpt lat="44.10755" lon="6.66713">
        <ele>2286.4</ele>
        <time>2022-09-18T02:06:39Z</time>
      </trkpt>
      <trkpt lat="44.10759" lon="6.66712">
        <ele>2286.4</ele>
        <time>2022-09-18T02:06:41Z</time>
      </trkpt>
      <trkpt lat="44.10762" lon="6.66711">
        <ele>2286.5</ele>
        <time>2022-09-18T02:06:42Z</time>
      </trkpt>
      <trkpt lat="44.10767" lon="6.66711">
        <ele>2286.6</ele>
        <time>2022-09-18T02:06:43Z</time>
      </trkpt>
      <trkpt lat="44.1077" lon="6.66709">
        <ele>2286.7</ele>
        <time>2022-09-18T02:06:44Z</time>
      </trkpt>
      <trkpt lat="44.10774" lon="6.66707">
        <ele>2286.8</ele>
        <time>2022-09-18T02:06:45Z</time>
      </trkpt>
      <trkpt lat="44.10777" lon="6.66705">
        <ele>2286.8</ele>
        <time>2022-09-18T02:06:46Z</time>
      </trkpt>
      <trkpt lat="44.10781" lon="6.66703">
        <ele>2286.9</ele>
        <time>2022-09-18T02:06:47Z</time>
      </trkpt>
      <trkpt lat="44.10786" lon="6.66701">
        <ele>2287.1</ele>
        <time>2022-09-18T02:06:49Z</time>
      </trkpt>
      <trkpt lat="44.10789" lon="6.667">
        <ele>2287.2</ele>
        <time>2022-09-18T02:06:50Z</time>
      </trkpt>
      <trkpt lat="44.10794" lon="6.66699">
        <ele>2287.3</ele>
        <time>2022-09-18T02:06:52Z</time>
      </trkpt>
      <trkpt lat="44.10796" lon="6.66695">
        <ele>2287.4</ele>
        <time>2022-09-18T02:06:53Z</time>
      </trkpt>
      <trkpt lat="44.10797" lon="6.66694">
        <ele>2287.4</ele>
        <time>2022-09-18T02:06:54Z</time>
      </trkpt>
      <trkpt lat="44.10799" lon="6.66691">
        <ele>2287.5</ele>
        <time>2022-09-18T02:06:55Z</time>
      </trkpt>
      <trkpt lat="44.108" lon="6.66687">
        <ele>2287.6</ele>
        <time>2022-09-18T02:06:56Z</time>
      </trkpt>
      <trkpt lat="44.10802" lon="6.66683">
        <ele>2287.7</ele>
        <time>2022-09-18T02:06:57Z</time>
      </trkpt>
      <trkpt lat="44.10804" lon="6.66681">
        <ele>2287.9</ele>
        <time>2022-09-18T02:06:58Z</time>
      </trkpt>
      <trkpt lat="44.10808" lon="6.66679">
        <ele>2288</ele>
        <time>2022-09-18T02:06:59Z</time>
      </trkpt>
      <trkpt lat="44.10811" lon="6.66678">
        <ele>2288.1</ele>
        <time>2022-09-18T02:07:00Z</time>
      </trkpt>
      <trkpt lat="44.10815" lon="6.66677">
        <ele>2288.2</ele>
        <time>2022-09-18T02:07:01Z</time>
      </trkpt>
      <trkpt lat="44.1082" lon="6.66673">
        <ele>2288.4</ele>
        <time>2022-09-18T02:07:02Z</time>
      </trkpt>
      <trkpt lat="44.10823" lon="6.6667">
        <ele>2288.5</ele>
        <time>2022-09-18T02:07:04Z</time>
      </trkpt>
      <trkpt lat="44.10826" lon="6.66666">
        <ele>2288.6</ele>
        <time>2022-09-18T02:07:05Z</time>
      </trkpt>
      <trkpt lat="44.10829" lon="6.66663">
        <ele>2288.7</ele>
        <time>2022-09-18T02:07:06Z</time>
      </trkpt>
      <trkpt lat="44.10832" lon="6.66659">
        <ele>2288.8</ele>
        <time>2022-09-18T02:07:07Z</time>
      </trkpt>
      <trkpt lat="44.10835" lon="6.66656">
        <ele>2288.8</ele>
        <time>2022-09-18T02:07:08Z</time>
      </trkpt>
      <trkpt lat="44.10839" lon="6.66653">
        <ele>2288.9</ele>
        <time>2022-09-18T02:07:09Z</time>
      </trkpt>
      <trkpt lat="44.10843" lon="6.66649">
        <ele>2288.9</ele>
        <time>2022-09-18T02:07:11Z</time>
      </trkpt>
      <trkpt lat="44.10846" lon="6.66647">
        <ele>2288.9</ele>
        <time>2022-09-18T02:07:12Z</time>
      </trkpt>
      <trkpt lat="44.1085" lon="6.66644">
        <ele>2289</ele>
        <time>2022-09-18T02:07:13Z</time>
      </trkpt>
      <trkpt lat="44.10853" lon="6.6664">
        <ele>2289.1</ele>
        <time>2022-09-18T02:07:14Z</time>
      </trkpt>
      <trkpt lat="44.10857" lon="6.66636">
        <ele>2289.2</ele>
        <time>2022-09-18T02:07:15Z</time>
      </trkpt>
      <trkpt lat="44.10861" lon="6.66632">
        <ele>2289.3</ele>
        <time>2022-09-18T02:07:16Z</time>
      </trkpt>
      <trkpt lat="44.10864" lon="6.66629">
        <ele>2289.4</ele>
        <time>2022-09-18T02:07:17Z</time>
      </trkpt>
      <trkpt lat="44.10867" lon="6.66625">
        <ele>2289.4</ele>
        <time>2022-09-18T02:07:19Z</time>
      </trkpt>
      <trkpt lat="44.1087" lon="6.66622">
        <ele>2289.4</ele>
        <time>2022-09-18T02:07:20Z</time>
      </trkpt>
      <trkpt lat="44.10873" lon="6.66619">
        <ele>2289.4</ele>
        <time>2022-09-18T02:07:21Z</time>
      </trkpt>
      <trkpt lat="44.10876" lon="6.66616">
        <ele>2289.4</ele>
        <time>2022-09-18T02:07:22Z</time>
      </trkpt>
      <trkpt lat="44.10879" lon="6.66614">
        <ele>2289.4</ele>
        <time>2022-09-18T02:07:23Z</time>
      </trkpt>
      <trkpt lat="44.10885" lon="6.6661">
        <ele>2289.3</ele>
        <time>2022-09-18T02:07:24Z</time>
      </trkpt>
      <trkpt lat="44.1089" lon="6.66608">
        <ele>2289.3</ele>
        <time>2022-09-18T02:07:26Z</time>
      </trkpt>
      <trkpt lat="44.10894" lon="6.66606">
        <ele>2289.2</ele>
        <time>2022-09-18T02:07:27Z</time>
      </trkpt>
      <trkpt lat="44.10898" lon="6.66603">
        <ele>2289.2</ele>
        <time>2022-09-18T02:07:29Z</time>
      </trkpt>
      <trkpt lat="44.10901" lon="6.66603">
        <ele>2289.2</ele>
        <time>2022-09-18T02:07:30Z</time>
      </trkpt>
      <trkpt lat="44.10904" lon="6.66604">
        <ele>2289.2</ele>
        <time>2022-09-18T02:07:31Z</time>
      </trkpt>
      <trkpt lat="44.10905" lon="6.66604">
        <ele>2289.2</ele>
        <time>2022-09-18T02:07:32Z</time>
      </trkpt>
      <trkpt lat="44.10905" lon="6.66605">
        <ele>2289.2</ele>
        <time>2022-09-18T02:07:33Z</time>
      </trkpt>
      <trkpt lat="44.10905" lon="6.66605">
        <ele>2289.2</ele>
        <time>2022-09-18T02:07:34Z</time>
      </trkpt>
      <trkpt lat="44.10905" lon="6.66605">
        <ele>2289.2</ele>
        <time>2022-09-18T02:07:35Z</time>
      </trkpt>
      <trkpt lat="44.10904" lon="6.66605">
        <ele>2289.2</ele>
        <time>2022-09-18T02:07:36Z</time>
      </trkpt>
      <trkpt lat="44.10904" lon="6.66605">
        <ele>2289.2</ele>
        <time>2022-09-18T02:07:37Z</time>
      </trkpt>
      <trkpt lat="44.10904" lon="6.66604">
        <ele>2289.2</ele>
        <time>2022-09-18T02:07:39Z</time>
      </trkpt>
      <trkpt lat="44.10904" lon="6.66604">
        <ele>2289.2</ele>
        <time>2022-09-18T02:07:40Z</time>
      </trkpt>
      <trkpt lat="44.10904" lon="6.66604">
        <ele>2289.2</ele>
        <time>2022-09-18T02:07:41Z</time>
      </trkpt>
      <trkpt lat="44.10904" lon="6.66604">
        <ele>2289.2</ele>
        <time>2022-09-18T02:07:42Z</time>
      </trkpt>
      <trkpt lat="44.10904" lon="6.66604">
        <ele>2289.2</ele>
        <time>2022-09-18T02:07:45Z</time>
      </trkpt>
      <trkpt lat="44.10899" lon="6.666">
        <ele>2289.2</ele>
        <time>2022-09-18T02:08:21Z</time>
      </trkpt>
      <trkpt lat="44.10899" lon="6.66601">
        <ele>2289.2</ele>
        <time>2022-09-18T02:08:22Z</time>
      </trkpt>
      <trkpt lat="44.10898" lon="6.66601">
        <ele>2289.2</ele>
        <time>2022-09-18T02:08:23Z</time>
      </trkpt>
      <trkpt lat="44.10898" lon="6.66602">
        <ele>2289.2</ele>
        <time>2022-09-18T02:08:24Z</time>
      </trkpt>
      <trkpt lat="44.10898" lon="6.66602">
        <ele>2289.2</ele>
        <time>2022-09-18T02:08:25Z</time>
      </trkpt>
      <trkpt lat="44.10897" lon="6.66602">
        <ele>2289.2</ele>
        <time>2022-09-18T02:08:26Z</time>
      </trkpt>
      <trkpt lat="44.10897" lon="6.66603">
        <ele>2289.2</ele>
        <time>2022-09-18T02:08:27Z</time>
      </trkpt>
      <trkpt lat="44.10897" lon="6.66603">
        <ele>2289.2</ele>
        <time>2022-09-18T02:08:28Z</time>
      </trkpt>
      <trkpt lat="44.10897" lon="6.66603">
        <ele>2289.2</ele>
        <time>2022-09-18T02:08:29Z</time>
      </trkpt>
      <trkpt lat="44.10897" lon="6.66603">
        <ele>2289.2</ele>
        <time>2022-09-18T02:08:30Z</time>
      </trkpt>
      <trkpt lat="44.10897" lon="6.66603">
        <ele>2289.2</ele>
        <time>2022-09-18T02:08:31Z</time>
      </trkpt>
      <trkpt lat="44.10897" lon="6.66603">
        <ele>2289.2</ele>
        <time>2022-09-18T02:08:32Z</time>
      </trkpt>
      <trkpt lat="44.10895" lon="6.66605">
        <ele>2289.2</ele>
        <time>2022-09-18T02:08:54Z</time>
      </trkpt>
      <trkpt lat="44.10895" lon="6.66605">
        <ele>2289.2</ele>
        <time>2022-09-18T02:08:55Z</time>
      </trkpt>
      <trkpt lat="44.10894" lon="6.66606">
        <ele>2289.2</ele>
        <time>2022-09-18T02:08:58Z</time>
      </trkpt>
      <trkpt lat="44.10894" lon="6.66606">
        <ele>2289.2</ele>
        <time>2022-09-18T02:08:59Z</time>
      </trkpt>
      <trkpt lat="44.10894" lon="6.66606">
        <ele>2289.2</ele>
        <time>2022-09-18T02:09:00Z</time>
      </trkpt>
      <trkpt lat="44.10894" lon="6.66606">
        <ele>2289.2</ele>
        <time>2022-09-18T02:09:01Z</time>
      </trkpt>
      <trkpt lat="44.10893" lon="6.66606">
        <ele>2289.2</ele>
        <time>2022-09-18T02:09:02Z</time>
      </trkpt>
      <trkpt lat="44.10893" lon="6.66606">
        <ele>2289.1</ele>
        <time>2022-09-18T02:09:03Z</time>
      </trkpt>
      <trkpt lat="44.10893" lon="6.66606">
        <ele>2289.1</ele>
        <time>2022-09-18T02:09:04Z</time>
      </trkpt>
      <trkpt lat="44.10893" lon="6.66606">
        <ele>2289.1</ele>
        <time>2022-09-18T02:09:05Z</time>
      </trkpt>
      <trkpt lat="44.10898" lon="6.66609">
        <ele>2289.1</ele>
        <time>2022-09-18T02:09:52Z</time>
      </trkpt>
      <trkpt lat="44.10899" lon="6.66609">
        <ele>2289.1</ele>
        <time>2022-09-18T02:09:53Z</time>
      </trkpt>
      <trkpt lat="44.10902" lon="6.66608">
        <ele>2289</ele>
        <time>2022-09-18T02:09:55Z</time>
      </trkpt>
      <trkpt lat="44.10904" lon="6.66608">
        <ele>2289</ele>
        <time>2022-09-18T02:09:57Z</time>
      </trkpt>
      <trkpt lat="44.10905" lon="6.6661">
        <ele>2289</ele>
        <time>2022-09-18T02:09:58Z</time>
      </trkpt>
      <trkpt lat="44.10906" lon="6.66611">
        <ele>2289</ele>
        <time>2022-09-18T02:09:59Z</time>
      </trkpt>
      <trkpt lat="44.10908" lon="6.66612">
        <ele>2289</ele>
        <time>2022-09-18T02:10:01Z</time>
      </trkpt>
      <trkpt lat="44.1091" lon="6.66613">
        <ele>2289</ele>
        <time>2022-09-18T02:10:02Z</time>
      </trkpt>
      <trkpt lat="44.10911" lon="6.66616">
        <ele>2288.9</ele>
        <time>2022-09-18T02:10:04Z</time>
      </trkpt>
      <trkpt lat="44.10914" lon="6.66619">
        <ele>2288.9</ele>
        <time>2022-09-18T02:10:05Z</time>
      </trkpt>
      <trkpt lat="44.10915" lon="6.66621">
        <ele>2288.9</ele>
        <time>2022-09-18T02:10:06Z</time>
      </trkpt>
      <trkpt lat="44.10917" lon="6.66623">
        <ele>2288.9</ele>
        <time>2022-09-18T02:10:07Z</time>
      </trkpt>
      <trkpt lat="44.10921" lon="6.66628">
        <ele>2288.8</ele>
        <time>2022-09-18T02:10:09Z</time>
      </trkpt>
      <trkpt lat="44.10923" lon="6.66631">
        <ele>2288.8</ele>
        <time>2022-09-18T02:10:11Z</time>
      </trkpt>
      <trkpt lat="44.10924" lon="6.66635">
        <ele>2288.8</ele>
        <time>2022-09-18T02:10:12Z</time>
      </trkpt>
      <trkpt lat="44.10925" lon="6.66636">
        <ele>2288.8</ele>
        <time>2022-09-18T02:10:13Z</time>
      </trkpt>
      <trkpt lat="44.10925" lon="6.66638">
        <ele>2288.8</ele>
        <time>2022-09-18T02:10:14Z</time>
      </trkpt>
      <trkpt lat="44.10925" lon="6.66638">
        <ele>2288.8</ele>
        <time>2022-09-18T02:10:15Z</time>
      </trkpt>
      <trkpt lat="44.10925" lon="6.66639">
        <ele>2288.8</ele>
        <time>2022-09-18T02:10:16Z</time>
      </trkpt>
      <trkpt lat="44.10925" lon="6.66639">
        <ele>2288.8</ele>
        <time>2022-09-18T02:10:17Z</time>
      </trkpt>
      <trkpt lat="44.10925" lon="6.6664">
        <ele>2288.8</ele>
        <time>2022-09-18T02:10:18Z</time>
      </trkpt>
      <trkpt lat="44.10925" lon="6.66641">
        <ele>2288.8</ele>
        <time>2022-09-18T02:10:19Z</time>
      </trkpt>
      <trkpt lat="44.10925" lon="6.66641">
        <ele>2288.8</ele>
        <time>2022-09-18T02:10:20Z</time>
      </trkpt>
      <trkpt lat="44.10926" lon="6.66642">
        <ele>2288.8</ele>
        <time>2022-09-18T02:10:22Z</time>
      </trkpt>
      <trkpt lat="44.10926" lon="6.66642">
        <ele>2288.8</ele>
        <time>2022-09-18T02:10:23Z</time>
      </trkpt>
      <trkpt lat="44.10926" lon="6.66643">
        <ele>2288.8</ele>
        <time>2022-09-18T02:10:24Z</time>
      </trkpt>
      <trkpt lat="44.10926" lon="6.66644">
        <ele>2288.8</ele>
        <time>2022-09-18T02:10:25Z</time>
      </trkpt>
      <trkpt lat="44.10926" lon="6.66644">
        <ele>2288.8</ele>
        <time>2022-09-18T02:10:26Z</time>
      </trkpt>
      <trkpt lat="44.10926" lon="6.66645">
        <ele>2288.8</ele>
        <time>2022-09-18T02:10:42Z</time>
      </trkpt>
      <trkpt lat="44.10926" lon="6.66645">
        <ele>2288.8</ele>
        <time>2022-09-18T02:10:43Z</time>
      </trkpt>
      <trkpt lat="44.10926" lon="6.66646">
        <ele>2288.8</ele>
        <time>2022-09-18T02:10:44Z</time>
      </trkpt>
      <trkpt lat="44.10926" lon="6.66652">
        <ele>2288.8</ele>
        <time>2022-09-18T02:10:45Z</time>
      </trkpt>
      <trkpt lat="44.10926" lon="6.66654">
        <ele>2288.7</ele>
        <time>2022-09-18T02:10:46Z</time>
      </trkpt>
      <trkpt lat="44.10926" lon="6.6666">
        <ele>2288.7</ele>
        <time>2022-09-18T02:10:47Z</time>
      </trkpt>
      <trkpt lat="44.10927" lon="6.66665">
        <ele>2288.7</ele>
        <time>2022-09-18T02:10:48Z</time>
      </trkpt>
      <trkpt lat="44.10927" lon="6.66671">
        <ele>2288.7</ele>
        <time>2022-09-18T02:10:49Z</time>
      </trkpt>
      <trkpt lat="44.10928" lon="6.66678">
        <ele>2288.7</ele>
        <time>2022-09-18T02:10:50Z</time>
      </trkpt>
      <trkpt lat="44.10929" lon="6.66686">
        <ele>2288.7</ele>
        <time>2022-09-18T02:10:52Z</time>
      </trkpt>
      <trkpt lat="44.1093" lon="6.66692">
        <ele>2288.6</ele>
        <time>2022-09-18T02:10:53Z</time>
      </trkpt>
      <trkpt lat="44.10931" lon="6.66697">
        <ele>2288.6</ele>
        <time>2022-09-18T02:10:54Z</time>
      </trkpt>
      <trkpt lat="44.10934" lon="6.66702">
        <ele>2288.6</ele>
        <time>2022-09-18T02:10:55Z</time>
      </trkpt>
      <trkpt lat="44.10937" lon="6.6671">
        <ele>2288.6</ele>
        <time>2022-09-18T02:10:56Z</time>
      </trkpt>
      <trkpt lat="44.10939" lon="6.66718">
        <ele>2288.6</ele>
        <time>2022-09-18T02:10:58Z</time>
      </trkpt>
      <trkpt lat="44.1094" lon="6.66724">
        <ele>2288.6</ele>
        <time>2022-09-18T02:10:59Z</time>
      </trkpt>
      <trkpt lat="44.10939" lon="6.66731">
        <ele>2288.6</ele>
        <time>2022-09-18T02:11:00Z</time>
      </trkpt>
      <trkpt lat="44.10939" lon="6.66739">
        <ele>2288.6</ele>
        <time>2022-09-18T02:11:02Z</time>
      </trkpt>
      <trkpt lat="44.10939" lon="6.66745">
        <ele>2288.6</ele>
        <time>2022-09-18T02:11:03Z</time>
      </trkpt>
      <trkpt lat="44.10941" lon="6.6675">
        <ele>2288.6</ele>
        <time>2022-09-18T02:11:04Z</time>
      </trkpt>
      <trkpt lat="44.10942" lon="6.66759">
        <ele>2288.5</ele>
        <time>2022-09-18T02:11:05Z</time>
      </trkpt>
      <trkpt lat="44.10945" lon="6.66764">
        <ele>2288.4</ele>
        <time>2022-09-18T02:11:06Z</time>
      </trkpt>
      <trkpt lat="44.10947" lon="6.66767">
        <ele>2288.4</ele>
        <time>2022-09-18T02:11:07Z</time>
      </trkpt>
      <trkpt lat="44.10952" lon="6.66771">
        <ele>2288.3</ele>
        <time>2022-09-18T02:11:09Z</time>
      </trkpt>
      <trkpt lat="44.10954" lon="6.66774">
        <ele>2288.3</ele>
        <time>2022-09-18T02:11:10Z</time>
      </trkpt>
      <trkpt lat="44.10955" lon="6.66778">
        <ele>2288.3</ele>
        <time>2022-09-18T02:11:11Z</time>
      </trkpt>
      <trkpt lat="44.10956" lon="6.66781">
        <ele>2288.3</ele>
        <time>2022-09-18T02:11:12Z</time>
      </trkpt>
      <trkpt lat="44.10958" lon="6.66784">
        <ele>2288.3</ele>
        <time>2022-09-18T02:11:14Z</time>
      </trkpt>
      <trkpt lat="44.1096" lon="6.66787">
        <ele>2288.3</ele>
        <time>2022-09-18T02:11:15Z</time>
      </trkpt>
      <trkpt lat="44.10961" lon="6.66789">
        <ele>2288.3</ele>
        <time>2022-09-18T02:11:16Z</time>
      </trkpt>
      <trkpt lat="44.10961" lon="6.6679">
        <ele>2288.3</ele>
        <time>2022-09-18T02:11:17Z</time>
      </trkpt>
      <trkpt lat="44.10961" lon="6.66791">
        <ele>2288.3</ele>
        <time>2022-09-18T02:11:18Z</time>
      </trkpt>
      <trkpt lat="44.10961" lon="6.66792">
        <ele>2288.3</ele>
        <time>2022-09-18T02:11:19Z</time>
      </trkpt>
      <trkpt lat="44.10961" lon="6.66792">
        <ele>2288.3</ele>
        <time>2022-09-18T02:11:20Z</time>
      </trkpt>
      <trkpt lat="44.10961" lon="6.66793">
        <ele>2288.3</ele>
        <time>2022-09-18T02:11:22Z</time>
      </trkpt>
      <trkpt lat="44.10961" lon="6.66794">
        <ele>2288.3</ele>
        <time>2022-09-18T02:11:23Z</time>
      </trkpt>
      <trkpt lat="44.10962" lon="6.66796">
        <ele>2288.3</ele>
        <time>2022-09-18T02:11:25Z</time>
      </trkpt>
      <trkpt lat="44.10963" lon="6.668">
        <ele>2288.3</ele>
        <time>2022-09-18T02:11:27Z</time>
      </trkpt>
      <trkpt lat="44.10966" lon="6.66804">
        <ele>2288.3</ele>
        <time>2022-09-18T02:11:28Z</time>
      </trkpt>
      <trkpt lat="44.10966" lon="6.66805">
        <ele>2288.3</ele>
        <time>2022-09-18T02:11:29Z</time>
      </trkpt>
      <trkpt lat="44.10968" lon="6.66806">
        <ele>2288.3</ele>
        <time>2022-09-18T02:11:30Z</time>
      </trkpt>
      <trkpt lat="44.10968" lon="6.66806">
        <ele>2288.3</ele>
        <time>2022-09-18T02:11:31Z</time>
      </trkpt>
      <trkpt lat="44.10969" lon="6.66807">
        <ele>2288.3</ele>
        <time>2022-09-18T02:11:33Z</time>
      </trkpt>
      <trkpt lat="44.10969" lon="6.66807">
        <ele>2288.3</ele>
        <time>2022-09-18T02:11:34Z</time>
      </trkpt>
      <trkpt lat="44.1097" lon="6.66808">
        <ele>2288.3</ele>
        <time>2022-09-18T02:11:35Z</time>
      </trkpt>
      <trkpt lat="44.10971" lon="6.6681">
        <ele>2288.3</ele>
        <time>2022-09-18T02:11:36Z</time>
      </trkpt>
      <trkpt lat="44.10976" lon="6.66821">
        <ele>2288.1</ele>
        <time>2022-09-18T02:11:38Z</time>
      </trkpt>
      <trkpt lat="44.10977" lon="6.66824">
        <ele>2288</ele>
        <time>2022-09-18T02:11:40Z</time>
      </trkpt>
      <trkpt lat="44.10979" lon="6.66828">
        <ele>2287.9</ele>
        <time>2022-09-18T02:11:41Z</time>
      </trkpt>
      <trkpt lat="44.1098" lon="6.66829">
        <ele>2287.9</ele>
        <time>2022-09-18T02:11:42Z</time>
      </trkpt>
      <trkpt lat="44.10981" lon="6.66831">
        <ele>2287.8</ele>
        <time>2022-09-18T02:11:43Z</time>
      </trkpt>
      <trkpt lat="44.10981" lon="6.66831">
        <ele>2287.8</ele>
        <time>2022-09-18T02:11:44Z</time>
      </trkpt>
      <trkpt lat="44.10981" lon="6.6683">
        <ele>2287.8</ele>
        <time>2022-09-18T02:11:45Z</time>
      </trkpt>
      <trkpt lat="44.10982" lon="6.6683">
        <ele>2287.7</ele>
        <time>2022-09-18T02:11:46Z</time>
      </trkpt>
      <trkpt lat="44.10984" lon="6.66829">
        <ele>2287.6</ele>
        <time>2022-09-18T02:11:48Z</time>
      </trkpt>
      <trkpt lat="44.10986" lon="6.66829">
        <ele>2287.5</ele>
        <time>2022-09-18T02:11:49Z</time>
      </trkpt>
      <trkpt lat="44.10987" lon="6.66829">
        <ele>2287.5</ele>
        <time>2022-09-18T02:11:50Z</time>
      </trkpt>
      <trkpt lat="44.1099" lon="6.66831">
        <ele>2287.3</ele>
        <time>2022-09-18T02:11:51Z</time>
      </trkpt>
      <trkpt lat="44.10992" lon="6.66832">
        <ele>2287.2</ele>
        <time>2022-09-18T02:11:52Z</time>
      </trkpt>
      <trkpt lat="44.10997" lon="6.66832">
        <ele>2286.9</ele>
        <time>2022-09-18T02:11:53Z</time>
      </trkpt>
      <trkpt lat="44.11003" lon="6.66833">
        <ele>2286.8</ele>
        <time>2022-09-18T02:11:55Z</time>
      </trkpt>
      <trkpt lat="44.11008" lon="6.66836">
        <ele>2286.6</ele>
        <time>2022-09-18T02:11:56Z</time>
      </trkpt>
      <trkpt lat="44.11012" lon="6.6684">
        <ele>2286.6</ele>
        <time>2022-09-18T02:11:58Z</time>
      </trkpt>
      <trkpt lat="44.11013" lon="6.66844">
        <ele>2286.6</ele>
        <time>2022-09-18T02:11:59Z</time>
      </trkpt>
      <trkpt lat="44.11016" lon="6.66847">
        <ele>2286.5</ele>
        <time>2022-09-18T02:12:00Z</time>
      </trkpt>
      <trkpt lat="44.11017" lon="6.66848">
        <ele>2286.5</ele>
        <time>2022-09-18T02:12:01Z</time>
      </trkpt>
      <trkpt lat="44.11021" lon="6.66852">
        <ele>2286.4</ele>
        <time>2022-09-18T02:12:03Z</time>
      </trkpt>
      <trkpt lat="44.11024" lon="6.66857">
        <ele>2286.2</ele>
        <time>2022-09-18T02:12:04Z</time>
      </trkpt>
      <trkpt lat="44.11028" lon="6.66862">
        <ele>2286</ele>
        <time>2022-09-18T02:12:05Z</time>
      </trkpt>
      <trkpt lat="44.11031" lon="6.66864">
        <ele>2285.8</ele>
        <time>2022-09-18T02:12:06Z</time>
      </trkpt>
      <trkpt lat="44.11034" lon="6.66868">
        <ele>2285.5</ele>
        <time>2022-09-18T02:12:07Z</time>
      </trkpt>
      <trkpt lat="44.11038" lon="6.66871">
        <ele>2285.3</ele>
        <time>2022-09-18T02:12:08Z</time>
      </trkpt>
      <trkpt lat="44.11042" lon="6.66874">
        <ele>2285</ele>
        <time>2022-09-18T02:12:10Z</time>
      </trkpt>
      <trkpt lat="44.11045" lon="6.66877">
        <ele>2284.9</ele>
        <time>2022-09-18T02:12:11Z</time>
      </trkpt>
      <trkpt lat="44.11048" lon="6.66877">
        <ele>2284.8</ele>
        <time>2022-09-18T02:12:12Z</time>
      </trkpt>
      <trkpt lat="44.11051" lon="6.66875">
        <ele>2284.7</ele>
        <time>2022-09-18T02:12:14Z</time>
      </trkpt>
      <trkpt lat="44.11052" lon="6.66875">
        <ele>2284.7</ele>
        <time>2022-09-18T02:12:15Z</time>
      </trkpt>
      <trkpt lat="44.11055" lon="6.66873">
        <ele>2284.6</ele>
        <time>2022-09-18T02:12:16Z</time>
      </trkpt>
      <trkpt lat="44.11056" lon="6.66872">
        <ele>2284.5</ele>
        <time>2022-09-18T02:12:17Z</time>
      </trkpt>
      <trkpt lat="44.1106" lon="6.6687">
        <ele>2284.5</ele>
        <time>2022-09-18T02:12:18Z</time>
      </trkpt>
      <trkpt lat="44.11062" lon="6.6687">
        <ele>2284.4</ele>
        <time>2022-09-18T02:12:19Z</time>
      </trkpt>
      <trkpt lat="44.11064" lon="6.66869">
        <ele>2284.4</ele>
        <time>2022-09-18T02:12:20Z</time>
      </trkpt>
      <trkpt lat="44.1107" lon="6.66866">
        <ele>2284.4</ele>
        <time>2022-09-18T02:12:22Z</time>
      </trkpt>
      <trkpt lat="44.11073" lon="6.66866">
        <ele>2284.5</ele>
        <time>2022-09-18T02:12:23Z</time>
      </trkpt>
      <trkpt lat="44.11076" lon="6.66865">
        <ele>2284.6</ele>
        <time>2022-09-18T02:12:24Z</time>
      </trkpt>
      <trkpt lat="44.11078" lon="6.66863">
        <ele>2284.6</ele>
        <time>2022-09-18T02:12:25Z</time>
      </trkpt>
      <trkpt lat="44.11082" lon="6.66861">
        <ele>2284.8</ele>
        <time>2022-09-18T02:12:26Z</time>
      </trkpt>
      <trkpt lat="44.11084" lon="6.66861">
        <ele>2284.8</ele>
        <time>2022-09-18T02:12:27Z</time>
      </trkpt>
      <trkpt lat="44.11089" lon="6.66861">
        <ele>2284.9</ele>
        <time>2022-09-18T02:12:28Z</time>
      </trkpt>
      <trkpt lat="44.11093" lon="6.66861">
        <ele>2284.9</ele>
        <time>2022-09-18T02:12:30Z</time>
      </trkpt>
      <trkpt lat="44.11096" lon="6.66862">
        <ele>2284.9</ele>
        <time>2022-09-18T02:12:31Z</time>
      </trkpt>
      <trkpt lat="44.11099" lon="6.66863">
        <ele>2284.9</ele>
        <time>2022-09-18T02:12:32Z</time>
      </trkpt>
      <trkpt lat="44.11103" lon="6.66865">
        <ele>2284.9</ele>
        <time>2022-09-18T02:12:33Z</time>
      </trkpt>
      <trkpt lat="44.11107" lon="6.66867">
        <ele>2284.8</ele>
        <time>2022-09-18T02:12:34Z</time>
      </trkpt>
      <trkpt lat="44.11109" lon="6.66867">
        <ele>2284.8</ele>
        <time>2022-09-18T02:12:35Z</time>
      </trkpt>
      <trkpt lat="44.11112" lon="6.66869">
        <ele>2284.8</ele>
        <time>2022-09-18T02:12:36Z</time>
      </trkpt>
      <trkpt lat="44.11115" lon="6.66871">
        <ele>2284.8</ele>
        <time>2022-09-18T02:12:37Z</time>
      </trkpt>
      <trkpt lat="44.11118" lon="6.66873">
        <ele>2284.9</ele>
        <time>2022-09-18T02:12:38Z</time>
      </trkpt>
      <trkpt lat="44.11121" lon="6.66873">
        <ele>2285</ele>
        <time>2022-09-18T02:12:39Z</time>
      </trkpt>
      <trkpt lat="44.11127" lon="6.66876">
        <ele>2285.1</ele>
        <time>2022-09-18T02:12:41Z</time>
      </trkpt>
      <trkpt lat="44.1113" lon="6.66877">
        <ele>2285.2</ele>
        <time>2022-09-18T02:12:43Z</time>
      </trkpt>
      <trkpt lat="44.11133" lon="6.66878">
        <ele>2285.3</ele>
        <time>2022-09-18T02:12:44Z</time>
      </trkpt>
      <trkpt lat="44.11136" lon="6.6688">
        <ele>2285.4</ele>
        <time>2022-09-18T02:12:45Z</time>
      </trkpt>
      <trkpt lat="44.11141" lon="6.66889">
        <ele>2285.5</ele>
        <time>2022-09-18T02:12:47Z</time>
      </trkpt>
      <trkpt lat="44.11143" lon="6.66895">
        <ele>2285.6</ele>
        <time>2022-09-18T02:12:49Z</time>
      </trkpt>
      <trkpt lat="44.11144" lon="6.66896">
        <ele>2285.6</ele>
        <time>2022-09-18T02:12:50Z</time>
      </trkpt>
      <trkpt lat="44.11145" lon="6.66898">
        <ele>2285.6</ele>
        <time>2022-09-18T02:12:51Z</time>
      </trkpt>
      <trkpt lat="44.11147" lon="6.66901">
        <ele>2285.6</ele>
        <time>2022-09-18T02:12:52Z</time>
      </trkpt>
      <trkpt lat="44.1115" lon="6.66908">
        <ele>2285.6</ele>
        <time>2022-09-18T02:12:54Z</time>
      </trkpt>
      <trkpt lat="44.11151" lon="6.66912">
        <ele>2285.6</ele>
        <time>2022-09-18T02:12:55Z</time>
      </trkpt>
      <trkpt lat="44.11152" lon="6.66917">
        <ele>2285.6</ele>
        <time>2022-09-18T02:12:56Z</time>
      </trkpt>
      <trkpt lat="44.11153" lon="6.6692">
        <ele>2285.7</ele>
        <time>2022-09-18T02:12:57Z</time>
      </trkpt>
      <trkpt lat="44.11155" lon="6.66923">
        <ele>2285.7</ele>
        <time>2022-09-18T02:12:58Z</time>
      </trkpt>
      <trkpt lat="44.11158" lon="6.66927">
        <ele>2285.7</ele>
        <time>2022-09-18T02:13:00Z</time>
      </trkpt>
      <trkpt lat="44.1116" lon="6.66929">
        <ele>2285.7</ele>
        <time>2022-09-18T02:13:01Z</time>
      </trkpt>
      <trkpt lat="44.11164" lon="6.66934">
        <ele>2285.7</ele>
        <time>2022-09-18T02:13:02Z</time>
      </trkpt>
      <trkpt lat="44.11166" lon="6.66936">
        <ele>2285.7</ele>
        <time>2022-09-18T02:13:03Z</time>
      </trkpt>
      <trkpt lat="44.11168" lon="6.66939">
        <ele>2285.7</ele>
        <time>2022-09-18T02:13:05Z</time>
      </trkpt>
      <trkpt lat="44.1117" lon="6.66942">
        <ele>2285.6</ele>
        <time>2022-09-18T02:13:06Z</time>
      </trkpt>
      <trkpt lat="44.11171" lon="6.66943">
        <ele>2285.6</ele>
        <time>2022-09-18T02:13:07Z</time>
      </trkpt>
      <trkpt lat="44.11172" lon="6.66947">
        <ele>2285.6</ele>
        <time>2022-09-18T02:13:08Z</time>
      </trkpt>
      <trkpt lat="44.11174" lon="6.66951">
        <ele>2285.6</ele>
        <time>2022-09-18T02:13:09Z</time>
      </trkpt>
      <trkpt lat="44.11176" lon="6.66954">
        <ele>2285.5</ele>
        <time>2022-09-18T02:13:10Z</time>
      </trkpt>
      <trkpt lat="44.11178" lon="6.66959">
        <ele>2285.4</ele>
        <time>2022-09-18T02:13:11Z</time>
      </trkpt>
      <trkpt lat="44.11181" lon="6.66964">
        <ele>2285.5</ele>
        <time>2022-09-18T02:13:12Z</time>
      </trkpt>
      <trkpt lat="44.11183" lon="6.66968">
        <ele>2285.5</ele>
        <time>2022-09-18T02:13:13Z</time>
      </trkpt>
      <trkpt lat="44.11186" lon="6.66971">
        <ele>2285.5</ele>
        <time>2022-09-18T02:13:14Z</time>
      </trkpt>
      <trkpt lat="44.11189" lon="6.66976">
        <ele>2285.6</ele>
        <time>2022-09-18T02:13:15Z</time>
      </trkpt>
      <trkpt lat="44.11191" lon="6.66982">
        <ele>2285.6</ele>
        <time>2022-09-18T02:13:17Z</time>
      </trkpt>
      <trkpt lat="44.11195" lon="6.66988">
        <ele>2285.6</ele>
        <time>2022-09-18T02:13:18Z</time>
      </trkpt>
      <trkpt lat="44.11198" lon="6.66992">
        <ele>2287.4</ele>
        <time>2022-09-18T02:13:20Z</time>
      </trkpt>
      <trkpt lat="44.11201" lon="6.66995">
        <ele>2285.3</ele>
        <time>2022-09-18T02:13:21Z</time>
      </trkpt>
      <trkpt lat="44.11204" lon="6.66999">
        <ele>2285.4</ele>
        <time>2022-09-18T02:13:22Z</time>
      </trkpt>
      <trkpt lat="44.11208" lon="6.67003">
        <ele>2285.4</ele>
        <time>2022-09-18T02:13:23Z</time>
      </trkpt>
      <trkpt lat="44.11211" lon="6.67005">
        <ele>2285.5</ele>
        <time>2022-09-18T02:13:25Z</time>
      </trkpt>
      <trkpt lat="44.11215" lon="6.67007">
        <ele>2283.5</ele>
        <time>2022-09-18T02:13:26Z</time>
      </trkpt>
      <trkpt lat="44.11219" lon="6.67009">
        <ele>2285.2</ele>
        <time>2022-09-18T02:13:27Z</time>
      </trkpt>
      <trkpt lat="44.11223" lon="6.67011">
        <ele>2285.3</ele>
        <time>2022-09-18T02:13:28Z</time>
      </trkpt>
      <trkpt lat="44.11225" lon="6.67014">
        <ele>2283.3</ele>
        <time>2022-09-18T02:13:29Z</time>
      </trkpt>
      <trkpt lat="44.11229" lon="6.67017">
        <ele>2283.3</ele>
        <time>2022-09-18T02:13:30Z</time>
      </trkpt>
      <trkpt lat="44.11231" lon="6.6702">
        <ele>2283.4</ele>
        <time>2022-09-18T02:13:32Z</time>
      </trkpt>
      <trkpt lat="44.11235" lon="6.67023">
        <ele>2283.4</ele>
        <time>2022-09-18T02:13:33Z</time>
      </trkpt>
      <trkpt lat="44.11241" lon="6.67025">
        <ele>2284</ele>
        <time>2022-09-18T02:13:35Z</time>
      </trkpt>
      <trkpt lat="44.11244" lon="6.6703">
        <ele>2284</ele>
        <time>2022-09-18T02:13:36Z</time>
      </trkpt>
      <trkpt lat="44.11246" lon="6.67034">
        <ele>2284.1</ele>
        <time>2022-09-18T02:13:37Z</time>
      </trkpt>
      <trkpt lat="44.11249" lon="6.67043">
        <ele>2285</ele>
        <time>2022-09-18T02:13:38Z</time>
      </trkpt>
      <trkpt lat="44.11251" lon="6.67048">
        <ele>2285</ele>
        <time>2022-09-18T02:13:39Z</time>
      </trkpt>
      <trkpt lat="44.11254" lon="6.67054">
        <ele>2285.1</ele>
        <time>2022-09-18T02:13:41Z</time>
      </trkpt>
      <trkpt lat="44.11256" lon="6.67058">
        <ele>2285.1</ele>
        <time>2022-09-18T02:13:42Z</time>
      </trkpt>
      <trkpt lat="44.11259" lon="6.67061">
        <ele>2287.5</ele>
        <time>2022-09-18T02:13:43Z</time>
      </trkpt>
      <trkpt lat="44.11262" lon="6.67065">
        <ele>2286.8</ele>
        <time>2022-09-18T02:13:44Z</time>
      </trkpt>
      <trkpt lat="44.11266" lon="6.67069">
        <ele>2286.8</ele>
        <time>2022-09-18T02:13:45Z</time>
      </trkpt>
      <trkpt lat="44.11269" lon="6.6707">
        <ele>2286.9</ele>
        <time>2022-09-18T02:13:46Z</time>
      </trkpt>
      <trkpt lat="44.11271" lon="6.67071">
        <ele>2286.9</ele>
        <time>2022-09-18T02:13:48Z</time>
      </trkpt>
      <trkpt lat="44.11273" lon="6.67071">
        <ele>2286.4</ele>
        <time>2022-09-18T02:13:49Z</time>
      </trkpt>
      <trkpt lat="44.11279" lon="6.67071">
        <ele>2286.4</ele>
        <time>2022-09-18T02:13:50Z</time>
      </trkpt>
      <trkpt lat="44.11281" lon="6.67071">
        <ele>2286.5</ele>
        <time>2022-09-18T02:13:51Z</time>
      </trkpt>
      <trkpt lat="44.11285" lon="6.67072">
        <ele>2286.5</ele>
        <time>2022-09-18T02:13:53Z</time>
      </trkpt>
      <trkpt lat="44.11287" lon="6.67073">
        <ele>2286.3</ele>
        <time>2022-09-18T02:13:54Z</time>
      </trkpt>
      <trkpt lat="44.11291" lon="6.67073">
        <ele>2286.4</ele>
        <time>2022-09-18T02:13:55Z</time>
      </trkpt>
      <trkpt lat="44.11294" lon="6.67074">
        <ele>2286.4</ele>
        <time>2022-09-18T02:13:56Z</time>
      </trkpt>
      <trkpt lat="44.11298" lon="6.67075">
        <ele>2286.4</ele>
        <time>2022-09-18T02:13:58Z</time>
      </trkpt>
      <trkpt lat="44.113" lon="6.67075">
        <ele>2286.6</ele>
        <time>2022-09-18T02:13:59Z</time>
      </trkpt>
      <trkpt lat="44.11305" lon="6.67074">
        <ele>2286.7</ele>
        <time>2022-09-18T02:14:00Z</time>
      </trkpt>
      <trkpt lat="44.11308" lon="6.67074">
        <ele>2286.7</ele>
        <time>2022-09-18T02:14:01Z</time>
      </trkpt>
      <trkpt lat="44.11309" lon="6.67074">
        <ele>2286.7</ele>
        <time>2022-09-18T02:14:02Z</time>
      </trkpt>
      <trkpt lat="44.11313" lon="6.67077">
        <ele>2290.7</ele>
        <time>2022-09-18T02:14:04Z</time>
      </trkpt>
      <trkpt lat="44.11317" lon="6.67079">
        <ele>2290.7</ele>
        <time>2022-09-18T02:14:06Z</time>
      </trkpt>
      <trkpt lat="44.11318" lon="6.67079">
        <ele>2290.8</ele>
        <time>2022-09-18T02:14:07Z</time>
      </trkpt>
      <trkpt lat="44.11322" lon="6.67077">
        <ele>2290.8</ele>
        <time>2022-09-18T02:14:08Z</time>
      </trkpt>
      <trkpt lat="44.11326" lon="6.67074">
        <ele>2288.7</ele>
        <time>2022-09-18T02:14:09Z</time>
      </trkpt>
      <trkpt lat="44.1133" lon="6.67072">
        <ele>2288.8</ele>
        <time>2022-09-18T02:14:10Z</time>
      </trkpt>
      <trkpt lat="44.11334" lon="6.67073">
        <ele>2288.8</ele>
        <time>2022-09-18T02:14:12Z</time>
      </trkpt>
      <trkpt lat="44.11336" lon="6.67073">
        <ele>2290.4</ele>
        <time>2022-09-18T02:14:14Z</time>
      </trkpt>
      <trkpt lat="44.11337" lon="6.67073">
        <ele>2290.4</ele>
        <time>2022-09-18T02:14:15Z</time>
      </trkpt>
      <trkpt lat="44.11341" lon="6.67073">
        <ele>2290.4</ele>
        <time>2022-09-18T02:14:16Z</time>
      </trkpt>
      <trkpt lat="44.11342" lon="6.67073">
        <ele>2290.5</ele>
        <time>2022-09-18T02:14:17Z</time>
      </trkpt>
      <trkpt lat="44.11344" lon="6.67076">
        <ele>2290.5</ele>
        <time>2022-09-18T02:14:18Z</time>
      </trkpt>
      <trkpt lat="44.11347" lon="6.67079">
        <ele>2294</ele>
        <time>2022-09-18T02:14:19Z</time>
      </trkpt>
      <trkpt lat="44.11348" lon="6.6708">
        <ele>2295.3</ele>
        <time>2022-09-18T02:14:20Z</time>
      </trkpt>
      <trkpt lat="44.1135" lon="6.67084">
        <ele>2295.3</ele>
        <time>2022-09-18T02:14:21Z</time>
      </trkpt>
      <trkpt lat="44.1135" lon="6.67086">
        <ele>2295.3</ele>
        <time>2022-09-18T02:14:22Z</time>
      </trkpt>
      <trkpt lat="44.1135" lon="6.6709">
        <ele>2295.4</ele>
        <time>2022-09-18T02:14:24Z</time>
      </trkpt>
      <trkpt lat="44.1135" lon="6.67094">
        <ele>2298.8</ele>
        <time>2022-09-18T02:14:25Z</time>
      </trkpt>
      <trkpt lat="44.11352" lon="6.67097">
        <ele>2298.8</ele>
        <time>2022-09-18T02:14:26Z</time>
      </trkpt>
      <trkpt lat="44.11354" lon="6.67098">
        <ele>2298.8</ele>
        <time>2022-09-18T02:14:27Z</time>
      </trkpt>
      <trkpt lat="44.11356" lon="6.671">
        <ele>2298.9</ele>
        <time>2022-09-18T02:14:28Z</time>
      </trkpt>
      <trkpt lat="44.11358" lon="6.67101">
        <ele>2298.9</ele>
        <time>2022-09-18T02:14:29Z</time>
      </trkpt>
      <trkpt lat="44.1136" lon="6.671">
        <ele>2300.3</ele>
        <time>2022-09-18T02:14:31Z</time>
      </trkpt>
      <trkpt lat="44.11363" lon="6.67099">
        <ele>2300.4</ele>
        <time>2022-09-18T02:14:32Z</time>
      </trkpt>
      <trkpt lat="44.11364" lon="6.67098">
        <ele>2300.4</ele>
        <time>2022-09-18T02:14:33Z</time>
      </trkpt>
      <trkpt lat="44.11368" lon="6.67097">
        <ele>2300.5</ele>
        <time>2022-09-18T02:14:34Z</time>
      </trkpt>
      <trkpt lat="44.11369" lon="6.67097">
        <ele>2300.5</ele>
        <time>2022-09-18T02:14:35Z</time>
      </trkpt>
      <trkpt lat="44.11372" lon="6.67096">
        <ele>2301.7</ele>
        <time>2022-09-18T02:14:36Z</time>
      </trkpt>
      <trkpt lat="44.11374" lon="6.67095">
        <ele>2301.7</ele>
        <time>2022-09-18T02:14:37Z</time>
      </trkpt>
      <trkpt lat="44.11376" lon="6.67094">
        <ele>2301.8</ele>
        <time>2022-09-18T02:14:39Z</time>
      </trkpt>
      <trkpt lat="44.1138" lon="6.67093">
        <ele>2298.3</ele>
        <time>2022-09-18T02:14:40Z</time>
      </trkpt>
      <trkpt lat="44.11381" lon="6.67092">
        <ele>2298.4</ele>
        <time>2022-09-18T02:14:41Z</time>
      </trkpt>
      <trkpt lat="44.11385" lon="6.67091">
        <ele>2300.1</ele>
        <time>2022-09-18T02:14:42Z</time>
      </trkpt>
      <trkpt lat="44.11386" lon="6.67091">
        <ele>2300.2</ele>
        <time>2022-09-18T02:14:43Z</time>
      </trkpt>
      <trkpt lat="44.11389" lon="6.6709">
        <ele>2300.2</ele>
        <time>2022-09-18T02:14:44Z</time>
      </trkpt>
      <trkpt lat="44.11391" lon="6.67089">
        <ele>2300.3</ele>
        <time>2022-09-18T02:14:45Z</time>
      </trkpt>
      <trkpt lat="44.11394" lon="6.67088">
        <ele>2300.5</ele>
        <time>2022-09-18T02:14:47Z</time>
      </trkpt>
      <trkpt lat="44.11397" lon="6.67086">
        <ele>2300.7</ele>
        <time>2022-09-18T02:14:48Z</time>
      </trkpt>
      <trkpt lat="44.11399" lon="6.67085">
        <ele>2300.8</ele>
        <time>2022-09-18T02:14:49Z</time>
      </trkpt>
      <trkpt lat="44.11401" lon="6.67082">
        <ele>2301</ele>
        <time>2022-09-18T02:14:50Z</time>
      </trkpt>
      <trkpt lat="44.11404" lon="6.6708">
        <ele>2301.3</ele>
        <time>2022-09-18T02:14:51Z</time>
      </trkpt>
      <trkpt lat="44.11406" lon="6.67078">
        <ele>2301.4</ele>
        <time>2022-09-18T02:14:52Z</time>
      </trkpt>
      <trkpt lat="44.11408" lon="6.67075">
        <ele>2301.6</ele>
        <time>2022-09-18T02:14:54Z</time>
      </trkpt>
      <trkpt lat="44.11412" lon="6.67072">
        <ele>2301.8</ele>
        <time>2022-09-18T02:14:55Z</time>
      </trkpt>
      <trkpt lat="44.11414" lon="6.6707">
        <ele>2301.9</ele>
        <time>2022-09-18T02:14:56Z</time>
      </trkpt>
      <trkpt lat="44.11419" lon="6.67068">
        <ele>2302.1</ele>
        <time>2022-09-18T02:14:58Z</time>
      </trkpt>
      <trkpt lat="44.1142" lon="6.67067">
        <ele>2302.2</ele>
        <time>2022-09-18T02:14:59Z</time>
      </trkpt>
      <trkpt lat="44.11421" lon="6.67066">
        <ele>2302.3</ele>
        <time>2022-09-18T02:15:00Z</time>
      </trkpt>
      <trkpt lat="44.11424" lon="6.67064">
        <ele>2302.4</ele>
        <time>2022-09-18T02:15:01Z</time>
      </trkpt>
      <trkpt lat="44.11425" lon="6.67063">
        <ele>2302.5</ele>
        <time>2022-09-18T02:15:02Z</time>
      </trkpt>
      <trkpt lat="44.11427" lon="6.6706">
        <ele>2302.6</ele>
        <time>2022-09-18T02:15:03Z</time>
      </trkpt>
      <trkpt lat="44.11429" lon="6.67057">
        <ele>2302.8</ele>
        <time>2022-09-18T02:15:04Z</time>
      </trkpt>
      <trkpt lat="44.11431" lon="6.67055">
        <ele>2302.9</ele>
        <time>2022-09-18T02:15:05Z</time>
      </trkpt>
      <trkpt lat="44.11434" lon="6.67052">
        <ele>2303.1</ele>
        <time>2022-09-18T02:15:07Z</time>
      </trkpt>
      <trkpt lat="44.11435" lon="6.6705">
        <ele>2303.3</ele>
        <time>2022-09-18T02:15:09Z</time>
      </trkpt>
      <trkpt lat="44.11439" lon="6.67045">
        <ele>2303.5</ele>
        <time>2022-09-18T02:15:10Z</time>
      </trkpt>
      <trkpt lat="44.11441" lon="6.67044">
        <ele>2303.6</ele>
        <time>2022-09-18T02:15:11Z</time>
      </trkpt>
      <trkpt lat="44.11444" lon="6.6704">
        <ele>2303.9</ele>
        <time>2022-09-18T02:15:13Z</time>
      </trkpt>
      <trkpt lat="44.1145" lon="6.67036">
        <ele>2304.3</ele>
        <time>2022-09-18T02:15:15Z</time>
      </trkpt>
      <trkpt lat="44.11453" lon="6.67035">
        <ele>2304.5</ele>
        <time>2022-09-18T02:15:16Z</time>
      </trkpt>
      <trkpt lat="44.11455" lon="6.67033">
        <ele>2304.6</ele>
        <time>2022-09-18T02:15:17Z</time>
      </trkpt>
      <trkpt lat="44.11458" lon="6.67029">
        <ele>2304.8</ele>
        <time>2022-09-18T02:15:19Z</time>
      </trkpt>
      <trkpt lat="44.11459" lon="6.67026">
        <ele>2304.9</ele>
        <time>2022-09-18T02:15:20Z</time>
      </trkpt>
      <trkpt lat="44.11459" lon="6.67021">
        <ele>2305.1</ele>
        <time>2022-09-18T02:15:21Z</time>
      </trkpt>
      <trkpt lat="44.11459" lon="6.67016">
        <ele>2305.2</ele>
        <time>2022-09-18T02:15:22Z</time>
      </trkpt>
      <trkpt lat="44.11459" lon="6.67013">
        <ele>2305.4</ele>
        <time>2022-09-18T02:15:23Z</time>
      </trkpt>
      <trkpt lat="44.1146" lon="6.67005">
        <ele>2305.6</ele>
        <time>2022-09-18T02:15:24Z</time>
      </trkpt>
      <trkpt lat="44.11462" lon="6.66999">
        <ele>2305.9</ele>
        <time>2022-09-18T02:15:25Z</time>
      </trkpt>
      <trkpt lat="44.11465" lon="6.66995">
        <ele>2306.1</ele>
        <time>2022-09-18T02:15:26Z</time>
      </trkpt>
      <trkpt lat="44.11466" lon="6.66989">
        <ele>2306.4</ele>
        <time>2022-09-18T02:15:28Z</time>
      </trkpt>
      <trkpt lat="44.11467" lon="6.66984">
        <ele>2306.6</ele>
        <time>2022-09-18T02:15:29Z</time>
      </trkpt>
      <trkpt lat="44.11465" lon="6.66974">
        <ele>2307.1</ele>
        <time>2022-09-18T02:15:31Z</time>
      </trkpt>
      <trkpt lat="44.11465" lon="6.6697">
        <ele>2307.3</ele>
        <time>2022-09-18T02:15:33Z</time>
      </trkpt>
      <trkpt lat="44.11466" lon="6.66966">
        <ele>2307.5</ele>
        <time>2022-09-18T02:15:34Z</time>
      </trkpt>
      <trkpt lat="44.11468" lon="6.66962">
        <ele>2307.7</ele>
        <time>2022-09-18T02:15:35Z</time>
      </trkpt>
      <trkpt lat="44.11468" lon="6.66957">
        <ele>2307.9</ele>
        <time>2022-09-18T02:15:36Z</time>
      </trkpt>
      <trkpt lat="44.11468" lon="6.66952">
        <ele>2308.1</ele>
        <time>2022-09-18T02:15:37Z</time>
      </trkpt>
      <trkpt lat="44.11467" lon="6.66946">
        <ele>2308.3</ele>
        <time>2022-09-18T02:15:38Z</time>
      </trkpt>
      <trkpt lat="44.11466" lon="6.66941">
        <ele>2308.5</ele>
        <time>2022-09-18T02:15:39Z</time>
      </trkpt>
      <trkpt lat="44.11467" lon="6.66935">
        <ele>2308.7</ele>
        <time>2022-09-18T02:15:40Z</time>
      </trkpt>
      <trkpt lat="44.11466" lon="6.66931">
        <ele>2308.8</ele>
        <time>2022-09-18T02:15:41Z</time>
      </trkpt>
      <trkpt lat="44.11465" lon="6.66926">
        <ele>2308.9</ele>
        <time>2022-09-18T02:15:43Z</time>
      </trkpt>
      <trkpt lat="44.11463" lon="6.66922">
        <ele>2308.9</ele>
        <time>2022-09-18T02:15:44Z</time>
      </trkpt>
      <trkpt lat="44.11463" lon="6.66917">
        <ele>2309</ele>
        <time>2022-09-18T02:15:45Z</time>
      </trkpt>
      <trkpt lat="44.11463" lon="6.66915">
        <ele>2309</ele>
        <time>2022-09-18T02:15:46Z</time>
      </trkpt>
      <trkpt lat="44.11462" lon="6.66911">
        <ele>2309.1</ele>
        <time>2022-09-18T02:15:47Z</time>
      </trkpt>
      <trkpt lat="44.11463" lon="6.66904">
        <ele>2309.1</ele>
        <time>2022-09-18T02:15:49Z</time>
      </trkpt>
      <trkpt lat="44.11464" lon="6.66897">
        <ele>2309.2</ele>
        <time>2022-09-18T02:15:50Z</time>
      </trkpt>
      <trkpt lat="44.11464" lon="6.66892">
        <ele>2309.3</ele>
        <time>2022-09-18T02:15:51Z</time>
      </trkpt>
      <trkpt lat="44.11466" lon="6.66888">
        <ele>2309.4</ele>
        <time>2022-09-18T02:15:52Z</time>
      </trkpt>
      <trkpt lat="44.11467" lon="6.66883">
        <ele>2309.5</ele>
        <time>2022-09-18T02:15:54Z</time>
      </trkpt>
      <trkpt lat="44.11469" lon="6.66878">
        <ele>2309.7</ele>
        <time>2022-09-18T02:15:55Z</time>
      </trkpt>
      <trkpt lat="44.11472" lon="6.66874">
        <ele>2309.9</ele>
        <time>2022-09-18T02:15:56Z</time>
      </trkpt>
      <trkpt lat="44.11473" lon="6.66871">
        <ele>2309.9</ele>
        <time>2022-09-18T02:15:57Z</time>
      </trkpt>
      <trkpt lat="44.11477" lon="6.66868">
        <ele>2310</ele>
        <time>2022-09-18T02:15:59Z</time>
      </trkpt>
      <trkpt lat="44.1148" lon="6.66864">
        <ele>2310.1</ele>
        <time>2022-09-18T02:16:00Z</time>
      </trkpt>
      <trkpt lat="44.11481" lon="6.66858">
        <ele>2310.2</ele>
        <time>2022-09-18T02:16:01Z</time>
      </trkpt>
      <trkpt lat="44.11479" lon="6.66851">
        <ele>2310.2</ele>
        <time>2022-09-18T02:16:02Z</time>
      </trkpt>
      <trkpt lat="44.11476" lon="6.66848">
        <ele>2310.3</ele>
        <time>2022-09-18T02:16:04Z</time>
      </trkpt>
      <trkpt lat="44.11471" lon="6.66848">
        <ele>2310.3</ele>
        <time>2022-09-18T02:16:05Z</time>
      </trkpt>
      <trkpt lat="44.11469" lon="6.66848">
        <ele>2310.4</ele>
        <time>2022-09-18T02:16:06Z</time>
      </trkpt>
      <trkpt lat="44.11466" lon="6.66845">
        <ele>2310.4</ele>
        <time>2022-09-18T02:16:08Z</time>
      </trkpt>
      <trkpt lat="44.11463" lon="6.66841">
        <ele>2310.4</ele>
        <time>2022-09-18T02:16:09Z</time>
      </trkpt>
      <trkpt lat="44.11461" lon="6.66839">
        <ele>2310.4</ele>
        <time>2022-09-18T02:16:10Z</time>
      </trkpt>
      <trkpt lat="44.11459" lon="6.66836">
        <ele>2310.5</ele>
        <time>2022-09-18T02:16:11Z</time>
      </trkpt>
      <trkpt lat="44.11458" lon="6.66832">
        <ele>2310.5</ele>
        <time>2022-09-18T02:16:12Z</time>
      </trkpt>
      <trkpt lat="44.11457" lon="6.66831">
        <ele>2310.5</ele>
        <time>2022-09-18T02:16:13Z</time>
      </trkpt>
      <trkpt lat="44.11454" lon="6.6683">
        <ele>2310.5</ele>
        <time>2022-09-18T02:16:14Z</time>
      </trkpt>
      <trkpt lat="44.1145" lon="6.6683">
        <ele>2310.6</ele>
        <time>2022-09-18T02:16:15Z</time>
      </trkpt>
      <trkpt lat="44.11447" lon="6.66828">
        <ele>2310.6</ele>
        <time>2022-09-18T02:16:17Z</time>
      </trkpt>
      <trkpt lat="44.11444" lon="6.66824">
        <ele>2310.7</ele>
        <time>2022-09-18T02:16:18Z</time>
      </trkpt>
      <trkpt lat="44.11441" lon="6.6682">
        <ele>2310.8</ele>
        <time>2022-09-18T02:16:19Z</time>
      </trkpt>
      <trkpt lat="44.11439" lon="6.66818">
        <ele>2310.8</ele>
        <time>2022-09-18T02:16:20Z</time>
      </trkpt>
      <trkpt lat="44.11437" lon="6.66814">
        <ele>2310.8</ele>
        <time>2022-09-18T02:16:21Z</time>
      </trkpt>
      <trkpt lat="44.11434" lon="6.66812">
        <ele>2310.9</ele>
        <time>2022-09-18T02:16:23Z</time>
      </trkpt>
      <trkpt lat="44.11432" lon="6.66807">
        <ele>2310.9</ele>
        <time>2022-09-18T02:16:24Z</time>
      </trkpt>
      <trkpt lat="44.11431" lon="6.66801">
        <ele>2311</ele>
        <time>2022-09-18T02:16:26Z</time>
      </trkpt>
      <trkpt lat="44.11431" lon="6.66799">
        <ele>2311</ele>
        <time>2022-09-18T02:16:27Z</time>
      </trkpt>
      <trkpt lat="44.11431" lon="6.66797">
        <ele>2311.1</ele>
        <time>2022-09-18T02:16:28Z</time>
      </trkpt>
      <trkpt lat="44.1143" lon="6.66791">
        <ele>2311.1</ele>
        <time>2022-09-18T02:16:29Z</time>
      </trkpt>
      <trkpt lat="44.1143" lon="6.66788">
        <ele>2311.2</ele>
        <time>2022-09-18T02:16:30Z</time>
      </trkpt>
      <trkpt lat="44.11431" lon="6.66783">
        <ele>2311.2</ele>
        <time>2022-09-18T02:16:31Z</time>
      </trkpt>
      <trkpt lat="44.11431" lon="6.66779">
        <ele>2311.3</ele>
        <time>2022-09-18T02:16:32Z</time>
      </trkpt>
      <trkpt lat="44.11431" lon="6.66774">
        <ele>2311.4</ele>
        <time>2022-09-18T02:16:33Z</time>
      </trkpt>
      <trkpt lat="44.1143" lon="6.6677">
        <ele>2311.5</ele>
        <time>2022-09-18T02:16:35Z</time>
      </trkpt>
      <trkpt lat="44.11429" lon="6.66766">
        <ele>2311.6</ele>
        <time>2022-09-18T02:16:36Z</time>
      </trkpt>
      <trkpt lat="44.11429" lon="6.66761">
        <ele>2311.7</ele>
        <time>2022-09-18T02:16:37Z</time>
      </trkpt>
      <trkpt lat="44.11427" lon="6.66757">
        <ele>2311.8</ele>
        <time>2022-09-18T02:16:38Z</time>
      </trkpt>
      <trkpt lat="44.11427" lon="6.66752">
        <ele>2311.9</ele>
        <time>2022-09-18T02:16:39Z</time>
      </trkpt>
      <trkpt lat="44.11429" lon="6.66742">
        <ele>2312</ele>
        <time>2022-09-18T02:16:41Z</time>
      </trkpt>
      <trkpt lat="44.11427" lon="6.6674">
        <ele>2312</ele>
        <time>2022-09-18T02:16:43Z</time>
      </trkpt>
      <trkpt lat="44.11424" lon="6.66738">
        <ele>2312</ele>
        <time>2022-09-18T02:16:44Z</time>
      </trkpt>
      <trkpt lat="44.1142" lon="6.66735">
        <ele>2312</ele>
        <time>2022-09-18T02:16:45Z</time>
      </trkpt>
      <trkpt lat="44.11417" lon="6.66732">
        <ele>2312</ele>
        <time>2022-09-18T02:16:47Z</time>
      </trkpt>
      <trkpt lat="44.11415" lon="6.66731">
        <ele>2312</ele>
        <time>2022-09-18T02:16:48Z</time>
      </trkpt>
      <trkpt lat="44.11412" lon="6.66729">
        <ele>2312</ele>
        <time>2022-09-18T02:16:49Z</time>
      </trkpt>
      <trkpt lat="44.11411" lon="6.66728">
        <ele>2312</ele>
        <time>2022-09-18T02:16:50Z</time>
      </trkpt>
      <trkpt lat="44.11408" lon="6.66729">
        <ele>2312.1</ele>
        <time>2022-09-18T02:16:51Z</time>
      </trkpt>
      <trkpt lat="44.11404" lon="6.66726">
        <ele>2312.1</ele>
        <time>2022-09-18T02:16:53Z</time>
      </trkpt>
      <trkpt lat="44.11403" lon="6.66724">
        <ele>2312.2</ele>
        <time>2022-09-18T02:16:54Z</time>
      </trkpt>
      <trkpt lat="44.11402" lon="6.66722">
        <ele>2312.2</ele>
        <time>2022-09-18T02:16:55Z</time>
      </trkpt>
      <trkpt lat="44.11401" lon="6.66716">
        <ele>2312.3</ele>
        <time>2022-09-18T02:16:56Z</time>
      </trkpt>
      <trkpt lat="44.11399" lon="6.66711">
        <ele>2312.4</ele>
        <time>2022-09-18T02:16:57Z</time>
      </trkpt>
      <trkpt lat="44.11397" lon="6.66704">
        <ele>2312.5</ele>
        <time>2022-09-18T02:16:58Z</time>
      </trkpt>
      <trkpt lat="44.11395" lon="6.66702">
        <ele>2312.5</ele>
        <time>2022-09-18T02:17:00Z</time>
      </trkpt>
      <trkpt lat="44.11395" lon="6.667">
        <ele>2312.6</ele>
        <time>2022-09-18T02:17:01Z</time>
      </trkpt>
      <trkpt lat="44.11393" lon="6.66699">
        <ele>2312.6</ele>
        <time>2022-09-18T02:17:02Z</time>
      </trkpt>
      <trkpt lat="44.11392" lon="6.66699">
        <ele>2312.6</ele>
        <time>2022-09-18T02:17:03Z</time>
      </trkpt>
      <trkpt lat="44.1139" lon="6.66698">
        <ele>2312.7</ele>
        <time>2022-09-18T02:17:04Z</time>
      </trkpt>
      <trkpt lat="44.11389" lon="6.66695">
        <ele>2312.7</ele>
        <time>2022-09-18T02:17:05Z</time>
      </trkpt>
      <trkpt lat="44.11389" lon="6.66694">
        <ele>2312.7</ele>
        <time>2022-09-18T02:17:06Z</time>
      </trkpt>
      <trkpt lat="44.11387" lon="6.6669">
        <ele>2312.8</ele>
        <time>2022-09-18T02:17:08Z</time>
      </trkpt>
      <trkpt lat="44.11386" lon="6.66688">
        <ele>2312.8</ele>
        <time>2022-09-18T02:17:09Z</time>
      </trkpt>
      <trkpt lat="44.11384" lon="6.66684">
        <ele>2312.9</ele>
        <time>2022-09-18T02:17:10Z</time>
      </trkpt>
      <trkpt lat="44.11382" lon="6.6668">
        <ele>2312.9</ele>
        <time>2022-09-18T02:17:11Z</time>
      </trkpt>
      <trkpt lat="44.11381" lon="6.66676">
        <ele>2313</ele>
        <time>2022-09-18T02:17:12Z</time>
      </trkpt>
      <trkpt lat="44.11378" lon="6.66671">
        <ele>2313.1</ele>
        <time>2022-09-18T02:17:13Z</time>
      </trkpt>
      <trkpt lat="44.11378" lon="6.66666">
        <ele>2313.1</ele>
        <time>2022-09-18T02:17:15Z</time>
      </trkpt>
      <trkpt lat="44.11379" lon="6.66662">
        <ele>2313.2</ele>
        <time>2022-09-18T02:17:16Z</time>
      </trkpt>
      <trkpt lat="44.11378" lon="6.66658">
        <ele>2313.2</ele>
        <time>2022-09-18T02:17:17Z</time>
      </trkpt>
      <trkpt lat="44.11376" lon="6.66654">
        <ele>2313.3</ele>
        <time>2022-09-18T02:17:18Z</time>
      </trkpt>
      <trkpt lat="44.11374" lon="6.66652">
        <ele>2313.4</ele>
        <time>2022-09-18T02:17:19Z</time>
      </trkpt>
      <trkpt lat="44.11371" lon="6.66647">
        <ele>2313.4</ele>
        <time>2022-09-18T02:17:20Z</time>
      </trkpt>
      <trkpt lat="44.11369" lon="6.66643">
        <ele>2313.5</ele>
        <time>2022-09-18T02:17:22Z</time>
      </trkpt>
      <trkpt lat="44.11366" lon="6.66639">
        <ele>2313.5</ele>
        <time>2022-09-18T02:17:23Z</time>
      </trkpt>
      <trkpt lat="44.11365" lon="6.66638">
        <ele>2313.5</ele>
        <time>2022-09-18T02:17:24Z</time>
      </trkpt>
      <trkpt lat="44.11362" lon="6.66636">
        <ele>2313.6</ele>
        <time>2022-09-18T02:17:25Z</time>
      </trkpt>
      <trkpt lat="44.1136" lon="6.66637">
        <ele>2313.6</ele>
        <time>2022-09-18T02:17:26Z</time>
      </trkpt>
      <trkpt lat="44.11358" lon="6.66638">
        <ele>2313.6</ele>
        <time>2022-09-18T02:17:27Z</time>
      </trkpt>
      <trkpt lat="44.11354" lon="6.66636">
        <ele>2313.7</ele>
        <time>2022-09-18T02:17:28Z</time>
      </trkpt>
      <trkpt lat="44.11354" lon="6.66634">
        <ele>2313.7</ele>
        <time>2022-09-18T02:17:29Z</time>
      </trkpt>
      <trkpt lat="44.11353" lon="6.66632">
        <ele>2313.7</ele>
        <time>2022-09-18T02:17:30Z</time>
      </trkpt>
      <trkpt lat="44.11352" lon="6.66631">
        <ele>2313.7</ele>
        <time>2022-09-18T02:17:31Z</time>
      </trkpt>
      <trkpt lat="44.11348" lon="6.66631">
        <ele>2313.7</ele>
        <time>2022-09-18T02:17:32Z</time>
      </trkpt>
      <trkpt lat="44.11347" lon="6.6663">
        <ele>2313.7</ele>
        <time>2022-09-18T02:17:33Z</time>
      </trkpt>
      <trkpt lat="44.11344" lon="6.66629">
        <ele>2313.7</ele>
        <time>2022-09-18T02:17:34Z</time>
      </trkpt>
      <trkpt lat="44.1134" lon="6.66627">
        <ele>2313.7</ele>
        <time>2022-09-18T02:17:35Z</time>
      </trkpt>
      <trkpt lat="44.11338" lon="6.66625">
        <ele>2313.7</ele>
        <time>2022-09-18T02:17:36Z</time>
      </trkpt>
      <trkpt lat="44.11335" lon="6.66623">
        <ele>2313.8</ele>
        <time>2022-09-18T02:17:37Z</time>
      </trkpt>
      <trkpt lat="44.11333" lon="6.6662">
        <ele>2313.8</ele>
        <time>2022-09-18T02:17:38Z</time>
      </trkpt>
      <trkpt lat="44.1133" lon="6.66617">
        <ele>2313.8</ele>
        <time>2022-09-18T02:17:39Z</time>
      </trkpt>
      <trkpt lat="44.11328" lon="6.66616">
        <ele>2313.8</ele>
        <time>2022-09-18T02:17:40Z</time>
      </trkpt>
      <trkpt lat="44.11325" lon="6.66612">
        <ele>2313.8</ele>
        <time>2022-09-18T02:17:42Z</time>
      </trkpt>
      <trkpt lat="44.11324" lon="6.66611">
        <ele>2313.8</ele>
        <time>2022-09-18T02:17:43Z</time>
      </trkpt>
      <trkpt lat="44.11322" lon="6.6661">
        <ele>2313.8</ele>
        <time>2022-09-18T02:17:44Z</time>
      </trkpt>
      <trkpt lat="44.1132" lon="6.66607">
        <ele>2313.8</ele>
        <time>2022-09-18T02:17:45Z</time>
      </trkpt>
      <trkpt lat="44.11318" lon="6.66605">
        <ele>2313.8</ele>
        <time>2022-09-18T02:17:46Z</time>
      </trkpt>
      <trkpt lat="44.11312" lon="6.666">
        <ele>2313.9</ele>
        <time>2022-09-18T02:17:48Z</time>
      </trkpt>
      <trkpt lat="44.11309" lon="6.66597">
        <ele>2313.9</ele>
        <time>2022-09-18T02:17:49Z</time>
      </trkpt>
      <trkpt lat="44.11307" lon="6.66592">
        <ele>2313.9</ele>
        <time>2022-09-18T02:17:50Z</time>
      </trkpt>
      <trkpt lat="44.11305" lon="6.66588">
        <ele>2314</ele>
        <time>2022-09-18T02:17:51Z</time>
      </trkpt>
      <trkpt lat="44.11303" lon="6.66585">
        <ele>2314</ele>
        <time>2022-09-18T02:17:52Z</time>
      </trkpt>
      <trkpt lat="44.11302" lon="6.66581">
        <ele>2314</ele>
        <time>2022-09-18T02:17:53Z</time>
      </trkpt>
      <trkpt lat="44.113" lon="6.66577">
        <ele>2314</ele>
        <time>2022-09-18T02:17:54Z</time>
      </trkpt>
      <trkpt lat="44.11299" lon="6.66569">
        <ele>2314.1</ele>
        <time>2022-09-18T02:17:55Z</time>
      </trkpt>
      <trkpt lat="44.11299" lon="6.66566">
        <ele>2314.1</ele>
        <time>2022-09-18T02:17:57Z</time>
      </trkpt>
      <trkpt lat="44.11298" lon="6.6656">
        <ele>2314.2</ele>
        <time>2022-09-18T02:17:58Z</time>
      </trkpt>
      <trkpt lat="44.11298" lon="6.66557">
        <ele>2314.3</ele>
        <time>2022-09-18T02:17:59Z</time>
      </trkpt>
      <trkpt lat="44.11296" lon="6.66553">
        <ele>2314.4</ele>
        <time>2022-09-18T02:18:01Z</time>
      </trkpt>
      <trkpt lat="44.11295" lon="6.66549">
        <ele>2314.5</ele>
        <time>2022-09-18T02:18:02Z</time>
      </trkpt>
      <trkpt lat="44.11294" lon="6.66548">
        <ele>2314.5</ele>
        <time>2022-09-18T02:18:03Z</time>
      </trkpt>
      <trkpt lat="44.11293" lon="6.66544">
        <ele>2314.6</ele>
        <time>2022-09-18T02:18:04Z</time>
      </trkpt>
      <trkpt lat="44.11292" lon="6.66542">
        <ele>2314.6</ele>
        <time>2022-09-18T02:18:05Z</time>
      </trkpt>
      <trkpt lat="44.11292" lon="6.66538">
        <ele>2314.7</ele>
        <time>2022-09-18T02:18:06Z</time>
      </trkpt>
      <trkpt lat="44.11291" lon="6.66537">
        <ele>2314.7</ele>
        <time>2022-09-18T02:18:07Z</time>
      </trkpt>
      <trkpt lat="44.11291" lon="6.66534">
        <ele>2314.8</ele>
        <time>2022-09-18T02:18:08Z</time>
      </trkpt>
      <trkpt lat="44.11291" lon="6.66534">
        <ele>2314.8</ele>
        <time>2022-09-18T02:18:09Z</time>
      </trkpt>
      <trkpt lat="44.11291" lon="6.66533">
        <ele>2314.8</ele>
        <time>2022-09-18T02:18:11Z</time>
      </trkpt>
      <trkpt lat="44.11291" lon="6.66533">
        <ele>2314.8</ele>
        <time>2022-09-18T02:18:12Z</time>
      </trkpt>
      <trkpt lat="44.11291" lon="6.66532">
        <ele>2314.9</ele>
        <time>2022-09-18T02:18:13Z</time>
      </trkpt>
      <trkpt lat="44.11291" lon="6.66532">
        <ele>2314.9</ele>
        <time>2022-09-18T02:18:14Z</time>
      </trkpt>
      <trkpt lat="44.11291" lon="6.66531">
        <ele>2314.9</ele>
        <time>2022-09-18T02:18:15Z</time>
      </trkpt>
      <trkpt lat="44.11291" lon="6.6653">
        <ele>2314.9</ele>
        <time>2022-09-18T02:18:17Z</time>
      </trkpt>
      <trkpt lat="44.1129" lon="6.6653">
        <ele>2314.9</ele>
        <time>2022-09-18T02:18:18Z</time>
      </trkpt>
      <trkpt lat="44.1129" lon="6.66529">
        <ele>2314.9</ele>
        <time>2022-09-18T02:18:19Z</time>
      </trkpt>
      <trkpt lat="44.1129" lon="6.66529">
        <ele>2314.9</ele>
        <time>2022-09-18T02:18:20Z</time>
      </trkpt>
      <trkpt lat="44.1129" lon="6.66528">
        <ele>2314.9</ele>
        <time>2022-09-18T02:19:49Z</time>
      </trkpt>
      <trkpt lat="44.1129" lon="6.66527">
        <ele>2315</ele>
        <time>2022-09-18T02:19:50Z</time>
      </trkpt>
      <trkpt lat="44.1129" lon="6.66527">
        <ele>2315</ele>
        <time>2022-09-18T02:19:51Z</time>
      </trkpt>
      <trkpt lat="44.1129" lon="6.66523">
        <ele>2315</ele>
        <time>2022-09-18T02:19:52Z</time>
      </trkpt>
      <trkpt lat="44.11289" lon="6.66519">
        <ele>2315.1</ele>
        <time>2022-09-18T02:19:53Z</time>
      </trkpt>
      <trkpt lat="44.11289" lon="6.66515">
        <ele>2315.2</ele>
        <time>2022-09-18T02:19:54Z</time>
      </trkpt>
      <trkpt lat="44.11289" lon="6.66512">
        <ele>2315.3</ele>
        <time>2022-09-18T02:19:55Z</time>
      </trkpt>
      <trkpt lat="44.11289" lon="6.66504">
        <ele>2315.4</ele>
        <time>2022-09-18T02:19:57Z</time>
      </trkpt>
      <trkpt lat="44.11288" lon="6.66499">
        <ele>2315.5</ele>
        <time>2022-09-18T02:19:58Z</time>
      </trkpt>
      <trkpt lat="44.11288" lon="6.66492">
        <ele>2315.6</ele>
        <time>2022-09-18T02:19:59Z</time>
      </trkpt>
      <trkpt lat="44.11289" lon="6.66487">
        <ele>2315.7</ele>
        <time>2022-09-18T02:20:00Z</time>
      </trkpt>
      <trkpt lat="44.11292" lon="6.6648">
        <ele>2315.9</ele>
        <time>2022-09-18T02:20:02Z</time>
      </trkpt>
      <trkpt lat="44.11295" lon="6.66477">
        <ele>2316</ele>
        <time>2022-09-18T02:20:03Z</time>
      </trkpt>
      <trkpt lat="44.11297" lon="6.66476">
        <ele>2316.1</ele>
        <time>2022-09-18T02:20:04Z</time>
      </trkpt>
      <trkpt lat="44.11298" lon="6.66476">
        <ele>2316.1</ele>
        <time>2022-09-18T02:20:05Z</time>
      </trkpt>
      <trkpt lat="44.11298" lon="6.66474">
        <ele>2316.1</ele>
        <time>2022-09-18T02:20:06Z</time>
      </trkpt>
      <trkpt lat="44.11298" lon="6.66473">
        <ele>2316.1</ele>
        <time>2022-09-18T02:20:07Z</time>
      </trkpt>
      <trkpt lat="44.11297" lon="6.66472">
        <ele>2316.2</ele>
        <time>2022-09-18T02:20:09Z</time>
      </trkpt>
      <trkpt lat="44.11297" lon="6.66471">
        <ele>2316.2</ele>
        <time>2022-09-18T02:20:10Z</time>
      </trkpt>
      <trkpt lat="44.11297" lon="6.66467">
        <ele>2316.3</ele>
        <time>2022-09-18T02:20:11Z</time>
      </trkpt>
      <trkpt lat="44.11297" lon="6.66465">
        <ele>2316.3</ele>
        <time>2022-09-18T02:20:12Z</time>
      </trkpt>
      <trkpt lat="44.11297" lon="6.66462">
        <ele>2316.3</ele>
        <time>2022-09-18T02:20:13Z</time>
      </trkpt>
      <trkpt lat="44.11298" lon="6.66458">
        <ele>2316.4</ele>
        <time>2022-09-18T02:20:15Z</time>
      </trkpt>
      <trkpt lat="44.11299" lon="6.66453">
        <ele>2316.5</ele>
        <time>2022-09-18T02:20:16Z</time>
      </trkpt>
      <trkpt lat="44.11301" lon="6.66447">
        <ele>2316.6</ele>
        <time>2022-09-18T02:20:18Z</time>
      </trkpt>
      <trkpt lat="44.11301" lon="6.66443">
        <ele>2316.7</ele>
        <time>2022-09-18T02:20:19Z</time>
      </trkpt>
      <trkpt lat="44.11302" lon="6.66435">
        <ele>2316.9</ele>
        <time>2022-09-18T02:20:20Z</time>
      </trkpt>
      <trkpt lat="44.11303" lon="6.6643">
        <ele>2317</ele>
        <time>2022-09-18T02:20:22Z</time>
      </trkpt>
      <trkpt lat="44.11305" lon="6.66425">
        <ele>2317.1</ele>
        <time>2022-09-18T02:20:23Z</time>
      </trkpt>
      <trkpt lat="44.11308" lon="6.6642">
        <ele>2317.2</ele>
        <time>2022-09-18T02:20:25Z</time>
      </trkpt>
      <trkpt lat="44.11312" lon="6.66417">
        <ele>2317.2</ele>
        <time>2022-09-18T02:20:26Z</time>
      </trkpt>
      <trkpt lat="44.11314" lon="6.66415">
        <ele>2317.3</ele>
        <time>2022-09-18T02:20:27Z</time>
      </trkpt>
      <trkpt lat="44.11318" lon="6.66413">
        <ele>2317.3</ele>
        <time>2022-09-18T02:20:29Z</time>
      </trkpt>
      <trkpt lat="44.11319" lon="6.66411">
        <ele>2317.3</ele>
        <time>2022-09-18T02:20:30Z</time>
      </trkpt>
      <trkpt lat="44.1132" lon="6.6641">
        <ele>2317.4</ele>
        <time>2022-09-18T02:20:31Z</time>
      </trkpt>
      <trkpt lat="44.11322" lon="6.66408">
        <ele>2317.4</ele>
        <time>2022-09-18T02:20:32Z</time>
      </trkpt>
      <trkpt lat="44.11325" lon="6.66407">
        <ele>2317.5</ele>
        <time>2022-09-18T02:20:33Z</time>
      </trkpt>
      <trkpt lat="44.11331" lon="6.66404">
        <ele>2317.7</ele>
        <time>2022-09-18T02:20:34Z</time>
      </trkpt>
      <trkpt lat="44.11335" lon="6.66403">
        <ele>2317.8</ele>
        <time>2022-09-18T02:20:36Z</time>
      </trkpt>
      <trkpt lat="44.11338" lon="6.66403">
        <ele>2317.9</ele>
        <time>2022-09-18T02:20:37Z</time>
      </trkpt>
      <trkpt lat="44.11343" lon="6.66404">
        <ele>2318</ele>
        <time>2022-09-18T02:20:39Z</time>
      </trkpt>
      <trkpt lat="44.11347" lon="6.66404">
        <ele>2318.1</ele>
        <time>2022-09-18T02:20:40Z</time>
      </trkpt>
      <trkpt lat="44.11348" lon="6.66404">
        <ele>2318.1</ele>
        <time>2022-09-18T02:20:41Z</time>
      </trkpt>
      <trkpt lat="44.11349" lon="6.66403">
        <ele>2318.2</ele>
        <time>2022-09-18T02:20:42Z</time>
      </trkpt>
      <trkpt lat="44.11353" lon="6.66403">
        <ele>2318.2</ele>
        <time>2022-09-18T02:20:43Z</time>
      </trkpt>
      <trkpt lat="44.11356" lon="6.66404">
        <ele>2318.2</ele>
        <time>2022-09-18T02:20:45Z</time>
      </trkpt>
      <trkpt lat="44.11358" lon="6.66404">
        <ele>2318.2</ele>
        <time>2022-09-18T02:20:46Z</time>
      </trkpt>
      <trkpt lat="44.11359" lon="6.66404">
        <ele>2318.2</ele>
        <time>2022-09-18T02:20:47Z</time>
      </trkpt>
      <trkpt lat="44.1136" lon="6.66404">
        <ele>2318.3</ele>
        <time>2022-09-18T02:20:48Z</time>
      </trkpt>
      <trkpt lat="44.11363" lon="6.66404">
        <ele>2318.3</ele>
        <time>2022-09-18T02:20:49Z</time>
      </trkpt>
      <trkpt lat="44.11365" lon="6.66403">
        <ele>2318.3</ele>
        <time>2022-09-18T02:20:50Z</time>
      </trkpt>
      <trkpt lat="44.11368" lon="6.66405">
        <ele>2318.4</ele>
        <time>2022-09-18T02:20:51Z</time>
      </trkpt>
      <trkpt lat="44.11372" lon="6.66407">
        <ele>2318.4</ele>
        <time>2022-09-18T02:20:52Z</time>
      </trkpt>
      <trkpt lat="44.11377" lon="6.66406">
        <ele>2318.6</ele>
        <time>2022-09-18T02:20:54Z</time>
      </trkpt>
      <trkpt lat="44.11378" lon="6.66404">
        <ele>2318.5</ele>
        <time>2022-09-18T02:20:55Z</time>
      </trkpt>
      <trkpt lat="44.1138" lon="6.66402">
        <ele>2318.5</ele>
        <time>2022-09-18T02:20:56Z</time>
      </trkpt>
      <trkpt lat="44.1138" lon="6.66398">
        <ele>2318.4</ele>
        <time>2022-09-18T02:20:57Z</time>
      </trkpt>
      <trkpt lat="44.11379" lon="6.66393">
        <ele>2318.3</ele>
        <time>2022-09-18T02:20:59Z</time>
      </trkpt>
      <trkpt lat="44.11381" lon="6.66389">
        <ele>2318.3</ele>
        <time>2022-09-18T02:21:00Z</time>
      </trkpt>
      <trkpt lat="44.11383" lon="6.66386">
        <ele>2318.2</ele>
        <time>2022-09-18T02:21:01Z</time>
      </trkpt>
      <trkpt lat="44.11386" lon="6.66384">
        <ele>2318.2</ele>
        <time>2022-09-18T02:21:02Z</time>
      </trkpt>
      <trkpt lat="44.11388" lon="6.66383">
        <ele>2318.1</ele>
        <time>2022-09-18T02:21:03Z</time>
      </trkpt>
      <trkpt lat="44.11395" lon="6.66381">
        <ele>2318</ele>
        <time>2022-09-18T02:21:04Z</time>
      </trkpt>
      <trkpt lat="44.11397" lon="6.66377">
        <ele>2318</ele>
        <time>2022-09-18T02:21:06Z</time>
      </trkpt>
      <trkpt lat="44.11397" lon="6.66373">
        <ele>2317.9</ele>
        <time>2022-09-18T02:21:07Z</time>
      </trkpt>
      <trkpt lat="44.11398" lon="6.66368">
        <ele>2317.8</ele>
        <time>2022-09-18T02:21:08Z</time>
      </trkpt>
      <trkpt lat="44.11399" lon="6.66366">
        <ele>2317.8</ele>
        <time>2022-09-18T02:21:09Z</time>
      </trkpt>
      <trkpt lat="44.11401" lon="6.66363">
        <ele>2317.7</ele>
        <time>2022-09-18T02:21:10Z</time>
      </trkpt>
      <trkpt lat="44.11403" lon="6.66361">
        <ele>2317.7</ele>
        <time>2022-09-18T02:21:11Z</time>
      </trkpt>
      <trkpt lat="44.11406" lon="6.66358">
        <ele>2317.6</ele>
        <time>2022-09-18T02:21:12Z</time>
      </trkpt>
      <trkpt lat="44.11408" lon="6.66356">
        <ele>2317.5</ele>
        <time>2022-09-18T02:21:13Z</time>
      </trkpt>
      <trkpt lat="44.11412" lon="6.66354">
        <ele>2317.4</ele>
        <time>2022-09-18T02:21:14Z</time>
      </trkpt>
      <trkpt lat="44.11416" lon="6.66351">
        <ele>2317.4</ele>
        <time>2022-09-18T02:21:15Z</time>
      </trkpt>
      <trkpt lat="44.1142" lon="6.6635">
        <ele>2317.3</ele>
        <time>2022-09-18T02:21:17Z</time>
      </trkpt>
      <trkpt lat="44.11423" lon="6.6635">
        <ele>2317.3</ele>
        <time>2022-09-18T02:21:18Z</time>
      </trkpt>
      <trkpt lat="44.11426" lon="6.66349">
        <ele>2317.2</ele>
        <time>2022-09-18T02:21:19Z</time>
      </trkpt>
      <trkpt lat="44.11432" lon="6.66348">
        <ele>2317.1</ele>
        <time>2022-09-18T02:21:20Z</time>
      </trkpt>
      <trkpt lat="44.11436" lon="6.66349">
        <ele>2317.1</ele>
        <time>2022-09-18T02:21:22Z</time>
      </trkpt>
      <trkpt lat="44.11439" lon="6.6635">
        <ele>2317.1</ele>
        <time>2022-09-18T02:21:23Z</time>
      </trkpt>
      <trkpt lat="44.11443" lon="6.66351">
        <ele>2317.1</ele>
        <time>2022-09-18T02:21:24Z</time>
      </trkpt>
      <trkpt lat="44.11447" lon="6.66352">
        <ele>2317.1</ele>
        <time>2022-09-18T02:21:25Z</time>
      </trkpt>
      <trkpt lat="44.11451" lon="6.66352">
        <ele>2317.1</ele>
        <time>2022-09-18T02:21:27Z</time>
      </trkpt>
      <trkpt lat="44.11456" lon="6.66351">
        <ele>2317.1</ele>
        <time>2022-09-18T02:21:28Z</time>
      </trkpt>
      <trkpt lat="44.11459" lon="6.6635">
        <ele>2317.1</ele>
        <time>2022-09-18T02:21:29Z</time>
      </trkpt>
      <trkpt lat="44.11461" lon="6.66349">
        <ele>2317.1</ele>
        <time>2022-09-18T02:21:31Z</time>
      </trkpt>
      <trkpt lat="44.11465" lon="6.66347">
        <ele>2317.1</ele>
        <time>2022-09-18T02:21:32Z</time>
      </trkpt>
      <trkpt lat="44.11469" lon="6.66344">
        <ele>2317.1</ele>
        <time>2022-09-18T02:21:34Z</time>
      </trkpt>
      <trkpt lat="44.11472" lon="6.66342">
        <ele>2317.1</ele>
        <time>2022-09-18T02:21:35Z</time>
      </trkpt>
      <trkpt lat="44.11473" lon="6.66341">
        <ele>2317.1</ele>
        <time>2022-09-18T02:21:36Z</time>
      </trkpt>
      <trkpt lat="44.11476" lon="6.66337">
        <ele>2317</ele>
        <time>2022-09-18T02:21:37Z</time>
      </trkpt>
      <trkpt lat="44.11478" lon="6.66336">
        <ele>2317</ele>
        <time>2022-09-18T02:21:38Z</time>
      </trkpt>
      <trkpt lat="44.1148" lon="6.66333">
        <ele>2316.9</ele>
        <time>2022-09-18T02:21:39Z</time>
      </trkpt>
      <trkpt lat="44.11481" lon="6.66327">
        <ele>2316.8</ele>
        <time>2022-09-18T02:21:42Z</time>
      </trkpt>
      <trkpt lat="44.11483" lon="6.66325">
        <ele>2316.8</ele>
        <time>2022-09-18T02:21:44Z</time>
      </trkpt>
      <trkpt lat="44.11487" lon="6.6632">
        <ele>2316.6</ele>
        <time>2022-09-18T02:21:45Z</time>
      </trkpt>
      <trkpt lat="44.11488" lon="6.66318">
        <ele>2316.6</ele>
        <time>2022-09-18T02:21:46Z</time>
      </trkpt>
      <trkpt lat="44.1149" lon="6.66315">
        <ele>2316.5</ele>
        <time>2022-09-18T02:21:47Z</time>
      </trkpt>
      <trkpt lat="44.11493" lon="6.66311">
        <ele>2316.4</ele>
        <time>2022-09-18T02:21:49Z</time>
      </trkpt>
      <trkpt lat="44.11493" lon="6.66309">
        <ele>2316.3</ele>
        <time>2022-09-18T02:21:50Z</time>
      </trkpt>
      <trkpt lat="44.11495" lon="6.66306">
        <ele>2316.3</ele>
        <time>2022-09-18T02:21:51Z</time>
      </trkpt>
      <trkpt lat="44.11497" lon="6.66302">
        <ele>2316.2</ele>
        <time>2022-09-18T02:21:52Z</time>
      </trkpt>
      <trkpt lat="44.115" lon="6.66298">
        <ele>2316.2</ele>
        <time>2022-09-18T02:21:53Z</time>
      </trkpt>
      <trkpt lat="44.11502" lon="6.66296">
        <ele>2316.2</ele>
        <time>2022-09-18T02:21:54Z</time>
      </trkpt>
      <trkpt lat="44.11504" lon="6.66295">
        <ele>2316.2</ele>
        <time>2022-09-18T02:21:55Z</time>
      </trkpt>
      <trkpt lat="44.11505" lon="6.66297">
        <ele>2316.2</ele>
        <time>2022-09-18T02:21:57Z</time>
      </trkpt>
      <trkpt lat="44.11505" lon="6.66297">
        <ele>2316.2</ele>
        <time>2022-09-18T02:21:59Z</time>
      </trkpt>
      <trkpt lat="44.11506" lon="6.66297">
        <ele>2316.2</ele>
        <time>2022-09-18T02:22:00Z</time>
      </trkpt>
      <trkpt lat="44.11506" lon="6.66296">
        <ele>2316.2</ele>
        <time>2022-09-18T02:22:01Z</time>
      </trkpt>
      <trkpt lat="44.11506" lon="6.66296">
        <ele>2316.2</ele>
        <time>2022-09-18T02:22:02Z</time>
      </trkpt>
      <trkpt lat="44.11506" lon="6.66296">
        <ele>2316.2</ele>
        <time>2022-09-18T02:22:03Z</time>
      </trkpt>
      <trkpt lat="44.11507" lon="6.66295">
        <ele>2316.2</ele>
        <time>2022-09-18T02:22:04Z</time>
      </trkpt>
      <trkpt lat="44.11509" lon="6.66293">
        <ele>2316.2</ele>
        <time>2022-09-18T02:22:05Z</time>
      </trkpt>
      <trkpt lat="44.1151" lon="6.66292">
        <ele>2316.2</ele>
        <time>2022-09-18T02:22:07Z</time>
      </trkpt>
      <trkpt lat="44.1151" lon="6.66291">
        <ele>2316.2</ele>
        <time>2022-09-18T02:22:08Z</time>
      </trkpt>
      <trkpt lat="44.11511" lon="6.6629">
        <ele>2316.2</ele>
        <time>2022-09-18T02:22:09Z</time>
      </trkpt>
      <trkpt lat="44.11512" lon="6.66287">
        <ele>2316.2</ele>
        <time>2022-09-18T02:22:10Z</time>
      </trkpt>
      <trkpt lat="44.11515" lon="6.66284">
        <ele>2316.1</ele>
        <time>2022-09-18T02:22:11Z</time>
      </trkpt>
      <trkpt lat="44.11517" lon="6.66278">
        <ele>2316</ele>
        <time>2022-09-18T02:22:13Z</time>
      </trkpt>
      <trkpt lat="44.11518" lon="6.6627">
        <ele>2315.8</ele>
        <time>2022-09-18T02:22:14Z</time>
      </trkpt>
      <trkpt lat="44.11519" lon="6.66264">
        <ele>2315.6</ele>
        <time>2022-09-18T02:22:15Z</time>
      </trkpt>
      <trkpt lat="44.11521" lon="6.66259">
        <ele>2315.4</ele>
        <time>2022-09-18T02:22:16Z</time>
      </trkpt>
      <trkpt lat="44.11524" lon="6.66257">
        <ele>2315.3</ele>
        <time>2022-09-18T02:22:18Z</time>
      </trkpt>
      <trkpt lat="44.11526" lon="6.66256">
        <ele>2315.2</ele>
        <time>2022-09-18T02:22:19Z</time>
      </trkpt>
      <trkpt lat="44.11529" lon="6.66254">
        <ele>2315.2</ele>
        <time>2022-09-18T02:22:21Z</time>
      </trkpt>
      <trkpt lat="44.11529" lon="6.66254">
        <ele>2315.1</ele>
        <time>2022-09-18T02:22:22Z</time>
      </trkpt>
      <trkpt lat="44.11527" lon="6.66254">
        <ele>2315.1</ele>
        <time>2022-09-18T02:22:23Z</time>
      </trkpt>
      <trkpt lat="44.11527" lon="6.66253">
        <ele>2315.1</ele>
        <time>2022-09-18T02:22:24Z</time>
      </trkpt>
      <trkpt lat="44.11527" lon="6.66252">
        <ele>2315.1</ele>
        <time>2022-09-18T02:22:26Z</time>
      </trkpt>
      <trkpt lat="44.11527" lon="6.66251">
        <ele>2315</ele>
        <time>2022-09-18T02:22:27Z</time>
      </trkpt>
      <trkpt lat="44.11527" lon="6.6625">
        <ele>2315</ele>
        <time>2022-09-18T02:22:28Z</time>
      </trkpt>
      <trkpt lat="44.11527" lon="6.66248">
        <ele>2315</ele>
        <time>2022-09-18T02:22:29Z</time>
      </trkpt>
      <trkpt lat="44.11527" lon="6.66248">
        <ele>2314.9</ele>
        <time>2022-09-18T02:22:30Z</time>
      </trkpt>
      <trkpt lat="44.11527" lon="6.66247">
        <ele>2314.9</ele>
        <time>2022-09-18T02:22:31Z</time>
      </trkpt>
      <trkpt lat="44.11527" lon="6.66247">
        <ele>2314.9</ele>
        <time>2022-09-18T02:22:33Z</time>
      </trkpt>
      <trkpt lat="44.11527" lon="6.66246">
        <ele>2314.9</ele>
        <time>2022-09-18T02:22:34Z</time>
      </trkpt>
      <trkpt lat="44.11527" lon="6.66241">
        <ele>2314.8</ele>
        <time>2022-09-18T02:22:35Z</time>
      </trkpt>
      <trkpt lat="44.11527" lon="6.6624">
        <ele>2314.7</ele>
        <time>2022-09-18T02:22:36Z</time>
      </trkpt>
      <trkpt lat="44.11527" lon="6.66239">
        <ele>2314.7</ele>
        <time>2022-09-18T02:22:38Z</time>
      </trkpt>
      <trkpt lat="44.11527" lon="6.66239">
        <ele>2314.7</ele>
        <time>2022-09-18T02:22:39Z</time>
      </trkpt>
      <trkpt lat="44.11527" lon="6.66239">
        <ele>2314.7</ele>
        <time>2022-09-18T02:22:41Z</time>
      </trkpt>
      <trkpt lat="44.11527" lon="6.66239">
        <ele>2314.7</ele>
        <time>2022-09-18T02:22:42Z</time>
      </trkpt>
      <trkpt lat="44.11527" lon="6.66239">
        <ele>2314.7</ele>
        <time>2022-09-18T02:22:43Z</time>
      </trkpt>
      <trkpt lat="44.11527" lon="6.66239">
        <ele>2314.7</ele>
        <time>2022-09-18T02:22:45Z</time>
      </trkpt>
      <trkpt lat="44.11527" lon="6.66239">
        <ele>2314.6</ele>
        <time>2022-09-18T02:22:46Z</time>
      </trkpt>
      <trkpt lat="44.11527" lon="6.66239">
        <ele>2314.6</ele>
        <time>2022-09-18T02:22:48Z</time>
      </trkpt>
      <trkpt lat="44.11527" lon="6.66239">
        <ele>2314.6</ele>
        <time>2022-09-18T02:22:49Z</time>
      </trkpt>
      <trkpt lat="44.11527" lon="6.66237">
        <ele>2314.6</ele>
        <time>2022-09-18T02:22:57Z</time>
      </trkpt>
      <trkpt lat="44.11529" lon="6.66236">
        <ele>2314.5</ele>
        <time>2022-09-18T02:22:58Z</time>
      </trkpt>
      <trkpt lat="44.11532" lon="6.66233">
        <ele>2314.4</ele>
        <time>2022-09-18T02:23:00Z</time>
      </trkpt>
      <trkpt lat="44.11534" lon="6.66229">
        <ele>2314.2</ele>
        <time>2022-09-18T02:23:01Z</time>
      </trkpt>
      <trkpt lat="44.11535" lon="6.66224">
        <ele>2313.9</ele>
        <time>2022-09-18T02:23:02Z</time>
      </trkpt>
      <trkpt lat="44.11535" lon="6.66217">
        <ele>2313.7</ele>
        <time>2022-09-18T02:23:03Z</time>
      </trkpt>
      <trkpt lat="44.11535" lon="6.66212">
        <ele>2313.4</ele>
        <time>2022-09-18T02:23:04Z</time>
      </trkpt>
      <trkpt lat="44.11536" lon="6.66204">
        <ele>2313.1</ele>
        <time>2022-09-18T02:23:06Z</time>
      </trkpt>
      <trkpt lat="44.11538" lon="6.66197">
        <ele>2312.7</ele>
        <time>2022-09-18T02:23:07Z</time>
      </trkpt>
      <trkpt lat="44.11541" lon="6.6619">
        <ele>2312.4</ele>
        <time>2022-09-18T02:23:09Z</time>
      </trkpt>
      <trkpt lat="44.11546" lon="6.66184">
        <ele>2312</ele>
        <time>2022-09-18T02:23:10Z</time>
      </trkpt>
      <trkpt lat="44.11551" lon="6.6618">
        <ele>2311.6</ele>
        <time>2022-09-18T02:23:11Z</time>
      </trkpt>
      <trkpt lat="44.11554" lon="6.66176">
        <ele>2311.4</ele>
        <time>2022-09-18T02:23:12Z</time>
      </trkpt>
      <trkpt lat="44.11557" lon="6.66174">
        <ele>2311.2</ele>
        <time>2022-09-18T02:23:13Z</time>
      </trkpt>
      <trkpt lat="44.1156" lon="6.66171">
        <ele>2311</ele>
        <time>2022-09-18T02:23:14Z</time>
      </trkpt>
      <trkpt lat="44.1156" lon="6.66169">
        <ele>2310.9</ele>
        <time>2022-09-18T02:23:15Z</time>
      </trkpt>
      <trkpt lat="44.1156" lon="6.66164">
        <ele>2310.8</ele>
        <time>2022-09-18T02:23:16Z</time>
      </trkpt>
      <trkpt lat="44.1156" lon="6.6616">
        <ele>2310.7</ele>
        <time>2022-09-18T02:23:17Z</time>
      </trkpt>
      <trkpt lat="44.11563" lon="6.66156">
        <ele>2310.6</ele>
        <time>2022-09-18T02:23:19Z</time>
      </trkpt>
      <trkpt lat="44.11565" lon="6.66155">
        <ele>2310.6</ele>
        <time>2022-09-18T02:23:20Z</time>
      </trkpt>
      <trkpt lat="44.11566" lon="6.66154">
        <ele>2310.5</ele>
        <time>2022-09-18T02:23:21Z</time>
      </trkpt>
      <trkpt lat="44.11569" lon="6.66154">
        <ele>2310.5</ele>
        <time>2022-09-18T02:23:22Z</time>
      </trkpt>
      <trkpt lat="44.11572" lon="6.66154">
        <ele>2310.4</ele>
        <time>2022-09-18T02:23:24Z</time>
      </trkpt>
      <trkpt lat="44.11576" lon="6.66154">
        <ele>2310.4</ele>
        <time>2022-09-18T02:23:25Z</time>
      </trkpt>
      <trkpt lat="44.1158" lon="6.66153">
        <ele>2310.3</ele>
        <time>2022-09-18T02:23:26Z</time>
      </trkpt>
      <trkpt lat="44.11581" lon="6.66153">
        <ele>2310.3</ele>
        <time>2022-09-18T02:23:27Z</time>
      </trkpt>
      <trkpt lat="44.11584" lon="6.66151">
        <ele>2310.3</ele>
        <time>2022-09-18T02:23:28Z</time>
      </trkpt>
      <trkpt lat="44.11585" lon="6.6615">
        <ele>2310.3</ele>
        <time>2022-09-18T02:23:29Z</time>
      </trkpt>
      <trkpt lat="44.11588" lon="6.66147">
        <ele>2310.3</ele>
        <time>2022-09-18T02:23:31Z</time>
      </trkpt>
      <trkpt lat="44.11589" lon="6.66146">
        <ele>2310.3</ele>
        <time>2022-09-18T02:23:32Z</time>
      </trkpt>
      <trkpt lat="44.11593" lon="6.66143">
        <ele>2310.3</ele>
        <time>2022-09-18T02:23:33Z</time>
      </trkpt>
      <trkpt lat="44.11596" lon="6.66139">
        <ele>2310.2</ele>
        <time>2022-09-18T02:23:35Z</time>
      </trkpt>
      <trkpt lat="44.11596" lon="6.66132">
        <ele>2310.2</ele>
        <time>2022-09-18T02:23:36Z</time>
      </trkpt>
      <trkpt lat="44.11595" lon="6.66127">
        <ele>2310.1</ele>
        <time>2022-09-18T02:23:37Z</time>
      </trkpt>
      <trkpt lat="44.11593" lon="6.66122">
        <ele>2310</ele>
        <time>2022-09-18T02:23:39Z</time>
      </trkpt>
      <trkpt lat="44.11592" lon="6.66114">
        <ele>2309.8</ele>
        <time>2022-09-18T02:23:40Z</time>
      </trkpt>
      <trkpt lat="44.1159" lon="6.66106">
        <ele>2309.4</ele>
        <time>2022-09-18T02:23:42Z</time>
      </trkpt>
      <trkpt lat="44.11588" lon="6.66101">
        <ele>2309.1</ele>
        <time>2022-09-18T02:23:43Z</time>
      </trkpt>
      <trkpt lat="44.11586" lon="6.66096">
        <ele>2308.7</ele>
        <time>2022-09-18T02:23:44Z</time>
      </trkpt>
      <trkpt lat="44.11585" lon="6.66087">
        <ele>2308.1</ele>
        <time>2022-09-18T02:23:45Z</time>
      </trkpt>
      <trkpt lat="44.11584" lon="6.66077">
        <ele>2307.5</ele>
        <time>2022-09-18T02:23:47Z</time>
      </trkpt>
      <trkpt lat="44.11584" lon="6.66071">
        <ele>2307.1</ele>
        <time>2022-09-18T02:23:48Z</time>
      </trkpt>
      <trkpt lat="44.11584" lon="6.66066">
        <ele>2306.9</ele>
        <time>2022-09-18T02:23:49Z</time>
      </trkpt>
      <trkpt lat="44.11584" lon="6.66061">
        <ele>2306.7</ele>
        <time>2022-09-18T02:23:50Z</time>
      </trkpt>
      <trkpt lat="44.11584" lon="6.66055">
        <ele>2306.4</ele>
        <time>2022-09-18T02:23:51Z</time>
      </trkpt>
      <trkpt lat="44.11585" lon="6.66047">
        <ele>2306</ele>
        <time>2022-09-18T02:23:53Z</time>
      </trkpt>
      <trkpt lat="44.11587" lon="6.66038">
        <ele>2305.6</ele>
        <time>2022-09-18T02:23:55Z</time>
      </trkpt>
      <trkpt lat="44.1159" lon="6.66033">
        <ele>2305.4</ele>
        <time>2022-09-18T02:23:56Z</time>
      </trkpt>
      <trkpt lat="44.11592" lon="6.66029">
        <ele>2305.3</ele>
        <time>2022-09-18T02:23:57Z</time>
      </trkpt>
      <trkpt lat="44.11594" lon="6.66025">
        <ele>2305.1</ele>
        <time>2022-09-18T02:23:58Z</time>
      </trkpt>
      <trkpt lat="44.11596" lon="6.66023">
        <ele>2305</ele>
        <time>2022-09-18T02:23:59Z</time>
      </trkpt>
      <trkpt lat="44.11599" lon="6.66019">
        <ele>2304.8</ele>
        <time>2022-09-18T02:24:00Z</time>
      </trkpt>
      <trkpt lat="44.11599" lon="6.66014">
        <ele>2304.7</ele>
        <time>2022-09-18T02:24:01Z</time>
      </trkpt>
      <trkpt lat="44.11598" lon="6.66009">
        <ele>2304.5</ele>
        <time>2022-09-18T02:24:02Z</time>
      </trkpt>
      <trkpt lat="44.11596" lon="6.66002">
        <ele>2304.2</ele>
        <time>2022-09-18T02:24:03Z</time>
      </trkpt>
      <trkpt lat="44.11594" lon="6.65996">
        <ele>2303.9</ele>
        <time>2022-09-18T02:24:04Z</time>
      </trkpt>
      <trkpt lat="44.11595" lon="6.65984">
        <ele>2303.4</ele>
        <time>2022-09-18T02:24:06Z</time>
      </trkpt>
      <trkpt lat="44.11598" lon="6.65975">
        <ele>2303</ele>
        <time>2022-09-18T02:24:08Z</time>
      </trkpt>
      <trkpt lat="44.11599" lon="6.65969">
        <ele>2302.7</ele>
        <time>2022-09-18T02:24:10Z</time>
      </trkpt>
      <trkpt lat="44.11601" lon="6.65965">
        <ele>2302.5</ele>
        <time>2022-09-18T02:24:11Z</time>
      </trkpt>
      <trkpt lat="44.11604" lon="6.65963">
        <ele>2302.2</ele>
        <time>2022-09-18T02:24:12Z</time>
      </trkpt>
      <trkpt lat="44.11606" lon="6.65961">
        <ele>2302</ele>
        <time>2022-09-18T02:24:13Z</time>
      </trkpt>
      <trkpt lat="44.11609" lon="6.65956">
        <ele>2301.7</ele>
        <time>2022-09-18T02:24:14Z</time>
      </trkpt>
      <trkpt lat="44.11609" lon="6.65952">
        <ele>2301.4</ele>
        <time>2022-09-18T02:24:15Z</time>
      </trkpt>
      <trkpt lat="44.11609" lon="6.65948">
        <ele>2301.2</ele>
        <time>2022-09-18T02:24:16Z</time>
      </trkpt>
      <trkpt lat="44.11606" lon="6.65943">
        <ele>2300.8</ele>
        <time>2022-09-18T02:24:17Z</time>
      </trkpt>
      <trkpt lat="44.11602" lon="6.65936">
        <ele>2300.5</ele>
        <time>2022-09-18T02:24:19Z</time>
      </trkpt>
      <trkpt lat="44.11599" lon="6.65933">
        <ele>2300.4</ele>
        <time>2022-09-18T02:24:20Z</time>
      </trkpt>
      <trkpt lat="44.11598" lon="6.65933">
        <ele>2300.3</ele>
        <time>2022-09-18T02:24:21Z</time>
      </trkpt>
      <trkpt lat="44.11597" lon="6.65934">
        <ele>2300.3</ele>
        <time>2022-09-18T02:24:23Z</time>
      </trkpt>
      <trkpt lat="44.11598" lon="6.65936">
        <ele>2300.3</ele>
        <time>2022-09-18T02:24:24Z</time>
      </trkpt>
      <trkpt lat="44.11598" lon="6.65937">
        <ele>2300.3</ele>
        <time>2022-09-18T02:24:25Z</time>
      </trkpt>
      <trkpt lat="44.11598" lon="6.65938">
        <ele>2300.3</ele>
        <time>2022-09-18T02:24:26Z</time>
      </trkpt>
      <trkpt lat="44.11598" lon="6.65938">
        <ele>2300.3</ele>
        <time>2022-09-18T02:24:27Z</time>
      </trkpt>
      <trkpt lat="44.11597" lon="6.65938">
        <ele>2300.3</ele>
        <time>2022-09-18T02:24:28Z</time>
      </trkpt>
      <trkpt lat="44.11597" lon="6.65937">
        <ele>2300.3</ele>
        <time>2022-09-18T02:24:29Z</time>
      </trkpt>
      <trkpt lat="44.11597" lon="6.65936">
        <ele>2300.3</ele>
        <time>2022-09-18T02:24:30Z</time>
      </trkpt>
      <trkpt lat="44.11597" lon="6.65936">
        <ele>2300.3</ele>
        <time>2022-09-18T02:24:31Z</time>
      </trkpt>
      <trkpt lat="44.11597" lon="6.65935">
        <ele>2300.3</ele>
        <time>2022-09-18T02:24:32Z</time>
      </trkpt>
      <trkpt lat="44.11597" lon="6.65935">
        <ele>2300.3</ele>
        <time>2022-09-18T02:24:33Z</time>
      </trkpt>
      <trkpt lat="44.11597" lon="6.65935">
        <ele>2300.3</ele>
        <time>2022-09-18T02:24:35Z</time>
      </trkpt>
      <trkpt lat="44.11597" lon="6.65935">
        <ele>2300.3</ele>
        <time>2022-09-18T02:24:36Z</time>
      </trkpt>
      <trkpt lat="44.11598" lon="6.65935">
        <ele>2300.3</ele>
        <time>2022-09-18T02:24:37Z</time>
      </trkpt>
      <trkpt lat="44.11598" lon="6.65934">
        <ele>2300.3</ele>
        <time>2022-09-18T02:24:38Z</time>
      </trkpt>
      <trkpt lat="44.11597" lon="6.65934">
        <ele>2300.3</ele>
        <time>2022-09-18T02:24:44Z</time>
      </trkpt>
      <trkpt lat="44.11597" lon="6.65933">
        <ele>2300.3</ele>
        <time>2022-09-18T02:24:46Z</time>
      </trkpt>
      <trkpt lat="44.11597" lon="6.65933">
        <ele>2300.3</ele>
        <time>2022-09-18T02:24:47Z</time>
      </trkpt>
      <trkpt lat="44.11598" lon="6.65933">
        <ele>2300.3</ele>
        <time>2022-09-18T02:24:48Z</time>
      </trkpt>
      <trkpt lat="44.11598" lon="6.65932">
        <ele>2300.3</ele>
        <time>2022-09-18T02:24:49Z</time>
      </trkpt>
      <trkpt lat="44.11598" lon="6.65932">
        <ele>2300.2</ele>
        <time>2022-09-18T02:24:50Z</time>
      </trkpt>
      <trkpt lat="44.11598" lon="6.65932">
        <ele>2300.2</ele>
        <time>2022-09-18T02:24:51Z</time>
      </trkpt>
      <trkpt lat="44.11598" lon="6.65932">
        <ele>2300.2</ele>
        <time>2022-09-18T02:24:52Z</time>
      </trkpt>
      <trkpt lat="44.11598" lon="6.65932">
        <ele>2300.2</ele>
        <time>2022-09-18T02:24:53Z</time>
      </trkpt>
      <trkpt lat="44.11598" lon="6.65932">
        <ele>2300.2</ele>
        <time>2022-09-18T02:24:54Z</time>
      </trkpt>
      <trkpt lat="44.11598" lon="6.65932">
        <ele>2300.2</ele>
        <time>2022-09-18T02:24:55Z</time>
      </trkpt>
      <trkpt lat="44.11598" lon="6.65931">
        <ele>2300.2</ele>
        <time>2022-09-18T02:24:56Z</time>
      </trkpt>
      <trkpt lat="44.11598" lon="6.65931">
        <ele>2300.2</ele>
        <time>2022-09-18T02:24:57Z</time>
      </trkpt>
      <trkpt lat="44.11598" lon="6.65931">
        <ele>2300.2</ele>
        <time>2022-09-18T02:24:58Z</time>
      </trkpt>
      <trkpt lat="44.11598" lon="6.65931">
        <ele>2300.2</ele>
        <time>2022-09-18T02:24:59Z</time>
      </trkpt>
      <trkpt lat="44.11599" lon="6.65931">
        <ele>2300.2</ele>
        <time>2022-09-18T02:25:00Z</time>
      </trkpt>
      <trkpt lat="44.11599" lon="6.65931">
        <ele>2300.2</ele>
        <time>2022-09-18T02:25:01Z</time>
      </trkpt>
      <trkpt lat="44.11599" lon="6.65932">
        <ele>2300.2</ele>
        <time>2022-09-18T02:25:02Z</time>
      </trkpt>
      <trkpt lat="44.11599" lon="6.65931">
        <ele>2300.2</ele>
        <time>2022-09-18T02:25:04Z</time>
      </trkpt>
      <trkpt lat="44.11599" lon="6.65931">
        <ele>2300.2</ele>
        <time>2022-09-18T02:25:05Z</time>
      </trkpt>
      <trkpt lat="44.11599" lon="6.65931">
        <ele>2300.2</ele>
        <time>2022-09-18T02:25:06Z</time>
      </trkpt>
      <trkpt lat="44.11598" lon="6.6593">
        <ele>2300.2</ele>
        <time>2022-09-18T02:25:07Z</time>
      </trkpt>
      <trkpt lat="44.11598" lon="6.6593">
        <ele>2300.2</ele>
        <time>2022-09-18T02:25:08Z</time>
      </trkpt>
      <trkpt lat="44.11598" lon="6.6593">
        <ele>2300.2</ele>
        <time>2022-09-18T02:25:09Z</time>
      </trkpt>
      <trkpt lat="44.11598" lon="6.65929">
        <ele>2300.2</ele>
        <time>2022-09-18T02:25:10Z</time>
      </trkpt>
      <trkpt lat="44.11598" lon="6.65929">
        <ele>2300.2</ele>
        <time>2022-09-18T02:25:11Z</time>
      </trkpt>
      <trkpt lat="44.11598" lon="6.65929">
        <ele>2300.2</ele>
        <time>2022-09-18T02:25:12Z</time>
      </trkpt>
      <trkpt lat="44.11597" lon="6.65929">
        <ele>2300.2</ele>
        <time>2022-09-18T02:29:07Z</time>
      </trkpt>
      <trkpt lat="44.11597" lon="6.65929">
        <ele>2300.2</ele>
        <time>2022-09-18T02:29:09Z</time>
      </trkpt>
      <trkpt lat="44.11598" lon="6.65929">
        <ele>2300.2</ele>
        <time>2022-09-18T02:29:10Z</time>
      </trkpt>
      <trkpt lat="44.11598" lon="6.6593">
        <ele>2300.2</ele>
        <time>2022-09-18T02:29:11Z</time>
      </trkpt>
      <trkpt lat="44.11598" lon="6.6593">
        <ele>2300.2</ele>
        <time>2022-09-18T02:29:12Z</time>
      </trkpt>
      <trkpt lat="44.11598" lon="6.65929">
        <ele>2300.1</ele>
        <time>2022-09-18T02:29:14Z</time>
      </trkpt>
      <trkpt lat="44.11598" lon="6.65929">
        <ele>2300.1</ele>
        <time>2022-09-18T02:29:15Z</time>
      </trkpt>
      <trkpt lat="44.11598" lon="6.65929">
        <ele>2300.1</ele>
        <time>2022-09-18T02:29:16Z</time>
      </trkpt>
      <trkpt lat="44.11597" lon="6.65929">
        <ele>2300.1</ele>
        <time>2022-09-18T02:29:17Z</time>
      </trkpt>
      <trkpt lat="44.11598" lon="6.65929">
        <ele>2300.1</ele>
        <time>2022-09-18T02:29:19Z</time>
      </trkpt>
      <trkpt lat="44.11598" lon="6.65929">
        <ele>2300.1</ele>
        <time>2022-09-18T02:29:20Z</time>
      </trkpt>
      <trkpt lat="44.11597" lon="6.65929">
        <ele>2300.1</ele>
        <time>2022-09-18T02:29:21Z</time>
      </trkpt>
      <trkpt lat="44.11597" lon="6.65929">
        <ele>2300.1</ele>
        <time>2022-09-18T02:29:22Z</time>
      </trkpt>
      <trkpt lat="44.11597" lon="6.65929">
        <ele>2300.1</ele>
        <time>2022-09-18T02:29:24Z</time>
      </trkpt>
      <trkpt lat="44.11597" lon="6.6593">
        <ele>2300.1</ele>
        <time>2022-09-18T02:29:26Z</time>
      </trkpt>
      <trkpt lat="44.11597" lon="6.6593">
        <ele>2300.1</ele>
        <time>2022-09-18T02:29:27Z</time>
      </trkpt>
      <trkpt lat="44.11598" lon="6.65924">
        <ele>2299.9</ele>
        <time>2022-09-18T02:30:03Z</time>
      </trkpt>
      <trkpt lat="44.116" lon="6.6592">
        <ele>2299.8</ele>
        <time>2022-09-18T02:30:04Z</time>
      </trkpt>
      <trkpt lat="44.11602" lon="6.65914">
        <ele>2299.5</ele>
        <time>2022-09-18T02:30:06Z</time>
      </trkpt>
      <trkpt lat="44.11604" lon="6.6591">
        <ele>2299.3</ele>
        <time>2022-09-18T02:30:08Z</time>
      </trkpt>
      <trkpt lat="44.11604" lon="6.65905">
        <ele>2299.1</ele>
        <time>2022-09-18T02:30:09Z</time>
      </trkpt>
      <trkpt lat="44.11605" lon="6.65895">
        <ele>2298.7</ele>
        <time>2022-09-18T02:30:10Z</time>
      </trkpt>
      <trkpt lat="44.11606" lon="6.65889">
        <ele>2298.5</ele>
        <time>2022-09-18T02:30:12Z</time>
      </trkpt>
      <trkpt lat="44.1161" lon="6.6588">
        <ele>2298.3</ele>
        <time>2022-09-18T02:30:13Z</time>
      </trkpt>
      <trkpt lat="44.11614" lon="6.65877">
        <ele>2298.2</ele>
        <time>2022-09-18T02:30:15Z</time>
      </trkpt>
      <trkpt lat="44.11618" lon="6.65876">
        <ele>2298.1</ele>
        <time>2022-09-18T02:30:16Z</time>
      </trkpt>
      <trkpt lat="44.11622" lon="6.65875">
        <ele>2297.9</ele>
        <time>2022-09-18T02:30:17Z</time>
      </trkpt>
      <trkpt lat="44.11624" lon="6.65873">
        <ele>2297.8</ele>
        <time>2022-09-18T02:30:18Z</time>
      </trkpt>
      <trkpt lat="44.11625" lon="6.65869">
        <ele>2297.7</ele>
        <time>2022-09-18T02:30:19Z</time>
      </trkpt>
      <trkpt lat="44.11624" lon="6.65865">
        <ele>2297.6</ele>
        <time>2022-09-18T02:30:21Z</time>
      </trkpt>
      <trkpt lat="44.11622" lon="6.65856">
        <ele>2297.3</ele>
        <time>2022-09-18T02:30:23Z</time>
      </trkpt>
      <trkpt lat="44.11621" lon="6.65852">
        <ele>2297.1</ele>
        <time>2022-09-18T02:30:24Z</time>
      </trkpt>
      <trkpt lat="44.11622" lon="6.65847">
        <ele>2297</ele>
        <time>2022-09-18T02:30:25Z</time>
      </trkpt>
      <trkpt lat="44.11627" lon="6.65842">
        <ele>2296.5</ele>
        <time>2022-09-18T02:30:26Z</time>
      </trkpt>
      <trkpt lat="44.11632" lon="6.65835">
        <ele>2296.1</ele>
        <time>2022-09-18T02:30:29Z</time>
      </trkpt>
      <trkpt lat="44.11633" lon="6.65831">
        <ele>2295.4</ele>
        <time>2022-09-18T02:30:30Z</time>
      </trkpt>
      <trkpt lat="44.1163" lon="6.65824">
        <ele>2294.4</ele>
        <time>2022-09-18T02:30:31Z</time>
      </trkpt>
      <trkpt lat="44.11629" lon="6.65821">
        <ele>2293.9</ele>
        <time>2022-09-18T02:30:32Z</time>
      </trkpt>
      <trkpt lat="44.11629" lon="6.65814">
        <ele>2292.9</ele>
        <time>2022-09-18T02:30:34Z</time>
      </trkpt>
      <trkpt lat="44.11628" lon="6.65805">
        <ele>2291.2</ele>
        <time>2022-09-18T02:30:35Z</time>
      </trkpt>
      <trkpt lat="44.11628" lon="6.65801">
        <ele>2290.5</ele>
        <time>2022-09-18T02:30:37Z</time>
      </trkpt>
      <trkpt lat="44.11629" lon="6.658">
        <ele>2290.3</ele>
        <time>2022-09-18T02:30:38Z</time>
      </trkpt>
      <trkpt lat="44.11629" lon="6.65799">
        <ele>2290.1</ele>
        <time>2022-09-18T02:30:39Z</time>
      </trkpt>
      <trkpt lat="44.11629" lon="6.65798">
        <ele>2289.9</ele>
        <time>2022-09-18T02:30:40Z</time>
      </trkpt>
      <trkpt lat="44.11629" lon="6.65797">
        <ele>2289.7</ele>
        <time>2022-09-18T02:30:41Z</time>
      </trkpt>
      <trkpt lat="44.11629" lon="6.65796">
        <ele>2289.5</ele>
        <time>2022-09-18T02:30:42Z</time>
      </trkpt>
      <trkpt lat="44.11629" lon="6.65795">
        <ele>2289.3</ele>
        <time>2022-09-18T02:30:43Z</time>
      </trkpt>
      <trkpt lat="44.11629" lon="6.65794">
        <ele>2289</ele>
        <time>2022-09-18T02:30:44Z</time>
      </trkpt>
      <trkpt lat="44.11629" lon="6.65793">
        <ele>2288.8</ele>
        <time>2022-09-18T02:30:45Z</time>
      </trkpt>
      <trkpt lat="44.11629" lon="6.65792">
        <ele>2288.6</ele>
        <time>2022-09-18T02:30:46Z</time>
      </trkpt>
      <trkpt lat="44.11629" lon="6.65791">
        <ele>2288.4</ele>
        <time>2022-09-18T02:30:47Z</time>
      </trkpt>
      <trkpt lat="44.11629" lon="6.6579">
        <ele>2288.2</ele>
        <time>2022-09-18T02:30:48Z</time>
      </trkpt>
      <trkpt lat="44.11629" lon="6.65789">
        <ele>2287.9</ele>
        <time>2022-09-18T02:30:49Z</time>
      </trkpt>
      <trkpt lat="44.11629" lon="6.65788">
        <ele>2287.7</ele>
        <time>2022-09-18T02:32:47Z</time>
      </trkpt>
      <trkpt lat="44.11629" lon="6.65787">
        <ele>2287.5</ele>
        <time>2022-09-18T02:32:48Z</time>
      </trkpt>
      <trkpt lat="44.11631" lon="6.65778">
        <ele>2285.4</ele>
        <time>2022-09-18T02:32:49Z</time>
      </trkpt>
      <trkpt lat="44.11634" lon="6.65768">
        <ele>2283.2</ele>
        <time>2022-09-18T02:32:50Z</time>
      </trkpt>
      <trkpt lat="44.11637" lon="6.65758">
        <ele>2281</ele>
        <time>2022-09-18T02:32:51Z</time>
      </trkpt>
      <trkpt lat="44.11639" lon="6.65748">
        <ele>2278.7</ele>
        <time>2022-09-18T02:32:52Z</time>
      </trkpt>
      <trkpt lat="44.11641" lon="6.65737">
        <ele>2276.2</ele>
        <time>2022-09-18T02:32:53Z</time>
      </trkpt>
      <trkpt lat="44.11642" lon="6.65727">
        <ele>2273.8</ele>
        <time>2022-09-18T02:32:54Z</time>
      </trkpt>
      <trkpt lat="44.11643" lon="6.65717">
        <ele>2271.7</ele>
        <time>2022-09-18T02:32:55Z</time>
      </trkpt>
      <trkpt lat="44.11643" lon="6.65708">
        <ele>2269.7</ele>
        <time>2022-09-18T02:32:56Z</time>
      </trkpt>
      <trkpt lat="44.11645" lon="6.657">
        <ele>2267.5</ele>
        <time>2022-09-18T02:32:57Z</time>
      </trkpt>
      <trkpt lat="44.11647" lon="6.65693">
        <ele>2265.4</ele>
        <time>2022-09-18T02:32:58Z</time>
      </trkpt>
      <trkpt lat="44.1165" lon="6.65686">
        <ele>2263.4</ele>
        <time>2022-09-18T02:32:59Z</time>
      </trkpt>
      <trkpt lat="44.11653" lon="6.65679">
        <ele>2261.3</ele>
        <time>2022-09-18T02:33:00Z</time>
      </trkpt>
      <trkpt lat="44.11656" lon="6.65671">
        <ele>2259</ele>
        <time>2022-09-18T02:33:01Z</time>
      </trkpt>
      <trkpt lat="44.11659" lon="6.65664">
        <ele>2256.9</ele>
        <time>2022-09-18T02:33:02Z</time>
      </trkpt>
      <trkpt lat="44.11663" lon="6.65657">
        <ele>2255.2</ele>
        <time>2022-09-18T02:33:03Z</time>
      </trkpt>
      <trkpt lat="44.11667" lon="6.65652">
        <ele>2254</ele>
        <time>2022-09-18T02:33:04Z</time>
      </trkpt>
      <trkpt lat="44.11671" lon="6.65647">
        <ele>2253.1</ele>
        <time>2022-09-18T02:33:05Z</time>
      </trkpt>
      <trkpt lat="44.11673" lon="6.65644">
        <ele>2252.4</ele>
        <time>2022-09-18T02:33:06Z</time>
      </trkpt>
      <trkpt lat="44.11675" lon="6.65643">
        <ele>2252</ele>
        <time>2022-09-18T02:33:07Z</time>
      </trkpt>
      <trkpt lat="44.11676" lon="6.65641">
        <ele>2251.6</ele>
        <time>2022-09-18T02:33:08Z</time>
      </trkpt>
      <trkpt lat="44.11677" lon="6.65639">
        <ele>2251.1</ele>
        <time>2022-09-18T02:33:09Z</time>
      </trkpt>
      <trkpt lat="44.11678" lon="6.65637">
        <ele>2250.9</ele>
        <time>2022-09-18T02:33:10Z</time>
      </trkpt>
      <trkpt lat="44.11678" lon="6.65636">
        <ele>2250.7</ele>
        <time>2022-09-18T02:33:11Z</time>
      </trkpt>
      <trkpt lat="44.1168" lon="6.65635">
        <ele>2250.3</ele>
        <time>2022-09-18T02:33:12Z</time>
      </trkpt>
      <trkpt lat="44.11681" lon="6.65633">
        <ele>2250</ele>
        <time>2022-09-18T02:33:13Z</time>
      </trkpt>
      <trkpt lat="44.11683" lon="6.6563">
        <ele>2249.2</ele>
        <time>2022-09-18T02:33:14Z</time>
      </trkpt>
      <trkpt lat="44.11684" lon="6.65629">
        <ele>2248.9</ele>
        <time>2022-09-18T02:33:15Z</time>
      </trkpt>
      <trkpt lat="44.11688" lon="6.6563">
        <ele>2248.1</ele>
        <time>2022-09-18T02:33:17Z</time>
      </trkpt>
      <trkpt lat="44.11692" lon="6.65633">
        <ele>2246.8</ele>
        <time>2022-09-18T02:33:18Z</time>
      </trkpt>
      <trkpt lat="44.117" lon="6.65636">
        <ele>2244.7</ele>
        <time>2022-09-18T02:33:20Z</time>
      </trkpt>
      <trkpt lat="44.11704" lon="6.65641">
        <ele>2243.2</ele>
        <time>2022-09-18T02:33:21Z</time>
      </trkpt>
      <trkpt lat="44.1171" lon="6.65642">
        <ele>2241.8</ele>
        <time>2022-09-18T02:33:23Z</time>
      </trkpt>
      <trkpt lat="44.11713" lon="6.65641">
        <ele>2241.1</ele>
        <time>2022-09-18T02:33:24Z</time>
      </trkpt>
      <trkpt lat="44.11718" lon="6.6564">
        <ele>2239.8</ele>
        <time>2022-09-18T02:33:25Z</time>
      </trkpt>
      <trkpt lat="44.11723" lon="6.6564">
        <ele>2238.7</ele>
        <time>2022-09-18T02:33:26Z</time>
      </trkpt>
      <trkpt lat="44.11728" lon="6.65642">
        <ele>2237.5</ele>
        <time>2022-09-18T02:33:27Z</time>
      </trkpt>
      <trkpt lat="44.11734" lon="6.65643">
        <ele>2236.2</ele>
        <time>2022-09-18T02:33:28Z</time>
      </trkpt>
      <trkpt lat="44.11739" lon="6.65645">
        <ele>2234.8</ele>
        <time>2022-09-18T02:33:29Z</time>
      </trkpt>
      <trkpt lat="44.11745" lon="6.65647">
        <ele>2233.5</ele>
        <time>2022-09-18T02:33:30Z</time>
      </trkpt>
      <trkpt lat="44.11751" lon="6.65649">
        <ele>2232.4</ele>
        <time>2022-09-18T02:33:31Z</time>
      </trkpt>
      <trkpt lat="44.11756" lon="6.6565">
        <ele>2231.5</ele>
        <time>2022-09-18T02:33:32Z</time>
      </trkpt>
      <trkpt lat="44.11762" lon="6.65652">
        <ele>2230.6</ele>
        <time>2022-09-18T02:33:33Z</time>
      </trkpt>
      <trkpt lat="44.11767" lon="6.65653">
        <ele>2229.7</ele>
        <time>2022-09-18T02:33:34Z</time>
      </trkpt>
      <trkpt lat="44.11773" lon="6.65653">
        <ele>2228.9</ele>
        <time>2022-09-18T02:33:35Z</time>
      </trkpt>
      <trkpt lat="44.11777" lon="6.65653">
        <ele>2228.3</ele>
        <time>2022-09-18T02:33:36Z</time>
      </trkpt>
      <trkpt lat="44.11781" lon="6.65653">
        <ele>2227.8</ele>
        <time>2022-09-18T02:33:37Z</time>
      </trkpt>
      <trkpt lat="44.11784" lon="6.65654">
        <ele>2227.4</ele>
        <time>2022-09-18T02:33:38Z</time>
      </trkpt>
      <trkpt lat="44.11786" lon="6.65657">
        <ele>2227</ele>
        <time>2022-09-18T02:33:39Z</time>
      </trkpt>
      <trkpt lat="44.1179" lon="6.6566">
        <ele>2226.4</ele>
        <time>2022-09-18T02:33:40Z</time>
      </trkpt>
      <trkpt lat="44.11794" lon="6.65661">
        <ele>2225.9</ele>
        <time>2022-09-18T02:33:41Z</time>
      </trkpt>
      <trkpt lat="44.11798" lon="6.65661">
        <ele>2225.4</ele>
        <time>2022-09-18T02:33:42Z</time>
      </trkpt>
      <trkpt lat="44.118" lon="6.65662">
        <ele>2225</ele>
        <time>2022-09-18T02:33:43Z</time>
      </trkpt>
      <trkpt lat="44.11806" lon="6.65661">
        <ele>2224.2</ele>
        <time>2022-09-18T02:33:44Z</time>
      </trkpt>
      <trkpt lat="44.11812" lon="6.65662">
        <ele>2223.1</ele>
        <time>2022-09-18T02:33:46Z</time>
      </trkpt>
      <trkpt lat="44.11817" lon="6.65667">
        <ele>2221.9</ele>
        <time>2022-09-18T02:33:48Z</time>
      </trkpt>
      <trkpt lat="44.1182" lon="6.65668">
        <ele>2221.4</ele>
        <time>2022-09-18T02:33:50Z</time>
      </trkpt>
      <trkpt lat="44.11823" lon="6.65669">
        <ele>2220.7</ele>
        <time>2022-09-18T02:33:51Z</time>
      </trkpt>
      <trkpt lat="44.11828" lon="6.65668">
        <ele>2220</ele>
        <time>2022-09-18T02:33:52Z</time>
      </trkpt>
      <trkpt lat="44.11832" lon="6.65668">
        <ele>2219.5</ele>
        <time>2022-09-18T02:33:53Z</time>
      </trkpt>
      <trkpt lat="44.11834" lon="6.65668">
        <ele>2219.2</ele>
        <time>2022-09-18T02:33:54Z</time>
      </trkpt>
      <trkpt lat="44.11838" lon="6.65671">
        <ele>2218.9</ele>
        <time>2022-09-18T02:33:56Z</time>
      </trkpt>
      <trkpt lat="44.11839" lon="6.65671">
        <ele>2218.7</ele>
        <time>2022-09-18T02:33:58Z</time>
      </trkpt>
      <trkpt lat="44.11841" lon="6.65671">
        <ele>2218.7</ele>
        <time>2022-09-18T02:33:59Z</time>
      </trkpt>
      <trkpt lat="44.11842" lon="6.6567">
        <ele>2218.6</ele>
        <time>2022-09-18T02:34:00Z</time>
      </trkpt>
      <trkpt lat="44.11842" lon="6.6567">
        <ele>2218.6</ele>
        <time>2022-09-18T02:34:01Z</time>
      </trkpt>
      <trkpt lat="44.11841" lon="6.6567">
        <ele>2218.6</ele>
        <time>2022-09-18T02:34:02Z</time>
      </trkpt>
      <trkpt lat="44.11841" lon="6.65671">
        <ele>2218.6</ele>
        <time>2022-09-18T02:34:03Z</time>
      </trkpt>
      <trkpt lat="44.11841" lon="6.6567">
        <ele>2218.6</ele>
        <time>2022-09-18T02:34:05Z</time>
      </trkpt>
      <trkpt lat="44.11841" lon="6.6567">
        <ele>2218.6</ele>
        <time>2022-09-18T02:34:07Z</time>
      </trkpt>
      <trkpt lat="44.11841" lon="6.65669">
        <ele>2218.5</ele>
        <time>2022-09-18T02:34:09Z</time>
      </trkpt>
      <trkpt lat="44.11842" lon="6.65668">
        <ele>2218.5</ele>
        <time>2022-09-18T02:34:10Z</time>
      </trkpt>
      <trkpt lat="44.11843" lon="6.65666">
        <ele>2218.5</ele>
        <time>2022-09-18T02:34:11Z</time>
      </trkpt>
      <trkpt lat="44.11843" lon="6.65665">
        <ele>2218.6</ele>
        <time>2022-09-18T02:34:12Z</time>
      </trkpt>
      <trkpt lat="44.11844" lon="6.65664">
        <ele>2218.6</ele>
        <time>2022-09-18T02:34:13Z</time>
      </trkpt>
      <trkpt lat="44.11844" lon="6.65663">
        <ele>2218.6</ele>
        <time>2022-09-18T02:34:15Z</time>
      </trkpt>
      <trkpt lat="44.11844" lon="6.65663">
        <ele>2218.6</ele>
        <time>2022-09-18T02:34:16Z</time>
      </trkpt>
      <trkpt lat="44.11844" lon="6.65663">
        <ele>2218.6</ele>
        <time>2022-09-18T02:34:19Z</time>
      </trkpt>
      <trkpt lat="44.11844" lon="6.65663">
        <ele>2218.6</ele>
        <time>2022-09-18T02:34:20Z</time>
      </trkpt>
      <trkpt lat="44.11844" lon="6.65663">
        <ele>2218.6</ele>
        <time>2022-09-18T02:34:23Z</time>
      </trkpt>
      <trkpt lat="44.11844" lon="6.65663">
        <ele>2218.6</ele>
        <time>2022-09-18T02:34:24Z</time>
      </trkpt>
      <trkpt lat="44.11844" lon="6.65662">
        <ele>2218.6</ele>
        <time>2022-09-18T02:34:26Z</time>
      </trkpt>
      <trkpt lat="44.11846" lon="6.6566">
        <ele>2218.7</ele>
        <time>2022-09-18T02:34:33Z</time>
      </trkpt>
      <trkpt lat="44.11846" lon="6.65659">
        <ele>2218.7</ele>
        <time>2022-09-18T02:34:34Z</time>
      </trkpt>
      <trkpt lat="44.11848" lon="6.65657">
        <ele>2218.8</ele>
        <time>2022-09-18T02:34:36Z</time>
      </trkpt>
      <trkpt lat="44.11849" lon="6.65655">
        <ele>2218.9</ele>
        <time>2022-09-18T02:34:37Z</time>
      </trkpt>
      <trkpt lat="44.11849" lon="6.65655">
        <ele>2218.9</ele>
        <time>2022-09-18T02:34:39Z</time>
      </trkpt>
      <trkpt lat="44.1185" lon="6.65654">
        <ele>2218.9</ele>
        <time>2022-09-18T02:34:40Z</time>
      </trkpt>
      <trkpt lat="44.11851" lon="6.65651">
        <ele>2219</ele>
        <time>2022-09-18T02:34:42Z</time>
      </trkpt>
      <trkpt lat="44.11851" lon="6.65649">
        <ele>2219.1</ele>
        <time>2022-09-18T02:34:43Z</time>
      </trkpt>
      <trkpt lat="44.11852" lon="6.65647">
        <ele>2219.1</ele>
        <time>2022-09-18T02:34:45Z</time>
      </trkpt>
      <trkpt lat="44.11853" lon="6.65645">
        <ele>2219.2</ele>
        <time>2022-09-18T02:34:46Z</time>
      </trkpt>
      <trkpt lat="44.11854" lon="6.65644">
        <ele>2219.2</ele>
        <time>2022-09-18T02:34:47Z</time>
      </trkpt>
      <trkpt lat="44.11855" lon="6.65642">
        <ele>2219.2</ele>
        <time>2022-09-18T02:35:41Z</time>
      </trkpt>
      <trkpt lat="44.11856" lon="6.6564">
        <ele>2219.1</ele>
        <time>2022-09-18T02:35:42Z</time>
      </trkpt>
      <trkpt lat="44.11857" lon="6.65638">
        <ele>2219.1</ele>
        <time>2022-09-18T02:35:43Z</time>
      </trkpt>
      <trkpt lat="44.11859" lon="6.65634">
        <ele>2218.9</ele>
        <time>2022-09-18T02:35:44Z</time>
      </trkpt>
      <trkpt lat="44.1186" lon="6.65631">
        <ele>2218.7</ele>
        <time>2022-09-18T02:35:46Z</time>
      </trkpt>
      <trkpt lat="44.11861" lon="6.65629">
        <ele>2218.6</ele>
        <time>2022-09-18T02:35:47Z</time>
      </trkpt>
      <trkpt lat="44.11865" lon="6.65622">
        <ele>2217.9</ele>
        <time>2022-09-18T02:35:48Z</time>
      </trkpt>
      <trkpt lat="44.11868" lon="6.65618">
        <ele>2217.4</ele>
        <time>2022-09-18T02:35:50Z</time>
      </trkpt>
      <trkpt lat="44.11869" lon="6.65614">
        <ele>2216.9</ele>
        <time>2022-09-18T02:35:51Z</time>
      </trkpt>
      <trkpt lat="44.1187" lon="6.6561">
        <ele>2216.3</ele>
        <time>2022-09-18T02:35:52Z</time>
      </trkpt>
      <trkpt lat="44.11871" lon="6.65605">
        <ele>2215.6</ele>
        <time>2022-09-18T02:35:53Z</time>
      </trkpt>
      <trkpt lat="44.11872" lon="6.656">
        <ele>2214.7</ele>
        <time>2022-09-18T02:35:54Z</time>
      </trkpt>
      <trkpt lat="44.11874" lon="6.65594">
        <ele>2213.7</ele>
        <time>2022-09-18T02:35:55Z</time>
      </trkpt>
      <trkpt lat="44.11877" lon="6.65587">
        <ele>2212.3</ele>
        <time>2022-09-18T02:35:56Z</time>
      </trkpt>
      <trkpt lat="44.11881" lon="6.65579">
        <ele>2210.8</ele>
        <time>2022-09-18T02:35:57Z</time>
      </trkpt>
      <trkpt lat="44.11883" lon="6.65572">
        <ele>2209.6</ele>
        <time>2022-09-18T02:35:59Z</time>
      </trkpt>
      <trkpt lat="44.11886" lon="6.65564">
        <ele>2208.2</ele>
        <time>2022-09-18T02:36:00Z</time>
      </trkpt>
      <trkpt lat="44.11888" lon="6.65557">
        <ele>2207</ele>
        <time>2022-09-18T02:36:01Z</time>
      </trkpt>
      <trkpt lat="44.1189" lon="6.65552">
        <ele>2206.3</ele>
        <time>2022-09-18T02:36:03Z</time>
      </trkpt>
      <trkpt lat="44.11892" lon="6.65546">
        <ele>2205.5</ele>
        <time>2022-09-18T02:36:04Z</time>
      </trkpt>
      <trkpt lat="44.11895" lon="6.65539">
        <ele>2204.6</ele>
        <time>2022-09-18T02:36:05Z</time>
      </trkpt>
      <trkpt lat="44.11898" lon="6.65532">
        <ele>2203.8</ele>
        <time>2022-09-18T02:36:06Z</time>
      </trkpt>
      <trkpt lat="44.119" lon="6.65527">
        <ele>2203</ele>
        <time>2022-09-18T02:36:07Z</time>
      </trkpt>
      <trkpt lat="44.11903" lon="6.65523">
        <ele>2202.5</ele>
        <time>2022-09-18T02:36:08Z</time>
      </trkpt>
      <trkpt lat="44.11906" lon="6.65518">
        <ele>2201.6</ele>
        <time>2022-09-18T02:36:09Z</time>
      </trkpt>
      <trkpt lat="44.1191" lon="6.65512">
        <ele>2200.7</ele>
        <time>2022-09-18T02:36:11Z</time>
      </trkpt>
      <trkpt lat="44.11913" lon="6.65507">
        <ele>2199.9</ele>
        <time>2022-09-18T02:36:12Z</time>
      </trkpt>
      <trkpt lat="44.11915" lon="6.65503">
        <ele>2199.4</ele>
        <time>2022-09-18T02:36:13Z</time>
      </trkpt>
      <trkpt lat="44.11919" lon="6.65498">
        <ele>2198.6</ele>
        <time>2022-09-18T02:36:14Z</time>
      </trkpt>
      <trkpt lat="44.11922" lon="6.65493">
        <ele>2197.8</ele>
        <time>2022-09-18T02:36:16Z</time>
      </trkpt>
      <trkpt lat="44.11926" lon="6.65488">
        <ele>2196.9</ele>
        <time>2022-09-18T02:36:17Z</time>
      </trkpt>
      <trkpt lat="44.11929" lon="6.65484">
        <ele>2196.2</ele>
        <time>2022-09-18T02:36:18Z</time>
      </trkpt>
      <trkpt lat="44.11932" lon="6.6548">
        <ele>2195.6</ele>
        <time>2022-09-18T02:36:19Z</time>
      </trkpt>
      <trkpt lat="44.11935" lon="6.65475">
        <ele>2194.9</ele>
        <time>2022-09-18T02:36:20Z</time>
      </trkpt>
      <trkpt lat="44.11941" lon="6.65471">
        <ele>2193.8</ele>
        <time>2022-09-18T02:36:21Z</time>
      </trkpt>
      <trkpt lat="44.11945" lon="6.65466">
        <ele>2192.9</ele>
        <time>2022-09-18T02:36:22Z</time>
      </trkpt>
      <trkpt lat="44.11951" lon="6.65462">
        <ele>2191.8</ele>
        <time>2022-09-18T02:36:23Z</time>
      </trkpt>
      <trkpt lat="44.11955" lon="6.65459">
        <ele>2191.1</ele>
        <time>2022-09-18T02:36:24Z</time>
      </trkpt>
      <trkpt lat="44.11959" lon="6.65459">
        <ele>2190.5</ele>
        <time>2022-09-18T02:36:25Z</time>
      </trkpt>
      <trkpt lat="44.11961" lon="6.65459">
        <ele>2190.2</ele>
        <time>2022-09-18T02:36:26Z</time>
      </trkpt>
      <trkpt lat="44.11964" lon="6.6546">
        <ele>2189.7</ele>
        <time>2022-09-18T02:36:27Z</time>
      </trkpt>
      <trkpt lat="44.11964" lon="6.6546">
        <ele>2189.5</ele>
        <time>2022-09-18T02:36:28Z</time>
      </trkpt>
      <trkpt lat="44.1196" lon="6.65459">
        <ele>2188.8</ele>
        <time>2022-09-18T02:36:29Z</time>
      </trkpt>
      <trkpt lat="44.11957" lon="6.65458">
        <ele>2188.3</ele>
        <time>2022-09-18T02:36:30Z</time>
      </trkpt>
      <trkpt lat="44.11954" lon="6.65456">
        <ele>2187.8</ele>
        <time>2022-09-18T02:36:32Z</time>
      </trkpt>
      <trkpt lat="44.11951" lon="6.65455">
        <ele>2187.3</ele>
        <time>2022-09-18T02:36:33Z</time>
      </trkpt>
      <trkpt lat="44.11946" lon="6.65455">
        <ele>2186.4</ele>
        <time>2022-09-18T02:36:34Z</time>
      </trkpt>
      <trkpt lat="44.11941" lon="6.65456">
        <ele>2185.7</ele>
        <time>2022-09-18T02:36:35Z</time>
      </trkpt>
      <trkpt lat="44.11934" lon="6.65457">
        <ele>2184.5</ele>
        <time>2022-09-18T02:36:36Z</time>
      </trkpt>
      <trkpt lat="44.11925" lon="6.65459">
        <ele>2183</ele>
        <time>2022-09-18T02:36:38Z</time>
      </trkpt>
      <trkpt lat="44.11919" lon="6.65461">
        <ele>2182.1</ele>
        <time>2022-09-18T02:36:39Z</time>
      </trkpt>
      <trkpt lat="44.11914" lon="6.65463">
        <ele>2181.2</ele>
        <time>2022-09-18T02:36:40Z</time>
      </trkpt>
      <trkpt lat="44.11909" lon="6.65465">
        <ele>2180.3</ele>
        <time>2022-09-18T02:36:41Z</time>
      </trkpt>
      <trkpt lat="44.11904" lon="6.65467">
        <ele>2179.6</ele>
        <time>2022-09-18T02:36:42Z</time>
      </trkpt>
      <trkpt lat="44.11901" lon="6.65469">
        <ele>2179</ele>
        <time>2022-09-18T02:36:43Z</time>
      </trkpt>
      <trkpt lat="44.11896" lon="6.65475">
        <ele>2178</ele>
        <time>2022-09-18T02:36:44Z</time>
      </trkpt>
      <trkpt lat="44.1189" lon="6.65477">
        <ele>2177</ele>
        <time>2022-09-18T02:36:46Z</time>
      </trkpt>
      <trkpt lat="44.11883" lon="6.65478">
        <ele>2175.9</ele>
        <time>2022-09-18T02:36:47Z</time>
      </trkpt>
      <trkpt lat="44.11879" lon="6.65479">
        <ele>2175.1</ele>
        <time>2022-09-18T02:36:48Z</time>
      </trkpt>
      <trkpt lat="44.11875" lon="6.65482">
        <ele>2174.5</ele>
        <time>2022-09-18T02:36:50Z</time>
      </trkpt>
      <trkpt lat="44.11874" lon="6.65483">
        <ele>2174.2</ele>
        <time>2022-09-18T02:36:51Z</time>
      </trkpt>
      <trkpt lat="44.11873" lon="6.65483">
        <ele>2174.1</ele>
        <time>2022-09-18T02:36:52Z</time>
      </trkpt>
      <trkpt lat="44.11874" lon="6.65482">
        <ele>2173.9</ele>
        <time>2022-09-18T02:36:53Z</time>
      </trkpt>
      <trkpt lat="44.11873" lon="6.65481">
        <ele>2173.8</ele>
        <time>2022-09-18T02:36:55Z</time>
      </trkpt>
      <trkpt lat="44.11873" lon="6.65478">
        <ele>2173.4</ele>
        <time>2022-09-18T02:36:57Z</time>
      </trkpt>
      <trkpt lat="44.11875" lon="6.65474">
        <ele>2172.9</ele>
        <time>2022-09-18T02:36:58Z</time>
      </trkpt>
      <trkpt lat="44.11875" lon="6.65474">
        <ele>2172.8</ele>
        <time>2022-09-18T02:37:00Z</time>
      </trkpt>
      <trkpt lat="44.11876" lon="6.65473">
        <ele>2172.7</ele>
        <time>2022-09-18T02:37:01Z</time>
      </trkpt>
      <trkpt lat="44.11876" lon="6.65473">
        <ele>2172.6</ele>
        <time>2022-09-18T02:37:02Z</time>
      </trkpt>
      <trkpt lat="44.11877" lon="6.65472">
        <ele>2172.5</ele>
        <time>2022-09-18T02:37:03Z</time>
      </trkpt>
      <trkpt lat="44.11878" lon="6.65472">
        <ele>2172.4</ele>
        <time>2022-09-18T02:37:04Z</time>
      </trkpt>
      <trkpt lat="44.11878" lon="6.65471">
        <ele>2172.3</ele>
        <time>2022-09-18T02:37:05Z</time>
      </trkpt>
      <trkpt lat="44.11879" lon="6.65471">
        <ele>2172.1</ele>
        <time>2022-09-18T02:37:06Z</time>
      </trkpt>
      <trkpt lat="44.11879" lon="6.6547">
        <ele>2172</ele>
        <time>2022-09-18T02:37:07Z</time>
      </trkpt>
      <trkpt lat="44.1188" lon="6.6547">
        <ele>2171.9</ele>
        <time>2022-09-18T02:37:08Z</time>
      </trkpt>
      <trkpt lat="44.11881" lon="6.65469">
        <ele>2171.8</ele>
        <time>2022-09-18T02:37:09Z</time>
      </trkpt>
      <trkpt lat="44.11881" lon="6.65469">
        <ele>2171.7</ele>
        <time>2022-09-18T02:37:23Z</time>
      </trkpt>
      <trkpt lat="44.11882" lon="6.65468">
        <ele>2171.6</ele>
        <time>2022-09-18T02:37:24Z</time>
      </trkpt>
      <trkpt lat="44.11882" lon="6.65468">
        <ele>2171.5</ele>
        <time>2022-09-18T02:37:25Z</time>
      </trkpt>
      <trkpt lat="44.11886" lon="6.65462">
        <ele>2170.6</ele>
        <time>2022-09-18T02:37:26Z</time>
      </trkpt>
      <trkpt lat="44.1189" lon="6.65456">
        <ele>2169.7</ele>
        <time>2022-09-18T02:37:27Z</time>
      </trkpt>
      <trkpt lat="44.11894" lon="6.65449">
        <ele>2168.7</ele>
        <time>2022-09-18T02:37:28Z</time>
      </trkpt>
      <trkpt lat="44.11898" lon="6.65443">
        <ele>2167.6</ele>
        <time>2022-09-18T02:37:29Z</time>
      </trkpt>
      <trkpt lat="44.11903" lon="6.65436">
        <ele>2166.5</ele>
        <time>2022-09-18T02:37:30Z</time>
      </trkpt>
      <trkpt lat="44.11907" lon="6.65429">
        <ele>2165.5</ele>
        <time>2022-09-18T02:37:31Z</time>
      </trkpt>
      <trkpt lat="44.11911" lon="6.65422">
        <ele>2164.5</ele>
        <time>2022-09-18T02:37:32Z</time>
      </trkpt>
      <trkpt lat="44.11915" lon="6.65415">
        <ele>2163.4</ele>
        <time>2022-09-18T02:37:33Z</time>
      </trkpt>
      <trkpt lat="44.1192" lon="6.65409">
        <ele>2162.4</ele>
        <time>2022-09-18T02:37:34Z</time>
      </trkpt>
      <trkpt lat="44.11926" lon="6.65403">
        <ele>2161.3</ele>
        <time>2022-09-18T02:37:35Z</time>
      </trkpt>
      <trkpt lat="44.1193" lon="6.65398">
        <ele>2160.3</ele>
        <time>2022-09-18T02:37:36Z</time>
      </trkpt>
      <trkpt lat="44.11934" lon="6.65393">
        <ele>2159.5</ele>
        <time>2022-09-18T02:37:37Z</time>
      </trkpt>
      <trkpt lat="44.11938" lon="6.65389">
        <ele>2158.6</ele>
        <time>2022-09-18T02:37:38Z</time>
      </trkpt>
      <trkpt lat="44.11944" lon="6.65383">
        <ele>2157.6</ele>
        <time>2022-09-18T02:37:39Z</time>
      </trkpt>
      <trkpt lat="44.11949" lon="6.65378">
        <ele>2156.5</ele>
        <time>2022-09-18T02:37:40Z</time>
      </trkpt>
      <trkpt lat="44.11953" lon="6.65372">
        <ele>2155.5</ele>
        <time>2022-09-18T02:37:41Z</time>
      </trkpt>
      <trkpt lat="44.11957" lon="6.65367">
        <ele>2154.7</ele>
        <time>2022-09-18T02:37:42Z</time>
      </trkpt>
      <trkpt lat="44.1196" lon="6.65363">
        <ele>2154</ele>
        <time>2022-09-18T02:37:43Z</time>
      </trkpt>
      <trkpt lat="44.11964" lon="6.65357">
        <ele>2153.1</ele>
        <time>2022-09-18T02:37:44Z</time>
      </trkpt>
      <trkpt lat="44.11969" lon="6.65352">
        <ele>2152.1</ele>
        <time>2022-09-18T02:37:45Z</time>
      </trkpt>
      <trkpt lat="44.11975" lon="6.65347">
        <ele>2151</ele>
        <time>2022-09-18T02:37:46Z</time>
      </trkpt>
      <trkpt lat="44.11981" lon="6.65342">
        <ele>2149.9</ele>
        <time>2022-09-18T02:37:47Z</time>
      </trkpt>
      <trkpt lat="44.11986" lon="6.65337">
        <ele>2148.9</ele>
        <time>2022-09-18T02:37:48Z</time>
      </trkpt>
      <trkpt lat="44.1199" lon="6.65333">
        <ele>2148.1</ele>
        <time>2022-09-18T02:37:49Z</time>
      </trkpt>
      <trkpt lat="44.11994" lon="6.6533">
        <ele>2147.4</ele>
        <time>2022-09-18T02:37:50Z</time>
      </trkpt>
      <trkpt lat="44.11997" lon="6.65328">
        <ele>2146.9</ele>
        <time>2022-09-18T02:37:51Z</time>
      </trkpt>
      <trkpt lat="44.11998" lon="6.65328">
        <ele>2146.7</ele>
        <time>2022-09-18T02:37:52Z</time>
      </trkpt>
      <trkpt lat="44.11996" lon="6.65326">
        <ele>2146.5</ele>
        <time>2022-09-18T02:37:53Z</time>
      </trkpt>
      <trkpt lat="44.11995" lon="6.65326">
        <ele>2146.3</ele>
        <time>2022-09-18T02:37:54Z</time>
      </trkpt>
      <trkpt lat="44.11994" lon="6.65325">
        <ele>2146.1</ele>
        <time>2022-09-18T02:37:55Z</time>
      </trkpt>
      <trkpt lat="44.11992" lon="6.65325">
        <ele>2145.7</ele>
        <time>2022-09-18T02:37:56Z</time>
      </trkpt>
      <trkpt lat="44.11988" lon="6.65324">
        <ele>2145.1</ele>
        <time>2022-09-18T02:37:57Z</time>
      </trkpt>
      <trkpt lat="44.11988" lon="6.65324">
        <ele>2145</ele>
        <time>2022-09-18T02:37:58Z</time>
      </trkpt>
      <trkpt lat="44.11988" lon="6.65325">
        <ele>2145</ele>
        <time>2022-09-18T02:37:59Z</time>
      </trkpt>
      <trkpt lat="44.11988" lon="6.65325">
        <ele>2145</ele>
        <time>2022-09-18T02:38:00Z</time>
      </trkpt>
      <trkpt lat="44.11988" lon="6.65325">
        <ele>2144.9</ele>
        <time>2022-09-18T02:38:01Z</time>
      </trkpt>
      <trkpt lat="44.11988" lon="6.65325">
        <ele>2144.9</ele>
        <time>2022-09-18T02:38:05Z</time>
      </trkpt>
      <trkpt lat="44.11988" lon="6.65325">
        <ele>2144.9</ele>
        <time>2022-09-18T02:38:09Z</time>
      </trkpt>
      <trkpt lat="44.11987" lon="6.65325">
        <ele>2144.8</ele>
        <time>2022-09-18T02:38:10Z</time>
      </trkpt>
      <trkpt lat="44.11984" lon="6.65324">
        <ele>2144.3</ele>
        <time>2022-09-18T02:38:12Z</time>
      </trkpt>
      <trkpt lat="44.1198" lon="6.65324">
        <ele>2143.7</ele>
        <time>2022-09-18T02:38:13Z</time>
      </trkpt>
      <trkpt lat="44.11975" lon="6.65324">
        <ele>2142.8</ele>
        <time>2022-09-18T02:38:14Z</time>
      </trkpt>
      <trkpt lat="44.11968" lon="6.65325">
        <ele>2141.7</ele>
        <time>2022-09-18T02:38:15Z</time>
      </trkpt>
      <trkpt lat="44.1196" lon="6.65326">
        <ele>2140.5</ele>
        <time>2022-09-18T02:38:16Z</time>
      </trkpt>
      <trkpt lat="44.11953" lon="6.65327">
        <ele>2139.3</ele>
        <time>2022-09-18T02:38:17Z</time>
      </trkpt>
      <trkpt lat="44.11945" lon="6.65329">
        <ele>2138.1</ele>
        <time>2022-09-18T02:38:18Z</time>
      </trkpt>
      <trkpt lat="44.11939" lon="6.65331">
        <ele>2137</ele>
        <time>2022-09-18T02:38:19Z</time>
      </trkpt>
      <trkpt lat="44.11933" lon="6.65333">
        <ele>2136</ele>
        <time>2022-09-18T02:38:20Z</time>
      </trkpt>
      <trkpt lat="44.11928" lon="6.65335">
        <ele>2135.2</ele>
        <time>2022-09-18T02:38:21Z</time>
      </trkpt>
      <trkpt lat="44.11925" lon="6.65336">
        <ele>2134.7</ele>
        <time>2022-09-18T02:38:22Z</time>
      </trkpt>
      <trkpt lat="44.11923" lon="6.65338">
        <ele>2134.2</ele>
        <time>2022-09-18T02:38:23Z</time>
      </trkpt>
      <trkpt lat="44.11922" lon="6.65339">
        <ele>2134.1</ele>
        <time>2022-09-18T02:38:24Z</time>
      </trkpt>
      <trkpt lat="44.11921" lon="6.65339">
        <ele>2133.9</ele>
        <time>2022-09-18T02:38:25Z</time>
      </trkpt>
      <trkpt lat="44.11921" lon="6.65338">
        <ele>2133.8</ele>
        <time>2022-09-18T02:38:26Z</time>
      </trkpt>
      <trkpt lat="44.11922" lon="6.65336">
        <ele>2133.6</ele>
        <time>2022-09-18T02:38:27Z</time>
      </trkpt>
      <trkpt lat="44.11923" lon="6.65335">
        <ele>2133.4</ele>
        <time>2022-09-18T02:38:28Z</time>
      </trkpt>
      <trkpt lat="44.11924" lon="6.65334">
        <ele>2133.2</ele>
        <time>2022-09-18T02:38:29Z</time>
      </trkpt>
      <trkpt lat="44.11927" lon="6.65332">
        <ele>2132.7</ele>
        <time>2022-09-18T02:38:30Z</time>
      </trkpt>
      <trkpt lat="44.1193" lon="6.65329">
        <ele>2132.1</ele>
        <time>2022-09-18T02:38:31Z</time>
      </trkpt>
      <trkpt lat="44.11933" lon="6.65325">
        <ele>2131.5</ele>
        <time>2022-09-18T02:38:32Z</time>
      </trkpt>
      <trkpt lat="44.11936" lon="6.65321">
        <ele>2130.7</ele>
        <time>2022-09-18T02:38:33Z</time>
      </trkpt>
      <trkpt lat="44.1194" lon="6.65316">
        <ele>2129.9</ele>
        <time>2022-09-18T02:38:34Z</time>
      </trkpt>
      <trkpt lat="44.11944" lon="6.65312">
        <ele>2129</ele>
        <time>2022-09-18T02:38:35Z</time>
      </trkpt>
      <trkpt lat="44.1195" lon="6.65306">
        <ele>2128</ele>
        <time>2022-09-18T02:38:36Z</time>
      </trkpt>
      <trkpt lat="44.11953" lon="6.65301">
        <ele>2127.1</ele>
        <time>2022-09-18T02:38:37Z</time>
      </trkpt>
      <trkpt lat="44.11956" lon="6.65297">
        <ele>2126.4</ele>
        <time>2022-09-18T02:38:38Z</time>
      </trkpt>
      <trkpt lat="44.11959" lon="6.65293">
        <ele>2125.8</ele>
        <time>2022-09-18T02:38:39Z</time>
      </trkpt>
      <trkpt lat="44.11961" lon="6.6529">
        <ele>2125.4</ele>
        <time>2022-09-18T02:38:40Z</time>
      </trkpt>
      <trkpt lat="44.11964" lon="6.65286">
        <ele>2124.7</ele>
        <time>2022-09-18T02:38:41Z</time>
      </trkpt>
      <trkpt lat="44.11967" lon="6.65282">
        <ele>2124</ele>
        <time>2022-09-18T02:38:42Z</time>
      </trkpt>
      <trkpt lat="44.11971" lon="6.65276">
        <ele>2123.1</ele>
        <time>2022-09-18T02:38:43Z</time>
      </trkpt>
      <trkpt lat="44.11976" lon="6.65271">
        <ele>2122.1</ele>
        <time>2022-09-18T02:38:44Z</time>
      </trkpt>
      <trkpt lat="44.1198" lon="6.65266">
        <ele>2121.2</ele>
        <time>2022-09-18T02:38:45Z</time>
      </trkpt>
      <trkpt lat="44.11983" lon="6.65261">
        <ele>2120.5</ele>
        <time>2022-09-18T02:38:46Z</time>
      </trkpt>
      <trkpt lat="44.11987" lon="6.65255">
        <ele>2119.5</ele>
        <time>2022-09-18T02:38:47Z</time>
      </trkpt>
      <trkpt lat="44.11992" lon="6.65248">
        <ele>2118.4</ele>
        <time>2022-09-18T02:38:48Z</time>
      </trkpt>
      <trkpt lat="44.11997" lon="6.65242">
        <ele>2117.4</ele>
        <time>2022-09-18T02:38:49Z</time>
      </trkpt>
      <trkpt lat="44.12001" lon="6.65235">
        <ele>2116.3</ele>
        <time>2022-09-18T02:38:50Z</time>
      </trkpt>
      <trkpt lat="44.12006" lon="6.65229">
        <ele>2115.2</ele>
        <time>2022-09-18T02:38:51Z</time>
      </trkpt>
      <trkpt lat="44.12012" lon="6.65222">
        <ele>2114</ele>
        <time>2022-09-18T02:38:52Z</time>
      </trkpt>
      <trkpt lat="44.12017" lon="6.65216">
        <ele>2112.9</ele>
        <time>2022-09-18T02:38:53Z</time>
      </trkpt>
      <trkpt lat="44.12021" lon="6.65211">
        <ele>2112</ele>
        <time>2022-09-18T02:38:54Z</time>
      </trkpt>
      <trkpt lat="44.12024" lon="6.65208">
        <ele>2111.6</ele>
        <time>2022-09-18T02:38:55Z</time>
      </trkpt>
      <trkpt lat="44.12025" lon="6.65207">
        <ele>2111.2</ele>
        <time>2022-09-18T02:38:56Z</time>
      </trkpt>
      <trkpt lat="44.12026" lon="6.65205">
        <ele>2111</ele>
        <time>2022-09-18T02:38:57Z</time>
      </trkpt>
      <trkpt lat="44.12024" lon="6.65205">
        <ele>2110.7</ele>
        <time>2022-09-18T02:38:58Z</time>
      </trkpt>
      <trkpt lat="44.12023" lon="6.65205">
        <ele>2110.6</ele>
        <time>2022-09-18T02:38:59Z</time>
      </trkpt>
      <trkpt lat="44.12022" lon="6.65205">
        <ele>2110.4</ele>
        <time>2022-09-18T02:39:00Z</time>
      </trkpt>
      <trkpt lat="44.12019" lon="6.65207">
        <ele>2109.9</ele>
        <time>2022-09-18T02:39:01Z</time>
      </trkpt>
      <trkpt lat="44.12018" lon="6.65208">
        <ele>2109.7</ele>
        <time>2022-09-18T02:39:02Z</time>
      </trkpt>
      <trkpt lat="44.12015" lon="6.65209">
        <ele>2109.3</ele>
        <time>2022-09-18T02:39:03Z</time>
      </trkpt>
      <trkpt lat="44.12011" lon="6.65209">
        <ele>2108.6</ele>
        <time>2022-09-18T02:39:04Z</time>
      </trkpt>
      <trkpt lat="44.12007" lon="6.6521">
        <ele>2107.9</ele>
        <time>2022-09-18T02:39:05Z</time>
      </trkpt>
      <trkpt lat="44.12" lon="6.65211">
        <ele>2106.8</ele>
        <time>2022-09-18T02:39:06Z</time>
      </trkpt>
      <trkpt lat="44.11991" lon="6.65213">
        <ele>2105.4</ele>
        <time>2022-09-18T02:39:07Z</time>
      </trkpt>
      <trkpt lat="44.11984" lon="6.65216">
        <ele>2104.2</ele>
        <time>2022-09-18T02:39:08Z</time>
      </trkpt>
      <trkpt lat="44.11977" lon="6.65219">
        <ele>2103.1</ele>
        <time>2022-09-18T02:39:09Z</time>
      </trkpt>
      <trkpt lat="44.11971" lon="6.65221">
        <ele>2102.1</ele>
        <time>2022-09-18T02:39:10Z</time>
      </trkpt>
      <trkpt lat="44.11966" lon="6.65223">
        <ele>2101.1</ele>
        <time>2022-09-18T02:39:11Z</time>
      </trkpt>
      <trkpt lat="44.11959" lon="6.65226">
        <ele>2100</ele>
        <time>2022-09-18T02:39:12Z</time>
      </trkpt>
      <trkpt lat="44.11952" lon="6.65229">
        <ele>2098.8</ele>
        <time>2022-09-18T02:39:13Z</time>
      </trkpt>
      <trkpt lat="44.11945" lon="6.65232">
        <ele>2097.6</ele>
        <time>2022-09-18T02:39:14Z</time>
      </trkpt>
      <trkpt lat="44.11939" lon="6.65235">
        <ele>2096.6</ele>
        <time>2022-09-18T02:39:15Z</time>
      </trkpt>
      <trkpt lat="44.11933" lon="6.65238">
        <ele>2095.6</ele>
        <time>2022-09-18T02:39:16Z</time>
      </trkpt>
      <trkpt lat="44.11929" lon="6.6524">
        <ele>2094.9</ele>
        <time>2022-09-18T02:39:17Z</time>
      </trkpt>
      <trkpt lat="44.11925" lon="6.65241">
        <ele>2094.3</ele>
        <time>2022-09-18T02:39:18Z</time>
      </trkpt>
      <trkpt lat="44.11924" lon="6.65242">
        <ele>2094</ele>
        <time>2022-09-18T02:39:19Z</time>
      </trkpt>
      <trkpt lat="44.11921" lon="6.65243">
        <ele>2093.6</ele>
        <time>2022-09-18T02:39:20Z</time>
      </trkpt>
      <trkpt lat="44.11919" lon="6.65245">
        <ele>2093.2</ele>
        <time>2022-09-18T02:39:21Z</time>
      </trkpt>
      <trkpt lat="44.11918" lon="6.65245">
        <ele>2093.1</ele>
        <time>2022-09-18T02:39:22Z</time>
      </trkpt>
      <trkpt lat="44.11919" lon="6.65246">
        <ele>2093</ele>
        <time>2022-09-18T02:39:23Z</time>
      </trkpt>
      <trkpt lat="44.11919" lon="6.65245">
        <ele>2092.9</ele>
        <time>2022-09-18T02:39:24Z</time>
      </trkpt>
      <trkpt lat="44.1192" lon="6.65244">
        <ele>2092.7</ele>
        <time>2022-09-18T02:39:25Z</time>
      </trkpt>
      <trkpt lat="44.11921" lon="6.65243">
        <ele>2092.5</ele>
        <time>2022-09-18T02:39:26Z</time>
      </trkpt>
      <trkpt lat="44.11922" lon="6.65241">
        <ele>2092.3</ele>
        <time>2022-09-18T02:39:27Z</time>
      </trkpt>
      <trkpt lat="44.11923" lon="6.65239">
        <ele>2092</ele>
        <time>2022-09-18T02:39:28Z</time>
      </trkpt>
      <trkpt lat="44.11925" lon="6.65236">
        <ele>2091.5</ele>
        <time>2022-09-18T02:39:29Z</time>
      </trkpt>
      <trkpt lat="44.11927" lon="6.65232">
        <ele>2090.9</ele>
        <time>2022-09-18T02:39:30Z</time>
      </trkpt>
      <trkpt lat="44.11931" lon="6.65225">
        <ele>2089.9</ele>
        <time>2022-09-18T02:39:31Z</time>
      </trkpt>
      <trkpt lat="44.11935" lon="6.65219">
        <ele>2088.9</ele>
        <time>2022-09-18T02:39:32Z</time>
      </trkpt>
      <trkpt lat="44.1194" lon="6.65213">
        <ele>2087.9</ele>
        <time>2022-09-18T02:39:33Z</time>
      </trkpt>
      <trkpt lat="44.11944" lon="6.65207">
        <ele>2086.9</ele>
        <time>2022-09-18T02:39:34Z</time>
      </trkpt>
      <trkpt lat="44.11949" lon="6.65202">
        <ele>2086</ele>
        <time>2022-09-18T02:39:35Z</time>
      </trkpt>
      <trkpt lat="44.11953" lon="6.65197">
        <ele>2085.1</ele>
        <time>2022-09-18T02:39:36Z</time>
      </trkpt>
      <trkpt lat="44.11955" lon="6.65194">
        <ele>2084.7</ele>
        <time>2022-09-18T02:39:37Z</time>
      </trkpt>
      <trkpt lat="44.11958" lon="6.6519">
        <ele>2084</ele>
        <time>2022-09-18T02:39:38Z</time>
      </trkpt>
      <trkpt lat="44.11962" lon="6.65184">
        <ele>2083</ele>
        <time>2022-09-18T02:39:39Z</time>
      </trkpt>
      <trkpt lat="44.11966" lon="6.65178">
        <ele>2082.1</ele>
        <time>2022-09-18T02:39:40Z</time>
      </trkpt>
      <trkpt lat="44.1197" lon="6.65172">
        <ele>2081.2</ele>
        <time>2022-09-18T02:39:41Z</time>
      </trkpt>
      <trkpt lat="44.11974" lon="6.65167">
        <ele>2080.2</ele>
        <time>2022-09-18T02:39:42Z</time>
      </trkpt>
      <trkpt lat="44.11978" lon="6.65161">
        <ele>2079.3</ele>
        <time>2022-09-18T02:39:43Z</time>
      </trkpt>
      <trkpt lat="44.11981" lon="6.65155">
        <ele>2078.5</ele>
        <time>2022-09-18T02:39:44Z</time>
      </trkpt>
      <trkpt lat="44.11984" lon="6.6515">
        <ele>2077.7</ele>
        <time>2022-09-18T02:39:45Z</time>
      </trkpt>
      <trkpt lat="44.11988" lon="6.65145">
        <ele>2076.9</ele>
        <time>2022-09-18T02:39:46Z</time>
      </trkpt>
      <trkpt lat="44.11992" lon="6.6514">
        <ele>2076</ele>
        <time>2022-09-18T02:39:47Z</time>
      </trkpt>
      <trkpt lat="44.11997" lon="6.65134">
        <ele>2075</ele>
        <time>2022-09-18T02:39:48Z</time>
      </trkpt>
      <trkpt lat="44.12002" lon="6.65128">
        <ele>2073.9</ele>
        <time>2022-09-18T02:39:49Z</time>
      </trkpt>
      <trkpt lat="44.12007" lon="6.65123">
        <ele>2072.9</ele>
        <time>2022-09-18T02:39:50Z</time>
      </trkpt>
      <trkpt lat="44.12012" lon="6.65117">
        <ele>2071.9</ele>
        <time>2022-09-18T02:39:51Z</time>
      </trkpt>
      <trkpt lat="44.12017" lon="6.65111">
        <ele>2070.9</ele>
        <time>2022-09-18T02:39:52Z</time>
      </trkpt>
      <trkpt lat="44.12021" lon="6.65106">
        <ele>2069.9</ele>
        <time>2022-09-18T02:39:53Z</time>
      </trkpt>
      <trkpt lat="44.12027" lon="6.65102">
        <ele>2068.9</ele>
        <time>2022-09-18T02:39:54Z</time>
      </trkpt>
      <trkpt lat="44.12033" lon="6.65097">
        <ele>2067.9</ele>
        <time>2022-09-18T02:39:55Z</time>
      </trkpt>
      <trkpt lat="44.12038" lon="6.65093">
        <ele>2066.8</ele>
        <time>2022-09-18T02:39:56Z</time>
      </trkpt>
      <trkpt lat="44.12044" lon="6.65088">
        <ele>2065.8</ele>
        <time>2022-09-18T02:39:57Z</time>
      </trkpt>
      <trkpt lat="44.12049" lon="6.65084">
        <ele>2064.8</ele>
        <time>2022-09-18T02:39:58Z</time>
      </trkpt>
      <trkpt lat="44.12054" lon="6.6508">
        <ele>2063.8</ele>
        <time>2022-09-18T02:39:59Z</time>
      </trkpt>
      <trkpt lat="44.1206" lon="6.65075">
        <ele>2062.8</ele>
        <time>2022-09-18T02:40:00Z</time>
      </trkpt>
      <trkpt lat="44.12065" lon="6.6507">
        <ele>2061.7</ele>
        <time>2022-09-18T02:40:01Z</time>
      </trkpt>
      <trkpt lat="44.12071" lon="6.65065">
        <ele>2060.7</ele>
        <time>2022-09-18T02:40:02Z</time>
      </trkpt>
      <trkpt lat="44.12075" lon="6.65062">
        <ele>2059.9</ele>
        <time>2022-09-18T02:40:03Z</time>
      </trkpt>
      <trkpt lat="44.12077" lon="6.6506">
        <ele>2059.5</ele>
        <time>2022-09-18T02:40:04Z</time>
      </trkpt>
      <trkpt lat="44.12077" lon="6.65059">
        <ele>2059.4</ele>
        <time>2022-09-18T02:40:05Z</time>
      </trkpt>
      <trkpt lat="44.12076" lon="6.65059">
        <ele>2059.2</ele>
        <time>2022-09-18T02:40:06Z</time>
      </trkpt>
      <trkpt lat="44.12075" lon="6.65058">
        <ele>2058.9</ele>
        <time>2022-09-18T02:40:07Z</time>
      </trkpt>
      <trkpt lat="44.12073" lon="6.65058">
        <ele>2058.7</ele>
        <time>2022-09-18T02:40:08Z</time>
      </trkpt>
      <trkpt lat="44.12072" lon="6.65058">
        <ele>2058.5</ele>
        <time>2022-09-18T02:40:09Z</time>
      </trkpt>
      <trkpt lat="44.12071" lon="6.65057">
        <ele>2058.3</ele>
        <time>2022-09-18T02:40:10Z</time>
      </trkpt>
      <trkpt lat="44.12068" lon="6.65057">
        <ele>2057.8</ele>
        <time>2022-09-18T02:40:11Z</time>
      </trkpt>
      <trkpt lat="44.12064" lon="6.65058">
        <ele>2057.2</ele>
        <time>2022-09-18T02:40:12Z</time>
      </trkpt>
      <trkpt lat="44.12058" lon="6.65058">
        <ele>2056.3</ele>
        <time>2022-09-18T02:40:13Z</time>
      </trkpt>
      <trkpt lat="44.12052" lon="6.6506">
        <ele>2055.3</ele>
        <time>2022-09-18T02:40:14Z</time>
      </trkpt>
      <trkpt lat="44.12045" lon="6.65061">
        <ele>2053.9</ele>
        <time>2022-09-18T02:40:15Z</time>
      </trkpt>
      <trkpt lat="44.1204" lon="6.65062">
        <ele>2052.8</ele>
        <time>2022-09-18T02:40:16Z</time>
      </trkpt>
      <trkpt lat="44.12033" lon="6.65063">
        <ele>2051.6</ele>
        <time>2022-09-18T02:40:17Z</time>
      </trkpt>
      <trkpt lat="44.12026" lon="6.65065">
        <ele>2050.2</ele>
        <time>2022-09-18T02:40:18Z</time>
      </trkpt>
      <trkpt lat="44.12019" lon="6.65067">
        <ele>2048.8</ele>
        <time>2022-09-18T02:40:19Z</time>
      </trkpt>
      <trkpt lat="44.12012" lon="6.65068">
        <ele>2047.5</ele>
        <time>2022-09-18T02:40:20Z</time>
      </trkpt>
      <trkpt lat="44.12005" lon="6.6507">
        <ele>2046.2</ele>
        <time>2022-09-18T02:40:21Z</time>
      </trkpt>
      <trkpt lat="44.11999" lon="6.65071">
        <ele>2044.9</ele>
        <time>2022-09-18T02:40:22Z</time>
      </trkpt>
      <trkpt lat="44.11992" lon="6.65072">
        <ele>2043.7</ele>
        <time>2022-09-18T02:40:23Z</time>
      </trkpt>
      <trkpt lat="44.11986" lon="6.65073">
        <ele>2042.6</ele>
        <time>2022-09-18T02:40:24Z</time>
      </trkpt>
      <trkpt lat="44.11981" lon="6.65074">
        <ele>2041.5</ele>
        <time>2022-09-18T02:40:25Z</time>
      </trkpt>
      <trkpt lat="44.11975" lon="6.65075">
        <ele>2040.4</ele>
        <time>2022-09-18T02:40:26Z</time>
      </trkpt>
      <trkpt lat="44.11969" lon="6.65077">
        <ele>2039.2</ele>
        <time>2022-09-18T02:40:27Z</time>
      </trkpt>
      <trkpt lat="44.11963" lon="6.6508">
        <ele>2038</ele>
        <time>2022-09-18T02:40:28Z</time>
      </trkpt>
      <trkpt lat="44.11957" lon="6.65083">
        <ele>2036.8</ele>
        <time>2022-09-18T02:40:29Z</time>
      </trkpt>
      <trkpt lat="44.11951" lon="6.65086">
        <ele>2035.6</ele>
        <time>2022-09-18T02:40:30Z</time>
      </trkpt>
      <trkpt lat="44.11946" lon="6.65089">
        <ele>2034.5</ele>
        <time>2022-09-18T02:40:31Z</time>
      </trkpt>
      <trkpt lat="44.11941" lon="6.65092">
        <ele>2033.6</ele>
        <time>2022-09-18T02:40:32Z</time>
      </trkpt>
      <trkpt lat="44.11939" lon="6.65095">
        <ele>2033</ele>
        <time>2022-09-18T02:40:33Z</time>
      </trkpt>
      <trkpt lat="44.11938" lon="6.65095">
        <ele>2032.8</ele>
        <time>2022-09-18T02:40:34Z</time>
      </trkpt>
      <trkpt lat="44.11937" lon="6.65095">
        <ele>2032.6</ele>
        <time>2022-09-18T02:40:35Z</time>
      </trkpt>
      <trkpt lat="44.11938" lon="6.65094">
        <ele>2032.4</ele>
        <time>2022-09-18T02:40:36Z</time>
      </trkpt>
      <trkpt lat="44.11938" lon="6.65092">
        <ele>2032.2</ele>
        <time>2022-09-18T02:40:37Z</time>
      </trkpt>
      <trkpt lat="44.11939" lon="6.65091">
        <ele>2031.9</ele>
        <time>2022-09-18T02:40:38Z</time>
      </trkpt>
      <trkpt lat="44.1194" lon="6.65089">
        <ele>2031.7</ele>
        <time>2022-09-18T02:40:39Z</time>
      </trkpt>
      <trkpt lat="44.1194" lon="6.65088">
        <ele>2031.5</ele>
        <time>2022-09-18T02:40:40Z</time>
      </trkpt>
      <trkpt lat="44.11941" lon="6.65088">
        <ele>2031.4</ele>
        <time>2022-09-18T02:40:41Z</time>
      </trkpt>
      <trkpt lat="44.11941" lon="6.65088">
        <ele>2031.4</ele>
        <time>2022-09-18T02:40:42Z</time>
      </trkpt>
      <trkpt lat="44.11941" lon="6.65087">
        <ele>2031.3</ele>
        <time>2022-09-18T02:40:43Z</time>
      </trkpt>
      <trkpt lat="44.11942" lon="6.65087">
        <ele>2031.2</ele>
        <time>2022-09-18T02:40:44Z</time>
      </trkpt>
      <trkpt lat="44.11942" lon="6.65086">
        <ele>2031.1</ele>
        <time>2022-09-18T02:40:45Z</time>
      </trkpt>
      <trkpt lat="44.11942" lon="6.65086">
        <ele>2031</ele>
        <time>2022-09-18T02:40:46Z</time>
      </trkpt>
      <trkpt lat="44.11943" lon="6.65086">
        <ele>2030.9</ele>
        <time>2022-09-18T02:40:47Z</time>
      </trkpt>
      <trkpt lat="44.11943" lon="6.65085">
        <ele>2030.8</ele>
        <time>2022-09-18T02:40:48Z</time>
      </trkpt>
      <trkpt lat="44.11943" lon="6.65085">
        <ele>2030.8</ele>
        <time>2022-09-18T02:40:49Z</time>
      </trkpt>
      <trkpt lat="44.11944" lon="6.65085">
        <ele>2030.7</ele>
        <time>2022-09-18T02:40:50Z</time>
      </trkpt>
      <trkpt lat="44.11944" lon="6.65084">
        <ele>2030.6</ele>
        <time>2022-09-18T02:40:58Z</time>
      </trkpt>
      <trkpt lat="44.11944" lon="6.65084">
        <ele>2030.5</ele>
        <time>2022-09-18T02:40:59Z</time>
      </trkpt>
      <trkpt lat="44.11945" lon="6.65083">
        <ele>2030.4</ele>
        <time>2022-09-18T02:41:00Z</time>
      </trkpt>
      <trkpt lat="44.11945" lon="6.65083">
        <ele>2030.3</ele>
        <time>2022-09-18T02:41:01Z</time>
      </trkpt>
      <trkpt lat="44.11946" lon="6.65083">
        <ele>2030.2</ele>
        <time>2022-09-18T02:41:02Z</time>
      </trkpt>
      <trkpt lat="44.11946" lon="6.65082">
        <ele>2030.2</ele>
        <time>2022-09-18T02:41:03Z</time>
      </trkpt>
      <trkpt lat="44.11946" lon="6.65082">
        <ele>2030.1</ele>
        <time>2022-09-18T02:41:04Z</time>
      </trkpt>
      <trkpt lat="44.11947" lon="6.65081">
        <ele>2030</ele>
        <time>2022-09-18T02:41:05Z</time>
      </trkpt>
      <trkpt lat="44.11947" lon="6.65081">
        <ele>2029.9</ele>
        <time>2022-09-18T02:41:06Z</time>
      </trkpt>
      <trkpt lat="44.11947" lon="6.65081">
        <ele>2029.8</ele>
        <time>2022-09-18T02:41:07Z</time>
      </trkpt>
      <trkpt lat="44.11948" lon="6.6508">
        <ele>2029.7</ele>
        <time>2022-09-18T02:41:08Z</time>
      </trkpt>
      <trkpt lat="44.11948" lon="6.6508">
        <ele>2029.6</ele>
        <time>2022-09-18T02:41:09Z</time>
      </trkpt>
      <trkpt lat="44.11948" lon="6.6508">
        <ele>2029.6</ele>
        <time>2022-09-18T02:41:10Z</time>
      </trkpt>
      <trkpt lat="44.11949" lon="6.65079">
        <ele>2029.5</ele>
        <time>2022-09-18T02:42:09Z</time>
      </trkpt>
      <trkpt lat="44.11949" lon="6.65079">
        <ele>2029.4</ele>
        <time>2022-09-18T02:42:10Z</time>
      </trkpt>
      <trkpt lat="44.11955" lon="6.65072">
        <ele>2028</ele>
        <time>2022-09-18T02:42:11Z</time>
      </trkpt>
      <trkpt lat="44.11961" lon="6.65067">
        <ele>2026.7</ele>
        <time>2022-09-18T02:42:12Z</time>
      </trkpt>
      <trkpt lat="44.11966" lon="6.65063">
        <ele>2025.5</ele>
        <time>2022-09-18T02:42:13Z</time>
      </trkpt>
      <trkpt lat="44.11971" lon="6.65059">
        <ele>2024.4</ele>
        <time>2022-09-18T02:42:14Z</time>
      </trkpt>
      <trkpt lat="44.11976" lon="6.65053">
        <ele>2023.1</ele>
        <time>2022-09-18T02:42:15Z</time>
      </trkpt>
      <trkpt lat="44.11981" lon="6.65047">
        <ele>2021.8</ele>
        <time>2022-09-18T02:42:16Z</time>
      </trkpt>
      <trkpt lat="44.11986" lon="6.65041">
        <ele>2020.6</ele>
        <time>2022-09-18T02:42:17Z</time>
      </trkpt>
      <trkpt lat="44.11991" lon="6.65034">
        <ele>2019.4</ele>
        <time>2022-09-18T02:42:18Z</time>
      </trkpt>
      <trkpt lat="44.11996" lon="6.65029">
        <ele>2018.1</ele>
        <time>2022-09-18T02:42:19Z</time>
      </trkpt>
      <trkpt lat="44.12002" lon="6.65023">
        <ele>2016.8</ele>
        <time>2022-09-18T02:42:20Z</time>
      </trkpt>
      <trkpt lat="44.12007" lon="6.65019">
        <ele>2015.6</ele>
        <time>2022-09-18T02:42:21Z</time>
      </trkpt>
      <trkpt lat="44.12012" lon="6.65014">
        <ele>2014.4</ele>
        <time>2022-09-18T02:42:22Z</time>
      </trkpt>
      <trkpt lat="44.12017" lon="6.65008">
        <ele>2013.2</ele>
        <time>2022-09-18T02:42:23Z</time>
      </trkpt>
      <trkpt lat="44.12022" lon="6.65002">
        <ele>2012.1</ele>
        <time>2022-09-18T02:42:24Z</time>
      </trkpt>
      <trkpt lat="44.12026" lon="6.64996">
        <ele>2010.9</ele>
        <time>2022-09-18T02:42:25Z</time>
      </trkpt>
      <trkpt lat="44.12029" lon="6.64991">
        <ele>2010</ele>
        <time>2022-09-18T02:42:26Z</time>
      </trkpt>
      <trkpt lat="44.12031" lon="6.64987">
        <ele>2009.3</ele>
        <time>2022-09-18T02:42:27Z</time>
      </trkpt>
      <trkpt lat="44.12034" lon="6.64983">
        <ele>2008.5</ele>
        <time>2022-09-18T02:42:28Z</time>
      </trkpt>
      <trkpt lat="44.12037" lon="6.6498">
        <ele>2007.9</ele>
        <time>2022-09-18T02:42:29Z</time>
      </trkpt>
      <trkpt lat="44.12038" lon="6.64979">
        <ele>2007.7</ele>
        <time>2022-09-18T02:42:30Z</time>
      </trkpt>
      <trkpt lat="44.12038" lon="6.64979">
        <ele>2007.6</ele>
        <time>2022-09-18T02:42:31Z</time>
      </trkpt>
      <trkpt lat="44.12038" lon="6.64979">
        <ele>2007.6</ele>
        <time>2022-09-18T02:42:32Z</time>
      </trkpt>
      <trkpt lat="44.12037" lon="6.64979">
        <ele>2007.4</ele>
        <time>2022-09-18T02:42:33Z</time>
      </trkpt>
      <trkpt lat="44.12036" lon="6.6498">
        <ele>2007.1</ele>
        <time>2022-09-18T02:42:34Z</time>
      </trkpt>
      <trkpt lat="44.12035" lon="6.6498">
        <ele>2007</ele>
        <time>2022-09-18T02:42:35Z</time>
      </trkpt>
      <trkpt lat="44.12035" lon="6.6498">
        <ele>2006.9</ele>
        <time>2022-09-18T02:42:36Z</time>
      </trkpt>
      <trkpt lat="44.12035" lon="6.6498">
        <ele>2006.9</ele>
        <time>2022-09-18T02:42:37Z</time>
      </trkpt>
      <trkpt lat="44.12035" lon="6.6498">
        <ele>2006.8</ele>
        <time>2022-09-18T02:42:38Z</time>
      </trkpt>
      <trkpt lat="44.12035" lon="6.6498">
        <ele>2006.8</ele>
        <time>2022-09-18T02:42:39Z</time>
      </trkpt>
      <trkpt lat="44.12035" lon="6.6498">
        <ele>2006.7</ele>
        <time>2022-09-18T02:42:40Z</time>
      </trkpt>
      <trkpt lat="44.12036" lon="6.6498">
        <ele>2006.7</ele>
        <time>2022-09-18T02:42:41Z</time>
      </trkpt>
      <trkpt lat="44.12036" lon="6.6498">
        <ele>2006.5</ele>
        <time>2022-09-18T02:42:42Z</time>
      </trkpt>
      <trkpt lat="44.12038" lon="6.64979">
        <ele>2006.2</ele>
        <time>2022-09-18T02:42:43Z</time>
      </trkpt>
      <trkpt lat="44.12041" lon="6.64975">
        <ele>2005.5</ele>
        <time>2022-09-18T02:42:44Z</time>
      </trkpt>
      <trkpt lat="44.12042" lon="6.64974">
        <ele>2005.1</ele>
        <time>2022-09-18T02:42:45Z</time>
      </trkpt>
      <trkpt lat="44.12046" lon="6.6497">
        <ele>2004.2</ele>
        <time>2022-09-18T02:42:46Z</time>
      </trkpt>
      <trkpt lat="44.1205" lon="6.64967">
        <ele>2003.4</ele>
        <time>2022-09-18T02:42:47Z</time>
      </trkpt>
      <trkpt lat="44.12054" lon="6.64965">
        <ele>2002.6</ele>
        <time>2022-09-18T02:42:48Z</time>
      </trkpt>
      <trkpt lat="44.12056" lon="6.64963">
        <ele>2002.1</ele>
        <time>2022-09-18T02:42:49Z</time>
      </trkpt>
      <trkpt lat="44.12058" lon="6.64963">
        <ele>2001.9</ele>
        <time>2022-09-18T02:42:50Z</time>
      </trkpt>
      <trkpt lat="44.12058" lon="6.64964">
        <ele>2001.7</ele>
        <time>2022-09-18T02:42:51Z</time>
      </trkpt>
      <trkpt lat="44.12059" lon="6.64964">
        <ele>2001.6</ele>
        <time>2022-09-18T02:42:52Z</time>
      </trkpt>
      <trkpt lat="44.12059" lon="6.64965">
        <ele>2001.5</ele>
        <time>2022-09-18T02:42:53Z</time>
      </trkpt>
      <trkpt lat="44.12059" lon="6.64965">
        <ele>2001.4</ele>
        <time>2022-09-18T02:42:54Z</time>
      </trkpt>
      <trkpt lat="44.12059" lon="6.64965">
        <ele>2001.4</ele>
        <time>2022-09-18T02:42:55Z</time>
      </trkpt>
      <trkpt lat="44.12058" lon="6.64966">
        <ele>2001.3</ele>
        <time>2022-09-18T02:42:56Z</time>
      </trkpt>
      <trkpt lat="44.12058" lon="6.64966">
        <ele>2001.3</ele>
        <time>2022-09-18T02:42:57Z</time>
      </trkpt>
      <trkpt lat="44.12058" lon="6.64966">
        <ele>2001.3</ele>
        <time>2022-09-18T02:42:58Z</time>
      </trkpt>
      <trkpt lat="44.12058" lon="6.64966">
        <ele>2001.3</ele>
        <time>2022-09-18T02:42:59Z</time>
      </trkpt>
      <trkpt lat="44.12058" lon="6.64965">
        <ele>2001.2</ele>
        <time>2022-09-18T02:43:01Z</time>
      </trkpt>
      <trkpt lat="44.1206" lon="6.64965">
        <ele>2000.9</ele>
        <time>2022-09-18T02:43:02Z</time>
      </trkpt>
      <trkpt lat="44.12062" lon="6.64964">
        <ele>2000.4</ele>
        <time>2022-09-18T02:43:03Z</time>
      </trkpt>
      <trkpt lat="44.12066" lon="6.64962">
        <ele>1999.7</ele>
        <time>2022-09-18T02:43:04Z</time>
      </trkpt>
      <trkpt lat="44.12071" lon="6.6496">
        <ele>1998.6</ele>
        <time>2022-09-18T02:43:05Z</time>
      </trkpt>
      <trkpt lat="44.12077" lon="6.64956">
        <ele>1997.4</ele>
        <time>2022-09-18T02:43:06Z</time>
      </trkpt>
      <trkpt lat="44.12083" lon="6.64952">
        <ele>1996.1</ele>
        <time>2022-09-18T02:43:07Z</time>
      </trkpt>
      <trkpt lat="44.12089" lon="6.64948">
        <ele>1994.8</ele>
        <time>2022-09-18T02:43:08Z</time>
      </trkpt>
      <trkpt lat="44.12094" lon="6.64943">
        <ele>1993.7</ele>
        <time>2022-09-18T02:43:09Z</time>
      </trkpt>
      <trkpt lat="44.121" lon="6.64939">
        <ele>1992.5</ele>
        <time>2022-09-18T02:43:10Z</time>
      </trkpt>
      <trkpt lat="44.12105" lon="6.64933">
        <ele>1991.2</ele>
        <time>2022-09-18T02:43:11Z</time>
      </trkpt>
      <trkpt lat="44.12111" lon="6.64926">
        <ele>1989.8</ele>
        <time>2022-09-18T02:43:12Z</time>
      </trkpt>
      <trkpt lat="44.12117" lon="6.64918">
        <ele>1988.3</ele>
        <time>2022-09-18T02:43:13Z</time>
      </trkpt>
      <trkpt lat="44.12124" lon="6.6491">
        <ele>1986.5</ele>
        <time>2022-09-18T02:43:14Z</time>
      </trkpt>
      <trkpt lat="44.1213" lon="6.64902">
        <ele>1984.9</ele>
        <time>2022-09-18T02:43:15Z</time>
      </trkpt>
      <trkpt lat="44.12135" lon="6.64894">
        <ele>1983.3</ele>
        <time>2022-09-18T02:43:16Z</time>
      </trkpt>
      <trkpt lat="44.12139" lon="6.64887">
        <ele>1982.1</ele>
        <time>2022-09-18T02:43:17Z</time>
      </trkpt>
      <trkpt lat="44.1214" lon="6.64883">
        <ele>1981.6</ele>
        <time>2022-09-18T02:43:18Z</time>
      </trkpt>
      <trkpt lat="44.12141" lon="6.6488">
        <ele>1981.2</ele>
        <time>2022-09-18T02:43:19Z</time>
      </trkpt>
      <trkpt lat="44.12141" lon="6.64879">
        <ele>1981</ele>
        <time>2022-09-18T02:43:20Z</time>
      </trkpt>
      <trkpt lat="44.12137" lon="6.64879">
        <ele>1980.3</ele>
        <time>2022-09-18T02:43:21Z</time>
      </trkpt>
      <trkpt lat="44.12136" lon="6.6488">
        <ele>1980</ele>
        <time>2022-09-18T02:43:22Z</time>
      </trkpt>
      <trkpt lat="44.12131" lon="6.64882">
        <ele>1979.1</ele>
        <time>2022-09-18T02:43:23Z</time>
      </trkpt>
      <trkpt lat="44.12127" lon="6.64885">
        <ele>1978.2</ele>
        <time>2022-09-18T02:43:24Z</time>
      </trkpt>
      <trkpt lat="44.12118" lon="6.64889">
        <ele>1976.4</ele>
        <time>2022-09-18T02:43:25Z</time>
      </trkpt>
      <trkpt lat="44.12107" lon="6.64893">
        <ele>1974.3</ele>
        <time>2022-09-18T02:43:26Z</time>
      </trkpt>
      <trkpt lat="44.12099" lon="6.64896">
        <ele>1972.7</ele>
        <time>2022-09-18T02:43:27Z</time>
      </trkpt>
      <trkpt lat="44.12091" lon="6.64899">
        <ele>1971.1</ele>
        <time>2022-09-18T02:43:28Z</time>
      </trkpt>
      <trkpt lat="44.12084" lon="6.649">
        <ele>1969.7</ele>
        <time>2022-09-18T02:43:29Z</time>
      </trkpt>
      <trkpt lat="44.12079" lon="6.64901">
        <ele>1968.8</ele>
        <time>2022-09-18T02:43:30Z</time>
      </trkpt>
      <trkpt lat="44.12076" lon="6.64901">
        <ele>1968.2</ele>
        <time>2022-09-18T02:43:31Z</time>
      </trkpt>
      <trkpt lat="44.1207" lon="6.64901">
        <ele>1967.2</ele>
        <time>2022-09-18T02:43:32Z</time>
      </trkpt>
      <trkpt lat="44.12066" lon="6.649">
        <ele>1966.3</ele>
        <time>2022-09-18T02:43:33Z</time>
      </trkpt>
      <trkpt lat="44.12057" lon="6.649">
        <ele>1964.7</ele>
        <time>2022-09-18T02:43:34Z</time>
      </trkpt>
      <trkpt lat="44.1205" lon="6.64899">
        <ele>1963.3</ele>
        <time>2022-09-18T02:43:35Z</time>
      </trkpt>
      <trkpt lat="44.12043" lon="6.64899">
        <ele>1962.1</ele>
        <time>2022-09-18T02:43:36Z</time>
      </trkpt>
      <trkpt lat="44.12037" lon="6.64899">
        <ele>1960.9</ele>
        <time>2022-09-18T02:43:37Z</time>
      </trkpt>
      <trkpt lat="44.12032" lon="6.64899">
        <ele>1959.9</ele>
        <time>2022-09-18T02:43:38Z</time>
      </trkpt>
      <trkpt lat="44.12028" lon="6.649">
        <ele>1959.1</ele>
        <time>2022-09-18T02:43:39Z</time>
      </trkpt>
      <trkpt lat="44.12022" lon="6.64902">
        <ele>1957.9</ele>
        <time>2022-09-18T02:43:40Z</time>
      </trkpt>
      <trkpt lat="44.12017" lon="6.64904">
        <ele>1956.9</ele>
        <time>2022-09-18T02:43:41Z</time>
      </trkpt>
      <trkpt lat="44.12013" lon="6.64904">
        <ele>1956.2</ele>
        <time>2022-09-18T02:43:42Z</time>
      </trkpt>
      <trkpt lat="44.12005" lon="6.64907">
        <ele>1954.7</ele>
        <time>2022-09-18T02:43:43Z</time>
      </trkpt>
      <trkpt lat="44.11999" lon="6.64911">
        <ele>1953.4</ele>
        <time>2022-09-18T02:43:44Z</time>
      </trkpt>
      <trkpt lat="44.11993" lon="6.64915">
        <ele>1952.2</ele>
        <time>2022-09-18T02:43:45Z</time>
      </trkpt>
      <trkpt lat="44.11989" lon="6.64918">
        <ele>1951.2</ele>
        <time>2022-09-18T02:43:46Z</time>
      </trkpt>
      <trkpt lat="44.11981" lon="6.64923">
        <ele>1949.7</ele>
        <time>2022-09-18T02:43:47Z</time>
      </trkpt>
      <trkpt lat="44.11975" lon="6.64924">
        <ele>1948.5</ele>
        <time>2022-09-18T02:43:48Z</time>
      </trkpt>
      <trkpt lat="44.1197" lon="6.64924">
        <ele>1947.5</ele>
        <time>2022-09-18T02:43:49Z</time>
      </trkpt>
      <trkpt lat="44.11966" lon="6.64923">
        <ele>1946.7</ele>
        <time>2022-09-18T02:43:50Z</time>
      </trkpt>
      <trkpt lat="44.11962" lon="6.64922">
        <ele>1946</ele>
        <time>2022-09-18T02:43:51Z</time>
      </trkpt>
      <trkpt lat="44.11959" lon="6.64921">
        <ele>1945.3</ele>
        <time>2022-09-18T02:43:52Z</time>
      </trkpt>
      <trkpt lat="44.11955" lon="6.6492">
        <ele>1944.6</ele>
        <time>2022-09-18T02:43:53Z</time>
      </trkpt>
      <trkpt lat="44.11951" lon="6.6492">
        <ele>1943.9</ele>
        <time>2022-09-18T02:43:54Z</time>
      </trkpt>
      <trkpt lat="44.11944" lon="6.64918">
        <ele>1942.6</ele>
        <time>2022-09-18T02:43:55Z</time>
      </trkpt>
      <trkpt lat="44.11941" lon="6.64919">
        <ele>1942</ele>
        <time>2022-09-18T02:43:56Z</time>
      </trkpt>
      <trkpt lat="44.1194" lon="6.64919">
        <ele>1941.8</ele>
        <time>2022-09-18T02:43:57Z</time>
      </trkpt>
      <trkpt lat="44.11939" lon="6.64919">
        <ele>1941.6</ele>
        <time>2022-09-18T02:43:58Z</time>
      </trkpt>
      <trkpt lat="44.1194" lon="6.64918">
        <ele>1941.5</ele>
        <time>2022-09-18T02:43:59Z</time>
      </trkpt>
      <trkpt lat="44.11941" lon="6.64917">
        <ele>1941.2</ele>
        <time>2022-09-18T02:44:00Z</time>
      </trkpt>
      <trkpt lat="44.11942" lon="6.64916">
        <ele>1941</ele>
        <time>2022-09-18T02:44:01Z</time>
      </trkpt>
      <trkpt lat="44.11942" lon="6.64914">
        <ele>1940.8</ele>
        <time>2022-09-18T02:44:02Z</time>
      </trkpt>
      <trkpt lat="44.1194" lon="6.64913">
        <ele>1940.3</ele>
        <time>2022-09-18T02:44:03Z</time>
      </trkpt>
      <trkpt lat="44.11939" lon="6.64913">
        <ele>1940.2</ele>
        <time>2022-09-18T02:44:04Z</time>
      </trkpt>
      <trkpt lat="44.1194" lon="6.64912">
        <ele>1940.1</ele>
        <time>2022-09-18T02:44:05Z</time>
      </trkpt>
      <trkpt lat="44.11941" lon="6.64912">
        <ele>1939.9</ele>
        <time>2022-09-18T02:44:06Z</time>
      </trkpt>
      <trkpt lat="44.11941" lon="6.64911">
        <ele>1939.8</ele>
        <time>2022-09-18T02:44:07Z</time>
      </trkpt>
      <trkpt lat="44.11942" lon="6.64911">
        <ele>1939.6</ele>
        <time>2022-09-18T02:44:08Z</time>
      </trkpt>
      <trkpt lat="44.11943" lon="6.6491">
        <ele>1939.5</ele>
        <time>2022-09-18T02:44:09Z</time>
      </trkpt>
      <trkpt lat="44.11943" lon="6.6491">
        <ele>1939.3</ele>
        <time>2022-09-18T02:44:10Z</time>
      </trkpt>
      <trkpt lat="44.11944" lon="6.64909">
        <ele>1939.2</ele>
        <time>2022-09-18T02:44:11Z</time>
      </trkpt>
      <trkpt lat="44.11945" lon="6.64909">
        <ele>1939</ele>
        <time>2022-09-18T02:44:12Z</time>
      </trkpt>
      <trkpt lat="44.11948" lon="6.64906">
        <ele>1938.3</ele>
        <time>2022-09-18T02:44:13Z</time>
      </trkpt>
      <trkpt lat="44.11957" lon="6.64898">
        <ele>1936.3</ele>
        <time>2022-09-18T02:44:15Z</time>
      </trkpt>
      <trkpt lat="44.11965" lon="6.6489">
        <ele>1934.4</ele>
        <time>2022-09-18T02:44:16Z</time>
      </trkpt>
      <trkpt lat="44.11969" lon="6.64886">
        <ele>1933.5</ele>
        <time>2022-09-18T02:44:17Z</time>
      </trkpt>
      <trkpt lat="44.11971" lon="6.64883">
        <ele>1933</ele>
        <time>2022-09-18T02:44:18Z</time>
      </trkpt>
      <trkpt lat="44.11972" lon="6.64879">
        <ele>1932.3</ele>
        <time>2022-09-18T02:44:19Z</time>
      </trkpt>
      <trkpt lat="44.11974" lon="6.64874">
        <ele>1931.6</ele>
        <time>2022-09-18T02:44:20Z</time>
      </trkpt>
      <trkpt lat="44.11978" lon="6.64867">
        <ele>1930.4</ele>
        <time>2022-09-18T02:44:21Z</time>
      </trkpt>
      <trkpt lat="44.11982" lon="6.64855">
        <ele>1928.6</ele>
        <time>2022-09-18T02:44:23Z</time>
      </trkpt>
      <trkpt lat="44.11984" lon="6.64849">
        <ele>1927.7</ele>
        <time>2022-09-18T02:44:25Z</time>
      </trkpt>
      <trkpt lat="44.11985" lon="6.64845">
        <ele>1927.1</ele>
        <time>2022-09-18T02:44:26Z</time>
      </trkpt>
      <trkpt lat="44.11988" lon="6.64842">
        <ele>1926.5</ele>
        <time>2022-09-18T02:44:27Z</time>
      </trkpt>
      <trkpt lat="44.11989" lon="6.64841">
        <ele>1926.3</ele>
        <time>2022-09-18T02:44:28Z</time>
      </trkpt>
      <trkpt lat="44.11991" lon="6.64838">
        <ele>1925.7</ele>
        <time>2022-09-18T02:44:29Z</time>
      </trkpt>
      <trkpt lat="44.11996" lon="6.64831">
        <ele>1924.4</ele>
        <time>2022-09-18T02:44:30Z</time>
      </trkpt>
      <trkpt lat="44.11999" lon="6.64824">
        <ele>1923.2</ele>
        <time>2022-09-18T02:44:31Z</time>
      </trkpt>
      <trkpt lat="44.12004" lon="6.64817">
        <ele>1921.9</ele>
        <time>2022-09-18T02:44:32Z</time>
      </trkpt>
      <trkpt lat="44.12006" lon="6.64812">
        <ele>1921.1</ele>
        <time>2022-09-18T02:44:33Z</time>
      </trkpt>
      <trkpt lat="44.1201" lon="6.64808">
        <ele>1920.1</ele>
        <time>2022-09-18T02:44:34Z</time>
      </trkpt>
      <trkpt lat="44.1202" lon="6.64801">
        <ele>1918</ele>
        <time>2022-09-18T02:44:35Z</time>
      </trkpt>
      <trkpt lat="44.12028" lon="6.64798">
        <ele>1916.5</ele>
        <time>2022-09-18T02:44:36Z</time>
      </trkpt>
      <trkpt lat="44.12032" lon="6.64795">
        <ele>1915.6</ele>
        <time>2022-09-18T02:44:37Z</time>
      </trkpt>
      <trkpt lat="44.12036" lon="6.64792">
        <ele>1914.7</ele>
        <time>2022-09-18T02:44:38Z</time>
      </trkpt>
      <trkpt lat="44.12041" lon="6.64789">
        <ele>1913.7</ele>
        <time>2022-09-18T02:44:40Z</time>
      </trkpt>
      <trkpt lat="44.12046" lon="6.64785">
        <ele>1912.6</ele>
        <time>2022-09-18T02:44:41Z</time>
      </trkpt>
      <trkpt lat="44.12053" lon="6.64782">
        <ele>1911.1</ele>
        <time>2022-09-18T02:44:43Z</time>
      </trkpt>
      <trkpt lat="44.12059" lon="6.64779">
        <ele>1910.1</ele>
        <time>2022-09-18T02:44:45Z</time>
      </trkpt>
      <trkpt lat="44.12061" lon="6.64774">
        <ele>1909.2</ele>
        <time>2022-09-18T02:44:46Z</time>
      </trkpt>
      <trkpt lat="44.12063" lon="6.64768">
        <ele>1908.4</ele>
        <time>2022-09-18T02:44:47Z</time>
      </trkpt>
      <trkpt lat="44.12064" lon="6.64763">
        <ele>1907.6</ele>
        <time>2022-09-18T02:44:48Z</time>
      </trkpt>
      <trkpt lat="44.12065" lon="6.64758">
        <ele>1906.9</ele>
        <time>2022-09-18T02:44:49Z</time>
      </trkpt>
      <trkpt lat="44.12068" lon="6.64749">
        <ele>1905.5</ele>
        <time>2022-09-18T02:44:50Z</time>
      </trkpt>
      <trkpt lat="44.12068" lon="6.64742">
        <ele>1904.6</ele>
        <time>2022-09-18T02:44:52Z</time>
      </trkpt>
      <trkpt lat="44.12068" lon="6.64732">
        <ele>1903.2</ele>
        <time>2022-09-18T02:44:53Z</time>
      </trkpt>
      <trkpt lat="44.12067" lon="6.64722">
        <ele>1901.9</ele>
        <time>2022-09-18T02:44:55Z</time>
      </trkpt>
      <trkpt lat="44.12068" lon="6.64713">
        <ele>1900.6</ele>
        <time>2022-09-18T02:44:56Z</time>
      </trkpt>
      <trkpt lat="44.12069" lon="6.64702">
        <ele>1899.1</ele>
        <time>2022-09-18T02:44:57Z</time>
      </trkpt>
      <trkpt lat="44.1207" lon="6.64692">
        <ele>1897.7</ele>
        <time>2022-09-18T02:44:58Z</time>
      </trkpt>
      <trkpt lat="44.12071" lon="6.64682">
        <ele>1896.4</ele>
        <time>2022-09-18T02:44:59Z</time>
      </trkpt>
      <trkpt lat="44.12072" lon="6.64673">
        <ele>1895.1</ele>
        <time>2022-09-18T02:45:00Z</time>
      </trkpt>
      <trkpt lat="44.12073" lon="6.64663">
        <ele>1893.8</ele>
        <time>2022-09-18T02:45:01Z</time>
      </trkpt>
      <trkpt lat="44.12075" lon="6.64655">
        <ele>1892.6</ele>
        <time>2022-09-18T02:45:02Z</time>
      </trkpt>
      <trkpt lat="44.12076" lon="6.64646">
        <ele>1891.4</ele>
        <time>2022-09-18T02:45:03Z</time>
      </trkpt>
      <trkpt lat="44.12078" lon="6.64638">
        <ele>1890.2</ele>
        <time>2022-09-18T02:45:04Z</time>
      </trkpt>
      <trkpt lat="44.1208" lon="6.6463">
        <ele>1889.1</ele>
        <time>2022-09-18T02:45:05Z</time>
      </trkpt>
      <trkpt lat="44.12082" lon="6.64624">
        <ele>1888.2</ele>
        <time>2022-09-18T02:45:06Z</time>
      </trkpt>
      <trkpt lat="44.12084" lon="6.64618">
        <ele>1887.3</ele>
        <time>2022-09-18T02:45:07Z</time>
      </trkpt>
      <trkpt lat="44.12086" lon="6.64611">
        <ele>1886.2</ele>
        <time>2022-09-18T02:45:08Z</time>
      </trkpt>
      <trkpt lat="44.12089" lon="6.64604">
        <ele>1885.1</ele>
        <time>2022-09-18T02:45:09Z</time>
      </trkpt>
      <trkpt lat="44.12092" lon="6.64596">
        <ele>1883.9</ele>
        <time>2022-09-18T02:45:10Z</time>
      </trkpt>
      <trkpt lat="44.12095" lon="6.64587">
        <ele>1882.5</ele>
        <time>2022-09-18T02:45:11Z</time>
      </trkpt>
      <trkpt lat="44.12097" lon="6.64577">
        <ele>1881.1</ele>
        <time>2022-09-18T02:45:12Z</time>
      </trkpt>
      <trkpt lat="44.121" lon="6.64566">
        <ele>1879.6</ele>
        <time>2022-09-18T02:45:13Z</time>
      </trkpt>
      <trkpt lat="44.12103" lon="6.64557">
        <ele>1878.2</ele>
        <time>2022-09-18T02:45:14Z</time>
      </trkpt>
      <trkpt lat="44.12105" lon="6.64549">
        <ele>1877</ele>
        <time>2022-09-18T02:45:15Z</time>
      </trkpt>
      <trkpt lat="44.12108" lon="6.64541">
        <ele>1875.7</ele>
        <time>2022-09-18T02:45:16Z</time>
      </trkpt>
      <trkpt lat="44.12111" lon="6.64532">
        <ele>1874.4</ele>
        <time>2022-09-18T02:45:17Z</time>
      </trkpt>
      <trkpt lat="44.12113" lon="6.64524">
        <ele>1873.3</ele>
        <time>2022-09-18T02:45:18Z</time>
      </trkpt>
      <trkpt lat="44.12114" lon="6.6452">
        <ele>1872.7</ele>
        <time>2022-09-18T02:45:19Z</time>
      </trkpt>
      <trkpt lat="44.12115" lon="6.64517">
        <ele>1872.2</ele>
        <time>2022-09-18T02:45:20Z</time>
      </trkpt>
      <trkpt lat="44.12118" lon="6.64512">
        <ele>1871.4</ele>
        <time>2022-09-18T02:45:21Z</time>
      </trkpt>
      <trkpt lat="44.1212" lon="6.64507">
        <ele>1870.7</ele>
        <time>2022-09-18T02:45:22Z</time>
      </trkpt>
      <trkpt lat="44.12123" lon="6.64502">
        <ele>1869.8</ele>
        <time>2022-09-18T02:45:23Z</time>
      </trkpt>
      <trkpt lat="44.12126" lon="6.64501">
        <ele>1869.1</ele>
        <time>2022-09-18T02:45:24Z</time>
      </trkpt>
      <trkpt lat="44.12128" lon="6.64499">
        <ele>1869.1</ele>
        <time>2022-09-18T02:45:25Z</time>
      </trkpt>
      <trkpt lat="44.12128" lon="6.64493">
        <ele>1869</ele>
        <time>2022-09-18T02:45:26Z</time>
      </trkpt>
      <trkpt lat="44.12129" lon="6.64488">
        <ele>1868.9</ele>
        <time>2022-09-18T02:45:28Z</time>
      </trkpt>
      <trkpt lat="44.12131" lon="6.64485">
        <ele>1868.9</ele>
        <time>2022-09-18T02:45:29Z</time>
      </trkpt>
      <trkpt lat="44.12133" lon="6.64484">
        <ele>1868.8</ele>
        <time>2022-09-18T02:45:30Z</time>
      </trkpt>
      <trkpt lat="44.12134" lon="6.64484">
        <ele>1868.8</ele>
        <time>2022-09-18T02:45:31Z</time>
      </trkpt>
      <trkpt lat="44.12135" lon="6.64484">
        <ele>1868.8</ele>
        <time>2022-09-18T02:45:32Z</time>
      </trkpt>
      <trkpt lat="44.12137" lon="6.64485">
        <ele>1868.8</ele>
        <time>2022-09-18T02:45:33Z</time>
      </trkpt>
      <trkpt lat="44.12139" lon="6.64484">
        <ele>1868.7</ele>
        <time>2022-09-18T02:45:35Z</time>
      </trkpt>
      <trkpt lat="44.12143" lon="6.6448">
        <ele>1868.7</ele>
        <time>2022-09-18T02:45:36Z</time>
      </trkpt>
      <trkpt lat="44.12144" lon="6.64478">
        <ele>1868.6</ele>
        <time>2022-09-18T02:45:37Z</time>
      </trkpt>
      <trkpt lat="44.12143" lon="6.64472">
        <ele>1868.6</ele>
        <time>2022-09-18T02:45:39Z</time>
      </trkpt>
      <trkpt lat="44.12142" lon="6.6447">
        <ele>1868.6</ele>
        <time>2022-09-18T02:45:40Z</time>
      </trkpt>
      <trkpt lat="44.12141" lon="6.64468">
        <ele>1868.6</ele>
        <time>2022-09-18T02:45:41Z</time>
      </trkpt>
      <trkpt lat="44.12142" lon="6.64467">
        <ele>1868.6</ele>
        <time>2022-09-18T02:45:42Z</time>
      </trkpt>
      <trkpt lat="44.12143" lon="6.64466">
        <ele>1868.6</ele>
        <time>2022-09-18T02:45:43Z</time>
      </trkpt>
      <trkpt lat="44.12144" lon="6.64466">
        <ele>1868.6</ele>
        <time>2022-09-18T02:45:44Z</time>
      </trkpt>
      <trkpt lat="44.12144" lon="6.64465">
        <ele>1868.6</ele>
        <time>2022-09-18T02:45:45Z</time>
      </trkpt>
      <trkpt lat="44.12144" lon="6.64465">
        <ele>1868.6</ele>
        <time>2022-09-18T02:45:47Z</time>
      </trkpt>
      <trkpt lat="44.12145" lon="6.64465">
        <ele>1868.6</ele>
        <time>2022-09-18T02:45:48Z</time>
      </trkpt>
      <trkpt lat="44.12145" lon="6.64465">
        <ele>1868.6</ele>
        <time>2022-09-18T02:45:49Z</time>
      </trkpt>
      <trkpt lat="44.12146" lon="6.64464">
        <ele>1868.6</ele>
        <time>2022-09-18T02:45:51Z</time>
      </trkpt>
      <trkpt lat="44.12146" lon="6.64464">
        <ele>1868.6</ele>
        <time>2022-09-18T02:45:52Z</time>
      </trkpt>
      <trkpt lat="44.12146" lon="6.64464">
        <ele>1868.6</ele>
        <time>2022-09-18T02:45:54Z</time>
      </trkpt>
      <trkpt lat="44.12149" lon="6.64463">
        <ele>1868.6</ele>
        <time>2022-09-18T02:46:00Z</time>
      </trkpt>
      <trkpt lat="44.1215" lon="6.64461">
        <ele>1868.6</ele>
        <time>2022-09-18T02:46:01Z</time>
      </trkpt>
      <trkpt lat="44.1215" lon="6.6446">
        <ele>1868.6</ele>
        <time>2022-09-18T02:46:02Z</time>
      </trkpt>
      <trkpt lat="44.1215" lon="6.64459">
        <ele>1868.6</ele>
        <time>2022-09-18T02:46:04Z</time>
      </trkpt>
      <trkpt lat="44.1215" lon="6.64458">
        <ele>1868.6</ele>
        <time>2022-09-18T02:46:05Z</time>
      </trkpt>
      <trkpt lat="44.1215" lon="6.64458">
        <ele>1868.6</ele>
        <time>2022-09-18T02:46:06Z</time>
      </trkpt>
      <trkpt lat="44.1215" lon="6.64457">
        <ele>1868.6</ele>
        <time>2022-09-18T02:46:07Z</time>
      </trkpt>
      <trkpt lat="44.1215" lon="6.64457">
        <ele>1868.6</ele>
        <time>2022-09-18T02:46:08Z</time>
      </trkpt>
      <trkpt lat="44.1215" lon="6.64457">
        <ele>1868.6</ele>
        <time>2022-09-18T02:46:09Z</time>
      </trkpt>
      <trkpt lat="44.1215" lon="6.64457">
        <ele>1868.6</ele>
        <time>2022-09-18T02:46:10Z</time>
      </trkpt>
      <trkpt lat="44.1215" lon="6.64457">
        <ele>1868.6</ele>
        <time>2022-09-18T02:46:11Z</time>
      </trkpt>
      <trkpt lat="44.12151" lon="6.64463">
        <ele>1868.6</ele>
        <time>2022-09-18T02:47:25Z</time>
      </trkpt>
      <trkpt lat="44.1215" lon="6.64462">
        <ele>1868.6</ele>
        <time>2022-09-18T02:47:26Z</time>
      </trkpt>
      <trkpt lat="44.12149" lon="6.64462">
        <ele>1868.6</ele>
        <time>2022-09-18T02:47:28Z</time>
      </trkpt>
      <trkpt lat="44.12148" lon="6.64462">
        <ele>1868.6</ele>
        <time>2022-09-18T02:47:29Z</time>
      </trkpt>
      <trkpt lat="44.12148" lon="6.64462">
        <ele>1868.6</ele>
        <time>2022-09-18T02:47:30Z</time>
      </trkpt>
      <trkpt lat="44.12147" lon="6.64461">
        <ele>1868.6</ele>
        <time>2022-09-18T02:47:31Z</time>
      </trkpt>
      <trkpt lat="44.12147" lon="6.64461">
        <ele>1868.6</ele>
        <time>2022-09-18T02:47:33Z</time>
      </trkpt>
      <trkpt lat="44.12147" lon="6.64461">
        <ele>1868.6</ele>
        <time>2022-09-18T02:47:35Z</time>
      </trkpt>
      <trkpt lat="44.12147" lon="6.64461">
        <ele>1868.6</ele>
        <time>2022-09-18T02:47:38Z</time>
      </trkpt>
      <trkpt lat="44.12148" lon="6.64461">
        <ele>1868.6</ele>
        <time>2022-09-18T02:47:40Z</time>
      </trkpt>
      <trkpt lat="44.12148" lon="6.64461">
        <ele>1868.6</ele>
        <time>2022-09-18T02:47:41Z</time>
      </trkpt>
      <trkpt lat="44.12148" lon="6.64461">
        <ele>1868.6</ele>
        <time>2022-09-18T02:47:42Z</time>
      </trkpt>
      <trkpt lat="44.12148" lon="6.64461">
        <ele>1868.6</ele>
        <time>2022-09-18T02:47:43Z</time>
      </trkpt>
      <trkpt lat="44.12148" lon="6.64461">
        <ele>1868.6</ele>
        <time>2022-09-18T02:47:45Z</time>
      </trkpt>
      <trkpt lat="44.12148" lon="6.64461">
        <ele>1868.6</ele>
        <time>2022-09-18T02:48:06Z</time>
      </trkpt>
      <trkpt lat="44.12148" lon="6.64461">
        <ele>1868.6</ele>
        <time>2022-09-18T02:48:07Z</time>
      </trkpt>
      <trkpt lat="44.12148" lon="6.64461">
        <ele>1868.6</ele>
        <time>2022-09-18T02:48:08Z</time>
      </trkpt>
      <trkpt lat="44.12148" lon="6.64461">
        <ele>1868.6</ele>
        <time>2022-09-18T02:48:09Z</time>
      </trkpt>
      <trkpt lat="44.12148" lon="6.6446">
        <ele>1868.6</ele>
        <time>2022-09-18T02:48:10Z</time>
      </trkpt>
      <trkpt lat="44.12148" lon="6.6446">
        <ele>1868.6</ele>
        <time>2022-09-18T02:48:11Z</time>
      </trkpt>
      <trkpt lat="44.12148" lon="6.6446">
        <ele>1868.6</ele>
        <time>2022-09-18T02:48:13Z</time>
      </trkpt>
      <trkpt lat="44.12148" lon="6.6446">
        <ele>1868.6</ele>
        <time>2022-09-18T02:48:14Z</time>
      </trkpt>
      <trkpt lat="44.12148" lon="6.6446">
        <ele>1868.6</ele>
        <time>2022-09-18T02:48:15Z</time>
      </trkpt>
      <trkpt lat="44.12149" lon="6.6446">
        <ele>1868.6</ele>
        <time>2022-09-18T02:48:16Z</time>
      </trkpt>
      <trkpt lat="44.12149" lon="6.6446">
        <ele>1868.6</ele>
        <time>2022-09-18T02:48:17Z</time>
      </trkpt>
      <trkpt lat="44.12149" lon="6.6446">
        <ele>1868.6</ele>
        <time>2022-09-18T02:49:13Z</time>
      </trkpt>
      <trkpt lat="44.12149" lon="6.6446">
        <ele>1868.6</ele>
        <time>2022-09-18T02:49:15Z</time>
      </trkpt>
      <trkpt lat="44.12149" lon="6.6446">
        <ele>1868.6</ele>
        <time>2022-09-18T02:49:16Z</time>
      </trkpt>
      <trkpt lat="44.12149" lon="6.6446">
        <ele>1868.6</ele>
        <time>2022-09-18T02:49:17Z</time>
      </trkpt>
      <trkpt lat="44.12149" lon="6.6446">
        <ele>1868.6</ele>
        <time>2022-09-18T02:49:19Z</time>
      </trkpt>
      <trkpt lat="44.12149" lon="6.6446">
        <ele>1868.6</ele>
        <time>2022-09-18T02:49:21Z</time>
      </trkpt>
      <trkpt lat="44.12149" lon="6.6446">
        <ele>1868.6</ele>
        <time>2022-09-18T02:49:22Z</time>
      </trkpt>
      <trkpt lat="44.12149" lon="6.6446">
        <ele>1868.6</ele>
        <time>2022-09-18T02:49:23Z</time>
      </trkpt>
      <trkpt lat="44.12149" lon="6.6446">
        <ele>1868.6</ele>
        <time>2022-09-18T02:49:25Z</time>
      </trkpt>
      <trkpt lat="44.12149" lon="6.6446">
        <ele>1868.6</ele>
        <time>2022-09-18T02:49:26Z</time>
      </trkpt>
      <trkpt lat="44.12149" lon="6.6446">
        <ele>1868.6</ele>
        <time>2022-09-18T02:49:27Z</time>
      </trkpt>
      <trkpt lat="44.12149" lon="6.6446">
        <ele>1868.6</ele>
        <time>2022-09-18T02:49:28Z</time>
      </trkpt>
      <trkpt lat="44.12149" lon="6.6446">
        <ele>1868.6</ele>
        <time>2022-09-18T02:49:29Z</time>
      </trkpt>
      <trkpt lat="44.1215" lon="6.64459">
        <ele>1868.6</ele>
        <time>2022-09-18T02:49:30Z</time>
      </trkpt>
      <trkpt lat="44.12148" lon="6.64461">
        <ele>1868.6</ele>
        <time>2022-09-18T02:49:33Z</time>
      </trkpt>
      <trkpt lat="44.12148" lon="6.64461">
        <ele>1868.6</ele>
        <time>2022-09-18T02:49:34Z</time>
      </trkpt>
      <trkpt lat="44.12148" lon="6.64461">
        <ele>1868.6</ele>
        <time>2022-09-18T02:49:35Z</time>
      </trkpt>
      <trkpt lat="44.12148" lon="6.64462">
        <ele>1868.6</ele>
        <time>2022-09-18T02:49:36Z</time>
      </trkpt>
      <trkpt lat="44.12148" lon="6.64463">
        <ele>1868.6</ele>
        <time>2022-09-18T02:49:37Z</time>
      </trkpt>
      <trkpt lat="44.12148" lon="6.64463">
        <ele>1868.6</ele>
        <time>2022-09-18T02:49:38Z</time>
      </trkpt>
      <trkpt lat="44.12148" lon="6.64464">
        <ele>1868.6</ele>
        <time>2022-09-18T02:49:39Z</time>
      </trkpt>
      <trkpt lat="44.12148" lon="6.64465">
        <ele>1868.6</ele>
        <time>2022-09-18T02:49:40Z</time>
      </trkpt>
      <trkpt lat="44.12148" lon="6.64465">
        <ele>1868.6</ele>
        <time>2022-09-18T02:49:42Z</time>
      </trkpt>
      <trkpt lat="44.12149" lon="6.64465">
        <ele>1868.6</ele>
        <time>2022-09-18T02:49:43Z</time>
      </trkpt>
      <trkpt lat="44.12149" lon="6.64465">
        <ele>1868.7</ele>
        <time>2022-09-18T02:49:44Z</time>
      </trkpt>
      <trkpt lat="44.1215" lon="6.64465">
        <ele>1868.7</ele>
        <time>2022-09-18T02:49:45Z</time>
      </trkpt>
      <trkpt lat="44.1215" lon="6.64464">
        <ele>1868.7</ele>
        <time>2022-09-18T02:49:46Z</time>
      </trkpt>
      <trkpt lat="44.12151" lon="6.64463">
        <ele>1868.7</ele>
        <time>2022-09-18T02:49:48Z</time>
      </trkpt>
      <trkpt lat="44.12151" lon="6.64463">
        <ele>1868.7</ele>
        <time>2022-09-18T02:49:49Z</time>
      </trkpt>
      <trkpt lat="44.12152" lon="6.64462">
        <ele>1868.7</ele>
        <time>2022-09-18T02:49:50Z</time>
      </trkpt>
      <trkpt lat="44.12152" lon="6.64462">
        <ele>1868.7</ele>
        <time>2022-09-18T02:49:51Z</time>
      </trkpt>
      <trkpt lat="44.12152" lon="6.64462">
        <ele>1868.7</ele>
        <time>2022-09-18T02:49:52Z</time>
      </trkpt>
      <trkpt lat="44.12153" lon="6.64462">
        <ele>1868.7</ele>
        <time>2022-09-18T02:49:54Z</time>
      </trkpt>
      <trkpt lat="44.12153" lon="6.64463">
        <ele>1868.7</ele>
        <time>2022-09-18T02:49:55Z</time>
      </trkpt>
      <trkpt lat="44.12154" lon="6.64463">
        <ele>1868.7</ele>
        <time>2022-09-18T02:49:56Z</time>
      </trkpt>
      <trkpt lat="44.12154" lon="6.64463">
        <ele>1868.7</ele>
        <time>2022-09-18T02:49:57Z</time>
      </trkpt>
      <trkpt lat="44.12154" lon="6.64463">
        <ele>1868.7</ele>
        <time>2022-09-18T02:49:58Z</time>
      </trkpt>
      <trkpt lat="44.12154" lon="6.64464">
        <ele>1868.7</ele>
        <time>2022-09-18T02:49:59Z</time>
      </trkpt>
      <trkpt lat="44.12152" lon="6.6446">
        <ele>1868.7</ele>
        <time>2022-09-18T02:50:22Z</time>
      </trkpt>
      <trkpt lat="44.12153" lon="6.6446">
        <ele>1868.7</ele>
        <time>2022-09-18T02:50:23Z</time>
      </trkpt>
      <trkpt lat="44.12154" lon="6.64462">
        <ele>1868.7</ele>
        <time>2022-09-18T02:50:24Z</time>
      </trkpt>
      <trkpt lat="44.12154" lon="6.64464">
        <ele>1868.7</ele>
        <time>2022-09-18T02:50:26Z</time>
      </trkpt>
      <trkpt lat="44.12154" lon="6.64465">
        <ele>1868.7</ele>
        <time>2022-09-18T02:50:27Z</time>
      </trkpt>
      <trkpt lat="44.12155" lon="6.64465">
        <ele>1868.7</ele>
        <time>2022-09-18T02:50:28Z</time>
      </trkpt>
      <trkpt lat="44.12155" lon="6.64465">
        <ele>1868.7</ele>
        <time>2022-09-18T02:50:29Z</time>
      </trkpt>
      <trkpt lat="44.12155" lon="6.64466">
        <ele>1868.7</ele>
        <time>2022-09-18T02:50:30Z</time>
      </trkpt>
      <trkpt lat="44.12155" lon="6.64466">
        <ele>1868.7</ele>
        <time>2022-09-18T02:50:31Z</time>
      </trkpt>
      <trkpt lat="44.12155" lon="6.64467">
        <ele>1868.8</ele>
        <time>2022-09-18T02:50:32Z</time>
      </trkpt>
      <trkpt lat="44.12156" lon="6.64467">
        <ele>1868.8</ele>
        <time>2022-09-18T02:50:33Z</time>
      </trkpt>
      <trkpt lat="44.12156" lon="6.64467">
        <ele>1868.8</ele>
        <time>2022-09-18T02:50:34Z</time>
      </trkpt>
      <trkpt lat="44.12156" lon="6.64468">
        <ele>1868.8</ele>
        <time>2022-09-18T02:50:35Z</time>
      </trkpt>
      <trkpt lat="44.12156" lon="6.64468">
        <ele>1868.8</ele>
        <time>2022-09-18T02:50:36Z</time>
      </trkpt>
      <trkpt lat="44.12156" lon="6.64468">
        <ele>1868.8</ele>
        <time>2022-09-18T02:50:37Z</time>
      </trkpt>
      <trkpt lat="44.12156" lon="6.64471">
        <ele>1868.8</ele>
        <time>2022-09-18T02:50:38Z</time>
      </trkpt>
      <trkpt lat="44.12156" lon="6.64473">
        <ele>1868.8</ele>
        <time>2022-09-18T02:50:39Z</time>
      </trkpt>
      <trkpt lat="44.12155" lon="6.64474">
        <ele>1868.8</ele>
        <time>2022-09-18T02:50:40Z</time>
      </trkpt>
      <trkpt lat="44.12155" lon="6.64475">
        <ele>1868.8</ele>
        <time>2022-09-18T02:50:41Z</time>
      </trkpt>
      <trkpt lat="44.12154" lon="6.64476">
        <ele>1868.8</ele>
        <time>2022-09-18T02:50:42Z</time>
      </trkpt>
      <trkpt lat="44.12154" lon="6.64477">
        <ele>1868.8</ele>
        <time>2022-09-18T02:50:43Z</time>
      </trkpt>
      <trkpt lat="44.12154" lon="6.64478">
        <ele>1868.8</ele>
        <time>2022-09-18T02:50:44Z</time>
      </trkpt>
      <trkpt lat="44.12154" lon="6.64478">
        <ele>1868.8</ele>
        <time>2022-09-18T02:50:45Z</time>
      </trkpt>
      <trkpt lat="44.12153" lon="6.64479">
        <ele>1868.8</ele>
        <time>2022-09-18T02:50:46Z</time>
      </trkpt>
      <trkpt lat="44.12153" lon="6.6448">
        <ele>1868.8</ele>
        <time>2022-09-18T02:50:47Z</time>
      </trkpt>
      <trkpt lat="44.12151" lon="6.6448">
        <ele>1868.8</ele>
        <time>2022-09-18T02:50:48Z</time>
      </trkpt>
      <trkpt lat="44.12151" lon="6.6448">
        <ele>1868.8</ele>
        <time>2022-09-18T02:50:50Z</time>
      </trkpt>
      <trkpt lat="44.12149" lon="6.64482">
        <ele>1868.9</ele>
        <time>2022-09-18T02:50:51Z</time>
      </trkpt>
      <trkpt lat="44.12148" lon="6.64485">
        <ele>1868.9</ele>
        <time>2022-09-18T02:50:52Z</time>
      </trkpt>
      <trkpt lat="44.12146" lon="6.64488">
        <ele>1868.9</ele>
        <time>2022-09-18T02:50:54Z</time>
      </trkpt>
      <trkpt lat="44.12144" lon="6.64491">
        <ele>1868.9</ele>
        <time>2022-09-18T02:50:55Z</time>
      </trkpt>
      <trkpt lat="44.12141" lon="6.64497">
        <ele>1869</ele>
        <time>2022-09-18T02:50:56Z</time>
      </trkpt>
      <trkpt lat="44.1214" lon="6.645">
        <ele>1869</ele>
        <time>2022-09-18T02:50:57Z</time>
      </trkpt>
      <trkpt lat="44.12137" lon="6.64503">
        <ele>1869</ele>
        <time>2022-09-18T02:50:58Z</time>
      </trkpt>
      <trkpt lat="44.12135" lon="6.64507">
        <ele>1869.1</ele>
        <time>2022-09-18T02:50:59Z</time>
      </trkpt>
      <trkpt lat="44.12132" lon="6.64512">
        <ele>1869.2</ele>
        <time>2022-09-18T02:51:01Z</time>
      </trkpt>
      <trkpt lat="44.12129" lon="6.64516">
        <ele>1869.2</ele>
        <time>2022-09-18T02:51:02Z</time>
      </trkpt>
      <trkpt lat="44.12125" lon="6.64522">
        <ele>1869.4</ele>
        <time>2022-09-18T02:51:03Z</time>
      </trkpt>
      <trkpt lat="44.12123" lon="6.64527">
        <ele>1869.5</ele>
        <time>2022-09-18T02:51:04Z</time>
      </trkpt>
      <trkpt lat="44.12119" lon="6.64534">
        <ele>1869.7</ele>
        <time>2022-09-18T02:51:05Z</time>
      </trkpt>
      <trkpt lat="44.12117" lon="6.64539">
        <ele>1869.8</ele>
        <time>2022-09-18T02:51:07Z</time>
      </trkpt>
      <trkpt lat="44.12115" lon="6.64543">
        <ele>1869.9</ele>
        <time>2022-09-18T02:51:08Z</time>
      </trkpt>
      <trkpt lat="44.12112" lon="6.64549">
        <ele>1870</ele>
        <time>2022-09-18T02:51:09Z</time>
      </trkpt>
      <trkpt lat="44.1211" lon="6.64555">
        <ele>1870.1</ele>
        <time>2022-09-18T02:51:10Z</time>
      </trkpt>
      <trkpt lat="44.12106" lon="6.64564">
        <ele>1870.2</ele>
        <time>2022-09-18T02:51:12Z</time>
      </trkpt>
      <trkpt lat="44.12104" lon="6.64568">
        <ele>1870.3</ele>
        <time>2022-09-18T02:51:13Z</time>
      </trkpt>
      <trkpt lat="44.12102" lon="6.64572">
        <ele>1870.4</ele>
        <time>2022-09-18T02:51:14Z</time>
      </trkpt>
      <trkpt lat="44.12099" lon="6.6458">
        <ele>1870.5</ele>
        <time>2022-09-18T02:51:16Z</time>
      </trkpt>
      <trkpt lat="44.12096" lon="6.64585">
        <ele>1870.5</ele>
        <time>2022-09-18T02:51:18Z</time>
      </trkpt>
      <trkpt lat="44.12095" lon="6.64589">
        <ele>1870.6</ele>
        <time>2022-09-18T02:51:19Z</time>
      </trkpt>
      <trkpt lat="44.12092" lon="6.64594">
        <ele>1870.6</ele>
        <time>2022-09-18T02:51:20Z</time>
      </trkpt>
      <trkpt lat="44.1209" lon="6.646">
        <ele>1870.7</ele>
        <time>2022-09-18T02:51:21Z</time>
      </trkpt>
      <trkpt lat="44.12087" lon="6.64606">
        <ele>1870.9</ele>
        <time>2022-09-18T02:51:23Z</time>
      </trkpt>
      <trkpt lat="44.12083" lon="6.64613">
        <ele>1871.1</ele>
        <time>2022-09-18T02:51:24Z</time>
      </trkpt>
      <trkpt lat="44.12081" lon="6.64619">
        <ele>1871.2</ele>
        <time>2022-09-18T02:51:25Z</time>
      </trkpt>
      <trkpt lat="44.12079" lon="6.64622">
        <ele>1871.3</ele>
        <time>2022-09-18T02:51:26Z</time>
      </trkpt>
      <trkpt lat="44.12077" lon="6.64627">
        <ele>1871.4</ele>
        <time>2022-09-18T02:51:28Z</time>
      </trkpt>
      <trkpt lat="44.12073" lon="6.64634">
        <ele>1871.6</ele>
        <time>2022-09-18T02:51:29Z</time>
      </trkpt>
      <trkpt lat="44.1207" lon="6.64637">
        <ele>1871.6</ele>
        <time>2022-09-18T02:51:30Z</time>
      </trkpt>
      <trkpt lat="44.12068" lon="6.64641">
        <ele>1871.7</ele>
        <time>2022-09-18T02:51:31Z</time>
      </trkpt>
      <trkpt lat="44.12067" lon="6.64644">
        <ele>1871.7</ele>
        <time>2022-09-18T02:51:32Z</time>
      </trkpt>
      <trkpt lat="44.12064" lon="6.6465">
        <ele>1871.7</ele>
        <time>2022-09-18T02:51:34Z</time>
      </trkpt>
      <trkpt lat="44.12063" lon="6.64654">
        <ele>1871.8</ele>
        <time>2022-09-18T02:51:35Z</time>
      </trkpt>
      <trkpt lat="44.12062" lon="6.64657">
        <ele>1871.8</ele>
        <time>2022-09-18T02:51:36Z</time>
      </trkpt>
      <trkpt lat="44.1206" lon="6.64662">
        <ele>1871.9</ele>
        <time>2022-09-18T02:51:37Z</time>
      </trkpt>
      <trkpt lat="44.12059" lon="6.64666">
        <ele>1872</ele>
        <time>2022-09-18T02:51:38Z</time>
      </trkpt>
      <trkpt lat="44.12057" lon="6.64671">
        <ele>1872.1</ele>
        <time>2022-09-18T02:51:39Z</time>
      </trkpt>
      <trkpt lat="44.12056" lon="6.64676">
        <ele>1872.2</ele>
        <time>2022-09-18T02:51:40Z</time>
      </trkpt>
      <trkpt lat="44.12054" lon="6.64681">
        <ele>1872.4</ele>
        <time>2022-09-18T02:51:41Z</time>
      </trkpt>
      <trkpt lat="44.12053" lon="6.64689">
        <ele>1872.5</ele>
        <time>2022-09-18T02:51:42Z</time>
      </trkpt>
      <trkpt lat="44.12052" lon="6.64694">
        <ele>1872.6</ele>
        <time>2022-09-18T02:51:43Z</time>
      </trkpt>
      <trkpt lat="44.12052" lon="6.64698">
        <ele>1872.7</ele>
        <time>2022-09-18T02:51:44Z</time>
      </trkpt>
      <trkpt lat="44.12051" lon="6.64702">
        <ele>1872.8</ele>
        <time>2022-09-18T02:51:45Z</time>
      </trkpt>
      <trkpt lat="44.1205" lon="6.64706">
        <ele>1873</ele>
        <time>2022-09-18T02:51:47Z</time>
      </trkpt>
      <trkpt lat="44.1205" lon="6.6471">
        <ele>1873.1</ele>
        <time>2022-09-18T02:51:48Z</time>
      </trkpt>
      <trkpt lat="44.12049" lon="6.64715">
        <ele>1873.2</ele>
        <time>2022-09-18T02:51:49Z</time>
      </trkpt>
      <trkpt lat="44.12048" lon="6.64722">
        <ele>1873.4</ele>
        <time>2022-09-18T02:51:50Z</time>
      </trkpt>
      <trkpt lat="44.12046" lon="6.64727">
        <ele>1873.6</ele>
        <time>2022-09-18T02:51:52Z</time>
      </trkpt>
      <trkpt lat="44.12042" lon="6.64729">
        <ele>1873.7</ele>
        <time>2022-09-18T02:51:53Z</time>
      </trkpt>
      <trkpt lat="44.12041" lon="6.6473">
        <ele>1873.8</ele>
        <time>2022-09-18T02:51:54Z</time>
      </trkpt>
      <trkpt lat="44.12037" lon="6.64731">
        <ele>1873.9</ele>
        <time>2022-09-18T02:51:55Z</time>
      </trkpt>
      <trkpt lat="44.12031" lon="6.64732">
        <ele>1874.1</ele>
        <time>2022-09-18T02:51:57Z</time>
      </trkpt>
      <trkpt lat="44.12025" lon="6.64731">
        <ele>1874.2</ele>
        <time>2022-09-18T02:51:59Z</time>
      </trkpt>
      <trkpt lat="44.12022" lon="6.64731">
        <ele>1874.3</ele>
        <time>2022-09-18T02:52:01Z</time>
      </trkpt>
      <trkpt lat="44.12019" lon="6.64731">
        <ele>1874.4</ele>
        <time>2022-09-18T02:52:02Z</time>
      </trkpt>
      <trkpt lat="44.12015" lon="6.64732">
        <ele>1874.5</ele>
        <time>2022-09-18T02:52:03Z</time>
      </trkpt>
      <trkpt lat="44.12011" lon="6.64733">
        <ele>1874.5</ele>
        <time>2022-09-18T02:52:04Z</time>
      </trkpt>
      <trkpt lat="44.1201" lon="6.64733">
        <ele>1874.5</ele>
        <time>2022-09-18T02:52:05Z</time>
      </trkpt>
      <trkpt lat="44.12004" lon="6.64736">
        <ele>1874.6</ele>
        <time>2022-09-18T02:52:07Z</time>
      </trkpt>
      <trkpt lat="44.12001" lon="6.6474">
        <ele>1874.7</ele>
        <time>2022-09-18T02:52:09Z</time>
      </trkpt>
      <trkpt lat="44.11998" lon="6.64742">
        <ele>1874.7</ele>
        <time>2022-09-18T02:52:10Z</time>
      </trkpt>
      <trkpt lat="44.11994" lon="6.64744">
        <ele>1874.8</ele>
        <time>2022-09-18T02:52:11Z</time>
      </trkpt>
      <trkpt lat="44.11991" lon="6.64747">
        <ele>1874.9</ele>
        <time>2022-09-18T02:52:12Z</time>
      </trkpt>
      <trkpt lat="44.11987" lon="6.64752">
        <ele>1875</ele>
        <time>2022-09-18T02:52:14Z</time>
      </trkpt>
      <trkpt lat="44.11982" lon="6.64759">
        <ele>1875.2</ele>
        <time>2022-09-18T02:52:16Z</time>
      </trkpt>
      <trkpt lat="44.11979" lon="6.64763">
        <ele>1875.3</ele>
        <time>2022-09-18T02:52:17Z</time>
      </trkpt>
      <trkpt lat="44.11976" lon="6.64767">
        <ele>1875.4</ele>
        <time>2022-09-18T02:52:18Z</time>
      </trkpt>
      <trkpt lat="44.11972" lon="6.64771">
        <ele>1875.5</ele>
        <time>2022-09-18T02:52:19Z</time>
      </trkpt>
      <trkpt lat="44.1197" lon="6.64774">
        <ele>1875.5</ele>
        <time>2022-09-18T02:52:20Z</time>
      </trkpt>
      <trkpt lat="44.11969" lon="6.64778">
        <ele>1875.5</ele>
        <time>2022-09-18T02:52:21Z</time>
      </trkpt>
      <trkpt lat="44.11965" lon="6.64785">
        <ele>1875.6</ele>
        <time>2022-09-18T02:52:22Z</time>
      </trkpt>
      <trkpt lat="44.11964" lon="6.6479">
        <ele>1875.7</ele>
        <time>2022-09-18T02:52:23Z</time>
      </trkpt>
      <trkpt lat="44.1196" lon="6.64792">
        <ele>1875.8</ele>
        <time>2022-09-18T02:52:24Z</time>
      </trkpt>
      <trkpt lat="44.11956" lon="6.64791">
        <ele>1876</ele>
        <time>2022-09-18T02:52:26Z</time>
      </trkpt>
      <trkpt lat="44.11952" lon="6.64789">
        <ele>1876.3</ele>
        <time>2022-09-18T02:52:27Z</time>
      </trkpt>
      <trkpt lat="44.11949" lon="6.64789">
        <ele>1876.5</ele>
        <time>2022-09-18T02:52:28Z</time>
      </trkpt>
      <trkpt lat="44.11944" lon="6.6479">
        <ele>1876.7</ele>
        <time>2022-09-18T02:52:29Z</time>
      </trkpt>
      <trkpt lat="44.11941" lon="6.64792">
        <ele>1876.8</ele>
        <time>2022-09-18T02:52:30Z</time>
      </trkpt>
      <trkpt lat="44.11938" lon="6.64795">
        <ele>1876.9</ele>
        <time>2022-09-18T02:52:32Z</time>
      </trkpt>
      <trkpt lat="44.11936" lon="6.64798">
        <ele>1877</ele>
        <time>2022-09-18T02:52:33Z</time>
      </trkpt>
      <trkpt lat="44.11933" lon="6.64801">
        <ele>1877.1</ele>
        <time>2022-09-18T02:52:34Z</time>
      </trkpt>
      <trkpt lat="44.11931" lon="6.64802">
        <ele>1877.2</ele>
        <time>2022-09-18T02:52:35Z</time>
      </trkpt>
      <trkpt lat="44.11928" lon="6.64803">
        <ele>1877.3</ele>
        <time>2022-09-18T02:52:36Z</time>
      </trkpt>
      <trkpt lat="44.1192" lon="6.64805">
        <ele>1877.7</ele>
        <time>2022-09-18T02:52:38Z</time>
      </trkpt>
      <trkpt lat="44.11918" lon="6.64807">
        <ele>1877.8</ele>
        <time>2022-09-18T02:52:39Z</time>
      </trkpt>
      <trkpt lat="44.11913" lon="6.64811">
        <ele>1878</ele>
        <time>2022-09-18T02:52:41Z</time>
      </trkpt>
      <trkpt lat="44.1191" lon="6.64814">
        <ele>1878.1</ele>
        <time>2022-09-18T02:52:42Z</time>
      </trkpt>
      <trkpt lat="44.11908" lon="6.64819">
        <ele>1878.2</ele>
        <time>2022-09-18T02:52:43Z</time>
      </trkpt>
      <trkpt lat="44.11905" lon="6.64823">
        <ele>1878.2</ele>
        <time>2022-09-18T02:52:44Z</time>
      </trkpt>
      <trkpt lat="44.11901" lon="6.64828">
        <ele>1878.3</ele>
        <time>2022-09-18T02:52:45Z</time>
      </trkpt>
      <trkpt lat="44.11896" lon="6.64835">
        <ele>1878.4</ele>
        <time>2022-09-18T02:52:47Z</time>
      </trkpt>
      <trkpt lat="44.11893" lon="6.64838">
        <ele>1878.5</ele>
        <time>2022-09-18T02:52:48Z</time>
      </trkpt>
      <trkpt lat="44.11888" lon="6.64842">
        <ele>1878.6</ele>
        <time>2022-09-18T02:52:50Z</time>
      </trkpt>
      <trkpt lat="44.11884" lon="6.64847">
        <ele>1878.6</ele>
        <time>2022-09-18T02:52:51Z</time>
      </trkpt>
      <trkpt lat="44.11883" lon="6.64851">
        <ele>1878.6</ele>
        <time>2022-09-18T02:52:52Z</time>
      </trkpt>
      <trkpt lat="44.11881" lon="6.64854">
        <ele>1878.6</ele>
        <time>2022-09-18T02:52:53Z</time>
      </trkpt>
      <trkpt lat="44.11877" lon="6.64858">
        <ele>1878.6</ele>
        <time>2022-09-18T02:52:55Z</time>
      </trkpt>
      <trkpt lat="44.11875" lon="6.64859">
        <ele>1878.6</ele>
        <time>2022-09-18T02:52:56Z</time>
      </trkpt>
      <trkpt lat="44.11873" lon="6.6486">
        <ele>1878.6</ele>
        <time>2022-09-18T02:52:57Z</time>
      </trkpt>
      <trkpt lat="44.11872" lon="6.64864">
        <ele>1878.7</ele>
        <time>2022-09-18T02:52:59Z</time>
      </trkpt>
      <trkpt lat="44.11872" lon="6.64868">
        <ele>1878.7</ele>
        <time>2022-09-18T02:53:00Z</time>
      </trkpt>
      <trkpt lat="44.11871" lon="6.64874">
        <ele>1878.8</ele>
        <time>2022-09-18T02:53:01Z</time>
      </trkpt>
      <trkpt lat="44.11868" lon="6.64878">
        <ele>1878.8</ele>
        <time>2022-09-18T02:53:02Z</time>
      </trkpt>
      <trkpt lat="44.11865" lon="6.64881">
        <ele>1878.9</ele>
        <time>2022-09-18T02:53:03Z</time>
      </trkpt>
      <trkpt lat="44.11862" lon="6.64882">
        <ele>1878.9</ele>
        <time>2022-09-18T02:53:04Z</time>
      </trkpt>
      <trkpt lat="44.11861" lon="6.64882">
        <ele>1879</ele>
        <time>2022-09-18T02:53:05Z</time>
      </trkpt>
      <trkpt lat="44.11855" lon="6.64885">
        <ele>1879.1</ele>
        <time>2022-09-18T02:53:07Z</time>
      </trkpt>
      <trkpt lat="44.11851" lon="6.64889">
        <ele>1879.2</ele>
        <time>2022-09-18T02:53:08Z</time>
      </trkpt>
      <trkpt lat="44.11848" lon="6.64893">
        <ele>1879.2</ele>
        <time>2022-09-18T02:53:09Z</time>
      </trkpt>
      <trkpt lat="44.11843" lon="6.64899">
        <ele>1879.2</ele>
        <time>2022-09-18T02:53:10Z</time>
      </trkpt>
      <trkpt lat="44.11839" lon="6.64905">
        <ele>1879.2</ele>
        <time>2022-09-18T02:53:12Z</time>
      </trkpt>
      <trkpt lat="44.11838" lon="6.64911">
        <ele>1879.1</ele>
        <time>2022-09-18T02:53:13Z</time>
      </trkpt>
      <trkpt lat="44.11838" lon="6.64916">
        <ele>1879.1</ele>
        <time>2022-09-18T02:53:14Z</time>
      </trkpt>
      <trkpt lat="44.11838" lon="6.64923">
        <ele>1879.1</ele>
        <time>2022-09-18T02:53:16Z</time>
      </trkpt>
      <trkpt lat="44.11837" lon="6.64926">
        <ele>1879.1</ele>
        <time>2022-09-18T02:53:17Z</time>
      </trkpt>
      <trkpt lat="44.11836" lon="6.64928">
        <ele>1879.1</ele>
        <time>2022-09-18T02:53:18Z</time>
      </trkpt>
      <trkpt lat="44.11835" lon="6.64928">
        <ele>1879.2</ele>
        <time>2022-09-18T02:53:19Z</time>
      </trkpt>
      <trkpt lat="44.11835" lon="6.64927">
        <ele>1879.2</ele>
        <time>2022-09-18T02:53:20Z</time>
      </trkpt>
      <trkpt lat="44.11834" lon="6.64927">
        <ele>1879.2</ele>
        <time>2022-09-18T02:53:22Z</time>
      </trkpt>
      <trkpt lat="44.11834" lon="6.64927">
        <ele>1879.2</ele>
        <time>2022-09-18T02:53:23Z</time>
      </trkpt>
      <trkpt lat="44.11834" lon="6.64927">
        <ele>1879.2</ele>
        <time>2022-09-18T02:53:24Z</time>
      </trkpt>
      <trkpt lat="44.11834" lon="6.64927">
        <ele>1879.2</ele>
        <time>2022-09-18T02:53:25Z</time>
      </trkpt>
      <trkpt lat="44.11834" lon="6.64927">
        <ele>1879.2</ele>
        <time>2022-09-18T02:53:27Z</time>
      </trkpt>
      <trkpt lat="44.11833" lon="6.64927">
        <ele>1879.2</ele>
        <time>2022-09-18T02:53:28Z</time>
      </trkpt>
      <trkpt lat="44.11833" lon="6.64927">
        <ele>1879.2</ele>
        <time>2022-09-18T02:53:29Z</time>
      </trkpt>
      <trkpt lat="44.11833" lon="6.64927">
        <ele>1879.2</ele>
        <time>2022-09-18T02:53:30Z</time>
      </trkpt>
      <trkpt lat="44.11832" lon="6.64924">
        <ele>1879.3</ele>
        <time>2022-09-18T02:54:03Z</time>
      </trkpt>
      <trkpt lat="44.11831" lon="6.64922">
        <ele>1879.3</ele>
        <time>2022-09-18T02:54:04Z</time>
      </trkpt>
      <trkpt lat="44.1183" lon="6.6492">
        <ele>1879.4</ele>
        <time>2022-09-18T02:54:06Z</time>
      </trkpt>
      <trkpt lat="44.11829" lon="6.64919">
        <ele>1879.4</ele>
        <time>2022-09-18T02:54:07Z</time>
      </trkpt>
      <trkpt lat="44.11829" lon="6.64917">
        <ele>1879.5</ele>
        <time>2022-09-18T02:54:09Z</time>
      </trkpt>
      <trkpt lat="44.11829" lon="6.64917">
        <ele>1879.5</ele>
        <time>2022-09-18T02:54:10Z</time>
      </trkpt>
      <trkpt lat="44.11829" lon="6.64916">
        <ele>1879.5</ele>
        <time>2022-09-18T02:54:11Z</time>
      </trkpt>
      <trkpt lat="44.11829" lon="6.64915">
        <ele>1879.5</ele>
        <time>2022-09-18T02:54:12Z</time>
      </trkpt>
      <trkpt lat="44.11829" lon="6.64913">
        <ele>1879.6</ele>
        <time>2022-09-18T02:54:13Z</time>
      </trkpt>
      <trkpt lat="44.11828" lon="6.64911">
        <ele>1879.6</ele>
        <time>2022-09-18T02:54:15Z</time>
      </trkpt>
      <trkpt lat="44.11826" lon="6.64907">
        <ele>1879.7</ele>
        <time>2022-09-18T02:54:16Z</time>
      </trkpt>
      <trkpt lat="44.11825" lon="6.64905">
        <ele>1879.8</ele>
        <time>2022-09-18T02:54:17Z</time>
      </trkpt>
      <trkpt lat="44.11824" lon="6.64898">
        <ele>1879.8</ele>
        <time>2022-09-18T02:54:18Z</time>
      </trkpt>
      <trkpt lat="44.11821" lon="6.64883">
        <ele>1879.9</ele>
        <time>2022-09-18T02:54:20Z</time>
      </trkpt>
      <trkpt lat="44.11821" lon="6.64877">
        <ele>1879.9</ele>
        <time>2022-09-18T02:54:21Z</time>
      </trkpt>
      <trkpt lat="44.11822" lon="6.64863">
        <ele>1880</ele>
        <time>2022-09-18T02:54:23Z</time>
      </trkpt>
      <trkpt lat="44.11823" lon="6.64856">
        <ele>1879.9</ele>
        <time>2022-09-18T02:54:25Z</time>
      </trkpt>
      <trkpt lat="44.11823" lon="6.64843">
        <ele>1879.9</ele>
        <time>2022-09-18T02:54:26Z</time>
      </trkpt>
      <trkpt lat="44.11822" lon="6.64838">
        <ele>1879.9</ele>
        <time>2022-09-18T02:54:28Z</time>
      </trkpt>
      <trkpt lat="44.1182" lon="6.64831">
        <ele>1879.9</ele>
        <time>2022-09-18T02:54:29Z</time>
      </trkpt>
      <trkpt lat="44.11819" lon="6.64823">
        <ele>1880</ele>
        <time>2022-09-18T02:54:31Z</time>
      </trkpt>
      <trkpt lat="44.11818" lon="6.64817">
        <ele>1880.1</ele>
        <time>2022-09-18T02:54:32Z</time>
      </trkpt>
      <trkpt lat="44.11817" lon="6.64812">
        <ele>1880.1</ele>
        <time>2022-09-18T02:54:33Z</time>
      </trkpt>
      <trkpt lat="44.11818" lon="6.64807">
        <ele>1880.2</ele>
        <time>2022-09-18T02:54:34Z</time>
      </trkpt>
      <trkpt lat="44.1182" lon="6.64802">
        <ele>1880.1</ele>
        <time>2022-09-18T02:54:35Z</time>
      </trkpt>
      <trkpt lat="44.11821" lon="6.64797">
        <ele>1880.1</ele>
        <time>2022-09-18T02:54:37Z</time>
      </trkpt>
      <trkpt lat="44.1182" lon="6.64793">
        <ele>1880.1</ele>
        <time>2022-09-18T02:54:38Z</time>
      </trkpt>
      <trkpt lat="44.11818" lon="6.64788">
        <ele>1880.1</ele>
        <time>2022-09-18T02:54:39Z</time>
      </trkpt>
      <trkpt lat="44.11816" lon="6.64787">
        <ele>1880.2</ele>
        <time>2022-09-18T02:54:40Z</time>
      </trkpt>
      <trkpt lat="44.11813" lon="6.64782">
        <ele>1880.4</ele>
        <time>2022-09-18T02:54:42Z</time>
      </trkpt>
      <trkpt lat="44.11812" lon="6.64779">
        <ele>1880.5</ele>
        <time>2022-09-18T02:54:43Z</time>
      </trkpt>
      <trkpt lat="44.11813" lon="6.64775">
        <ele>1880.7</ele>
        <time>2022-09-18T02:54:44Z</time>
      </trkpt>
      <trkpt lat="44.11815" lon="6.64769">
        <ele>1881</ele>
        <time>2022-09-18T02:54:45Z</time>
      </trkpt>
      <trkpt lat="44.11815" lon="6.64767">
        <ele>1881.1</ele>
        <time>2022-09-18T02:54:47Z</time>
      </trkpt>
      <trkpt lat="44.11815" lon="6.64766">
        <ele>1881.1</ele>
        <time>2022-09-18T02:54:48Z</time>
      </trkpt>
      <trkpt lat="44.11815" lon="6.64766">
        <ele>1881.2</ele>
        <time>2022-09-18T02:54:49Z</time>
      </trkpt>
      <trkpt lat="44.11815" lon="6.64765">
        <ele>1881.2</ele>
        <time>2022-09-18T02:54:50Z</time>
      </trkpt>
      <trkpt lat="44.11815" lon="6.64764">
        <ele>1881.2</ele>
        <time>2022-09-18T02:54:52Z</time>
      </trkpt>
      <trkpt lat="44.11815" lon="6.64764">
        <ele>1881.2</ele>
        <time>2022-09-18T02:54:53Z</time>
      </trkpt>
      <trkpt lat="44.11815" lon="6.64763">
        <ele>1881.3</ele>
        <time>2022-09-18T02:54:54Z</time>
      </trkpt>
      <trkpt lat="44.11815" lon="6.64762">
        <ele>1881.3</ele>
        <time>2022-09-18T02:54:55Z</time>
      </trkpt>
      <trkpt lat="44.11815" lon="6.64762">
        <ele>1881.3</ele>
        <time>2022-09-18T02:54:56Z</time>
      </trkpt>
      <trkpt lat="44.11815" lon="6.64761">
        <ele>1881.3</ele>
        <time>2022-09-18T02:54:57Z</time>
      </trkpt>
      <trkpt lat="44.11814" lon="6.64761">
        <ele>1881.4</ele>
        <time>2022-09-18T02:54:58Z</time>
      </trkpt>
      <trkpt lat="44.11814" lon="6.6476">
        <ele>1881.4</ele>
        <time>2022-09-18T02:54:59Z</time>
      </trkpt>
      <trkpt lat="44.11814" lon="6.64759">
        <ele>1881.4</ele>
        <time>2022-09-18T02:55:34Z</time>
      </trkpt>
      <trkpt lat="44.11814" lon="6.64759">
        <ele>1881.4</ele>
        <time>2022-09-18T02:55:35Z</time>
      </trkpt>
      <trkpt lat="44.11815" lon="6.64754">
        <ele>1881.6</ele>
        <time>2022-09-18T02:55:36Z</time>
      </trkpt>
      <trkpt lat="44.11816" lon="6.64749">
        <ele>1881.7</ele>
        <time>2022-09-18T02:55:37Z</time>
      </trkpt>
      <trkpt lat="44.11817" lon="6.64744">
        <ele>1881.8</ele>
        <time>2022-09-18T02:55:39Z</time>
      </trkpt>
      <trkpt lat="44.11817" lon="6.6474">
        <ele>1881.9</ele>
        <time>2022-09-18T02:55:40Z</time>
      </trkpt>
      <trkpt lat="44.11817" lon="6.64736">
        <ele>1882</ele>
        <time>2022-09-18T02:55:41Z</time>
      </trkpt>
      <trkpt lat="44.11817" lon="6.64729">
        <ele>1882.1</ele>
        <time>2022-09-18T02:55:42Z</time>
      </trkpt>
      <trkpt lat="44.11818" lon="6.64723">
        <ele>1882.2</ele>
        <time>2022-09-18T02:55:43Z</time>
      </trkpt>
      <trkpt lat="44.11818" lon="6.64717">
        <ele>1882.3</ele>
        <time>2022-09-18T02:55:44Z</time>
      </trkpt>
      <trkpt lat="44.11819" lon="6.64711">
        <ele>1882.4</ele>
        <time>2022-09-18T02:55:45Z</time>
      </trkpt>
      <trkpt lat="44.1182" lon="6.64704">
        <ele>1882.6</ele>
        <time>2022-09-18T02:55:47Z</time>
      </trkpt>
      <trkpt lat="44.11821" lon="6.64698">
        <ele>1882.7</ele>
        <time>2022-09-18T02:55:48Z</time>
      </trkpt>
      <trkpt lat="44.11821" lon="6.64693">
        <ele>1882.8</ele>
        <time>2022-09-18T02:55:49Z</time>
      </trkpt>
      <trkpt lat="44.11822" lon="6.64689">
        <ele>1882.9</ele>
        <time>2022-09-18T02:55:50Z</time>
      </trkpt>
      <trkpt lat="44.11822" lon="6.64685">
        <ele>1883</ele>
        <time>2022-09-18T02:55:51Z</time>
      </trkpt>
      <trkpt lat="44.11823" lon="6.64677">
        <ele>1883.1</ele>
        <time>2022-09-18T02:55:52Z</time>
      </trkpt>
      <trkpt lat="44.11823" lon="6.64673">
        <ele>1883.2</ele>
        <time>2022-09-18T02:55:53Z</time>
      </trkpt>
      <trkpt lat="44.11823" lon="6.64663">
        <ele>1883.2</ele>
        <time>2022-09-18T02:55:55Z</time>
      </trkpt>
      <trkpt lat="44.11824" lon="6.64657">
        <ele>1883.2</ele>
        <time>2022-09-18T02:55:57Z</time>
      </trkpt>
      <trkpt lat="44.11824" lon="6.64653">
        <ele>1883.1</ele>
        <time>2022-09-18T02:55:58Z</time>
      </trkpt>
      <trkpt lat="44.11824" lon="6.64648">
        <ele>1883.1</ele>
        <time>2022-09-18T02:56:00Z</time>
      </trkpt>
      <trkpt lat="44.11823" lon="6.64643">
        <ele>1883.3</ele>
        <time>2022-09-18T02:56:01Z</time>
      </trkpt>
      <trkpt lat="44.11823" lon="6.64642">
        <ele>1883.5</ele>
        <time>2022-09-18T02:56:02Z</time>
      </trkpt>
      <trkpt lat="44.11822" lon="6.64637">
        <ele>1883.9</ele>
        <time>2022-09-18T02:56:03Z</time>
      </trkpt>
      <trkpt lat="44.11822" lon="6.64632">
        <ele>1884.3</ele>
        <time>2022-09-18T02:56:04Z</time>
      </trkpt>
      <trkpt lat="44.11822" lon="6.64627">
        <ele>1884.8</ele>
        <time>2022-09-18T02:56:06Z</time>
      </trkpt>
      <trkpt lat="44.11822" lon="6.64623">
        <ele>1885.2</ele>
        <time>2022-09-18T02:56:07Z</time>
      </trkpt>
      <trkpt lat="44.11822" lon="6.64617">
        <ele>1885.7</ele>
        <time>2022-09-18T02:56:08Z</time>
      </trkpt>
      <trkpt lat="44.11821" lon="6.64613">
        <ele>1886.2</ele>
        <time>2022-09-18T02:56:09Z</time>
      </trkpt>
      <trkpt lat="44.1182" lon="6.64611">
        <ele>1886.3</ele>
        <time>2022-09-18T02:56:10Z</time>
      </trkpt>
      <trkpt lat="44.11819" lon="6.64604">
        <ele>1887</ele>
        <time>2022-09-18T02:56:12Z</time>
      </trkpt>
      <trkpt lat="44.11819" lon="6.646">
        <ele>1887.3</ele>
        <time>2022-09-18T02:56:13Z</time>
      </trkpt>
      <trkpt lat="44.11819" lon="6.64599">
        <ele>1887.4</ele>
        <time>2022-09-18T02:56:14Z</time>
      </trkpt>
      <trkpt lat="44.11817" lon="6.64593">
        <ele>1888</ele>
        <time>2022-09-18T02:56:16Z</time>
      </trkpt>
      <trkpt lat="44.11816" lon="6.64592">
        <ele>1888.2</ele>
        <time>2022-09-18T02:56:17Z</time>
      </trkpt>
      <trkpt lat="44.11816" lon="6.6459">
        <ele>1888.4</ele>
        <time>2022-09-18T02:56:18Z</time>
      </trkpt>
      <trkpt lat="44.11815" lon="6.64589">
        <ele>1888.5</ele>
        <time>2022-09-18T02:56:19Z</time>
      </trkpt>
      <trkpt lat="44.11814" lon="6.64588">
        <ele>1888.7</ele>
        <time>2022-09-18T02:56:20Z</time>
      </trkpt>
      <trkpt lat="44.11813" lon="6.64589">
        <ele>1888.7</ele>
        <time>2022-09-18T02:56:22Z</time>
      </trkpt>
      <trkpt lat="44.11813" lon="6.64589">
        <ele>1888.8</ele>
        <time>2022-09-18T02:56:23Z</time>
      </trkpt>
      <trkpt lat="44.11813" lon="6.64589">
        <ele>1888.8</ele>
        <time>2022-09-18T02:56:24Z</time>
      </trkpt>
      <trkpt lat="44.11813" lon="6.64589">
        <ele>1888.8</ele>
        <time>2022-09-18T02:56:26Z</time>
      </trkpt>
      <trkpt lat="44.11813" lon="6.64589">
        <ele>1888.8</ele>
        <time>2022-09-18T02:56:27Z</time>
      </trkpt>
      <trkpt lat="44.11813" lon="6.64589">
        <ele>1888.8</ele>
        <time>2022-09-18T02:56:28Z</time>
      </trkpt>
      <trkpt lat="44.11813" lon="6.64589">
        <ele>1888.8</ele>
        <time>2022-09-18T02:56:29Z</time>
      </trkpt>
      <trkpt lat="44.11813" lon="6.64588">
        <ele>1888.9</ele>
        <time>2022-09-18T02:56:30Z</time>
      </trkpt>
      <trkpt lat="44.11813" lon="6.64588">
        <ele>1888.9</ele>
        <time>2022-09-18T02:56:31Z</time>
      </trkpt>
      <trkpt lat="44.1181" lon="6.64586">
        <ele>1889.3</ele>
        <time>2022-09-18T02:56:36Z</time>
      </trkpt>
      <trkpt lat="44.11809" lon="6.64583">
        <ele>1889.6</ele>
        <time>2022-09-18T02:56:37Z</time>
      </trkpt>
      <trkpt lat="44.11809" lon="6.64578">
        <ele>1890.1</ele>
        <time>2022-09-18T02:56:38Z</time>
      </trkpt>
      <trkpt lat="44.11806" lon="6.6457">
        <ele>1890.9</ele>
        <time>2022-09-18T02:56:40Z</time>
      </trkpt>
      <trkpt lat="44.11805" lon="6.64566">
        <ele>1891.3</ele>
        <time>2022-09-18T02:56:41Z</time>
      </trkpt>
      <trkpt lat="44.11802" lon="6.6456">
        <ele>1891.9</ele>
        <time>2022-09-18T02:56:42Z</time>
      </trkpt>
      <trkpt lat="44.118" lon="6.64557">
        <ele>1892.4</ele>
        <time>2022-09-18T02:56:43Z</time>
      </trkpt>
      <trkpt lat="44.11797" lon="6.64553">
        <ele>1892.9</ele>
        <time>2022-09-18T02:56:45Z</time>
      </trkpt>
      <trkpt lat="44.11793" lon="6.64552">
        <ele>1893.4</ele>
        <time>2022-09-18T02:56:46Z</time>
      </trkpt>
      <trkpt lat="44.11787" lon="6.64549">
        <ele>1894.2</ele>
        <time>2022-09-18T02:56:47Z</time>
      </trkpt>
      <trkpt lat="44.11782" lon="6.64547">
        <ele>1894.9</ele>
        <time>2022-09-18T02:56:49Z</time>
      </trkpt>
      <trkpt lat="44.1178" lon="6.64546">
        <ele>1895.1</ele>
        <time>2022-09-18T02:56:50Z</time>
      </trkpt>
      <trkpt lat="44.11778" lon="6.64545">
        <ele>1895.4</ele>
        <time>2022-09-18T02:56:51Z</time>
      </trkpt>
      <trkpt lat="44.11777" lon="6.64541">
        <ele>1895.8</ele>
        <time>2022-09-18T02:56:52Z</time>
      </trkpt>
      <trkpt lat="44.11777" lon="6.64535">
        <ele>1896.4</ele>
        <time>2022-09-18T02:56:53Z</time>
      </trkpt>
      <trkpt lat="44.11778" lon="6.64527">
        <ele>1897.1</ele>
        <time>2022-09-18T02:56:55Z</time>
      </trkpt>
      <trkpt lat="44.1178" lon="6.64524">
        <ele>1897.5</ele>
        <time>2022-09-18T02:56:56Z</time>
      </trkpt>
      <trkpt lat="44.1178" lon="6.6452">
        <ele>1897.9</ele>
        <time>2022-09-18T02:56:57Z</time>
      </trkpt>
      <trkpt lat="44.11781" lon="6.64515">
        <ele>1898.3</ele>
        <time>2022-09-18T02:56:58Z</time>
      </trkpt>
      <trkpt lat="44.1178" lon="6.64509">
        <ele>1898.9</ele>
        <time>2022-09-18T02:56:59Z</time>
      </trkpt>
      <trkpt lat="44.11779" lon="6.64506">
        <ele>1899.1</ele>
        <time>2022-09-18T02:57:00Z</time>
      </trkpt>
      <trkpt lat="44.11776" lon="6.64497">
        <ele>1900.1</ele>
        <time>2022-09-18T02:57:02Z</time>
      </trkpt>
      <trkpt lat="44.11774" lon="6.64493">
        <ele>1900.6</ele>
        <time>2022-09-18T02:57:04Z</time>
      </trkpt>
      <trkpt lat="44.11771" lon="6.64489">
        <ele>1901.1</ele>
        <time>2022-09-18T02:57:05Z</time>
      </trkpt>
      <trkpt lat="44.11768" lon="6.64483">
        <ele>1901.7</ele>
        <time>2022-09-18T02:57:06Z</time>
      </trkpt>
      <trkpt lat="44.11766" lon="6.64478">
        <ele>1902.3</ele>
        <time>2022-09-18T02:57:08Z</time>
      </trkpt>
      <trkpt lat="44.11765" lon="6.64474">
        <ele>1902.7</ele>
        <time>2022-09-18T02:57:09Z</time>
      </trkpt>
      <trkpt lat="44.11764" lon="6.64468">
        <ele>1903.2</ele>
        <time>2022-09-18T02:57:10Z</time>
      </trkpt>
      <trkpt lat="44.11763" lon="6.64466">
        <ele>1903.5</ele>
        <time>2022-09-18T02:57:11Z</time>
      </trkpt>
      <trkpt lat="44.11762" lon="6.64461">
        <ele>1903.9</ele>
        <time>2022-09-18T02:57:12Z</time>
      </trkpt>
      <trkpt lat="44.1176" lon="6.64457">
        <ele>1904.4</ele>
        <time>2022-09-18T02:57:13Z</time>
      </trkpt>
      <trkpt lat="44.11757" lon="6.64454">
        <ele>1904.9</ele>
        <time>2022-09-18T02:57:14Z</time>
      </trkpt>
      <trkpt lat="44.11752" lon="6.64448">
        <ele>1905.7</ele>
        <time>2022-09-18T02:57:16Z</time>
      </trkpt>
      <trkpt lat="44.1175" lon="6.64445">
        <ele>1906.1</ele>
        <time>2022-09-18T02:57:18Z</time>
      </trkpt>
      <trkpt lat="44.11748" lon="6.64442">
        <ele>1906.5</ele>
        <time>2022-09-18T02:57:19Z</time>
      </trkpt>
      <trkpt lat="44.11747" lon="6.64438">
        <ele>1906.9</ele>
        <time>2022-09-18T02:57:20Z</time>
      </trkpt>
      <trkpt lat="44.11743" lon="6.64433">
        <ele>1907.5</ele>
        <time>2022-09-18T02:57:21Z</time>
      </trkpt>
      <trkpt lat="44.11741" lon="6.6443">
        <ele>1907.9</ele>
        <time>2022-09-18T02:57:22Z</time>
      </trkpt>
      <trkpt lat="44.11741" lon="6.64426">
        <ele>1908.3</ele>
        <time>2022-09-18T02:57:23Z</time>
      </trkpt>
      <trkpt lat="44.1174" lon="6.6442">
        <ele>1908.8</ele>
        <time>2022-09-18T02:57:25Z</time>
      </trkpt>
      <trkpt lat="44.11739" lon="6.64415">
        <ele>1909.3</ele>
        <time>2022-09-18T02:57:26Z</time>
      </trkpt>
      <trkpt lat="44.11738" lon="6.64411">
        <ele>1909.7</ele>
        <time>2022-09-18T02:57:27Z</time>
      </trkpt>
      <trkpt lat="44.11736" lon="6.64405">
        <ele>1910.3</ele>
        <time>2022-09-18T02:57:28Z</time>
      </trkpt>
      <trkpt lat="44.11735" lon="6.64401">
        <ele>1910.7</ele>
        <time>2022-09-18T02:57:29Z</time>
      </trkpt>
      <trkpt lat="44.11733" lon="6.64397">
        <ele>1911.1</ele>
        <time>2022-09-18T02:57:30Z</time>
      </trkpt>
      <trkpt lat="44.11731" lon="6.64392">
        <ele>1911.7</ele>
        <time>2022-09-18T02:57:31Z</time>
      </trkpt>
      <trkpt lat="44.1173" lon="6.64389">
        <ele>1912</ele>
        <time>2022-09-18T02:57:32Z</time>
      </trkpt>
      <trkpt lat="44.11728" lon="6.64384">
        <ele>1912.5</ele>
        <time>2022-09-18T02:57:34Z</time>
      </trkpt>
      <trkpt lat="44.11727" lon="6.6438">
        <ele>1912.9</ele>
        <time>2022-09-18T02:57:35Z</time>
      </trkpt>
      <trkpt lat="44.11725" lon="6.64376">
        <ele>1913.3</ele>
        <time>2022-09-18T02:57:36Z</time>
      </trkpt>
      <trkpt lat="44.11725" lon="6.6437">
        <ele>1913.9</ele>
        <time>2022-09-18T02:57:37Z</time>
      </trkpt>
      <trkpt lat="44.11724" lon="6.64365">
        <ele>1914.4</ele>
        <time>2022-09-18T02:57:38Z</time>
      </trkpt>
      <trkpt lat="44.11724" lon="6.64361">
        <ele>1914.8</ele>
        <time>2022-09-18T02:57:39Z</time>
      </trkpt>
      <trkpt lat="44.11724" lon="6.64355">
        <ele>1915.4</ele>
        <time>2022-09-18T02:57:41Z</time>
      </trkpt>
      <trkpt lat="44.11723" lon="6.64348">
        <ele>1915.9</ele>
        <time>2022-09-18T02:57:42Z</time>
      </trkpt>
      <trkpt lat="44.11722" lon="6.64346">
        <ele>1916.2</ele>
        <time>2022-09-18T02:57:43Z</time>
      </trkpt>
      <trkpt lat="44.11719" lon="6.64336">
        <ele>1917.2</ele>
        <time>2022-09-18T02:57:44Z</time>
      </trkpt>
      <trkpt lat="44.11718" lon="6.64331">
        <ele>1917.7</ele>
        <time>2022-09-18T02:57:45Z</time>
      </trkpt>
      <trkpt lat="44.11716" lon="6.64326">
        <ele>1918.2</ele>
        <time>2022-09-18T02:57:47Z</time>
      </trkpt>
      <trkpt lat="44.11714" lon="6.64322">
        <ele>1918.7</ele>
        <time>2022-09-18T02:57:48Z</time>
      </trkpt>
      <trkpt lat="44.11711" lon="6.64318">
        <ele>1919.2</ele>
        <time>2022-09-18T02:57:49Z</time>
      </trkpt>
      <trkpt lat="44.11708" lon="6.64314">
        <ele>1919.8</ele>
        <time>2022-09-18T02:57:50Z</time>
      </trkpt>
      <trkpt lat="44.11704" lon="6.64309">
        <ele>1920.4</ele>
        <time>2022-09-18T02:57:51Z</time>
      </trkpt>
      <trkpt lat="44.11701" lon="6.64306">
        <ele>1920.9</ele>
        <time>2022-09-18T02:57:52Z</time>
      </trkpt>
      <trkpt lat="44.11698" lon="6.64303">
        <ele>1921.4</ele>
        <time>2022-09-18T02:57:53Z</time>
      </trkpt>
      <trkpt lat="44.11695" lon="6.643">
        <ele>1921.9</ele>
        <time>2022-09-18T02:57:54Z</time>
      </trkpt>
      <trkpt lat="44.11691" lon="6.64297">
        <ele>1922.4</ele>
        <time>2022-09-18T02:57:55Z</time>
      </trkpt>
      <trkpt lat="44.11687" lon="6.64295">
        <ele>1923</ele>
        <time>2022-09-18T02:57:57Z</time>
      </trkpt>
      <trkpt lat="44.11683" lon="6.64292">
        <ele>1923.6</ele>
        <time>2022-09-18T02:57:58Z</time>
      </trkpt>
      <trkpt lat="44.11681" lon="6.64289">
        <ele>1924</ele>
        <time>2022-09-18T02:57:59Z</time>
      </trkpt>
      <trkpt lat="44.11678" lon="6.64286">
        <ele>1924.4</ele>
        <time>2022-09-18T02:58:00Z</time>
      </trkpt>
      <trkpt lat="44.11675" lon="6.64283">
        <ele>1924.9</ele>
        <time>2022-09-18T02:58:02Z</time>
      </trkpt>
      <trkpt lat="44.11671" lon="6.64279">
        <ele>1925.5</ele>
        <time>2022-09-18T02:58:03Z</time>
      </trkpt>
      <trkpt lat="44.1167" lon="6.64277">
        <ele>1925.8</ele>
        <time>2022-09-18T02:58:04Z</time>
      </trkpt>
      <trkpt lat="44.11669" lon="6.64276">
        <ele>1925.9</ele>
        <time>2022-09-18T02:58:06Z</time>
      </trkpt>
      <trkpt lat="44.11668" lon="6.64275">
        <ele>1926</ele>
        <time>2022-09-18T02:58:07Z</time>
      </trkpt>
      <trkpt lat="44.11668" lon="6.64275">
        <ele>1926.1</ele>
        <time>2022-09-18T02:58:08Z</time>
      </trkpt>
      <trkpt lat="44.11667" lon="6.64274">
        <ele>1926.2</ele>
        <time>2022-09-18T02:58:09Z</time>
      </trkpt>
      <trkpt lat="44.11666" lon="6.64274">
        <ele>1926.3</ele>
        <time>2022-09-18T02:58:11Z</time>
      </trkpt>
      <trkpt lat="44.11666" lon="6.64274">
        <ele>1926.4</ele>
        <time>2022-09-18T02:58:12Z</time>
      </trkpt>
      <trkpt lat="44.11666" lon="6.64273">
        <ele>1926.4</ele>
        <time>2022-09-18T02:58:13Z</time>
      </trkpt>
      <trkpt lat="44.11665" lon="6.64272">
        <ele>1926.6</ele>
        <time>2022-09-18T02:58:14Z</time>
      </trkpt>
      <trkpt lat="44.11665" lon="6.64272">
        <ele>1926.6</ele>
        <time>2022-09-18T02:58:15Z</time>
      </trkpt>
      <trkpt lat="44.11664" lon="6.64271">
        <ele>1926.7</ele>
        <time>2022-09-18T02:58:17Z</time>
      </trkpt>
      <trkpt lat="44.11661" lon="6.64269">
        <ele>1927.2</ele>
        <time>2022-09-18T02:58:18Z</time>
      </trkpt>
      <trkpt lat="44.11658" lon="6.64266">
        <ele>1927.7</ele>
        <time>2022-09-18T02:58:19Z</time>
      </trkpt>
      <trkpt lat="44.11653" lon="6.64261">
        <ele>1928.4</ele>
        <time>2022-09-18T02:58:21Z</time>
      </trkpt>
      <trkpt lat="44.11649" lon="6.64257">
        <ele>1929</ele>
        <time>2022-09-18T02:58:22Z</time>
      </trkpt>
      <trkpt lat="44.11647" lon="6.64255">
        <ele>1929.4</ele>
        <time>2022-09-18T02:58:24Z</time>
      </trkpt>
      <trkpt lat="44.11644" lon="6.64253">
        <ele>1929.8</ele>
        <time>2022-09-18T02:58:25Z</time>
      </trkpt>
      <trkpt lat="44.11642" lon="6.6425">
        <ele>1930.2</ele>
        <time>2022-09-18T02:58:26Z</time>
      </trkpt>
      <trkpt lat="44.11641" lon="6.64249">
        <ele>1930.4</ele>
        <time>2022-09-18T02:58:27Z</time>
      </trkpt>
      <trkpt lat="44.1164" lon="6.64244">
        <ele>1930.9</ele>
        <time>2022-09-18T02:58:28Z</time>
      </trkpt>
      <trkpt lat="44.11638" lon="6.64239">
        <ele>1931.4</ele>
        <time>2022-09-18T02:58:29Z</time>
      </trkpt>
      <trkpt lat="44.11636" lon="6.64236">
        <ele>1931.7</ele>
        <time>2022-09-18T02:58:30Z</time>
      </trkpt>
      <trkpt lat="44.11633" lon="6.64232">
        <ele>1932.3</ele>
        <time>2022-09-18T02:58:32Z</time>
      </trkpt>
      <trkpt lat="44.11631" lon="6.64228">
        <ele>1932.7</ele>
        <time>2022-09-18T02:58:34Z</time>
      </trkpt>
      <trkpt lat="44.11629" lon="6.64225">
        <ele>1933.2</ele>
        <time>2022-09-18T02:58:35Z</time>
      </trkpt>
      <trkpt lat="44.11625" lon="6.64222">
        <ele>1933.8</ele>
        <time>2022-09-18T02:58:37Z</time>
      </trkpt>
      <trkpt lat="44.11623" lon="6.64221">
        <ele>1934</ele>
        <time>2022-09-18T02:58:38Z</time>
      </trkpt>
      <trkpt lat="44.11622" lon="6.64219">
        <ele>1934.2</ele>
        <time>2022-09-18T02:58:39Z</time>
      </trkpt>
      <trkpt lat="44.11619" lon="6.64218">
        <ele>1934.6</ele>
        <time>2022-09-18T02:58:40Z</time>
      </trkpt>
      <trkpt lat="44.11618" lon="6.64218">
        <ele>1934.7</ele>
        <time>2022-09-18T02:58:42Z</time>
      </trkpt>
      <trkpt lat="44.11618" lon="6.64217">
        <ele>1934.7</ele>
        <time>2022-09-18T02:58:43Z</time>
      </trkpt>
      <trkpt lat="44.11615" lon="6.64216">
        <ele>1935.1</ele>
        <time>2022-09-18T02:58:45Z</time>
      </trkpt>
      <trkpt lat="44.11611" lon="6.64214">
        <ele>1935.7</ele>
        <time>2022-09-18T02:58:46Z</time>
      </trkpt>
      <trkpt lat="44.11607" lon="6.64212">
        <ele>1936.2</ele>
        <time>2022-09-18T02:58:47Z</time>
      </trkpt>
      <trkpt lat="44.11604" lon="6.6421">
        <ele>1936.6</ele>
        <time>2022-09-18T02:58:49Z</time>
      </trkpt>
      <trkpt lat="44.11601" lon="6.64208">
        <ele>1937.1</ele>
        <time>2022-09-18T02:58:50Z</time>
      </trkpt>
      <trkpt lat="44.11594" lon="6.64204">
        <ele>1938</ele>
        <time>2022-09-18T02:58:51Z</time>
      </trkpt>
      <trkpt lat="44.1159" lon="6.64201">
        <ele>1938.6</ele>
        <time>2022-09-18T02:58:53Z</time>
      </trkpt>
      <trkpt lat="44.11586" lon="6.64198">
        <ele>1939.2</ele>
        <time>2022-09-18T02:58:54Z</time>
      </trkpt>
      <trkpt lat="44.11583" lon="6.64195">
        <ele>1939.7</ele>
        <time>2022-09-18T02:58:55Z</time>
      </trkpt>
      <trkpt lat="44.1158" lon="6.64193">
        <ele>1940.2</ele>
        <time>2022-09-18T02:58:56Z</time>
      </trkpt>
      <trkpt lat="44.11576" lon="6.6419">
        <ele>1940.7</ele>
        <time>2022-09-18T02:58:57Z</time>
      </trkpt>
      <trkpt lat="44.11572" lon="6.64187">
        <ele>1941.3</ele>
        <time>2022-09-18T02:58:58Z</time>
      </trkpt>
      <trkpt lat="44.11569" lon="6.64183">
        <ele>1941.9</ele>
        <time>2022-09-18T02:59:00Z</time>
      </trkpt>
      <trkpt lat="44.11565" lon="6.64179">
        <ele>1942.4</ele>
        <time>2022-09-18T02:59:01Z</time>
      </trkpt>
      <trkpt lat="44.11562" lon="6.64175">
        <ele>1943</ele>
        <time>2022-09-18T02:59:02Z</time>
      </trkpt>
      <trkpt lat="44.11559" lon="6.64171">
        <ele>1943.5</ele>
        <time>2022-09-18T02:59:04Z</time>
      </trkpt>
      <trkpt lat="44.11556" lon="6.64167">
        <ele>1944</ele>
        <time>2022-09-18T02:59:05Z</time>
      </trkpt>
      <trkpt lat="44.11554" lon="6.64164">
        <ele>1944.5</ele>
        <time>2022-09-18T02:59:06Z</time>
      </trkpt>
      <trkpt lat="44.11551" lon="6.64161">
        <ele>1945</ele>
        <time>2022-09-18T02:59:08Z</time>
      </trkpt>
      <trkpt lat="44.11548" lon="6.64159">
        <ele>1945.4</ele>
        <time>2022-09-18T02:59:09Z</time>
      </trkpt>
      <trkpt lat="44.11544" lon="6.64158">
        <ele>1945.8</ele>
        <time>2022-09-18T02:59:10Z</time>
      </trkpt>
      <trkpt lat="44.11541" lon="6.64158">
        <ele>1946.2</ele>
        <time>2022-09-18T02:59:11Z</time>
      </trkpt>
      <trkpt lat="44.11538" lon="6.6416">
        <ele>1946.7</ele>
        <time>2022-09-18T02:59:12Z</time>
      </trkpt>
      <trkpt lat="44.11535" lon="6.64162">
        <ele>1947.1</ele>
        <time>2022-09-18T02:59:13Z</time>
      </trkpt>
      <trkpt lat="44.11532" lon="6.64165">
        <ele>1947.5</ele>
        <time>2022-09-18T02:59:14Z</time>
      </trkpt>
      <trkpt lat="44.1153" lon="6.64168">
        <ele>1947.9</ele>
        <time>2022-09-18T02:59:15Z</time>
      </trkpt>
      <trkpt lat="44.11527" lon="6.6417">
        <ele>1948.3</ele>
        <time>2022-09-18T02:59:16Z</time>
      </trkpt>
      <trkpt lat="44.11524" lon="6.64174">
        <ele>1948.9</ele>
        <time>2022-09-18T02:59:18Z</time>
      </trkpt>
      <trkpt lat="44.1152" lon="6.64174">
        <ele>1949.4</ele>
        <time>2022-09-18T02:59:20Z</time>
      </trkpt>
      <trkpt lat="44.11517" lon="6.64172">
        <ele>1949.8</ele>
        <time>2022-09-18T02:59:21Z</time>
      </trkpt>
      <trkpt lat="44.11513" lon="6.6417">
        <ele>1950.4</ele>
        <time>2022-09-18T02:59:22Z</time>
      </trkpt>
      <trkpt lat="44.1151" lon="6.6417">
        <ele>1950.8</ele>
        <time>2022-09-18T02:59:23Z</time>
      </trkpt>
      <trkpt lat="44.11502" lon="6.64169">
        <ele>1951.7</ele>
        <time>2022-09-18T02:59:25Z</time>
      </trkpt>
      <trkpt lat="44.11498" lon="6.64165">
        <ele>1952.4</ele>
        <time>2022-09-18T02:59:27Z</time>
      </trkpt>
      <trkpt lat="44.11495" lon="6.64159">
        <ele>1953.1</ele>
        <time>2022-09-18T02:59:28Z</time>
      </trkpt>
      <trkpt lat="44.11494" lon="6.64154">
        <ele>1953.6</ele>
        <time>2022-09-18T02:59:30Z</time>
      </trkpt>
      <trkpt lat="44.11493" lon="6.64148">
        <ele>1954.1</ele>
        <time>2022-09-18T02:59:31Z</time>
      </trkpt>
      <trkpt lat="44.11492" lon="6.64143">
        <ele>1954.7</ele>
        <time>2022-09-18T02:59:32Z</time>
      </trkpt>
      <trkpt lat="44.1149" lon="6.64137">
        <ele>1955.2</ele>
        <time>2022-09-18T02:59:33Z</time>
      </trkpt>
      <trkpt lat="44.1149" lon="6.64134">
        <ele>1955.5</ele>
        <time>2022-09-18T02:59:34Z</time>
      </trkpt>
      <trkpt lat="44.11489" lon="6.64129">
        <ele>1955.9</ele>
        <time>2022-09-18T02:59:36Z</time>
      </trkpt>
      <trkpt lat="44.11488" lon="6.64125">
        <ele>1956.3</ele>
        <time>2022-09-18T02:59:37Z</time>
      </trkpt>
      <trkpt lat="44.11487" lon="6.6412">
        <ele>1956.8</ele>
        <time>2022-09-18T02:59:38Z</time>
      </trkpt>
      <trkpt lat="44.11487" lon="6.64117">
        <ele>1957.2</ele>
        <time>2022-09-18T02:59:39Z</time>
      </trkpt>
      <trkpt lat="44.11488" lon="6.64112">
        <ele>1957.6</ele>
        <time>2022-09-18T02:59:41Z</time>
      </trkpt>
      <trkpt lat="44.11489" lon="6.64113">
        <ele>1957.7</ele>
        <time>2022-09-18T02:59:42Z</time>
      </trkpt>
      <trkpt lat="44.1149" lon="6.64112">
        <ele>1957.9</ele>
        <time>2022-09-18T02:59:44Z</time>
      </trkpt>
      <trkpt lat="44.1149" lon="6.64112">
        <ele>1957.9</ele>
        <time>2022-09-18T02:59:45Z</time>
      </trkpt>
      <trkpt lat="44.11491" lon="6.64111">
        <ele>1958</ele>
        <time>2022-09-18T02:59:46Z</time>
      </trkpt>
      <trkpt lat="44.11491" lon="6.6411">
        <ele>1958.1</ele>
        <time>2022-09-18T02:59:47Z</time>
      </trkpt>
      <trkpt lat="44.11491" lon="6.64109">
        <ele>1958.2</ele>
        <time>2022-09-18T02:59:48Z</time>
      </trkpt>
      <trkpt lat="44.11491" lon="6.64109">
        <ele>1958.3</ele>
        <time>2022-09-18T02:59:49Z</time>
      </trkpt>
      <trkpt lat="44.11491" lon="6.64108">
        <ele>1958.3</ele>
        <time>2022-09-18T02:59:50Z</time>
      </trkpt>
      <trkpt lat="44.11491" lon="6.64107">
        <ele>1958.4</ele>
        <time>2022-09-18T02:59:52Z</time>
      </trkpt>
      <trkpt lat="44.1149" lon="6.64106">
        <ele>1958.5</ele>
        <time>2022-09-18T02:59:53Z</time>
      </trkpt>
      <trkpt lat="44.1149" lon="6.64105">
        <ele>1958.6</ele>
        <time>2022-09-18T02:59:54Z</time>
      </trkpt>
      <trkpt lat="44.1149" lon="6.64104">
        <ele>1958.7</ele>
        <time>2022-09-18T02:59:56Z</time>
      </trkpt>
      <trkpt lat="44.1149" lon="6.64102">
        <ele>1958.9</ele>
        <time>2022-09-18T02:59:57Z</time>
      </trkpt>
      <trkpt lat="44.11489" lon="6.64101">
        <ele>1958.9</ele>
        <time>2022-09-18T02:59:58Z</time>
      </trkpt>
      <trkpt lat="44.11489" lon="6.641">
        <ele>1959.1</ele>
        <time>2022-09-18T03:00:00Z</time>
      </trkpt>
      <trkpt lat="44.11489" lon="6.64099">
        <ele>1959.2</ele>
        <time>2022-09-18T03:00:01Z</time>
      </trkpt>
      <trkpt lat="44.11489" lon="6.64097">
        <ele>1959.3</ele>
        <time>2022-09-18T03:00:03Z</time>
      </trkpt>
      <trkpt lat="44.11489" lon="6.64097">
        <ele>1959.4</ele>
        <time>2022-09-18T03:00:04Z</time>
      </trkpt>
      <trkpt lat="44.11489" lon="6.64096">
        <ele>1959.4</ele>
        <time>2022-09-18T03:00:05Z</time>
      </trkpt>
      <trkpt lat="44.11489" lon="6.64096">
        <ele>1959.5</ele>
        <time>2022-09-18T03:00:06Z</time>
      </trkpt>
      <trkpt lat="44.11489" lon="6.64096">
        <ele>1959.5</ele>
        <time>2022-09-18T03:00:07Z</time>
      </trkpt>
      <trkpt lat="44.11489" lon="6.64095">
        <ele>1959.5</ele>
        <time>2022-09-18T03:00:08Z</time>
      </trkpt>
      <trkpt lat="44.11488" lon="6.64095">
        <ele>1959.6</ele>
        <time>2022-09-18T03:00:09Z</time>
      </trkpt>
      <trkpt lat="44.11488" lon="6.64094">
        <ele>1959.7</ele>
        <time>2022-09-18T03:00:11Z</time>
      </trkpt>
      <trkpt lat="44.11488" lon="6.64093">
        <ele>1959.8</ele>
        <time>2022-09-18T03:00:12Z</time>
      </trkpt>
      <trkpt lat="44.11487" lon="6.64091">
        <ele>1960</ele>
        <time>2022-09-18T03:00:13Z</time>
      </trkpt>
      <trkpt lat="44.11487" lon="6.64089">
        <ele>1960.1</ele>
        <time>2022-09-18T03:00:14Z</time>
      </trkpt>
      <trkpt lat="44.11486" lon="6.64086">
        <ele>1960.5</ele>
        <time>2022-09-18T03:00:16Z</time>
      </trkpt>
      <trkpt lat="44.11485" lon="6.6408">
        <ele>1961</ele>
        <time>2022-09-18T03:00:17Z</time>
      </trkpt>
      <trkpt lat="44.11485" lon="6.64078">
        <ele>1961.2</ele>
        <time>2022-09-18T03:00:18Z</time>
      </trkpt>
      <trkpt lat="44.11485" lon="6.64072">
        <ele>1961.7</ele>
        <time>2022-09-18T03:00:19Z</time>
      </trkpt>
      <trkpt lat="44.11484" lon="6.64067">
        <ele>1962.3</ele>
        <time>2022-09-18T03:00:20Z</time>
      </trkpt>
      <trkpt lat="44.11483" lon="6.64065">
        <ele>1962.5</ele>
        <time>2022-09-18T03:00:21Z</time>
      </trkpt>
      <trkpt lat="44.11482" lon="6.64061">
        <ele>1962.8</ele>
        <time>2022-09-18T03:00:22Z</time>
      </trkpt>
      <trkpt lat="44.11481" lon="6.64056">
        <ele>1963.3</ele>
        <time>2022-09-18T03:00:25Z</time>
      </trkpt>
      <trkpt lat="44.11481" lon="6.64055">
        <ele>1963.4</ele>
        <time>2022-09-18T03:00:26Z</time>
      </trkpt>
      <trkpt lat="44.1148" lon="6.64053">
        <ele>1963.6</ele>
        <time>2022-09-18T03:00:27Z</time>
      </trkpt>
      <trkpt lat="44.1148" lon="6.64052">
        <ele>1963.7</ele>
        <time>2022-09-18T03:00:28Z</time>
      </trkpt>
      <trkpt lat="44.1148" lon="6.64052">
        <ele>1963.7</ele>
        <time>2022-09-18T03:00:29Z</time>
      </trkpt>
      <trkpt lat="44.1148" lon="6.64052">
        <ele>1963.7</ele>
        <time>2022-09-18T03:00:30Z</time>
      </trkpt>
      <trkpt lat="44.1148" lon="6.64052">
        <ele>1963.8</ele>
        <time>2022-09-18T03:00:31Z</time>
      </trkpt>
      <trkpt lat="44.11479" lon="6.64052">
        <ele>1963.8</ele>
        <time>2022-09-18T03:00:32Z</time>
      </trkpt>
      <trkpt lat="44.11479" lon="6.64051">
        <ele>1963.9</ele>
        <time>2022-09-18T03:00:33Z</time>
      </trkpt>
      <trkpt lat="44.11478" lon="6.64051">
        <ele>1964</ele>
        <time>2022-09-18T03:00:34Z</time>
      </trkpt>
      <trkpt lat="44.11479" lon="6.6405">
        <ele>1964</ele>
        <time>2022-09-18T03:00:35Z</time>
      </trkpt>
      <trkpt lat="44.11479" lon="6.6405">
        <ele>1964.1</ele>
        <time>2022-09-18T03:00:36Z</time>
      </trkpt>
      <trkpt lat="44.11479" lon="6.6405">
        <ele>1964.1</ele>
        <time>2022-09-18T03:00:37Z</time>
      </trkpt>
      <trkpt lat="44.11479" lon="6.64049">
        <ele>1964.1</ele>
        <time>2022-09-18T03:00:38Z</time>
      </trkpt>
      <trkpt lat="44.11479" lon="6.64049">
        <ele>1964.2</ele>
        <time>2022-09-18T03:00:39Z</time>
      </trkpt>
      <trkpt lat="44.11479" lon="6.64049">
        <ele>1964.2</ele>
        <time>2022-09-18T03:00:40Z</time>
      </trkpt>
      <trkpt lat="44.11479" lon="6.64048">
        <ele>1964.2</ele>
        <time>2022-09-18T03:00:41Z</time>
      </trkpt>
      <trkpt lat="44.11479" lon="6.64048">
        <ele>1964.2</ele>
        <time>2022-09-18T03:00:44Z</time>
      </trkpt>
      <trkpt lat="44.11477" lon="6.64046">
        <ele>1964.5</ele>
        <time>2022-09-18T03:00:46Z</time>
      </trkpt>
      <trkpt lat="44.11477" lon="6.64044">
        <ele>1964.7</ele>
        <time>2022-09-18T03:00:47Z</time>
      </trkpt>
      <trkpt lat="44.11476" lon="6.64042">
        <ele>1964.9</ele>
        <time>2022-09-18T03:00:48Z</time>
      </trkpt>
      <trkpt lat="44.11476" lon="6.64039">
        <ele>1965.2</ele>
        <time>2022-09-18T03:00:50Z</time>
      </trkpt>
      <trkpt lat="44.11475" lon="6.64038">
        <ele>1965.3</ele>
        <time>2022-09-18T03:00:51Z</time>
      </trkpt>
      <trkpt lat="44.11475" lon="6.64036">
        <ele>1965.5</ele>
        <time>2022-09-18T03:00:52Z</time>
      </trkpt>
      <trkpt lat="44.11474" lon="6.64032">
        <ele>1965.9</ele>
        <time>2022-09-18T03:00:53Z</time>
      </trkpt>
      <trkpt lat="44.11474" lon="6.6403">
        <ele>1966</ele>
        <time>2022-09-18T03:00:54Z</time>
      </trkpt>
      <trkpt lat="44.11473" lon="6.64027">
        <ele>1966.4</ele>
        <time>2022-09-18T03:00:56Z</time>
      </trkpt>
      <trkpt lat="44.11473" lon="6.64025">
        <ele>1966.5</ele>
        <time>2022-09-18T03:00:57Z</time>
      </trkpt>
      <trkpt lat="44.11472" lon="6.64023">
        <ele>1966.8</ele>
        <time>2022-09-18T03:00:58Z</time>
      </trkpt>
      <trkpt lat="44.11471" lon="6.64021">
        <ele>1967</ele>
        <time>2022-09-18T03:01:00Z</time>
      </trkpt>
      <trkpt lat="44.11471" lon="6.64019">
        <ele>1967.2</ele>
        <time>2022-09-18T03:01:01Z</time>
      </trkpt>
      <trkpt lat="44.1147" lon="6.64017">
        <ele>1967.4</ele>
        <time>2022-09-18T03:01:02Z</time>
      </trkpt>
      <trkpt lat="44.1147" lon="6.64016">
        <ele>1967.5</ele>
        <time>2022-09-18T03:01:04Z</time>
      </trkpt>
      <trkpt lat="44.11469" lon="6.64013">
        <ele>1967.8</ele>
        <time>2022-09-18T03:01:05Z</time>
      </trkpt>
      <trkpt lat="44.11469" lon="6.64009">
        <ele>1968.1</ele>
        <time>2022-09-18T03:01:06Z</time>
      </trkpt>
      <trkpt lat="44.11469" lon="6.64008">
        <ele>1968.2</ele>
        <time>2022-09-18T03:01:07Z</time>
      </trkpt>
      <trkpt lat="44.11469" lon="6.64005">
        <ele>1968.5</ele>
        <time>2022-09-18T03:01:09Z</time>
      </trkpt>
      <trkpt lat="44.11469" lon="6.64004">
        <ele>1968.6</ele>
        <time>2022-09-18T03:01:10Z</time>
      </trkpt>
      <trkpt lat="44.11469" lon="6.64003">
        <ele>1968.7</ele>
        <time>2022-09-18T03:01:12Z</time>
      </trkpt>
      <trkpt lat="44.11469" lon="6.64001">
        <ele>1968.9</ele>
        <time>2022-09-18T03:01:13Z</time>
      </trkpt>
      <trkpt lat="44.11468" lon="6.64">
        <ele>1969</ele>
        <time>2022-09-18T03:01:14Z</time>
      </trkpt>
      <trkpt lat="44.11468" lon="6.63999">
        <ele>1969.1</ele>
        <time>2022-09-18T03:01:15Z</time>
      </trkpt>
      <trkpt lat="44.11469" lon="6.63997">
        <ele>1969.3</ele>
        <time>2022-09-18T03:01:16Z</time>
      </trkpt>
      <trkpt lat="44.11469" lon="6.63995">
        <ele>1969.4</ele>
        <time>2022-09-18T03:01:18Z</time>
      </trkpt>
      <trkpt lat="44.1147" lon="6.63994">
        <ele>1969.6</ele>
        <time>2022-09-18T03:01:19Z</time>
      </trkpt>
      <trkpt lat="44.1147" lon="6.63992">
        <ele>1969.7</ele>
        <time>2022-09-18T03:01:20Z</time>
      </trkpt>
      <trkpt lat="44.1147" lon="6.63991">
        <ele>1969.9</ele>
        <time>2022-09-18T03:01:21Z</time>
      </trkpt>
      <trkpt lat="44.11471" lon="6.63989">
        <ele>1970</ele>
        <time>2022-09-18T03:01:23Z</time>
      </trkpt>
      <trkpt lat="44.11471" lon="6.63987">
        <ele>1970.2</ele>
        <time>2022-09-18T03:01:24Z</time>
      </trkpt>
      <trkpt lat="44.11472" lon="6.63986">
        <ele>1970.3</ele>
        <time>2022-09-18T03:01:25Z</time>
      </trkpt>
      <trkpt lat="44.11472" lon="6.63984">
        <ele>1970.5</ele>
        <time>2022-09-18T03:01:27Z</time>
      </trkpt>
      <trkpt lat="44.11473" lon="6.63983">
        <ele>1970.6</ele>
        <time>2022-09-18T03:01:38Z</time>
      </trkpt>
      <trkpt lat="44.11473" lon="6.63981">
        <ele>1970.8</ele>
        <time>2022-09-18T03:01:39Z</time>
      </trkpt>
      <trkpt lat="44.11473" lon="6.6398">
        <ele>1970.9</ele>
        <time>2022-09-18T03:01:40Z</time>
      </trkpt>
      <trkpt lat="44.11474" lon="6.63978">
        <ele>1971.1</ele>
        <time>2022-09-18T03:01:41Z</time>
      </trkpt>
      <trkpt lat="44.11474" lon="6.63976">
        <ele>1971.3</ele>
        <time>2022-09-18T03:01:42Z</time>
      </trkpt>
      <trkpt lat="44.11474" lon="6.63975">
        <ele>1971.5</ele>
        <time>2022-09-18T03:01:43Z</time>
      </trkpt>
      <trkpt lat="44.11475" lon="6.63973">
        <ele>1971.6</ele>
        <time>2022-09-18T03:01:45Z</time>
      </trkpt>
      <trkpt lat="44.11475" lon="6.63972">
        <ele>1971.7</ele>
        <time>2022-09-18T03:01:46Z</time>
      </trkpt>
      <trkpt lat="44.11474" lon="6.63971">
        <ele>1971.8</ele>
        <time>2022-09-18T03:01:47Z</time>
      </trkpt>
      <trkpt lat="44.11474" lon="6.6397">
        <ele>1971.9</ele>
        <time>2022-09-18T03:01:48Z</time>
      </trkpt>
      <trkpt lat="44.11474" lon="6.6397">
        <ele>1971.9</ele>
        <time>2022-09-18T03:01:49Z</time>
      </trkpt>
      <trkpt lat="44.11473" lon="6.6397">
        <ele>1972</ele>
        <time>2022-09-18T03:01:50Z</time>
      </trkpt>
      <trkpt lat="44.11473" lon="6.63969">
        <ele>1972</ele>
        <time>2022-09-18T03:01:51Z</time>
      </trkpt>
      <trkpt lat="44.11473" lon="6.63968">
        <ele>1972.1</ele>
        <time>2022-09-18T03:01:52Z</time>
      </trkpt>
      <trkpt lat="44.11472" lon="6.63967">
        <ele>1972.2</ele>
        <time>2022-09-18T03:01:53Z</time>
      </trkpt>
      <trkpt lat="44.11472" lon="6.63965">
        <ele>1972.4</ele>
        <time>2022-09-18T03:01:54Z</time>
      </trkpt>
      <trkpt lat="44.11473" lon="6.63964">
        <ele>1972.5</ele>
        <time>2022-09-18T03:01:56Z</time>
      </trkpt>
      <trkpt lat="44.11473" lon="6.63963">
        <ele>1972.6</ele>
        <time>2022-09-18T03:01:57Z</time>
      </trkpt>
      <trkpt lat="44.11474" lon="6.63962">
        <ele>1972.8</ele>
        <time>2022-09-18T03:01:58Z</time>
      </trkpt>
      <trkpt lat="44.11474" lon="6.6396">
        <ele>1972.9</ele>
        <time>2022-09-18T03:02:00Z</time>
      </trkpt>
      <trkpt lat="44.11474" lon="6.63959">
        <ele>1973</ele>
        <time>2022-09-18T03:02:01Z</time>
      </trkpt>
      <trkpt lat="44.11473" lon="6.63959">
        <ele>1973.1</ele>
        <time>2022-09-18T03:02:02Z</time>
      </trkpt>
      <trkpt lat="44.11473" lon="6.63959">
        <ele>1973.1</ele>
        <time>2022-09-18T03:02:04Z</time>
      </trkpt>
      <trkpt lat="44.11473" lon="6.63959">
        <ele>1973.2</ele>
        <time>2022-09-18T03:02:05Z</time>
      </trkpt>
      <trkpt lat="44.11472" lon="6.63958">
        <ele>1973.3</ele>
        <time>2022-09-18T03:02:06Z</time>
      </trkpt>
      <trkpt lat="44.11472" lon="6.63958">
        <ele>1973.3</ele>
        <time>2022-09-18T03:02:07Z</time>
      </trkpt>
      <trkpt lat="44.11472" lon="6.63957">
        <ele>1973.4</ele>
        <time>2022-09-18T03:02:08Z</time>
      </trkpt>
      <trkpt lat="44.11472" lon="6.63956">
        <ele>1973.5</ele>
        <time>2022-09-18T03:02:10Z</time>
      </trkpt>
      <trkpt lat="44.11472" lon="6.63956">
        <ele>1973.5</ele>
        <time>2022-09-18T03:02:12Z</time>
      </trkpt>
      <trkpt lat="44.11471" lon="6.63955">
        <ele>1973.6</ele>
        <time>2022-09-18T03:02:13Z</time>
      </trkpt>
      <trkpt lat="44.11471" lon="6.63954">
        <ele>1973.7</ele>
        <time>2022-09-18T03:02:14Z</time>
      </trkpt>
      <trkpt lat="44.11471" lon="6.63953">
        <ele>1973.8</ele>
        <time>2022-09-18T03:02:15Z</time>
      </trkpt>
      <trkpt lat="44.11471" lon="6.63952">
        <ele>1973.9</ele>
        <time>2022-09-18T03:02:16Z</time>
      </trkpt>
      <trkpt lat="44.11471" lon="6.63951">
        <ele>1974</ele>
        <time>2022-09-18T03:02:17Z</time>
      </trkpt>
      <trkpt lat="44.1147" lon="6.6395">
        <ele>1974.1</ele>
        <time>2022-09-18T03:02:18Z</time>
      </trkpt>
      <trkpt lat="44.1147" lon="6.63948">
        <ele>1974.2</ele>
        <time>2022-09-18T03:02:20Z</time>
      </trkpt>
      <trkpt lat="44.1147" lon="6.63947">
        <ele>1974.4</ele>
        <time>2022-09-18T03:02:21Z</time>
      </trkpt>
      <trkpt lat="44.11469" lon="6.63946">
        <ele>1974.5</ele>
        <time>2022-09-18T03:02:23Z</time>
      </trkpt>
      <trkpt lat="44.11469" lon="6.63944">
        <ele>1974.7</ele>
        <time>2022-09-18T03:02:24Z</time>
      </trkpt>
      <trkpt lat="44.11468" lon="6.63942">
        <ele>1974.9</ele>
        <time>2022-09-18T03:02:26Z</time>
      </trkpt>
      <trkpt lat="44.11467" lon="6.63941">
        <ele>1975</ele>
        <time>2022-09-18T03:02:27Z</time>
      </trkpt>
      <trkpt lat="44.11466" lon="6.63941">
        <ele>1975.1</ele>
        <time>2022-09-18T03:02:28Z</time>
      </trkpt>
      <trkpt lat="44.11466" lon="6.6394">
        <ele>1975.2</ele>
        <time>2022-09-18T03:02:29Z</time>
      </trkpt>
      <trkpt lat="44.11465" lon="6.63938">
        <ele>1975.4</ele>
        <time>2022-09-18T03:02:30Z</time>
      </trkpt>
      <trkpt lat="44.11465" lon="6.63937">
        <ele>1975.5</ele>
        <time>2022-09-18T03:02:32Z</time>
      </trkpt>
      <trkpt lat="44.11465" lon="6.63936">
        <ele>1975.6</ele>
        <time>2022-09-18T03:02:33Z</time>
      </trkpt>
      <trkpt lat="44.11464" lon="6.63934">
        <ele>1975.8</ele>
        <time>2022-09-18T03:02:34Z</time>
      </trkpt>
      <trkpt lat="44.11464" lon="6.63932">
        <ele>1976</ele>
        <time>2022-09-18T03:02:36Z</time>
      </trkpt>
      <trkpt lat="44.11464" lon="6.63929">
        <ele>1976.2</ele>
        <time>2022-09-18T03:02:37Z</time>
      </trkpt>
      <trkpt lat="44.11464" lon="6.63928">
        <ele>1976.3</ele>
        <time>2022-09-18T03:02:38Z</time>
      </trkpt>
      <trkpt lat="44.11463" lon="6.63927">
        <ele>1976.4</ele>
        <time>2022-09-18T03:02:39Z</time>
      </trkpt>
      <trkpt lat="44.11463" lon="6.63926">
        <ele>1976.5</ele>
        <time>2022-09-18T03:02:40Z</time>
      </trkpt>
      <trkpt lat="44.11463" lon="6.63924">
        <ele>1976.7</ele>
        <time>2022-09-18T03:02:41Z</time>
      </trkpt>
      <trkpt lat="44.11463" lon="6.63923">
        <ele>1976.8</ele>
        <time>2022-09-18T03:02:42Z</time>
      </trkpt>
      <trkpt lat="44.11463" lon="6.63923">
        <ele>1976.9</ele>
        <time>2022-09-18T03:02:43Z</time>
      </trkpt>
      <trkpt lat="44.11462" lon="6.63922">
        <ele>1977</ele>
        <time>2022-09-18T03:02:44Z</time>
      </trkpt>
      <trkpt lat="44.11462" lon="6.6392">
        <ele>1977.2</ele>
        <time>2022-09-18T03:02:45Z</time>
      </trkpt>
      <trkpt lat="44.11461" lon="6.63917">
        <ele>1977.4</ele>
        <time>2022-09-18T03:02:47Z</time>
      </trkpt>
      <trkpt lat="44.11461" lon="6.63916">
        <ele>1977.5</ele>
        <time>2022-09-18T03:02:48Z</time>
      </trkpt>
      <trkpt lat="44.11461" lon="6.63915">
        <ele>1977.6</ele>
        <time>2022-09-18T03:02:50Z</time>
      </trkpt>
      <trkpt lat="44.1146" lon="6.63915">
        <ele>1977.6</ele>
        <time>2022-09-18T03:02:51Z</time>
      </trkpt>
      <trkpt lat="44.11459" lon="6.63914">
        <ele>1977.8</ele>
        <time>2022-09-18T03:02:52Z</time>
      </trkpt>
      <trkpt lat="44.11459" lon="6.63914">
        <ele>1977.9</ele>
        <time>2022-09-18T03:02:54Z</time>
      </trkpt>
      <trkpt lat="44.11459" lon="6.63913">
        <ele>1977.9</ele>
        <time>2022-09-18T03:02:55Z</time>
      </trkpt>
      <trkpt lat="44.11459" lon="6.63912">
        <ele>1978</ele>
        <time>2022-09-18T03:02:56Z</time>
      </trkpt>
      <trkpt lat="44.11458" lon="6.6391">
        <ele>1978.2</ele>
        <time>2022-09-18T03:02:58Z</time>
      </trkpt>
      <trkpt lat="44.11458" lon="6.63907">
        <ele>1978.5</ele>
        <time>2022-09-18T03:02:59Z</time>
      </trkpt>
      <trkpt lat="44.11457" lon="6.63906">
        <ele>1978.6</ele>
        <time>2022-09-18T03:03:01Z</time>
      </trkpt>
      <trkpt lat="44.11457" lon="6.63906">
        <ele>1978.7</ele>
        <time>2022-09-18T03:03:02Z</time>
      </trkpt>
      <trkpt lat="44.11457" lon="6.63905">
        <ele>1978.7</ele>
        <time>2022-09-18T03:03:03Z</time>
      </trkpt>
      <trkpt lat="44.11457" lon="6.63905">
        <ele>1978.7</ele>
        <time>2022-09-18T03:03:04Z</time>
      </trkpt>
      <trkpt lat="44.11457" lon="6.63904">
        <ele>1978.8</ele>
        <time>2022-09-18T03:03:05Z</time>
      </trkpt>
      <trkpt lat="44.11456" lon="6.63903">
        <ele>1978.9</ele>
        <time>2022-09-18T03:03:07Z</time>
      </trkpt>
      <trkpt lat="44.11456" lon="6.63902">
        <ele>1979</ele>
        <time>2022-09-18T03:03:08Z</time>
      </trkpt>
      <trkpt lat="44.11455" lon="6.63901">
        <ele>1979.1</ele>
        <time>2022-09-18T03:03:09Z</time>
      </trkpt>
      <trkpt lat="44.11455" lon="6.639">
        <ele>1979.2</ele>
        <time>2022-09-18T03:03:10Z</time>
      </trkpt>
      <trkpt lat="44.11455" lon="6.63899">
        <ele>1979.4</ele>
        <time>2022-09-18T03:03:11Z</time>
      </trkpt>
      <trkpt lat="44.11454" lon="6.63896">
        <ele>1979.6</ele>
        <time>2022-09-18T03:03:12Z</time>
      </trkpt>
      <trkpt lat="44.11454" lon="6.63895">
        <ele>1979.7</ele>
        <time>2022-09-18T03:03:13Z</time>
      </trkpt>
      <trkpt lat="44.11454" lon="6.63894">
        <ele>1979.8</ele>
        <time>2022-09-18T03:03:14Z</time>
      </trkpt>
      <trkpt lat="44.11454" lon="6.63893">
        <ele>1979.9</ele>
        <time>2022-09-18T03:03:15Z</time>
      </trkpt>
      <trkpt lat="44.11453" lon="6.6389">
        <ele>1980.2</ele>
        <time>2022-09-18T03:03:17Z</time>
      </trkpt>
      <trkpt lat="44.11453" lon="6.63887">
        <ele>1980.5</ele>
        <time>2022-09-18T03:03:18Z</time>
      </trkpt>
      <trkpt lat="44.11453" lon="6.63886">
        <ele>1980.6</ele>
        <time>2022-09-18T03:03:19Z</time>
      </trkpt>
      <trkpt lat="44.11452" lon="6.63883">
        <ele>1980.8</ele>
        <time>2022-09-18T03:03:20Z</time>
      </trkpt>
      <trkpt lat="44.11452" lon="6.63882">
        <ele>1981</ele>
        <time>2022-09-18T03:03:22Z</time>
      </trkpt>
      <trkpt lat="44.11451" lon="6.6388">
        <ele>1981.1</ele>
        <time>2022-09-18T03:03:23Z</time>
      </trkpt>
      <trkpt lat="44.11451" lon="6.63877">
        <ele>1981.4</ele>
        <time>2022-09-18T03:03:25Z</time>
      </trkpt>
      <trkpt lat="44.11451" lon="6.63876">
        <ele>1981.5</ele>
        <time>2022-09-18T03:03:26Z</time>
      </trkpt>
      <trkpt lat="44.1145" lon="6.63875">
        <ele>1981.7</ele>
        <time>2022-09-18T03:03:27Z</time>
      </trkpt>
      <trkpt lat="44.1145" lon="6.63872">
        <ele>1981.9</ele>
        <time>2022-09-18T03:03:28Z</time>
      </trkpt>
      <trkpt lat="44.1145" lon="6.63871">
        <ele>1982</ele>
        <time>2022-09-18T03:03:30Z</time>
      </trkpt>
      <trkpt lat="44.11449" lon="6.63871">
        <ele>1982.1</ele>
        <time>2022-09-18T03:03:31Z</time>
      </trkpt>
      <trkpt lat="44.11449" lon="6.63869">
        <ele>1982.2</ele>
        <time>2022-09-18T03:03:32Z</time>
      </trkpt>
      <trkpt lat="44.11448" lon="6.63867">
        <ele>1982.4</ele>
        <time>2022-09-18T03:03:33Z</time>
      </trkpt>
      <trkpt lat="44.11448" lon="6.63865">
        <ele>1982.6</ele>
        <time>2022-09-18T03:03:35Z</time>
      </trkpt>
      <trkpt lat="44.11447" lon="6.63865">
        <ele>1982.7</ele>
        <time>2022-09-18T03:03:36Z</time>
      </trkpt>
      <trkpt lat="44.11447" lon="6.63864">
        <ele>1982.7</ele>
        <time>2022-09-18T03:03:37Z</time>
      </trkpt>
      <trkpt lat="44.11447" lon="6.63864">
        <ele>1982.7</ele>
        <time>2022-09-18T03:03:38Z</time>
      </trkpt>
      <trkpt lat="44.11447" lon="6.63863">
        <ele>1982.8</ele>
        <time>2022-09-18T03:03:39Z</time>
      </trkpt>
      <trkpt lat="44.11447" lon="6.63862">
        <ele>1983</ele>
        <time>2022-09-18T03:03:40Z</time>
      </trkpt>
      <trkpt lat="44.11448" lon="6.63859">
        <ele>1983.2</ele>
        <time>2022-09-18T03:03:41Z</time>
      </trkpt>
      <trkpt lat="44.11448" lon="6.63859">
        <ele>1983.3</ele>
        <time>2022-09-18T03:03:42Z</time>
      </trkpt>
      <trkpt lat="44.11448" lon="6.63858">
        <ele>1983.3</ele>
        <time>2022-09-18T03:03:44Z</time>
      </trkpt>
      <trkpt lat="44.11448" lon="6.63856">
        <ele>1983.6</ele>
        <time>2022-09-18T03:03:45Z</time>
      </trkpt>
      <trkpt lat="44.11448" lon="6.63853">
        <ele>1983.8</ele>
        <time>2022-09-18T03:03:47Z</time>
      </trkpt>
      <trkpt lat="44.11447" lon="6.63851">
        <ele>1984</ele>
        <time>2022-09-18T03:03:48Z</time>
      </trkpt>
      <trkpt lat="44.11447" lon="6.6385">
        <ele>1984.1</ele>
        <time>2022-09-18T03:03:49Z</time>
      </trkpt>
      <trkpt lat="44.11447" lon="6.6385">
        <ele>1984.2</ele>
        <time>2022-09-18T03:03:50Z</time>
      </trkpt>
      <trkpt lat="44.11446" lon="6.63846">
        <ele>1984.5</ele>
        <time>2022-09-18T03:03:52Z</time>
      </trkpt>
      <trkpt lat="44.11446" lon="6.63844">
        <ele>1984.7</ele>
        <time>2022-09-18T03:03:53Z</time>
      </trkpt>
      <trkpt lat="44.11446" lon="6.63842">
        <ele>1984.9</ele>
        <time>2022-09-18T03:03:55Z</time>
      </trkpt>
      <trkpt lat="44.11445" lon="6.63841">
        <ele>1985</ele>
        <time>2022-09-18T03:03:56Z</time>
      </trkpt>
      <trkpt lat="44.11445" lon="6.6384">
        <ele>1985</ele>
        <time>2022-09-18T03:03:57Z</time>
      </trkpt>
      <trkpt lat="44.11445" lon="6.63839">
        <ele>1985.2</ele>
        <time>2022-09-18T03:03:58Z</time>
      </trkpt>
      <trkpt lat="44.11444" lon="6.63837">
        <ele>1985.4</ele>
        <time>2022-09-18T03:03:59Z</time>
      </trkpt>
      <trkpt lat="44.11444" lon="6.63834">
        <ele>1985.6</ele>
        <time>2022-09-18T03:04:01Z</time>
      </trkpt>
      <trkpt lat="44.11443" lon="6.63832">
        <ele>1985.9</ele>
        <time>2022-09-18T03:04:02Z</time>
      </trkpt>
      <trkpt lat="44.11443" lon="6.6383">
        <ele>1986.1</ele>
        <time>2022-09-18T03:04:03Z</time>
      </trkpt>
      <trkpt lat="44.11442" lon="6.63828">
        <ele>1986.2</ele>
        <time>2022-09-18T03:04:05Z</time>
      </trkpt>
      <trkpt lat="44.11442" lon="6.63827">
        <ele>1986.4</ele>
        <time>2022-09-18T03:04:06Z</time>
      </trkpt>
      <trkpt lat="44.11441" lon="6.63827">
        <ele>1986.4</ele>
        <time>2022-09-18T03:04:08Z</time>
      </trkpt>
      <trkpt lat="44.11441" lon="6.63827">
        <ele>1986.4</ele>
        <time>2022-09-18T03:04:09Z</time>
      </trkpt>
      <trkpt lat="44.11441" lon="6.63826">
        <ele>1986.4</ele>
        <time>2022-09-18T03:04:10Z</time>
      </trkpt>
      <trkpt lat="44.11441" lon="6.63825">
        <ele>1986.6</ele>
        <time>2022-09-18T03:04:11Z</time>
      </trkpt>
      <trkpt lat="44.11441" lon="6.63824">
        <ele>1986.7</ele>
        <time>2022-09-18T03:04:12Z</time>
      </trkpt>
      <trkpt lat="44.11441" lon="6.63822">
        <ele>1986.8</ele>
        <time>2022-09-18T03:04:13Z</time>
      </trkpt>
      <trkpt lat="44.11441" lon="6.63821">
        <ele>1986.9</ele>
        <time>2022-09-18T03:04:14Z</time>
      </trkpt>
      <trkpt lat="44.11441" lon="6.6382">
        <ele>1987</ele>
        <time>2022-09-18T03:04:16Z</time>
      </trkpt>
      <trkpt lat="44.11441" lon="6.63819">
        <ele>1987.1</ele>
        <time>2022-09-18T03:04:18Z</time>
      </trkpt>
      <trkpt lat="44.11441" lon="6.63818">
        <ele>1987.3</ele>
        <time>2022-09-18T03:04:19Z</time>
      </trkpt>
      <trkpt lat="44.11441" lon="6.63816">
        <ele>1987.4</ele>
        <time>2022-09-18T03:04:20Z</time>
      </trkpt>
      <trkpt lat="44.1144" lon="6.63812">
        <ele>1987.8</ele>
        <time>2022-09-18T03:04:21Z</time>
      </trkpt>
      <trkpt lat="44.1144" lon="6.63811">
        <ele>1987.9</ele>
        <time>2022-09-18T03:04:22Z</time>
      </trkpt>
      <trkpt lat="44.1144" lon="6.63809">
        <ele>1988.1</ele>
        <time>2022-09-18T03:04:24Z</time>
      </trkpt>
      <trkpt lat="44.1144" lon="6.63807">
        <ele>1988.3</ele>
        <time>2022-09-18T03:04:25Z</time>
      </trkpt>
      <trkpt lat="44.11439" lon="6.63805">
        <ele>1988.5</ele>
        <time>2022-09-18T03:04:26Z</time>
      </trkpt>
      <trkpt lat="44.11439" lon="6.63802">
        <ele>1988.7</ele>
        <time>2022-09-18T03:04:28Z</time>
      </trkpt>
      <trkpt lat="44.11438" lon="6.638">
        <ele>1989</ele>
        <time>2022-09-18T03:04:29Z</time>
      </trkpt>
      <trkpt lat="44.11438" lon="6.63798">
        <ele>1989.1</ele>
        <time>2022-09-18T03:04:30Z</time>
      </trkpt>
      <trkpt lat="44.11438" lon="6.63797">
        <ele>1989.2</ele>
        <time>2022-09-18T03:04:31Z</time>
      </trkpt>
      <trkpt lat="44.11438" lon="6.63796">
        <ele>1989.3</ele>
        <time>2022-09-18T03:04:33Z</time>
      </trkpt>
      <trkpt lat="44.11438" lon="6.63795">
        <ele>1989.4</ele>
        <time>2022-09-18T03:04:34Z</time>
      </trkpt>
      <trkpt lat="44.11438" lon="6.63794">
        <ele>1989.5</ele>
        <time>2022-09-18T03:04:36Z</time>
      </trkpt>
      <trkpt lat="44.11437" lon="6.63793">
        <ele>1989.6</ele>
        <time>2022-09-18T03:04:38Z</time>
      </trkpt>
      <trkpt lat="44.11437" lon="6.63792">
        <ele>1989.7</ele>
        <time>2022-09-18T03:04:39Z</time>
      </trkpt>
      <trkpt lat="44.11433" lon="6.63783">
        <ele>1990.7</ele>
        <time>2022-09-18T03:04:59Z</time>
      </trkpt>
      <trkpt lat="44.11433" lon="6.63783">
        <ele>1990.7</ele>
        <time>2022-09-18T03:05:00Z</time>
      </trkpt>
      <trkpt lat="44.11432" lon="6.63782">
        <ele>1990.8</ele>
        <time>2022-09-18T03:05:01Z</time>
      </trkpt>
      <trkpt lat="44.11432" lon="6.63781">
        <ele>1990.9</ele>
        <time>2022-09-18T03:05:03Z</time>
      </trkpt>
      <trkpt lat="44.11431" lon="6.6378">
        <ele>1991.1</ele>
        <time>2022-09-18T03:05:04Z</time>
      </trkpt>
      <trkpt lat="44.1143" lon="6.63779">
        <ele>1991.2</ele>
        <time>2022-09-18T03:05:05Z</time>
      </trkpt>
      <trkpt lat="44.11429" lon="6.63778">
        <ele>1991.4</ele>
        <time>2022-09-18T03:05:07Z</time>
      </trkpt>
      <trkpt lat="44.11428" lon="6.63777">
        <ele>1991.5</ele>
        <time>2022-09-18T03:05:08Z</time>
      </trkpt>
      <trkpt lat="44.11428" lon="6.63776">
        <ele>1991.6</ele>
        <time>2022-09-18T03:05:09Z</time>
      </trkpt>
      <trkpt lat="44.11428" lon="6.63775">
        <ele>1991.7</ele>
        <time>2022-09-18T03:05:11Z</time>
      </trkpt>
      <trkpt lat="44.11427" lon="6.63774">
        <ele>1991.8</ele>
        <time>2022-09-18T03:05:12Z</time>
      </trkpt>
      <trkpt lat="44.11427" lon="6.63773">
        <ele>1991.9</ele>
        <time>2022-09-18T03:05:13Z</time>
      </trkpt>
      <trkpt lat="44.11426" lon="6.63772">
        <ele>1992.1</ele>
        <time>2022-09-18T03:05:14Z</time>
      </trkpt>
      <trkpt lat="44.11426" lon="6.6377">
        <ele>1992.3</ele>
        <time>2022-09-18T03:05:16Z</time>
      </trkpt>
      <trkpt lat="44.11427" lon="6.63769">
        <ele>1992.5</ele>
        <time>2022-09-18T03:05:17Z</time>
      </trkpt>
      <trkpt lat="44.11427" lon="6.63768">
        <ele>1992.5</ele>
        <time>2022-09-18T03:05:18Z</time>
      </trkpt>
      <trkpt lat="44.11428" lon="6.63767">
        <ele>1992.6</ele>
        <time>2022-09-18T03:05:19Z</time>
      </trkpt>
      <trkpt lat="44.11428" lon="6.63766">
        <ele>1992.8</ele>
        <time>2022-09-18T03:05:20Z</time>
      </trkpt>
      <trkpt lat="44.11427" lon="6.63765">
        <ele>1992.9</ele>
        <time>2022-09-18T03:05:21Z</time>
      </trkpt>
      <trkpt lat="44.11426" lon="6.63764">
        <ele>1993.1</ele>
        <time>2022-09-18T03:05:23Z</time>
      </trkpt>
      <trkpt lat="44.11426" lon="6.63763">
        <ele>1993.1</ele>
        <time>2022-09-18T03:05:24Z</time>
      </trkpt>
      <trkpt lat="44.11424" lon="6.63761">
        <ele>1993.5</ele>
        <time>2022-09-18T03:05:25Z</time>
      </trkpt>
      <trkpt lat="44.11421" lon="6.63757">
        <ele>1994</ele>
        <time>2022-09-18T03:05:26Z</time>
      </trkpt>
      <trkpt lat="44.11421" lon="6.63756">
        <ele>1994.1</ele>
        <time>2022-09-18T03:05:27Z</time>
      </trkpt>
      <trkpt lat="44.11419" lon="6.63752">
        <ele>1994.5</ele>
        <time>2022-09-18T03:05:29Z</time>
      </trkpt>
      <trkpt lat="44.11418" lon="6.63748">
        <ele>1994.9</ele>
        <time>2022-09-18T03:05:30Z</time>
      </trkpt>
      <trkpt lat="44.11418" lon="6.63742">
        <ele>1995.5</ele>
        <time>2022-09-18T03:05:32Z</time>
      </trkpt>
      <trkpt lat="44.11417" lon="6.63736">
        <ele>1996</ele>
        <time>2022-09-18T03:05:33Z</time>
      </trkpt>
      <trkpt lat="44.11417" lon="6.63728">
        <ele>1996.8</ele>
        <time>2022-09-18T03:05:34Z</time>
      </trkpt>
      <trkpt lat="44.11416" lon="6.63722">
        <ele>1997.3</ele>
        <time>2022-09-18T03:05:35Z</time>
      </trkpt>
      <trkpt lat="44.11416" lon="6.63715">
        <ele>1998</ele>
        <time>2022-09-18T03:05:37Z</time>
      </trkpt>
      <trkpt lat="44.11415" lon="6.63712">
        <ele>1998.3</ele>
        <time>2022-09-18T03:05:38Z</time>
      </trkpt>
      <trkpt lat="44.11415" lon="6.63709">
        <ele>1998.5</ele>
        <time>2022-09-18T03:05:39Z</time>
      </trkpt>
      <trkpt lat="44.11414" lon="6.63702">
        <ele>1999.2</ele>
        <time>2022-09-18T03:05:41Z</time>
      </trkpt>
      <trkpt lat="44.11414" lon="6.63698">
        <ele>1999.6</ele>
        <time>2022-09-18T03:05:43Z</time>
      </trkpt>
      <trkpt lat="44.11414" lon="6.63693">
        <ele>2000</ele>
        <time>2022-09-18T03:05:44Z</time>
      </trkpt>
      <trkpt lat="44.11413" lon="6.63686">
        <ele>2000.5</ele>
        <time>2022-09-18T03:05:46Z</time>
      </trkpt>
      <trkpt lat="44.11413" lon="6.63683">
        <ele>2000.5</ele>
        <time>2022-09-18T03:05:47Z</time>
      </trkpt>
      <trkpt lat="44.11413" lon="6.6368">
        <ele>2000.5</ele>
        <time>2022-09-18T03:05:48Z</time>
      </trkpt>
      <trkpt lat="44.11413" lon="6.63675">
        <ele>2000.6</ele>
        <time>2022-09-18T03:05:50Z</time>
      </trkpt>
      <trkpt lat="44.11413" lon="6.6367">
        <ele>2000.6</ele>
        <time>2022-09-18T03:05:51Z</time>
      </trkpt>
      <trkpt lat="44.11413" lon="6.63667">
        <ele>2000.6</ele>
        <time>2022-09-18T03:05:52Z</time>
      </trkpt>
      <trkpt lat="44.1141" lon="6.63662">
        <ele>2000.7</ele>
        <time>2022-09-18T03:05:54Z</time>
      </trkpt>
      <trkpt lat="44.11408" lon="6.63661">
        <ele>2000.6</ele>
        <time>2022-09-18T03:05:55Z</time>
      </trkpt>
      <trkpt lat="44.11407" lon="6.63659">
        <ele>2000.6</ele>
        <time>2022-09-18T03:05:56Z</time>
      </trkpt>
      <trkpt lat="44.11408" lon="6.63653">
        <ele>2000.6</ele>
        <time>2022-09-18T03:05:57Z</time>
      </trkpt>
      <trkpt lat="44.11408" lon="6.6365">
        <ele>2000.6</ele>
        <time>2022-09-18T03:05:58Z</time>
      </trkpt>
      <trkpt lat="44.11409" lon="6.63641">
        <ele>2000.6</ele>
        <time>2022-09-18T03:06:00Z</time>
      </trkpt>
      <trkpt lat="44.11409" lon="6.63633">
        <ele>2000.5</ele>
        <time>2022-09-18T03:06:01Z</time>
      </trkpt>
      <trkpt lat="44.11408" lon="6.63629">
        <ele>2000.4</ele>
        <time>2022-09-18T03:06:02Z</time>
      </trkpt>
      <trkpt lat="44.11407" lon="6.63625">
        <ele>2000.4</ele>
        <time>2022-09-18T03:06:03Z</time>
      </trkpt>
      <trkpt lat="44.11406" lon="6.63621">
        <ele>2000.3</ele>
        <time>2022-09-18T03:06:05Z</time>
      </trkpt>
      <trkpt lat="44.11405" lon="6.63616">
        <ele>2000.3</ele>
        <time>2022-09-18T03:06:06Z</time>
      </trkpt>
      <trkpt lat="44.11403" lon="6.63612">
        <ele>2000.3</ele>
        <time>2022-09-18T03:06:08Z</time>
      </trkpt>
      <trkpt lat="44.11403" lon="6.63611">
        <ele>2000.2</ele>
        <time>2022-09-18T03:06:09Z</time>
      </trkpt>
      <trkpt lat="44.11401" lon="6.63608">
        <ele>2000.2</ele>
        <time>2022-09-18T03:06:11Z</time>
      </trkpt>
      <trkpt lat="44.114" lon="6.63606">
        <ele>2000.2</ele>
        <time>2022-09-18T03:06:13Z</time>
      </trkpt>
      <trkpt lat="44.11401" lon="6.63606">
        <ele>2000.2</ele>
        <time>2022-09-18T03:06:14Z</time>
      </trkpt>
      <trkpt lat="44.11401" lon="6.63606">
        <ele>2000.2</ele>
        <time>2022-09-18T03:06:15Z</time>
      </trkpt>
      <trkpt lat="44.114" lon="6.63606">
        <ele>2000.1</ele>
        <time>2022-09-18T03:06:16Z</time>
      </trkpt>
      <trkpt lat="44.114" lon="6.63606">
        <ele>2000.1</ele>
        <time>2022-09-18T03:06:17Z</time>
      </trkpt>
      <trkpt lat="44.114" lon="6.63606">
        <ele>2000.1</ele>
        <time>2022-09-18T03:06:18Z</time>
      </trkpt>
      <trkpt lat="44.114" lon="6.63605">
        <ele>2000.1</ele>
        <time>2022-09-18T03:06:19Z</time>
      </trkpt>
      <trkpt lat="44.114" lon="6.63605">
        <ele>2000.1</ele>
        <time>2022-09-18T03:06:20Z</time>
      </trkpt>
      <trkpt lat="44.114" lon="6.63605">
        <ele>2000.1</ele>
        <time>2022-09-18T03:06:21Z</time>
      </trkpt>
      <trkpt lat="44.114" lon="6.63605">
        <ele>2000.1</ele>
        <time>2022-09-18T03:06:22Z</time>
      </trkpt>
      <trkpt lat="44.11399" lon="6.63605">
        <ele>2000.1</ele>
        <time>2022-09-18T03:06:23Z</time>
      </trkpt>
      <trkpt lat="44.11399" lon="6.63605">
        <ele>2000.1</ele>
        <time>2022-09-18T03:06:25Z</time>
      </trkpt>
      <trkpt lat="44.11399" lon="6.63604">
        <ele>2000.1</ele>
        <time>2022-09-18T03:06:26Z</time>
      </trkpt>
      <trkpt lat="44.11399" lon="6.63604">
        <ele>2000.1</ele>
        <time>2022-09-18T03:06:27Z</time>
      </trkpt>
      <trkpt lat="44.11399" lon="6.63604">
        <ele>2000.1</ele>
        <time>2022-09-18T03:06:28Z</time>
      </trkpt>
      <trkpt lat="44.11399" lon="6.63604">
        <ele>2000.1</ele>
        <time>2022-09-18T03:06:29Z</time>
      </trkpt>
      <trkpt lat="44.11399" lon="6.63604">
        <ele>2000.1</ele>
        <time>2022-09-18T03:06:30Z</time>
      </trkpt>
      <trkpt lat="44.11398" lon="6.63603">
        <ele>2000.1</ele>
        <time>2022-09-18T03:06:31Z</time>
      </trkpt>
      <trkpt lat="44.11398" lon="6.63603">
        <ele>2000.1</ele>
        <time>2022-09-18T03:06:32Z</time>
      </trkpt>
      <trkpt lat="44.11398" lon="6.63603">
        <ele>2000.1</ele>
        <time>2022-09-18T03:06:34Z</time>
      </trkpt>
      <trkpt lat="44.11398" lon="6.63603">
        <ele>2000.1</ele>
        <time>2022-09-18T03:06:35Z</time>
      </trkpt>
      <trkpt lat="44.11398" lon="6.63603">
        <ele>2000.1</ele>
        <time>2022-09-18T03:06:36Z</time>
      </trkpt>
      <trkpt lat="44.11398" lon="6.63603">
        <ele>2000</ele>
        <time>2022-09-18T03:07:51Z</time>
      </trkpt>
      <trkpt lat="44.11398" lon="6.63602">
        <ele>2000</ele>
        <time>2022-09-18T03:07:52Z</time>
      </trkpt>
      <trkpt lat="44.11397" lon="6.63602">
        <ele>2000</ele>
        <time>2022-09-18T03:07:53Z</time>
      </trkpt>
      <trkpt lat="44.11396" lon="6.63594">
        <ele>1999.8</ele>
        <time>2022-09-18T03:07:55Z</time>
      </trkpt>
      <trkpt lat="44.11394" lon="6.63588">
        <ele>1999.5</ele>
        <time>2022-09-18T03:07:56Z</time>
      </trkpt>
      <trkpt lat="44.11392" lon="6.63585">
        <ele>1999.2</ele>
        <time>2022-09-18T03:07:57Z</time>
      </trkpt>
      <trkpt lat="44.11391" lon="6.63584">
        <ele>1999.1</ele>
        <time>2022-09-18T03:07:58Z</time>
      </trkpt>
      <trkpt lat="44.11389" lon="6.6358">
        <ele>1998.7</ele>
        <time>2022-09-18T03:07:59Z</time>
      </trkpt>
      <trkpt lat="44.11388" lon="6.63577">
        <ele>1998.5</ele>
        <time>2022-09-18T03:08:00Z</time>
      </trkpt>
      <trkpt lat="44.11384" lon="6.6357">
        <ele>1997.8</ele>
        <time>2022-09-18T03:08:01Z</time>
      </trkpt>
      <trkpt lat="44.11381" lon="6.63564">
        <ele>1997.3</ele>
        <time>2022-09-18T03:08:02Z</time>
      </trkpt>
      <trkpt lat="44.11379" lon="6.63559">
        <ele>1996.9</ele>
        <time>2022-09-18T03:08:03Z</time>
      </trkpt>
      <trkpt lat="44.11377" lon="6.63554">
        <ele>1996.6</ele>
        <time>2022-09-18T03:08:05Z</time>
      </trkpt>
      <trkpt lat="44.11374" lon="6.6355">
        <ele>1996.2</ele>
        <time>2022-09-18T03:08:06Z</time>
      </trkpt>
      <trkpt lat="44.11366" lon="6.63538">
        <ele>1995.4</ele>
        <time>2022-09-18T03:08:08Z</time>
      </trkpt>
      <trkpt lat="44.11362" lon="6.63532">
        <ele>1995.1</ele>
        <time>2022-09-18T03:08:09Z</time>
      </trkpt>
      <trkpt lat="44.11359" lon="6.63525">
        <ele>1994.6</ele>
        <time>2022-09-18T03:08:10Z</time>
      </trkpt>
      <trkpt lat="44.11354" lon="6.63518">
        <ele>1994</ele>
        <time>2022-09-18T03:08:11Z</time>
      </trkpt>
      <trkpt lat="44.11348" lon="6.63511">
        <ele>1993.2</ele>
        <time>2022-09-18T03:08:12Z</time>
      </trkpt>
      <trkpt lat="44.11342" lon="6.63504">
        <ele>1992.3</ele>
        <time>2022-09-18T03:08:13Z</time>
      </trkpt>
      <trkpt lat="44.11334" lon="6.63498">
        <ele>1991.3</ele>
        <time>2022-09-18T03:08:14Z</time>
      </trkpt>
      <trkpt lat="44.11327" lon="6.63493">
        <ele>1990.4</ele>
        <time>2022-09-18T03:08:15Z</time>
      </trkpt>
      <trkpt lat="44.11319" lon="6.63488">
        <ele>1989.5</ele>
        <time>2022-09-18T03:08:16Z</time>
      </trkpt>
      <trkpt lat="44.11312" lon="6.63483">
        <ele>1988.6</ele>
        <time>2022-09-18T03:08:17Z</time>
      </trkpt>
      <trkpt lat="44.11305" lon="6.63477">
        <ele>1987.9</ele>
        <time>2022-09-18T03:08:18Z</time>
      </trkpt>
      <trkpt lat="44.11298" lon="6.6347">
        <ele>1987.3</ele>
        <time>2022-09-18T03:08:19Z</time>
      </trkpt>
      <trkpt lat="44.11291" lon="6.63464">
        <ele>1986.6</ele>
        <time>2022-09-18T03:08:20Z</time>
      </trkpt>
      <trkpt lat="44.11285" lon="6.63459">
        <ele>1986.1</ele>
        <time>2022-09-18T03:08:21Z</time>
      </trkpt>
      <trkpt lat="44.11281" lon="6.63456">
        <ele>1985.6</ele>
        <time>2022-09-18T03:08:22Z</time>
      </trkpt>
      <trkpt lat="44.11276" lon="6.63454">
        <ele>1985.1</ele>
        <time>2022-09-18T03:08:23Z</time>
      </trkpt>
      <trkpt lat="44.11274" lon="6.63452">
        <ele>1984.8</ele>
        <time>2022-09-18T03:08:24Z</time>
      </trkpt>
      <trkpt lat="44.11268" lon="6.63448">
        <ele>1984.1</ele>
        <time>2022-09-18T03:08:25Z</time>
      </trkpt>
      <trkpt lat="44.11262" lon="6.63443">
        <ele>1983.3</ele>
        <time>2022-09-18T03:08:26Z</time>
      </trkpt>
      <trkpt lat="44.11256" lon="6.63439">
        <ele>1982.6</ele>
        <time>2022-09-18T03:08:27Z</time>
      </trkpt>
      <trkpt lat="44.11248" lon="6.63434">
        <ele>1981.8</ele>
        <time>2022-09-18T03:08:28Z</time>
      </trkpt>
      <trkpt lat="44.11241" lon="6.6343">
        <ele>1980.9</ele>
        <time>2022-09-18T03:08:29Z</time>
      </trkpt>
      <trkpt lat="44.11234" lon="6.63425">
        <ele>1980.2</ele>
        <time>2022-09-18T03:08:30Z</time>
      </trkpt>
      <trkpt lat="44.11226" lon="6.63419">
        <ele>1979.5</ele>
        <time>2022-09-18T03:08:31Z</time>
      </trkpt>
      <trkpt lat="44.11219" lon="6.6341">
        <ele>1978.6</ele>
        <time>2022-09-18T03:08:32Z</time>
      </trkpt>
      <trkpt lat="44.11213" lon="6.63401">
        <ele>1977.6</ele>
        <time>2022-09-18T03:08:33Z</time>
      </trkpt>
      <trkpt lat="44.11209" lon="6.6339">
        <ele>1976.8</ele>
        <time>2022-09-18T03:08:34Z</time>
      </trkpt>
      <trkpt lat="44.11206" lon="6.63379">
        <ele>1976</ele>
        <time>2022-09-18T03:08:35Z</time>
      </trkpt>
      <trkpt lat="44.11204" lon="6.63367">
        <ele>1975.2</ele>
        <time>2022-09-18T03:08:36Z</time>
      </trkpt>
      <trkpt lat="44.11204" lon="6.63354">
        <ele>1974.5</ele>
        <time>2022-09-18T03:08:37Z</time>
      </trkpt>
      <trkpt lat="44.11203" lon="6.6334">
        <ele>1973.5</ele>
        <time>2022-09-18T03:08:38Z</time>
      </trkpt>
      <trkpt lat="44.11204" lon="6.63329">
        <ele>1972.3</ele>
        <time>2022-09-18T03:08:39Z</time>
      </trkpt>
      <trkpt lat="44.11204" lon="6.63318">
        <ele>1971.4</ele>
        <time>2022-09-18T03:08:40Z</time>
      </trkpt>
      <trkpt lat="44.11204" lon="6.63307">
        <ele>1970.7</ele>
        <time>2022-09-18T03:08:41Z</time>
      </trkpt>
      <trkpt lat="44.11204" lon="6.63298">
        <ele>1970.3</ele>
        <time>2022-09-18T03:08:42Z</time>
      </trkpt>
      <trkpt lat="44.11204" lon="6.63289">
        <ele>1970</ele>
        <time>2022-09-18T03:08:43Z</time>
      </trkpt>
      <trkpt lat="44.11205" lon="6.63282">
        <ele>1969.8</ele>
        <time>2022-09-18T03:08:44Z</time>
      </trkpt>
      <trkpt lat="44.11205" lon="6.63275">
        <ele>1969.4</ele>
        <time>2022-09-18T03:08:45Z</time>
      </trkpt>
      <trkpt lat="44.11205" lon="6.63267">
        <ele>1969</ele>
        <time>2022-09-18T03:08:46Z</time>
      </trkpt>
      <trkpt lat="44.11205" lon="6.63258">
        <ele>1968.5</ele>
        <time>2022-09-18T03:08:47Z</time>
      </trkpt>
      <trkpt lat="44.11206" lon="6.63248">
        <ele>1967.9</ele>
        <time>2022-09-18T03:08:48Z</time>
      </trkpt>
      <trkpt lat="44.11207" lon="6.63237">
        <ele>1967.1</ele>
        <time>2022-09-18T03:08:49Z</time>
      </trkpt>
      <trkpt lat="44.11208" lon="6.63225">
        <ele>1966.3</ele>
        <time>2022-09-18T03:08:50Z</time>
      </trkpt>
      <trkpt lat="44.1121" lon="6.63213">
        <ele>1965.4</ele>
        <time>2022-09-18T03:08:51Z</time>
      </trkpt>
      <trkpt lat="44.11212" lon="6.63202">
        <ele>1964.6</ele>
        <time>2022-09-18T03:08:52Z</time>
      </trkpt>
      <trkpt lat="44.11215" lon="6.63191">
        <ele>1963.9</ele>
        <time>2022-09-18T03:08:53Z</time>
      </trkpt>
      <trkpt lat="44.11218" lon="6.63181">
        <ele>1963.2</ele>
        <time>2022-09-18T03:08:54Z</time>
      </trkpt>
      <trkpt lat="44.11221" lon="6.63172">
        <ele>1962.3</ele>
        <time>2022-09-18T03:08:55Z</time>
      </trkpt>
      <trkpt lat="44.11223" lon="6.63164">
        <ele>1961.6</ele>
        <time>2022-09-18T03:08:56Z</time>
      </trkpt>
      <trkpt lat="44.11222" lon="6.63158">
        <ele>1961.1</ele>
        <time>2022-09-18T03:08:57Z</time>
      </trkpt>
      <trkpt lat="44.11219" lon="6.63154">
        <ele>1960.7</ele>
        <time>2022-09-18T03:08:58Z</time>
      </trkpt>
      <trkpt lat="44.11214" lon="6.63151">
        <ele>1960.2</ele>
        <time>2022-09-18T03:08:59Z</time>
      </trkpt>
      <trkpt lat="44.11209" lon="6.63148">
        <ele>1959.6</ele>
        <time>2022-09-18T03:09:00Z</time>
      </trkpt>
      <trkpt lat="44.11202" lon="6.63145">
        <ele>1959</ele>
        <time>2022-09-18T03:09:01Z</time>
      </trkpt>
      <trkpt lat="44.11196" lon="6.6314">
        <ele>1958.1</ele>
        <time>2022-09-18T03:09:02Z</time>
      </trkpt>
      <trkpt lat="44.1119" lon="6.63134">
        <ele>1957.3</ele>
        <time>2022-09-18T03:09:03Z</time>
      </trkpt>
      <trkpt lat="44.11185" lon="6.63128">
        <ele>1956.6</ele>
        <time>2022-09-18T03:09:04Z</time>
      </trkpt>
      <trkpt lat="44.1118" lon="6.6312">
        <ele>1956</ele>
        <time>2022-09-18T03:09:05Z</time>
      </trkpt>
      <trkpt lat="44.11175" lon="6.63112">
        <ele>1955.4</ele>
        <time>2022-09-18T03:09:06Z</time>
      </trkpt>
      <trkpt lat="44.11171" lon="6.63102">
        <ele>1954.9</ele>
        <time>2022-09-18T03:09:07Z</time>
      </trkpt>
      <trkpt lat="44.11168" lon="6.63092">
        <ele>1954.3</ele>
        <time>2022-09-18T03:09:08Z</time>
      </trkpt>
      <trkpt lat="44.11165" lon="6.63082">
        <ele>1953.4</ele>
        <time>2022-09-18T03:09:09Z</time>
      </trkpt>
      <trkpt lat="44.11164" lon="6.63072">
        <ele>1952.6</ele>
        <time>2022-09-18T03:09:10Z</time>
      </trkpt>
      <trkpt lat="44.11163" lon="6.63061">
        <ele>1952</ele>
        <time>2022-09-18T03:09:11Z</time>
      </trkpt>
      <trkpt lat="44.11162" lon="6.63052">
        <ele>1951.5</ele>
        <time>2022-09-18T03:09:12Z</time>
      </trkpt>
      <trkpt lat="44.1116" lon="6.63043">
        <ele>1951</ele>
        <time>2022-09-18T03:09:13Z</time>
      </trkpt>
      <trkpt lat="44.11158" lon="6.63037">
        <ele>1950.7</ele>
        <time>2022-09-18T03:09:14Z</time>
      </trkpt>
      <trkpt lat="44.11155" lon="6.63032">
        <ele>1950.3</ele>
        <time>2022-09-18T03:09:15Z</time>
      </trkpt>
      <trkpt lat="44.11152" lon="6.63032">
        <ele>1950</ele>
        <time>2022-09-18T03:09:16Z</time>
      </trkpt>
      <trkpt lat="44.11148" lon="6.63027">
        <ele>1949.5</ele>
        <time>2022-09-18T03:09:17Z</time>
      </trkpt>
      <trkpt lat="44.11144" lon="6.63024">
        <ele>1949.1</ele>
        <time>2022-09-18T03:09:18Z</time>
      </trkpt>
      <trkpt lat="44.1114" lon="6.63016">
        <ele>1948.4</ele>
        <time>2022-09-18T03:09:19Z</time>
      </trkpt>
      <trkpt lat="44.11136" lon="6.63008">
        <ele>1947.7</ele>
        <time>2022-09-18T03:09:20Z</time>
      </trkpt>
      <trkpt lat="44.11132" lon="6.62998">
        <ele>1946.9</ele>
        <time>2022-09-18T03:09:21Z</time>
      </trkpt>
      <trkpt lat="44.11127" lon="6.62989">
        <ele>1946.1</ele>
        <time>2022-09-18T03:09:22Z</time>
      </trkpt>
      <trkpt lat="44.11123" lon="6.62979">
        <ele>1945.3</ele>
        <time>2022-09-18T03:09:23Z</time>
      </trkpt>
      <trkpt lat="44.11118" lon="6.62968">
        <ele>1944.4</ele>
        <time>2022-09-18T03:09:24Z</time>
      </trkpt>
      <trkpt lat="44.11114" lon="6.62958">
        <ele>1943.5</ele>
        <time>2022-09-18T03:09:25Z</time>
      </trkpt>
      <trkpt lat="44.11111" lon="6.62948">
        <ele>1942.8</ele>
        <time>2022-09-18T03:09:26Z</time>
      </trkpt>
      <trkpt lat="44.11107" lon="6.62938">
        <ele>1942.1</ele>
        <time>2022-09-18T03:09:27Z</time>
      </trkpt>
      <trkpt lat="44.11105" lon="6.62928">
        <ele>1941.6</ele>
        <time>2022-09-18T03:09:28Z</time>
      </trkpt>
      <trkpt lat="44.11102" lon="6.62917">
        <ele>1941</ele>
        <time>2022-09-18T03:09:29Z</time>
      </trkpt>
      <trkpt lat="44.11099" lon="6.62908">
        <ele>1940.4</ele>
        <time>2022-09-18T03:09:30Z</time>
      </trkpt>
      <trkpt lat="44.11095" lon="6.62901">
        <ele>1939.7</ele>
        <time>2022-09-18T03:09:31Z</time>
      </trkpt>
      <trkpt lat="44.11089" lon="6.62898">
        <ele>1939</ele>
        <time>2022-09-18T03:09:32Z</time>
      </trkpt>
      <trkpt lat="44.11082" lon="6.62896">
        <ele>1938.2</ele>
        <time>2022-09-18T03:09:33Z</time>
      </trkpt>
      <trkpt lat="44.11075" lon="6.62894">
        <ele>1937.7</ele>
        <time>2022-09-18T03:09:34Z</time>
      </trkpt>
      <trkpt lat="44.11067" lon="6.62893">
        <ele>1937.4</ele>
        <time>2022-09-18T03:09:35Z</time>
      </trkpt>
      <trkpt lat="44.1106" lon="6.62891">
        <ele>1937.2</ele>
        <time>2022-09-18T03:09:36Z</time>
      </trkpt>
      <trkpt lat="44.11054" lon="6.62888">
        <ele>1936.8</ele>
        <time>2022-09-18T03:09:37Z</time>
      </trkpt>
      <trkpt lat="44.11048" lon="6.62885">
        <ele>1936.4</ele>
        <time>2022-09-18T03:09:38Z</time>
      </trkpt>
      <trkpt lat="44.11041" lon="6.62881">
        <ele>1935.7</ele>
        <time>2022-09-18T03:09:39Z</time>
      </trkpt>
      <trkpt lat="44.11034" lon="6.62877">
        <ele>1934.7</ele>
        <time>2022-09-18T03:09:40Z</time>
      </trkpt>
      <trkpt lat="44.11026" lon="6.62874">
        <ele>1933.7</ele>
        <time>2022-09-18T03:09:41Z</time>
      </trkpt>
      <trkpt lat="44.11018" lon="6.6287">
        <ele>1932.9</ele>
        <time>2022-09-18T03:09:42Z</time>
      </trkpt>
      <trkpt lat="44.1101" lon="6.62868">
        <ele>1932.1</ele>
        <time>2022-09-18T03:09:43Z</time>
      </trkpt>
      <trkpt lat="44.11002" lon="6.62865">
        <ele>1931.1</ele>
        <time>2022-09-18T03:09:44Z</time>
      </trkpt>
      <trkpt lat="44.10993" lon="6.62862">
        <ele>1930</ele>
        <time>2022-09-18T03:09:45Z</time>
      </trkpt>
      <trkpt lat="44.10984" lon="6.6286">
        <ele>1929.2</ele>
        <time>2022-09-18T03:09:46Z</time>
      </trkpt>
      <trkpt lat="44.10976" lon="6.62858">
        <ele>1928.6</ele>
        <time>2022-09-18T03:09:47Z</time>
      </trkpt>
      <trkpt lat="44.10968" lon="6.62856">
        <ele>1928</ele>
        <time>2022-09-18T03:09:48Z</time>
      </trkpt>
      <trkpt lat="44.10961" lon="6.62855">
        <ele>1927.6</ele>
        <time>2022-09-18T03:09:49Z</time>
      </trkpt>
      <trkpt lat="44.10956" lon="6.62853">
        <ele>1927.3</ele>
        <time>2022-09-18T03:09:50Z</time>
      </trkpt>
      <trkpt lat="44.10952" lon="6.62852">
        <ele>1927</ele>
        <time>2022-09-18T03:09:51Z</time>
      </trkpt>
      <trkpt lat="44.10952" lon="6.62853">
        <ele>1927</ele>
        <time>2022-09-18T03:09:52Z</time>
      </trkpt>
      <trkpt lat="44.10953" lon="6.62854">
        <ele>1926.9</ele>
        <time>2022-09-18T03:09:53Z</time>
      </trkpt>
      <trkpt lat="44.10954" lon="6.62855">
        <ele>1926.8</ele>
        <time>2022-09-18T03:09:54Z</time>
      </trkpt>
      <trkpt lat="44.10955" lon="6.62857">
        <ele>1926.7</ele>
        <time>2022-09-18T03:09:55Z</time>
      </trkpt>
      <trkpt lat="44.10958" lon="6.62858">
        <ele>1926.4</ele>
        <time>2022-09-18T03:09:56Z</time>
      </trkpt>
      <trkpt lat="44.10961" lon="6.6286">
        <ele>1926</ele>
        <time>2022-09-18T03:09:57Z</time>
      </trkpt>
      <trkpt lat="44.10967" lon="6.62864">
        <ele>1925.4</ele>
        <time>2022-09-18T03:09:58Z</time>
      </trkpt>
      <trkpt lat="44.10971" lon="6.62867">
        <ele>1924.9</ele>
        <time>2022-09-18T03:09:59Z</time>
      </trkpt>
      <trkpt lat="44.10975" lon="6.62871">
        <ele>1924.4</ele>
        <time>2022-09-18T03:10:00Z</time>
      </trkpt>
      <trkpt lat="44.10981" lon="6.62875">
        <ele>1923.8</ele>
        <time>2022-09-18T03:10:01Z</time>
      </trkpt>
      <trkpt lat="44.10986" lon="6.62879">
        <ele>1923.3</ele>
        <time>2022-09-18T03:10:02Z</time>
      </trkpt>
      <trkpt lat="44.10991" lon="6.62885">
        <ele>1922.7</ele>
        <time>2022-09-18T03:10:03Z</time>
      </trkpt>
      <trkpt lat="44.10996" lon="6.62889">
        <ele>1922.1</ele>
        <time>2022-09-18T03:10:04Z</time>
      </trkpt>
      <trkpt lat="44.11002" lon="6.62893">
        <ele>1921.5</ele>
        <time>2022-09-18T03:10:05Z</time>
      </trkpt>
      <trkpt lat="44.11006" lon="6.62898">
        <ele>1920.8</ele>
        <time>2022-09-18T03:10:06Z</time>
      </trkpt>
      <trkpt lat="44.1101" lon="6.62904">
        <ele>1920.1</ele>
        <time>2022-09-18T03:10:07Z</time>
      </trkpt>
      <trkpt lat="44.11014" lon="6.62909">
        <ele>1919.4</ele>
        <time>2022-09-18T03:10:08Z</time>
      </trkpt>
      <trkpt lat="44.11019" lon="6.62915">
        <ele>1918.8</ele>
        <time>2022-09-18T03:10:09Z</time>
      </trkpt>
      <trkpt lat="44.11024" lon="6.62922">
        <ele>1918.5</ele>
        <time>2022-09-18T03:10:10Z</time>
      </trkpt>
      <trkpt lat="44.11028" lon="6.62929">
        <ele>1918.1</ele>
        <time>2022-09-18T03:10:11Z</time>
      </trkpt>
      <trkpt lat="44.11032" lon="6.62936">
        <ele>1917.8</ele>
        <time>2022-09-18T03:10:12Z</time>
      </trkpt>
      <trkpt lat="44.11036" lon="6.62942">
        <ele>1917.5</ele>
        <time>2022-09-18T03:10:13Z</time>
      </trkpt>
      <trkpt lat="44.1104" lon="6.62949">
        <ele>1917.3</ele>
        <time>2022-09-18T03:10:14Z</time>
      </trkpt>
      <trkpt lat="44.11043" lon="6.62955">
        <ele>1917</ele>
        <time>2022-09-18T03:10:15Z</time>
      </trkpt>
      <trkpt lat="44.11045" lon="6.62961">
        <ele>1916.8</ele>
        <time>2022-09-18T03:10:16Z</time>
      </trkpt>
      <trkpt lat="44.11046" lon="6.62966">
        <ele>1916.7</ele>
        <time>2022-09-18T03:10:17Z</time>
      </trkpt>
      <trkpt lat="44.11046" lon="6.62967">
        <ele>1916.6</ele>
        <time>2022-09-18T03:10:18Z</time>
      </trkpt>
      <trkpt lat="44.11045" lon="6.62966">
        <ele>1916.6</ele>
        <time>2022-09-18T03:10:19Z</time>
      </trkpt>
      <trkpt lat="44.11043" lon="6.62965">
        <ele>1916.4</ele>
        <time>2022-09-18T03:10:20Z</time>
      </trkpt>
      <trkpt lat="44.1104" lon="6.62961">
        <ele>1916.2</ele>
        <time>2022-09-18T03:10:21Z</time>
      </trkpt>
      <trkpt lat="44.11037" lon="6.62958">
        <ele>1915.9</ele>
        <time>2022-09-18T03:10:22Z</time>
      </trkpt>
      <trkpt lat="44.11033" lon="6.62955">
        <ele>1915.6</ele>
        <time>2022-09-18T03:10:23Z</time>
      </trkpt>
      <trkpt lat="44.1103" lon="6.62953">
        <ele>1915.3</ele>
        <time>2022-09-18T03:10:24Z</time>
      </trkpt>
      <trkpt lat="44.11026" lon="6.6295">
        <ele>1914.9</ele>
        <time>2022-09-18T03:10:25Z</time>
      </trkpt>
      <trkpt lat="44.11021" lon="6.62945">
        <ele>1914.4</ele>
        <time>2022-09-18T03:10:26Z</time>
      </trkpt>
      <trkpt lat="44.11017" lon="6.62942">
        <ele>1913.7</ele>
        <time>2022-09-18T03:10:27Z</time>
      </trkpt>
      <trkpt lat="44.11014" lon="6.62943">
        <ele>1913.1</ele>
        <time>2022-09-18T03:10:28Z</time>
      </trkpt>
      <trkpt lat="44.11004" lon="6.62936">
        <ele>1911.2</ele>
        <time>2022-09-18T03:10:30Z</time>
      </trkpt>
      <trkpt lat="44.10999" lon="6.62933">
        <ele>1910.2</ele>
        <time>2022-09-18T03:10:31Z</time>
      </trkpt>
      <trkpt lat="44.10993" lon="6.62931">
        <ele>1909.4</ele>
        <time>2022-09-18T03:10:32Z</time>
      </trkpt>
      <trkpt lat="44.10988" lon="6.6293">
        <ele>1908.6</ele>
        <time>2022-09-18T03:10:33Z</time>
      </trkpt>
      <trkpt lat="44.10982" lon="6.62929">
        <ele>1907.7</ele>
        <time>2022-09-18T03:10:34Z</time>
      </trkpt>
      <trkpt lat="44.10976" lon="6.62928">
        <ele>1906.9</ele>
        <time>2022-09-18T03:10:35Z</time>
      </trkpt>
      <trkpt lat="44.1097" lon="6.62926">
        <ele>1905.9</ele>
        <time>2022-09-18T03:10:36Z</time>
      </trkpt>
      <trkpt lat="44.10963" lon="6.62925">
        <ele>1904.7</ele>
        <time>2022-09-18T03:10:37Z</time>
      </trkpt>
      <trkpt lat="44.10956" lon="6.62924">
        <ele>1903.4</ele>
        <time>2022-09-18T03:10:38Z</time>
      </trkpt>
      <trkpt lat="44.1095" lon="6.62922">
        <ele>1902.3</ele>
        <time>2022-09-18T03:10:39Z</time>
      </trkpt>
      <trkpt lat="44.10943" lon="6.62921">
        <ele>1901.2</ele>
        <time>2022-09-18T03:10:40Z</time>
      </trkpt>
      <trkpt lat="44.10937" lon="6.6292">
        <ele>1900.1</ele>
        <time>2022-09-18T03:10:41Z</time>
      </trkpt>
      <trkpt lat="44.1093" lon="6.62919">
        <ele>1899</ele>
        <time>2022-09-18T03:10:42Z</time>
      </trkpt>
      <trkpt lat="44.10924" lon="6.62918">
        <ele>1898.1</ele>
        <time>2022-09-18T03:10:43Z</time>
      </trkpt>
      <trkpt lat="44.10917" lon="6.62917">
        <ele>1897.1</ele>
        <time>2022-09-18T03:10:44Z</time>
      </trkpt>
      <trkpt lat="44.10911" lon="6.62915">
        <ele>1896.2</ele>
        <time>2022-09-18T03:10:45Z</time>
      </trkpt>
      <trkpt lat="44.10905" lon="6.62912">
        <ele>1895.3</ele>
        <time>2022-09-18T03:10:46Z</time>
      </trkpt>
      <trkpt lat="44.10899" lon="6.62908">
        <ele>1894.5</ele>
        <time>2022-09-18T03:10:47Z</time>
      </trkpt>
      <trkpt lat="44.10894" lon="6.62905">
        <ele>1893.7</ele>
        <time>2022-09-18T03:10:48Z</time>
      </trkpt>
      <trkpt lat="44.1089" lon="6.62902">
        <ele>1892.8</ele>
        <time>2022-09-18T03:10:49Z</time>
      </trkpt>
      <trkpt lat="44.10885" lon="6.62898">
        <ele>1891.9</ele>
        <time>2022-09-18T03:10:50Z</time>
      </trkpt>
      <trkpt lat="44.1088" lon="6.62894">
        <ele>1890.9</ele>
        <time>2022-09-18T03:10:51Z</time>
      </trkpt>
      <trkpt lat="44.10875" lon="6.62889">
        <ele>1889.9</ele>
        <time>2022-09-18T03:10:52Z</time>
      </trkpt>
      <trkpt lat="44.1087" lon="6.62884">
        <ele>1888.9</ele>
        <time>2022-09-18T03:10:53Z</time>
      </trkpt>
      <trkpt lat="44.10866" lon="6.62879">
        <ele>1888</ele>
        <time>2022-09-18T03:10:54Z</time>
      </trkpt>
      <trkpt lat="44.10861" lon="6.62875">
        <ele>1887.1</ele>
        <time>2022-09-18T03:10:55Z</time>
      </trkpt>
      <trkpt lat="44.10857" lon="6.62871">
        <ele>1886.4</ele>
        <time>2022-09-18T03:10:56Z</time>
      </trkpt>
      <trkpt lat="44.10853" lon="6.62867">
        <ele>1885.7</ele>
        <time>2022-09-18T03:10:57Z</time>
      </trkpt>
      <trkpt lat="44.10849" lon="6.62862">
        <ele>1885.1</ele>
        <time>2022-09-18T03:10:58Z</time>
      </trkpt>
      <trkpt lat="44.10845" lon="6.62856">
        <ele>1884.4</ele>
        <time>2022-09-18T03:10:59Z</time>
      </trkpt>
      <trkpt lat="44.10842" lon="6.6285">
        <ele>1883.7</ele>
        <time>2022-09-18T03:11:00Z</time>
      </trkpt>
      <trkpt lat="44.10838" lon="6.62843">
        <ele>1883</ele>
        <time>2022-09-18T03:11:01Z</time>
      </trkpt>
      <trkpt lat="44.10834" lon="6.62837">
        <ele>1882.3</ele>
        <time>2022-09-18T03:11:02Z</time>
      </trkpt>
      <trkpt lat="44.1083" lon="6.62831">
        <ele>1881.5</ele>
        <time>2022-09-18T03:11:03Z</time>
      </trkpt>
      <trkpt lat="44.10826" lon="6.62825">
        <ele>1880.7</ele>
        <time>2022-09-18T03:11:04Z</time>
      </trkpt>
      <trkpt lat="44.10822" lon="6.62818">
        <ele>1879.9</ele>
        <time>2022-09-18T03:11:05Z</time>
      </trkpt>
      <trkpt lat="44.10817" lon="6.62812">
        <ele>1879</ele>
        <time>2022-09-18T03:11:06Z</time>
      </trkpt>
      <trkpt lat="44.10813" lon="6.62804">
        <ele>1877.9</ele>
        <time>2022-09-18T03:11:07Z</time>
      </trkpt>
      <trkpt lat="44.10809" lon="6.62795">
        <ele>1876.7</ele>
        <time>2022-09-18T03:11:08Z</time>
      </trkpt>
      <trkpt lat="44.10805" lon="6.62786">
        <ele>1875.5</ele>
        <time>2022-09-18T03:11:09Z</time>
      </trkpt>
      <trkpt lat="44.10803" lon="6.62778">
        <ele>1874.5</ele>
        <time>2022-09-18T03:11:10Z</time>
      </trkpt>
      <trkpt lat="44.10803" lon="6.62769">
        <ele>1873.6</ele>
        <time>2022-09-18T03:11:11Z</time>
      </trkpt>
      <trkpt lat="44.10803" lon="6.62761">
        <ele>1872.8</ele>
        <time>2022-09-18T03:11:12Z</time>
      </trkpt>
      <trkpt lat="44.10804" lon="6.62754">
        <ele>1872</ele>
        <time>2022-09-18T03:11:13Z</time>
      </trkpt>
      <trkpt lat="44.10806" lon="6.62746">
        <ele>1871.3</ele>
        <time>2022-09-18T03:11:14Z</time>
      </trkpt>
      <trkpt lat="44.10807" lon="6.62737">
        <ele>1870.5</ele>
        <time>2022-09-18T03:11:15Z</time>
      </trkpt>
      <trkpt lat="44.10809" lon="6.62728">
        <ele>1869.9</ele>
        <time>2022-09-18T03:11:16Z</time>
      </trkpt>
      <trkpt lat="44.10811" lon="6.62719">
        <ele>1869.2</ele>
        <time>2022-09-18T03:11:17Z</time>
      </trkpt>
      <trkpt lat="44.10813" lon="6.62709">
        <ele>1868.4</ele>
        <time>2022-09-18T03:11:18Z</time>
      </trkpt>
      <trkpt lat="44.10815" lon="6.627">
        <ele>1867.6</ele>
        <time>2022-09-18T03:11:19Z</time>
      </trkpt>
      <trkpt lat="44.10817" lon="6.62692">
        <ele>1866.9</ele>
        <time>2022-09-18T03:11:20Z</time>
      </trkpt>
      <trkpt lat="44.10818" lon="6.62684">
        <ele>1866.2</ele>
        <time>2022-09-18T03:11:21Z</time>
      </trkpt>
      <trkpt lat="44.1082" lon="6.62676">
        <ele>1865.4</ele>
        <time>2022-09-18T03:11:22Z</time>
      </trkpt>
      <trkpt lat="44.10822" lon="6.62667">
        <ele>1864.5</ele>
        <time>2022-09-18T03:11:23Z</time>
      </trkpt>
      <trkpt lat="44.10825" lon="6.62659">
        <ele>1863.8</ele>
        <time>2022-09-18T03:11:24Z</time>
      </trkpt>
      <trkpt lat="44.10827" lon="6.62653">
        <ele>1863.2</ele>
        <time>2022-09-18T03:11:25Z</time>
      </trkpt>
      <trkpt lat="44.10829" lon="6.62646">
        <ele>1862.6</ele>
        <time>2022-09-18T03:11:26Z</time>
      </trkpt>
      <trkpt lat="44.1083" lon="6.62642">
        <ele>1862.3</ele>
        <time>2022-09-18T03:11:27Z</time>
      </trkpt>
      <trkpt lat="44.10833" lon="6.62635">
        <ele>1861.6</ele>
        <time>2022-09-18T03:11:28Z</time>
      </trkpt>
      <trkpt lat="44.10835" lon="6.62629">
        <ele>1861</ele>
        <time>2022-09-18T03:11:29Z</time>
      </trkpt>
      <trkpt lat="44.10838" lon="6.62622">
        <ele>1860.4</ele>
        <time>2022-09-18T03:11:30Z</time>
      </trkpt>
      <trkpt lat="44.10841" lon="6.62616">
        <ele>1859.9</ele>
        <time>2022-09-18T03:11:31Z</time>
      </trkpt>
      <trkpt lat="44.10844" lon="6.62611">
        <ele>1859.4</ele>
        <time>2022-09-18T03:11:32Z</time>
      </trkpt>
      <trkpt lat="44.10846" lon="6.62607">
        <ele>1858.9</ele>
        <time>2022-09-18T03:11:33Z</time>
      </trkpt>
      <trkpt lat="44.10848" lon="6.62601">
        <ele>1858.4</ele>
        <time>2022-09-18T03:11:34Z</time>
      </trkpt>
      <trkpt lat="44.10851" lon="6.62595">
        <ele>1857.7</ele>
        <time>2022-09-18T03:11:35Z</time>
      </trkpt>
      <trkpt lat="44.10854" lon="6.62588">
        <ele>1857</ele>
        <time>2022-09-18T03:11:36Z</time>
      </trkpt>
      <trkpt lat="44.10857" lon="6.62581">
        <ele>1856.3</ele>
        <time>2022-09-18T03:11:37Z</time>
      </trkpt>
      <trkpt lat="44.1086" lon="6.62574">
        <ele>1855.6</ele>
        <time>2022-09-18T03:11:38Z</time>
      </trkpt>
      <trkpt lat="44.10864" lon="6.62568">
        <ele>1855.1</ele>
        <time>2022-09-18T03:11:39Z</time>
      </trkpt>
      <trkpt lat="44.10868" lon="6.62562">
        <ele>1854.6</ele>
        <time>2022-09-18T03:11:40Z</time>
      </trkpt>
      <trkpt lat="44.10871" lon="6.62556">
        <ele>1854</ele>
        <time>2022-09-18T03:11:41Z</time>
      </trkpt>
      <trkpt lat="44.10873" lon="6.62551">
        <ele>1853.6</ele>
        <time>2022-09-18T03:11:42Z</time>
      </trkpt>
      <trkpt lat="44.10873" lon="6.62547">
        <ele>1853.3</ele>
        <time>2022-09-18T03:11:43Z</time>
      </trkpt>
      <trkpt lat="44.10873" lon="6.62542">
        <ele>1852.9</ele>
        <time>2022-09-18T03:11:44Z</time>
      </trkpt>
      <trkpt lat="44.1087" lon="6.62539">
        <ele>1852.4</ele>
        <time>2022-09-18T03:11:45Z</time>
      </trkpt>
      <trkpt lat="44.10864" lon="6.62534">
        <ele>1851.6</ele>
        <time>2022-09-18T03:11:46Z</time>
      </trkpt>
      <trkpt lat="44.10861" lon="6.62529">
        <ele>1850.9</ele>
        <time>2022-09-18T03:11:47Z</time>
      </trkpt>
      <trkpt lat="44.10857" lon="6.62524">
        <ele>1850.2</ele>
        <time>2022-09-18T03:11:48Z</time>
      </trkpt>
      <trkpt lat="44.10853" lon="6.62519">
        <ele>1849.4</ele>
        <time>2022-09-18T03:11:49Z</time>
      </trkpt>
      <trkpt lat="44.10849" lon="6.62513">
        <ele>1848.7</ele>
        <time>2022-09-18T03:11:50Z</time>
      </trkpt>
      <trkpt lat="44.10845" lon="6.62509">
        <ele>1848</ele>
        <time>2022-09-18T03:11:51Z</time>
      </trkpt>
      <trkpt lat="44.10841" lon="6.62504">
        <ele>1847.3</ele>
        <time>2022-09-18T03:11:52Z</time>
      </trkpt>
      <trkpt lat="44.10836" lon="6.62501">
        <ele>1846.6</ele>
        <time>2022-09-18T03:11:53Z</time>
      </trkpt>
      <trkpt lat="44.10831" lon="6.62497">
        <ele>1845.9</ele>
        <time>2022-09-18T03:11:54Z</time>
      </trkpt>
      <trkpt lat="44.10826" lon="6.62494">
        <ele>1845.2</ele>
        <time>2022-09-18T03:11:55Z</time>
      </trkpt>
      <trkpt lat="44.10822" lon="6.6249">
        <ele>1844.5</ele>
        <time>2022-09-18T03:11:56Z</time>
      </trkpt>
      <trkpt lat="44.10818" lon="6.62486">
        <ele>1843.9</ele>
        <time>2022-09-18T03:11:57Z</time>
      </trkpt>
      <trkpt lat="44.10814" lon="6.62482">
        <ele>1843.3</ele>
        <time>2022-09-18T03:11:58Z</time>
      </trkpt>
      <trkpt lat="44.1081" lon="6.62478">
        <ele>1842.8</ele>
        <time>2022-09-18T03:11:59Z</time>
      </trkpt>
      <trkpt lat="44.10806" lon="6.62473">
        <ele>1842.3</ele>
        <time>2022-09-18T03:12:00Z</time>
      </trkpt>
      <trkpt lat="44.10803" lon="6.62467">
        <ele>1841.8</ele>
        <time>2022-09-18T03:12:01Z</time>
      </trkpt>
      <trkpt lat="44.10801" lon="6.62461">
        <ele>1841.4</ele>
        <time>2022-09-18T03:12:02Z</time>
      </trkpt>
      <trkpt lat="44.10799" lon="6.62455">
        <ele>1840.8</ele>
        <time>2022-09-18T03:12:03Z</time>
      </trkpt>
      <trkpt lat="44.10798" lon="6.62449">
        <ele>1840.3</ele>
        <time>2022-09-18T03:12:04Z</time>
      </trkpt>
      <trkpt lat="44.10797" lon="6.62444">
        <ele>1840</ele>
        <time>2022-09-18T03:12:05Z</time>
      </trkpt>
      <trkpt lat="44.10795" lon="6.6244">
        <ele>1839.6</ele>
        <time>2022-09-18T03:12:06Z</time>
      </trkpt>
      <trkpt lat="44.10793" lon="6.62434">
        <ele>1839.3</ele>
        <time>2022-09-18T03:12:07Z</time>
      </trkpt>
      <trkpt lat="44.10792" lon="6.62429">
        <ele>1839</ele>
        <time>2022-09-18T03:12:08Z</time>
      </trkpt>
      <trkpt lat="44.1079" lon="6.62424">
        <ele>1838.7</ele>
        <time>2022-09-18T03:12:09Z</time>
      </trkpt>
      <trkpt lat="44.10789" lon="6.62418">
        <ele>1838.5</ele>
        <time>2022-09-18T03:12:10Z</time>
      </trkpt>
      <trkpt lat="44.10782" lon="6.62412">
        <ele>1838</ele>
        <time>2022-09-18T03:12:11Z</time>
      </trkpt>
      <trkpt lat="44.10781" lon="6.62404">
        <ele>1837.7</ele>
        <time>2022-09-18T03:12:13Z</time>
      </trkpt>
      <trkpt lat="44.10782" lon="6.62398">
        <ele>1837.5</ele>
        <time>2022-09-18T03:12:14Z</time>
      </trkpt>
      <trkpt lat="44.10782" lon="6.62393">
        <ele>1837.3</ele>
        <time>2022-09-18T03:12:15Z</time>
      </trkpt>
      <trkpt lat="44.10783" lon="6.62387">
        <ele>1836.9</ele>
        <time>2022-09-18T03:12:16Z</time>
      </trkpt>
      <trkpt lat="44.10784" lon="6.6238">
        <ele>1836.5</ele>
        <time>2022-09-18T03:12:17Z</time>
      </trkpt>
      <trkpt lat="44.10786" lon="6.62373">
        <ele>1835.9</ele>
        <time>2022-09-18T03:12:18Z</time>
      </trkpt>
      <trkpt lat="44.10788" lon="6.62367">
        <ele>1835.4</ele>
        <time>2022-09-18T03:12:19Z</time>
      </trkpt>
      <trkpt lat="44.1079" lon="6.62359">
        <ele>1834.8</ele>
        <time>2022-09-18T03:12:20Z</time>
      </trkpt>
      <trkpt lat="44.10791" lon="6.62352">
        <ele>1834.2</ele>
        <time>2022-09-18T03:12:21Z</time>
      </trkpt>
      <trkpt lat="44.10792" lon="6.62345">
        <ele>1833.7</ele>
        <time>2022-09-18T03:12:22Z</time>
      </trkpt>
      <trkpt lat="44.10793" lon="6.62338">
        <ele>1833.1</ele>
        <time>2022-09-18T03:12:23Z</time>
      </trkpt>
      <trkpt lat="44.10796" lon="6.6233">
        <ele>1832.3</ele>
        <time>2022-09-18T03:12:24Z</time>
      </trkpt>
      <trkpt lat="44.10798" lon="6.62323">
        <ele>1831.5</ele>
        <time>2022-09-18T03:12:25Z</time>
      </trkpt>
      <trkpt lat="44.10801" lon="6.62315">
        <ele>1830.7</ele>
        <time>2022-09-18T03:12:26Z</time>
      </trkpt>
      <trkpt lat="44.10804" lon="6.62307">
        <ele>1829.9</ele>
        <time>2022-09-18T03:12:27Z</time>
      </trkpt>
      <trkpt lat="44.10807" lon="6.62299">
        <ele>1829.2</ele>
        <time>2022-09-18T03:12:28Z</time>
      </trkpt>
      <trkpt lat="44.10809" lon="6.62291">
        <ele>1828.6</ele>
        <time>2022-09-18T03:12:29Z</time>
      </trkpt>
      <trkpt lat="44.10811" lon="6.62282">
        <ele>1827.9</ele>
        <time>2022-09-18T03:12:30Z</time>
      </trkpt>
      <trkpt lat="44.10812" lon="6.62273">
        <ele>1827.2</ele>
        <time>2022-09-18T03:12:31Z</time>
      </trkpt>
      <trkpt lat="44.10813" lon="6.62264">
        <ele>1826.5</ele>
        <time>2022-09-18T03:12:32Z</time>
      </trkpt>
      <trkpt lat="44.10814" lon="6.62255">
        <ele>1825.9</ele>
        <time>2022-09-18T03:12:33Z</time>
      </trkpt>
      <trkpt lat="44.10815" lon="6.62246">
        <ele>1825.4</ele>
        <time>2022-09-18T03:12:34Z</time>
      </trkpt>
      <trkpt lat="44.1081" lon="6.62203">
        <ele>1823.8</ele>
        <time>2022-09-18T03:12:39Z</time>
      </trkpt>
      <trkpt lat="44.10809" lon="6.622">
        <ele>1823.8</ele>
        <time>2022-09-18T03:12:40Z</time>
      </trkpt>
      <trkpt lat="44.10808" lon="6.62198">
        <ele>1823.7</ele>
        <time>2022-09-18T03:12:41Z</time>
      </trkpt>
      <trkpt lat="44.10805" lon="6.62193">
        <ele>1823.7</ele>
        <time>2022-09-18T03:12:42Z</time>
      </trkpt>
      <trkpt lat="44.10804" lon="6.6219">
        <ele>1823.7</ele>
        <time>2022-09-18T03:12:43Z</time>
      </trkpt>
      <trkpt lat="44.10802" lon="6.62185">
        <ele>1823.6</ele>
        <time>2022-09-18T03:12:44Z</time>
      </trkpt>
      <trkpt lat="44.10802" lon="6.62183">
        <ele>1823.6</ele>
        <time>2022-09-18T03:12:45Z</time>
      </trkpt>
      <trkpt lat="44.10801" lon="6.62174">
        <ele>1823.5</ele>
        <time>2022-09-18T03:12:46Z</time>
      </trkpt>
      <trkpt lat="44.10801" lon="6.6217">
        <ele>1823.4</ele>
        <time>2022-09-18T03:12:47Z</time>
      </trkpt>
      <trkpt lat="44.10801" lon="6.62166">
        <ele>1823.3</ele>
        <time>2022-09-18T03:12:48Z</time>
      </trkpt>
      <trkpt lat="44.10801" lon="6.62159">
        <ele>1823.2</ele>
        <time>2022-09-18T03:12:50Z</time>
      </trkpt>
      <trkpt lat="44.10801" lon="6.62154">
        <ele>1823.1</ele>
        <time>2022-09-18T03:12:51Z</time>
      </trkpt>
      <trkpt lat="44.10801" lon="6.6215">
        <ele>1823</ele>
        <time>2022-09-18T03:12:52Z</time>
      </trkpt>
      <trkpt lat="44.10802" lon="6.62149">
        <ele>1822.9</ele>
        <time>2022-09-18T03:12:53Z</time>
      </trkpt>
      <trkpt lat="44.10803" lon="6.62146">
        <ele>1822.8</ele>
        <time>2022-09-18T03:12:54Z</time>
      </trkpt>
      <trkpt lat="44.10803" lon="6.62144">
        <ele>1822.7</ele>
        <time>2022-09-18T03:12:55Z</time>
      </trkpt>
      <trkpt lat="44.10803" lon="6.62143">
        <ele>1822.7</ele>
        <time>2022-09-18T03:12:56Z</time>
      </trkpt>
      <trkpt lat="44.10803" lon="6.62142">
        <ele>1822.7</ele>
        <time>2022-09-18T03:12:57Z</time>
      </trkpt>
      <trkpt lat="44.10803" lon="6.62143">
        <ele>1822.6</ele>
        <time>2022-09-18T03:12:58Z</time>
      </trkpt>
      <trkpt lat="44.10803" lon="6.62143">
        <ele>1822.6</ele>
        <time>2022-09-18T03:12:59Z</time>
      </trkpt>
      <trkpt lat="44.10803" lon="6.62144">
        <ele>1822.6</ele>
        <time>2022-09-18T03:13:00Z</time>
      </trkpt>
      <trkpt lat="44.10803" lon="6.62144">
        <ele>1822.6</ele>
        <time>2022-09-18T03:13:01Z</time>
      </trkpt>
      <trkpt lat="44.10803" lon="6.62144">
        <ele>1822.6</ele>
        <time>2022-09-18T03:13:02Z</time>
      </trkpt>
      <trkpt lat="44.10803" lon="6.62144">
        <ele>1822.6</ele>
        <time>2022-09-18T03:13:03Z</time>
      </trkpt>
      <trkpt lat="44.10803" lon="6.62144">
        <ele>1822.6</ele>
        <time>2022-09-18T03:13:04Z</time>
      </trkpt>
      <trkpt lat="44.10803" lon="6.62144">
        <ele>1822.6</ele>
        <time>2022-09-18T03:13:05Z</time>
      </trkpt>
      <trkpt lat="44.10803" lon="6.62144">
        <ele>1822.5</ele>
        <time>2022-09-18T03:13:08Z</time>
      </trkpt>
      <trkpt lat="44.10805" lon="6.62138">
        <ele>1822.3</ele>
        <time>2022-09-18T03:14:06Z</time>
      </trkpt>
      <trkpt lat="44.10806" lon="6.62134">
        <ele>1822</ele>
        <time>2022-09-18T03:14:07Z</time>
      </trkpt>
      <trkpt lat="44.10808" lon="6.6213">
        <ele>1821.7</ele>
        <time>2022-09-18T03:14:09Z</time>
      </trkpt>
      <trkpt lat="44.1081" lon="6.62126">
        <ele>1821.4</ele>
        <time>2022-09-18T03:14:10Z</time>
      </trkpt>
      <trkpt lat="44.10812" lon="6.6212">
        <ele>1821</ele>
        <time>2022-09-18T03:14:11Z</time>
      </trkpt>
      <trkpt lat="44.10815" lon="6.62113">
        <ele>1820.3</ele>
        <time>2022-09-18T03:14:12Z</time>
      </trkpt>
      <trkpt lat="44.10819" lon="6.62107">
        <ele>1819.8</ele>
        <time>2022-09-18T03:14:13Z</time>
      </trkpt>
      <trkpt lat="44.10821" lon="6.62101">
        <ele>1819.2</ele>
        <time>2022-09-18T03:14:14Z</time>
      </trkpt>
      <trkpt lat="44.10823" lon="6.62095">
        <ele>1818.7</ele>
        <time>2022-09-18T03:14:15Z</time>
      </trkpt>
      <trkpt lat="44.10823" lon="6.6209">
        <ele>1818.2</ele>
        <time>2022-09-18T03:14:16Z</time>
      </trkpt>
      <trkpt lat="44.10823" lon="6.62085">
        <ele>1817.7</ele>
        <time>2022-09-18T03:14:17Z</time>
      </trkpt>
      <trkpt lat="44.10823" lon="6.62082">
        <ele>1817.4</ele>
        <time>2022-09-18T03:14:18Z</time>
      </trkpt>
      <trkpt lat="44.10823" lon="6.62076">
        <ele>1816.8</ele>
        <time>2022-09-18T03:14:19Z</time>
      </trkpt>
      <trkpt lat="44.10826" lon="6.62069">
        <ele>1816</ele>
        <time>2022-09-18T03:14:20Z</time>
      </trkpt>
      <trkpt lat="44.1083" lon="6.62063">
        <ele>1815.1</ele>
        <time>2022-09-18T03:14:21Z</time>
      </trkpt>
      <trkpt lat="44.10834" lon="6.62057">
        <ele>1814.2</ele>
        <time>2022-09-18T03:14:22Z</time>
      </trkpt>
      <trkpt lat="44.10839" lon="6.62051">
        <ele>1813.2</ele>
        <time>2022-09-18T03:14:23Z</time>
      </trkpt>
      <trkpt lat="44.10843" lon="6.62044">
        <ele>1812.2</ele>
        <time>2022-09-18T03:14:24Z</time>
      </trkpt>
      <trkpt lat="44.10846" lon="6.62036">
        <ele>1811.2</ele>
        <time>2022-09-18T03:14:25Z</time>
      </trkpt>
      <trkpt lat="44.10849" lon="6.62028">
        <ele>1810.3</ele>
        <time>2022-09-18T03:14:26Z</time>
      </trkpt>
      <trkpt lat="44.10851" lon="6.62019">
        <ele>1809.4</ele>
        <time>2022-09-18T03:14:27Z</time>
      </trkpt>
      <trkpt lat="44.10852" lon="6.6201">
        <ele>1808.2</ele>
        <time>2022-09-18T03:14:28Z</time>
      </trkpt>
      <trkpt lat="44.10852" lon="6.62002">
        <ele>1807</ele>
        <time>2022-09-18T03:14:29Z</time>
      </trkpt>
      <trkpt lat="44.10853" lon="6.61994">
        <ele>1805.9</ele>
        <time>2022-09-18T03:14:30Z</time>
      </trkpt>
      <trkpt lat="44.10855" lon="6.61987">
        <ele>1804.8</ele>
        <time>2022-09-18T03:14:31Z</time>
      </trkpt>
      <trkpt lat="44.10856" lon="6.6198">
        <ele>1803.7</ele>
        <time>2022-09-18T03:14:32Z</time>
      </trkpt>
      <trkpt lat="44.10857" lon="6.61972">
        <ele>1802.6</ele>
        <time>2022-09-18T03:14:33Z</time>
      </trkpt>
      <trkpt lat="44.10859" lon="6.61965">
        <ele>1801.5</ele>
        <time>2022-09-18T03:14:34Z</time>
      </trkpt>
      <trkpt lat="44.10862" lon="6.61958">
        <ele>1800.3</ele>
        <time>2022-09-18T03:14:35Z</time>
      </trkpt>
      <trkpt lat="44.10866" lon="6.6195">
        <ele>1799</ele>
        <time>2022-09-18T03:14:36Z</time>
      </trkpt>
      <trkpt lat="44.1087" lon="6.61943">
        <ele>1797.7</ele>
        <time>2022-09-18T03:14:37Z</time>
      </trkpt>
      <trkpt lat="44.10874" lon="6.61935">
        <ele>1796.5</ele>
        <time>2022-09-18T03:14:38Z</time>
      </trkpt>
      <trkpt lat="44.10877" lon="6.61926">
        <ele>1795.2</ele>
        <time>2022-09-18T03:14:39Z</time>
      </trkpt>
      <trkpt lat="44.1088" lon="6.61918">
        <ele>1794.1</ele>
        <time>2022-09-18T03:14:40Z</time>
      </trkpt>
      <trkpt lat="44.1088" lon="6.6191">
        <ele>1793</ele>
        <time>2022-09-18T03:14:41Z</time>
      </trkpt>
      <trkpt lat="44.10879" lon="6.61902">
        <ele>1791.9</ele>
        <time>2022-09-18T03:14:42Z</time>
      </trkpt>
      <trkpt lat="44.10879" lon="6.61894">
        <ele>1790.8</ele>
        <time>2022-09-18T03:14:43Z</time>
      </trkpt>
      <trkpt lat="44.10879" lon="6.61886">
        <ele>1789.7</ele>
        <time>2022-09-18T03:14:44Z</time>
      </trkpt>
      <trkpt lat="44.1088" lon="6.61877">
        <ele>1788.5</ele>
        <time>2022-09-18T03:14:45Z</time>
      </trkpt>
      <trkpt lat="44.10881" lon="6.61869">
        <ele>1787.4</ele>
        <time>2022-09-18T03:14:46Z</time>
      </trkpt>
      <trkpt lat="44.10881" lon="6.6186">
        <ele>1786.1</ele>
        <time>2022-09-18T03:14:47Z</time>
      </trkpt>
      <trkpt lat="44.10882" lon="6.61851">
        <ele>1785</ele>
        <time>2022-09-18T03:14:48Z</time>
      </trkpt>
      <trkpt lat="44.10883" lon="6.61841">
        <ele>1784.2</ele>
        <time>2022-09-18T03:14:49Z</time>
      </trkpt>
      <trkpt lat="44.10884" lon="6.61831">
        <ele>1783.4</ele>
        <time>2022-09-18T03:14:50Z</time>
      </trkpt>
      <trkpt lat="44.10885" lon="6.6182">
        <ele>1782.7</ele>
        <time>2022-09-18T03:14:51Z</time>
      </trkpt>
      <trkpt lat="44.10884" lon="6.6181">
        <ele>1782</ele>
        <time>2022-09-18T03:14:52Z</time>
      </trkpt>
      <trkpt lat="44.10884" lon="6.618">
        <ele>1781.2</ele>
        <time>2022-09-18T03:14:53Z</time>
      </trkpt>
      <trkpt lat="44.10886" lon="6.6179">
        <ele>1780.5</ele>
        <time>2022-09-18T03:14:54Z</time>
      </trkpt>
      <trkpt lat="44.1089" lon="6.61781">
        <ele>1779.7</ele>
        <time>2022-09-18T03:14:55Z</time>
      </trkpt>
      <trkpt lat="44.10894" lon="6.61773">
        <ele>1779.1</ele>
        <time>2022-09-18T03:14:56Z</time>
      </trkpt>
      <trkpt lat="44.10899" lon="6.61765">
        <ele>1778.6</ele>
        <time>2022-09-18T03:14:57Z</time>
      </trkpt>
      <trkpt lat="44.10903" lon="6.61757">
        <ele>1778</ele>
        <time>2022-09-18T03:14:58Z</time>
      </trkpt>
      <trkpt lat="44.10908" lon="6.61748">
        <ele>1777.4</ele>
        <time>2022-09-18T03:14:59Z</time>
      </trkpt>
      <trkpt lat="44.10913" lon="6.6174">
        <ele>1776.5</ele>
        <time>2022-09-18T03:15:00Z</time>
      </trkpt>
      <trkpt lat="44.10919" lon="6.61731">
        <ele>1775.6</ele>
        <time>2022-09-18T03:15:01Z</time>
      </trkpt>
      <trkpt lat="44.10925" lon="6.61722">
        <ele>1774.7</ele>
        <time>2022-09-18T03:15:02Z</time>
      </trkpt>
      <trkpt lat="44.10931" lon="6.61714">
        <ele>1773.9</ele>
        <time>2022-09-18T03:15:03Z</time>
      </trkpt>
      <trkpt lat="44.10937" lon="6.61706">
        <ele>1773.1</ele>
        <time>2022-09-18T03:15:04Z</time>
      </trkpt>
      <trkpt lat="44.10943" lon="6.61699">
        <ele>1772.4</ele>
        <time>2022-09-18T03:15:05Z</time>
      </trkpt>
      <trkpt lat="44.1095" lon="6.61698">
        <ele>1771.9</ele>
        <time>2022-09-18T03:15:06Z</time>
      </trkpt>
      <trkpt lat="44.10957" lon="6.61697">
        <ele>1771.4</ele>
        <time>2022-09-18T03:15:07Z</time>
      </trkpt>
      <trkpt lat="44.10963" lon="6.61695">
        <ele>1771</ele>
        <time>2022-09-18T03:15:08Z</time>
      </trkpt>
      <trkpt lat="44.10968" lon="6.61689">
        <ele>1770.5</ele>
        <time>2022-09-18T03:15:09Z</time>
      </trkpt>
      <trkpt lat="44.10972" lon="6.61681">
        <ele>1769.9</ele>
        <time>2022-09-18T03:15:10Z</time>
      </trkpt>
      <trkpt lat="44.10975" lon="6.61672">
        <ele>1769.3</ele>
        <time>2022-09-18T03:15:11Z</time>
      </trkpt>
      <trkpt lat="44.10977" lon="6.61664">
        <ele>1768.6</ele>
        <time>2022-09-18T03:15:12Z</time>
      </trkpt>
      <trkpt lat="44.10981" lon="6.61656">
        <ele>1767.9</ele>
        <time>2022-09-18T03:15:13Z</time>
      </trkpt>
      <trkpt lat="44.10986" lon="6.61647">
        <ele>1767.1</ele>
        <time>2022-09-18T03:15:14Z</time>
      </trkpt>
      <trkpt lat="44.10992" lon="6.6164">
        <ele>1766.1</ele>
        <time>2022-09-18T03:15:15Z</time>
      </trkpt>
      <trkpt lat="44.11" lon="6.61634">
        <ele>1765</ele>
        <time>2022-09-18T03:15:16Z</time>
      </trkpt>
      <trkpt lat="44.11007" lon="6.61629">
        <ele>1764.1</ele>
        <time>2022-09-18T03:15:17Z</time>
      </trkpt>
      <trkpt lat="44.11014" lon="6.61622">
        <ele>1763.3</ele>
        <time>2022-09-18T03:15:18Z</time>
      </trkpt>
      <trkpt lat="44.11021" lon="6.61616">
        <ele>1762.7</ele>
        <time>2022-09-18T03:15:19Z</time>
      </trkpt>
      <trkpt lat="44.11029" lon="6.61611">
        <ele>1762.1</ele>
        <time>2022-09-18T03:15:20Z</time>
      </trkpt>
      <trkpt lat="44.11036" lon="6.61607">
        <ele>1761.6</ele>
        <time>2022-09-18T03:15:21Z</time>
      </trkpt>
      <trkpt lat="44.11042" lon="6.61602">
        <ele>1761.2</ele>
        <time>2022-09-18T03:15:22Z</time>
      </trkpt>
      <trkpt lat="44.11047" lon="6.61599">
        <ele>1760.9</ele>
        <time>2022-09-18T03:15:23Z</time>
      </trkpt>
      <trkpt lat="44.11051" lon="6.61596">
        <ele>1760.6</ele>
        <time>2022-09-18T03:15:24Z</time>
      </trkpt>
      <trkpt lat="44.11056" lon="6.61593">
        <ele>1760.3</ele>
        <time>2022-09-18T03:15:25Z</time>
      </trkpt>
      <trkpt lat="44.1106" lon="6.61591">
        <ele>1760</ele>
        <time>2022-09-18T03:15:26Z</time>
      </trkpt>
      <trkpt lat="44.11065" lon="6.61592">
        <ele>1759.8</ele>
        <time>2022-09-18T03:15:27Z</time>
      </trkpt>
      <trkpt lat="44.11066" lon="6.61592">
        <ele>1759.7</ele>
        <time>2022-09-18T03:15:28Z</time>
      </trkpt>
      <trkpt lat="44.1107" lon="6.61592">
        <ele>1759.5</ele>
        <time>2022-09-18T03:15:29Z</time>
      </trkpt>
      <trkpt lat="44.11073" lon="6.61591">
        <ele>1759.2</ele>
        <time>2022-09-18T03:15:30Z</time>
      </trkpt>
      <trkpt lat="44.11075" lon="6.6159">
        <ele>1759.1</ele>
        <time>2022-09-18T03:15:31Z</time>
      </trkpt>
      <trkpt lat="44.11079" lon="6.61589">
        <ele>1758.7</ele>
        <time>2022-09-18T03:15:32Z</time>
      </trkpt>
      <trkpt lat="44.11085" lon="6.61586">
        <ele>1758.1</ele>
        <time>2022-09-18T03:15:33Z</time>
      </trkpt>
      <trkpt lat="44.1109" lon="6.61583">
        <ele>1757.4</ele>
        <time>2022-09-18T03:15:34Z</time>
      </trkpt>
      <trkpt lat="44.11093" lon="6.61578">
        <ele>1756.9</ele>
        <time>2022-09-18T03:15:35Z</time>
      </trkpt>
      <trkpt lat="44.11093" lon="6.6157">
        <ele>1756.3</ele>
        <time>2022-09-18T03:15:36Z</time>
      </trkpt>
      <trkpt lat="44.11093" lon="6.61563">
        <ele>1755.8</ele>
        <time>2022-09-18T03:15:37Z</time>
      </trkpt>
      <trkpt lat="44.11092" lon="6.61556">
        <ele>1755.2</ele>
        <time>2022-09-18T03:15:38Z</time>
      </trkpt>
      <trkpt lat="44.11092" lon="6.6155">
        <ele>1754.7</ele>
        <time>2022-09-18T03:15:39Z</time>
      </trkpt>
      <trkpt lat="44.11091" lon="6.61543">
        <ele>1754.2</ele>
        <time>2022-09-18T03:15:40Z</time>
      </trkpt>
      <trkpt lat="44.11091" lon="6.61535">
        <ele>1753.6</ele>
        <time>2022-09-18T03:15:41Z</time>
      </trkpt>
      <trkpt lat="44.11091" lon="6.61526">
        <ele>1753</ele>
        <time>2022-09-18T03:15:42Z</time>
      </trkpt>
      <trkpt lat="44.1109" lon="6.61517">
        <ele>1752.3</ele>
        <time>2022-09-18T03:15:43Z</time>
      </trkpt>
      <trkpt lat="44.11091" lon="6.61507">
        <ele>1751.5</ele>
        <time>2022-09-18T03:15:44Z</time>
      </trkpt>
      <trkpt lat="44.11092" lon="6.61498">
        <ele>1750.7</ele>
        <time>2022-09-18T03:15:45Z</time>
      </trkpt>
      <trkpt lat="44.11093" lon="6.61487">
        <ele>1749.8</ele>
        <time>2022-09-18T03:15:46Z</time>
      </trkpt>
      <trkpt lat="44.11096" lon="6.61477">
        <ele>1749</ele>
        <time>2022-09-18T03:15:47Z</time>
      </trkpt>
      <trkpt lat="44.11099" lon="6.61466">
        <ele>1748.3</ele>
        <time>2022-09-18T03:15:48Z</time>
      </trkpt>
      <trkpt lat="44.11102" lon="6.61457">
        <ele>1747.7</ele>
        <time>2022-09-18T03:15:49Z</time>
      </trkpt>
      <trkpt lat="44.11105" lon="6.61446">
        <ele>1747</ele>
        <time>2022-09-18T03:15:50Z</time>
      </trkpt>
      <trkpt lat="44.11108" lon="6.61436">
        <ele>1746.3</ele>
        <time>2022-09-18T03:15:51Z</time>
      </trkpt>
      <trkpt lat="44.11111" lon="6.61425">
        <ele>1745.6</ele>
        <time>2022-09-18T03:15:52Z</time>
      </trkpt>
      <trkpt lat="44.11114" lon="6.61414">
        <ele>1744.9</ele>
        <time>2022-09-18T03:15:53Z</time>
      </trkpt>
      <trkpt lat="44.11117" lon="6.61404">
        <ele>1744.3</ele>
        <time>2022-09-18T03:15:54Z</time>
      </trkpt>
      <trkpt lat="44.11119" lon="6.61394">
        <ele>1743.6</ele>
        <time>2022-09-18T03:15:55Z</time>
      </trkpt>
      <trkpt lat="44.11121" lon="6.61383">
        <ele>1743</ele>
        <time>2022-09-18T03:15:56Z</time>
      </trkpt>
      <trkpt lat="44.11124" lon="6.61372">
        <ele>1742.2</ele>
        <time>2022-09-18T03:15:57Z</time>
      </trkpt>
      <trkpt lat="44.11127" lon="6.61361">
        <ele>1741.5</ele>
        <time>2022-09-18T03:15:58Z</time>
      </trkpt>
      <trkpt lat="44.11132" lon="6.6135">
        <ele>1740.7</ele>
        <time>2022-09-18T03:15:59Z</time>
      </trkpt>
      <trkpt lat="44.11137" lon="6.61341">
        <ele>1739.9</ele>
        <time>2022-09-18T03:16:00Z</time>
      </trkpt>
      <trkpt lat="44.11143" lon="6.61332">
        <ele>1739.1</ele>
        <time>2022-09-18T03:16:01Z</time>
      </trkpt>
      <trkpt lat="44.1115" lon="6.61323">
        <ele>1738.2</ele>
        <time>2022-09-18T03:16:02Z</time>
      </trkpt>
      <trkpt lat="44.11157" lon="6.61316">
        <ele>1737.4</ele>
        <time>2022-09-18T03:16:03Z</time>
      </trkpt>
      <trkpt lat="44.11165" lon="6.61308">
        <ele>1736.3</ele>
        <time>2022-09-18T03:16:04Z</time>
      </trkpt>
      <trkpt lat="44.11171" lon="6.61302">
        <ele>1735.3</ele>
        <time>2022-09-18T03:16:05Z</time>
      </trkpt>
      <trkpt lat="44.11176" lon="6.61297">
        <ele>1734.6</ele>
        <time>2022-09-18T03:16:06Z</time>
      </trkpt>
      <trkpt lat="44.11178" lon="6.61294">
        <ele>1734.2</ele>
        <time>2022-09-18T03:16:07Z</time>
      </trkpt>
      <trkpt lat="44.11179" lon="6.61289">
        <ele>1733.8</ele>
        <time>2022-09-18T03:16:08Z</time>
      </trkpt>
      <trkpt lat="44.11176" lon="6.61288">
        <ele>1733.4</ele>
        <time>2022-09-18T03:16:09Z</time>
      </trkpt>
      <trkpt lat="44.11171" lon="6.61288">
        <ele>1732.5</ele>
        <time>2022-09-18T03:16:10Z</time>
      </trkpt>
      <trkpt lat="44.11164" lon="6.61289">
        <ele>1731.1</ele>
        <time>2022-09-18T03:16:11Z</time>
      </trkpt>
      <trkpt lat="44.11155" lon="6.61291">
        <ele>1729</ele>
        <time>2022-09-18T03:16:12Z</time>
      </trkpt>
      <trkpt lat="44.11146" lon="6.61292">
        <ele>1726.8</ele>
        <time>2022-09-18T03:16:13Z</time>
      </trkpt>
      <trkpt lat="44.11141" lon="6.61294">
        <ele>1725.3</ele>
        <time>2022-09-18T03:16:14Z</time>
      </trkpt>
      <trkpt lat="44.11137" lon="6.61296">
        <ele>1724.5</ele>
        <time>2022-09-18T03:16:15Z</time>
      </trkpt>
      <trkpt lat="44.11134" lon="6.61296">
        <ele>1723.7</ele>
        <time>2022-09-18T03:16:16Z</time>
      </trkpt>
      <trkpt lat="44.11131" lon="6.61294">
        <ele>1723</ele>
        <time>2022-09-18T03:16:17Z</time>
      </trkpt>
      <trkpt lat="44.1113" lon="6.61293">
        <ele>1722.8</ele>
        <time>2022-09-18T03:16:18Z</time>
      </trkpt>
      <trkpt lat="44.11131" lon="6.61291">
        <ele>1722.5</ele>
        <time>2022-09-18T03:16:19Z</time>
      </trkpt>
      <trkpt lat="44.11131" lon="6.6129">
        <ele>1722.2</ele>
        <time>2022-09-18T03:16:20Z</time>
      </trkpt>
      <trkpt lat="44.11132" lon="6.61289">
        <ele>1722.1</ele>
        <time>2022-09-18T03:16:21Z</time>
      </trkpt>
      <trkpt lat="44.11134" lon="6.61286">
        <ele>1721.4</ele>
        <time>2022-09-18T03:16:22Z</time>
      </trkpt>
      <trkpt lat="44.11134" lon="6.61284">
        <ele>1721.1</ele>
        <time>2022-09-18T03:16:23Z</time>
      </trkpt>
      <trkpt lat="44.11137" lon="6.61276">
        <ele>1719.2</ele>
        <time>2022-09-18T03:16:24Z</time>
      </trkpt>
      <trkpt lat="44.11143" lon="6.61265">
        <ele>1716.4</ele>
        <time>2022-09-18T03:16:25Z</time>
      </trkpt>
      <trkpt lat="44.1115" lon="6.61256">
        <ele>1713.4</ele>
        <time>2022-09-18T03:16:26Z</time>
      </trkpt>
      <trkpt lat="44.11158" lon="6.61247">
        <ele>1711</ele>
        <time>2022-09-18T03:16:27Z</time>
      </trkpt>
      <trkpt lat="44.11166" lon="6.6124">
        <ele>1709.3</ele>
        <time>2022-09-18T03:16:28Z</time>
      </trkpt>
      <trkpt lat="44.11176" lon="6.61236">
        <ele>1707.8</ele>
        <time>2022-09-18T03:16:29Z</time>
      </trkpt>
      <trkpt lat="44.11186" lon="6.61232">
        <ele>1706.2</ele>
        <time>2022-09-18T03:16:30Z</time>
      </trkpt>
      <trkpt lat="44.11197" lon="6.61228">
        <ele>1704.6</ele>
        <time>2022-09-18T03:16:31Z</time>
      </trkpt>
      <trkpt lat="44.11206" lon="6.61224">
        <ele>1702.9</ele>
        <time>2022-09-18T03:16:32Z</time>
      </trkpt>
      <trkpt lat="44.11215" lon="6.61219">
        <ele>1701.5</ele>
        <time>2022-09-18T03:16:33Z</time>
      </trkpt>
      <trkpt lat="44.11221" lon="6.61215">
        <ele>1700.3</ele>
        <time>2022-09-18T03:16:34Z</time>
      </trkpt>
      <trkpt lat="44.11224" lon="6.61212">
        <ele>1699.7</ele>
        <time>2022-09-18T03:16:35Z</time>
      </trkpt>
      <trkpt lat="44.11221" lon="6.61211">
        <ele>1699.1</ele>
        <time>2022-09-18T03:16:36Z</time>
      </trkpt>
      <trkpt lat="44.1122" lon="6.6121">
        <ele>1698.8</ele>
        <time>2022-09-18T03:16:37Z</time>
      </trkpt>
      <trkpt lat="44.11216" lon="6.6121">
        <ele>1698</ele>
        <time>2022-09-18T03:16:38Z</time>
      </trkpt>
      <trkpt lat="44.11211" lon="6.61211">
        <ele>1696.8</ele>
        <time>2022-09-18T03:16:39Z</time>
      </trkpt>
      <trkpt lat="44.11204" lon="6.61212">
        <ele>1695.3</ele>
        <time>2022-09-18T03:16:40Z</time>
      </trkpt>
      <trkpt lat="44.11195" lon="6.61213">
        <ele>1693.6</ele>
        <time>2022-09-18T03:16:41Z</time>
      </trkpt>
      <trkpt lat="44.11185" lon="6.61213">
        <ele>1692</ele>
        <time>2022-09-18T03:16:42Z</time>
      </trkpt>
      <trkpt lat="44.11176" lon="6.61213">
        <ele>1690.5</ele>
        <time>2022-09-18T03:16:43Z</time>
      </trkpt>
      <trkpt lat="44.11166" lon="6.61212">
        <ele>1689.1</ele>
        <time>2022-09-18T03:16:44Z</time>
      </trkpt>
      <trkpt lat="44.11158" lon="6.6121">
        <ele>1687.9</ele>
        <time>2022-09-18T03:16:45Z</time>
      </trkpt>
      <trkpt lat="44.1115" lon="6.61209">
        <ele>1686.6</ele>
        <time>2022-09-18T03:16:46Z</time>
      </trkpt>
      <trkpt lat="44.11142" lon="6.6121">
        <ele>1685.2</ele>
        <time>2022-09-18T03:16:47Z</time>
      </trkpt>
      <trkpt lat="44.11134" lon="6.61212">
        <ele>1683.6</ele>
        <time>2022-09-18T03:16:48Z</time>
      </trkpt>
      <trkpt lat="44.11125" lon="6.61216">
        <ele>1681.9</ele>
        <time>2022-09-18T03:16:49Z</time>
      </trkpt>
      <trkpt lat="44.11117" lon="6.61222">
        <ele>1680.1</ele>
        <time>2022-09-18T03:16:50Z</time>
      </trkpt>
      <trkpt lat="44.11109" lon="6.61228">
        <ele>1678.5</ele>
        <time>2022-09-18T03:16:51Z</time>
      </trkpt>
      <trkpt lat="44.11104" lon="6.61232">
        <ele>1677.3</ele>
        <time>2022-09-18T03:16:52Z</time>
      </trkpt>
      <trkpt lat="44.11103" lon="6.61234">
        <ele>1676.9</ele>
        <time>2022-09-18T03:16:53Z</time>
      </trkpt>
      <trkpt lat="44.11102" lon="6.61234">
        <ele>1676.5</ele>
        <time>2022-09-18T03:16:54Z</time>
      </trkpt>
      <trkpt lat="44.11103" lon="6.6123">
        <ele>1675.7</ele>
        <time>2022-09-18T03:16:55Z</time>
      </trkpt>
      <trkpt lat="44.11104" lon="6.61228">
        <ele>1675.1</ele>
        <time>2022-09-18T03:16:56Z</time>
      </trkpt>
      <trkpt lat="44.11106" lon="6.61221">
        <ele>1673.5</ele>
        <time>2022-09-18T03:16:57Z</time>
      </trkpt>
      <trkpt lat="44.1111" lon="6.61214">
        <ele>1671.5</ele>
        <time>2022-09-18T03:16:58Z</time>
      </trkpt>
      <trkpt lat="44.11114" lon="6.61206">
        <ele>1669.5</ele>
        <time>2022-09-18T03:16:59Z</time>
      </trkpt>
      <trkpt lat="44.11117" lon="6.61199">
        <ele>1667.7</ele>
        <time>2022-09-18T03:17:00Z</time>
      </trkpt>
      <trkpt lat="44.1112" lon="6.61191">
        <ele>1666.1</ele>
        <time>2022-09-18T03:17:01Z</time>
      </trkpt>
      <trkpt lat="44.11123" lon="6.61186">
        <ele>1664.9</ele>
        <time>2022-09-18T03:17:02Z</time>
      </trkpt>
      <trkpt lat="44.11125" lon="6.61182">
        <ele>1664.1</ele>
        <time>2022-09-18T03:17:03Z</time>
      </trkpt>
      <trkpt lat="44.11126" lon="6.61179">
        <ele>1663.4</ele>
        <time>2022-09-18T03:17:04Z</time>
      </trkpt>
      <trkpt lat="44.11127" lon="6.61177">
        <ele>1663</ele>
        <time>2022-09-18T03:17:05Z</time>
      </trkpt>
      <trkpt lat="44.11128" lon="6.61175">
        <ele>1662.6</ele>
        <time>2022-09-18T03:17:06Z</time>
      </trkpt>
      <trkpt lat="44.11128" lon="6.61173">
        <ele>1662.2</ele>
        <time>2022-09-18T03:17:07Z</time>
      </trkpt>
      <trkpt lat="44.11128" lon="6.61172">
        <ele>1662</ele>
        <time>2022-09-18T03:17:08Z</time>
      </trkpt>
      <trkpt lat="44.11128" lon="6.61172">
        <ele>1661.9</ele>
        <time>2022-09-18T03:17:09Z</time>
      </trkpt>
      <trkpt lat="44.11128" lon="6.61172">
        <ele>1661.9</ele>
        <time>2022-09-18T03:17:10Z</time>
      </trkpt>
      <trkpt lat="44.11128" lon="6.61171">
        <ele>1661.8</ele>
        <time>2022-09-18T03:17:11Z</time>
      </trkpt>
      <trkpt lat="44.11129" lon="6.61171">
        <ele>1661.6</ele>
        <time>2022-09-18T03:17:12Z</time>
      </trkpt>
      <trkpt lat="44.11129" lon="6.61169">
        <ele>1661.3</ele>
        <time>2022-09-18T03:17:13Z</time>
      </trkpt>
      <trkpt lat="44.1113" lon="6.61167">
        <ele>1660.8</ele>
        <time>2022-09-18T03:17:14Z</time>
      </trkpt>
      <trkpt lat="44.11132" lon="6.61163">
        <ele>1659.9</ele>
        <time>2022-09-18T03:17:15Z</time>
      </trkpt>
      <trkpt lat="44.11133" lon="6.61162">
        <ele>1659.6</ele>
        <time>2022-09-18T03:17:16Z</time>
      </trkpt>
      <trkpt lat="44.11135" lon="6.61158">
        <ele>1658.6</ele>
        <time>2022-09-18T03:17:17Z</time>
      </trkpt>
      <trkpt lat="44.11138" lon="6.61154">
        <ele>1657.5</ele>
        <time>2022-09-18T03:17:18Z</time>
      </trkpt>
      <trkpt lat="44.11141" lon="6.6115">
        <ele>1656.4</ele>
        <time>2022-09-18T03:17:19Z</time>
      </trkpt>
      <trkpt lat="44.11144" lon="6.61148">
        <ele>1655.5</ele>
        <time>2022-09-18T03:17:20Z</time>
      </trkpt>
      <trkpt lat="44.11147" lon="6.61145">
        <ele>1655.3</ele>
        <time>2022-09-18T03:17:21Z</time>
      </trkpt>
      <trkpt lat="44.11147" lon="6.61143">
        <ele>1655.2</ele>
        <time>2022-09-18T03:17:22Z</time>
      </trkpt>
      <trkpt lat="44.11145" lon="6.61142">
        <ele>1655</ele>
        <time>2022-09-18T03:17:23Z</time>
      </trkpt>
      <trkpt lat="44.11143" lon="6.61142">
        <ele>1654.9</ele>
        <time>2022-09-18T03:17:24Z</time>
      </trkpt>
      <trkpt lat="44.11138" lon="6.61142">
        <ele>1654.6</ele>
        <time>2022-09-18T03:17:25Z</time>
      </trkpt>
      <trkpt lat="44.11132" lon="6.61143">
        <ele>1654.2</ele>
        <time>2022-09-18T03:17:26Z</time>
      </trkpt>
      <trkpt lat="44.11126" lon="6.61144">
        <ele>1654</ele>
        <time>2022-09-18T03:17:27Z</time>
      </trkpt>
      <trkpt lat="44.11121" lon="6.61145">
        <ele>1653.9</ele>
        <time>2022-09-18T03:17:28Z</time>
      </trkpt>
      <trkpt lat="44.11116" lon="6.61147">
        <ele>1653.8</ele>
        <time>2022-09-18T03:17:29Z</time>
      </trkpt>
      <trkpt lat="44.11113" lon="6.61149">
        <ele>1653.7</ele>
        <time>2022-09-18T03:17:30Z</time>
      </trkpt>
      <trkpt lat="44.11109" lon="6.6115">
        <ele>1653.6</ele>
        <time>2022-09-18T03:17:31Z</time>
      </trkpt>
      <trkpt lat="44.11108" lon="6.61152">
        <ele>1653.5</ele>
        <time>2022-09-18T03:17:32Z</time>
      </trkpt>
      <trkpt lat="44.11106" lon="6.61152">
        <ele>1653.4</ele>
        <time>2022-09-18T03:17:33Z</time>
      </trkpt>
      <trkpt lat="44.11106" lon="6.61154">
        <ele>1653.4</ele>
        <time>2022-09-18T03:17:34Z</time>
      </trkpt>
      <trkpt lat="44.11105" lon="6.61155">
        <ele>1653.3</ele>
        <time>2022-09-18T03:17:35Z</time>
      </trkpt>
      <trkpt lat="44.11104" lon="6.61156">
        <ele>1653.3</ele>
        <time>2022-09-18T03:17:36Z</time>
      </trkpt>
      <trkpt lat="44.11104" lon="6.61154">
        <ele>1653.2</ele>
        <time>2022-09-18T03:17:37Z</time>
      </trkpt>
      <trkpt lat="44.11104" lon="6.61152">
        <ele>1653.2</ele>
        <time>2022-09-18T03:17:38Z</time>
      </trkpt>
      <trkpt lat="44.11105" lon="6.61151">
        <ele>1653.1</ele>
        <time>2022-09-18T03:17:39Z</time>
      </trkpt>
      <trkpt lat="44.11106" lon="6.61146">
        <ele>1652.9</ele>
        <time>2022-09-18T03:17:40Z</time>
      </trkpt>
      <trkpt lat="44.11109" lon="6.61139">
        <ele>1652.4</ele>
        <time>2022-09-18T03:17:41Z</time>
      </trkpt>
      <trkpt lat="44.11112" lon="6.61132">
        <ele>1651.8</ele>
        <time>2022-09-18T03:17:42Z</time>
      </trkpt>
      <trkpt lat="44.11114" lon="6.61126">
        <ele>1651.2</ele>
        <time>2022-09-18T03:17:43Z</time>
      </trkpt>
      <trkpt lat="44.11116" lon="6.61121">
        <ele>1650.7</ele>
        <time>2022-09-18T03:17:44Z</time>
      </trkpt>
      <trkpt lat="44.11119" lon="6.61116">
        <ele>1650.2</ele>
        <time>2022-09-18T03:17:45Z</time>
      </trkpt>
      <trkpt lat="44.11124" lon="6.61109">
        <ele>1649.6</ele>
        <time>2022-09-18T03:17:46Z</time>
      </trkpt>
      <trkpt lat="44.1113" lon="6.61103">
        <ele>1648.9</ele>
        <time>2022-09-18T03:17:47Z</time>
      </trkpt>
      <trkpt lat="44.11136" lon="6.61097">
        <ele>1648.4</ele>
        <time>2022-09-18T03:17:48Z</time>
      </trkpt>
      <trkpt lat="44.11143" lon="6.61092">
        <ele>1648.2</ele>
        <time>2022-09-18T03:17:49Z</time>
      </trkpt>
      <trkpt lat="44.1115" lon="6.61086">
        <ele>1648.1</ele>
        <time>2022-09-18T03:17:50Z</time>
      </trkpt>
      <trkpt lat="44.11157" lon="6.61081">
        <ele>1648.2</ele>
        <time>2022-09-18T03:17:51Z</time>
      </trkpt>
      <trkpt lat="44.11164" lon="6.61077">
        <ele>1648.4</ele>
        <time>2022-09-18T03:17:52Z</time>
      </trkpt>
      <trkpt lat="44.11172" lon="6.61074">
        <ele>1648.8</ele>
        <time>2022-09-18T03:17:53Z</time>
      </trkpt>
      <trkpt lat="44.11178" lon="6.61074">
        <ele>1649.3</ele>
        <time>2022-09-18T03:17:54Z</time>
      </trkpt>
      <trkpt lat="44.11185" lon="6.61075">
        <ele>1649.9</ele>
        <time>2022-09-18T03:17:55Z</time>
      </trkpt>
      <trkpt lat="44.11191" lon="6.61076">
        <ele>1650.4</ele>
        <time>2022-09-18T03:17:56Z</time>
      </trkpt>
      <trkpt lat="44.11197" lon="6.61075">
        <ele>1649.1</ele>
        <time>2022-09-18T03:17:57Z</time>
      </trkpt>
      <trkpt lat="44.11201" lon="6.6107">
        <ele>1648.5</ele>
        <time>2022-09-18T03:17:58Z</time>
      </trkpt>
      <trkpt lat="44.11202" lon="6.61063">
        <ele>1647.7</ele>
        <time>2022-09-18T03:17:59Z</time>
      </trkpt>
      <trkpt lat="44.11201" lon="6.61054">
        <ele>1646.6</ele>
        <time>2022-09-18T03:18:00Z</time>
      </trkpt>
      <trkpt lat="44.11201" lon="6.61044">
        <ele>1645.2</ele>
        <time>2022-09-18T03:18:01Z</time>
      </trkpt>
      <trkpt lat="44.112" lon="6.61034">
        <ele>1643.5</ele>
        <time>2022-09-18T03:18:02Z</time>
      </trkpt>
      <trkpt lat="44.11198" lon="6.61023">
        <ele>1641.8</ele>
        <time>2022-09-18T03:18:03Z</time>
      </trkpt>
      <trkpt lat="44.11196" lon="6.61014">
        <ele>1640.1</ele>
        <time>2022-09-18T03:18:04Z</time>
      </trkpt>
      <trkpt lat="44.11195" lon="6.61004">
        <ele>1638.6</ele>
        <time>2022-09-18T03:18:05Z</time>
      </trkpt>
      <trkpt lat="44.11193" lon="6.60995">
        <ele>1637.2</ele>
        <time>2022-09-18T03:18:06Z</time>
      </trkpt>
      <trkpt lat="44.11191" lon="6.60985">
        <ele>1635.8</ele>
        <time>2022-09-18T03:18:07Z</time>
      </trkpt>
      <trkpt lat="44.11189" lon="6.60975">
        <ele>1634.4</ele>
        <time>2022-09-18T03:18:08Z</time>
      </trkpt>
      <trkpt lat="44.11188" lon="6.60965">
        <ele>1633</ele>
        <time>2022-09-18T03:18:09Z</time>
      </trkpt>
      <trkpt lat="44.11189" lon="6.60958">
        <ele>1631.9</ele>
        <time>2022-09-18T03:18:10Z</time>
      </trkpt>
      <trkpt lat="44.1119" lon="6.60954">
        <ele>1631.3</ele>
        <time>2022-09-18T03:18:11Z</time>
      </trkpt>
      <trkpt lat="44.11195" lon="6.60954">
        <ele>1630.3</ele>
        <time>2022-09-18T03:18:12Z</time>
      </trkpt>
      <trkpt lat="44.11197" lon="6.60954">
        <ele>1629.9</ele>
        <time>2022-09-18T03:18:13Z</time>
      </trkpt>
      <trkpt lat="44.11203" lon="6.60954">
        <ele>1628.9</ele>
        <time>2022-09-18T03:18:14Z</time>
      </trkpt>
      <trkpt lat="44.1121" lon="6.60956">
        <ele>1628.1</ele>
        <time>2022-09-18T03:18:15Z</time>
      </trkpt>
      <trkpt lat="44.11217" lon="6.60959">
        <ele>1627.3</ele>
        <time>2022-09-18T03:18:16Z</time>
      </trkpt>
      <trkpt lat="44.11224" lon="6.6096">
        <ele>1626.6</ele>
        <time>2022-09-18T03:18:17Z</time>
      </trkpt>
      <trkpt lat="44.11231" lon="6.6096">
        <ele>1625.9</ele>
        <time>2022-09-18T03:18:18Z</time>
      </trkpt>
      <trkpt lat="44.11238" lon="6.60959">
        <ele>1625.1</ele>
        <time>2022-09-18T03:18:19Z</time>
      </trkpt>
      <trkpt lat="44.11242" lon="6.60955">
        <ele>1624.5</ele>
        <time>2022-09-18T03:18:20Z</time>
      </trkpt>
      <trkpt lat="44.11242" lon="6.60949">
        <ele>1623.9</ele>
        <time>2022-09-18T03:18:21Z</time>
      </trkpt>
      <trkpt lat="44.11242" lon="6.60942">
        <ele>1623.2</ele>
        <time>2022-09-18T03:18:22Z</time>
      </trkpt>
      <trkpt lat="44.11243" lon="6.60935">
        <ele>1622.3</ele>
        <time>2022-09-18T03:18:23Z</time>
      </trkpt>
      <trkpt lat="44.11243" lon="6.60925">
        <ele>1621.2</ele>
        <time>2022-09-18T03:18:24Z</time>
      </trkpt>
      <trkpt lat="44.11242" lon="6.60915">
        <ele>1620</ele>
        <time>2022-09-18T03:18:25Z</time>
      </trkpt>
      <trkpt lat="44.11241" lon="6.60905">
        <ele>1618.9</ele>
        <time>2022-09-18T03:18:26Z</time>
      </trkpt>
      <trkpt lat="44.1124" lon="6.60895">
        <ele>1618</ele>
        <time>2022-09-18T03:18:27Z</time>
      </trkpt>
      <trkpt lat="44.11239" lon="6.60888">
        <ele>1617.3</ele>
        <time>2022-09-18T03:18:28Z</time>
      </trkpt>
      <trkpt lat="44.11239" lon="6.60884">
        <ele>1616.9</ele>
        <time>2022-09-18T03:18:29Z</time>
      </trkpt>
      <trkpt lat="44.11239" lon="6.60879">
        <ele>1616.4</ele>
        <time>2022-09-18T03:18:30Z</time>
      </trkpt>
      <trkpt lat="44.11239" lon="6.60876">
        <ele>1616.2</ele>
        <time>2022-09-18T03:18:31Z</time>
      </trkpt>
      <trkpt lat="44.11238" lon="6.60872">
        <ele>1615.8</ele>
        <time>2022-09-18T03:18:32Z</time>
      </trkpt>
      <trkpt lat="44.11238" lon="6.6087">
        <ele>1615.7</ele>
        <time>2022-09-18T03:18:33Z</time>
      </trkpt>
      <trkpt lat="44.11237" lon="6.60865">
        <ele>1615.3</ele>
        <time>2022-09-18T03:18:34Z</time>
      </trkpt>
      <trkpt lat="44.11237" lon="6.60864">
        <ele>1615.1</ele>
        <time>2022-09-18T03:18:35Z</time>
      </trkpt>
      <trkpt lat="44.11236" lon="6.6086">
        <ele>1614.8</ele>
        <time>2022-09-18T03:18:36Z</time>
      </trkpt>
      <trkpt lat="44.11236" lon="6.60859">
        <ele>1614.7</ele>
        <time>2022-09-18T03:18:37Z</time>
      </trkpt>
      <trkpt lat="44.11236" lon="6.60855">
        <ele>1614.4</ele>
        <time>2022-09-18T03:18:38Z</time>
      </trkpt>
      <trkpt lat="44.11236" lon="6.60853">
        <ele>1614.3</ele>
        <time>2022-09-18T03:18:39Z</time>
      </trkpt>
      <trkpt lat="44.11236" lon="6.60849">
        <ele>1614</ele>
        <time>2022-09-18T03:18:40Z</time>
      </trkpt>
      <trkpt lat="44.11236" lon="6.60842">
        <ele>1613.7</ele>
        <time>2022-09-18T03:18:41Z</time>
      </trkpt>
      <trkpt lat="44.11237" lon="6.60836">
        <ele>1613.4</ele>
        <time>2022-09-18T03:18:42Z</time>
      </trkpt>
      <trkpt lat="44.11237" lon="6.60829">
        <ele>1613.2</ele>
        <time>2022-09-18T03:18:43Z</time>
      </trkpt>
      <trkpt lat="44.11239" lon="6.60823">
        <ele>1613</ele>
        <time>2022-09-18T03:18:44Z</time>
      </trkpt>
      <trkpt lat="44.11242" lon="6.60819">
        <ele>1612.8</ele>
        <time>2022-09-18T03:18:45Z</time>
      </trkpt>
      <trkpt lat="44.11245" lon="6.60814">
        <ele>1612.6</ele>
        <time>2022-09-18T03:18:46Z</time>
      </trkpt>
      <trkpt lat="44.11249" lon="6.6081">
        <ele>1612.2</ele>
        <time>2022-09-18T03:18:47Z</time>
      </trkpt>
      <trkpt lat="44.11252" lon="6.60807">
        <ele>1611.8</ele>
        <time>2022-09-18T03:18:48Z</time>
      </trkpt>
      <trkpt lat="44.11255" lon="6.60804">
        <ele>1611.4</ele>
        <time>2022-09-18T03:18:49Z</time>
      </trkpt>
      <trkpt lat="44.11258" lon="6.60799">
        <ele>1610.8</ele>
        <time>2022-09-18T03:18:50Z</time>
      </trkpt>
      <trkpt lat="44.1126" lon="6.60791">
        <ele>1609.7</ele>
        <time>2022-09-18T03:18:51Z</time>
      </trkpt>
      <trkpt lat="44.1126" lon="6.60783">
        <ele>1608.6</ele>
        <time>2022-09-18T03:18:52Z</time>
      </trkpt>
      <trkpt lat="44.11259" lon="6.60776">
        <ele>1607.4</ele>
        <time>2022-09-18T03:18:53Z</time>
      </trkpt>
      <trkpt lat="44.11256" lon="6.60769">
        <ele>1606.1</ele>
        <time>2022-09-18T03:18:54Z</time>
      </trkpt>
      <trkpt lat="44.11255" lon="6.60762">
        <ele>1604.9</ele>
        <time>2022-09-18T03:18:55Z</time>
      </trkpt>
      <trkpt lat="44.11255" lon="6.60756">
        <ele>1603.8</ele>
        <time>2022-09-18T03:18:56Z</time>
      </trkpt>
      <trkpt lat="44.11256" lon="6.60752">
        <ele>1603</ele>
        <time>2022-09-18T03:18:57Z</time>
      </trkpt>
      <trkpt lat="44.11259" lon="6.60745">
        <ele>1601.7</ele>
        <time>2022-09-18T03:18:58Z</time>
      </trkpt>
      <trkpt lat="44.11264" lon="6.6074">
        <ele>1600.1</ele>
        <time>2022-09-18T03:18:59Z</time>
      </trkpt>
      <trkpt lat="44.11271" lon="6.60734">
        <ele>1598.3</ele>
        <time>2022-09-18T03:19:00Z</time>
      </trkpt>
      <trkpt lat="44.11278" lon="6.60728">
        <ele>1596.3</ele>
        <time>2022-09-18T03:19:01Z</time>
      </trkpt>
      <trkpt lat="44.11283" lon="6.60722">
        <ele>1594.4</ele>
        <time>2022-09-18T03:19:02Z</time>
      </trkpt>
      <trkpt lat="44.11288" lon="6.60716">
        <ele>1592.8</ele>
        <time>2022-09-18T03:19:03Z</time>
      </trkpt>
      <trkpt lat="44.11291" lon="6.6071">
        <ele>1591.2</ele>
        <time>2022-09-18T03:19:04Z</time>
      </trkpt>
      <trkpt lat="44.11295" lon="6.60704">
        <ele>1589.7</ele>
        <time>2022-09-18T03:19:05Z</time>
      </trkpt>
      <trkpt lat="44.113" lon="6.607">
        <ele>1588.3</ele>
        <time>2022-09-18T03:19:06Z</time>
      </trkpt>
      <trkpt lat="44.11306" lon="6.60699">
        <ele>1587.1</ele>
        <time>2022-09-18T03:19:07Z</time>
      </trkpt>
      <trkpt lat="44.11312" lon="6.60698">
        <ele>1585.7</ele>
        <time>2022-09-18T03:19:08Z</time>
      </trkpt>
      <trkpt lat="44.11317" lon="6.60697">
        <ele>1584.7</ele>
        <time>2022-09-18T03:19:09Z</time>
      </trkpt>
      <trkpt lat="44.11318" lon="6.60693">
        <ele>1584.1</ele>
        <time>2022-09-18T03:19:10Z</time>
      </trkpt>
      <trkpt lat="44.11317" lon="6.60692">
        <ele>1583.9</ele>
        <time>2022-09-18T03:19:11Z</time>
      </trkpt>
      <trkpt lat="44.11315" lon="6.60687">
        <ele>1583.2</ele>
        <time>2022-09-18T03:19:12Z</time>
      </trkpt>
      <trkpt lat="44.11315" lon="6.60686">
        <ele>1582.9</ele>
        <time>2022-09-18T03:19:13Z</time>
      </trkpt>
      <trkpt lat="44.11314" lon="6.60682">
        <ele>1582.3</ele>
        <time>2022-09-18T03:19:14Z</time>
      </trkpt>
      <trkpt lat="44.11313" lon="6.60678">
        <ele>1581.6</ele>
        <time>2022-09-18T03:19:15Z</time>
      </trkpt>
      <trkpt lat="44.11312" lon="6.60677">
        <ele>1581.4</ele>
        <time>2022-09-18T03:19:16Z</time>
      </trkpt>
      <trkpt lat="44.11312" lon="6.60676">
        <ele>1581.3</ele>
        <time>2022-09-18T03:19:17Z</time>
      </trkpt>
      <trkpt lat="44.11311" lon="6.60675">
        <ele>1581.1</ele>
        <time>2022-09-18T03:19:18Z</time>
      </trkpt>
      <trkpt lat="44.11311" lon="6.60674">
        <ele>1580.9</ele>
        <time>2022-09-18T03:19:19Z</time>
      </trkpt>
      <trkpt lat="44.11311" lon="6.60673">
        <ele>1580.7</ele>
        <time>2022-09-18T03:19:20Z</time>
      </trkpt>
      <trkpt lat="44.1131" lon="6.60672">
        <ele>1580.5</ele>
        <time>2022-09-18T03:19:21Z</time>
      </trkpt>
      <trkpt lat="44.1131" lon="6.60671">
        <ele>1580.3</ele>
        <time>2022-09-18T03:19:22Z</time>
      </trkpt>
      <trkpt lat="44.11309" lon="6.6067">
        <ele>1580.1</ele>
        <time>2022-09-18T03:19:23Z</time>
      </trkpt>
      <trkpt lat="44.11309" lon="6.60669">
        <ele>1579.9</ele>
        <time>2022-09-18T03:19:24Z</time>
      </trkpt>
      <trkpt lat="44.11308" lon="6.60668">
        <ele>1579.7</ele>
        <time>2022-09-18T03:19:25Z</time>
      </trkpt>
      <trkpt lat="44.11308" lon="6.60667">
        <ele>1579.5</ele>
        <time>2022-09-18T03:19:26Z</time>
      </trkpt>
      <trkpt lat="44.11307" lon="6.60666">
        <ele>1579.3</ele>
        <time>2022-09-18T03:22:01Z</time>
      </trkpt>
      <trkpt lat="44.11307" lon="6.60665">
        <ele>1579.1</ele>
        <time>2022-09-18T03:22:02Z</time>
      </trkpt>
      <trkpt lat="44.11304" lon="6.60657">
        <ele>1577.6</ele>
        <time>2022-09-18T03:22:03Z</time>
      </trkpt>
      <trkpt lat="44.11302" lon="6.60646">
        <ele>1576</ele>
        <time>2022-09-18T03:22:04Z</time>
      </trkpt>
      <trkpt lat="44.11299" lon="6.60636">
        <ele>1574.7</ele>
        <time>2022-09-18T03:22:05Z</time>
      </trkpt>
      <trkpt lat="44.11295" lon="6.60627">
        <ele>1573.5</ele>
        <time>2022-09-18T03:22:06Z</time>
      </trkpt>
      <trkpt lat="44.11293" lon="6.60617">
        <ele>1572.3</ele>
        <time>2022-09-18T03:22:07Z</time>
      </trkpt>
      <trkpt lat="44.11293" lon="6.60608">
        <ele>1571.2</ele>
        <time>2022-09-18T03:22:08Z</time>
      </trkpt>
      <trkpt lat="44.11293" lon="6.606">
        <ele>1570.2</ele>
        <time>2022-09-18T03:22:09Z</time>
      </trkpt>
      <trkpt lat="44.11295" lon="6.60592">
        <ele>1569.1</ele>
        <time>2022-09-18T03:22:10Z</time>
      </trkpt>
      <trkpt lat="44.11297" lon="6.60584">
        <ele>1568</ele>
        <time>2022-09-18T03:22:11Z</time>
      </trkpt>
      <trkpt lat="44.11301" lon="6.60576">
        <ele>1566.9</ele>
        <time>2022-09-18T03:22:12Z</time>
      </trkpt>
      <trkpt lat="44.11305" lon="6.60568">
        <ele>1565.8</ele>
        <time>2022-09-18T03:22:13Z</time>
      </trkpt>
      <trkpt lat="44.11308" lon="6.6056">
        <ele>1564.6</ele>
        <time>2022-09-18T03:22:14Z</time>
      </trkpt>
      <trkpt lat="44.11312" lon="6.60552">
        <ele>1563.4</ele>
        <time>2022-09-18T03:22:15Z</time>
      </trkpt>
      <trkpt lat="44.11315" lon="6.60544">
        <ele>1562.2</ele>
        <time>2022-09-18T03:22:16Z</time>
      </trkpt>
      <trkpt lat="44.11317" lon="6.60536">
        <ele>1561</ele>
        <time>2022-09-18T03:22:17Z</time>
      </trkpt>
      <trkpt lat="44.1132" lon="6.60528">
        <ele>1559.9</ele>
        <time>2022-09-18T03:22:18Z</time>
      </trkpt>
      <trkpt lat="44.11323" lon="6.60521">
        <ele>1559</ele>
        <time>2022-09-18T03:22:19Z</time>
      </trkpt>
      <trkpt lat="44.11328" lon="6.60515">
        <ele>1558</ele>
        <time>2022-09-18T03:22:20Z</time>
      </trkpt>
      <trkpt lat="44.11333" lon="6.60508">
        <ele>1557</ele>
        <time>2022-09-18T03:22:21Z</time>
      </trkpt>
      <trkpt lat="44.11338" lon="6.60502">
        <ele>1556</ele>
        <time>2022-09-18T03:22:22Z</time>
      </trkpt>
      <trkpt lat="44.11343" lon="6.60495">
        <ele>1554.9</ele>
        <time>2022-09-18T03:22:23Z</time>
      </trkpt>
      <trkpt lat="44.11349" lon="6.60488">
        <ele>1553.8</ele>
        <time>2022-09-18T03:22:24Z</time>
      </trkpt>
      <trkpt lat="44.11356" lon="6.60481">
        <ele>1552.8</ele>
        <time>2022-09-18T03:22:25Z</time>
      </trkpt>
      <trkpt lat="44.11363" lon="6.60475">
        <ele>1552</ele>
        <time>2022-09-18T03:22:26Z</time>
      </trkpt>
      <trkpt lat="44.1137" lon="6.6047">
        <ele>1551.2</ele>
        <time>2022-09-18T03:22:27Z</time>
      </trkpt>
      <trkpt lat="44.11376" lon="6.60465">
        <ele>1550.4</ele>
        <time>2022-09-18T03:22:28Z</time>
      </trkpt>
      <trkpt lat="44.11382" lon="6.6046">
        <ele>1549.5</ele>
        <time>2022-09-18T03:22:29Z</time>
      </trkpt>
      <trkpt lat="44.11388" lon="6.60455">
        <ele>1548.5</ele>
        <time>2022-09-18T03:22:30Z</time>
      </trkpt>
      <trkpt lat="44.11394" lon="6.60449">
        <ele>1547.5</ele>
        <time>2022-09-18T03:22:31Z</time>
      </trkpt>
      <trkpt lat="44.11401" lon="6.60444">
        <ele>1546.4</ele>
        <time>2022-09-18T03:22:32Z</time>
      </trkpt>
      <trkpt lat="44.11407" lon="6.60439">
        <ele>1545.1</ele>
        <time>2022-09-18T03:22:33Z</time>
      </trkpt>
      <trkpt lat="44.11413" lon="6.60433">
        <ele>1543.7</ele>
        <time>2022-09-18T03:22:34Z</time>
      </trkpt>
      <trkpt lat="44.11418" lon="6.60428">
        <ele>1542.4</ele>
        <time>2022-09-18T03:22:35Z</time>
      </trkpt>
      <trkpt lat="44.11424" lon="6.60422">
        <ele>1541</ele>
        <time>2022-09-18T03:22:36Z</time>
      </trkpt>
      <trkpt lat="44.1143" lon="6.60416">
        <ele>1539.4</ele>
        <time>2022-09-18T03:22:37Z</time>
      </trkpt>
      <trkpt lat="44.11436" lon="6.6041">
        <ele>1537.9</ele>
        <time>2022-09-18T03:22:38Z</time>
      </trkpt>
      <trkpt lat="44.11441" lon="6.60404">
        <ele>1536.6</ele>
        <time>2022-09-18T03:22:39Z</time>
      </trkpt>
      <trkpt lat="44.11446" lon="6.60397">
        <ele>1535.3</ele>
        <time>2022-09-18T03:22:40Z</time>
      </trkpt>
      <trkpt lat="44.1145" lon="6.6039">
        <ele>1533.9</ele>
        <time>2022-09-18T03:22:41Z</time>
      </trkpt>
      <trkpt lat="44.11454" lon="6.60382">
        <ele>1532.3</ele>
        <time>2022-09-18T03:22:42Z</time>
      </trkpt>
      <trkpt lat="44.11458" lon="6.60375">
        <ele>1530.8</ele>
        <time>2022-09-18T03:22:43Z</time>
      </trkpt>
      <trkpt lat="44.11461" lon="6.60366">
        <ele>1529.3</ele>
        <time>2022-09-18T03:22:44Z</time>
      </trkpt>
      <trkpt lat="44.11464" lon="6.60358">
        <ele>1528</ele>
        <time>2022-09-18T03:22:45Z</time>
      </trkpt>
      <trkpt lat="44.11467" lon="6.6035">
        <ele>1526.7</ele>
        <time>2022-09-18T03:22:46Z</time>
      </trkpt>
      <trkpt lat="44.1147" lon="6.60342">
        <ele>1525.4</ele>
        <time>2022-09-18T03:22:47Z</time>
      </trkpt>
      <trkpt lat="44.11472" lon="6.60334">
        <ele>1524.1</ele>
        <time>2022-09-18T03:22:48Z</time>
      </trkpt>
      <trkpt lat="44.11474" lon="6.60327">
        <ele>1522.9</ele>
        <time>2022-09-18T03:22:49Z</time>
      </trkpt>
      <trkpt lat="44.11476" lon="6.6032">
        <ele>1521.7</ele>
        <time>2022-09-18T03:22:50Z</time>
      </trkpt>
      <trkpt lat="44.11478" lon="6.60312">
        <ele>1520.3</ele>
        <time>2022-09-18T03:22:51Z</time>
      </trkpt>
      <trkpt lat="44.1148" lon="6.60305">
        <ele>1518.7</ele>
        <time>2022-09-18T03:22:52Z</time>
      </trkpt>
      <trkpt lat="44.11481" lon="6.60296">
        <ele>1517</ele>
        <time>2022-09-18T03:22:53Z</time>
      </trkpt>
      <trkpt lat="44.11481" lon="6.60288">
        <ele>1515.5</ele>
        <time>2022-09-18T03:22:54Z</time>
      </trkpt>
      <trkpt lat="44.11481" lon="6.6028">
        <ele>1514.1</ele>
        <time>2022-09-18T03:22:55Z</time>
      </trkpt>
      <trkpt lat="44.11482" lon="6.60272">
        <ele>1512.7</ele>
        <time>2022-09-18T03:22:56Z</time>
      </trkpt>
      <trkpt lat="44.11484" lon="6.60262">
        <ele>1511.2</ele>
        <time>2022-09-18T03:22:57Z</time>
      </trkpt>
      <trkpt lat="44.11486" lon="6.60253">
        <ele>1509.8</ele>
        <time>2022-09-18T03:22:58Z</time>
      </trkpt>
      <trkpt lat="44.11487" lon="6.60245">
        <ele>1508.4</ele>
        <time>2022-09-18T03:22:59Z</time>
      </trkpt>
      <trkpt lat="44.11488" lon="6.60235">
        <ele>1506.7</ele>
        <time>2022-09-18T03:23:00Z</time>
      </trkpt>
      <trkpt lat="44.1149" lon="6.60224">
        <ele>1504.9</ele>
        <time>2022-09-18T03:23:01Z</time>
      </trkpt>
      <trkpt lat="44.11492" lon="6.60213">
        <ele>1502.7</ele>
        <time>2022-09-18T03:23:02Z</time>
      </trkpt>
      <trkpt lat="44.11494" lon="6.60202">
        <ele>1500.7</ele>
        <time>2022-09-18T03:23:03Z</time>
      </trkpt>
      <trkpt lat="44.11497" lon="6.60191">
        <ele>1498.8</ele>
        <time>2022-09-18T03:23:04Z</time>
      </trkpt>
      <trkpt lat="44.115" lon="6.60182">
        <ele>1497.1</ele>
        <time>2022-09-18T03:23:05Z</time>
      </trkpt>
      <trkpt lat="44.11503" lon="6.60175">
        <ele>1495.8</ele>
        <time>2022-09-18T03:23:06Z</time>
      </trkpt>
      <trkpt lat="44.11505" lon="6.6017">
        <ele>1494.7</ele>
        <time>2022-09-18T03:23:07Z</time>
      </trkpt>
      <trkpt lat="44.11506" lon="6.60161">
        <ele>1493.3</ele>
        <time>2022-09-18T03:23:08Z</time>
      </trkpt>
      <trkpt lat="44.11506" lon="6.60156">
        <ele>1492.4</ele>
        <time>2022-09-18T03:23:09Z</time>
      </trkpt>
      <trkpt lat="44.11506" lon="6.60146">
        <ele>1490.8</ele>
        <time>2022-09-18T03:23:10Z</time>
      </trkpt>
      <trkpt lat="44.11504" lon="6.60137">
        <ele>1489.1</ele>
        <time>2022-09-18T03:23:11Z</time>
      </trkpt>
      <trkpt lat="44.11504" lon="6.60125">
        <ele>1487.1</ele>
        <time>2022-09-18T03:23:12Z</time>
      </trkpt>
      <trkpt lat="44.11503" lon="6.60114">
        <ele>1484.8</ele>
        <time>2022-09-18T03:23:13Z</time>
      </trkpt>
      <trkpt lat="44.11501" lon="6.60104">
        <ele>1482.7</ele>
        <time>2022-09-18T03:23:14Z</time>
      </trkpt>
      <trkpt lat="44.115" lon="6.60094">
        <ele>1480.8</ele>
        <time>2022-09-18T03:23:15Z</time>
      </trkpt>
      <trkpt lat="44.115" lon="6.60085">
        <ele>1478.8</ele>
        <time>2022-09-18T03:23:16Z</time>
      </trkpt>
      <trkpt lat="44.11501" lon="6.60074">
        <ele>1476.3</ele>
        <time>2022-09-18T03:23:17Z</time>
      </trkpt>
      <trkpt lat="44.11502" lon="6.60064">
        <ele>1474.1</ele>
        <time>2022-09-18T03:23:18Z</time>
      </trkpt>
      <trkpt lat="44.11503" lon="6.60056">
        <ele>1472.2</ele>
        <time>2022-09-18T03:23:19Z</time>
      </trkpt>
      <trkpt lat="44.11503" lon="6.60048">
        <ele>1470.6</ele>
        <time>2022-09-18T03:23:20Z</time>
      </trkpt>
      <trkpt lat="44.11504" lon="6.6004">
        <ele>1468.9</ele>
        <time>2022-09-18T03:23:21Z</time>
      </trkpt>
      <trkpt lat="44.11506" lon="6.60032">
        <ele>1467.3</ele>
        <time>2022-09-18T03:23:22Z</time>
      </trkpt>
      <trkpt lat="44.1151" lon="6.60024">
        <ele>1465.4</ele>
        <time>2022-09-18T03:23:23Z</time>
      </trkpt>
      <trkpt lat="44.11514" lon="6.60016">
        <ele>1463.5</ele>
        <time>2022-09-18T03:23:24Z</time>
      </trkpt>
      <trkpt lat="44.11517" lon="6.60008">
        <ele>1461.5</ele>
        <time>2022-09-18T03:23:25Z</time>
      </trkpt>
      <trkpt lat="44.1152" lon="6.6">
        <ele>1459.5</ele>
        <time>2022-09-18T03:23:26Z</time>
      </trkpt>
      <trkpt lat="44.11522" lon="6.59992">
        <ele>1457.6</ele>
        <time>2022-09-18T03:23:27Z</time>
      </trkpt>
      <trkpt lat="44.11524" lon="6.59985">
        <ele>1455.8</ele>
        <time>2022-09-18T03:23:28Z</time>
      </trkpt>
      <trkpt lat="44.11525" lon="6.59976">
        <ele>1453.8</ele>
        <time>2022-09-18T03:23:29Z</time>
      </trkpt>
      <trkpt lat="44.11526" lon="6.59969">
        <ele>1451.9</ele>
        <time>2022-09-18T03:23:30Z</time>
      </trkpt>
      <trkpt lat="44.11525" lon="6.59962">
        <ele>1450</ele>
        <time>2022-09-18T03:23:31Z</time>
      </trkpt>
      <trkpt lat="44.11524" lon="6.59956">
        <ele>1448.4</ele>
        <time>2022-09-18T03:23:32Z</time>
      </trkpt>
      <trkpt lat="44.11522" lon="6.5995">
        <ele>1446.6</ele>
        <time>2022-09-18T03:23:33Z</time>
      </trkpt>
      <trkpt lat="44.1152" lon="6.59948">
        <ele>1445.8</ele>
        <time>2022-09-18T03:23:34Z</time>
      </trkpt>
      <trkpt lat="44.11517" lon="6.59943">
        <ele>1443.6</ele>
        <time>2022-09-18T03:23:35Z</time>
      </trkpt>
      <trkpt lat="44.11513" lon="6.59938">
        <ele>1441.7</ele>
        <time>2022-09-18T03:23:36Z</time>
      </trkpt>
      <trkpt lat="44.11509" lon="6.59932">
        <ele>1439.7</ele>
        <time>2022-09-18T03:23:37Z</time>
      </trkpt>
      <trkpt lat="44.11506" lon="6.59925">
        <ele>1437.7</ele>
        <time>2022-09-18T03:23:38Z</time>
      </trkpt>
      <trkpt lat="44.11502" lon="6.59918">
        <ele>1435.3</ele>
        <time>2022-09-18T03:23:39Z</time>
      </trkpt>
      <trkpt lat="44.11498" lon="6.5991">
        <ele>1432.8</ele>
        <time>2022-09-18T03:23:40Z</time>
      </trkpt>
      <trkpt lat="44.11492" lon="6.59902">
        <ele>1430.3</ele>
        <time>2022-09-18T03:23:41Z</time>
      </trkpt>
      <trkpt lat="44.11486" lon="6.59896">
        <ele>1428</ele>
        <time>2022-09-18T03:23:42Z</time>
      </trkpt>
      <trkpt lat="44.11481" lon="6.5989">
        <ele>1426.1</ele>
        <time>2022-09-18T03:23:43Z</time>
      </trkpt>
      <trkpt lat="44.11476" lon="6.59884">
        <ele>1424.1</ele>
        <time>2022-09-18T03:23:44Z</time>
      </trkpt>
      <trkpt lat="44.11472" lon="6.59876">
        <ele>1422</ele>
        <time>2022-09-18T03:23:45Z</time>
      </trkpt>
      <trkpt lat="44.11469" lon="6.59869">
        <ele>1420</ele>
        <time>2022-09-18T03:23:46Z</time>
      </trkpt>
      <trkpt lat="44.11467" lon="6.59864">
        <ele>1418.6</ele>
        <time>2022-09-18T03:23:47Z</time>
      </trkpt>
      <trkpt lat="44.11465" lon="6.59858">
        <ele>1417</ele>
        <time>2022-09-18T03:23:49Z</time>
      </trkpt>
      <trkpt lat="44.11461" lon="6.59857">
        <ele>1416.4</ele>
        <time>2022-09-18T03:23:50Z</time>
      </trkpt>
      <trkpt lat="44.11459" lon="6.59857">
        <ele>1415.9</ele>
        <time>2022-09-18T03:23:51Z</time>
      </trkpt>
      <trkpt lat="44.11457" lon="6.59856">
        <ele>1415.6</ele>
        <time>2022-09-18T03:23:52Z</time>
      </trkpt>
      <trkpt lat="44.11457" lon="6.59856">
        <ele>1415.5</ele>
        <time>2022-09-18T03:23:53Z</time>
      </trkpt>
      <trkpt lat="44.11456" lon="6.59855">
        <ele>1415.3</ele>
        <time>2022-09-18T03:23:54Z</time>
      </trkpt>
      <trkpt lat="44.11455" lon="6.59855">
        <ele>1415.1</ele>
        <time>2022-09-18T03:23:56Z</time>
      </trkpt>
      <trkpt lat="44.11454" lon="6.59854">
        <ele>1415</ele>
        <time>2022-09-18T03:23:57Z</time>
      </trkpt>
      <trkpt lat="44.11453" lon="6.59854">
        <ele>1414.8</ele>
        <time>2022-09-18T03:23:58Z</time>
      </trkpt>
      <trkpt lat="44.11453" lon="6.59853">
        <ele>1414.6</ele>
        <time>2022-09-18T03:23:59Z</time>
      </trkpt>
      <trkpt lat="44.11452" lon="6.59853">
        <ele>1414.5</ele>
        <time>2022-09-18T03:24:00Z</time>
      </trkpt>
      <trkpt lat="44.11451" lon="6.59852">
        <ele>1414.3</ele>
        <time>2022-09-18T03:24:01Z</time>
      </trkpt>
      <trkpt lat="44.1145" lon="6.59852">
        <ele>1414.1</ele>
        <time>2022-09-18T03:24:02Z</time>
      </trkpt>
      <trkpt lat="44.11449" lon="6.59851">
        <ele>1414</ele>
        <time>2022-09-18T03:24:03Z</time>
      </trkpt>
      <trkpt lat="44.11449" lon="6.59851">
        <ele>1413.8</ele>
        <time>2022-09-18T03:24:18Z</time>
      </trkpt>
      <trkpt lat="44.11448" lon="6.5985">
        <ele>1413.6</ele>
        <time>2022-09-18T03:24:19Z</time>
      </trkpt>
      <trkpt lat="44.11442" lon="6.59846">
        <ele>1412.3</ele>
        <time>2022-09-18T03:24:20Z</time>
      </trkpt>
      <trkpt lat="44.11439" lon="6.59843">
        <ele>1411.6</ele>
        <time>2022-09-18T03:24:21Z</time>
      </trkpt>
      <trkpt lat="44.11436" lon="6.59843">
        <ele>1410.8</ele>
        <time>2022-09-18T03:24:22Z</time>
      </trkpt>
      <trkpt lat="44.11432" lon="6.59841">
        <ele>1410</ele>
        <time>2022-09-18T03:24:23Z</time>
      </trkpt>
      <trkpt lat="44.1143" lon="6.59836">
        <ele>1409</ele>
        <time>2022-09-18T03:24:24Z</time>
      </trkpt>
      <trkpt lat="44.1143" lon="6.59828">
        <ele>1407.7</ele>
        <time>2022-09-18T03:24:26Z</time>
      </trkpt>
      <trkpt lat="44.11429" lon="6.59821">
        <ele>1406.7</ele>
        <time>2022-09-18T03:24:27Z</time>
      </trkpt>
      <trkpt lat="44.11427" lon="6.59812">
        <ele>1405.3</ele>
        <time>2022-09-18T03:24:28Z</time>
      </trkpt>
      <trkpt lat="44.11426" lon="6.59807">
        <ele>1404.8</ele>
        <time>2022-09-18T03:24:29Z</time>
      </trkpt>
      <trkpt lat="44.11427" lon="6.598">
        <ele>1403.7</ele>
        <time>2022-09-18T03:24:31Z</time>
      </trkpt>
      <trkpt lat="44.11428" lon="6.59791">
        <ele>1402.6</ele>
        <time>2022-09-18T03:24:32Z</time>
      </trkpt>
      <trkpt lat="44.11429" lon="6.59784">
        <ele>1401.7</ele>
        <time>2022-09-18T03:24:33Z</time>
      </trkpt>
      <trkpt lat="44.1143" lon="6.59775">
        <ele>1400.7</ele>
        <time>2022-09-18T03:24:34Z</time>
      </trkpt>
      <trkpt lat="44.11433" lon="6.59766">
        <ele>1399.4</ele>
        <time>2022-09-18T03:24:35Z</time>
      </trkpt>
      <trkpt lat="44.11437" lon="6.59756">
        <ele>1398</ele>
        <time>2022-09-18T03:24:36Z</time>
      </trkpt>
      <trkpt lat="44.11441" lon="6.59746">
        <ele>1396.6</ele>
        <time>2022-09-18T03:24:37Z</time>
      </trkpt>
      <trkpt lat="44.11444" lon="6.59737">
        <ele>1395.4</ele>
        <time>2022-09-18T03:24:38Z</time>
      </trkpt>
      <trkpt lat="44.11446" lon="6.59727">
        <ele>1394.4</ele>
        <time>2022-09-18T03:24:39Z</time>
      </trkpt>
      <trkpt lat="44.11448" lon="6.59717">
        <ele>1393.4</ele>
        <time>2022-09-18T03:24:40Z</time>
      </trkpt>
      <trkpt lat="44.1145" lon="6.59706">
        <ele>1392.5</ele>
        <time>2022-09-18T03:24:41Z</time>
      </trkpt>
      <trkpt lat="44.11452" lon="6.59696">
        <ele>1391.5</ele>
        <time>2022-09-18T03:24:42Z</time>
      </trkpt>
      <trkpt lat="44.11455" lon="6.59687">
        <ele>1390.4</ele>
        <time>2022-09-18T03:24:43Z</time>
      </trkpt>
      <trkpt lat="44.11456" lon="6.59677">
        <ele>1389.5</ele>
        <time>2022-09-18T03:24:44Z</time>
      </trkpt>
      <trkpt lat="44.11456" lon="6.59668">
        <ele>1388.6</ele>
        <time>2022-09-18T03:24:45Z</time>
      </trkpt>
      <trkpt lat="44.11456" lon="6.59657">
        <ele>1387.6</ele>
        <time>2022-09-18T03:24:46Z</time>
      </trkpt>
      <trkpt lat="44.11456" lon="6.59647">
        <ele>1386.4</ele>
        <time>2022-09-18T03:24:47Z</time>
      </trkpt>
      <trkpt lat="44.11456" lon="6.59638">
        <ele>1385.3</ele>
        <time>2022-09-18T03:24:48Z</time>
      </trkpt>
      <trkpt lat="44.11456" lon="6.59631">
        <ele>1384.2</ele>
        <time>2022-09-18T03:24:49Z</time>
      </trkpt>
      <trkpt lat="44.11455" lon="6.59625">
        <ele>1383.4</ele>
        <time>2022-09-18T03:24:50Z</time>
      </trkpt>
      <trkpt lat="44.11452" lon="6.5962">
        <ele>1382.5</ele>
        <time>2022-09-18T03:24:51Z</time>
      </trkpt>
      <trkpt lat="44.1145" lon="6.59617">
        <ele>1381.9</ele>
        <time>2022-09-18T03:24:52Z</time>
      </trkpt>
      <trkpt lat="44.11449" lon="6.59612">
        <ele>1381.3</ele>
        <time>2022-09-18T03:24:53Z</time>
      </trkpt>
      <trkpt lat="44.11449" lon="6.59604">
        <ele>1380.3</ele>
        <time>2022-09-18T03:24:54Z</time>
      </trkpt>
      <trkpt lat="44.11448" lon="6.59595">
        <ele>1379.5</ele>
        <time>2022-09-18T03:24:55Z</time>
      </trkpt>
      <trkpt lat="44.11448" lon="6.59584">
        <ele>1378.6</ele>
        <time>2022-09-18T03:24:56Z</time>
      </trkpt>
      <trkpt lat="44.11449" lon="6.59574">
        <ele>1377.6</ele>
        <time>2022-09-18T03:24:57Z</time>
      </trkpt>
      <trkpt lat="44.11449" lon="6.59564">
        <ele>1376.6</ele>
        <time>2022-09-18T03:24:58Z</time>
      </trkpt>
      <trkpt lat="44.1145" lon="6.59555">
        <ele>1375.6</ele>
        <time>2022-09-18T03:24:59Z</time>
      </trkpt>
      <trkpt lat="44.11452" lon="6.59548">
        <ele>1374.7</ele>
        <time>2022-09-18T03:25:00Z</time>
      </trkpt>
      <trkpt lat="44.11452" lon="6.59542">
        <ele>1374.2</ele>
        <time>2022-09-18T03:25:01Z</time>
      </trkpt>
      <trkpt lat="44.11452" lon="6.5954">
        <ele>1373.9</ele>
        <time>2022-09-18T03:25:02Z</time>
      </trkpt>
      <trkpt lat="44.11452" lon="6.59536">
        <ele>1373.5</ele>
        <time>2022-09-18T03:25:03Z</time>
      </trkpt>
      <trkpt lat="44.11453" lon="6.59534">
        <ele>1373.3</ele>
        <time>2022-09-18T03:25:04Z</time>
      </trkpt>
      <trkpt lat="44.11453" lon="6.59532">
        <ele>1373.1</ele>
        <time>2022-09-18T03:25:05Z</time>
      </trkpt>
      <trkpt lat="44.11454" lon="6.59528">
        <ele>1372.7</ele>
        <time>2022-09-18T03:25:07Z</time>
      </trkpt>
      <trkpt lat="44.11454" lon="6.59527">
        <ele>1372.6</ele>
        <time>2022-09-18T03:25:08Z</time>
      </trkpt>
      <trkpt lat="44.11454" lon="6.59525">
        <ele>1372.5</ele>
        <time>2022-09-18T03:25:09Z</time>
      </trkpt>
      <trkpt lat="44.11454" lon="6.59524">
        <ele>1372.4</ele>
        <time>2022-09-18T03:25:10Z</time>
      </trkpt>
      <trkpt lat="44.11455" lon="6.59524">
        <ele>1372.4</ele>
        <time>2022-09-18T03:25:11Z</time>
      </trkpt>
      <trkpt lat="44.11455" lon="6.59523">
        <ele>1372.3</ele>
        <time>2022-09-18T03:25:12Z</time>
      </trkpt>
      <trkpt lat="44.11455" lon="6.59523">
        <ele>1372.3</ele>
        <time>2022-09-18T03:25:13Z</time>
      </trkpt>
      <trkpt lat="44.11455" lon="6.59522">
        <ele>1372.2</ele>
        <time>2022-09-18T03:25:14Z</time>
      </trkpt>
      <trkpt lat="44.11455" lon="6.59521">
        <ele>1372.2</ele>
        <time>2022-09-18T03:25:15Z</time>
      </trkpt>
      <trkpt lat="44.11455" lon="6.59521">
        <ele>1372.1</ele>
        <time>2022-09-18T03:25:16Z</time>
      </trkpt>
      <trkpt lat="44.11455" lon="6.5952">
        <ele>1372</ele>
        <time>2022-09-18T03:25:18Z</time>
      </trkpt>
      <trkpt lat="44.11456" lon="6.59519">
        <ele>1372</ele>
        <time>2022-09-18T03:25:19Z</time>
      </trkpt>
      <trkpt lat="44.11456" lon="6.59519">
        <ele>1371.9</ele>
        <time>2022-09-18T03:25:20Z</time>
      </trkpt>
      <trkpt lat="44.11458" lon="6.59512">
        <ele>1371.3</ele>
        <time>2022-09-18T03:25:21Z</time>
      </trkpt>
      <trkpt lat="44.11461" lon="6.59504">
        <ele>1370.6</ele>
        <time>2022-09-18T03:25:22Z</time>
      </trkpt>
      <trkpt lat="44.11464" lon="6.59496">
        <ele>1370</ele>
        <time>2022-09-18T03:25:23Z</time>
      </trkpt>
      <trkpt lat="44.11467" lon="6.59489">
        <ele>1369.3</ele>
        <time>2022-09-18T03:25:24Z</time>
      </trkpt>
      <trkpt lat="44.1147" lon="6.59481">
        <ele>1368.6</ele>
        <time>2022-09-18T03:25:25Z</time>
      </trkpt>
      <trkpt lat="44.11472" lon="6.59472">
        <ele>1367.9</ele>
        <time>2022-09-18T03:25:26Z</time>
      </trkpt>
      <trkpt lat="44.11474" lon="6.59464">
        <ele>1367.3</ele>
        <time>2022-09-18T03:25:27Z</time>
      </trkpt>
      <trkpt lat="44.11476" lon="6.59455">
        <ele>1366.6</ele>
        <time>2022-09-18T03:25:28Z</time>
      </trkpt>
      <trkpt lat="44.11479" lon="6.59449">
        <ele>1366</ele>
        <time>2022-09-18T03:25:29Z</time>
      </trkpt>
      <trkpt lat="44.11482" lon="6.59444">
        <ele>1365.5</ele>
        <time>2022-09-18T03:25:30Z</time>
      </trkpt>
      <trkpt lat="44.11483" lon="6.59439">
        <ele>1365.1</ele>
        <time>2022-09-18T03:25:31Z</time>
      </trkpt>
      <trkpt lat="44.11484" lon="6.59431">
        <ele>1364.5</ele>
        <time>2022-09-18T03:25:32Z</time>
      </trkpt>
      <trkpt lat="44.11486" lon="6.59423">
        <ele>1363.7</ele>
        <time>2022-09-18T03:25:33Z</time>
      </trkpt>
      <trkpt lat="44.11489" lon="6.59414">
        <ele>1362.9</ele>
        <time>2022-09-18T03:25:34Z</time>
      </trkpt>
      <trkpt lat="44.11492" lon="6.59406">
        <ele>1362</ele>
        <time>2022-09-18T03:25:35Z</time>
      </trkpt>
      <trkpt lat="44.11497" lon="6.59399">
        <ele>1361.2</ele>
        <time>2022-09-18T03:25:36Z</time>
      </trkpt>
      <trkpt lat="44.11502" lon="6.59393">
        <ele>1360.4</ele>
        <time>2022-09-18T03:25:37Z</time>
      </trkpt>
      <trkpt lat="44.11508" lon="6.59388">
        <ele>1359.5</ele>
        <time>2022-09-18T03:25:38Z</time>
      </trkpt>
      <trkpt lat="44.11512" lon="6.59381">
        <ele>1358.7</ele>
        <time>2022-09-18T03:25:39Z</time>
      </trkpt>
      <trkpt lat="44.11516" lon="6.59374">
        <ele>1357.8</ele>
        <time>2022-09-18T03:25:40Z</time>
      </trkpt>
      <trkpt lat="44.11516" lon="6.59365">
        <ele>1357</ele>
        <time>2022-09-18T03:25:41Z</time>
      </trkpt>
      <trkpt lat="44.11516" lon="6.59355">
        <ele>1356</ele>
        <time>2022-09-18T03:25:42Z</time>
      </trkpt>
      <trkpt lat="44.11516" lon="6.59345">
        <ele>1355</ele>
        <time>2022-09-18T03:25:43Z</time>
      </trkpt>
      <trkpt lat="44.11517" lon="6.59335">
        <ele>1354</ele>
        <time>2022-09-18T03:25:44Z</time>
      </trkpt>
      <trkpt lat="44.11518" lon="6.59324">
        <ele>1352.9</ele>
        <time>2022-09-18T03:25:45Z</time>
      </trkpt>
      <trkpt lat="44.11518" lon="6.59313">
        <ele>1351.9</ele>
        <time>2022-09-18T03:25:46Z</time>
      </trkpt>
      <trkpt lat="44.11519" lon="6.59302">
        <ele>1350.9</ele>
        <time>2022-09-18T03:25:47Z</time>
      </trkpt>
      <trkpt lat="44.1152" lon="6.59291">
        <ele>1349.8</ele>
        <time>2022-09-18T03:25:48Z</time>
      </trkpt>
      <trkpt lat="44.11523" lon="6.5928">
        <ele>1348.5</ele>
        <time>2022-09-18T03:25:49Z</time>
      </trkpt>
      <trkpt lat="44.11527" lon="6.59269">
        <ele>1347</ele>
        <time>2022-09-18T03:25:50Z</time>
      </trkpt>
      <trkpt lat="44.11533" lon="6.59257">
        <ele>1345.5</ele>
        <time>2022-09-18T03:25:51Z</time>
      </trkpt>
      <trkpt lat="44.11538" lon="6.59246">
        <ele>1343.8</ele>
        <time>2022-09-18T03:25:52Z</time>
      </trkpt>
      <trkpt lat="44.11545" lon="6.59235">
        <ele>1342.2</ele>
        <time>2022-09-18T03:25:53Z</time>
      </trkpt>
      <trkpt lat="44.11553" lon="6.59225">
        <ele>1340.6</ele>
        <time>2022-09-18T03:25:54Z</time>
      </trkpt>
      <trkpt lat="44.11561" lon="6.59215">
        <ele>1338.9</ele>
        <time>2022-09-18T03:25:55Z</time>
      </trkpt>
      <trkpt lat="44.11569" lon="6.59205">
        <ele>1337.2</ele>
        <time>2022-09-18T03:25:56Z</time>
      </trkpt>
      <trkpt lat="44.11576" lon="6.59193">
        <ele>1335.4</ele>
        <time>2022-09-18T03:25:57Z</time>
      </trkpt>
      <trkpt lat="44.11583" lon="6.59181">
        <ele>1333.7</ele>
        <time>2022-09-18T03:25:58Z</time>
      </trkpt>
      <trkpt lat="44.11588" lon="6.59169">
        <ele>1332.2</ele>
        <time>2022-09-18T03:25:59Z</time>
      </trkpt>
      <trkpt lat="44.11594" lon="6.59159">
        <ele>1330.7</ele>
        <time>2022-09-18T03:26:00Z</time>
      </trkpt>
      <trkpt lat="44.11599" lon="6.5915">
        <ele>1329.2</ele>
        <time>2022-09-18T03:26:01Z</time>
      </trkpt>
      <trkpt lat="44.11605" lon="6.59142">
        <ele>1327.9</ele>
        <time>2022-09-18T03:26:02Z</time>
      </trkpt>
      <trkpt lat="44.1161" lon="6.59137">
        <ele>1326.9</ele>
        <time>2022-09-18T03:26:03Z</time>
      </trkpt>
      <trkpt lat="44.11615" lon="6.59135">
        <ele>1327.3</ele>
        <time>2022-09-18T03:26:04Z</time>
      </trkpt>
      <trkpt lat="44.11619" lon="6.59135">
        <ele>1327.7</ele>
        <time>2022-09-18T03:26:05Z</time>
      </trkpt>
      <trkpt lat="44.11623" lon="6.59137">
        <ele>1327.9</ele>
        <time>2022-09-18T03:26:06Z</time>
      </trkpt>
      <trkpt lat="44.11626" lon="6.59139">
        <ele>1328</ele>
        <time>2022-09-18T03:26:07Z</time>
      </trkpt>
      <trkpt lat="44.11627" lon="6.59139">
        <ele>1327.9</ele>
        <time>2022-09-18T03:26:08Z</time>
      </trkpt>
      <trkpt lat="44.11628" lon="6.59139">
        <ele>1327.9</ele>
        <time>2022-09-18T03:26:09Z</time>
      </trkpt>
      <trkpt lat="44.11628" lon="6.59139">
        <ele>1327.9</ele>
        <time>2022-09-18T03:26:10Z</time>
      </trkpt>
      <trkpt lat="44.11628" lon="6.59139">
        <ele>1327.8</ele>
        <time>2022-09-18T03:26:11Z</time>
      </trkpt>
      <trkpt lat="44.11629" lon="6.59138">
        <ele>1327.8</ele>
        <time>2022-09-18T03:26:12Z</time>
      </trkpt>
      <trkpt lat="44.11629" lon="6.59138">
        <ele>1327.8</ele>
        <time>2022-09-18T03:26:13Z</time>
      </trkpt>
      <trkpt lat="44.1163" lon="6.59138">
        <ele>1327.7</ele>
        <time>2022-09-18T03:26:14Z</time>
      </trkpt>
      <trkpt lat="44.1163" lon="6.59138">
        <ele>1327.7</ele>
        <time>2022-09-18T03:26:15Z</time>
      </trkpt>
      <trkpt lat="44.11631" lon="6.59137">
        <ele>1327.7</ele>
        <time>2022-09-18T03:26:16Z</time>
      </trkpt>
      <trkpt lat="44.11631" lon="6.59137">
        <ele>1327.7</ele>
        <time>2022-09-18T03:26:17Z</time>
      </trkpt>
      <trkpt lat="44.11631" lon="6.59137">
        <ele>1327.6</ele>
        <time>2022-09-18T03:26:18Z</time>
      </trkpt>
      <trkpt lat="44.11632" lon="6.59137">
        <ele>1327.6</ele>
        <time>2022-09-18T03:26:19Z</time>
      </trkpt>
      <trkpt lat="44.11632" lon="6.59136">
        <ele>1327.6</ele>
        <time>2022-09-18T03:26:20Z</time>
      </trkpt>
      <trkpt lat="44.11633" lon="6.59136">
        <ele>1327.5</ele>
        <time>2022-09-18T03:26:21Z</time>
      </trkpt>
      <trkpt lat="44.11633" lon="6.59136">
        <ele>1327.5</ele>
        <time>2022-09-18T03:28:05Z</time>
      </trkpt>
      <trkpt lat="44.11634" lon="6.59136">
        <ele>1327.4</ele>
        <time>2022-09-18T03:28:06Z</time>
      </trkpt>
      <trkpt lat="44.11639" lon="6.59133">
        <ele>1326.9</ele>
        <time>2022-09-18T03:28:07Z</time>
      </trkpt>
      <trkpt lat="44.11645" lon="6.5913">
        <ele>1326.2</ele>
        <time>2022-09-18T03:28:08Z</time>
      </trkpt>
      <trkpt lat="44.11651" lon="6.59126">
        <ele>1325.3</ele>
        <time>2022-09-18T03:28:09Z</time>
      </trkpt>
      <trkpt lat="44.11656" lon="6.59121">
        <ele>1324.4</ele>
        <time>2022-09-18T03:28:10Z</time>
      </trkpt>
      <trkpt lat="44.11661" lon="6.59114">
        <ele>1323.4</ele>
        <time>2022-09-18T03:28:11Z</time>
      </trkpt>
      <trkpt lat="44.11666" lon="6.59106">
        <ele>1322.3</ele>
        <time>2022-09-18T03:28:12Z</time>
      </trkpt>
      <trkpt lat="44.11671" lon="6.59097">
        <ele>1321.1</ele>
        <time>2022-09-18T03:28:13Z</time>
      </trkpt>
      <trkpt lat="44.11675" lon="6.59091">
        <ele>1320.2</ele>
        <time>2022-09-18T03:28:14Z</time>
      </trkpt>
      <trkpt lat="44.1168" lon="6.59088">
        <ele>1319.4</ele>
        <time>2022-09-18T03:28:15Z</time>
      </trkpt>
      <trkpt lat="44.11684" lon="6.59086">
        <ele>1318.6</ele>
        <time>2022-09-18T03:28:16Z</time>
      </trkpt>
      <trkpt lat="44.11688" lon="6.59085">
        <ele>1317.9</ele>
        <time>2022-09-18T03:28:17Z</time>
      </trkpt>
      <trkpt lat="44.11691" lon="6.59084">
        <ele>1317.2</ele>
        <time>2022-09-18T03:28:18Z</time>
      </trkpt>
      <trkpt lat="44.11696" lon="6.59079">
        <ele>1316</ele>
        <time>2022-09-18T03:28:19Z</time>
      </trkpt>
      <trkpt lat="44.11701" lon="6.59076">
        <ele>1314.8</ele>
        <time>2022-09-18T03:28:20Z</time>
      </trkpt>
      <trkpt lat="44.11708" lon="6.59074">
        <ele>1313.5</ele>
        <time>2022-09-18T03:28:21Z</time>
      </trkpt>
      <trkpt lat="44.11715" lon="6.59071">
        <ele>1311.9</ele>
        <time>2022-09-18T03:28:22Z</time>
      </trkpt>
      <trkpt lat="44.11724" lon="6.59069">
        <ele>1310.3</ele>
        <time>2022-09-18T03:28:23Z</time>
      </trkpt>
      <trkpt lat="44.11731" lon="6.59067">
        <ele>1309</ele>
        <time>2022-09-18T03:28:24Z</time>
      </trkpt>
      <trkpt lat="44.11738" lon="6.59064">
        <ele>1307.9</ele>
        <time>2022-09-18T03:28:25Z</time>
      </trkpt>
      <trkpt lat="44.11744" lon="6.59062">
        <ele>1306.8</ele>
        <time>2022-09-18T03:28:26Z</time>
      </trkpt>
      <trkpt lat="44.1175" lon="6.59061">
        <ele>1305.8</ele>
        <time>2022-09-18T03:28:27Z</time>
      </trkpt>
      <trkpt lat="44.11756" lon="6.59061">
        <ele>1304.9</ele>
        <time>2022-09-18T03:28:28Z</time>
      </trkpt>
      <trkpt lat="44.11762" lon="6.59062">
        <ele>1304</ele>
        <time>2022-09-18T03:28:29Z</time>
      </trkpt>
      <trkpt lat="44.11769" lon="6.59065">
        <ele>1303.1</ele>
        <time>2022-09-18T03:28:30Z</time>
      </trkpt>
      <trkpt lat="44.11777" lon="6.59068">
        <ele>1302.1</ele>
        <time>2022-09-18T03:28:31Z</time>
      </trkpt>
      <trkpt lat="44.11785" lon="6.5907">
        <ele>1301</ele>
        <time>2022-09-18T03:28:32Z</time>
      </trkpt>
      <trkpt lat="44.11793" lon="6.5907">
        <ele>1300</ele>
        <time>2022-09-18T03:28:33Z</time>
      </trkpt>
      <trkpt lat="44.118" lon="6.5907">
        <ele>1298.9</ele>
        <time>2022-09-18T03:28:34Z</time>
      </trkpt>
      <trkpt lat="44.11807" lon="6.59069">
        <ele>1297.8</ele>
        <time>2022-09-18T03:28:35Z</time>
      </trkpt>
      <trkpt lat="44.11815" lon="6.59068">
        <ele>1296.7</ele>
        <time>2022-09-18T03:28:36Z</time>
      </trkpt>
      <trkpt lat="44.11821" lon="6.59067">
        <ele>1295.5</ele>
        <time>2022-09-18T03:28:37Z</time>
      </trkpt>
      <trkpt lat="44.11828" lon="6.59068">
        <ele>1294.4</ele>
        <time>2022-09-18T03:28:38Z</time>
      </trkpt>
      <trkpt lat="44.11835" lon="6.59067">
        <ele>1293.2</ele>
        <time>2022-09-18T03:28:39Z</time>
      </trkpt>
      <trkpt lat="44.11843" lon="6.59065">
        <ele>1291.9</ele>
        <time>2022-09-18T03:28:40Z</time>
      </trkpt>
      <trkpt lat="44.11851" lon="6.59062">
        <ele>1290.7</ele>
        <time>2022-09-18T03:28:41Z</time>
      </trkpt>
      <trkpt lat="44.11859" lon="6.59057">
        <ele>1289.7</ele>
        <time>2022-09-18T03:28:42Z</time>
      </trkpt>
      <trkpt lat="44.11865" lon="6.59051">
        <ele>1288.8</ele>
        <time>2022-09-18T03:28:43Z</time>
      </trkpt>
      <trkpt lat="44.11871" lon="6.59045">
        <ele>1287.9</ele>
        <time>2022-09-18T03:28:44Z</time>
      </trkpt>
      <trkpt lat="44.11876" lon="6.59038">
        <ele>1287.1</ele>
        <time>2022-09-18T03:28:45Z</time>
      </trkpt>
      <trkpt lat="44.11882" lon="6.5903">
        <ele>1286.3</ele>
        <time>2022-09-18T03:28:46Z</time>
      </trkpt>
      <trkpt lat="44.11887" lon="6.59022">
        <ele>1285.3</ele>
        <time>2022-09-18T03:28:47Z</time>
      </trkpt>
      <trkpt lat="44.11893" lon="6.59015">
        <ele>1284.2</ele>
        <time>2022-09-18T03:28:48Z</time>
      </trkpt>
      <trkpt lat="44.11898" lon="6.59008">
        <ele>1283.1</ele>
        <time>2022-09-18T03:28:49Z</time>
      </trkpt>
      <trkpt lat="44.11903" lon="6.59001">
        <ele>1281.8</ele>
        <time>2022-09-18T03:28:50Z</time>
      </trkpt>
      <trkpt lat="44.1191" lon="6.58994">
        <ele>1280.4</ele>
        <time>2022-09-18T03:28:51Z</time>
      </trkpt>
      <trkpt lat="44.11916" lon="6.58988">
        <ele>1279.1</ele>
        <time>2022-09-18T03:28:52Z</time>
      </trkpt>
      <trkpt lat="44.11921" lon="6.58982">
        <ele>1278</ele>
        <time>2022-09-18T03:28:53Z</time>
      </trkpt>
      <trkpt lat="44.11927" lon="6.58977">
        <ele>1276.8</ele>
        <time>2022-09-18T03:28:54Z</time>
      </trkpt>
      <trkpt lat="44.11932" lon="6.58972">
        <ele>1275.6</ele>
        <time>2022-09-18T03:28:55Z</time>
      </trkpt>
      <trkpt lat="44.11939" lon="6.58968">
        <ele>1274.4</ele>
        <time>2022-09-18T03:28:56Z</time>
      </trkpt>
      <trkpt lat="44.11944" lon="6.58965">
        <ele>1273.3</ele>
        <time>2022-09-18T03:28:57Z</time>
      </trkpt>
      <trkpt lat="44.11949" lon="6.58963">
        <ele>1272.4</ele>
        <time>2022-09-18T03:28:58Z</time>
      </trkpt>
      <trkpt lat="44.11953" lon="6.58962">
        <ele>1271.8</ele>
        <time>2022-09-18T03:28:59Z</time>
      </trkpt>
      <trkpt lat="44.11959" lon="6.58959">
        <ele>1270.6</ele>
        <time>2022-09-18T03:29:00Z</time>
      </trkpt>
      <trkpt lat="44.11967" lon="6.58957">
        <ele>1269.4</ele>
        <time>2022-09-18T03:29:01Z</time>
      </trkpt>
      <trkpt lat="44.11974" lon="6.58954">
        <ele>1268.2</ele>
        <time>2022-09-18T03:29:02Z</time>
      </trkpt>
      <trkpt lat="44.1198" lon="6.58952">
        <ele>1267.3</ele>
        <time>2022-09-18T03:29:03Z</time>
      </trkpt>
      <trkpt lat="44.11982" lon="6.58949">
        <ele>1266.8</ele>
        <time>2022-09-18T03:29:04Z</time>
      </trkpt>
      <trkpt lat="44.11987" lon="6.58945">
        <ele>1266.1</ele>
        <time>2022-09-18T03:29:05Z</time>
      </trkpt>
      <trkpt lat="44.1199" lon="6.58944">
        <ele>1265.7</ele>
        <time>2022-09-18T03:29:06Z</time>
      </trkpt>
      <trkpt lat="44.11997" lon="6.58944">
        <ele>1264.8</ele>
        <time>2022-09-18T03:29:07Z</time>
      </trkpt>
      <trkpt lat="44.12004" lon="6.58944">
        <ele>1263.9</ele>
        <time>2022-09-18T03:29:08Z</time>
      </trkpt>
      <trkpt lat="44.12011" lon="6.58944">
        <ele>1262.9</ele>
        <time>2022-09-18T03:29:09Z</time>
      </trkpt>
      <trkpt lat="44.12019" lon="6.58944">
        <ele>1262.1</ele>
        <time>2022-09-18T03:29:10Z</time>
      </trkpt>
      <trkpt lat="44.12024" lon="6.58944">
        <ele>1261.6</ele>
        <time>2022-09-18T03:29:11Z</time>
      </trkpt>
      <trkpt lat="44.12027" lon="6.58944">
        <ele>1261.3</ele>
        <time>2022-09-18T03:29:12Z</time>
      </trkpt>
      <trkpt lat="44.1203" lon="6.58943">
        <ele>1261.1</ele>
        <time>2022-09-18T03:29:13Z</time>
      </trkpt>
      <trkpt lat="44.12034" lon="6.58945">
        <ele>1260.7</ele>
        <time>2022-09-18T03:29:14Z</time>
      </trkpt>
      <trkpt lat="44.12039" lon="6.58946">
        <ele>1260.4</ele>
        <time>2022-09-18T03:29:15Z</time>
      </trkpt>
      <trkpt lat="44.12047" lon="6.58948">
        <ele>1259.7</ele>
        <time>2022-09-18T03:29:16Z</time>
      </trkpt>
      <trkpt lat="44.12052" lon="6.58948">
        <ele>1259.2</ele>
        <time>2022-09-18T03:29:18Z</time>
      </trkpt>
      <trkpt lat="44.12061" lon="6.58944">
        <ele>1258.2</ele>
        <time>2022-09-18T03:29:20Z</time>
      </trkpt>
      <trkpt lat="44.12066" lon="6.58942">
        <ele>1257.6</ele>
        <time>2022-09-18T03:29:21Z</time>
      </trkpt>
      <trkpt lat="44.12071" lon="6.5894">
        <ele>1256.9</ele>
        <time>2022-09-18T03:29:22Z</time>
      </trkpt>
      <trkpt lat="44.12077" lon="6.58938">
        <ele>1256.2</ele>
        <time>2022-09-18T03:29:23Z</time>
      </trkpt>
      <trkpt lat="44.12082" lon="6.58936">
        <ele>1255.5</ele>
        <time>2022-09-18T03:29:24Z</time>
      </trkpt>
      <trkpt lat="44.12088" lon="6.58934">
        <ele>1254.6</ele>
        <time>2022-09-18T03:29:25Z</time>
      </trkpt>
      <trkpt lat="44.12095" lon="6.58933">
        <ele>1253.7</ele>
        <time>2022-09-18T03:29:26Z</time>
      </trkpt>
      <trkpt lat="44.12102" lon="6.58932">
        <ele>1252.7</ele>
        <time>2022-09-18T03:29:27Z</time>
      </trkpt>
      <trkpt lat="44.1211" lon="6.5893">
        <ele>1251.7</ele>
        <time>2022-09-18T03:29:28Z</time>
      </trkpt>
      <trkpt lat="44.12118" lon="6.58927">
        <ele>1250.8</ele>
        <time>2022-09-18T03:29:29Z</time>
      </trkpt>
      <trkpt lat="44.12125" lon="6.58926">
        <ele>1250.2</ele>
        <time>2022-09-18T03:29:30Z</time>
      </trkpt>
      <trkpt lat="44.12132" lon="6.58927">
        <ele>1249.9</ele>
        <time>2022-09-18T03:29:31Z</time>
      </trkpt>
      <trkpt lat="44.12138" lon="6.58927">
        <ele>1249.7</ele>
        <time>2022-09-18T03:29:32Z</time>
      </trkpt>
      <trkpt lat="44.12142" lon="6.58927">
        <ele>1249.7</ele>
        <time>2022-09-18T03:29:33Z</time>
      </trkpt>
      <trkpt lat="44.12146" lon="6.5893">
        <ele>1249.6</ele>
        <time>2022-09-18T03:29:34Z</time>
      </trkpt>
      <trkpt lat="44.12149" lon="6.58932">
        <ele>1249.6</ele>
        <time>2022-09-18T03:29:35Z</time>
      </trkpt>
      <trkpt lat="44.12154" lon="6.58936">
        <ele>1249.4</ele>
        <time>2022-09-18T03:29:36Z</time>
      </trkpt>
      <trkpt lat="44.12158" lon="6.58937">
        <ele>1249.3</ele>
        <time>2022-09-18T03:29:37Z</time>
      </trkpt>
      <trkpt lat="44.12163" lon="6.58939">
        <ele>1249.1</ele>
        <time>2022-09-18T03:29:38Z</time>
      </trkpt>
      <trkpt lat="44.12167" lon="6.58944">
        <ele>1249</ele>
        <time>2022-09-18T03:29:39Z</time>
      </trkpt>
      <trkpt lat="44.12169" lon="6.58955">
        <ele>1249.1</ele>
        <time>2022-09-18T03:29:40Z</time>
      </trkpt>
      <trkpt lat="44.12171" lon="6.58959">
        <ele>1249.3</ele>
        <time>2022-09-18T03:29:42Z</time>
      </trkpt>
      <trkpt lat="44.12174" lon="6.58959">
        <ele>1249.5</ele>
        <time>2022-09-18T03:29:44Z</time>
      </trkpt>
      <trkpt lat="44.12175" lon="6.58957">
        <ele>1249.6</ele>
        <time>2022-09-18T03:29:45Z</time>
      </trkpt>
      <trkpt lat="44.12175" lon="6.58956">
        <ele>1249.6</ele>
        <time>2022-09-18T03:29:46Z</time>
      </trkpt>
      <trkpt lat="44.12175" lon="6.58955">
        <ele>1249.6</ele>
        <time>2022-09-18T03:29:48Z</time>
      </trkpt>
      <trkpt lat="44.12174" lon="6.58952">
        <ele>1249.7</ele>
        <time>2022-09-18T03:29:49Z</time>
      </trkpt>
      <trkpt lat="44.12176" lon="6.5895">
        <ele>1249.7</ele>
        <time>2022-09-18T03:29:51Z</time>
      </trkpt>
      <trkpt lat="44.12181" lon="6.5895">
        <ele>1249.7</ele>
        <time>2022-09-18T03:29:52Z</time>
      </trkpt>
      <trkpt lat="44.12183" lon="6.58951">
        <ele>1249.6</ele>
        <time>2022-09-18T03:29:53Z</time>
      </trkpt>
      <trkpt lat="44.12186" lon="6.58951">
        <ele>1249.5</ele>
        <time>2022-09-18T03:29:54Z</time>
      </trkpt>
      <trkpt lat="44.12185" lon="6.58952">
        <ele>1249.4</ele>
        <time>2022-09-18T03:29:55Z</time>
      </trkpt>
      <trkpt lat="44.12186" lon="6.58954">
        <ele>1249.4</ele>
        <time>2022-09-18T03:29:56Z</time>
      </trkpt>
      <trkpt lat="44.12186" lon="6.58954">
        <ele>1249.3</ele>
        <time>2022-09-18T03:29:57Z</time>
      </trkpt>
      <trkpt lat="44.12186" lon="6.58954">
        <ele>1249.3</ele>
        <time>2022-09-18T03:29:59Z</time>
      </trkpt>
      <trkpt lat="44.12186" lon="6.58954">
        <ele>1249.3</ele>
        <time>2022-09-18T03:30:01Z</time>
      </trkpt>
      <trkpt lat="44.12185" lon="6.58954">
        <ele>1249.3</ele>
        <time>2022-09-18T03:30:02Z</time>
      </trkpt>
      <trkpt lat="44.12185" lon="6.58955">
        <ele>1249.3</ele>
        <time>2022-09-18T03:30:03Z</time>
      </trkpt>
      <trkpt lat="44.12185" lon="6.58956">
        <ele>1249.2</ele>
        <time>2022-09-18T03:30:04Z</time>
      </trkpt>
      <trkpt lat="44.12186" lon="6.58956">
        <ele>1249.2</ele>
        <time>2022-09-18T03:30:05Z</time>
      </trkpt>
      <trkpt lat="44.12187" lon="6.58956">
        <ele>1249.1</ele>
        <time>2022-09-18T03:30:06Z</time>
      </trkpt>
      <trkpt lat="44.12188" lon="6.58956">
        <ele>1249</ele>
        <time>2022-09-18T03:30:07Z</time>
      </trkpt>
      <trkpt lat="44.1219" lon="6.58957">
        <ele>1248.9</ele>
        <time>2022-09-18T03:30:08Z</time>
      </trkpt>
      <trkpt lat="44.12191" lon="6.58959">
        <ele>1248.8</ele>
        <time>2022-09-18T03:30:09Z</time>
      </trkpt>
      <trkpt lat="44.12194" lon="6.58959">
        <ele>1248.6</ele>
        <time>2022-09-18T03:30:10Z</time>
      </trkpt>
      <trkpt lat="44.12198" lon="6.5896">
        <ele>1248.3</ele>
        <time>2022-09-18T03:30:11Z</time>
      </trkpt>
      <trkpt lat="44.12202" lon="6.58962">
        <ele>1248</ele>
        <time>2022-09-18T03:30:12Z</time>
      </trkpt>
      <trkpt lat="44.12206" lon="6.58965">
        <ele>1247.8</ele>
        <time>2022-09-18T03:30:13Z</time>
      </trkpt>
      <trkpt lat="44.1221" lon="6.58969">
        <ele>1247.7</ele>
        <time>2022-09-18T03:30:14Z</time>
      </trkpt>
      <trkpt lat="44.12213" lon="6.58973">
        <ele>1247.6</ele>
        <time>2022-09-18T03:30:15Z</time>
      </trkpt>
      <trkpt lat="44.12216" lon="6.58978">
        <ele>1247.6</ele>
        <time>2022-09-18T03:30:16Z</time>
      </trkpt>
      <trkpt lat="44.12219" lon="6.58982">
        <ele>1247.7</ele>
        <time>2022-09-18T03:30:17Z</time>
      </trkpt>
      <trkpt lat="44.12223" lon="6.5899">
        <ele>1247.9</ele>
        <time>2022-09-18T03:30:18Z</time>
      </trkpt>
      <trkpt lat="44.12225" lon="6.58997">
        <ele>1248.1</ele>
        <time>2022-09-18T03:30:20Z</time>
      </trkpt>
      <trkpt lat="44.12229" lon="6.59003">
        <ele>1248.2</ele>
        <time>2022-09-18T03:30:21Z</time>
      </trkpt>
      <trkpt lat="44.12231" lon="6.59003">
        <ele>1248.2</ele>
        <time>2022-09-18T03:30:23Z</time>
      </trkpt>
      <trkpt lat="44.12236" lon="6.59001">
        <ele>1248.1</ele>
        <time>2022-09-18T03:30:24Z</time>
      </trkpt>
      <trkpt lat="44.12238" lon="6.59">
        <ele>1248.1</ele>
        <time>2022-09-18T03:30:25Z</time>
      </trkpt>
      <trkpt lat="44.12242" lon="6.58999">
        <ele>1248</ele>
        <time>2022-09-18T03:30:26Z</time>
      </trkpt>
      <trkpt lat="44.12249" lon="6.58998">
        <ele>1248</ele>
        <time>2022-09-18T03:30:27Z</time>
      </trkpt>
      <trkpt lat="44.12254" lon="6.58998">
        <ele>1248.2</ele>
        <time>2022-09-18T03:30:29Z</time>
      </trkpt>
      <trkpt lat="44.12258" lon="6.59">
        <ele>1248.4</ele>
        <time>2022-09-18T03:30:30Z</time>
      </trkpt>
      <trkpt lat="44.1226" lon="6.59002">
        <ele>1248.5</ele>
        <time>2022-09-18T03:30:31Z</time>
      </trkpt>
      <trkpt lat="44.12263" lon="6.59003">
        <ele>1248.6</ele>
        <time>2022-09-18T03:30:32Z</time>
      </trkpt>
      <trkpt lat="44.12264" lon="6.59003">
        <ele>1248.7</ele>
        <time>2022-09-18T03:30:33Z</time>
      </trkpt>
      <trkpt lat="44.12265" lon="6.59004">
        <ele>1248.7</ele>
        <time>2022-09-18T03:30:34Z</time>
      </trkpt>
      <trkpt lat="44.12264" lon="6.59004">
        <ele>1248.7</ele>
        <time>2022-09-18T03:30:35Z</time>
      </trkpt>
      <trkpt lat="44.12265" lon="6.59005">
        <ele>1248.8</ele>
        <time>2022-09-18T03:30:37Z</time>
      </trkpt>
      <trkpt lat="44.12266" lon="6.59006">
        <ele>1248.9</ele>
        <time>2022-09-18T03:30:38Z</time>
      </trkpt>
      <trkpt lat="44.12271" lon="6.59012">
        <ele>1249.2</ele>
        <time>2022-09-18T03:30:39Z</time>
      </trkpt>
      <trkpt lat="44.12275" lon="6.59018">
        <ele>1249.6</ele>
        <time>2022-09-18T03:30:41Z</time>
      </trkpt>
      <trkpt lat="44.1228" lon="6.59022">
        <ele>1250.1</ele>
        <time>2022-09-18T03:30:42Z</time>
      </trkpt>
      <trkpt lat="44.12285" lon="6.59024">
        <ele>1250.5</ele>
        <time>2022-09-18T03:30:43Z</time>
      </trkpt>
      <trkpt lat="44.12288" lon="6.59025">
        <ele>1250.7</ele>
        <time>2022-09-18T03:30:44Z</time>
      </trkpt>
      <trkpt lat="44.12292" lon="6.59027">
        <ele>1251</ele>
        <time>2022-09-18T03:30:45Z</time>
      </trkpt>
      <trkpt lat="44.12295" lon="6.59028">
        <ele>1251</ele>
        <time>2022-09-18T03:30:46Z</time>
      </trkpt>
      <trkpt lat="44.12301" lon="6.59029">
        <ele>1251.1</ele>
        <time>2022-09-18T03:30:48Z</time>
      </trkpt>
      <trkpt lat="44.12307" lon="6.59032">
        <ele>1251</ele>
        <time>2022-09-18T03:30:49Z</time>
      </trkpt>
      <trkpt lat="44.12314" lon="6.59036">
        <ele>1250.8</ele>
        <time>2022-09-18T03:30:51Z</time>
      </trkpt>
      <trkpt lat="44.12319" lon="6.59037">
        <ele>1250.7</ele>
        <time>2022-09-18T03:30:52Z</time>
      </trkpt>
      <trkpt lat="44.12324" lon="6.59039">
        <ele>1250.5</ele>
        <time>2022-09-18T03:30:53Z</time>
      </trkpt>
      <trkpt lat="44.12332" lon="6.59041">
        <ele>1250.4</ele>
        <time>2022-09-18T03:30:54Z</time>
      </trkpt>
      <trkpt lat="44.12338" lon="6.59041">
        <ele>1250.3</ele>
        <time>2022-09-18T03:30:56Z</time>
      </trkpt>
      <trkpt lat="44.12343" lon="6.59041">
        <ele>1250.3</ele>
        <time>2022-09-18T03:30:57Z</time>
      </trkpt>
      <trkpt lat="44.12348" lon="6.59041">
        <ele>1250.3</ele>
        <time>2022-09-18T03:30:58Z</time>
      </trkpt>
      <trkpt lat="44.12352" lon="6.59041">
        <ele>1250.3</ele>
        <time>2022-09-18T03:30:59Z</time>
      </trkpt>
      <trkpt lat="44.12355" lon="6.59039">
        <ele>1250.3</ele>
        <time>2022-09-18T03:31:00Z</time>
      </trkpt>
      <trkpt lat="44.12357" lon="6.59036">
        <ele>1250.2</ele>
        <time>2022-09-18T03:31:01Z</time>
      </trkpt>
      <trkpt lat="44.1236" lon="6.59034">
        <ele>1250.1</ele>
        <time>2022-09-18T03:31:02Z</time>
      </trkpt>
      <trkpt lat="44.12367" lon="6.59029">
        <ele>1249.7</ele>
        <time>2022-09-18T03:31:03Z</time>
      </trkpt>
      <trkpt lat="44.12372" lon="6.5902">
        <ele>1248.8</ele>
        <time>2022-09-18T03:31:05Z</time>
      </trkpt>
      <trkpt lat="44.12377" lon="6.59012">
        <ele>1248</ele>
        <time>2022-09-18T03:31:06Z</time>
      </trkpt>
      <trkpt lat="44.12382" lon="6.59005">
        <ele>1247.1</ele>
        <time>2022-09-18T03:31:07Z</time>
      </trkpt>
      <trkpt lat="44.12385" lon="6.59001">
        <ele>1246.5</ele>
        <time>2022-09-18T03:31:08Z</time>
      </trkpt>
      <trkpt lat="44.12385" lon="6.58999">
        <ele>1246.3</ele>
        <time>2022-09-18T03:31:09Z</time>
      </trkpt>
      <trkpt lat="44.12388" lon="6.58999">
        <ele>1245.8</ele>
        <time>2022-09-18T03:31:10Z</time>
      </trkpt>
      <trkpt lat="44.12398" lon="6.58998">
        <ele>1244</ele>
        <time>2022-09-18T03:31:11Z</time>
      </trkpt>
      <trkpt lat="44.12405" lon="6.58996">
        <ele>1242.6</ele>
        <time>2022-09-18T03:31:12Z</time>
      </trkpt>
      <trkpt lat="44.12413" lon="6.58993">
        <ele>1241.2</ele>
        <time>2022-09-18T03:31:13Z</time>
      </trkpt>
      <trkpt lat="44.12422" lon="6.58988">
        <ele>1240</ele>
        <time>2022-09-18T03:31:14Z</time>
      </trkpt>
      <trkpt lat="44.1243" lon="6.58983">
        <ele>1239.2</ele>
        <time>2022-09-18T03:31:15Z</time>
      </trkpt>
      <trkpt lat="44.12434" lon="6.58981">
        <ele>1238.8</ele>
        <time>2022-09-18T03:31:16Z</time>
      </trkpt>
      <trkpt lat="44.1244" lon="6.58983">
        <ele>1238.8</ele>
        <time>2022-09-18T03:31:17Z</time>
      </trkpt>
      <trkpt lat="44.12445" lon="6.58987">
        <ele>1238.8</ele>
        <time>2022-09-18T03:31:18Z</time>
      </trkpt>
      <trkpt lat="44.12449" lon="6.58989">
        <ele>1238.7</ele>
        <time>2022-09-18T03:31:19Z</time>
      </trkpt>
      <trkpt lat="44.12452" lon="6.58992">
        <ele>1238.5</ele>
        <time>2022-09-18T03:31:20Z</time>
      </trkpt>
      <trkpt lat="44.12458" lon="6.58994">
        <ele>1238.3</ele>
        <time>2022-09-18T03:31:21Z</time>
      </trkpt>
      <trkpt lat="44.12462" lon="6.58994">
        <ele>1238</ele>
        <time>2022-09-18T03:31:22Z</time>
      </trkpt>
      <trkpt lat="44.12469" lon="6.58991">
        <ele>1237.5</ele>
        <time>2022-09-18T03:31:24Z</time>
      </trkpt>
      <trkpt lat="44.12471" lon="6.58988">
        <ele>1237.2</ele>
        <time>2022-09-18T03:31:25Z</time>
      </trkpt>
      <trkpt lat="44.12472" lon="6.58987">
        <ele>1237.1</ele>
        <time>2022-09-18T03:31:26Z</time>
      </trkpt>
      <trkpt lat="44.12468" lon="6.58981">
        <ele>1236.7</ele>
        <time>2022-09-18T03:31:27Z</time>
      </trkpt>
      <trkpt lat="44.12466" lon="6.58979">
        <ele>1236.4</ele>
        <time>2022-09-18T03:31:28Z</time>
      </trkpt>
      <trkpt lat="44.12465" lon="6.58974">
        <ele>1236.1</ele>
        <time>2022-09-18T03:31:29Z</time>
      </trkpt>
      <trkpt lat="44.12467" lon="6.5897">
        <ele>1235.8</ele>
        <time>2022-09-18T03:31:31Z</time>
      </trkpt>
      <trkpt lat="44.1247" lon="6.58971">
        <ele>1235.5</ele>
        <time>2022-09-18T03:31:32Z</time>
      </trkpt>
      <trkpt lat="44.12473" lon="6.58973">
        <ele>1235.2</ele>
        <time>2022-09-18T03:31:33Z</time>
      </trkpt>
      <trkpt lat="44.12476" lon="6.58977">
        <ele>1235</ele>
        <time>2022-09-18T03:31:34Z</time>
      </trkpt>
      <trkpt lat="44.12481" lon="6.58981">
        <ele>1233.8</ele>
        <time>2022-09-18T03:31:35Z</time>
      </trkpt>
      <trkpt lat="44.1249" lon="6.58978">
        <ele>1232.2</ele>
        <time>2022-09-18T03:31:37Z</time>
      </trkpt>
      <trkpt lat="44.12495" lon="6.58976">
        <ele>1231.1</ele>
        <time>2022-09-18T03:31:39Z</time>
      </trkpt>
      <trkpt lat="44.125" lon="6.58976">
        <ele>1230.2</ele>
        <time>2022-09-18T03:31:40Z</time>
      </trkpt>
      <trkpt lat="44.12506" lon="6.58978">
        <ele>1229.2</ele>
        <time>2022-09-18T03:31:42Z</time>
      </trkpt>
      <trkpt lat="44.12511" lon="6.58979">
        <ele>1228.3</ele>
        <time>2022-09-18T03:31:43Z</time>
      </trkpt>
      <trkpt lat="44.12516" lon="6.5898">
        <ele>1227.5</ele>
        <time>2022-09-18T03:31:44Z</time>
      </trkpt>
      <trkpt lat="44.1253" lon="6.58986">
        <ele>1225.4</ele>
        <time>2022-09-18T03:31:45Z</time>
      </trkpt>
      <trkpt lat="44.12535" lon="6.58987">
        <ele>1225.1</ele>
        <time>2022-09-18T03:31:46Z</time>
      </trkpt>
      <trkpt lat="44.12539" lon="6.58991">
        <ele>1224.8</ele>
        <time>2022-09-18T03:31:47Z</time>
      </trkpt>
      <trkpt lat="44.12541" lon="6.58996">
        <ele>1224.8</ele>
        <time>2022-09-18T03:31:48Z</time>
      </trkpt>
      <trkpt lat="44.12541" lon="6.58999">
        <ele>1224.8</ele>
        <time>2022-09-18T03:31:50Z</time>
      </trkpt>
      <trkpt lat="44.12542" lon="6.59">
        <ele>1224.8</ele>
        <time>2022-09-18T03:31:51Z</time>
      </trkpt>
      <trkpt lat="44.12542" lon="6.59001">
        <ele>1224.8</ele>
        <time>2022-09-18T03:31:52Z</time>
      </trkpt>
      <trkpt lat="44.12542" lon="6.59002">
        <ele>1224.8</ele>
        <time>2022-09-18T03:31:53Z</time>
      </trkpt>
      <trkpt lat="44.12542" lon="6.59003">
        <ele>1224.8</ele>
        <time>2022-09-18T03:31:54Z</time>
      </trkpt>
      <trkpt lat="44.12542" lon="6.59003">
        <ele>1224.8</ele>
        <time>2022-09-18T03:31:55Z</time>
      </trkpt>
      <trkpt lat="44.12543" lon="6.59004">
        <ele>1224.9</ele>
        <time>2022-09-18T03:31:57Z</time>
      </trkpt>
      <trkpt lat="44.12544" lon="6.59004">
        <ele>1224.9</ele>
        <time>2022-09-18T03:31:58Z</time>
      </trkpt>
      <trkpt lat="44.12545" lon="6.59005">
        <ele>1224.9</ele>
        <time>2022-09-18T03:32:00Z</time>
      </trkpt>
      <trkpt lat="44.12545" lon="6.59006">
        <ele>1224.9</ele>
        <time>2022-09-18T03:32:01Z</time>
      </trkpt>
      <trkpt lat="44.12545" lon="6.59006">
        <ele>1224.9</ele>
        <time>2022-09-18T03:32:02Z</time>
      </trkpt>
      <trkpt lat="44.12546" lon="6.59007">
        <ele>1224.9</ele>
        <time>2022-09-18T03:32:03Z</time>
      </trkpt>
      <trkpt lat="44.12546" lon="6.59008">
        <ele>1225</ele>
        <time>2022-09-18T03:32:04Z</time>
      </trkpt>
      <trkpt lat="44.12547" lon="6.59009">
        <ele>1225</ele>
        <time>2022-09-18T03:32:05Z</time>
      </trkpt>
      <trkpt lat="44.12547" lon="6.5901">
        <ele>1225</ele>
        <time>2022-09-18T03:32:07Z</time>
      </trkpt>
      <trkpt lat="44.12548" lon="6.59011">
        <ele>1225</ele>
        <time>2022-09-18T03:32:15Z</time>
      </trkpt>
      <trkpt lat="44.12548" lon="6.59012">
        <ele>1225</ele>
        <time>2022-09-18T03:32:16Z</time>
      </trkpt>
      <trkpt lat="44.12548" lon="6.59012">
        <ele>1225</ele>
        <time>2022-09-18T03:32:17Z</time>
      </trkpt>
      <trkpt lat="44.12551" lon="6.59018">
        <ele>1225.1</ele>
        <time>2022-09-18T03:32:18Z</time>
      </trkpt>
      <trkpt lat="44.12553" lon="6.59021">
        <ele>1225.2</ele>
        <time>2022-09-18T03:32:19Z</time>
      </trkpt>
      <trkpt lat="44.12557" lon="6.59028">
        <ele>1225.1</ele>
        <time>2022-09-18T03:32:20Z</time>
      </trkpt>
      <trkpt lat="44.12567" lon="6.59039">
        <ele>1224.2</ele>
        <time>2022-09-18T03:32:22Z</time>
      </trkpt>
      <trkpt lat="44.12576" lon="6.59046">
        <ele>1223</ele>
        <time>2022-09-18T03:32:23Z</time>
      </trkpt>
      <trkpt lat="44.12584" lon="6.59051">
        <ele>1222</ele>
        <time>2022-09-18T03:32:24Z</time>
      </trkpt>
      <trkpt lat="44.12588" lon="6.59054">
        <ele>1221.5</ele>
        <time>2022-09-18T03:32:25Z</time>
      </trkpt>
      <trkpt lat="44.12591" lon="6.59055">
        <ele>1221.1</ele>
        <time>2022-09-18T03:32:26Z</time>
      </trkpt>
      <trkpt lat="44.12595" lon="6.59054">
        <ele>1220.6</ele>
        <time>2022-09-18T03:32:27Z</time>
      </trkpt>
      <trkpt lat="44.12603" lon="6.59052">
        <ele>1219.2</ele>
        <time>2022-09-18T03:32:28Z</time>
      </trkpt>
      <trkpt lat="44.12606" lon="6.59056">
        <ele>1218.4</ele>
        <time>2022-09-18T03:32:30Z</time>
      </trkpt>
      <trkpt lat="44.12607" lon="6.59058">
        <ele>1217.9</ele>
        <time>2022-09-18T03:32:31Z</time>
      </trkpt>
      <trkpt lat="44.12609" lon="6.59063">
        <ele>1217.1</ele>
        <time>2022-09-18T03:32:32Z</time>
      </trkpt>
      <trkpt lat="44.12612" lon="6.59074">
        <ele>1215.3</ele>
        <time>2022-09-18T03:32:33Z</time>
      </trkpt>
      <trkpt lat="44.12617" lon="6.59084">
        <ele>1213.3</ele>
        <time>2022-09-18T03:32:34Z</time>
      </trkpt>
      <trkpt lat="44.1262" lon="6.59088">
        <ele>1212.4</ele>
        <time>2022-09-18T03:32:35Z</time>
      </trkpt>
      <trkpt lat="44.12624" lon="6.59092">
        <ele>1211.2</ele>
        <time>2022-09-18T03:32:37Z</time>
      </trkpt>
      <trkpt lat="44.12629" lon="6.59095">
        <ele>1210.1</ele>
        <time>2022-09-18T03:32:38Z</time>
      </trkpt>
      <trkpt lat="44.12633" lon="6.59096">
        <ele>1209.2</ele>
        <time>2022-09-18T03:32:39Z</time>
      </trkpt>
      <trkpt lat="44.12638" lon="6.59098">
        <ele>1208.1</ele>
        <time>2022-09-18T03:32:40Z</time>
      </trkpt>
      <trkpt lat="44.12652" lon="6.591">
        <ele>1205.5</ele>
        <time>2022-09-18T03:32:41Z</time>
      </trkpt>
      <trkpt lat="44.12661" lon="6.59104">
        <ele>1204</ele>
        <time>2022-09-18T03:32:42Z</time>
      </trkpt>
      <trkpt lat="44.12669" lon="6.5911">
        <ele>1202.8</ele>
        <time>2022-09-18T03:32:43Z</time>
      </trkpt>
      <trkpt lat="44.12676" lon="6.59117">
        <ele>1201.7</ele>
        <time>2022-09-18T03:32:44Z</time>
      </trkpt>
      <trkpt lat="44.12682" lon="6.59127">
        <ele>1200.7</ele>
        <time>2022-09-18T03:32:45Z</time>
      </trkpt>
      <trkpt lat="44.12685" lon="6.59138">
        <ele>1200</ele>
        <time>2022-09-18T03:32:46Z</time>
      </trkpt>
      <trkpt lat="44.12687" lon="6.59147">
        <ele>1199.6</ele>
        <time>2022-09-18T03:32:47Z</time>
      </trkpt>
      <trkpt lat="44.12689" lon="6.59156">
        <ele>1199.2</ele>
        <time>2022-09-18T03:32:48Z</time>
      </trkpt>
      <trkpt lat="44.1269" lon="6.59163">
        <ele>1198.8</ele>
        <time>2022-09-18T03:32:49Z</time>
      </trkpt>
      <trkpt lat="44.12692" lon="6.59167">
        <ele>1198.5</ele>
        <time>2022-09-18T03:32:50Z</time>
      </trkpt>
      <trkpt lat="44.12695" lon="6.59172">
        <ele>1198</ele>
        <time>2022-09-18T03:32:51Z</time>
      </trkpt>
      <trkpt lat="44.12699" lon="6.59178">
        <ele>1197.4</ele>
        <time>2022-09-18T03:32:52Z</time>
      </trkpt>
      <trkpt lat="44.12701" lon="6.59182">
        <ele>1196.9</ele>
        <time>2022-09-18T03:32:53Z</time>
      </trkpt>
      <trkpt lat="44.12703" lon="6.59185">
        <ele>1196.5</ele>
        <time>2022-09-18T03:32:54Z</time>
      </trkpt>
      <trkpt lat="44.12704" lon="6.59186">
        <ele>1196.5</ele>
        <time>2022-09-18T03:32:55Z</time>
      </trkpt>
      <trkpt lat="44.12704" lon="6.59185">
        <ele>1196.4</ele>
        <time>2022-09-18T03:32:56Z</time>
      </trkpt>
      <trkpt lat="44.12705" lon="6.59186">
        <ele>1196.3</ele>
        <time>2022-09-18T03:32:57Z</time>
      </trkpt>
      <trkpt lat="44.12705" lon="6.59186">
        <ele>1196.3</ele>
        <time>2022-09-18T03:32:58Z</time>
      </trkpt>
      <trkpt lat="44.12705" lon="6.59186">
        <ele>1196.2</ele>
        <time>2022-09-18T03:32:59Z</time>
      </trkpt>
      <trkpt lat="44.12705" lon="6.59186">
        <ele>1196.2</ele>
        <time>2022-09-18T03:33:00Z</time>
      </trkpt>
      <trkpt lat="44.12705" lon="6.59187">
        <ele>1196.1</ele>
        <time>2022-09-18T03:33:02Z</time>
      </trkpt>
      <trkpt lat="44.12705" lon="6.59187">
        <ele>1196.1</ele>
        <time>2022-09-18T03:33:03Z</time>
      </trkpt>
      <trkpt lat="44.12705" lon="6.59189">
        <ele>1195.9</ele>
        <time>2022-09-18T03:33:04Z</time>
      </trkpt>
      <trkpt lat="44.12705" lon="6.5919">
        <ele>1195.8</ele>
        <time>2022-09-18T03:33:06Z</time>
      </trkpt>
      <trkpt lat="44.12706" lon="6.5919">
        <ele>1195.8</ele>
        <time>2022-09-18T03:33:07Z</time>
      </trkpt>
      <trkpt lat="44.12706" lon="6.5919">
        <ele>1195.7</ele>
        <time>2022-09-18T03:33:08Z</time>
      </trkpt>
      <trkpt lat="44.12706" lon="6.5919">
        <ele>1195.7</ele>
        <time>2022-09-18T03:33:09Z</time>
      </trkpt>
      <trkpt lat="44.12706" lon="6.5919">
        <ele>1195.7</ele>
        <time>2022-09-18T03:33:10Z</time>
      </trkpt>
      <trkpt lat="44.12706" lon="6.59191">
        <ele>1195.7</ele>
        <time>2022-09-18T03:33:11Z</time>
      </trkpt>
      <trkpt lat="44.12707" lon="6.59192">
        <ele>1195.6</ele>
        <time>2022-09-18T03:33:12Z</time>
      </trkpt>
      <trkpt lat="44.12707" lon="6.59193">
        <ele>1195.3</ele>
        <time>2022-09-18T03:33:13Z</time>
      </trkpt>
      <trkpt lat="44.12709" lon="6.59197">
        <ele>1195</ele>
        <time>2022-09-18T03:33:14Z</time>
      </trkpt>
      <trkpt lat="44.12709" lon="6.59199">
        <ele>1194.8</ele>
        <time>2022-09-18T03:33:15Z</time>
      </trkpt>
      <trkpt lat="44.12714" lon="6.59201">
        <ele>1194.3</ele>
        <time>2022-09-18T03:33:16Z</time>
      </trkpt>
      <trkpt lat="44.12716" lon="6.59202">
        <ele>1194</ele>
        <time>2022-09-18T03:33:17Z</time>
      </trkpt>
      <trkpt lat="44.12721" lon="6.59202">
        <ele>1193.2</ele>
        <time>2022-09-18T03:33:18Z</time>
      </trkpt>
      <trkpt lat="44.12727" lon="6.59202">
        <ele>1192.3</ele>
        <time>2022-09-18T03:33:20Z</time>
      </trkpt>
      <trkpt lat="44.12736" lon="6.59203">
        <ele>1190.7</ele>
        <time>2022-09-18T03:33:21Z</time>
      </trkpt>
      <trkpt lat="44.12744" lon="6.59204">
        <ele>1189.4</ele>
        <time>2022-09-18T03:33:22Z</time>
      </trkpt>
      <trkpt lat="44.12757" lon="6.59211">
        <ele>1187.2</ele>
        <time>2022-09-18T03:33:24Z</time>
      </trkpt>
      <trkpt lat="44.12765" lon="6.59215">
        <ele>1186</ele>
        <time>2022-09-18T03:33:25Z</time>
      </trkpt>
      <trkpt lat="44.12772" lon="6.59218">
        <ele>1184.9</ele>
        <time>2022-09-18T03:33:26Z</time>
      </trkpt>
      <trkpt lat="44.12777" lon="6.5922">
        <ele>1184.1</ele>
        <time>2022-09-18T03:33:27Z</time>
      </trkpt>
      <trkpt lat="44.12783" lon="6.59223">
        <ele>1183.1</ele>
        <time>2022-09-18T03:33:28Z</time>
      </trkpt>
      <trkpt lat="44.12789" lon="6.59227">
        <ele>1181.8</ele>
        <time>2022-09-18T03:33:30Z</time>
      </trkpt>
      <trkpt lat="44.12792" lon="6.59229">
        <ele>1181</ele>
        <time>2022-09-18T03:33:31Z</time>
      </trkpt>
      <trkpt lat="44.12798" lon="6.59236">
        <ele>1179.3</ele>
        <time>2022-09-18T03:33:33Z</time>
      </trkpt>
      <trkpt lat="44.12801" lon="6.59241">
        <ele>1178.3</ele>
        <time>2022-09-18T03:33:35Z</time>
      </trkpt>
      <trkpt lat="44.12804" lon="6.59243">
        <ele>1177.5</ele>
        <time>2022-09-18T03:33:36Z</time>
      </trkpt>
      <trkpt lat="44.12808" lon="6.59244">
        <ele>1176.1</ele>
        <time>2022-09-18T03:33:38Z</time>
      </trkpt>
      <trkpt lat="44.12812" lon="6.59239">
        <ele>1175.5</ele>
        <time>2022-09-18T03:33:39Z</time>
      </trkpt>
      <trkpt lat="44.12817" lon="6.59236">
        <ele>1175.1</ele>
        <time>2022-09-18T03:33:40Z</time>
      </trkpt>
      <trkpt lat="44.12822" lon="6.5923">
        <ele>1174.5</ele>
        <time>2022-09-18T03:33:41Z</time>
      </trkpt>
      <trkpt lat="44.12826" lon="6.59223">
        <ele>1174.1</ele>
        <time>2022-09-18T03:33:42Z</time>
      </trkpt>
      <trkpt lat="44.12828" lon="6.59214">
        <ele>1173.8</ele>
        <time>2022-09-18T03:33:43Z</time>
      </trkpt>
      <trkpt lat="44.12828" lon="6.59206">
        <ele>1173.5</ele>
        <time>2022-09-18T03:33:44Z</time>
      </trkpt>
      <trkpt lat="44.12829" lon="6.59198">
        <ele>1173.3</ele>
        <time>2022-09-18T03:33:45Z</time>
      </trkpt>
      <trkpt lat="44.12831" lon="6.59193">
        <ele>1173.2</ele>
        <time>2022-09-18T03:33:46Z</time>
      </trkpt>
      <trkpt lat="44.12835" lon="6.59193">
        <ele>1173.1</ele>
        <time>2022-09-18T03:33:47Z</time>
      </trkpt>
      <trkpt lat="44.1284" lon="6.59193">
        <ele>1172.9</ele>
        <time>2022-09-18T03:33:48Z</time>
      </trkpt>
      <trkpt lat="44.12846" lon="6.59194">
        <ele>1172.7</ele>
        <time>2022-09-18T03:33:49Z</time>
      </trkpt>
      <trkpt lat="44.12852" lon="6.59197">
        <ele>1172.2</ele>
        <time>2022-09-18T03:33:50Z</time>
      </trkpt>
      <trkpt lat="44.12857" lon="6.59203">
        <ele>1172.2</ele>
        <time>2022-09-18T03:33:51Z</time>
      </trkpt>
      <trkpt lat="44.1286" lon="6.59211">
        <ele>1172.3</ele>
        <time>2022-09-18T03:33:52Z</time>
      </trkpt>
      <trkpt lat="44.1286" lon="6.5922">
        <ele>1172.5</ele>
        <time>2022-09-18T03:33:53Z</time>
      </trkpt>
      <trkpt lat="44.1286" lon="6.59229">
        <ele>1172.7</ele>
        <time>2022-09-18T03:33:54Z</time>
      </trkpt>
      <trkpt lat="44.1286" lon="6.59236">
        <ele>1173</ele>
        <time>2022-09-18T03:33:55Z</time>
      </trkpt>
      <trkpt lat="44.1286" lon="6.59243">
        <ele>1173.2</ele>
        <time>2022-09-18T03:33:56Z</time>
      </trkpt>
      <trkpt lat="44.1286" lon="6.59249">
        <ele>1173.4</ele>
        <time>2022-09-18T03:33:57Z</time>
      </trkpt>
      <trkpt lat="44.1286" lon="6.59253">
        <ele>1173.5</ele>
        <time>2022-09-18T03:33:58Z</time>
      </trkpt>
      <trkpt lat="44.12861" lon="6.59257">
        <ele>1173.7</ele>
        <time>2022-09-18T03:33:59Z</time>
      </trkpt>
      <trkpt lat="44.12862" lon="6.59261">
        <ele>1173.8</ele>
        <time>2022-09-18T03:34:00Z</time>
      </trkpt>
      <trkpt lat="44.12864" lon="6.59264">
        <ele>1173.9</ele>
        <time>2022-09-18T03:34:01Z</time>
      </trkpt>
      <trkpt lat="44.12867" lon="6.59265">
        <ele>1174</ele>
        <time>2022-09-18T03:34:02Z</time>
      </trkpt>
      <trkpt lat="44.12872" lon="6.59263">
        <ele>1173.9</ele>
        <time>2022-09-18T03:34:03Z</time>
      </trkpt>
      <trkpt lat="44.12878" lon="6.59261">
        <ele>1173.7</ele>
        <time>2022-09-18T03:34:04Z</time>
      </trkpt>
      <trkpt lat="44.12881" lon="6.59259">
        <ele>1173.4</ele>
        <time>2022-09-18T03:34:06Z</time>
      </trkpt>
      <trkpt lat="44.12885" lon="6.59257">
        <ele>1173.1</ele>
        <time>2022-09-18T03:34:07Z</time>
      </trkpt>
      <trkpt lat="44.12888" lon="6.59254">
        <ele>1172.7</ele>
        <time>2022-09-18T03:34:08Z</time>
      </trkpt>
      <trkpt lat="44.12895" lon="6.59247">
        <ele>1172</ele>
        <time>2022-09-18T03:34:10Z</time>
      </trkpt>
      <trkpt lat="44.12898" lon="6.59242">
        <ele>1171.6</ele>
        <time>2022-09-18T03:34:11Z</time>
      </trkpt>
      <trkpt lat="44.12902" lon="6.59237">
        <ele>1171.3</ele>
        <time>2022-09-18T03:34:12Z</time>
      </trkpt>
      <trkpt lat="44.12906" lon="6.59231">
        <ele>1171</ele>
        <time>2022-09-18T03:34:13Z</time>
      </trkpt>
      <trkpt lat="44.1291" lon="6.59226">
        <ele>1170.8</ele>
        <time>2022-09-18T03:34:14Z</time>
      </trkpt>
      <trkpt lat="44.12914" lon="6.5922">
        <ele>1170.7</ele>
        <time>2022-09-18T03:34:15Z</time>
      </trkpt>
      <trkpt lat="44.12918" lon="6.59215">
        <ele>1170.8</ele>
        <time>2022-09-18T03:34:16Z</time>
      </trkpt>
      <trkpt lat="44.12922" lon="6.5921">
        <ele>1171</ele>
        <time>2022-09-18T03:34:17Z</time>
      </trkpt>
      <trkpt lat="44.12927" lon="6.59202">
        <ele>1171.5</ele>
        <time>2022-09-18T03:34:18Z</time>
      </trkpt>
      <trkpt lat="44.12929" lon="6.59197">
        <ele>1171.9</ele>
        <time>2022-09-18T03:34:20Z</time>
      </trkpt>
      <trkpt lat="44.12934" lon="6.59189">
        <ele>1172.6</ele>
        <time>2022-09-18T03:34:21Z</time>
      </trkpt>
      <trkpt lat="44.12937" lon="6.59183">
        <ele>1173.1</ele>
        <time>2022-09-18T03:34:23Z</time>
      </trkpt>
      <trkpt lat="44.12941" lon="6.59178">
        <ele>1173.6</ele>
        <time>2022-09-18T03:34:25Z</time>
      </trkpt>
      <trkpt lat="44.12943" lon="6.59174">
        <ele>1173.9</ele>
        <time>2022-09-18T03:34:26Z</time>
      </trkpt>
      <trkpt lat="44.12945" lon="6.5917">
        <ele>1174.3</ele>
        <time>2022-09-18T03:34:27Z</time>
      </trkpt>
      <trkpt lat="44.12947" lon="6.59167">
        <ele>1174.5</ele>
        <time>2022-09-18T03:34:28Z</time>
      </trkpt>
      <trkpt lat="44.12952" lon="6.59166">
        <ele>1174.9</ele>
        <time>2022-09-18T03:34:29Z</time>
      </trkpt>
      <trkpt lat="44.12954" lon="6.5917">
        <ele>1174.9</ele>
        <time>2022-09-18T03:34:30Z</time>
      </trkpt>
      <trkpt lat="44.12955" lon="6.59176">
        <ele>1175.3</ele>
        <time>2022-09-18T03:34:31Z</time>
      </trkpt>
      <trkpt lat="44.12954" lon="6.59182">
        <ele>1175.6</ele>
        <time>2022-09-18T03:34:32Z</time>
      </trkpt>
      <trkpt lat="44.12951" lon="6.59189">
        <ele>1175.9</ele>
        <time>2022-09-18T03:34:34Z</time>
      </trkpt>
      <trkpt lat="44.1295" lon="6.59195">
        <ele>1176.2</ele>
        <time>2022-09-18T03:34:35Z</time>
      </trkpt>
      <trkpt lat="44.12953" lon="6.59201">
        <ele>1176.4</ele>
        <time>2022-09-18T03:34:36Z</time>
      </trkpt>
      <trkpt lat="44.12957" lon="6.59204">
        <ele>1176.6</ele>
        <time>2022-09-18T03:34:37Z</time>
      </trkpt>
      <trkpt lat="44.12961" lon="6.59207">
        <ele>1176.7</ele>
        <time>2022-09-18T03:34:38Z</time>
      </trkpt>
      <trkpt lat="44.12964" lon="6.59209">
        <ele>1176.8</ele>
        <time>2022-09-18T03:34:39Z</time>
      </trkpt>
      <trkpt lat="44.12973" lon="6.59213">
        <ele>1177.1</ele>
        <time>2022-09-18T03:34:40Z</time>
      </trkpt>
      <trkpt lat="44.12978" lon="6.59215">
        <ele>1177.2</ele>
        <time>2022-09-18T03:34:42Z</time>
      </trkpt>
      <trkpt lat="44.12982" lon="6.59218">
        <ele>1177.3</ele>
        <time>2022-09-18T03:34:43Z</time>
      </trkpt>
      <trkpt lat="44.12986" lon="6.59221">
        <ele>1177.4</ele>
        <time>2022-09-18T03:34:44Z</time>
      </trkpt>
      <trkpt lat="44.1299" lon="6.59224">
        <ele>1177.5</ele>
        <time>2022-09-18T03:34:45Z</time>
      </trkpt>
      <trkpt lat="44.12995" lon="6.59229">
        <ele>1177.5</ele>
        <time>2022-09-18T03:34:47Z</time>
      </trkpt>
      <trkpt lat="44.12998" lon="6.59231">
        <ele>1177.5</ele>
        <time>2022-09-18T03:34:48Z</time>
      </trkpt>
      <trkpt lat="44.13002" lon="6.59234">
        <ele>1177.4</ele>
        <time>2022-09-18T03:34:49Z</time>
      </trkpt>
      <trkpt lat="44.13005" lon="6.59236">
        <ele>1177.3</ele>
        <time>2022-09-18T03:34:50Z</time>
      </trkpt>
      <trkpt lat="44.13008" lon="6.59238">
        <ele>1177.2</ele>
        <time>2022-09-18T03:34:51Z</time>
      </trkpt>
      <trkpt lat="44.13011" lon="6.59239">
        <ele>1177.1</ele>
        <time>2022-09-18T03:34:52Z</time>
      </trkpt>
      <trkpt lat="44.13015" lon="6.59241">
        <ele>1176.9</ele>
        <time>2022-09-18T03:34:54Z</time>
      </trkpt>
      <trkpt lat="44.13018" lon="6.59243">
        <ele>1176.7</ele>
        <time>2022-09-18T03:34:56Z</time>
      </trkpt>
      <trkpt lat="44.13019" lon="6.59243">
        <ele>1176.7</ele>
        <time>2022-09-18T03:34:57Z</time>
      </trkpt>
      <trkpt lat="44.13018" lon="6.59243">
        <ele>1176.7</ele>
        <time>2022-09-18T03:34:58Z</time>
      </trkpt>
      <trkpt lat="44.13019" lon="6.59242">
        <ele>1176.6</ele>
        <time>2022-09-18T03:34:59Z</time>
      </trkpt>
      <trkpt lat="44.13019" lon="6.59242">
        <ele>1176.6</ele>
        <time>2022-09-18T03:35:00Z</time>
      </trkpt>
      <trkpt lat="44.13021" lon="6.59242">
        <ele>1176.5</ele>
        <time>2022-09-18T03:35:01Z</time>
      </trkpt>
      <trkpt lat="44.13024" lon="6.59243">
        <ele>1176.3</ele>
        <time>2022-09-18T03:35:03Z</time>
      </trkpt>
      <trkpt lat="44.1303" lon="6.59245">
        <ele>1176</ele>
        <time>2022-09-18T03:35:04Z</time>
      </trkpt>
      <trkpt lat="44.13035" lon="6.59246">
        <ele>1175.6</ele>
        <time>2022-09-18T03:35:05Z</time>
      </trkpt>
      <trkpt lat="44.13041" lon="6.59247">
        <ele>1175.3</ele>
        <time>2022-09-18T03:35:06Z</time>
      </trkpt>
      <trkpt lat="44.13047" lon="6.59248">
        <ele>1174.9</ele>
        <time>2022-09-18T03:35:07Z</time>
      </trkpt>
      <trkpt lat="44.13053" lon="6.59249">
        <ele>1174.5</ele>
        <time>2022-09-18T03:35:08Z</time>
      </trkpt>
      <trkpt lat="44.13059" lon="6.5925">
        <ele>1174.1</ele>
        <time>2022-09-18T03:35:09Z</time>
      </trkpt>
      <trkpt lat="44.13063" lon="6.5925">
        <ele>1173.8</ele>
        <time>2022-09-18T03:35:10Z</time>
      </trkpt>
      <trkpt lat="44.13067" lon="6.59247">
        <ele>1173.4</ele>
        <time>2022-09-18T03:35:11Z</time>
      </trkpt>
      <trkpt lat="44.13071" lon="6.59243">
        <ele>1173.1</ele>
        <time>2022-09-18T03:35:12Z</time>
      </trkpt>
      <trkpt lat="44.13078" lon="6.59244">
        <ele>1172.5</ele>
        <time>2022-09-18T03:35:13Z</time>
      </trkpt>
      <trkpt lat="44.13084" lon="6.59242">
        <ele>1172</ele>
        <time>2022-09-18T03:35:14Z</time>
      </trkpt>
      <trkpt lat="44.1309" lon="6.59239">
        <ele>1171.5</ele>
        <time>2022-09-18T03:35:15Z</time>
      </trkpt>
      <trkpt lat="44.13097" lon="6.59238">
        <ele>1171</ele>
        <time>2022-09-18T03:35:16Z</time>
      </trkpt>
      <trkpt lat="44.13103" lon="6.59237">
        <ele>1170.4</ele>
        <time>2022-09-18T03:35:17Z</time>
      </trkpt>
      <trkpt lat="44.1311" lon="6.59237">
        <ele>1169.8</ele>
        <time>2022-09-18T03:35:18Z</time>
      </trkpt>
      <trkpt lat="44.13117" lon="6.59237">
        <ele>1169.3</ele>
        <time>2022-09-18T03:35:19Z</time>
      </trkpt>
      <trkpt lat="44.13125" lon="6.59239">
        <ele>1168.7</ele>
        <time>2022-09-18T03:35:20Z</time>
      </trkpt>
      <trkpt lat="44.13132" lon="6.5924">
        <ele>1168.2</ele>
        <time>2022-09-18T03:35:21Z</time>
      </trkpt>
      <trkpt lat="44.1314" lon="6.5924">
        <ele>1167.7</ele>
        <time>2022-09-18T03:35:22Z</time>
      </trkpt>
      <trkpt lat="44.13147" lon="6.59239">
        <ele>1167.1</ele>
        <time>2022-09-18T03:35:23Z</time>
      </trkpt>
      <trkpt lat="44.13154" lon="6.59235">
        <ele>1166.5</ele>
        <time>2022-09-18T03:35:24Z</time>
      </trkpt>
      <trkpt lat="44.1316" lon="6.59229">
        <ele>1165.9</ele>
        <time>2022-09-18T03:35:25Z</time>
      </trkpt>
      <trkpt lat="44.13166" lon="6.59222">
        <ele>1165.3</ele>
        <time>2022-09-18T03:35:26Z</time>
      </trkpt>
      <trkpt lat="44.13172" lon="6.59214">
        <ele>1164.7</ele>
        <time>2022-09-18T03:35:27Z</time>
      </trkpt>
      <trkpt lat="44.13178" lon="6.59208">
        <ele>1164</ele>
        <time>2022-09-18T03:35:28Z</time>
      </trkpt>
      <trkpt lat="44.13185" lon="6.59201">
        <ele>1163.3</ele>
        <time>2022-09-18T03:35:29Z</time>
      </trkpt>
      <trkpt lat="44.13192" lon="6.59196">
        <ele>1162.5</ele>
        <time>2022-09-18T03:35:30Z</time>
      </trkpt>
      <trkpt lat="44.13201" lon="6.59192">
        <ele>1161.6</ele>
        <time>2022-09-18T03:35:31Z</time>
      </trkpt>
      <trkpt lat="44.13209" lon="6.59188">
        <ele>1160.7</ele>
        <time>2022-09-18T03:35:32Z</time>
      </trkpt>
      <trkpt lat="44.13218" lon="6.59184">
        <ele>1159.9</ele>
        <time>2022-09-18T03:35:33Z</time>
      </trkpt>
      <trkpt lat="44.13226" lon="6.5918">
        <ele>1159.1</ele>
        <time>2022-09-18T03:35:34Z</time>
      </trkpt>
      <trkpt lat="44.13233" lon="6.59177">
        <ele>1158.4</ele>
        <time>2022-09-18T03:35:35Z</time>
      </trkpt>
      <trkpt lat="44.13242" lon="6.59173">
        <ele>1157.8</ele>
        <time>2022-09-18T03:35:36Z</time>
      </trkpt>
      <trkpt lat="44.13252" lon="6.5917">
        <ele>1157.1</ele>
        <time>2022-09-18T03:35:37Z</time>
      </trkpt>
      <trkpt lat="44.13261" lon="6.59168">
        <ele>1156.4</ele>
        <time>2022-09-18T03:35:38Z</time>
      </trkpt>
      <trkpt lat="44.1327" lon="6.59165">
        <ele>1155.8</ele>
        <time>2022-09-18T03:35:39Z</time>
      </trkpt>
      <trkpt lat="44.13278" lon="6.59165">
        <ele>1155.2</ele>
        <time>2022-09-18T03:35:40Z</time>
      </trkpt>
      <trkpt lat="44.13287" lon="6.59166">
        <ele>1154.8</ele>
        <time>2022-09-18T03:35:41Z</time>
      </trkpt>
      <trkpt lat="44.13295" lon="6.59167">
        <ele>1154.3</ele>
        <time>2022-09-18T03:35:42Z</time>
      </trkpt>
      <trkpt lat="44.13304" lon="6.59168">
        <ele>1153.9</ele>
        <time>2022-09-18T03:35:43Z</time>
      </trkpt>
      <trkpt lat="44.13312" lon="6.5917">
        <ele>1153.5</ele>
        <time>2022-09-18T03:35:44Z</time>
      </trkpt>
      <trkpt lat="44.1332" lon="6.59171">
        <ele>1153</ele>
        <time>2022-09-18T03:35:45Z</time>
      </trkpt>
      <trkpt lat="44.13328" lon="6.59172">
        <ele>1152.5</ele>
        <time>2022-09-18T03:35:46Z</time>
      </trkpt>
      <trkpt lat="44.13336" lon="6.59173">
        <ele>1152.1</ele>
        <time>2022-09-18T03:35:47Z</time>
      </trkpt>
      <trkpt lat="44.13343" lon="6.59173">
        <ele>1151.8</ele>
        <time>2022-09-18T03:35:48Z</time>
      </trkpt>
      <trkpt lat="44.1335" lon="6.59173">
        <ele>1151.5</ele>
        <time>2022-09-18T03:35:49Z</time>
      </trkpt>
      <trkpt lat="44.13358" lon="6.59172">
        <ele>1151.3</ele>
        <time>2022-09-18T03:35:50Z</time>
      </trkpt>
      <trkpt lat="44.13366" lon="6.59171">
        <ele>1151</ele>
        <time>2022-09-18T03:35:51Z</time>
      </trkpt>
      <trkpt lat="44.13374" lon="6.59169">
        <ele>1150.8</ele>
        <time>2022-09-18T03:35:52Z</time>
      </trkpt>
      <trkpt lat="44.13381" lon="6.59166">
        <ele>1150.6</ele>
        <time>2022-09-18T03:35:53Z</time>
      </trkpt>
      <trkpt lat="44.13387" lon="6.59163">
        <ele>1150.5</ele>
        <time>2022-09-18T03:35:54Z</time>
      </trkpt>
      <trkpt lat="44.13393" lon="6.59161">
        <ele>1150.3</ele>
        <time>2022-09-18T03:35:55Z</time>
      </trkpt>
      <trkpt lat="44.13398" lon="6.59159">
        <ele>1150.2</ele>
        <time>2022-09-18T03:35:56Z</time>
      </trkpt>
      <trkpt lat="44.13403" lon="6.5916">
        <ele>1150.2</ele>
        <time>2022-09-18T03:35:57Z</time>
      </trkpt>
      <trkpt lat="44.13407" lon="6.59161">
        <ele>1150.2</ele>
        <time>2022-09-18T03:35:58Z</time>
      </trkpt>
      <trkpt lat="44.13412" lon="6.59163">
        <ele>1150.3</ele>
        <time>2022-09-18T03:35:59Z</time>
      </trkpt>
      <trkpt lat="44.13416" lon="6.59165">
        <ele>1150.3</ele>
        <time>2022-09-18T03:36:00Z</time>
      </trkpt>
      <trkpt lat="44.13419" lon="6.59167">
        <ele>1150.4</ele>
        <time>2022-09-18T03:36:01Z</time>
      </trkpt>
      <trkpt lat="44.13423" lon="6.59169">
        <ele>1150.5</ele>
        <time>2022-09-18T03:36:02Z</time>
      </trkpt>
      <trkpt lat="44.13429" lon="6.59173">
        <ele>1150.7</ele>
        <time>2022-09-18T03:36:03Z</time>
      </trkpt>
      <trkpt lat="44.13437" lon="6.59173">
        <ele>1151</ele>
        <time>2022-09-18T03:36:04Z</time>
      </trkpt>
      <trkpt lat="44.13439" lon="6.59173">
        <ele>1151.1</ele>
        <time>2022-09-18T03:36:05Z</time>
      </trkpt>
      <trkpt lat="44.13441" lon="6.59174">
        <ele>1151.2</ele>
        <time>2022-09-18T03:36:06Z</time>
      </trkpt>
      <trkpt lat="44.13444" lon="6.59176">
        <ele>1151.4</ele>
        <time>2022-09-18T03:36:07Z</time>
      </trkpt>
      <trkpt lat="44.13447" lon="6.59177">
        <ele>1151.5</ele>
        <time>2022-09-18T03:36:08Z</time>
      </trkpt>
      <trkpt lat="44.1345" lon="6.59178">
        <ele>1151.7</ele>
        <time>2022-09-18T03:36:09Z</time>
      </trkpt>
      <trkpt lat="44.13454" lon="6.59179">
        <ele>1152</ele>
        <time>2022-09-18T03:36:10Z</time>
      </trkpt>
      <trkpt lat="44.13455" lon="6.59179">
        <ele>1152.1</ele>
        <time>2022-09-18T03:36:11Z</time>
      </trkpt>
      <trkpt lat="44.13459" lon="6.59179">
        <ele>1152.3</ele>
        <time>2022-09-18T03:36:13Z</time>
      </trkpt>
      <trkpt lat="44.13463" lon="6.59179">
        <ele>1152.6</ele>
        <time>2022-09-18T03:36:14Z</time>
      </trkpt>
      <trkpt lat="44.13467" lon="6.59178">
        <ele>1153</ele>
        <time>2022-09-18T03:36:15Z</time>
      </trkpt>
      <trkpt lat="44.13471" lon="6.59178">
        <ele>1153.4</ele>
        <time>2022-09-18T03:36:16Z</time>
      </trkpt>
      <trkpt lat="44.13474" lon="6.59177">
        <ele>1153.7</ele>
        <time>2022-09-18T03:36:17Z</time>
      </trkpt>
      <trkpt lat="44.13478" lon="6.59176">
        <ele>1154.2</ele>
        <time>2022-09-18T03:36:18Z</time>
      </trkpt>
      <trkpt lat="44.13483" lon="6.59176">
        <ele>1154.7</ele>
        <time>2022-09-18T03:36:20Z</time>
      </trkpt>
      <trkpt lat="44.13486" lon="6.59177">
        <ele>1155.1</ele>
        <time>2022-09-18T03:36:21Z</time>
      </trkpt>
      <trkpt lat="44.1349" lon="6.59178">
        <ele>1155.4</ele>
        <time>2022-09-18T03:36:22Z</time>
      </trkpt>
      <trkpt lat="44.13494" lon="6.59179">
        <ele>1155.8</ele>
        <time>2022-09-18T03:36:23Z</time>
      </trkpt>
      <trkpt lat="44.13499" lon="6.5918">
        <ele>1156.2</ele>
        <time>2022-09-18T03:36:24Z</time>
      </trkpt>
      <trkpt lat="44.13503" lon="6.59182">
        <ele>1156.5</ele>
        <time>2022-09-18T03:36:25Z</time>
      </trkpt>
      <trkpt lat="44.13507" lon="6.59184">
        <ele>1156.7</ele>
        <time>2022-09-18T03:36:26Z</time>
      </trkpt>
      <trkpt lat="44.13511" lon="6.59188">
        <ele>1157</ele>
        <time>2022-09-18T03:36:27Z</time>
      </trkpt>
      <trkpt lat="44.13517" lon="6.59195">
        <ele>1157.4</ele>
        <time>2022-09-18T03:36:29Z</time>
      </trkpt>
      <trkpt lat="44.13521" lon="6.592">
        <ele>1157.6</ele>
        <time>2022-09-18T03:36:31Z</time>
      </trkpt>
      <trkpt lat="44.13526" lon="6.59206">
        <ele>1157.9</ele>
        <time>2022-09-18T03:36:32Z</time>
      </trkpt>
      <trkpt lat="44.13531" lon="6.59212">
        <ele>1158.3</ele>
        <time>2022-09-18T03:36:33Z</time>
      </trkpt>
      <trkpt lat="44.13535" lon="6.59216">
        <ele>1158.5</ele>
        <time>2022-09-18T03:36:34Z</time>
      </trkpt>
      <trkpt lat="44.13545" lon="6.59223">
        <ele>1159</ele>
        <time>2022-09-18T03:36:36Z</time>
      </trkpt>
      <trkpt lat="44.13548" lon="6.59227">
        <ele>1159.1</ele>
        <time>2022-09-18T03:36:37Z</time>
      </trkpt>
      <trkpt lat="44.13552" lon="6.59228">
        <ele>1159.2</ele>
        <time>2022-09-18T03:36:38Z</time>
      </trkpt>
      <trkpt lat="44.13563" lon="6.59233">
        <ele>1159.5</ele>
        <time>2022-09-18T03:36:39Z</time>
      </trkpt>
      <trkpt lat="44.13569" lon="6.59236">
        <ele>1159.7</ele>
        <time>2022-09-18T03:36:40Z</time>
      </trkpt>
      <trkpt lat="44.13574" lon="6.59239">
        <ele>1159.9</ele>
        <time>2022-09-18T03:36:41Z</time>
      </trkpt>
      <trkpt lat="44.13577" lon="6.59237">
        <ele>1160</ele>
        <time>2022-09-18T03:36:42Z</time>
      </trkpt>
      <trkpt lat="44.13582" lon="6.59241">
        <ele>1160.3</ele>
        <time>2022-09-18T03:36:43Z</time>
      </trkpt>
      <trkpt lat="44.13586" lon="6.59246">
        <ele>1160.7</ele>
        <time>2022-09-18T03:36:44Z</time>
      </trkpt>
      <trkpt lat="44.13588" lon="6.59253">
        <ele>1161.3</ele>
        <time>2022-09-18T03:36:45Z</time>
      </trkpt>
      <trkpt lat="44.13589" lon="6.59258">
        <ele>1161.9</ele>
        <time>2022-09-18T03:36:46Z</time>
      </trkpt>
      <trkpt lat="44.13591" lon="6.59268">
        <ele>1163.2</ele>
        <time>2022-09-18T03:36:47Z</time>
      </trkpt>
      <trkpt lat="44.13593" lon="6.59271">
        <ele>1163.8</ele>
        <time>2022-09-18T03:36:48Z</time>
      </trkpt>
      <trkpt lat="44.13595" lon="6.59275">
        <ele>1164.7</ele>
        <time>2022-09-18T03:36:50Z</time>
      </trkpt>
      <trkpt lat="44.13598" lon="6.59278">
        <ele>1165.5</ele>
        <time>2022-09-18T03:36:51Z</time>
      </trkpt>
      <trkpt lat="44.13599" lon="6.59279">
        <ele>1165.8</ele>
        <time>2022-09-18T03:36:52Z</time>
      </trkpt>
      <trkpt lat="44.13601" lon="6.59284">
        <ele>1166.8</ele>
        <time>2022-09-18T03:36:54Z</time>
      </trkpt>
      <trkpt lat="44.13601" lon="6.59286">
        <ele>1167.1</ele>
        <time>2022-09-18T03:36:55Z</time>
      </trkpt>
      <trkpt lat="44.13602" lon="6.59288">
        <ele>1167.5</ele>
        <time>2022-09-18T03:36:56Z</time>
      </trkpt>
      <trkpt lat="44.13602" lon="6.59291">
        <ele>1168</ele>
        <time>2022-09-18T03:36:57Z</time>
      </trkpt>
      <trkpt lat="44.13604" lon="6.59297">
        <ele>1168.6</ele>
        <time>2022-09-18T03:36:59Z</time>
      </trkpt>
      <trkpt lat="44.13604" lon="6.59298">
        <ele>1168.7</ele>
        <time>2022-09-18T03:37:00Z</time>
      </trkpt>
      <trkpt lat="44.13605" lon="6.593">
        <ele>1168.8</ele>
        <time>2022-09-18T03:37:01Z</time>
      </trkpt>
      <trkpt lat="44.13607" lon="6.59301">
        <ele>1169</ele>
        <time>2022-09-18T03:37:02Z</time>
      </trkpt>
      <trkpt lat="44.13608" lon="6.59302">
        <ele>1169.1</ele>
        <time>2022-09-18T03:37:03Z</time>
      </trkpt>
      <trkpt lat="44.13609" lon="6.59303">
        <ele>1169.1</ele>
        <time>2022-09-18T03:37:05Z</time>
      </trkpt>
      <trkpt lat="44.13609" lon="6.59304">
        <ele>1169.2</ele>
        <time>2022-09-18T03:37:06Z</time>
      </trkpt>
      <trkpt lat="44.1361" lon="6.59305">
        <ele>1169.2</ele>
        <time>2022-09-18T03:37:07Z</time>
      </trkpt>
      <trkpt lat="44.13611" lon="6.59306">
        <ele>1169.2</ele>
        <time>2022-09-18T03:37:08Z</time>
      </trkpt>
      <trkpt lat="44.13611" lon="6.59307">
        <ele>1169.2</ele>
        <time>2022-09-18T03:37:09Z</time>
      </trkpt>
      <trkpt lat="44.13612" lon="6.59308">
        <ele>1169.1</ele>
        <time>2022-09-18T03:37:10Z</time>
      </trkpt>
      <trkpt lat="44.13613" lon="6.59309">
        <ele>1169.1</ele>
        <time>2022-09-18T03:37:11Z</time>
      </trkpt>
      <trkpt lat="44.13614" lon="6.5931">
        <ele>1169.1</ele>
        <time>2022-09-18T03:37:12Z</time>
      </trkpt>
      <trkpt lat="44.13614" lon="6.59311">
        <ele>1169</ele>
        <time>2022-09-18T03:38:29Z</time>
      </trkpt>
      <trkpt lat="44.13615" lon="6.59312">
        <ele>1168.9</ele>
        <time>2022-09-18T03:38:30Z</time>
      </trkpt>
      <trkpt lat="44.13616" lon="6.59313">
        <ele>1168.9</ele>
        <time>2022-09-18T03:38:31Z</time>
      </trkpt>
      <trkpt lat="44.13619" lon="6.59315">
        <ele>1168.6</ele>
        <time>2022-09-18T03:38:32Z</time>
      </trkpt>
      <trkpt lat="44.13624" lon="6.59318">
        <ele>1168</ele>
        <time>2022-09-18T03:38:34Z</time>
      </trkpt>
      <trkpt lat="44.1363" lon="6.59324">
        <ele>1167.3</ele>
        <time>2022-09-18T03:38:35Z</time>
      </trkpt>
      <trkpt lat="44.13634" lon="6.59328">
        <ele>1166.8</ele>
        <time>2022-09-18T03:38:37Z</time>
      </trkpt>
      <trkpt lat="44.13638" lon="6.5933">
        <ele>1166.4</ele>
        <time>2022-09-18T03:38:38Z</time>
      </trkpt>
      <trkpt lat="44.13642" lon="6.59332">
        <ele>1165.9</ele>
        <time>2022-09-18T03:38:40Z</time>
      </trkpt>
      <trkpt lat="44.13645" lon="6.5933">
        <ele>1165.5</ele>
        <time>2022-09-18T03:38:41Z</time>
      </trkpt>
      <trkpt lat="44.13652" lon="6.59328">
        <ele>1164.5</ele>
        <time>2022-09-18T03:38:42Z</time>
      </trkpt>
      <trkpt lat="44.13654" lon="6.59331">
        <ele>1164.1</ele>
        <time>2022-09-18T03:38:44Z</time>
      </trkpt>
      <trkpt lat="44.13655" lon="6.59335">
        <ele>1163.6</ele>
        <time>2022-09-18T03:38:45Z</time>
      </trkpt>
      <trkpt lat="44.13656" lon="6.59341">
        <ele>1163.1</ele>
        <time>2022-09-18T03:38:46Z</time>
      </trkpt>
      <trkpt lat="44.13655" lon="6.59353">
        <ele>1162.2</ele>
        <time>2022-09-18T03:38:47Z</time>
      </trkpt>
      <trkpt lat="44.13655" lon="6.5936">
        <ele>1161.8</ele>
        <time>2022-09-18T03:38:49Z</time>
      </trkpt>
      <trkpt lat="44.13657" lon="6.59367">
        <ele>1161.5</ele>
        <time>2022-09-18T03:38:50Z</time>
      </trkpt>
      <trkpt lat="44.13658" lon="6.59372">
        <ele>1161.2</ele>
        <time>2022-09-18T03:38:51Z</time>
      </trkpt>
      <trkpt lat="44.13662" lon="6.59376">
        <ele>1160.9</ele>
        <time>2022-09-18T03:38:52Z</time>
      </trkpt>
      <trkpt lat="44.13668" lon="6.5938">
        <ele>1160.4</ele>
        <time>2022-09-18T03:38:53Z</time>
      </trkpt>
      <trkpt lat="44.13674" lon="6.59383">
        <ele>1160</ele>
        <time>2022-09-18T03:38:54Z</time>
      </trkpt>
      <trkpt lat="44.1368" lon="6.59386">
        <ele>1159.5</ele>
        <time>2022-09-18T03:38:55Z</time>
      </trkpt>
      <trkpt lat="44.13692" lon="6.59392">
        <ele>1158.9</ele>
        <time>2022-09-18T03:38:57Z</time>
      </trkpt>
      <trkpt lat="44.13699" lon="6.59397">
        <ele>1158.6</ele>
        <time>2022-09-18T03:38:58Z</time>
      </trkpt>
      <trkpt lat="44.13703" lon="6.594">
        <ele>1158.5</ele>
        <time>2022-09-18T03:38:59Z</time>
      </trkpt>
      <trkpt lat="44.13706" lon="6.59404">
        <ele>1158.5</ele>
        <time>2022-09-18T03:39:00Z</time>
      </trkpt>
      <trkpt lat="44.13719" lon="6.59416">
        <ele>1158.2</ele>
        <time>2022-09-18T03:39:02Z</time>
      </trkpt>
      <trkpt lat="44.13725" lon="6.59419">
        <ele>1158</ele>
        <time>2022-09-18T03:39:04Z</time>
      </trkpt>
      <trkpt lat="44.13735" lon="6.59423">
        <ele>1157.7</ele>
        <time>2022-09-18T03:39:05Z</time>
      </trkpt>
      <trkpt lat="44.13746" lon="6.59426">
        <ele>1157.4</ele>
        <time>2022-09-18T03:39:07Z</time>
      </trkpt>
      <trkpt lat="44.13753" lon="6.59429">
        <ele>1157.3</ele>
        <time>2022-09-18T03:39:08Z</time>
      </trkpt>
      <trkpt lat="44.13757" lon="6.59431">
        <ele>1157.3</ele>
        <time>2022-09-18T03:39:09Z</time>
      </trkpt>
      <trkpt lat="44.13761" lon="6.59432">
        <ele>1157.4</ele>
        <time>2022-09-18T03:39:10Z</time>
      </trkpt>
      <trkpt lat="44.13764" lon="6.59433">
        <ele>1157.4</ele>
        <time>2022-09-18T03:39:11Z</time>
      </trkpt>
      <trkpt lat="44.13771" lon="6.5944">
        <ele>1157.6</ele>
        <time>2022-09-18T03:39:12Z</time>
      </trkpt>
      <trkpt lat="44.13775" lon="6.59443">
        <ele>1157.7</ele>
        <time>2022-09-18T03:39:13Z</time>
      </trkpt>
      <trkpt lat="44.13778" lon="6.59445">
        <ele>1157.8</ele>
        <time>2022-09-18T03:39:14Z</time>
      </trkpt>
      <trkpt lat="44.13782" lon="6.59446">
        <ele>1157.9</ele>
        <time>2022-09-18T03:39:15Z</time>
      </trkpt>
      <trkpt lat="44.13787" lon="6.59451">
        <ele>1158.2</ele>
        <time>2022-09-18T03:39:16Z</time>
      </trkpt>
      <trkpt lat="44.13792" lon="6.59455">
        <ele>1158.4</ele>
        <time>2022-09-18T03:39:17Z</time>
      </trkpt>
      <trkpt lat="44.13796" lon="6.59461">
        <ele>1158.6</ele>
        <time>2022-09-18T03:39:18Z</time>
      </trkpt>
      <trkpt lat="44.13805" lon="6.5947">
        <ele>1159.2</ele>
        <time>2022-09-18T03:39:20Z</time>
      </trkpt>
      <trkpt lat="44.13809" lon="6.59473">
        <ele>1159.5</ele>
        <time>2022-09-18T03:39:21Z</time>
      </trkpt>
      <trkpt lat="44.13815" lon="6.59478">
        <ele>1159.9</ele>
        <time>2022-09-18T03:39:22Z</time>
      </trkpt>
      <trkpt lat="44.13818" lon="6.59481">
        <ele>1160.1</ele>
        <time>2022-09-18T03:39:23Z</time>
      </trkpt>
      <trkpt lat="44.13821" lon="6.59484">
        <ele>1160.3</ele>
        <time>2022-09-18T03:39:24Z</time>
      </trkpt>
      <trkpt lat="44.13823" lon="6.59489">
        <ele>1160.5</ele>
        <time>2022-09-18T03:39:25Z</time>
      </trkpt>
      <trkpt lat="44.13825" lon="6.59494">
        <ele>1160.7</ele>
        <time>2022-09-18T03:39:27Z</time>
      </trkpt>
      <trkpt lat="44.13834" lon="6.59499">
        <ele>1161.2</ele>
        <time>2022-09-18T03:39:28Z</time>
      </trkpt>
      <trkpt lat="44.13841" lon="6.59502">
        <ele>1161.7</ele>
        <time>2022-09-18T03:39:29Z</time>
      </trkpt>
      <trkpt lat="44.13845" lon="6.59505">
        <ele>1162</ele>
        <time>2022-09-18T03:39:30Z</time>
      </trkpt>
      <trkpt lat="44.1385" lon="6.59505">
        <ele>1162.4</ele>
        <time>2022-09-18T03:39:31Z</time>
      </trkpt>
      <trkpt lat="44.13852" lon="6.59509">
        <ele>1162.6</ele>
        <time>2022-09-18T03:39:33Z</time>
      </trkpt>
      <trkpt lat="44.13854" lon="6.59513">
        <ele>1162.9</ele>
        <time>2022-09-18T03:39:34Z</time>
      </trkpt>
      <trkpt lat="44.13856" lon="6.59517">
        <ele>1163.1</ele>
        <time>2022-09-18T03:39:35Z</time>
      </trkpt>
      <trkpt lat="44.13859" lon="6.59521">
        <ele>1163.3</ele>
        <time>2022-09-18T03:39:36Z</time>
      </trkpt>
      <trkpt lat="44.13861" lon="6.59524">
        <ele>1163.5</ele>
        <time>2022-09-18T03:39:38Z</time>
      </trkpt>
      <trkpt lat="44.13865" lon="6.59526">
        <ele>1163.7</ele>
        <time>2022-09-18T03:39:39Z</time>
      </trkpt>
      <trkpt lat="44.13871" lon="6.59529">
        <ele>1163.7</ele>
        <time>2022-09-18T03:39:40Z</time>
      </trkpt>
      <trkpt lat="44.13878" lon="6.59532">
        <ele>1163.6</ele>
        <time>2022-09-18T03:39:41Z</time>
      </trkpt>
      <trkpt lat="44.13884" lon="6.59535">
        <ele>1163.5</ele>
        <time>2022-09-18T03:39:43Z</time>
      </trkpt>
      <trkpt lat="44.13889" lon="6.59537">
        <ele>1163.4</ele>
        <time>2022-09-18T03:39:44Z</time>
      </trkpt>
      <trkpt lat="44.13892" lon="6.59539">
        <ele>1163.3</ele>
        <time>2022-09-18T03:39:45Z</time>
      </trkpt>
      <trkpt lat="44.13895" lon="6.59541">
        <ele>1163.1</ele>
        <time>2022-09-18T03:39:46Z</time>
      </trkpt>
      <trkpt lat="44.13897" lon="6.59541">
        <ele>1163</ele>
        <time>2022-09-18T03:39:47Z</time>
      </trkpt>
      <trkpt lat="44.13903" lon="6.59542">
        <ele>1162.6</ele>
        <time>2022-09-18T03:39:49Z</time>
      </trkpt>
      <trkpt lat="44.13906" lon="6.59542">
        <ele>1162.4</ele>
        <time>2022-09-18T03:39:50Z</time>
      </trkpt>
      <trkpt lat="44.1391" lon="6.59543">
        <ele>1162.2</ele>
        <time>2022-09-18T03:39:51Z</time>
      </trkpt>
      <trkpt lat="44.13913" lon="6.59543">
        <ele>1161.9</ele>
        <time>2022-09-18T03:39:52Z</time>
      </trkpt>
      <trkpt lat="44.13916" lon="6.59544">
        <ele>1161.7</ele>
        <time>2022-09-18T03:39:53Z</time>
      </trkpt>
      <trkpt lat="44.1392" lon="6.59545">
        <ele>1161.3</ele>
        <time>2022-09-18T03:39:54Z</time>
      </trkpt>
      <trkpt lat="44.13923" lon="6.59546">
        <ele>1161.1</ele>
        <time>2022-09-18T03:39:55Z</time>
      </trkpt>
      <trkpt lat="44.13927" lon="6.59545">
        <ele>1160.9</ele>
        <time>2022-09-18T03:39:56Z</time>
      </trkpt>
      <trkpt lat="44.13929" lon="6.59545">
        <ele>1160.6</ele>
        <time>2022-09-18T03:39:57Z</time>
      </trkpt>
      <trkpt lat="44.13933" lon="6.59546">
        <ele>1160.4</ele>
        <time>2022-09-18T03:39:58Z</time>
      </trkpt>
      <trkpt lat="44.13936" lon="6.59546">
        <ele>1160.1</ele>
        <time>2022-09-18T03:39:59Z</time>
      </trkpt>
      <trkpt lat="44.13939" lon="6.59547">
        <ele>1159.8</ele>
        <time>2022-09-18T03:40:00Z</time>
      </trkpt>
      <trkpt lat="44.13943" lon="6.59549">
        <ele>1159.5</ele>
        <time>2022-09-18T03:40:01Z</time>
      </trkpt>
      <trkpt lat="44.13947" lon="6.59551">
        <ele>1159.2</ele>
        <time>2022-09-18T03:40:02Z</time>
      </trkpt>
      <trkpt lat="44.13951" lon="6.59553">
        <ele>1158.9</ele>
        <time>2022-09-18T03:40:03Z</time>
      </trkpt>
      <trkpt lat="44.13956" lon="6.59554">
        <ele>1158.6</ele>
        <time>2022-09-18T03:40:04Z</time>
      </trkpt>
      <trkpt lat="44.1396" lon="6.59554">
        <ele>1158.4</ele>
        <time>2022-09-18T03:40:05Z</time>
      </trkpt>
      <trkpt lat="44.13964" lon="6.59554">
        <ele>1158.2</ele>
        <time>2022-09-18T03:40:06Z</time>
      </trkpt>
      <trkpt lat="44.13966" lon="6.59554">
        <ele>1158.1</ele>
        <time>2022-09-18T03:40:07Z</time>
      </trkpt>
      <trkpt lat="44.13966" lon="6.59554">
        <ele>1158.1</ele>
        <time>2022-09-18T03:40:08Z</time>
      </trkpt>
      <trkpt lat="44.13966" lon="6.59554">
        <ele>1158</ele>
        <time>2022-09-18T03:40:09Z</time>
      </trkpt>
      <trkpt lat="44.13966" lon="6.59554">
        <ele>1158</ele>
        <time>2022-09-18T03:40:10Z</time>
      </trkpt>
      <trkpt lat="44.13966" lon="6.59554">
        <ele>1158</ele>
        <time>2022-09-18T03:40:11Z</time>
      </trkpt>
      <trkpt lat="44.13967" lon="6.59554">
        <ele>1158</ele>
        <time>2022-09-18T03:40:12Z</time>
      </trkpt>
      <trkpt lat="44.13967" lon="6.59554">
        <ele>1158</ele>
        <time>2022-09-18T03:40:13Z</time>
      </trkpt>
      <trkpt lat="44.13967" lon="6.59554">
        <ele>1158</ele>
        <time>2022-09-18T03:40:14Z</time>
      </trkpt>
      <trkpt lat="44.13967" lon="6.59554">
        <ele>1158</ele>
        <time>2022-09-18T03:40:15Z</time>
      </trkpt>
      <trkpt lat="44.13967" lon="6.59554">
        <ele>1158</ele>
        <time>2022-09-18T03:40:16Z</time>
      </trkpt>
      <trkpt lat="44.13968" lon="6.59554">
        <ele>1158</ele>
        <time>2022-09-18T03:40:17Z</time>
      </trkpt>
      <trkpt lat="44.13968" lon="6.59554">
        <ele>1158</ele>
        <time>2022-09-18T03:40:18Z</time>
      </trkpt>
      <trkpt lat="44.13968" lon="6.59554">
        <ele>1157.9</ele>
        <time>2022-09-18T03:40:19Z</time>
      </trkpt>
      <trkpt lat="44.13968" lon="6.59554">
        <ele>1157.9</ele>
        <time>2022-09-18T03:40:20Z</time>
      </trkpt>
      <trkpt lat="44.13968" lon="6.59554">
        <ele>1157.9</ele>
        <time>2022-09-18T03:40:21Z</time>
      </trkpt>
      <trkpt lat="44.13969" lon="6.59554">
        <ele>1157.9</ele>
        <time>2022-09-18T03:40:22Z</time>
      </trkpt>
      <trkpt lat="44.13969" lon="6.59554">
        <ele>1157.9</ele>
        <time>2022-09-18T03:40:23Z</time>
      </trkpt>
      <trkpt lat="44.13969" lon="6.59554">
        <ele>1157.9</ele>
        <time>2022-09-18T03:40:24Z</time>
      </trkpt>
      <trkpt lat="44.13973" lon="6.59554">
        <ele>1157.7</ele>
        <time>2022-09-18T03:40:25Z</time>
      </trkpt>
      <trkpt lat="44.13974" lon="6.59554">
        <ele>1157.7</ele>
        <time>2022-09-18T03:40:26Z</time>
      </trkpt>
      <trkpt lat="44.13978" lon="6.59554">
        <ele>1157.5</ele>
        <time>2022-09-18T03:40:27Z</time>
      </trkpt>
      <trkpt lat="44.13981" lon="6.59554">
        <ele>1157.4</ele>
        <time>2022-09-18T03:40:28Z</time>
      </trkpt>
      <trkpt lat="44.13984" lon="6.59554">
        <ele>1157.3</ele>
        <time>2022-09-18T03:40:29Z</time>
      </trkpt>
      <trkpt lat="44.13988" lon="6.59554">
        <ele>1157.1</ele>
        <time>2022-09-18T03:40:30Z</time>
      </trkpt>
      <trkpt lat="44.13992" lon="6.59554">
        <ele>1157</ele>
        <time>2022-09-18T03:40:31Z</time>
      </trkpt>
      <trkpt lat="44.13997" lon="6.59554">
        <ele>1156.8</ele>
        <time>2022-09-18T03:40:32Z</time>
      </trkpt>
      <trkpt lat="44.14002" lon="6.59554">
        <ele>1156.7</ele>
        <time>2022-09-18T03:40:33Z</time>
      </trkpt>
      <trkpt lat="44.14006" lon="6.59554">
        <ele>1156.6</ele>
        <time>2022-09-18T03:40:34Z</time>
      </trkpt>
      <trkpt lat="44.14011" lon="6.59554">
        <ele>1156.5</ele>
        <time>2022-09-18T03:40:35Z</time>
      </trkpt>
      <trkpt lat="44.14014" lon="6.59554">
        <ele>1156.4</ele>
        <time>2022-09-18T03:40:36Z</time>
      </trkpt>
      <trkpt lat="44.14018" lon="6.59554">
        <ele>1156.3</ele>
        <time>2022-09-18T03:40:37Z</time>
      </trkpt>
      <trkpt lat="44.14023" lon="6.59554">
        <ele>1156.2</ele>
        <time>2022-09-18T03:40:38Z</time>
      </trkpt>
      <trkpt lat="44.14027" lon="6.59553">
        <ele>1156.1</ele>
        <time>2022-09-18T03:40:39Z</time>
      </trkpt>
      <trkpt lat="44.14032" lon="6.59553">
        <ele>1156</ele>
        <time>2022-09-18T03:40:40Z</time>
      </trkpt>
      <trkpt lat="44.14037" lon="6.59553">
        <ele>1156</ele>
        <time>2022-09-18T03:40:41Z</time>
      </trkpt>
      <trkpt lat="44.14042" lon="6.59553">
        <ele>1155.9</ele>
        <time>2022-09-18T03:40:42Z</time>
      </trkpt>
      <trkpt lat="44.14047" lon="6.59552">
        <ele>1155.8</ele>
        <time>2022-09-18T03:40:43Z</time>
      </trkpt>
      <trkpt lat="44.14051" lon="6.59551">
        <ele>1155.7</ele>
        <time>2022-09-18T03:40:44Z</time>
      </trkpt>
      <trkpt lat="44.14056" lon="6.59551">
        <ele>1155.6</ele>
        <time>2022-09-18T03:40:45Z</time>
      </trkpt>
      <trkpt lat="44.14061" lon="6.5955">
        <ele>1155.5</ele>
        <time>2022-09-18T03:40:46Z</time>
      </trkpt>
      <trkpt lat="44.14067" lon="6.5955">
        <ele>1155.4</ele>
        <time>2022-09-18T03:40:47Z</time>
      </trkpt>
      <trkpt lat="44.14072" lon="6.5955">
        <ele>1155.3</ele>
        <time>2022-09-18T03:40:48Z</time>
      </trkpt>
      <trkpt lat="44.14078" lon="6.59549">
        <ele>1155.1</ele>
        <time>2022-09-18T03:40:49Z</time>
      </trkpt>
      <trkpt lat="44.14084" lon="6.5955">
        <ele>1155</ele>
        <time>2022-09-18T03:40:50Z</time>
      </trkpt>
      <trkpt lat="44.14091" lon="6.5955">
        <ele>1154.9</ele>
        <time>2022-09-18T03:40:51Z</time>
      </trkpt>
      <trkpt lat="44.14096" lon="6.59551">
        <ele>1154.8</ele>
        <time>2022-09-18T03:40:52Z</time>
      </trkpt>
      <trkpt lat="44.14102" lon="6.59552">
        <ele>1154.8</ele>
        <time>2022-09-18T03:40:53Z</time>
      </trkpt>
      <trkpt lat="44.14108" lon="6.59554">
        <ele>1154.7</ele>
        <time>2022-09-18T03:40:54Z</time>
      </trkpt>
      <trkpt lat="44.14113" lon="6.59556">
        <ele>1154.7</ele>
        <time>2022-09-18T03:40:55Z</time>
      </trkpt>
      <trkpt lat="44.14119" lon="6.59558">
        <ele>1154.7</ele>
        <time>2022-09-18T03:40:56Z</time>
      </trkpt>
      <trkpt lat="44.14124" lon="6.5956">
        <ele>1154.8</ele>
        <time>2022-09-18T03:40:57Z</time>
      </trkpt>
      <trkpt lat="44.14129" lon="6.59561">
        <ele>1154.8</ele>
        <time>2022-09-18T03:40:58Z</time>
      </trkpt>
      <trkpt lat="44.14133" lon="6.59563">
        <ele>1154.9</ele>
        <time>2022-09-18T03:40:59Z</time>
      </trkpt>
      <trkpt lat="44.14137" lon="6.59564">
        <ele>1155</ele>
        <time>2022-09-18T03:41:00Z</time>
      </trkpt>
      <trkpt lat="44.14142" lon="6.59565">
        <ele>1155</ele>
        <time>2022-09-18T03:41:01Z</time>
      </trkpt>
      <trkpt lat="44.14146" lon="6.59566">
        <ele>1155.1</ele>
        <time>2022-09-18T03:41:02Z</time>
      </trkpt>
      <trkpt lat="44.14151" lon="6.59568">
        <ele>1155.2</ele>
        <time>2022-09-18T03:41:03Z</time>
      </trkpt>
      <trkpt lat="44.14156" lon="6.59569">
        <ele>1155.3</ele>
        <time>2022-09-18T03:41:04Z</time>
      </trkpt>
      <trkpt lat="44.14161" lon="6.5957">
        <ele>1155.4</ele>
        <time>2022-09-18T03:41:05Z</time>
      </trkpt>
      <trkpt lat="44.14165" lon="6.59571">
        <ele>1155.5</ele>
        <time>2022-09-18T03:41:06Z</time>
      </trkpt>
      <trkpt lat="44.1417" lon="6.59573">
        <ele>1155.6</ele>
        <time>2022-09-18T03:41:07Z</time>
      </trkpt>
      <trkpt lat="44.14175" lon="6.59574">
        <ele>1155.6</ele>
        <time>2022-09-18T03:41:08Z</time>
      </trkpt>
      <trkpt lat="44.14179" lon="6.59576">
        <ele>1155.7</ele>
        <time>2022-09-18T03:41:09Z</time>
      </trkpt>
      <trkpt lat="44.14184" lon="6.59577">
        <ele>1155.8</ele>
        <time>2022-09-18T03:41:10Z</time>
      </trkpt>
      <trkpt lat="44.14188" lon="6.59578">
        <ele>1155.9</ele>
        <time>2022-09-18T03:41:11Z</time>
      </trkpt>
      <trkpt lat="44.14193" lon="6.59579">
        <ele>1156</ele>
        <time>2022-09-18T03:41:12Z</time>
      </trkpt>
      <trkpt lat="44.14197" lon="6.59581">
        <ele>1156.1</ele>
        <time>2022-09-18T03:41:13Z</time>
      </trkpt>
      <trkpt lat="44.14202" lon="6.59582">
        <ele>1156.2</ele>
        <time>2022-09-18T03:41:14Z</time>
      </trkpt>
      <trkpt lat="44.14206" lon="6.59583">
        <ele>1156.2</ele>
        <time>2022-09-18T03:41:15Z</time>
      </trkpt>
      <trkpt lat="44.14211" lon="6.59585">
        <ele>1156.3</ele>
        <time>2022-09-18T03:41:16Z</time>
      </trkpt>
      <trkpt lat="44.14214" lon="6.59586">
        <ele>1156.4</ele>
        <time>2022-09-18T03:41:17Z</time>
      </trkpt>
      <trkpt lat="44.1422" lon="6.59587">
        <ele>1156.5</ele>
        <time>2022-09-18T03:41:18Z</time>
      </trkpt>
      <trkpt lat="44.14224" lon="6.59589">
        <ele>1156.6</ele>
        <time>2022-09-18T03:41:19Z</time>
      </trkpt>
      <trkpt lat="44.14228" lon="6.59591">
        <ele>1156.6</ele>
        <time>2022-09-18T03:41:20Z</time>
      </trkpt>
      <trkpt lat="44.14231" lon="6.59593">
        <ele>1156.7</ele>
        <time>2022-09-18T03:41:21Z</time>
      </trkpt>
      <trkpt lat="44.14236" lon="6.59596">
        <ele>1156.8</ele>
        <time>2022-09-18T03:41:22Z</time>
      </trkpt>
      <trkpt lat="44.1424" lon="6.59598">
        <ele>1156.9</ele>
        <time>2022-09-18T03:41:23Z</time>
      </trkpt>
      <trkpt lat="44.14244" lon="6.59599">
        <ele>1157</ele>
        <time>2022-09-18T03:41:24Z</time>
      </trkpt>
      <trkpt lat="44.1425" lon="6.59601">
        <ele>1157.1</ele>
        <time>2022-09-18T03:41:25Z</time>
      </trkpt>
      <trkpt lat="44.14253" lon="6.59602">
        <ele>1157.2</ele>
        <time>2022-09-18T03:41:26Z</time>
      </trkpt>
      <trkpt lat="44.14257" lon="6.59602">
        <ele>1157.2</ele>
        <time>2022-09-18T03:41:27Z</time>
      </trkpt>
      <trkpt lat="44.14262" lon="6.59602">
        <ele>1157.3</ele>
        <time>2022-09-18T03:41:28Z</time>
      </trkpt>
      <trkpt lat="44.14265" lon="6.596">
        <ele>1157.2</ele>
        <time>2022-09-18T03:41:29Z</time>
      </trkpt>
      <trkpt lat="44.14267" lon="6.59595">
        <ele>1157.2</ele>
        <time>2022-09-18T03:41:30Z</time>
      </trkpt>
      <trkpt lat="44.14269" lon="6.59592">
        <ele>1157.1</ele>
        <time>2022-09-18T03:41:31Z</time>
      </trkpt>
      <trkpt lat="44.1427" lon="6.59586">
        <ele>1157.1</ele>
        <time>2022-09-18T03:41:32Z</time>
      </trkpt>
      <trkpt lat="44.14271" lon="6.59579">
        <ele>1157</ele>
        <time>2022-09-18T03:41:33Z</time>
      </trkpt>
      <trkpt lat="44.14273" lon="6.59573">
        <ele>1157</ele>
        <time>2022-09-18T03:41:34Z</time>
      </trkpt>
      <trkpt lat="44.14275" lon="6.59567">
        <ele>1156.9</ele>
        <time>2022-09-18T03:41:35Z</time>
      </trkpt>
      <trkpt lat="44.14277" lon="6.59561">
        <ele>1156.9</ele>
        <time>2022-09-18T03:41:36Z</time>
      </trkpt>
      <trkpt lat="44.14279" lon="6.59555">
        <ele>1156.9</ele>
        <time>2022-09-18T03:41:37Z</time>
      </trkpt>
      <trkpt lat="44.14281" lon="6.59549">
        <ele>1156.8</ele>
        <time>2022-09-18T03:41:38Z</time>
      </trkpt>
      <trkpt lat="44.14282" lon="6.59543">
        <ele>1156.8</ele>
        <time>2022-09-18T03:41:39Z</time>
      </trkpt>
      <trkpt lat="44.14284" lon="6.59536">
        <ele>1156.8</ele>
        <time>2022-09-18T03:41:40Z</time>
      </trkpt>
      <trkpt lat="44.14286" lon="6.5953">
        <ele>1156.8</ele>
        <time>2022-09-18T03:41:41Z</time>
      </trkpt>
      <trkpt lat="44.14288" lon="6.59524">
        <ele>1156.8</ele>
        <time>2022-09-18T03:41:42Z</time>
      </trkpt>
      <trkpt lat="44.14289" lon="6.59517">
        <ele>1156.7</ele>
        <time>2022-09-18T03:41:43Z</time>
      </trkpt>
      <trkpt lat="44.14291" lon="6.59511">
        <ele>1156.7</ele>
        <time>2022-09-18T03:41:44Z</time>
      </trkpt>
      <trkpt lat="44.14293" lon="6.59504">
        <ele>1156.7</ele>
        <time>2022-09-18T03:41:45Z</time>
      </trkpt>
      <trkpt lat="44.14295" lon="6.59497">
        <ele>1156.7</ele>
        <time>2022-09-18T03:41:46Z</time>
      </trkpt>
      <trkpt lat="44.14297" lon="6.59491">
        <ele>1156.6</ele>
        <time>2022-09-18T03:41:47Z</time>
      </trkpt>
      <trkpt lat="44.14299" lon="6.59484">
        <ele>1156.6</ele>
        <time>2022-09-18T03:41:48Z</time>
      </trkpt>
      <trkpt lat="44.14301" lon="6.59477">
        <ele>1156.6</ele>
        <time>2022-09-18T03:41:49Z</time>
      </trkpt>
      <trkpt lat="44.14302" lon="6.59471">
        <ele>1156.5</ele>
        <time>2022-09-18T03:41:50Z</time>
      </trkpt>
      <trkpt lat="44.14304" lon="6.59464">
        <ele>1156.5</ele>
        <time>2022-09-18T03:41:51Z</time>
      </trkpt>
      <trkpt lat="44.14306" lon="6.59458">
        <ele>1156.5</ele>
        <time>2022-09-18T03:41:52Z</time>
      </trkpt>
      <trkpt lat="44.14308" lon="6.59451">
        <ele>1156.5</ele>
        <time>2022-09-18T03:41:53Z</time>
      </trkpt>
      <trkpt lat="44.1431" lon="6.59444">
        <ele>1156.4</ele>
        <time>2022-09-18T03:41:54Z</time>
      </trkpt>
      <trkpt lat="44.14312" lon="6.59437">
        <ele>1156.4</ele>
        <time>2022-09-18T03:41:55Z</time>
      </trkpt>
      <trkpt lat="44.14314" lon="6.59431">
        <ele>1156.4</ele>
        <time>2022-09-18T03:41:56Z</time>
      </trkpt>
      <trkpt lat="44.14316" lon="6.59424">
        <ele>1156.4</ele>
        <time>2022-09-18T03:41:57Z</time>
      </trkpt>
      <trkpt lat="44.14318" lon="6.59417">
        <ele>1156.4</ele>
        <time>2022-09-18T03:41:58Z</time>
      </trkpt>
      <trkpt lat="44.1432" lon="6.5941">
        <ele>1156.4</ele>
        <time>2022-09-18T03:41:59Z</time>
      </trkpt>
      <trkpt lat="44.14322" lon="6.59404">
        <ele>1156.4</ele>
        <time>2022-09-18T03:42:00Z</time>
      </trkpt>
      <trkpt lat="44.14325" lon="6.59398">
        <ele>1156.4</ele>
        <time>2022-09-18T03:42:01Z</time>
      </trkpt>
      <trkpt lat="44.14329" lon="6.59396">
        <ele>1156.4</ele>
        <time>2022-09-18T03:42:02Z</time>
      </trkpt>
      <trkpt lat="44.14334" lon="6.59396">
        <ele>1156.6</ele>
        <time>2022-09-18T03:42:03Z</time>
      </trkpt>
      <trkpt lat="44.14338" lon="6.59398">
        <ele>1156.6</ele>
        <time>2022-09-18T03:42:04Z</time>
      </trkpt>
      <trkpt lat="44.14341" lon="6.594">
        <ele>1156.7</ele>
        <time>2022-09-18T03:42:05Z</time>
      </trkpt>
      <trkpt lat="44.14344" lon="6.59402">
        <ele>1156.7</ele>
        <time>2022-09-18T03:42:06Z</time>
      </trkpt>
      <trkpt lat="44.14348" lon="6.59405">
        <ele>1156.8</ele>
        <time>2022-09-18T03:42:07Z</time>
      </trkpt>
      <trkpt lat="44.1435" lon="6.59406">
        <ele>1156.8</ele>
        <time>2022-09-18T03:42:08Z</time>
      </trkpt>
      <trkpt lat="44.14355" lon="6.59409">
        <ele>1156.9</ele>
        <time>2022-09-18T03:42:09Z</time>
      </trkpt>
      <trkpt lat="44.14359" lon="6.59411">
        <ele>1157</ele>
        <time>2022-09-18T03:42:10Z</time>
      </trkpt>
      <trkpt lat="44.14365" lon="6.59413">
        <ele>1157.1</ele>
        <time>2022-09-18T03:42:11Z</time>
      </trkpt>
      <trkpt lat="44.1437" lon="6.59415">
        <ele>1157.2</ele>
        <time>2022-09-18T03:42:12Z</time>
      </trkpt>
      <trkpt lat="44.14375" lon="6.59416">
        <ele>1157.3</ele>
        <time>2022-09-18T03:42:13Z</time>
      </trkpt>
      <trkpt lat="44.14379" lon="6.5942">
        <ele>1157.4</ele>
        <time>2022-09-18T03:42:14Z</time>
      </trkpt>
      <trkpt lat="44.14383" lon="6.59425">
        <ele>1157.5</ele>
        <time>2022-09-18T03:42:15Z</time>
      </trkpt>
      <trkpt lat="44.14388" lon="6.59429">
        <ele>1157.6</ele>
        <time>2022-09-18T03:42:16Z</time>
      </trkpt>
      <trkpt lat="44.14392" lon="6.59432">
        <ele>1157.7</ele>
        <time>2022-09-18T03:42:17Z</time>
      </trkpt>
      <trkpt lat="44.14396" lon="6.59436">
        <ele>1157.9</ele>
        <time>2022-09-18T03:42:18Z</time>
      </trkpt>
      <trkpt lat="44.144" lon="6.5944">
        <ele>1158</ele>
        <time>2022-09-18T03:42:19Z</time>
      </trkpt>
      <trkpt lat="44.14404" lon="6.59443">
        <ele>1158.1</ele>
        <time>2022-09-18T03:42:20Z</time>
      </trkpt>
      <trkpt lat="44.14408" lon="6.59447">
        <ele>1158.2</ele>
        <time>2022-09-18T03:42:21Z</time>
      </trkpt>
      <trkpt lat="44.14412" lon="6.5945">
        <ele>1158.4</ele>
        <time>2022-09-18T03:42:22Z</time>
      </trkpt>
      <trkpt lat="44.14416" lon="6.59454">
        <ele>1158.5</ele>
        <time>2022-09-18T03:42:23Z</time>
      </trkpt>
      <trkpt lat="44.1442" lon="6.59457">
        <ele>1158.6</ele>
        <time>2022-09-18T03:42:24Z</time>
      </trkpt>
      <trkpt lat="44.14424" lon="6.59461">
        <ele>1158.7</ele>
        <time>2022-09-18T03:42:25Z</time>
      </trkpt>
      <trkpt lat="44.14428" lon="6.59463">
        <ele>1158.8</ele>
        <time>2022-09-18T03:42:26Z</time>
      </trkpt>
      <trkpt lat="44.14431" lon="6.59465">
        <ele>1158.9</ele>
        <time>2022-09-18T03:42:27Z</time>
      </trkpt>
      <trkpt lat="44.14435" lon="6.59465">
        <ele>1159</ele>
        <time>2022-09-18T03:42:28Z</time>
      </trkpt>
      <trkpt lat="44.14438" lon="6.59463">
        <ele>1159.7</ele>
        <time>2022-09-18T03:42:29Z</time>
      </trkpt>
      <trkpt lat="44.14443" lon="6.59458">
        <ele>1159.9</ele>
        <time>2022-09-18T03:42:30Z</time>
      </trkpt>
      <trkpt lat="44.14446" lon="6.59456">
        <ele>1160.1</ele>
        <time>2022-09-18T03:42:31Z</time>
      </trkpt>
      <trkpt lat="44.14451" lon="6.59452">
        <ele>1160.4</ele>
        <time>2022-09-18T03:42:32Z</time>
      </trkpt>
      <trkpt lat="44.14455" lon="6.5945">
        <ele>1160.5</ele>
        <time>2022-09-18T03:42:33Z</time>
      </trkpt>
      <trkpt lat="44.1446" lon="6.59448">
        <ele>1160.6</ele>
        <time>2022-09-18T03:42:34Z</time>
      </trkpt>
    </trkseg>
  </trk>
</gpx>